<?xml version='1.0' encoding='UTF-8'?><gpx version="1.1" creator="JPX - https://github.com/jenetics/jpx" xmlns="http://www.topografix.com/GPX/1/1"><trk><trkseg><trkpt lat="44.9242593477962" lon="11.988254943140268"><ele>-4.0</ele><time>2026-04-04T09:47:16Z</time></trkpt><trkpt lat="44.92421228272968" lon="11.988355514065825"><ele>-3.9999999999999996</ele><time>2026-04-04T09:47:22Z</time></trkpt><trkpt lat="44.924241595261286" lon="11.988440126118672"><ele>-4.0</ele><time>2026-04-04T09:47:29Z</time></trkpt><trkpt lat="44.924191932459316" lon="11.988338501793944"><ele>-4.0</ele><time>2026-04-04T09:48:02.999Z</time></trkpt><trkpt lat="44.92419756934376" lon="11.988244863153833"><ele>-3.9999999999999996</ele><time>2026-04-04T09:48:09.999Z</time></trkpt><trkpt lat="44.924234145797676" lon="11.988171694384118"><ele>-4.0</ele><time>2026-04-04T09:48:15.999Z</time></trkpt><trkpt lat="44.924290702343896" lon="11.98812571551296"><ele>-4.0</ele><time>2026-04-04T09:49:27Z</time></trkpt><trkpt lat="44.92428196109148" lon="11.988025222569803"><ele>-4.0</ele><time>2026-04-04T09:49:43.999Z</time></trkpt><trkpt lat="44.92429670649043" lon="11.988265036745105"><ele>-4.0</ele><time>2026-04-04T09:50:22.201Z</time></trkpt><trkpt lat="44.924298087176794" lon="11.988115841533977"><ele>-4.0</ele><time>2026-04-04T09:50:26.799Z</time></trkpt><trkpt lat="44.9242358532441" lon="11.988160554872255"><ele>-4.0</ele><time>2026-04-04T09:50:51Z</time></trkpt><trkpt lat="44.92422581226849" lon="11.988071350457108"><ele>-4.0</ele><time>2026-04-04T09:50:59Z</time></trkpt><trkpt lat="44.92420675973872" lon="11.988158619248416"><ele>-4.333333333333333</ele><time>2026-04-04T09:51:21Z</time></trkpt><trkpt lat="44.92419446783879" lon="11.988246104401751"><ele>-4.666666666666666</ele><time>2026-04-04T09:54:28.999Z</time></trkpt><trkpt lat="44.92420798149203" lon="11.98834359047045"><ele>-5.0</ele><time>2026-04-04T09:54:30.999Z</time></trkpt><trkpt lat="44.924196339007324" lon="11.988469238839379"><ele>-5.333333333333333</ele><time>2026-04-04T09:54:33.999Z</time></trkpt><trkpt lat="44.92414433227393" lon="11.98856130358315"><ele>-5.666666666666667</ele><time>2026-04-04T09:54:37.999Z</time></trkpt><trkpt lat="44.92410917623007" lon="11.988667874635002"><ele>-6.0</ele><time>2026-04-04T09:54:40.999Z</time></trkpt><trkpt lat="44.9240556202876" lon="11.988743684967057"><ele>-6.0</ele><time>2026-04-04T09:54:42.999Z</time></trkpt><trkpt lat="44.92397355362054" lon="11.98873343362066"><ele>-6.0</ele><time>2026-04-04T09:54:45Z</time></trkpt><trkpt lat="44.92390132302555" lon="11.98873085723875"><ele>-6.0</ele><time>2026-04-04T09:54:47Z</time></trkpt><trkpt lat="44.92382617329241" lon="11.988706703034568"><ele>-6.0</ele><time>2026-04-04T09:54:49Z</time></trkpt><trkpt lat="44.92374763189094" lon="11.988711567025076"><ele>-6.0</ele><time>2026-04-04T09:54:51Z</time></trkpt><trkpt lat="44.92367140555311" lon="11.988713599753309"><ele>-6.0</ele><time>2026-04-04T09:54:53Z</time></trkpt><trkpt lat="44.923595331105105" lon="11.988713323289545"><ele>-5.999999999999999</ele><time>2026-04-04T09:54:55Z</time></trkpt><trkpt lat="44.92352079339056" lon="11.988719944844242"><ele>-6.0</ele><time>2026-04-04T09:54:57Z</time></trkpt><trkpt lat="44.92344472117031" lon="11.988719415919155"><ele>-6.0</ele><time>2026-04-04T09:54:59Z</time></trkpt><trkpt lat="44.923373152493426" lon="11.988723002868756"><ele>-6.0</ele><time>2026-04-04T09:55:01Z</time></trkpt><trkpt lat="44.92329764020677" lon="11.98872484391886"><ele>-6.0</ele><time>2026-04-04T09:55:03Z</time></trkpt><trkpt lat="44.92322356793851" lon="11.988716663126537"><ele>-5.999999999999999</ele><time>2026-04-04T09:55:05Z</time></trkpt><trkpt lat="44.9231486343952" lon="11.988719917677217"><ele>-6.0</ele><time>2026-04-04T09:55:07Z</time></trkpt><trkpt lat="44.92307146194467" lon="11.988723487805176"><ele>-6.166666666666667</ele><time>2026-04-04T09:55:09Z</time></trkpt><trkpt lat="44.922994900232084" lon="11.988728272412338"><ele>-6.333333333333334</ele><time>2026-04-04T09:55:11Z</time></trkpt><trkpt lat="44.92291828823823" lon="11.988727366429618"><ele>-6.5</ele><time>2026-04-04T09:55:13Z</time></trkpt><trkpt lat="44.92284104483656" lon="11.988728509905831"><ele>-6.666666666666667</ele><time>2026-04-04T09:55:15Z</time></trkpt><trkpt lat="44.922764474306035" lon="11.988728250518873"><ele>-6.833333333333334</ele><time>2026-04-04T09:55:17Z</time></trkpt><trkpt lat="44.922688677647" lon="11.988724695237792"><ele>-7.0</ele><time>2026-04-04T09:55:19Z</time></trkpt><trkpt lat="44.92261029105364" lon="11.988735200816974"><ele>-6.666666666666667</ele><time>2026-04-04T09:55:21Z</time></trkpt><trkpt lat="44.92253285517258" lon="11.988733113510078"><ele>-6.333333333333334</ele><time>2026-04-04T09:55:23Z</time></trkpt><trkpt lat="44.922452570658265" lon="11.988738160262942"><ele>-6.0</ele><time>2026-04-04T09:55:25Z</time></trkpt><trkpt lat="44.92237522549938" lon="11.988741434341902"><ele>-5.666666666666667</ele><time>2026-04-04T09:55:27Z</time></trkpt><trkpt lat="44.92229919913411" lon="11.98874719840105"><ele>-5.333333333333334</ele><time>2026-04-04T09:55:29Z</time></trkpt><trkpt lat="44.92221890013592" lon="11.988749661452962"><ele>-5.0</ele><time>2026-04-04T09:55:31Z</time></trkpt><trkpt lat="44.92214216410401" lon="11.988756630729915"><ele>-5.0</ele><time>2026-04-04T09:55:32.999Z</time></trkpt><trkpt lat="44.922065572733835" lon="11.98876090805006"><ele>-5.0</ele><time>2026-04-04T09:55:34.999Z</time></trkpt><trkpt lat="44.92199033870367" lon="11.988756337459117"><ele>-5.0</ele><time>2026-04-04T09:55:36.999Z</time></trkpt><trkpt lat="44.92191394599966" lon="11.988767509636645"><ele>-5.0</ele><time>2026-04-04T09:55:38.999Z</time></trkpt><trkpt lat="44.92183807067194" lon="11.98876682495602"><ele>-5.0</ele><time>2026-04-04T09:55:40.999Z</time></trkpt><trkpt lat="44.92176166243231" lon="11.988766104202949"><ele>-5.0</ele><time>2026-04-04T09:55:42.999Z</time></trkpt><trkpt lat="44.92168358869956" lon="11.988769434029065"><ele>-5.166666666666667</ele><time>2026-04-04T09:55:44.999Z</time></trkpt><trkpt lat="44.92160789219161" lon="11.988780917737287"><ele>-5.333333333333334</ele><time>2026-04-04T09:55:46.999Z</time></trkpt><trkpt lat="44.92153019633585" lon="11.988781288063073"><ele>-5.5</ele><time>2026-04-04T09:55:48.999Z</time></trkpt><trkpt lat="44.92145290389523" lon="11.988780748659705"><ele>-5.666666666666667</ele><time>2026-04-04T09:55:50.999Z</time></trkpt><trkpt lat="44.92138071400882" lon="11.988786315340908"><ele>-5.833333333333333</ele><time>2026-04-04T09:55:52.999Z</time></trkpt><trkpt lat="44.92130138590456" lon="11.988787794605441"><ele>-6.0</ele><time>2026-04-04T09:55:54.999Z</time></trkpt><trkpt lat="44.921229859170815" lon="11.988788430414568"><ele>-6.0</ele><time>2026-04-04T09:55:56.999Z</time></trkpt><trkpt lat="44.92113634556583" lon="11.988807242444572"><ele>-6.0</ele><time>2026-04-04T09:55:59.999Z</time></trkpt><trkpt lat="44.92107112329227" lon="11.988857374237398"><ele>-6.0</ele><time>2026-04-04T09:56:02.999Z</time></trkpt><trkpt lat="44.92106427828998" lon="11.988989693886738"><ele>-6.0</ele><time>2026-04-04T09:56:05.999Z</time></trkpt><trkpt lat="44.92106830773665" lon="11.98909620074724"><ele>-6.0</ele><time>2026-04-04T09:56:07.999Z</time></trkpt><trkpt lat="44.921066274588334" lon="11.989199156460716"><ele>-6.0</ele><time>2026-04-04T09:56:09.999Z</time></trkpt><trkpt lat="44.92107028054019" lon="11.989313443754549"><ele>-5.999999999999999</ele><time>2026-04-04T09:56:11.999Z</time></trkpt><trkpt lat="44.92107142838523" lon="11.989426653246998"><ele>-6.0</ele><time>2026-04-04T09:56:13.999Z</time></trkpt><trkpt lat="44.92107197194335" lon="11.989530580868077"><ele>-6.0</ele><time>2026-04-04T09:56:15.999Z</time></trkpt><trkpt lat="44.92107510648817" lon="11.989635010359"><ele>-6.0</ele><time>2026-04-04T09:56:17.999Z</time></trkpt><trkpt lat="44.921073983499056" lon="11.989738208493872"><ele>-6.0</ele><time>2026-04-04T09:56:19.999Z</time></trkpt><trkpt lat="44.92107485133312" lon="11.989841013679529"><ele>-5.999999999999999</ele><time>2026-04-04T09:56:21.999Z</time></trkpt><trkpt lat="44.92107532481382" lon="11.989947338808895"><ele>-6.0</ele><time>2026-04-04T09:56:23.999Z</time></trkpt><trkpt lat="44.92107639724963" lon="11.99005118021382"><ele>-5.857142857142857</ele><time>2026-04-04T09:56:25.999Z</time></trkpt><trkpt lat="44.92107569721322" lon="11.990148159726544"><ele>-5.714285714285714</ele><time>2026-04-04T09:56:27.999Z</time></trkpt><trkpt lat="44.92107856569373" lon="11.990252325979528"><ele>-5.571428571428571</ele><time>2026-04-04T09:56:29.999Z</time></trkpt><trkpt lat="44.921080314877415" lon="11.99035429931705"><ele>-5.428571428571429</ele><time>2026-04-04T09:56:31.999Z</time></trkpt><trkpt lat="44.92107915996726" lon="11.990460008524735"><ele>-5.285714285714286</ele><time>2026-04-04T09:56:33.999Z</time></trkpt><trkpt lat="44.921084291752344" lon="11.990573192799454"><ele>-5.142857142857142</ele><time>2026-04-04T09:56:35.999Z</time></trkpt><trkpt lat="44.92108219352165" lon="11.99068157549327"><ele>-5.0</ele><time>2026-04-04T09:56:37.999Z</time></trkpt><trkpt lat="44.921083986899205" lon="11.990784648499073"><ele>-5.142857142857142</ele><time>2026-04-04T09:56:39.999Z</time></trkpt><trkpt lat="44.9210831697522" lon="11.99088843230237"><ele>-5.285714285714286</ele><time>2026-04-04T09:56:41.999Z</time></trkpt><trkpt lat="44.9210817117132" lon="11.990994351725318"><ele>-5.428571428571429</ele><time>2026-04-04T09:56:43.999Z</time></trkpt><trkpt lat="44.921095153388244" lon="11.991092453280103"><ele>-5.571428571428571</ele><time>2026-04-04T09:56:45.999Z</time></trkpt><trkpt lat="44.921119118877726" lon="11.99118522533783"><ele>-5.714285714285714</ele><time>2026-04-04T09:56:47.999Z</time></trkpt><trkpt lat="44.92108312016024" lon="11.991263371106207"><ele>-5.857142857142857</ele><time>2026-04-04T09:56:51Z</time></trkpt><trkpt lat="44.92101211528996" lon="11.991246021697219"><ele>-6.0</ele><time>2026-04-04T09:58:12.999Z</time></trkpt><trkpt lat="44.920936723175636" lon="11.991253689753746"><ele>-6.0</ele><time>2026-04-04T09:58:15.999Z</time></trkpt><trkpt lat="44.92085228476844" lon="11.99124559105246"><ele>-6.0</ele><time>2026-04-04T09:58:17.999Z</time></trkpt><trkpt lat="44.92077006848777" lon="11.991240132322957"><ele>-6.0</ele><time>2026-04-04T09:58:19.999Z</time></trkpt><trkpt lat="44.92068415415064" lon="11.991234695349055"><ele>-6.0</ele><time>2026-04-04T09:58:21.999Z</time></trkpt><trkpt lat="44.92059539358846" lon="11.991239377837196"><ele>-6.0</ele><time>2026-04-04T09:58:23.999Z</time></trkpt><trkpt lat="44.92050899280516" lon="11.991236876107424"><ele>-6.0</ele><time>2026-04-04T09:58:25.999Z</time></trkpt><trkpt lat="44.92042047449546" lon="11.991237194614696"><ele>-6.0</ele><time>2026-04-04T09:58:27.999Z</time></trkpt><trkpt lat="44.92033967267095" lon="11.991240197087908"><ele>-6.0</ele><time>2026-04-04T09:58:29.999Z</time></trkpt><trkpt lat="44.920257988544535" lon="11.991247264205883"><ele>-6.0</ele><time>2026-04-04T09:58:31.999Z</time></trkpt><trkpt lat="44.92018053242316" lon="11.99125427069351"><ele>-6.0</ele><time>2026-04-04T09:58:33.999Z</time></trkpt><trkpt lat="44.92011375583267" lon="11.991255730861491"><ele>-6.0</ele><time>2026-04-04T09:58:35.999Z</time></trkpt><trkpt lat="44.92002572849066" lon="11.991250023834814"><ele>-6.0</ele><time>2026-04-04T09:58:38.999Z</time></trkpt><trkpt lat="44.91994166041876" lon="11.99124758822354"><ele>-6.166666666666667</ele><time>2026-04-04T09:58:41.999Z</time></trkpt><trkpt lat="44.91986176980651" lon="11.991256663732534"><ele>-6.333333333333334</ele><time>2026-04-04T09:58:43.999Z</time></trkpt><trkpt lat="44.919782888031826" lon="11.991259274853627"><ele>-6.5</ele><time>2026-04-04T09:58:45.999Z</time></trkpt><trkpt lat="44.919703426307585" lon="11.991258594250857"><ele>-6.666666666666667</ele><time>2026-04-04T09:58:47.999Z</time></trkpt><trkpt lat="44.91963064459647" lon="11.99126652182414"><ele>-6.833333333333334</ele><time>2026-04-04T09:58:49.999Z</time></trkpt><trkpt lat="44.91955025704521" lon="11.991256795378566"><ele>-7.0</ele><time>2026-04-04T09:58:51.999Z</time></trkpt><trkpt lat="44.91946975782603" lon="11.991268408374165"><ele>-7.000000000000001</ele><time>2026-04-04T09:58:53.999Z</time></trkpt><trkpt lat="44.91938960428659" lon="11.991262189985145"><ele>-7.0</ele><time>2026-04-04T09:58:55.999Z</time></trkpt><trkpt lat="44.91931381144331" lon="11.991275750111749"><ele>-7.0</ele><time>2026-04-04T09:58:58Z</time></trkpt><trkpt lat="44.91924254339553" lon="11.99127460548127"><ele>-7.0</ele><time>2026-04-04T09:59:00Z</time></trkpt><trkpt lat="44.919162857473104" lon="11.9912764859507"><ele>-7.000000000000001</ele><time>2026-04-04T09:59:02Z</time></trkpt><trkpt lat="44.91908289671524" lon="11.99127148120799"><ele>-7.0</ele><time>2026-04-04T09:59:04Z</time></trkpt><trkpt lat="44.9190011747906" lon="11.991278099537844"><ele>-6.833333333333334</ele><time>2026-04-04T09:59:06Z</time></trkpt><trkpt lat="44.91892469708172" lon="11.991277087893405"><ele>-6.666666666666667</ele><time>2026-04-04T09:59:08Z</time></trkpt><trkpt lat="44.918843504556044" lon="11.991280510652093"><ele>-6.5</ele><time>2026-04-04T09:59:10Z</time></trkpt><trkpt lat="44.918763693735706" lon="11.991281331875275"><ele>-6.333333333333334</ele><time>2026-04-04T09:59:12Z</time></trkpt><trkpt lat="44.91868261351044" lon="11.991285220532163"><ele>-6.166666666666667</ele><time>2026-04-04T09:59:14Z</time></trkpt><trkpt lat="44.918602231097836" lon="11.99128529594027"><ele>-6.0</ele><time>2026-04-04T09:59:16Z</time></trkpt><trkpt lat="44.91852058109014" lon="11.991285964552747"><ele>-6.0</ele><time>2026-04-04T09:59:18Z</time></trkpt><trkpt lat="44.918439281211306" lon="11.991286898072815"><ele>-6.0</ele><time>2026-04-04T09:59:20Z</time></trkpt><trkpt lat="44.91835474414825" lon="11.99128876090276"><ele>-6.0</ele><time>2026-04-04T09:59:22Z</time></trkpt><trkpt lat="44.918271373302126" lon="11.99129026443246"><ele>-6.0</ele><time>2026-04-04T09:59:24Z</time></trkpt><trkpt lat="44.918188843904304" lon="11.991293786964542"><ele>-6.0</ele><time>2026-04-04T09:59:26Z</time></trkpt><trkpt lat="44.91810871859247" lon="11.991288471091512"><ele>-6.0</ele><time>2026-04-04T09:59:28Z</time></trkpt><trkpt lat="44.918029160965865" lon="11.991287627102418"><ele>-6.166666666666667</ele><time>2026-04-04T09:59:30Z</time></trkpt><trkpt lat="44.917948736401755" lon="11.991315058072002"><ele>-6.333333333333334</ele><time>2026-04-04T09:59:32Z</time></trkpt><trkpt lat="44.91786923913838" lon="11.991312003235485"><ele>-6.5</ele><time>2026-04-04T09:59:34Z</time></trkpt><trkpt lat="44.91779028562476" lon="11.991313281032351"><ele>-6.666666666666667</ele><time>2026-04-04T09:59:36Z</time></trkpt><trkpt lat="44.91771281262108" lon="11.991316909344967"><ele>-6.833333333333334</ele><time>2026-04-04T09:59:38Z</time></trkpt><trkpt lat="44.91763376909318" lon="11.991317028427137"><ele>-7.0</ele><time>2026-04-04T09:59:40Z</time></trkpt><trkpt lat="44.91755574845731" lon="11.99131790338127"><ele>-7.0</ele><time>2026-04-04T09:59:42Z</time></trkpt><trkpt lat="44.91747733369806" lon="11.991318823745683"><ele>-7.0</ele><time>2026-04-04T09:59:44Z</time></trkpt><trkpt lat="44.917400231678926" lon="11.991318803234307"><ele>-7.0</ele><time>2026-04-04T09:59:46Z</time></trkpt><trkpt lat="44.917329540374965" lon="11.9913274500597"><ele>-7.0</ele><time>2026-04-04T09:59:48Z</time></trkpt><trkpt lat="44.91726229601939" lon="11.991326470219825"><ele>-7.0</ele><time>2026-04-04T09:59:49.999Z</time></trkpt><trkpt lat="44.91718898229897" lon="11.99132748035353"><ele>-7.0</ele><time>2026-04-04T09:59:51.999Z</time></trkpt><trkpt lat="44.91711106251214" lon="11.991319658288301"><ele>-7.0</ele><time>2026-04-04T09:59:53.999Z</time></trkpt><trkpt lat="44.9170336691341" lon="11.991317811752282"><ele>-7.000000000000001</ele><time>2026-04-04T09:59:55.999Z</time></trkpt><trkpt lat="44.91695665275921" lon="11.991322870359909"><ele>-7.0</ele><time>2026-04-04T09:59:57.999Z</time></trkpt><trkpt lat="44.916877830627136" lon="11.991331621789875"><ele>-7.0</ele><time>2026-04-04T09:59:59.999Z</time></trkpt><trkpt lat="44.916804170256434" lon="11.99132129677803"><ele>-7.0</ele><time>2026-04-04T10:00:01.999Z</time></trkpt><trkpt lat="44.91672976609665" lon="11.99133329672178"><ele>-7.000000000000001</ele><time>2026-04-04T10:00:03.999Z</time></trkpt><trkpt lat="44.91666167801466" lon="11.991333123756368"><ele>-7.0</ele><time>2026-04-04T10:00:05.999Z</time></trkpt><trkpt lat="44.91656525472311" lon="11.99131955011896"><ele>-6.833333333333334</ele><time>2026-04-04T10:00:08.999Z</time></trkpt><trkpt lat="44.91649992950541" lon="11.991326661669818"><ele>-6.666666666666667</ele><time>2026-04-04T10:00:10.999Z</time></trkpt><trkpt lat="44.916428436575515" lon="11.991327577413477"><ele>-6.5</ele><time>2026-04-04T10:00:13.999Z</time></trkpt><trkpt lat="44.91633133347511" lon="11.99130918906856"><ele>-6.333333333333334</ele><time>2026-04-04T10:00:16.999Z</time></trkpt><trkpt lat="44.91626628119125" lon="11.99132897220619"><ele>-6.166666666666667</ele><time>2026-04-04T10:00:18.999Z</time></trkpt><trkpt lat="44.91619372898422" lon="11.991342998374643"><ele>-6.0</ele><time>2026-04-04T10:00:20.999Z</time></trkpt><trkpt lat="44.91610345120028" lon="11.99133415874344"><ele>-5.999999999999999</ele><time>2026-04-04T10:00:23.999Z</time></trkpt><trkpt lat="44.91604000795704" lon="11.991337760498498"><ele>-6.0</ele><time>2026-04-04T10:00:25.999Z</time></trkpt><trkpt lat="44.91595498276092" lon="11.99133487205595"><ele>-6.0</ele><time>2026-04-04T10:00:28.999Z</time></trkpt><trkpt lat="44.91588602971255" lon="11.991321572176988"><ele>-6.0</ele><time>2026-04-04T10:00:30.999Z</time></trkpt><trkpt lat="44.915805834645816" lon="11.991319822398022"><ele>-6.0</ele><time>2026-04-04T10:00:32.999Z</time></trkpt><trkpt lat="44.915734868428835" lon="11.991327013513132"><ele>-5.999999999999999</ele><time>2026-04-04T10:00:34.999Z</time></trkpt><trkpt lat="44.91567025699187" lon="11.99133341349724"><ele>-6.0</ele><time>2026-04-04T10:00:36.999Z</time></trkpt><trkpt lat="44.915607262793245" lon="11.99133548870368"><ele>-5.833333333333333</ele><time>2026-04-04T10:00:38.999Z</time></trkpt><trkpt lat="44.91551552348721" lon="11.991334891720985"><ele>-5.666666666666667</ele><time>2026-04-04T10:00:41.999Z</time></trkpt><trkpt lat="44.91544182662049" lon="11.9913340668584"><ele>-5.5</ele><time>2026-04-04T10:00:43.999Z</time></trkpt><trkpt lat="44.91537574236" lon="11.991347331377767"><ele>-5.333333333333334</ele><time>2026-04-04T10:00:45.999Z</time></trkpt><trkpt lat="44.915291337308744" lon="11.991345227606235"><ele>-5.166666666666667</ele><time>2026-04-04T10:00:48.999Z</time></trkpt><trkpt lat="44.91522519986168" lon="11.991329985146946"><ele>-5.0</ele><time>2026-04-04T10:00:50.999Z</time></trkpt><trkpt lat="44.91515186885125" lon="11.991339086538883"><ele>-5.0</ele><time>2026-04-04T10:00:52.999Z</time></trkpt><trkpt lat="44.91507126362352" lon="11.991340035299709"><ele>-5.0</ele><time>2026-04-04T10:00:54.999Z</time></trkpt><trkpt lat="44.91499372226066" lon="11.991337696244145"><ele>-5.0</ele><time>2026-04-04T10:00:56.999Z</time></trkpt><trkpt lat="44.91491553686728" lon="11.991347522758497"><ele>-5.0</ele><time>2026-04-04T10:00:58.999Z</time></trkpt><trkpt lat="44.914835869767266" lon="11.99135502688794"><ele>-5.0</ele><time>2026-04-04T10:01:00.999Z</time></trkpt><trkpt lat="44.91475687458738" lon="11.991352585944604"><ele>-5.0</ele><time>2026-04-04T10:01:03Z</time></trkpt><trkpt lat="44.914679252123285" lon="11.991349663453027"><ele>-5.0</ele><time>2026-04-04T10:01:05Z</time></trkpt><trkpt lat="44.91460247314223" lon="11.99134854745173"><ele>-5.0</ele><time>2026-04-04T10:01:07Z</time></trkpt><trkpt lat="44.91453394340837" lon="11.991343992807304"><ele>-5.0</ele><time>2026-04-04T10:01:09Z</time></trkpt><trkpt lat="44.91447085719652" lon="11.9913489127898"><ele>-5.0</ele><time>2026-04-04T10:01:11Z</time></trkpt><trkpt lat="44.914382001725414" lon="11.991350812916608"><ele>-5.0</ele><time>2026-04-04T10:01:14Z</time></trkpt><trkpt lat="44.914313329402596" lon="11.991355677493557"><ele>-5.0</ele><time>2026-04-04T10:01:16Z</time></trkpt><trkpt lat="44.914244419473086" lon="11.991363815773479"><ele>-5.0</ele><time>2026-04-04T10:01:18Z</time></trkpt><trkpt lat="44.91417505077011" lon="11.991352414595553"><ele>-5.0</ele><time>2026-04-04T10:01:20Z</time></trkpt><trkpt lat="44.91409726327335" lon="11.991361403717534"><ele>-5.0</ele><time>2026-04-04T10:01:22Z</time></trkpt><trkpt lat="44.91401716886767" lon="11.991353019557831"><ele>-5.0</ele><time>2026-04-04T10:01:24Z</time></trkpt><trkpt lat="44.913940410696945" lon="11.991351605534497"><ele>-5.0</ele><time>2026-04-04T10:01:26Z</time></trkpt><trkpt lat="44.913865898105925" lon="11.991357569038408"><ele>-5.0</ele><time>2026-04-04T10:01:28Z</time></trkpt><trkpt lat="44.91379149477337" lon="11.99135535550501"><ele>-5.0</ele><time>2026-04-04T10:01:30Z</time></trkpt><trkpt lat="44.91371806176021" lon="11.991356569791636"><ele>-5.0</ele><time>2026-04-04T10:01:32Z</time></trkpt><trkpt lat="44.91363733918118" lon="11.991353859252955"><ele>-5.0</ele><time>2026-04-04T10:01:34Z</time></trkpt><trkpt lat="44.91355756458826" lon="11.991350269762329"><ele>-5.0</ele><time>2026-04-04T10:01:36Z</time></trkpt><trkpt lat="44.91347921153472" lon="11.991360437938843"><ele>-5.0</ele><time>2026-04-04T10:01:38Z</time></trkpt><trkpt lat="44.913400545510335" lon="11.99135894033352"><ele>-5.0</ele><time>2026-04-04T10:01:40Z</time></trkpt><trkpt lat="44.91332846140973" lon="11.991364529317865"><ele>-5.0</ele><time>2026-04-04T10:01:42Z</time></trkpt><trkpt lat="44.91325887742308" lon="11.991352254798594"><ele>-5.0</ele><time>2026-04-04T10:01:44Z</time></trkpt><trkpt lat="44.91319268681607" lon="11.991349837607354"><ele>-5.0</ele><time>2026-04-04T10:01:46Z</time></trkpt><trkpt lat="44.913117213232546" lon="11.991348999948803"><ele>-5.0</ele><time>2026-04-04T10:01:48Z</time></trkpt><trkpt lat="44.91304426969964" lon="11.991348707071776"><ele>-5.0</ele><time>2026-04-04T10:01:50Z</time></trkpt><trkpt lat="44.91296176130926" lon="11.9913445268484"><ele>-5.0</ele><time>2026-04-04T10:01:52Z</time></trkpt><trkpt lat="44.91288597908308" lon="11.991343930771803"><ele>-5.0</ele><time>2026-04-04T10:01:54Z</time></trkpt><trkpt lat="44.9128064255356" lon="11.991338773048795"><ele>-5.0</ele><time>2026-04-04T10:01:56Z</time></trkpt><trkpt lat="44.91272580577495" lon="11.991335487843498"><ele>-5.0</ele><time>2026-04-04T10:01:58Z</time></trkpt><trkpt lat="44.91264754652716" lon="11.991331131240662"><ele>-5.0</ele><time>2026-04-04T10:01:59.999Z</time></trkpt><trkpt lat="44.9125682650749" lon="11.991322853578467"><ele>-5.0</ele><time>2026-04-04T10:02:01.999Z</time></trkpt><trkpt lat="44.912488911327785" lon="11.991317841503147"><ele>-5.0</ele><time>2026-04-04T10:02:03.999Z</time></trkpt><trkpt lat="44.9124077247236" lon="11.991313890561296"><ele>-5.0</ele><time>2026-04-04T10:02:05.999Z</time></trkpt><trkpt lat="44.912325352377906" lon="11.991310790905239"><ele>-5.166666666666667</ele><time>2026-04-04T10:02:07.999Z</time></trkpt><trkpt lat="44.91224516652964" lon="11.991303562884111"><ele>-5.333333333333334</ele><time>2026-04-04T10:02:09.999Z</time></trkpt><trkpt lat="44.91216432790332" lon="11.991297896242171"><ele>-5.5</ele><time>2026-04-04T10:02:11.999Z</time></trkpt><trkpt lat="44.9120865236102" lon="11.991291690315057"><ele>-5.666666666666667</ele><time>2026-04-04T10:02:13.999Z</time></trkpt><trkpt lat="44.912005686600885" lon="11.991287479687223"><ele>-5.833333333333333</ele><time>2026-04-04T10:02:15.999Z</time></trkpt><trkpt lat="44.91192631660401" lon="11.991284452945193"><ele>-6.0</ele><time>2026-04-04T10:02:17.999Z</time></trkpt><trkpt lat="44.91184746253289" lon="11.991274925813599"><ele>-6.0</ele><time>2026-04-04T10:02:19.999Z</time></trkpt><trkpt lat="44.91176810349567" lon="11.991271490071002"><ele>-6.0</ele><time>2026-04-04T10:02:21.999Z</time></trkpt><trkpt lat="44.911688890971796" lon="11.991270237726583"><ele>-6.0</ele><time>2026-04-04T10:02:23.999Z</time></trkpt><trkpt lat="44.91160639089663" lon="11.991266429064657"><ele>-6.0</ele><time>2026-04-04T10:02:25.999Z</time></trkpt><trkpt lat="44.91152700102119" lon="11.991259162827367"><ele>-6.0</ele><time>2026-04-04T10:02:27.999Z</time></trkpt><trkpt lat="44.91144771524782" lon="11.991254399168772"><ele>-6.0</ele><time>2026-04-04T10:02:29.999Z</time></trkpt><trkpt lat="44.91136672453022" lon="11.991249039242769"><ele>-6.166666666666667</ele><time>2026-04-04T10:02:31.999Z</time></trkpt><trkpt lat="44.9112860275963" lon="11.991241764191868"><ele>-6.333333333333334</ele><time>2026-04-04T10:02:33.999Z</time></trkpt><trkpt lat="44.91120490530845" lon="11.991238611927272"><ele>-6.5</ele><time>2026-04-04T10:02:35.999Z</time></trkpt><trkpt lat="44.911125571240255" lon="11.99122961501937"><ele>-6.666666666666667</ele><time>2026-04-04T10:02:37.999Z</time></trkpt><trkpt lat="44.91104630831642" lon="11.991226523726134"><ele>-6.833333333333334</ele><time>2026-04-04T10:02:39.999Z</time></trkpt><trkpt lat="44.91096595432786" lon="11.991220168148518"><ele>-7.0</ele><time>2026-04-04T10:02:41.999Z</time></trkpt><trkpt lat="44.910887696998316" lon="11.991213038359655"><ele>-7.166666666666667</ele><time>2026-04-04T10:02:43.999Z</time></trkpt><trkpt lat="44.91081163450644" lon="11.991207901506423"><ele>-7.333333333333334</ele><time>2026-04-04T10:02:45.999Z</time></trkpt><trkpt lat="44.91073391544201" lon="11.991205143990355"><ele>-7.5</ele><time>2026-04-04T10:02:47.999Z</time></trkpt><trkpt lat="44.91065305313695" lon="11.991199902909848"><ele>-7.666666666666666</ele><time>2026-04-04T10:02:49.999Z</time></trkpt><trkpt lat="44.910572234607415" lon="11.991195921024243"><ele>-7.833333333333333</ele><time>2026-04-04T10:02:51.999Z</time></trkpt><trkpt lat="44.910492173776525" lon="11.99119125663065"><ele>-8.0</ele><time>2026-04-04T10:02:53.999Z</time></trkpt><trkpt lat="44.91041185177292" lon="11.991190141019008"><ele>-7.999999999999999</ele><time>2026-04-04T10:02:55.999Z</time></trkpt><trkpt lat="44.91032756748741" lon="11.991184840740429"><ele>-8.0</ele><time>2026-04-04T10:02:57.999Z</time></trkpt><trkpt lat="44.91024935145476" lon="11.991175920922142"><ele>-8.0</ele><time>2026-04-04T10:02:59.999Z</time></trkpt><trkpt lat="44.91016897329501" lon="11.991171709112669"><ele>-8.0</ele><time>2026-04-04T10:03:01.999Z</time></trkpt><trkpt lat="44.91008991093975" lon="11.991162101439038"><ele>-7.999999999999999</ele><time>2026-04-04T10:03:03.999Z</time></trkpt><trkpt lat="44.910009034007196" lon="11.99115860323619"><ele>-8.0</ele><time>2026-04-04T10:03:05.999Z</time></trkpt><trkpt lat="44.90993007007526" lon="11.991155012074424"><ele>-7.666666666666666</ele><time>2026-04-04T10:03:07.999Z</time></trkpt><trkpt lat="44.909851265550884" lon="11.991149842926287"><ele>-7.333333333333333</ele><time>2026-04-04T10:03:10Z</time></trkpt><trkpt lat="44.909768595735265" lon="11.99114580058214"><ele>-7.0</ele><time>2026-04-04T10:03:12Z</time></trkpt><trkpt lat="44.90969030957302" lon="11.991138802757842"><ele>-6.666666666666666</ele><time>2026-04-04T10:03:14Z</time></trkpt><trkpt lat="44.909610915430164" lon="11.991133862109082"><ele>-6.333333333333333</ele><time>2026-04-04T10:03:16Z</time></trkpt><trkpt lat="44.90953295687699" lon="11.99113211719204"><ele>-6.0</ele><time>2026-04-04T10:03:18Z</time></trkpt><trkpt lat="44.909458403485296" lon="11.991130641129905"><ele>-6.0</ele><time>2026-04-04T10:03:20Z</time></trkpt><trkpt lat="44.90937952822835" lon="11.991126403567643"><ele>-6.0</ele><time>2026-04-04T10:03:22Z</time></trkpt><trkpt lat="44.909301395518405" lon="11.991124043735258"><ele>-6.0</ele><time>2026-04-04T10:03:24Z</time></trkpt><trkpt lat="44.909232620522445" lon="11.991114756947022"><ele>-6.0</ele><time>2026-04-04T10:03:26Z</time></trkpt><trkpt lat="44.90915958626115" lon="11.991113366230234"><ele>-6.0</ele><time>2026-04-04T10:03:28Z</time></trkpt><trkpt lat="44.909083030514346" lon="11.991105736923409"><ele>-6.0</ele><time>2026-04-04T10:03:30Z</time></trkpt><trkpt lat="44.90900207242144" lon="11.991105787598721"><ele>-5.666666666666667</ele><time>2026-04-04T10:03:32Z</time></trkpt><trkpt lat="44.90892115936937" lon="11.991094743032946"><ele>-5.333333333333333</ele><time>2026-04-04T10:03:34Z</time></trkpt><trkpt lat="44.90884220323825" lon="11.991089857226616"><ele>-5.0</ele><time>2026-04-04T10:03:36Z</time></trkpt><trkpt lat="44.90876062711974" lon="11.991089763747564"><ele>-4.666666666666666</ele><time>2026-04-04T10:03:38Z</time></trkpt><trkpt lat="44.90868020336556" lon="11.991070361518842"><ele>-4.333333333333333</ele><time>2026-04-04T10:03:40Z</time></trkpt><trkpt lat="44.908603800688866" lon="11.991067801444975"><ele>-4.0</ele><time>2026-04-04T10:03:42Z</time></trkpt><trkpt lat="44.9085311275779" lon="11.991057571439809"><ele>-3.9999999999999996</ele><time>2026-04-04T10:03:44Z</time></trkpt><trkpt lat="44.908464335947485" lon="11.991043644402925"><ele>-4.0</ele><time>2026-04-04T10:03:46Z</time></trkpt><trkpt lat="44.90836833215047" lon="11.99105279846231"><ele>-4.0</ele><time>2026-04-04T10:03:49Z</time></trkpt><trkpt lat="44.90827910936382" lon="11.991040499996863"><ele>-4.0</ele><time>2026-04-04T10:03:52Z</time></trkpt><trkpt lat="44.90823943200576" lon="11.990955472913532"><ele>-3.9999999999999996</ele><time>2026-04-04T10:03:54Z</time></trkpt><trkpt lat="44.908233486749886" lon="11.990833524484223"><ele>-4.0</ele><time>2026-04-04T10:03:56Z</time></trkpt><trkpt lat="44.908213612865076" lon="11.990708641615392"><ele>-3.9999999999999996</ele><time>2026-04-04T10:03:58Z</time></trkpt><trkpt lat="44.90819723158392" lon="11.990590698266532"><ele>-4.0</ele><time>2026-04-04T10:04:00Z</time></trkpt><trkpt lat="44.90816842925041" lon="11.99047845003265"><ele>-4.0</ele><time>2026-04-04T10:04:02Z</time></trkpt><trkpt lat="44.9081501874722" lon="11.99036741200894"><ele>-4.0</ele><time>2026-04-04T10:04:04Z</time></trkpt><trkpt lat="44.90813575857172" lon="11.9902497333631"><ele>-3.9999999999999996</ele><time>2026-04-04T10:04:06Z</time></trkpt><trkpt lat="44.9081139636131" lon="11.990132392386046"><ele>-4.0</ele><time>2026-04-04T10:04:08Z</time></trkpt><trkpt lat="44.90809329118955" lon="11.99001449410003"><ele>-3.9999999999999996</ele><time>2026-04-04T10:04:10Z</time></trkpt><trkpt lat="44.908067817712904" lon="11.989898943162602"><ele>-4.0</ele><time>2026-04-04T10:04:12Z</time></trkpt><trkpt lat="44.90805086495024" lon="11.989779564134183"><ele>-4.0</ele><time>2026-04-04T10:04:14Z</time></trkpt><trkpt lat="44.9080330211199" lon="11.989660789037952"><ele>-4.0</ele><time>2026-04-04T10:04:15.999Z</time></trkpt><trkpt lat="44.90800997363583" lon="11.989534580690751"><ele>-3.9999999999999996</ele><time>2026-04-04T10:04:17.999Z</time></trkpt><trkpt lat="44.90798526862315" lon="11.989411454553538"><ele>-4.0</ele><time>2026-04-04T10:04:19.999Z</time></trkpt><trkpt lat="44.907969462128804" lon="11.989292914333214"><ele>-4.166666666666666</ele><time>2026-04-04T10:04:21.999Z</time></trkpt><trkpt lat="44.907949872772384" lon="11.989173323806677"><ele>-4.333333333333333</ele><time>2026-04-04T10:04:23.999Z</time></trkpt><trkpt lat="44.907929178775476" lon="11.989058225940422"><ele>-4.5</ele><time>2026-04-04T10:04:25.999Z</time></trkpt><trkpt lat="44.90790655560618" lon="11.988944023477082"><ele>-4.666666666666667</ele><time>2026-04-04T10:04:27.999Z</time></trkpt><trkpt lat="44.90788070065085" lon="11.988821725186561"><ele>-4.833333333333334</ele><time>2026-04-04T10:04:29.999Z</time></trkpt><trkpt lat="44.90785817403518" lon="11.988689231348166"><ele>-5.0</ele><time>2026-04-04T10:04:31.999Z</time></trkpt><trkpt lat="44.90783706167306" lon="11.988556563642092"><ele>-5.0</ele><time>2026-04-04T10:04:33.999Z</time></trkpt><trkpt lat="44.90781148570256" lon="11.9884271236015"><ele>-5.0</ele><time>2026-04-04T10:04:35.999Z</time></trkpt><trkpt lat="44.90779285061294" lon="11.988297118883372"><ele>-5.0</ele><time>2026-04-04T10:04:37.999Z</time></trkpt><trkpt lat="44.907764060573065" lon="11.988167978480906"><ele>-5.0</ele><time>2026-04-04T10:04:39.999Z</time></trkpt><trkpt lat="44.90774399990458" lon="11.988038840179128"><ele>-5.0</ele><time>2026-04-04T10:04:41.999Z</time></trkpt><trkpt lat="44.90771518004812" lon="11.987910159123606"><ele>-5.0</ele><time>2026-04-04T10:04:43.999Z</time></trkpt><trkpt lat="44.907693967164136" lon="11.987781018867272"><ele>-5.0</ele><time>2026-04-04T10:04:45.999Z</time></trkpt><trkpt lat="44.90767464286362" lon="11.98764747614853"><ele>-5.0</ele><time>2026-04-04T10:04:47.999Z</time></trkpt><trkpt lat="44.907648945884866" lon="11.987517788088036"><ele>-5.0</ele><time>2026-04-04T10:04:49.999Z</time></trkpt><trkpt lat="44.90762581887605" lon="11.987403039277268"><ele>-5.0</ele><time>2026-04-04T10:04:51.999Z</time></trkpt><trkpt lat="44.90760725979484" lon="11.987296115302085"><ele>-5.0</ele><time>2026-04-04T10:04:53.999Z</time></trkpt><trkpt lat="44.907588273775545" lon="11.987188832665394"><ele>-5.2</ele><time>2026-04-04T10:04:55.999Z</time></trkpt><trkpt lat="44.907569470094984" lon="11.987067852873107"><ele>-5.4</ele><time>2026-04-04T10:04:57.999Z</time></trkpt><trkpt lat="44.907545136981916" lon="11.98693915437865"><ele>-5.6</ele><time>2026-04-04T10:04:59.999Z</time></trkpt><trkpt lat="44.90752469862873" lon="11.986807051117193"><ele>-5.8</ele><time>2026-04-04T10:05:01.999Z</time></trkpt><trkpt lat="44.90750148896768" lon="11.986676345277854"><ele>-6.0</ele><time>2026-04-04T10:05:03.999Z</time></trkpt><trkpt lat="44.907480857618886" lon="11.98654710390115"><ele>-6.0</ele><time>2026-04-04T10:05:05.999Z</time></trkpt><trkpt lat="44.907458644221144" lon="11.986415176799094"><ele>-6.0</ele><time>2026-04-04T10:05:07.999Z</time></trkpt><trkpt lat="44.907434241832966" lon="11.986283105145766"><ele>-6.0</ele><time>2026-04-04T10:05:09.999Z</time></trkpt><trkpt lat="44.90741030375631" lon="11.98615547794425"><ele>-6.0</ele><time>2026-04-04T10:05:11.999Z</time></trkpt><trkpt lat="44.907390680332014" lon="11.986021431969467"><ele>-6.0</ele><time>2026-04-04T10:05:13.999Z</time></trkpt><trkpt lat="44.90736827969238" lon="11.985889523851604"><ele>-5.8</ele><time>2026-04-04T10:05:16Z</time></trkpt><trkpt lat="44.90734241377741" lon="11.985752245268943"><ele>-5.6</ele><time>2026-04-04T10:05:18Z</time></trkpt><trkpt lat="44.907319275264314" lon="11.985611325643413"><ele>-5.4</ele><time>2026-04-04T10:05:20Z</time></trkpt><trkpt lat="44.907328320115916" lon="11.98546304752021"><ele>-5.2</ele><time>2026-04-04T10:05:22Z</time></trkpt><trkpt lat="44.90730491886007" lon="11.98532725526652"><ele>-5.0</ele><time>2026-04-04T10:05:24Z</time></trkpt><trkpt lat="44.9072803807261" lon="11.985184865995757"><ele>-5.0</ele><time>2026-04-04T10:05:26Z</time></trkpt><trkpt lat="44.90725706788157" lon="11.985049586836201"><ele>-5.0</ele><time>2026-04-04T10:05:28Z</time></trkpt><trkpt lat="44.907234104683496" lon="11.98491633661976"><ele>-5.0</ele><time>2026-04-04T10:05:30Z</time></trkpt><trkpt lat="44.907210693320124" lon="11.984780485502146"><ele>-5.0</ele><time>2026-04-04T10:05:32Z</time></trkpt><trkpt lat="44.90718789092037" lon="11.984648168350166"><ele>-5.0</ele><time>2026-04-04T10:05:34Z</time></trkpt><trkpt lat="44.90716505039532" lon="11.984515629860752"><ele>-5.0</ele><time>2026-04-04T10:05:36Z</time></trkpt><trkpt lat="44.907141924884044" lon="11.984381437698678"><ele>-5.0</ele><time>2026-04-04T10:05:38Z</time></trkpt><trkpt lat="44.9071193946919" lon="11.984250700096961"><ele>-5.0</ele><time>2026-04-04T10:05:40Z</time></trkpt><trkpt lat="44.907096066584984" lon="11.984115332356769"><ele>-5.0</ele><time>2026-04-04T10:05:42Z</time></trkpt><trkpt lat="44.90707314478626" lon="11.983983223171562"><ele>-5.0</ele><time>2026-04-04T10:05:44Z</time></trkpt><trkpt lat="44.90704926634549" lon="11.98384605603746"><ele>-5.0</ele><time>2026-04-04T10:05:46Z</time></trkpt><trkpt lat="44.907026512448844" lon="11.983715543074574"><ele>-5.0</ele><time>2026-04-04T10:05:48Z</time></trkpt><trkpt lat="44.907003369281355" lon="11.983583681671044"><ele>-5.0</ele><time>2026-04-04T10:05:50Z</time></trkpt><trkpt lat="44.90698012456325" lon="11.983451241712775"><ele>-5.0</ele><time>2026-04-04T10:05:52Z</time></trkpt><trkpt lat="44.90695710072591" lon="11.983320060224367"><ele>-5.0</ele><time>2026-04-04T10:05:54Z</time></trkpt><trkpt lat="44.9069349634701" lon="11.983193930178723"><ele>-5.0</ele><time>2026-04-04T10:05:56Z</time></trkpt><trkpt lat="44.906912336202566" lon="11.983065008239231"><ele>-5.0</ele><time>2026-04-04T10:05:58Z</time></trkpt><trkpt lat="44.906889996130054" lon="11.982937722663996"><ele>-5.0</ele><time>2026-04-04T10:06:00Z</time></trkpt><trkpt lat="44.906867722753695" lon="11.982810817057047"><ele>-5.0</ele><time>2026-04-04T10:06:02Z</time></trkpt><trkpt lat="44.906845437001635" lon="11.982683840890813"><ele>-5.0</ele><time>2026-04-04T10:06:04Z</time></trkpt><trkpt lat="44.906822768408674" lon="11.982554072707249"><ele>-5.2</ele><time>2026-04-04T10:06:06Z</time></trkpt><trkpt lat="44.90679997643176" lon="11.982423570657993"><ele>-5.4</ele><time>2026-04-04T10:06:08Z</time></trkpt><trkpt lat="44.906777180290426" lon="11.982293044584173"><ele>-5.6</ele><time>2026-04-04T10:06:10Z</time></trkpt><trkpt lat="44.90675488626208" lon="11.982165393761889"><ele>-5.8</ele><time>2026-04-04T10:06:12Z</time></trkpt><trkpt lat="44.90673180362068" lon="11.982033227361862"><ele>-6.0</ele><time>2026-04-04T10:06:14Z</time></trkpt><trkpt lat="44.90670932077396" lon="11.981904495304232"><ele>-6.0</ele><time>2026-04-04T10:06:16Z</time></trkpt><trkpt lat="44.90668690843608" lon="11.981776166915793"><ele>-6.0</ele><time>2026-04-04T10:06:17.999Z</time></trkpt><trkpt lat="44.90666385930882" lon="11.98164419239893"><ele>-6.0</ele><time>2026-04-04T10:06:19.999Z</time></trkpt><trkpt lat="44.906641167845166" lon="11.981514396162689"><ele>-6.0</ele><time>2026-04-04T10:06:21.999Z</time></trkpt><trkpt lat="44.90661752282678" lon="11.98138248357813"><ele>-6.0</ele><time>2026-04-04T10:06:23.999Z</time></trkpt><trkpt lat="44.9065945228559" lon="11.981254170078955"><ele>-5.8</ele><time>2026-04-04T10:06:25.999Z</time></trkpt><trkpt lat="44.90657128624484" lon="11.981124536177271"><ele>-5.6</ele><time>2026-04-04T10:06:27.999Z</time></trkpt><trkpt lat="44.90654809611538" lon="11.980995161729233"><ele>-5.4</ele><time>2026-04-04T10:06:29.999Z</time></trkpt><trkpt lat="44.90652466693825" lon="11.980864453325863"><ele>-5.2</ele><time>2026-04-04T10:06:31.999Z</time></trkpt><trkpt lat="44.906501226174434" lon="11.9807336806787"><ele>-5.0</ele><time>2026-04-04T10:06:33.999Z</time></trkpt><trkpt lat="44.90647789805946" lon="11.980603536265374"><ele>-5.0</ele><time>2026-04-04T10:06:35.999Z</time></trkpt><trkpt lat="44.90645432527505" lon="11.98047202701239"><ele>-5.0</ele><time>2026-04-04T10:06:37.999Z</time></trkpt><trkpt lat="44.90643023672557" lon="11.98033764023935"><ele>-5.0</ele><time>2026-04-04T10:06:39.999Z</time></trkpt><trkpt lat="44.90640616145839" lon="11.98020332763633"><ele>-5.0</ele><time>2026-04-04T10:06:41.999Z</time></trkpt><trkpt lat="44.906382324144886" lon="11.98006968794645"><ele>-5.0</ele><time>2026-04-04T10:06:43.999Z</time></trkpt><trkpt lat="44.90635854747029" lon="11.979935472634141"><ele>-5.0</ele><time>2026-04-04T10:06:45.999Z</time></trkpt><trkpt lat="44.90633510198542" lon="11.97980312668355"><ele>-5.0</ele><time>2026-04-04T10:06:47.999Z</time></trkpt><trkpt lat="44.90631151261949" lon="11.979669968709297"><ele>-5.0</ele><time>2026-04-04T10:06:49.999Z</time></trkpt><trkpt lat="44.90628805046623" lon="11.979537528849718"><ele>-5.0</ele><time>2026-04-04T10:06:51.999Z</time></trkpt><trkpt lat="44.90626498127364" lon="11.979407306957816"><ele>-5.0</ele><time>2026-04-04T10:06:53.999Z</time></trkpt><trkpt lat="44.90624142809521" lon="11.97927435331702"><ele>-5.2</ele><time>2026-04-04T10:06:55.999Z</time></trkpt><trkpt lat="44.90619335078058" lon="11.979149369540002"><ele>-5.4</ele><time>2026-04-04T10:06:57.999Z</time></trkpt><trkpt lat="44.9061684621479" lon="11.979020357431828"><ele>-5.6</ele><time>2026-04-04T10:06:59.999Z</time></trkpt><trkpt lat="44.906142037555085" lon="11.978890223975117"><ele>-5.8</ele><time>2026-04-04T10:07:01.999Z</time></trkpt><trkpt lat="44.90611767333582" lon="11.978758398294357"><ele>-6.0</ele><time>2026-04-04T10:07:03.999Z</time></trkpt><trkpt lat="44.90609278120127" lon="11.978624826881735"><ele>-6.0</ele><time>2026-04-04T10:07:05.999Z</time></trkpt><trkpt lat="44.90606963480445" lon="11.97849439103014"><ele>-6.0</ele><time>2026-04-04T10:07:07.999Z</time></trkpt><trkpt lat="44.90604639238539" lon="11.97836716388831"><ele>-6.0</ele><time>2026-04-04T10:07:09.999Z</time></trkpt><trkpt lat="44.90602369885839" lon="11.978236617305045"><ele>-6.0</ele><time>2026-04-04T10:07:11.999Z</time></trkpt><trkpt lat="44.90600188262" lon="11.978113206804274"><ele>-6.0</ele><time>2026-04-04T10:07:13.999Z</time></trkpt><trkpt lat="44.90597790611582" lon="11.977984288829457"><ele>-6.0</ele><time>2026-04-04T10:07:15.999Z</time></trkpt><trkpt lat="44.90595431860717" lon="11.97785501851945"><ele>-6.0</ele><time>2026-04-04T10:07:17.999Z</time></trkpt><trkpt lat="44.90593166433394" lon="11.977720552803417"><ele>-6.0</ele><time>2026-04-04T10:07:20Z</time></trkpt><trkpt lat="44.90590941325988" lon="11.977584997509314"><ele>-6.0</ele><time>2026-04-04T10:07:22Z</time></trkpt><trkpt lat="44.90588626555631" lon="11.977453739502115"><ele>-6.0</ele><time>2026-04-04T10:07:24Z</time></trkpt><trkpt lat="44.90586009582968" lon="11.977321015632256"><ele>-5.666666666666667</ele><time>2026-04-04T10:07:26Z</time></trkpt><trkpt lat="44.90583951799991" lon="11.977190324081333"><ele>-5.333333333333333</ele><time>2026-04-04T10:07:28Z</time></trkpt><trkpt lat="44.905817041451094" lon="11.977072738051662"><ele>-5.0</ele><time>2026-04-04T10:07:30Z</time></trkpt><trkpt lat="44.905793602488636" lon="11.976964953930205"><ele>-4.666666666666666</ele><time>2026-04-04T10:07:32Z</time></trkpt><trkpt lat="44.90577643188329" lon="11.976852253526928"><ele>-4.333333333333333</ele><time>2026-04-04T10:07:35Z</time></trkpt><trkpt lat="44.9057765736747" lon="11.976738197268212"><ele>-4.0</ele><time>2026-04-04T10:07:40Z</time></trkpt><trkpt lat="44.90587270892426" lon="11.976732934775029"><ele>-3.9999999999999996</ele><time>2026-04-04T10:07:43Z</time></trkpt><trkpt lat="44.90592434240959" lon="11.976666839287194"><ele>-4.0</ele><time>2026-04-04T10:07:45Z</time></trkpt><trkpt lat="44.90594570482918" lon="11.976560321857757"><ele>-4.0</ele><time>2026-04-04T10:07:47Z</time></trkpt><trkpt lat="44.90590929652587" lon="11.976444849316696"><ele>-4.0</ele><time>2026-04-04T10:07:49Z</time></trkpt><trkpt lat="44.90588433483153" lon="11.976333291857038"><ele>-3.9999999999999996</ele><time>2026-04-04T10:07:51Z</time></trkpt><trkpt lat="44.90585569808784" lon="11.97621388598774"><ele>-4.0</ele><time>2026-04-04T10:07:53Z</time></trkpt><trkpt lat="44.90582946525746" lon="11.976082507071505"><ele>-4.0</ele><time>2026-04-04T10:07:55Z</time></trkpt><trkpt lat="44.90579911545709" lon="11.97594936900757"><ele>-4.0</ele><time>2026-04-04T10:07:57Z</time></trkpt><trkpt lat="44.90577254151677" lon="11.975814864238414"><ele>-4.0</ele><time>2026-04-04T10:07:59Z</time></trkpt><trkpt lat="44.905736089892436" lon="11.975679426392615"><ele>-4.0</ele><time>2026-04-04T10:08:01Z</time></trkpt><trkpt lat="44.905719843771955" lon="11.975541215524707"><ele>-4.0</ele><time>2026-04-04T10:08:03Z</time></trkpt><trkpt lat="44.9057028386923" lon="11.975402926971345"><ele>-4.4</ele><time>2026-04-04T10:08:05Z</time></trkpt><trkpt lat="44.90568267203797" lon="11.975270452868397"><ele>-4.800000000000001</ele><time>2026-04-04T10:08:07Z</time></trkpt><trkpt lat="44.905655270834096" lon="11.975138062060601"><ele>-5.199999999999999</ele><time>2026-04-04T10:08:09Z</time></trkpt><trkpt lat="44.90563598046435" lon="11.975006498634038"><ele>-5.6</ele><time>2026-04-04T10:08:11Z</time></trkpt><trkpt lat="44.905612145430055" lon="11.974874992655822"><ele>-6.0</ele><time>2026-04-04T10:08:13Z</time></trkpt><trkpt lat="44.90558903753393" lon="11.974746478969104"><ele>-6.0</ele><time>2026-04-04T10:08:15Z</time></trkpt><trkpt lat="44.90556592680233" lon="11.97461354637105"><ele>-6.0</ele><time>2026-04-04T10:08:17Z</time></trkpt><trkpt lat="44.90554439315085" lon="11.974478307589639"><ele>-6.0</ele><time>2026-04-04T10:08:19Z</time></trkpt><trkpt lat="44.90551899404146" lon="11.974341799986693"><ele>-6.0</ele><time>2026-04-04T10:08:21Z</time></trkpt><trkpt lat="44.90549643937796" lon="11.974204947504472"><ele>-6.0</ele><time>2026-04-04T10:08:22.999Z</time></trkpt><trkpt lat="44.905469745433344" lon="11.974067311996343"><ele>-6.0</ele><time>2026-04-04T10:08:24.999Z</time></trkpt><trkpt lat="44.905447197097196" lon="11.973927286051413"><ele>-6.0</ele><time>2026-04-04T10:08:26.999Z</time></trkpt><trkpt lat="44.90542223404476" lon="11.973784636386814"><ele>-6.0</ele><time>2026-04-04T10:08:28.999Z</time></trkpt><trkpt lat="44.90539344367868" lon="11.973645998735536"><ele>-6.0</ele><time>2026-04-04T10:08:30.999Z</time></trkpt><trkpt lat="44.90537005998281" lon="11.973506095209851"><ele>-6.0</ele><time>2026-04-04T10:08:32.999Z</time></trkpt><trkpt lat="44.90534646660217" lon="11.973370764218565"><ele>-6.0</ele><time>2026-04-04T10:08:34.999Z</time></trkpt><trkpt lat="44.905325793908155" lon="11.973246255124126"><ele>-6.0</ele><time>2026-04-04T10:08:36.999Z</time></trkpt><trkpt lat="44.90530797371495" lon="11.973119811524537"><ele>-6.0</ele><time>2026-04-04T10:08:38.999Z</time></trkpt><trkpt lat="44.90528488075787" lon="11.972989651489641"><ele>-6.0</ele><time>2026-04-04T10:08:40.999Z</time></trkpt><trkpt lat="44.90526147090416" lon="11.972858058268221"><ele>-6.0</ele><time>2026-04-04T10:08:42.999Z</time></trkpt><trkpt lat="44.90523505861666" lon="11.97272837102724"><ele>-6.0</ele><time>2026-04-04T10:08:44.999Z</time></trkpt><trkpt lat="44.90520933480082" lon="11.972600350068605"><ele>-6.0</ele><time>2026-04-04T10:08:46.999Z</time></trkpt><trkpt lat="44.905187536252186" lon="11.972470101534912"><ele>-6.0</ele><time>2026-04-04T10:08:48.999Z</time></trkpt><trkpt lat="44.905165562439926" lon="11.972338900622812"><ele>-6.0</ele><time>2026-04-04T10:08:50.999Z</time></trkpt><trkpt lat="44.905142768937175" lon="11.972210266574455"><ele>-6.0</ele><time>2026-04-04T10:08:52.999Z</time></trkpt><trkpt lat="44.905120989491756" lon="11.972078992605967"><ele>-6.0</ele><time>2026-04-04T10:08:54.999Z</time></trkpt><trkpt lat="44.9050912360139" lon="11.971945365099074"><ele>-6.0</ele><time>2026-04-04T10:08:56.999Z</time></trkpt><trkpt lat="44.90507365265091" lon="11.97181516103455"><ele>-6.0</ele><time>2026-04-04T10:08:58.999Z</time></trkpt><trkpt lat="44.905052894812975" lon="11.971684065949319"><ele>-6.0</ele><time>2026-04-04T10:09:00.999Z</time></trkpt><trkpt lat="44.90502527219714" lon="11.971555211010193"><ele>-6.0</ele><time>2026-04-04T10:09:02.999Z</time></trkpt><trkpt lat="44.905001222443936" lon="11.971433190641946"><ele>-6.0</ele><time>2026-04-04T10:09:04.999Z</time></trkpt><trkpt lat="44.90498115712932" lon="11.97131509090855"><ele>-6.0</ele><time>2026-04-04T10:09:06.999Z</time></trkpt><trkpt lat="44.90497354184245" lon="11.97119808088304"><ele>-6.0</ele><time>2026-04-04T10:09:08.999Z</time></trkpt><trkpt lat="44.9049981603517" lon="11.971092448767612"><ele>-6.0</ele><time>2026-04-04T10:09:10.999Z</time></trkpt><trkpt lat="44.90506481849803" lon="11.971008313114357"><ele>-6.0</ele><time>2026-04-04T10:09:12.999Z</time></trkpt><trkpt lat="44.905161479213014" lon="11.970976006771933"><ele>-6.0</ele><time>2026-04-04T10:09:14.999Z</time></trkpt><trkpt lat="44.905262506602995" lon="11.970973035136648"><ele>-5.8</ele><time>2026-04-04T10:09:16.999Z</time></trkpt><trkpt lat="44.9053628284499" lon="11.970961743157464"><ele>-5.6</ele><time>2026-04-04T10:09:18.999Z</time></trkpt><trkpt lat="44.90546339386436" lon="11.970952315688471"><ele>-5.4</ele><time>2026-04-04T10:09:20.999Z</time></trkpt><trkpt lat="44.905562754015136" lon="11.970945710547825"><ele>-5.2</ele><time>2026-04-04T10:09:22.999Z</time></trkpt><trkpt lat="44.905662309370015" lon="11.97094070423478"><ele>-5.0</ele><time>2026-04-04T10:09:24.999Z</time></trkpt><trkpt lat="44.90576023404925" lon="11.97095145894137"><ele>-5.0</ele><time>2026-04-04T10:09:27Z</time></trkpt><trkpt lat="44.905859515415614" lon="11.970948629077487"><ele>-5.0</ele><time>2026-04-04T10:09:29Z</time></trkpt><trkpt lat="44.905957489619745" lon="11.97094184583557"><ele>-5.0</ele><time>2026-04-04T10:09:31Z</time></trkpt><trkpt lat="44.90605578761765" lon="11.970942001525737"><ele>-5.0</ele><time>2026-04-04T10:09:33Z</time></trkpt><trkpt lat="44.90615225247017" lon="11.970942097454598"><ele>-5.0</ele><time>2026-04-04T10:09:35Z</time></trkpt><trkpt lat="44.906249778214715" lon="11.970935622152274"><ele>-5.4</ele><time>2026-04-04T10:09:37Z</time></trkpt><trkpt lat="44.906346733526945" lon="11.970935839147128"><ele>-5.8</ele><time>2026-04-04T10:09:39Z</time></trkpt><trkpt lat="44.90644342253173" lon="11.97092692151608"><ele>-6.199999999999999</ele><time>2026-04-04T10:09:41Z</time></trkpt><trkpt lat="44.90654285477209" lon="11.970917742230277"><ele>-6.6</ele><time>2026-04-04T10:09:43Z</time></trkpt><trkpt lat="44.90663630982172" lon="11.970913471168078"><ele>-7.0</ele><time>2026-04-04T10:09:45Z</time></trkpt><trkpt lat="44.90672567477591" lon="11.97089799750522"><ele>-6.833333333333334</ele><time>2026-04-04T10:09:47Z</time></trkpt><trkpt lat="44.9068097715911" lon="11.970901331093419"><ele>-6.666666666666667</ele><time>2026-04-04T10:09:49Z</time></trkpt><trkpt lat="44.90689099047977" lon="11.970892256684737"><ele>-6.5</ele><time>2026-04-04T10:09:51Z</time></trkpt><trkpt lat="44.90696751064111" lon="11.970892789337249"><ele>-6.333333333333334</ele><time>2026-04-04T10:09:53Z</time></trkpt><trkpt lat="44.90704182812833" lon="11.970889183904914"><ele>-6.166666666666667</ele><time>2026-04-04T10:09:55Z</time></trkpt><trkpt lat="44.90711565407045" lon="11.97089275023706"><ele>-6.0</ele><time>2026-04-04T10:09:57Z</time></trkpt><trkpt lat="44.907196797077404" lon="11.97089019808402"><ele>-6.0</ele><time>2026-04-04T10:09:59Z</time></trkpt><trkpt lat="44.907288119508316" lon="11.970882730952102"><ele>-6.0</ele><time>2026-04-04T10:10:01Z</time></trkpt><trkpt lat="44.907376988394645" lon="11.970871088933658"><ele>-6.0</ele><time>2026-04-04T10:10:03Z</time></trkpt><trkpt lat="44.907462316819185" lon="11.97086482020623"><ele>-6.0</ele><time>2026-04-04T10:10:05Z</time></trkpt><trkpt lat="44.90754452013129" lon="11.97087210598269"><ele>-6.0</ele><time>2026-04-04T10:10:07Z</time></trkpt><trkpt lat="44.907630538134086" lon="11.970873327806988"><ele>-6.0</ele><time>2026-04-04T10:10:09Z</time></trkpt><trkpt lat="44.90772418934055" lon="11.970873553002829"><ele>-6.0</ele><time>2026-04-04T10:10:11Z</time></trkpt><trkpt lat="44.90781900799166" lon="11.970871813931053"><ele>-6.0</ele><time>2026-04-04T10:10:13Z</time></trkpt><trkpt lat="44.90790917333366" lon="11.970865180537986"><ele>-6.0</ele><time>2026-04-04T10:10:15Z</time></trkpt><trkpt lat="44.907999571835006" lon="11.970871011523423"><ele>-6.0</ele><time>2026-04-04T10:10:17Z</time></trkpt><trkpt lat="44.908092771097515" lon="11.970867817419109"><ele>-6.0</ele><time>2026-04-04T10:10:19Z</time></trkpt><trkpt lat="44.90818733745251" lon="11.970864636730736"><ele>-6.0</ele><time>2026-04-04T10:10:21Z</time></trkpt><trkpt lat="44.90828151974607" lon="11.97086015358707"><ele>-6.0</ele><time>2026-04-04T10:10:23Z</time></trkpt><trkpt lat="44.908377027126214" lon="11.970854801820915"><ele>-6.0</ele><time>2026-04-04T10:10:25Z</time></trkpt><trkpt lat="44.90847559024494" lon="11.970853316304728"><ele>-6.0</ele><time>2026-04-04T10:10:27Z</time></trkpt><trkpt lat="44.90857705747412" lon="11.970847787291694"><ele>-6.0</ele><time>2026-04-04T10:10:28.999Z</time></trkpt><trkpt lat="44.908680924900864" lon="11.9708379651238"><ele>-6.0</ele><time>2026-04-04T10:10:30.999Z</time></trkpt><trkpt lat="44.908787265318175" lon="11.970821884082039"><ele>-6.0</ele><time>2026-04-04T10:10:32.999Z</time></trkpt><trkpt lat="44.90888589615433" lon="11.970814791249156"><ele>-6.0</ele><time>2026-04-04T10:10:34.999Z</time></trkpt><trkpt lat="44.90898050660831" lon="11.970812052647856"><ele>-6.0</ele><time>2026-04-04T10:10:36.999Z</time></trkpt><trkpt lat="44.90906997100499" lon="11.970810851997042"><ele>-6.0</ele><time>2026-04-04T10:10:38.999Z</time></trkpt><trkpt lat="44.90914934572829" lon="11.970806238456033"><ele>-6.0</ele><time>2026-04-04T10:10:40.999Z</time></trkpt><trkpt lat="44.909221067933856" lon="11.97080517260047"><ele>-6.0</ele><time>2026-04-04T10:10:42.999Z</time></trkpt><trkpt lat="44.909291217518266" lon="11.970805971650538"><ele>-6.0</ele><time>2026-04-04T10:10:44.999Z</time></trkpt><trkpt lat="44.90936661275528" lon="11.970811399178881"><ele>-6.0</ele><time>2026-04-04T10:10:46.999Z</time></trkpt><trkpt lat="44.90945873227559" lon="11.970806440609056"><ele>-6.0</ele><time>2026-04-04T10:10:48.999Z</time></trkpt><trkpt lat="44.90954774417489" lon="11.970793299695268"><ele>-6.0</ele><time>2026-04-04T10:10:50.999Z</time></trkpt><trkpt lat="44.90962438882289" lon="11.970789037407577"><ele>-6.166666666666667</ele><time>2026-04-04T10:10:52.999Z</time></trkpt><trkpt lat="44.90969814788243" lon="11.970782618189931"><ele>-6.333333333333334</ele><time>2026-04-04T10:10:54.999Z</time></trkpt><trkpt lat="44.909768030796414" lon="11.970782886480318"><ele>-6.5</ele><time>2026-04-04T10:10:56.999Z</time></trkpt><trkpt lat="44.90984805816598" lon="11.970779587355366"><ele>-6.666666666666667</ele><time>2026-04-04T10:10:58.999Z</time></trkpt><trkpt lat="44.90993953455077" lon="11.97076930656548"><ele>-6.833333333333334</ele><time>2026-04-04T10:11:00.999Z</time></trkpt><trkpt lat="44.91003467542959" lon="11.970769845544268"><ele>-7.0</ele><time>2026-04-04T10:11:02.999Z</time></trkpt><trkpt lat="44.910131499703645" lon="11.970790472296109"><ele>-6.6</ele><time>2026-04-04T10:11:04.999Z</time></trkpt><trkpt lat="44.91022815306716" lon="11.970783507421078"><ele>-6.199999999999999</ele><time>2026-04-04T10:11:06.999Z</time></trkpt><trkpt lat="44.91032317195589" lon="11.970781286408581"><ele>-5.8</ele><time>2026-04-04T10:11:08.999Z</time></trkpt><trkpt lat="44.91041855401105" lon="11.970773213713317"><ele>-5.4</ele><time>2026-04-04T10:11:10.999Z</time></trkpt><trkpt lat="44.91051581430358" lon="11.970759739144182"><ele>-5.0</ele><time>2026-04-04T10:11:12.999Z</time></trkpt><trkpt lat="44.910610334771576" lon="11.970756130916891"><ele>-5.0</ele><time>2026-04-04T10:11:14.999Z</time></trkpt><trkpt lat="44.91070374226851" lon="11.970746374734373"><ele>-5.0</ele><time>2026-04-04T10:11:16.999Z</time></trkpt><trkpt lat="44.910793875955264" lon="11.970745377598796"><ele>-5.0</ele><time>2026-04-04T10:11:18.999Z</time></trkpt><trkpt lat="44.910886778277266" lon="11.970746708076474"><ele>-5.0</ele><time>2026-04-04T10:11:20.999Z</time></trkpt><trkpt lat="44.91098290811364" lon="11.970739518007417"><ele>-5.0</ele><time>2026-04-04T10:11:22.999Z</time></trkpt><trkpt lat="44.911078366030004" lon="11.970737075821386"><ele>-5.2</ele><time>2026-04-04T10:11:24.999Z</time></trkpt><trkpt lat="44.911172455381525" lon="11.970738337937778"><ele>-5.4</ele><time>2026-04-04T10:11:26.999Z</time></trkpt><trkpt lat="44.91126698207936" lon="11.970732528059026"><ele>-5.6</ele><time>2026-04-04T10:11:28.999Z</time></trkpt><trkpt lat="44.911361023398875" lon="11.970733042421145"><ele>-5.8</ele><time>2026-04-04T10:11:30.999Z</time></trkpt><trkpt lat="44.91145464264991" lon="11.970726518273379"><ele>-6.0</ele><time>2026-04-04T10:11:33Z</time></trkpt><trkpt lat="44.911541542004535" lon="11.970736290764226"><ele>-6.0</ele><time>2026-04-04T10:11:35Z</time></trkpt><trkpt lat="44.91163102165945" lon="11.970750126837466"><ele>-6.0</ele><time>2026-04-04T10:11:37Z</time></trkpt><trkpt lat="44.91172681541538" lon="11.970758680265991"><ele>-6.0</ele><time>2026-04-04T10:11:39Z</time></trkpt><trkpt lat="44.911823819485654" lon="11.970775958728117"><ele>-6.0</ele><time>2026-04-04T10:11:41Z</time></trkpt><trkpt lat="44.91192258305488" lon="11.970790785469793"><ele>-6.0</ele><time>2026-04-04T10:11:43Z</time></trkpt><trkpt lat="44.9120185048161" lon="11.970810260727562"><ele>-5.8</ele><time>2026-04-04T10:11:45Z</time></trkpt><trkpt lat="44.91211575420745" lon="11.970826099613356"><ele>-5.6</ele><time>2026-04-04T10:11:47Z</time></trkpt><trkpt lat="44.912206910214934" lon="11.970852917549122"><ele>-5.4</ele><time>2026-04-04T10:11:49Z</time></trkpt><trkpt lat="44.91230225556489" lon="11.97087180867886"><ele>-5.2</ele><time>2026-04-04T10:11:51Z</time></trkpt><trkpt lat="44.91239688660513" lon="11.97088988517861"><ele>-5.0</ele><time>2026-04-04T10:11:53Z</time></trkpt><trkpt lat="44.91249214525716" lon="11.9709076406915"><ele>-5.0</ele><time>2026-04-04T10:11:55Z</time></trkpt><trkpt lat="44.91258363777414" lon="11.970925382773402"><ele>-5.0</ele><time>2026-04-04T10:11:57Z</time></trkpt><trkpt lat="44.912674979684724" lon="11.970927919898976"><ele>-5.0</ele><time>2026-04-04T10:11:59Z</time></trkpt><trkpt lat="44.91275883518492" lon="11.970946203267337"><ele>-5.0</ele><time>2026-04-04T10:12:01Z</time></trkpt><trkpt lat="44.91281116942883" lon="11.970857921863022"><ele>-5.0</ele><time>2026-04-04T10:12:03Z</time></trkpt><trkpt lat="44.91281391838757" lon="11.970727129641254"><ele>-5.0</ele><time>2026-04-04T10:12:05Z</time></trkpt><trkpt lat="44.91282309235831" lon="11.97060034372863"><ele>-5.0</ele><time>2026-04-04T10:12:07Z</time></trkpt><trkpt lat="44.912834652476235" lon="11.970467644353187"><ele>-5.0</ele><time>2026-04-04T10:12:09Z</time></trkpt><trkpt lat="44.912847007457486" lon="11.970327239830238"><ele>-5.0</ele><time>2026-04-04T10:12:11Z</time></trkpt><trkpt lat="44.91286032691911" lon="11.970197171180816"><ele>-5.0</ele><time>2026-04-04T10:12:13Z</time></trkpt><trkpt lat="44.912868709878296" lon="11.97006528184582"><ele>-5.0</ele><time>2026-04-04T10:12:15Z</time></trkpt><trkpt lat="44.91287542493854" lon="11.969955296659965"><ele>-5.166666666666667</ele><time>2026-04-04T10:12:17Z</time></trkpt><trkpt lat="44.912886375173386" lon="11.969845605758477"><ele>-5.333333333333334</ele><time>2026-04-04T10:12:19Z</time></trkpt><trkpt lat="44.91289234816967" lon="11.969728966758337"><ele>-5.5</ele><time>2026-04-04T10:12:21Z</time></trkpt><trkpt lat="44.9129036580331" lon="11.969596637154128"><ele>-5.666666666666667</ele><time>2026-04-04T10:12:23Z</time></trkpt><trkpt lat="44.91291702403497" lon="11.969465888006946"><ele>-5.833333333333333</ele><time>2026-04-04T10:12:25Z</time></trkpt><trkpt lat="44.912926395515655" lon="11.969341726979374"><ele>-6.0</ele><time>2026-04-04T10:12:27Z</time></trkpt><trkpt lat="44.91293927162894" lon="11.969222061743817"><ele>-5.666666666666667</ele><time>2026-04-04T10:12:29Z</time></trkpt><trkpt lat="44.91294354381761" lon="11.969103336501025"><ele>-5.333333333333333</ele><time>2026-04-04T10:12:31Z</time></trkpt><trkpt lat="44.91295745157739" lon="11.968988704030199"><ele>-5.0</ele><time>2026-04-04T10:12:33Z</time></trkpt><trkpt lat="44.91295950332898" lon="11.968879121605912"><ele>-4.666666666666666</ele><time>2026-04-04T10:12:35Z</time></trkpt><trkpt lat="44.912967788674614" lon="11.968772591980954"><ele>-4.333333333333333</ele><time>2026-04-04T10:12:37Z</time></trkpt><trkpt lat="44.91297418159705" lon="11.96864243557132"><ele>-4.0</ele><time>2026-04-04T10:12:39Z</time></trkpt><trkpt lat="44.9129867877566" lon="11.968519994905117"><ele>-3.9999999999999996</ele><time>2026-04-04T10:12:41Z</time></trkpt><trkpt lat="44.91299340581365" lon="11.968416328362634"><ele>-4.0</ele><time>2026-04-04T10:12:43Z</time></trkpt><trkpt lat="44.91300297038103" lon="11.968316625239595"><ele>-4.0</ele><time>2026-04-04T10:12:45Z</time></trkpt><trkpt lat="44.913006748951105" lon="11.96822098256622"><ele>-4.0</ele><time>2026-04-04T10:12:47Z</time></trkpt><trkpt lat="44.913016076087104" lon="11.9680951772523"><ele>-3.9999999999999996</ele><time>2026-04-04T10:12:50Z</time></trkpt><trkpt lat="44.913026280967365" lon="11.967961018302237"><ele>-4.0</ele><time>2026-04-04T10:12:53Z</time></trkpt><trkpt lat="44.91303490451231" lon="11.967834417059665"><ele>-4.0</ele><time>2026-04-04T10:12:54.999Z</time></trkpt><trkpt lat="44.91304982008174" lon="11.967697384817928"><ele>-4.0</ele><time>2026-04-04T10:12:56.999Z</time></trkpt><trkpt lat="44.9130574338357" lon="11.967560249546063"><ele>-4.0</ele><time>2026-04-04T10:12:58.999Z</time></trkpt><trkpt lat="44.91306806372329" lon="11.967420732362017"><ele>-4.0</ele><time>2026-04-04T10:13:00.999Z</time></trkpt><trkpt lat="44.91308128131865" lon="11.967283541539643"><ele>-4.0</ele><time>2026-04-04T10:13:02.999Z</time></trkpt><trkpt lat="44.91309308005672" lon="11.967146423630581"><ele>-4.2</ele><time>2026-04-04T10:13:04.999Z</time></trkpt><trkpt lat="44.913103475168384" lon="11.967009948192274"><ele>-4.4</ele><time>2026-04-04T10:13:06.999Z</time></trkpt><trkpt lat="44.91311624848647" lon="11.966875495576941"><ele>-4.6</ele><time>2026-04-04T10:13:08.999Z</time></trkpt><trkpt lat="44.91312631762289" lon="11.966744866064865"><ele>-4.8</ele><time>2026-04-04T10:13:10.999Z</time></trkpt><trkpt lat="44.91313660561455" lon="11.96661755206256"><ele>-5.0</ele><time>2026-04-04T10:13:12.999Z</time></trkpt><trkpt lat="44.91314565778175" lon="11.96649328368271"><ele>-5.166666666666667</ele><time>2026-04-04T10:13:14.999Z</time></trkpt><trkpt lat="44.91315418522468" lon="11.966376850014349"><ele>-5.333333333333334</ele><time>2026-04-04T10:13:16.999Z</time></trkpt><trkpt lat="44.913163183788" lon="11.96626358431919"><ele>-5.5</ele><time>2026-04-04T10:13:18.999Z</time></trkpt><trkpt lat="44.91317381285707" lon="11.966153351483102"><ele>-5.666666666666667</ele><time>2026-04-04T10:13:20.999Z</time></trkpt><trkpt lat="44.91318509375875" lon="11.966044798252863"><ele>-5.833333333333333</ele><time>2026-04-04T10:13:22.999Z</time></trkpt><trkpt lat="44.91319289087599" lon="11.965924723379015"><ele>-6.0</ele><time>2026-04-04T10:13:24.999Z</time></trkpt><trkpt lat="44.91320340894253" lon="11.965793597631288"><ele>-6.0</ele><time>2026-04-04T10:13:26.999Z</time></trkpt><trkpt lat="44.91321771825763" lon="11.96566577031546"><ele>-6.0</ele><time>2026-04-04T10:13:28.999Z</time></trkpt><trkpt lat="44.913233612515334" lon="11.965544869262612"><ele>-6.0</ele><time>2026-04-04T10:13:30.999Z</time></trkpt><trkpt lat="44.91324292258835" lon="11.96543276434251"><ele>-6.0</ele><time>2026-04-04T10:13:32.999Z</time></trkpt><trkpt lat="44.91325077028964" lon="11.965308859302027"><ele>-6.0</ele><time>2026-04-04T10:13:34.999Z</time></trkpt><trkpt lat="44.9132638700499" lon="11.965181446578"><ele>-6.0</ele><time>2026-04-04T10:13:36.999Z</time></trkpt><trkpt lat="44.913273150391426" lon="11.965053482955561"><ele>-5.8</ele><time>2026-04-04T10:13:39Z</time></trkpt><trkpt lat="44.91328650615984" lon="11.96492502818842"><ele>-5.6</ele><time>2026-04-04T10:13:41Z</time></trkpt><trkpt lat="44.9132955027725" lon="11.964791002634101"><ele>-5.4</ele><time>2026-04-04T10:13:43Z</time></trkpt><trkpt lat="44.9133076792858" lon="11.964664135911539"><ele>-5.2</ele><time>2026-04-04T10:13:45Z</time></trkpt><trkpt lat="44.91331396568069" lon="11.964538727708494"><ele>-5.0</ele><time>2026-04-04T10:13:47Z</time></trkpt><trkpt lat="44.9133162936417" lon="11.964422173168149"><ele>-5.0</ele><time>2026-04-04T10:13:49Z</time></trkpt><trkpt lat="44.9133232118478" lon="11.964295440017883"><ele>-5.0</ele><time>2026-04-04T10:13:51Z</time></trkpt><trkpt lat="44.91333598277572" lon="11.964163363537466"><ele>-5.0</ele><time>2026-04-04T10:13:53Z</time></trkpt><trkpt lat="44.91335153629518" lon="11.964033698679295"><ele>-5.0</ele><time>2026-04-04T10:13:55Z</time></trkpt><trkpt lat="44.91336095408036" lon="11.96390113710034"><ele>-5.0</ele><time>2026-04-04T10:13:57Z</time></trkpt><trkpt lat="44.91337236592209" lon="11.963777313882282"><ele>-5.0</ele><time>2026-04-04T10:13:59Z</time></trkpt><trkpt lat="44.913383212164966" lon="11.963650693002615"><ele>-5.0</ele><time>2026-04-04T10:14:01Z</time></trkpt><trkpt lat="44.91339163288172" lon="11.963528469844576"><ele>-5.0</ele><time>2026-04-04T10:14:03Z</time></trkpt><trkpt lat="44.91340144159021" lon="11.963411951200138"><ele>-5.0</ele><time>2026-04-04T10:14:05Z</time></trkpt><trkpt lat="44.91340983896001" lon="11.963304019834519"><ele>-5.0</ele><time>2026-04-04T10:14:07Z</time></trkpt><trkpt lat="44.91342128416556" lon="11.963178261095823"><ele>-5.0</ele><time>2026-04-04T10:14:09Z</time></trkpt><trkpt lat="44.913458575040764" lon="11.963050108027431"><ele>-5.0</ele><time>2026-04-04T10:14:11Z</time></trkpt><trkpt lat="44.913469344768785" lon="11.962915506747283"><ele>-5.0</ele><time>2026-04-04T10:14:13Z</time></trkpt><trkpt lat="44.91348003555066" lon="11.962780678228462"><ele>-5.0</ele><time>2026-04-04T10:14:15Z</time></trkpt><trkpt lat="44.913491000828806" lon="11.962642387537967"><ele>-5.0</ele><time>2026-04-04T10:14:17Z</time></trkpt><trkpt lat="44.913500990840554" lon="11.962516396794136"><ele>-5.0</ele><time>2026-04-04T10:14:19Z</time></trkpt><trkpt lat="44.91351053761328" lon="11.962395995994656"><ele>-4.8</ele><time>2026-04-04T10:14:21Z</time></trkpt><trkpt lat="44.91352027714689" lon="11.962273164116082"><ele>-4.6</ele><time>2026-04-04T10:14:23Z</time></trkpt><trkpt lat="44.91353122235232" lon="11.962135126703298"><ele>-4.4</ele><time>2026-04-04T10:14:25Z</time></trkpt><trkpt lat="44.913542255115864" lon="11.961995984935562"><ele>-4.2</ele><time>2026-04-04T10:14:27Z</time></trkpt><trkpt lat="44.91355273196607" lon="11.961863854447557"><ele>-4.0</ele><time>2026-04-04T10:14:29Z</time></trkpt><trkpt lat="44.913562761412145" lon="11.96173736617723"><ele>-4.333333333333333</ele><time>2026-04-04T10:14:31Z</time></trkpt><trkpt lat="44.91357266755036" lon="11.961612433154718"><ele>-4.666666666666666</ele><time>2026-04-04T10:14:33Z</time></trkpt><trkpt lat="44.91358177970008" lon="11.961497513442703"><ele>-5.0</ele><time>2026-04-04T10:14:35Z</time></trkpt><trkpt lat="44.9135904873697" lon="11.961387695444715"><ele>-5.333333333333333</ele><time>2026-04-04T10:14:37Z</time></trkpt><trkpt lat="44.91359929759573" lon="11.961276583728475"><ele>-5.666666666666667</ele><time>2026-04-04T10:14:39Z</time></trkpt><trkpt lat="44.91360852810821" lon="11.961160171540818"><ele>-6.0</ele><time>2026-04-04T10:14:41Z</time></trkpt><trkpt lat="44.913617536118934" lon="11.96104944785909"><ele>-6.0</ele><time>2026-04-04T10:14:43Z</time></trkpt><trkpt lat="44.9136252752493" lon="11.960954502028603"><ele>-6.0</ele><time>2026-04-04T10:14:45Z</time></trkpt><trkpt lat="44.913654054654714" lon="11.960874525163224"><ele>-6.0</ele><time>2026-04-04T10:14:48Z</time></trkpt><trkpt lat="44.91374191716374" lon="11.960895024042275"><ele>-6.0</ele><time>2026-04-04T10:14:49Z</time></trkpt><trkpt lat="44.91382925853236" lon="11.960912883974714"><ele>-6.0</ele><time>2026-04-04T10:14:51Z</time></trkpt><trkpt lat="44.91392104661012" lon="11.96093249058804"><ele>-6.0</ele><time>2026-04-04T10:14:53Z</time></trkpt><trkpt lat="44.91401489061973" lon="11.96094132860045"><ele>-6.0</ele><time>2026-04-04T10:14:55Z</time></trkpt><trkpt lat="44.91410875351314" lon="11.960956887493667"><ele>-6.0</ele><time>2026-04-04T10:14:57Z</time></trkpt><trkpt lat="44.914201005016984" lon="11.960976970225584"><ele>-6.0</ele><time>2026-04-04T10:14:59Z</time></trkpt><trkpt lat="44.91429152051849" lon="11.960994057804283"><ele>-6.0</ele><time>2026-04-04T10:15:01Z</time></trkpt><trkpt lat="44.91437714854901" lon="11.960998825284383"><ele>-6.0</ele><time>2026-04-04T10:15:02.999Z</time></trkpt><trkpt lat="44.91446316325282" lon="11.961010684381002"><ele>-5.8</ele><time>2026-04-04T10:15:04.999Z</time></trkpt><trkpt lat="44.914557302247545" lon="11.96102849659408"><ele>-5.6</ele><time>2026-04-04T10:15:06.999Z</time></trkpt><trkpt lat="44.91464922642922" lon="11.961050054051682"><ele>-5.4</ele><time>2026-04-04T10:15:08.999Z</time></trkpt><trkpt lat="44.91473938975899" lon="11.961078213079691"><ele>-5.2</ele><time>2026-04-04T10:15:10.999Z</time></trkpt><trkpt lat="44.91483403434515" lon="11.961081137256512"><ele>-5.0</ele><time>2026-04-04T10:15:12.999Z</time></trkpt><trkpt lat="44.91493159147377" lon="11.961100820180226"><ele>-5.0</ele><time>2026-04-04T10:15:14.999Z</time></trkpt><trkpt lat="44.91502456448617" lon="11.961123957595749"><ele>-5.0</ele><time>2026-04-04T10:15:16.999Z</time></trkpt><trkpt lat="44.91512017920293" lon="11.961145709327502"><ele>-5.0</ele><time>2026-04-04T10:15:18.999Z</time></trkpt><trkpt lat="44.91521575655564" lon="11.961160437898076"><ele>-5.0</ele><time>2026-04-04T10:15:20.999Z</time></trkpt><trkpt lat="44.915314567973134" lon="11.961179398404369"><ele>-5.0</ele><time>2026-04-04T10:15:22.999Z</time></trkpt><trkpt lat="44.915409574334504" lon="11.961195689735423"><ele>-4.8</ele><time>2026-04-04T10:15:24.999Z</time></trkpt><trkpt lat="44.91550498874486" lon="11.961218049807922"><ele>-4.6</ele><time>2026-04-04T10:15:26.999Z</time></trkpt><trkpt lat="44.915597145627785" lon="11.961256617003942"><ele>-4.4</ele><time>2026-04-04T10:15:28.999Z</time></trkpt><trkpt lat="44.9156865609884" lon="11.96126990940929"><ele>-4.2</ele><time>2026-04-04T10:15:30.999Z</time></trkpt><trkpt lat="44.91577737761474" lon="11.961270321023203"><ele>-4.0</ele><time>2026-04-04T10:15:32.999Z</time></trkpt><trkpt lat="44.91585517209503" lon="11.96128601997846"><ele>-3.833333333333333</ele><time>2026-04-04T10:15:34.999Z</time></trkpt><trkpt lat="44.91592456764449" lon="11.961301931165886"><ele>-3.6666666666666665</ele><time>2026-04-04T10:15:36.999Z</time></trkpt><trkpt lat="44.91600045104123" lon="11.96131416594314"><ele>-3.5</ele><time>2026-04-04T10:15:38.999Z</time></trkpt><trkpt lat="44.91608908764897" lon="11.961328415724504"><ele>-3.333333333333333</ele><time>2026-04-04T10:15:40.999Z</time></trkpt><trkpt lat="44.916181799983974" lon="11.961345674900219"><ele>-3.1666666666666665</ele><time>2026-04-04T10:15:42.999Z</time></trkpt><trkpt lat="44.91627630348293" lon="11.961362925316939"><ele>-3.0</ele><time>2026-04-04T10:15:45Z</time></trkpt><trkpt lat="44.91637087890464" lon="11.961367768955828"><ele>-3.0</ele><time>2026-04-04T10:15:47Z</time></trkpt><trkpt lat="44.91646789798533" lon="11.96139086629938"><ele>-3.0</ele><time>2026-04-04T10:15:49Z</time></trkpt><trkpt lat="44.91655978774554" lon="11.961416249421246"><ele>-3.0</ele><time>2026-04-04T10:15:51Z</time></trkpt><trkpt lat="44.916651236328256" lon="11.96143553325481"><ele>-3.0</ele><time>2026-04-04T10:15:53Z</time></trkpt><trkpt lat="44.91673711559293" lon="11.961454489985417"><ele>-3.0</ele><time>2026-04-04T10:15:55Z</time></trkpt><trkpt lat="44.91681510528412" lon="11.961472759307002"><ele>-3.0</ele><time>2026-04-04T10:15:57Z</time></trkpt><trkpt lat="44.916890711837944" lon="11.961486501321007"><ele>-3.0</ele><time>2026-04-04T10:15:59Z</time></trkpt><trkpt lat="44.91696220361077" lon="11.96149233266347"><ele>-3.0</ele><time>2026-04-04T10:16:01Z</time></trkpt><trkpt lat="44.91703254316495" lon="11.961499618928315"><ele>-3.0</ele><time>2026-04-04T10:16:03Z</time></trkpt><trkpt lat="44.91710474663615" lon="11.961525818929168"><ele>-3.0</ele><time>2026-04-04T10:16:05Z</time></trkpt><trkpt lat="44.917196103424445" lon="11.961532130965594"><ele>-3.0</ele><time>2026-04-04T10:16:07Z</time></trkpt><trkpt lat="44.91728746551132" lon="11.961556333939548"><ele>-3.0</ele><time>2026-04-04T10:16:09Z</time></trkpt><trkpt lat="44.91738475460746" lon="11.961566682983257"><ele>-3.0</ele><time>2026-04-04T10:16:11Z</time></trkpt><trkpt lat="44.91747958583652" lon="11.961587564519093"><ele>-3.0</ele><time>2026-04-04T10:16:13Z</time></trkpt><trkpt lat="44.917573549265455" lon="11.9616020983784"><ele>-3.0</ele><time>2026-04-04T10:16:15Z</time></trkpt><trkpt lat="44.91766032455523" lon="11.961630592071138"><ele>-3.0</ele><time>2026-04-04T10:16:17Z</time></trkpt><trkpt lat="44.917749696686506" lon="11.961645864799742"><ele>-3.0</ele><time>2026-04-04T10:16:19Z</time></trkpt><trkpt lat="44.91783632079723" lon="11.96166421203232"><ele>-3.0</ele><time>2026-04-04T10:16:21Z</time></trkpt><trkpt lat="44.91792926529164" lon="11.961679352648048"><ele>-3.0</ele><time>2026-04-04T10:16:23Z</time></trkpt><trkpt lat="44.91802470903443" lon="11.961682274978866"><ele>-3.0</ele><time>2026-04-04T10:16:25Z</time></trkpt><trkpt lat="44.918116101623994" lon="11.96168273672303"><ele>-3.0</ele><time>2026-04-04T10:16:27Z</time></trkpt><trkpt lat="44.91821052064534" lon="11.961683536717283"><ele>-3.0</ele><time>2026-04-04T10:16:29Z</time></trkpt><trkpt lat="44.918304486340745" lon="11.961672901734126"><ele>-3.0</ele><time>2026-04-04T10:16:31Z</time></trkpt><trkpt lat="44.91839924803916" lon="11.96166321590472"><ele>-3.0</ele><time>2026-04-04T10:16:33Z</time></trkpt><trkpt lat="44.91848503323746" lon="11.961655530649304"><ele>-3.0</ele><time>2026-04-04T10:16:35Z</time></trkpt><trkpt lat="44.91856618229853" lon="11.961646252706364"><ele>-3.0</ele><time>2026-04-04T10:16:37Z</time></trkpt><trkpt lat="44.9186465952996" lon="11.96163773979506"><ele>-3.0</ele><time>2026-04-04T10:16:39Z</time></trkpt><trkpt lat="44.91872364856493" lon="11.961627523091892"><ele>-3.1666666666666665</ele><time>2026-04-04T10:16:41Z</time></trkpt><trkpt lat="44.918804329210595" lon="11.961615521103338"><ele>-3.333333333333333</ele><time>2026-04-04T10:16:43Z</time></trkpt><trkpt lat="44.91888601808468" lon="11.961600859928836"><ele>-3.5</ele><time>2026-04-04T10:16:45Z</time></trkpt><trkpt lat="44.91896617006569" lon="11.961585360421733"><ele>-3.6666666666666665</ele><time>2026-04-04T10:16:47Z</time></trkpt><trkpt lat="44.91904743017877" lon="11.961570440952137"><ele>-3.833333333333333</ele><time>2026-04-04T10:16:49Z</time></trkpt><trkpt lat="44.919123352768985" lon="11.961576426943106"><ele>-4.0</ele><time>2026-04-04T10:16:51Z</time></trkpt><trkpt lat="44.91920737950059" lon="11.961568749961568"><ele>-3.9999999999999996</ele><time>2026-04-04T10:16:53Z</time></trkpt><trkpt lat="44.91930081439734" lon="11.961567894680565"><ele>-4.0</ele><time>2026-04-04T10:16:55Z</time></trkpt><trkpt lat="44.91939337075895" lon="11.961566107074058"><ele>-4.0</ele><time>2026-04-04T10:16:57Z</time></trkpt><trkpt lat="44.919473416828154" lon="11.961548753655638"><ele>-4.0</ele><time>2026-04-04T10:16:59Z</time></trkpt><trkpt lat="44.919551499531316" lon="11.96153606158539"><ele>-3.9999999999999996</ele><time>2026-04-04T10:17:01Z</time></trkpt><trkpt lat="44.91962967834597" lon="11.961521752963538"><ele>-4.0</ele><time>2026-04-04T10:17:03Z</time></trkpt><trkpt lat="44.91970598900326" lon="11.961509279906823"><ele>-3.9999999999999996</ele><time>2026-04-04T10:17:05Z</time></trkpt><trkpt lat="44.91979278053751" lon="11.961499319664545"><ele>-4.0</ele><time>2026-04-04T10:17:07Z</time></trkpt><trkpt lat="44.91988412756108" lon="11.961495606607263"><ele>-4.0</ele><time>2026-04-04T10:17:09Z</time></trkpt><trkpt lat="44.91997451338075" lon="11.96148765552214"><ele>-4.0</ele><time>2026-04-04T10:17:11Z</time></trkpt><trkpt lat="44.92005928852465" lon="11.961483504049303"><ele>-3.9999999999999996</ele><time>2026-04-04T10:17:13Z</time></trkpt><trkpt lat="44.92014216818792" lon="11.961467521948359"><ele>-4.0</ele><time>2026-04-04T10:17:15Z</time></trkpt><trkpt lat="44.92022079398753" lon="11.96145655581121"><ele>-3.833333333333333</ele><time>2026-04-04T10:17:17Z</time></trkpt><trkpt lat="44.92028994716639" lon="11.961448653071654"><ele>-3.6666666666666665</ele><time>2026-04-04T10:17:18.999Z</time></trkpt><trkpt lat="44.9203843700762" lon="11.961443844676943"><ele>-3.5</ele><time>2026-04-04T10:17:21.999Z</time></trkpt><trkpt lat="44.920467280844065" lon="11.961427156222038"><ele>-3.333333333333333</ele><time>2026-04-04T10:17:23.999Z</time></trkpt><trkpt lat="44.920544301184435" lon="11.961423442038718"><ele>-3.1666666666666665</ele><time>2026-04-04T10:17:25.999Z</time></trkpt><trkpt lat="44.92061411122411" lon="11.961420233117725"><ele>-3.0</ele><time>2026-04-04T10:17:27.999Z</time></trkpt><trkpt lat="44.92067819602713" lon="11.961409311201214"><ele>-3.0</ele><time>2026-04-04T10:17:29.999Z</time></trkpt><trkpt lat="44.92076727013606" lon="11.961420223414402"><ele>-3.0</ele><time>2026-04-04T10:17:32.999Z</time></trkpt><trkpt lat="44.92084264956781" lon="11.961399348675155"><ele>-3.0</ele><time>2026-04-04T10:17:34.999Z</time></trkpt><trkpt lat="44.920909622639094" lon="11.961382362115286"><ele>-3.0</ele><time>2026-04-04T10:17:36.999Z</time></trkpt><trkpt lat="44.92097594719101" lon="11.961376222583418"><ele>-3.0</ele><time>2026-04-04T10:17:38.999Z</time></trkpt><trkpt lat="44.92105076673692" lon="11.961375881280542"><ele>-3.0</ele><time>2026-04-04T10:17:40.999Z</time></trkpt><trkpt lat="44.9211393306882" lon="11.961373840009355"><ele>-3.0</ele><time>2026-04-04T10:17:42.999Z</time></trkpt><trkpt lat="44.92123623744299" lon="11.96136028519238"><ele>-3.0</ele><time>2026-04-04T10:17:44.999Z</time></trkpt><trkpt lat="44.92133194561617" lon="11.961337649377098"><ele>-3.0</ele><time>2026-04-04T10:17:46.999Z</time></trkpt><trkpt lat="44.921424385878645" lon="11.961344829116968"><ele>-3.0</ele><time>2026-04-04T10:17:48.999Z</time></trkpt><trkpt lat="44.92150910301653" lon="11.961343283571058"><ele>-3.0</ele><time>2026-04-04T10:17:51Z</time></trkpt><trkpt lat="44.92159078922214" lon="11.961334010335484"><ele>-2.9999999999999996</ele><time>2026-04-04T10:17:53Z</time></trkpt><trkpt lat="44.92166845833812" lon="11.961327022795102"><ele>-3.0</ele><time>2026-04-04T10:17:55Z</time></trkpt><trkpt lat="44.92174220615185" lon="11.96131799985583"><ele>-3.0</ele><time>2026-04-04T10:17:57Z</time></trkpt><trkpt lat="44.92181225993272" lon="11.961311332483556"><ele>-3.0</ele><time>2026-04-04T10:17:59Z</time></trkpt><trkpt lat="44.92187740737606" lon="11.961305907423748"><ele>-3.0</ele><time>2026-04-04T10:18:01Z</time></trkpt><trkpt lat="44.921941779147616" lon="11.961304214138782"><ele>-2.9999999999999996</ele><time>2026-04-04T10:18:03Z</time></trkpt><trkpt lat="44.92202494735235" lon="11.961313702451596"><ele>-3.0</ele><time>2026-04-04T10:18:05Z</time></trkpt><trkpt lat="44.92211510561658" lon="11.961306199063932"><ele>-3.0</ele><time>2026-04-04T10:18:07Z</time></trkpt><trkpt lat="44.9222056422781" lon="11.961293122511272"><ele>-3.0</ele><time>2026-04-04T10:18:09Z</time></trkpt><trkpt lat="44.92229997616221" lon="11.961279502167503"><ele>-3.0</ele><time>2026-04-04T10:18:11Z</time></trkpt><trkpt lat="44.92239365808055" lon="11.961265849192225"><ele>-3.0</ele><time>2026-04-04T10:18:13Z</time></trkpt><trkpt lat="44.92249046352096" lon="11.961256084051868"><ele>-3.0</ele><time>2026-04-04T10:18:15Z</time></trkpt><trkpt lat="44.922587444105325" lon="11.961242209990985"><ele>-3.0</ele><time>2026-04-04T10:18:17Z</time></trkpt><trkpt lat="44.92268304954081" lon="11.961225447321006"><ele>-3.0</ele><time>2026-04-04T10:18:19Z</time></trkpt><trkpt lat="44.92278033560629" lon="11.961216948860471"><ele>-3.0</ele><time>2026-04-04T10:18:21Z</time></trkpt><trkpt lat="44.922866700418744" lon="11.961197117226828"><ele>-3.0</ele><time>2026-04-04T10:18:23Z</time></trkpt><trkpt lat="44.92294865976944" lon="11.961190629254183"><ele>-3.0</ele><time>2026-04-04T10:18:25Z</time></trkpt><trkpt lat="44.92302789905705" lon="11.96117393429557"><ele>-3.0</ele><time>2026-04-04T10:18:27Z</time></trkpt><trkpt lat="44.92310616230534" lon="11.961159458815247"><ele>-3.0</ele><time>2026-04-04T10:18:29Z</time></trkpt><trkpt lat="44.92317852387212" lon="11.961162667618334"><ele>-3.0</ele><time>2026-04-04T10:18:31Z</time></trkpt><trkpt lat="44.92325027519821" lon="11.96114844981548"><ele>-3.0</ele><time>2026-04-04T10:18:33Z</time></trkpt><trkpt lat="44.923337773308994" lon="11.96115971675094"><ele>-3.0</ele><time>2026-04-04T10:18:35Z</time></trkpt><trkpt lat="44.92343257840299" lon="11.961140297632346"><ele>-3.0</ele><time>2026-04-04T10:18:37Z</time></trkpt><trkpt lat="44.923520970697695" lon="11.961124501541038"><ele>-3.0</ele><time>2026-04-04T10:18:39Z</time></trkpt><trkpt lat="44.923606427253056" lon="11.961112944833669"><ele>-2.8571428571428568</ele><time>2026-04-04T10:18:41Z</time></trkpt><trkpt lat="44.923686716491936" lon="11.961094833700294"><ele>-2.7142857142857144</ele><time>2026-04-04T10:18:43Z</time></trkpt><trkpt lat="44.923763752122895" lon="11.961082848443347"><ele>-2.571428571428571</ele><time>2026-04-04T10:18:45Z</time></trkpt><trkpt lat="44.923833777477356" lon="11.961096572924506"><ele>-2.4285714285714284</ele><time>2026-04-04T10:18:47Z</time></trkpt><trkpt lat="44.92389832610694" lon="11.96109065813378"><ele>-2.2857142857142856</ele><time>2026-04-04T10:18:49Z</time></trkpt><trkpt lat="44.92397160859715" lon="11.961084639329341"><ele>-2.142857142857143</ele><time>2026-04-04T10:18:52Z</time></trkpt><trkpt lat="44.92405089833472" lon="11.961084525787186"><ele>-2.0</ele><time>2026-04-04T10:19:24Z</time></trkpt><trkpt lat="44.92405850317558" lon="11.960812880949659"><ele>-2.0</ele><time>2026-04-04T10:19:30Z</time></trkpt><trkpt lat="44.92404710562865" lon="11.960681572872627"><ele>-2.0</ele><time>2026-04-04T10:19:32Z</time></trkpt><trkpt lat="44.92403497662381" lon="11.960550084478829"><ele>-2.0</ele><time>2026-04-04T10:19:34Z</time></trkpt><trkpt lat="44.9240199606806" lon="11.960416810781757"><ele>-2.0</ele><time>2026-04-04T10:19:36Z</time></trkpt><trkpt lat="44.924000459996485" lon="11.960286616073834"><ele>-2.0</ele><time>2026-04-04T10:19:37.999Z</time></trkpt><trkpt lat="44.92399510791599" lon="11.960150985848555"><ele>-1.8</ele><time>2026-04-04T10:19:39.999Z</time></trkpt><trkpt lat="44.923977018545216" lon="11.960015349303452"><ele>-1.6</ele><time>2026-04-04T10:19:41.999Z</time></trkpt><trkpt lat="44.923966840748044" lon="11.959877093794066"><ele>-1.4000000000000001</ele><time>2026-04-04T10:19:43.999Z</time></trkpt><trkpt lat="44.92395040272486" lon="11.95974034198389"><ele>-1.2000000000000002</ele><time>2026-04-04T10:19:45.999Z</time></trkpt><trkpt lat="44.92393441306942" lon="11.959603499585233"><ele>-1.0</ele><time>2026-04-04T10:19:47.999Z</time></trkpt><trkpt lat="44.923922921559246" lon="11.959467676329536"><ele>-1.0</ele><time>2026-04-04T10:19:49.999Z</time></trkpt><trkpt lat="44.923912282968224" lon="11.959334989207912"><ele>-1.0</ele><time>2026-04-04T10:19:51.999Z</time></trkpt><trkpt lat="44.92389851573596" lon="11.959202688678259"><ele>-1.0</ele><time>2026-04-04T10:19:53.999Z</time></trkpt><trkpt lat="44.923882716385776" lon="11.959069649605908"><ele>-1.0</ele><time>2026-04-04T10:19:56Z</time></trkpt><trkpt lat="44.9238726551181" lon="11.958935035947254"><ele>-1.0</ele><time>2026-04-04T10:19:58Z</time></trkpt><trkpt lat="44.92386412789235" lon="11.958800296346935"><ele>-1.2000000000000002</ele><time>2026-04-04T10:20:00Z</time></trkpt><trkpt lat="44.92384932243652" lon="11.958666414475145"><ele>-1.4000000000000001</ele><time>2026-04-04T10:20:02Z</time></trkpt><trkpt lat="44.92384262490511" lon="11.958529472156306"><ele>-1.6</ele><time>2026-04-04T10:20:04Z</time></trkpt><trkpt lat="44.92382551474937" lon="11.958391122044116"><ele>-1.8</ele><time>2026-04-04T10:20:06Z</time></trkpt><trkpt lat="44.92381317449821" lon="11.958262878476122"><ele>-2.0</ele><time>2026-04-04T10:20:08Z</time></trkpt><trkpt lat="44.9238008276013" lon="11.958123388602898"><ele>-2.2</ele><time>2026-04-04T10:20:10Z</time></trkpt><trkpt lat="44.92378591025713" lon="11.957987110139475"><ele>-2.4000000000000004</ele><time>2026-04-04T10:20:12Z</time></trkpt><trkpt lat="44.92377487913962" lon="11.957847795545133"><ele>-2.5999999999999996</ele><time>2026-04-04T10:20:14Z</time></trkpt><trkpt lat="44.92376358772136" lon="11.95770919267151"><ele>-2.8</ele><time>2026-04-04T10:20:16Z</time></trkpt><trkpt lat="44.923753484607055" lon="11.957572737590072"><ele>-3.0</ele><time>2026-04-04T10:20:18Z</time></trkpt><trkpt lat="44.923740507329406" lon="11.957435634856196"><ele>-3.2</ele><time>2026-04-04T10:20:20Z</time></trkpt><trkpt lat="44.92372678951205" lon="11.957296777690374"><ele>-3.4</ele><time>2026-04-04T10:20:22Z</time></trkpt><trkpt lat="44.923708055113465" lon="11.957158831666673"><ele>-3.6000000000000005</ele><time>2026-04-04T10:20:24Z</time></trkpt><trkpt lat="44.92369819699308" lon="11.957021352119245"><ele>-3.8000000000000003</ele><time>2026-04-04T10:20:26Z</time></trkpt><trkpt lat="44.923680730267144" lon="11.956878404019616"><ele>-4.0</ele><time>2026-04-04T10:20:28Z</time></trkpt><trkpt lat="44.92366385768662" lon="11.956739530758984"><ele>-4.0</ele><time>2026-04-04T10:20:30Z</time></trkpt><trkpt lat="44.923655250306815" lon="11.956604410152622"><ele>-4.0</ele><time>2026-04-04T10:20:32Z</time></trkpt><trkpt lat="44.923639790768995" lon="11.956467931085436"><ele>-4.0</ele><time>2026-04-04T10:20:34Z</time></trkpt><trkpt lat="44.923628644022116" lon="11.956326424952822"><ele>-4.0</ele><time>2026-04-04T10:20:36Z</time></trkpt><trkpt lat="44.923618949894646" lon="11.956191788322705"><ele>-4.0</ele><time>2026-04-04T10:20:38Z</time></trkpt><trkpt lat="44.923607227690056" lon="11.95605381669294"><ele>-4.0</ele><time>2026-04-04T10:20:40Z</time></trkpt><trkpt lat="44.92360196871073" lon="11.95591721039226"><ele>-4.0</ele><time>2026-04-04T10:20:42Z</time></trkpt><trkpt lat="44.923587117427644" lon="11.955781149822831"><ele>-4.0</ele><time>2026-04-04T10:20:44Z</time></trkpt><trkpt lat="44.92357502458659" lon="11.955641233269706"><ele>-4.0</ele><time>2026-04-04T10:20:46Z</time></trkpt><trkpt lat="44.92355990724171" lon="11.955499682022332"><ele>-4.0</ele><time>2026-04-04T10:20:48Z</time></trkpt><trkpt lat="44.923548349127685" lon="11.955360946902394"><ele>-4.0</ele><time>2026-04-04T10:20:50Z</time></trkpt><trkpt lat="44.92353543875922" lon="11.955222828152186"><ele>-4.0</ele><time>2026-04-04T10:20:52Z</time></trkpt><trkpt lat="44.923514898065186" lon="11.95508969949125"><ele>-4.0</ele><time>2026-04-04T10:20:54Z</time></trkpt><trkpt lat="44.9234930210943" lon="11.954951704351483"><ele>-4.0</ele><time>2026-04-04T10:20:56Z</time></trkpt><trkpt lat="44.92348016596063" lon="11.954815569991169"><ele>-4.0</ele><time>2026-04-04T10:20:58Z</time></trkpt><trkpt lat="44.923463525670556" lon="11.954678321474534"><ele>-3.8000000000000003</ele><time>2026-04-04T10:21:00Z</time></trkpt><trkpt lat="44.923446989095815" lon="11.954539475041875"><ele>-3.6000000000000005</ele><time>2026-04-04T10:21:02Z</time></trkpt><trkpt lat="44.92342901298442" lon="11.95440171314905"><ele>-3.4</ele><time>2026-04-04T10:21:04Z</time></trkpt><trkpt lat="44.92341479402706" lon="11.954265440703844"><ele>-3.2</ele><time>2026-04-04T10:21:06Z</time></trkpt><trkpt lat="44.923402119390225" lon="11.954130919891776"><ele>-3.0</ele><time>2026-04-04T10:21:08Z</time></trkpt><trkpt lat="44.92338544856462" lon="11.953992812418301"><ele>-3.0</ele><time>2026-04-04T10:21:10Z</time></trkpt><trkpt lat="44.92337581694763" lon="11.953853829099652"><ele>-3.0</ele><time>2026-04-04T10:21:12Z</time></trkpt><trkpt lat="44.92336052774588" lon="11.953720764840831"><ele>-3.0</ele><time>2026-04-04T10:21:14Z</time></trkpt><trkpt lat="44.92334805584731" lon="11.953583616902623"><ele>-3.0</ele><time>2026-04-04T10:21:16Z</time></trkpt><trkpt lat="44.92334005953562" lon="11.953446534927886"><ele>-3.0</ele><time>2026-04-04T10:21:18Z</time></trkpt><trkpt lat="44.92333174587774" lon="11.953304997121116"><ele>-3.0</ele><time>2026-04-04T10:21:20Z</time></trkpt><trkpt lat="44.923313573468306" lon="11.953168515562085"><ele>-3.0</ele><time>2026-04-04T10:21:22Z</time></trkpt><trkpt lat="44.92330200307472" lon="11.953031627113523"><ele>-3.0</ele><time>2026-04-04T10:21:24Z</time></trkpt><trkpt lat="44.923285280394616" lon="11.95289639468335"><ele>-3.0</ele><time>2026-04-04T10:21:26Z</time></trkpt><trkpt lat="44.92327318742944" lon="11.952762155452854"><ele>-3.0</ele><time>2026-04-04T10:21:28Z</time></trkpt><trkpt lat="44.92325905368522" lon="11.952629522501487"><ele>-2.8</ele><time>2026-04-04T10:21:30Z</time></trkpt><trkpt lat="44.923249951418846" lon="11.952493405541817"><ele>-2.5999999999999996</ele><time>2026-04-04T10:21:32Z</time></trkpt><trkpt lat="44.923248824431504" lon="11.952354103396857"><ele>-2.4000000000000004</ele><time>2026-04-04T10:21:34Z</time></trkpt><trkpt lat="44.923262113863885" lon="11.95221946404428"><ele>-2.2</ele><time>2026-04-04T10:21:36Z</time></trkpt><trkpt lat="44.9232857891713" lon="11.95208639818479"><ele>-2.0</ele><time>2026-04-04T10:21:38Z</time></trkpt><trkpt lat="44.923311329914846" lon="11.95194725321028"><ele>-2.0</ele><time>2026-04-04T10:21:40Z</time></trkpt><trkpt lat="44.92333508755344" lon="11.951809656130155"><ele>-2.0</ele><time>2026-04-04T10:21:42Z</time></trkpt><trkpt lat="44.923353507237834" lon="11.951674121409091"><ele>-2.0</ele><time>2026-04-04T10:21:44Z</time></trkpt><trkpt lat="44.92337638195497" lon="11.9515470092387"><ele>-2.0</ele><time>2026-04-04T10:21:46Z</time></trkpt><trkpt lat="44.9233917054388" lon="11.951423929079757"><ele>-2.0</ele><time>2026-04-04T10:21:48Z</time></trkpt><trkpt lat="44.92340835516074" lon="11.951306829028812"><ele>-2.1666666666666665</ele><time>2026-04-04T10:21:50Z</time></trkpt><trkpt lat="44.92341406941669" lon="11.951193013771693"><ele>-2.333333333333333</ele><time>2026-04-04T10:21:52Z</time></trkpt><trkpt lat="44.923467664436785" lon="11.951106036719187"><ele>-2.5</ele><time>2026-04-04T10:21:54Z</time></trkpt><trkpt lat="44.92355839478046" lon="11.95110585035803"><ele>-2.6666666666666665</ele><time>2026-04-04T10:21:56Z</time></trkpt><trkpt lat="44.9236378383885" lon="11.9510943210849"><ele>-2.8333333333333335</ele><time>2026-04-04T10:21:58Z</time></trkpt><trkpt lat="44.92372741108052" lon="11.9510747117685"><ele>-3.0</ele><time>2026-04-04T10:22:00Z</time></trkpt><trkpt lat="44.923817254154955" lon="11.951048791780137"><ele>-3.0</ele><time>2026-04-04T10:22:02Z</time></trkpt><trkpt lat="44.923910829840636" lon="11.951029709834291"><ele>-3.0</ele><time>2026-04-04T10:22:04Z</time></trkpt><trkpt lat="44.92400507602701" lon="11.951009772333967"><ele>-3.0</ele><time>2026-04-04T10:22:06Z</time></trkpt><trkpt lat="44.92409119764975" lon="11.950988509676199"><ele>-3.0</ele><time>2026-04-04T10:22:08Z</time></trkpt><trkpt lat="44.92418027534759" lon="11.950969779711318"><ele>-3.0</ele><time>2026-04-04T10:22:10Z</time></trkpt><trkpt lat="44.924265277588106" lon="11.95094706758813"><ele>-3.0</ele><time>2026-04-04T10:22:12Z</time></trkpt><trkpt lat="44.92435092991324" lon="11.950934694613546"><ele>-3.0</ele><time>2026-04-04T10:22:14Z</time></trkpt><trkpt lat="44.92444204265331" lon="11.950913665843213"><ele>-3.0</ele><time>2026-04-04T10:22:16Z</time></trkpt><trkpt lat="44.924531675574926" lon="11.950892673324072"><ele>-3.0</ele><time>2026-04-04T10:22:18Z</time></trkpt><trkpt lat="44.92461325927066" lon="11.950871842496452"><ele>-3.0</ele><time>2026-04-04T10:22:20Z</time></trkpt><trkpt lat="44.92469414277424" lon="11.950858229942016"><ele>-3.0</ele><time>2026-04-04T10:22:22Z</time></trkpt><trkpt lat="44.92477417647928" lon="11.950839719766876"><ele>-3.0</ele><time>2026-04-04T10:22:24Z</time></trkpt><trkpt lat="44.92485431552526" lon="11.950823398427115"><ele>-3.0</ele><time>2026-04-04T10:22:26Z</time></trkpt><trkpt lat="44.92493292140444" lon="11.95080337561696"><ele>-3.0</ele><time>2026-04-04T10:22:28Z</time></trkpt><trkpt lat="44.92500678184915" lon="11.950784988253332"><ele>-3.0</ele><time>2026-04-04T10:22:30Z</time></trkpt><trkpt lat="44.92508015853056" lon="11.95077594769274"><ele>-3.0</ele><time>2026-04-04T10:22:32Z</time></trkpt><trkpt lat="44.92514774562007" lon="11.950760142366976"><ele>-3.0</ele><time>2026-04-04T10:22:34Z</time></trkpt><trkpt lat="44.9252196325188" lon="11.950747348209712"><ele>-3.0</ele><time>2026-04-04T10:22:36Z</time></trkpt><trkpt lat="44.925293091170275" lon="11.950732122049319"><ele>-3.0</ele><time>2026-04-04T10:22:38Z</time></trkpt><trkpt lat="44.92536309366576" lon="11.950713096832509"><ele>-3.0</ele><time>2026-04-04T10:22:40Z</time></trkpt><trkpt lat="44.92544554382047" lon="11.95069565485227"><ele>-3.0</ele><time>2026-04-04T10:22:42Z</time></trkpt><trkpt lat="44.925535207972366" lon="11.950673305191762"><ele>-3.0</ele><time>2026-04-04T10:22:44Z</time></trkpt><trkpt lat="44.92562998731119" lon="11.950653207961338"><ele>-3.0</ele><time>2026-04-04T10:22:46Z</time></trkpt><trkpt lat="44.925719809143146" lon="11.950629773439049"><ele>-3.0</ele><time>2026-04-04T10:22:48Z</time></trkpt><trkpt lat="44.92580593354828" lon="11.950610121563443"><ele>-3.0</ele><time>2026-04-04T10:22:50Z</time></trkpt><trkpt lat="44.92588998913303" lon="11.950589068410277"><ele>-3.0</ele><time>2026-04-04T10:22:52Z</time></trkpt><trkpt lat="44.92597300563133" lon="11.950571907475554"><ele>-3.0</ele><time>2026-04-04T10:22:54Z</time></trkpt><trkpt lat="44.926056903120134" lon="11.950547641625429"><ele>-3.0</ele><time>2026-04-04T10:22:56Z</time></trkpt><trkpt lat="44.92614406423726" lon="11.95052135437181"><ele>-3.0</ele><time>2026-04-04T10:22:58Z</time></trkpt><trkpt lat="44.926233796401505" lon="11.950508571295073"><ele>-2.6</ele><time>2026-04-04T10:23:00Z</time></trkpt><trkpt lat="44.926326763226356" lon="11.950487289086569"><ele>-2.1999999999999997</ele><time>2026-04-04T10:23:02Z</time></trkpt><trkpt lat="44.926418906304185" lon="11.950470873821633"><ele>-1.8</ele><time>2026-04-04T10:23:04Z</time></trkpt><trkpt lat="44.92650978173312" lon="11.95044645762645"><ele>-1.4</ele><time>2026-04-04T10:23:06Z</time></trkpt><trkpt lat="44.926602833504916" lon="11.950425693467034"><ele>-1.0</ele><time>2026-04-04T10:23:08Z</time></trkpt><trkpt lat="44.92669874541523" lon="11.950398284417933"><ele>-1.0</ele><time>2026-04-04T10:23:10Z</time></trkpt><trkpt lat="44.92679134804491" lon="11.950378563845325"><ele>-1.0</ele><time>2026-04-04T10:23:12Z</time></trkpt><trkpt lat="44.92688728763217" lon="11.950356287754856"><ele>-1.0</ele><time>2026-04-04T10:23:14Z</time></trkpt><trkpt lat="44.92698106808179" lon="11.950335521865929"><ele>-1.0</ele><time>2026-04-04T10:23:16Z</time></trkpt><trkpt lat="44.927080190200364" lon="11.950309026551668"><ele>-1.0</ele><time>2026-04-04T10:23:18Z</time></trkpt><trkpt lat="44.92717909795187" lon="11.95029615138719"><ele>-1.0</ele><time>2026-04-04T10:23:20Z</time></trkpt><trkpt lat="44.92727365669032" lon="11.950273234156258"><ele>-1.0</ele><time>2026-04-04T10:23:22Z</time></trkpt><trkpt lat="44.927372683619154" lon="11.950249322391286"><ele>-1.0</ele><time>2026-04-04T10:23:24Z</time></trkpt><trkpt lat="44.92746819932756" lon="11.9502235544952"><ele>-1.0</ele><time>2026-04-04T10:23:26Z</time></trkpt><trkpt lat="44.927565532401616" lon="11.950200729951872"><ele>-1.0</ele><time>2026-04-04T10:23:28Z</time></trkpt><trkpt lat="44.92766694951078" lon="11.950192618880985"><ele>-1.2000000000000002</ele><time>2026-04-04T10:23:30Z</time></trkpt><trkpt lat="44.92776638254521" lon="11.950166860732221"><ele>-1.4000000000000001</ele><time>2026-04-04T10:23:32Z</time></trkpt><trkpt lat="44.927865318608276" lon="11.950139711203574"><ele>-1.6</ele><time>2026-04-04T10:23:34Z</time></trkpt><trkpt lat="44.927965210554156" lon="11.95011737294741"><ele>-1.8</ele><time>2026-04-04T10:23:36Z</time></trkpt><trkpt lat="44.9280631522311" lon="11.950093040502264"><ele>-2.0</ele><time>2026-04-04T10:23:38Z</time></trkpt><trkpt lat="44.928158440072586" lon="11.95006673552889"><ele>-1.9999999999999998</ele><time>2026-04-04T10:23:40Z</time></trkpt><trkpt lat="44.92824883105013" lon="11.950056227345605"><ele>-2.0</ele><time>2026-04-04T10:23:42Z</time></trkpt><trkpt lat="44.92833714563283" lon="11.950038951809704"><ele>-2.0</ele><time>2026-04-04T10:23:44Z</time></trkpt><trkpt lat="44.92842279669735" lon="11.950019278094482"><ele>-2.0</ele><time>2026-04-04T10:23:46Z</time></trkpt><trkpt lat="44.92850325270799" lon="11.949999421137973"><ele>-1.9999999999999998</ele><time>2026-04-04T10:23:48Z</time></trkpt><trkpt lat="44.92858093321253" lon="11.949983699761452"><ele>-2.0</ele><time>2026-04-04T10:23:50Z</time></trkpt><trkpt lat="44.928667456624176" lon="11.949962686640598"><ele>-2.1666666666666665</ele><time>2026-04-04T10:23:52Z</time></trkpt><trkpt lat="44.92875587096192" lon="11.949940040952145"><ele>-2.333333333333333</ele><time>2026-04-04T10:23:54Z</time></trkpt><trkpt lat="44.92884426783052" lon="11.949931445673014"><ele>-2.5</ele><time>2026-04-04T10:23:56Z</time></trkpt><trkpt lat="44.9289274685608" lon="11.949913496580022"><ele>-2.6666666666666665</ele><time>2026-04-04T10:23:58Z</time></trkpt><trkpt lat="44.92901998935041" lon="11.949888520722983"><ele>-2.8333333333333335</ele><time>2026-04-04T10:24:00Z</time></trkpt><trkpt lat="44.92910455542572" lon="11.949865111578271"><ele>-3.0</ele><time>2026-04-04T10:24:02Z</time></trkpt><trkpt lat="44.929192291222485" lon="11.949851404183395"><ele>-3.0</ele><time>2026-04-04T10:24:04Z</time></trkpt><trkpt lat="44.92927497196127" lon="11.949832744325573"><ele>-3.0</ele><time>2026-04-04T10:24:05.999Z</time></trkpt><trkpt lat="44.92935414258012" lon="11.949813651073681"><ele>-3.0</ele><time>2026-04-04T10:24:08Z</time></trkpt><trkpt lat="44.92943582210229" lon="11.94979523428527"><ele>-3.0</ele><time>2026-04-04T10:24:10Z</time></trkpt><trkpt lat="44.9295191852497" lon="11.94978116824162"><ele>-3.0</ele><time>2026-04-04T10:24:12Z</time></trkpt><trkpt lat="44.92960249135229" lon="11.949759421539067"><ele>-3.0</ele><time>2026-04-04T10:24:14Z</time></trkpt><trkpt lat="44.92967924816811" lon="11.949734081153304"><ele>-3.0</ele><time>2026-04-04T10:24:16Z</time></trkpt><trkpt lat="44.92975161842336" lon="11.949720132586442"><ele>-3.0</ele><time>2026-04-04T10:24:18Z</time></trkpt><trkpt lat="44.92982874033543" lon="11.949701801367766"><ele>-3.0</ele><time>2026-04-04T10:24:20Z</time></trkpt><trkpt lat="44.929920470001235" lon="11.94967593601206"><ele>-3.0</ele><time>2026-04-04T10:24:22Z</time></trkpt><trkpt lat="44.930004941035854" lon="11.949655195286358"><ele>-3.0</ele><time>2026-04-04T10:24:24Z</time></trkpt><trkpt lat="44.930084101302135" lon="11.949640502350485"><ele>-3.0</ele><time>2026-04-04T10:24:26Z</time></trkpt><trkpt lat="44.9301608722618" lon="11.949620312318528"><ele>-3.1666666666666665</ele><time>2026-04-04T10:24:28Z</time></trkpt><trkpt lat="44.930230868103536" lon="11.949594574910403"><ele>-3.333333333333333</ele><time>2026-04-04T10:24:30Z</time></trkpt><trkpt lat="44.93032391228873" lon="11.949577654661343"><ele>-3.5</ele><time>2026-04-04T10:24:33Z</time></trkpt><trkpt lat="44.93039763565608" lon="11.949567047522452"><ele>-3.6666666666666665</ele><time>2026-04-04T10:24:35Z</time></trkpt><trkpt lat="44.93048466707383" lon="11.949555770052676"><ele>-3.833333333333333</ele><time>2026-04-04T10:24:37Z</time></trkpt><trkpt lat="44.930561135120556" lon="11.949532550139576"><ele>-4.0</ele><time>2026-04-04T10:24:39Z</time></trkpt><trkpt lat="44.930635624779875" lon="11.94951230599972"><ele>-4.0</ele><time>2026-04-04T10:24:41Z</time></trkpt><trkpt lat="44.93071945153621" lon="11.949486967395819"><ele>-4.0</ele><time>2026-04-04T10:24:43Z</time></trkpt><trkpt lat="44.93081115120003" lon="11.949479314080513"><ele>-4.0</ele><time>2026-04-04T10:24:45Z</time></trkpt><trkpt lat="44.930903769304486" lon="11.949457179608249"><ele>-4.0</ele><time>2026-04-04T10:24:47Z</time></trkpt><trkpt lat="44.930997935975846" lon="11.949439379378347"><ele>-4.0</ele><time>2026-04-04T10:24:49Z</time></trkpt><trkpt lat="44.931094908166294" lon="11.949414857524845"><ele>-4.0</ele><time>2026-04-04T10:24:51Z</time></trkpt><trkpt lat="44.9311818408188" lon="11.949394763004085"><ele>-4.0</ele><time>2026-04-04T10:24:53Z</time></trkpt><trkpt lat="44.93127572932245" lon="11.949377624801656"><ele>-4.0</ele><time>2026-04-04T10:24:55Z</time></trkpt><trkpt lat="44.93137346412367" lon="11.949353344451984"><ele>-4.0</ele><time>2026-04-04T10:24:57Z</time></trkpt><trkpt lat="44.93146506084439" lon="11.949331963815512"><ele>-4.0</ele><time>2026-04-04T10:24:59Z</time></trkpt><trkpt lat="44.93155673901936" lon="11.949307946862747"><ele>-4.0</ele><time>2026-04-04T10:25:01Z</time></trkpt><trkpt lat="44.93164871461681" lon="11.949280177620082"><ele>-4.0</ele><time>2026-04-04T10:25:03Z</time></trkpt><trkpt lat="44.93174112508297" lon="11.94926805623259"><ele>-4.0</ele><time>2026-04-04T10:25:05Z</time></trkpt><trkpt lat="44.931842603420044" lon="11.949246674924822"><ele>-4.0</ele><time>2026-04-04T10:25:07Z</time></trkpt><trkpt lat="44.93193652642157" lon="11.949221503468852"><ele>-4.0</ele><time>2026-04-04T10:25:09Z</time></trkpt><trkpt lat="44.93203366395515" lon="11.949194959316076"><ele>-3.8000000000000003</ele><time>2026-04-04T10:25:11Z</time></trkpt><trkpt lat="44.93213231979933" lon="11.94917337744968"><ele>-3.6000000000000005</ele><time>2026-04-04T10:25:13Z</time></trkpt><trkpt lat="44.93223018639084" lon="11.949157241770985"><ele>-3.4</ele><time>2026-04-04T10:25:15Z</time></trkpt><trkpt lat="44.93232269152461" lon="11.949137751012183"><ele>-3.2</ele><time>2026-04-04T10:25:17Z</time></trkpt><trkpt lat="44.93241604594742" lon="11.949113237533117"><ele>-3.0</ele><time>2026-04-04T10:25:19Z</time></trkpt><trkpt lat="44.93250449908636" lon="11.949089671340692"><ele>-3.1666666666666665</ele><time>2026-04-04T10:25:21Z</time></trkpt><trkpt lat="44.932594068090374" lon="11.949067023667867"><ele>-3.333333333333333</ele><time>2026-04-04T10:25:23Z</time></trkpt><trkpt lat="44.93268010327001" lon="11.949051380721762"><ele>-3.5</ele><time>2026-04-04T10:25:25Z</time></trkpt><trkpt lat="44.93276082604352" lon="11.949030364923013"><ele>-3.6666666666666665</ele><time>2026-04-04T10:25:27Z</time></trkpt><trkpt lat="44.932838196807324" lon="11.949013488524296"><ele>-3.833333333333333</ele><time>2026-04-04T10:25:29Z</time></trkpt><trkpt lat="44.93291915599119" lon="11.94900071593946"><ele>-4.0</ele><time>2026-04-04T10:25:31Z</time></trkpt><trkpt lat="44.93301167150153" lon="11.948972021138927"><ele>-3.9999999999999996</ele><time>2026-04-04T10:25:33Z</time></trkpt><trkpt lat="44.933102352422665" lon="11.948962352659354"><ele>-4.0</ele><time>2026-04-04T10:25:35Z</time></trkpt><trkpt lat="44.933184707053485" lon="11.948947272101904"><ele>-4.0</ele><time>2026-04-04T10:25:37Z</time></trkpt><trkpt lat="44.933263728878714" lon="11.948925790703152"><ele>-4.0</ele><time>2026-04-04T10:25:39Z</time></trkpt><trkpt lat="44.93334145446224" lon="11.948906462952667"><ele>-3.9999999999999996</ele><time>2026-04-04T10:25:41Z</time></trkpt><trkpt lat="44.93342522597371" lon="11.94888380757651"><ele>-4.0</ele><time>2026-04-04T10:25:43Z</time></trkpt><trkpt lat="44.93351878330422" lon="11.948865451078692"><ele>-3.8000000000000003</ele><time>2026-04-04T10:25:45Z</time></trkpt><trkpt lat="44.93361025866049" lon="11.948854774880095"><ele>-3.6000000000000005</ele><time>2026-04-04T10:25:47Z</time></trkpt><trkpt lat="44.93370510259456" lon="11.948830322341747"><ele>-3.4</ele><time>2026-04-04T10:25:49Z</time></trkpt><trkpt lat="44.93379945160173" lon="11.948806749974413"><ele>-3.2</ele><time>2026-04-04T10:25:51Z</time></trkpt><trkpt lat="44.9338949813093" lon="11.948785730535066"><ele>-3.0</ele><time>2026-04-04T10:25:53Z</time></trkpt><trkpt lat="44.93398607285095" lon="11.948763085916664"><ele>-3.0</ele><time>2026-04-04T10:25:55Z</time></trkpt><trkpt lat="44.93408220460353" lon="11.948741719561141"><ele>-3.0</ele><time>2026-04-04T10:25:57Z</time></trkpt><trkpt lat="44.934177211310306" lon="11.948717007458187"><ele>-3.0</ele><time>2026-04-04T10:25:59Z</time></trkpt><trkpt lat="44.9342715934367" lon="11.94869798445208"><ele>-3.0</ele><time>2026-04-04T10:26:01Z</time></trkpt><trkpt lat="44.93436050025506" lon="11.948672941564025"><ele>-3.0</ele><time>2026-04-04T10:26:03Z</time></trkpt><trkpt lat="44.93444833445496" lon="11.948656100420889"><ele>-3.0</ele><time>2026-04-04T10:26:05Z</time></trkpt><trkpt lat="44.934531594493144" lon="11.948641652285323"><ele>-3.0</ele><time>2026-04-04T10:26:07Z</time></trkpt><trkpt lat="44.93461054240934" lon="11.948616235993667"><ele>-3.0</ele><time>2026-04-04T10:26:09Z</time></trkpt><trkpt lat="44.934698122512316" lon="11.948593647942545"><ele>-3.0</ele><time>2026-04-04T10:26:10.999Z</time></trkpt><trkpt lat="44.934793961901995" lon="11.94856984978154"><ele>-3.0</ele><time>2026-04-04T10:26:12.999Z</time></trkpt><trkpt lat="44.934886964718835" lon="11.948544980024252"><ele>-3.0</ele><time>2026-04-04T10:26:15Z</time></trkpt><trkpt lat="44.934982971930125" lon="11.9485200152576"><ele>-3.0</ele><time>2026-04-04T10:26:17Z</time></trkpt><trkpt lat="44.93507975685608" lon="11.948502198158629"><ele>-3.0</ele><time>2026-04-04T10:26:19Z</time></trkpt><trkpt lat="44.93517439750413" lon="11.948475822377876"><ele>-3.0</ele><time>2026-04-04T10:26:21Z</time></trkpt><trkpt lat="44.93527039373364" lon="11.948464950979139"><ele>-3.0</ele><time>2026-04-04T10:26:23Z</time></trkpt><trkpt lat="44.9353626309098" lon="11.948439202605584"><ele>-3.0</ele><time>2026-04-04T10:26:25Z</time></trkpt><trkpt lat="44.93545927420122" lon="11.94842248386029"><ele>-3.0</ele><time>2026-04-04T10:26:27Z</time></trkpt><trkpt lat="44.93555606187255" lon="11.948404933134624"><ele>-3.0</ele><time>2026-04-04T10:26:29Z</time></trkpt><trkpt lat="44.935654061671784" lon="11.948382186292271"><ele>-3.0</ele><time>2026-04-04T10:26:31Z</time></trkpt><trkpt lat="44.935750079282286" lon="11.948358067413144"><ele>-3.0</ele><time>2026-04-04T10:26:33Z</time></trkpt><trkpt lat="44.93584887788876" lon="11.94833660359648"><ele>-3.0</ele><time>2026-04-04T10:26:35Z</time></trkpt><trkpt lat="44.935943993262605" lon="11.948306720562629"><ele>-3.0</ele><time>2026-04-04T10:26:37Z</time></trkpt><trkpt lat="44.93603893845577" lon="11.948289098120316"><ele>-3.0</ele><time>2026-04-04T10:26:39Z</time></trkpt><trkpt lat="44.936135132290666" lon="11.948266451857696"><ele>-3.0</ele><time>2026-04-04T10:26:41Z</time></trkpt><trkpt lat="44.93623045339261" lon="11.948233273351644"><ele>-3.0</ele><time>2026-04-04T10:26:43Z</time></trkpt><trkpt lat="44.93633130647581" lon="11.948206235346792"><ele>-3.0</ele><time>2026-04-04T10:26:45Z</time></trkpt><trkpt lat="44.936429829632665" lon="11.948184600268842"><ele>-3.0</ele><time>2026-04-04T10:26:47Z</time></trkpt><trkpt lat="44.93652728172995" lon="11.94816529538419"><ele>-3.0</ele><time>2026-04-04T10:26:49Z</time></trkpt><trkpt lat="44.93662694173862" lon="11.948145269823566"><ele>-3.0</ele><time>2026-04-04T10:26:51Z</time></trkpt><trkpt lat="44.93671981562213" lon="11.948131455112382"><ele>-3.0</ele><time>2026-04-04T10:26:53Z</time></trkpt><trkpt lat="44.93681436001191" lon="11.948115486354297"><ele>-3.0</ele><time>2026-04-04T10:26:55Z</time></trkpt><trkpt lat="44.93690949599652" lon="11.948085953143037"><ele>-2.8</ele><time>2026-04-04T10:26:57Z</time></trkpt><trkpt lat="44.93700519073374" lon="11.948062940574632"><ele>-2.5999999999999996</ele><time>2026-04-04T10:26:59Z</time></trkpt><trkpt lat="44.937099097442875" lon="11.94804607532474"><ele>-2.4000000000000004</ele><time>2026-04-04T10:27:01Z</time></trkpt><trkpt lat="44.93719089929772" lon="11.948025229026674"><ele>-2.2</ele><time>2026-04-04T10:27:03Z</time></trkpt><trkpt lat="44.93728491415017" lon="11.947997470498205"><ele>-2.0</ele><time>2026-04-04T10:27:05Z</time></trkpt><trkpt lat="44.937380487726436" lon="11.94796831986657"><ele>-1.9999999999999998</ele><time>2026-04-04T10:27:07Z</time></trkpt><trkpt lat="44.93747578276485" lon="11.947951056762399"><ele>-2.0</ele><time>2026-04-04T10:27:09Z</time></trkpt><trkpt lat="44.93756628284662" lon="11.94792863417385"><ele>-2.0</ele><time>2026-04-04T10:27:11Z</time></trkpt><trkpt lat="44.937651814874414" lon="11.947920053471272"><ele>-2.0</ele><time>2026-04-04T10:27:13Z</time></trkpt><trkpt lat="44.93773229895414" lon="11.947907245662849"><ele>-1.9999999999999998</ele><time>2026-04-04T10:27:15Z</time></trkpt><trkpt lat="44.93780834025137" lon="11.94789034538881"><ele>-2.0</ele><time>2026-04-04T10:27:17Z</time></trkpt><trkpt lat="44.93788361113811" lon="11.94787468712351"><ele>-1.9999999999999998</ele><time>2026-04-04T10:27:19Z</time></trkpt><trkpt lat="44.9379714946614" lon="11.947850029141229"><ele>-2.0</ele><time>2026-04-04T10:27:21Z</time></trkpt><trkpt lat="44.938055282803056" lon="11.947834328831753"><ele>-2.0</ele><time>2026-04-04T10:27:23Z</time></trkpt><trkpt lat="44.93813405650594" lon="11.947814534330092"><ele>-2.0</ele><time>2026-04-04T10:27:25Z</time></trkpt><trkpt lat="44.93820733728656" lon="11.947800272277343"><ele>-1.9999999999999998</ele><time>2026-04-04T10:27:27Z</time></trkpt><trkpt lat="44.93827668948573" lon="11.947779544646547"><ele>-2.0</ele><time>2026-04-04T10:27:29Z</time></trkpt><trkpt lat="44.93835135082972" lon="11.947756448907551"><ele>-2.1666666666666665</ele><time>2026-04-04T10:27:31Z</time></trkpt><trkpt lat="44.93844195067187" lon="11.947740243852675"><ele>-2.333333333333333</ele><time>2026-04-04T10:27:33Z</time></trkpt><trkpt lat="44.938524234183305" lon="11.947726693726326"><ele>-2.5</ele><time>2026-04-04T10:27:35Z</time></trkpt><trkpt lat="44.938600409980474" lon="11.947706140212768"><ele>-2.6666666666666665</ele><time>2026-04-04T10:27:37Z</time></trkpt><trkpt lat="44.93867568745296" lon="11.947680879592054"><ele>-2.8333333333333335</ele><time>2026-04-04T10:27:39Z</time></trkpt><trkpt lat="44.93874804697362" lon="11.94766833261382"><ele>-3.0</ele><time>2026-04-04T10:27:41Z</time></trkpt><trkpt lat="44.938831033298335" lon="11.947653407589168"><ele>-3.0</ele><time>2026-04-04T10:27:43Z</time></trkpt><trkpt lat="44.938905135509216" lon="11.94763149206456"><ele>-3.0</ele><time>2026-04-04T10:27:45Z</time></trkpt><trkpt lat="44.93898085447431" lon="11.947609322398396"><ele>-3.0</ele><time>2026-04-04T10:27:47Z</time></trkpt><trkpt lat="44.939069702720296" lon="11.947599835748829"><ele>-3.0</ele><time>2026-04-04T10:27:49Z</time></trkpt><trkpt lat="44.93915968026811" lon="11.947566168896437"><ele>-3.0</ele><time>2026-04-04T10:27:51Z</time></trkpt><trkpt lat="44.93924340015599" lon="11.947552981811663"><ele>-3.0</ele><time>2026-04-04T10:27:53Z</time></trkpt><trkpt lat="44.93933166884727" lon="11.947528932304133"><ele>-3.0</ele><time>2026-04-04T10:27:55Z</time></trkpt><trkpt lat="44.93942410940453" lon="11.947501746865521"><ele>-3.0</ele><time>2026-04-04T10:27:57Z</time></trkpt><trkpt lat="44.93952034936377" lon="11.947488232063966"><ele>-3.0</ele><time>2026-04-04T10:27:59Z</time></trkpt><trkpt lat="44.93961175952329" lon="11.947470411046254"><ele>-3.0</ele><time>2026-04-04T10:28:01Z</time></trkpt><trkpt lat="44.93970085895891" lon="11.947441131366942"><ele>-3.0</ele><time>2026-04-04T10:28:03Z</time></trkpt><trkpt lat="44.939792379829825" lon="11.947425420264965"><ele>-3.0</ele><time>2026-04-04T10:28:05Z</time></trkpt><trkpt lat="44.93988809757979" lon="11.947402664596295"><ele>-3.0</ele><time>2026-04-04T10:28:07Z</time></trkpt><trkpt lat="44.93998232540259" lon="11.947386264895512"><ele>-3.0</ele><time>2026-04-04T10:28:09Z</time></trkpt><trkpt lat="44.94007257551181" lon="11.947363224348209"><ele>-3.0</ele><time>2026-04-04T10:28:10.999Z</time></trkpt><trkpt lat="44.94015587619562" lon="11.947340700423682"><ele>-3.0</ele><time>2026-04-04T10:28:12.999Z</time></trkpt><trkpt lat="44.9402451244459" lon="11.947324018001769"><ele>-2.6</ele><time>2026-04-04T10:28:14.999Z</time></trkpt><trkpt lat="44.940339352809836" lon="11.947303779152803"><ele>-2.1999999999999997</ele><time>2026-04-04T10:28:16.999Z</time></trkpt><trkpt lat="44.940432987356104" lon="11.947291593298637"><ele>-1.8</ele><time>2026-04-04T10:28:18.999Z</time></trkpt><trkpt lat="44.94052861315092" lon="11.947264577092156"><ele>-1.4</ele><time>2026-04-04T10:28:21Z</time></trkpt><trkpt lat="44.94062559890397" lon="11.94724665072646"><ele>-1.0</ele><time>2026-04-04T10:28:23Z</time></trkpt><trkpt lat="44.940718625991856" lon="11.947219001037539"><ele>-1.0</ele><time>2026-04-04T10:28:25Z</time></trkpt><trkpt lat="44.94081233889088" lon="11.947205508243764"><ele>-1.0</ele><time>2026-04-04T10:28:27Z</time></trkpt><trkpt lat="44.94090178568686" lon="11.947180564703874"><ele>-1.0</ele><time>2026-04-04T10:28:29Z</time></trkpt><trkpt lat="44.9409983642662" lon="11.947158084322623"><ele>-1.0</ele><time>2026-04-04T10:28:31Z</time></trkpt><trkpt lat="44.94109031695688" lon="11.947144445790975"><ele>-1.0</ele><time>2026-04-04T10:28:33Z</time></trkpt><trkpt lat="44.941182604002016" lon="11.947129928855434"><ele>-0.9999999999999999</ele><time>2026-04-04T10:28:35Z</time></trkpt><trkpt lat="44.941276998494295" lon="11.947108777544969"><ele>-1.0</ele><time>2026-04-04T10:28:37Z</time></trkpt><trkpt lat="44.94136679969105" lon="11.947082914641049"><ele>-1.0</ele><time>2026-04-04T10:28:39Z</time></trkpt><trkpt lat="44.94144856385677" lon="11.94706265747286"><ele>-1.0</ele><time>2026-04-04T10:28:41Z</time></trkpt><trkpt lat="44.94152514369587" lon="11.94704519702427"><ele>-0.9999999999999999</ele><time>2026-04-04T10:28:43Z</time></trkpt><trkpt lat="44.94159256544532" lon="11.947013552950173"><ele>-1.0</ele><time>2026-04-04T10:28:45Z</time></trkpt><trkpt lat="44.94165368535965" lon="11.946975345885093"><ele>-0.9999999999999999</ele><time>2026-04-04T10:28:47Z</time></trkpt><trkpt lat="44.94166148203268" lon="11.946866725755978"><ele>-1.0</ele><time>2026-04-04T10:28:49Z</time></trkpt><trkpt lat="44.94161971711559" lon="11.946769263206184"><ele>-1.0</ele><time>2026-04-04T10:28:51Z</time></trkpt><trkpt lat="44.94159402568035" lon="11.946651803398675"><ele>-1.0</ele><time>2026-04-04T10:28:53Z</time></trkpt><trkpt lat="44.941556374266334" lon="11.94655147340906"><ele>-0.9999999999999999</ele><time>2026-04-04T10:28:55Z</time></trkpt><trkpt lat="44.94151276696636" lon="11.94645195240711"><ele>-1.0</ele><time>2026-04-04T10:28:57Z</time></trkpt><trkpt lat="44.94147987104899" lon="11.946355696485261"><ele>-1.0</ele><time>2026-04-04T10:28:59Z</time></trkpt><trkpt lat="44.941441241398906" lon="11.94624616911994"><ele>-1.0</ele><time>2026-04-04T10:29:01Z</time></trkpt><trkpt lat="44.94140131632235" lon="11.946129218687641"><ele>-1.0</ele><time>2026-04-04T10:29:03Z</time></trkpt><trkpt lat="44.941371900038405" lon="11.946005386090203"><ele>-1.0</ele><time>2026-04-04T10:29:05Z</time></trkpt><trkpt lat="44.94135214732362" lon="11.945879460712286"><ele>-1.0</ele><time>2026-04-04T10:29:07Z</time></trkpt><trkpt lat="44.94134357778374" lon="11.94574504388017"><ele>-1.0</ele><time>2026-04-04T10:29:09Z</time></trkpt><trkpt lat="44.941323328777315" lon="11.945620612903674"><ele>-1.0</ele><time>2026-04-04T10:29:11Z</time></trkpt><trkpt lat="44.941295589996535" lon="11.945501826986689"><ele>-1.0</ele><time>2026-04-04T10:29:13Z</time></trkpt><trkpt lat="44.94126356416264" lon="11.945382307614913"><ele>-1.0</ele><time>2026-04-04T10:29:15Z</time></trkpt><trkpt lat="44.941237377217824" lon="11.94525204462487"><ele>-1.0</ele><time>2026-04-04T10:29:17Z</time></trkpt><trkpt lat="44.94122361147212" lon="11.945121125336877"><ele>-1.2000000000000002</ele><time>2026-04-04T10:29:19Z</time></trkpt><trkpt lat="44.94118062471731" lon="11.944999659336988"><ele>-1.4000000000000001</ele><time>2026-04-04T10:29:21Z</time></trkpt><trkpt lat="44.94113080322662" lon="11.944880704680568"><ele>-1.6</ele><time>2026-04-04T10:29:23Z</time></trkpt><trkpt lat="44.94108326789819" lon="11.944770337645114"><ele>-1.8</ele><time>2026-04-04T10:29:25Z</time></trkpt><trkpt lat="44.94103383066945" lon="11.944656487508748"><ele>-2.0</ele><time>2026-04-04T10:29:27Z</time></trkpt><trkpt lat="44.94098477633588" lon="11.944544069989915"><ele>-2.0</ele><time>2026-04-04T10:29:29Z</time></trkpt><trkpt lat="44.94093528830205" lon="11.944433875932143"><ele>-2.0</ele><time>2026-04-04T10:29:31Z</time></trkpt><trkpt lat="44.94088505498616" lon="11.944322022420943"><ele>-2.0</ele><time>2026-04-04T10:29:33Z</time></trkpt><trkpt lat="44.940834949827874" lon="11.944210454292646"><ele>-2.0</ele><time>2026-04-04T10:29:35Z</time></trkpt><trkpt lat="44.94077094196901" lon="11.944111407319486"><ele>-2.0</ele><time>2026-04-04T10:29:37Z</time></trkpt><trkpt lat="44.94073443468595" lon="11.943989889660433"><ele>-1.9999999999999998</ele><time>2026-04-04T10:29:39Z</time></trkpt><trkpt lat="44.94068798694303" lon="11.943889353310228"><ele>-2.0</ele><time>2026-04-04T10:29:41Z</time></trkpt><trkpt lat="44.94064019710045" lon="11.943785911645396"><ele>-2.0</ele><time>2026-04-04T10:29:43Z</time></trkpt><trkpt lat="44.940588347560194" lon="11.943673430910483"><ele>-2.0</ele><time>2026-04-04T10:29:45Z</time></trkpt><trkpt lat="44.94054137807655" lon="11.94356966578787"><ele>-1.9999999999999998</ele><time>2026-04-04T10:29:47Z</time></trkpt><trkpt lat="44.94049521174482" lon="11.943475627431205"><ele>-2.0</ele><time>2026-04-04T10:29:49Z</time></trkpt><trkpt lat="44.940571813594794" lon="11.943349836732844"><ele>-2.0</ele><time>2026-04-04T10:29:52Z</time></trkpt><trkpt lat="44.94064733622999" lon="11.94333908850732"><ele>-1.9999999999999998</ele><time>2026-04-04T10:29:54Z</time></trkpt><trkpt lat="44.94072670406406" lon="11.943319901769211"><ele>-2.0</ele><time>2026-04-04T10:29:56Z</time></trkpt><trkpt lat="44.94079034857644" lon="11.943293054952804"><ele>-2.0</ele><time>2026-04-04T10:29:58Z</time></trkpt><trkpt lat="44.94085134710376" lon="11.94326762184623"><ele>-1.9999999999999998</ele><time>2026-04-04T10:30:00Z</time></trkpt><trkpt lat="44.940925702159625" lon="11.943227980218113"><ele>-2.0</ele><time>2026-04-04T10:30:03Z</time></trkpt><trkpt lat="44.94099702980865" lon="11.943197391666924"><ele>-2.0</ele><time>2026-04-04T10:30:06Z</time></trkpt><trkpt lat="44.94099396526423" lon="11.943037381937113"><ele>-1.9999999999999998</ele><time>2026-04-04T10:30:08Z</time></trkpt><trkpt lat="44.940957463619526" lon="11.942934810579763"><ele>-2.0</ele><time>2026-04-04T10:30:10Z</time></trkpt><trkpt lat="44.940915576120915" lon="11.942825546413612"><ele>-2.0</ele><time>2026-04-04T10:30:12Z</time></trkpt><trkpt lat="44.94087814037967" lon="11.942714277280569"><ele>-2.0</ele><time>2026-04-04T10:30:14Z</time></trkpt><trkpt lat="44.94084337412758" lon="11.942609484063803"><ele>-1.9999999999999998</ele><time>2026-04-04T10:30:15.999Z</time></trkpt><trkpt lat="44.940808564644456" lon="11.94250815381901"><ele>-2.0</ele><time>2026-04-04T10:30:17.999Z</time></trkpt><trkpt lat="44.94076283156754" lon="11.942423969326672"><ele>-2.1666666666666665</ele><time>2026-04-04T10:30:19.999Z</time></trkpt><trkpt lat="44.940734639905955" lon="11.942335318455202"><ele>-2.333333333333333</ele><time>2026-04-04T10:30:21.999Z</time></trkpt><trkpt lat="44.940714552000834" lon="11.94223430548455"><ele>-2.5</ele><time>2026-04-04T10:30:23.999Z</time></trkpt><trkpt lat="44.94067213901043" lon="11.942132527908143"><ele>-2.6666666666666665</ele><time>2026-04-04T10:30:26Z</time></trkpt><trkpt lat="44.940620377616106" lon="11.942039984329679"><ele>-2.8333333333333335</ele><time>2026-04-04T10:30:28Z</time></trkpt><trkpt lat="44.940563047428725" lon="11.941960858383483"><ele>-3.0</ele><time>2026-04-04T10:30:30Z</time></trkpt><trkpt lat="44.940503983991306" lon="11.941897078442066"><ele>-3.0</ele><time>2026-04-04T10:30:32Z</time></trkpt><trkpt lat="44.940439229409264" lon="11.941833526311402"><ele>-3.0</ele><time>2026-04-04T10:30:34Z</time></trkpt><trkpt lat="44.940365569347904" lon="11.94177560578988"><ele>-3.0</ele><time>2026-04-04T10:30:36Z</time></trkpt><trkpt lat="44.94030468024083" lon="11.941726427024864"><ele>-3.0</ele><time>2026-04-04T10:30:38Z</time></trkpt><trkpt lat="44.94024783500687" lon="11.941674621783587"><ele>-3.0</ele><time>2026-04-04T10:30:40Z</time></trkpt><trkpt lat="44.94018858762958" lon="11.941610442237232"><ele>-3.0</ele><time>2026-04-04T10:30:42Z</time></trkpt><trkpt lat="44.94012443271311" lon="11.941521812422"><ele>-3.1666666666666665</ele><time>2026-04-04T10:30:44Z</time></trkpt><trkpt lat="44.94008411274309" lon="11.941418527257973"><ele>-3.333333333333333</ele><time>2026-04-04T10:30:46Z</time></trkpt><trkpt lat="44.94005095736632" lon="11.941319120363296"><ele>-3.5</ele><time>2026-04-04T10:30:48Z</time></trkpt><trkpt lat="44.94002831445968" lon="11.941227745925758"><ele>-3.6666666666666665</ele><time>2026-04-04T10:30:50Z</time></trkpt><trkpt lat="44.940006969988346" lon="11.941121583421914"><ele>-3.833333333333333</ele><time>2026-04-04T10:30:52Z</time></trkpt><trkpt lat="44.93998436661342" lon="11.940995650499927"><ele>-4.0</ele><time>2026-04-04T10:30:54Z</time></trkpt><trkpt lat="44.939952239608594" lon="11.940886474203477"><ele>-3.4999999999999996</ele><time>2026-04-04T10:30:56Z</time></trkpt><trkpt lat="44.939933365801934" lon="11.940770855448838"><ele>-3.0</ele><time>2026-04-04T10:30:58Z</time></trkpt><trkpt lat="44.939914650381176" lon="11.940663146529106"><ele>-2.5</ele><time>2026-04-04T10:31:00Z</time></trkpt><trkpt lat="44.93989822989571" lon="11.940540468575193"><ele>-2.0</ele><time>2026-04-04T10:31:02Z</time></trkpt><trkpt lat="44.939879491938974" lon="11.940426971528707"><ele>-1.5</ele><time>2026-04-04T10:31:04Z</time></trkpt><trkpt lat="44.93988052804089" lon="11.94031729699424"><ele>-1.0</ele><time>2026-04-04T10:31:06Z</time></trkpt><trkpt lat="44.93984933333114" lon="11.940218954546365"><ele>-0.9999999999999999</ele><time>2026-04-04T10:31:08Z</time></trkpt><trkpt lat="44.939838396478024" lon="11.940124819070508"><ele>-1.0</ele><time>2026-04-04T10:31:10Z</time></trkpt><trkpt lat="44.939826749206524" lon="11.940029753898273"><ele>-1.0</ele><time>2026-04-04T10:31:12Z</time></trkpt><trkpt lat="44.93980742308083" lon="11.9398973290665"><ele>-1.0</ele><time>2026-04-04T10:31:15Z</time></trkpt><trkpt lat="44.93980831427838" lon="11.939767933113872"><ele>-0.9999999999999999</ele><time>2026-04-04T10:31:17Z</time></trkpt><trkpt lat="44.93978621774898" lon="11.939649224514492"><ele>-1.0</ele><time>2026-04-04T10:31:19Z</time></trkpt><trkpt lat="44.93978766716151" lon="11.939527158848778"><ele>-1.2000000000000002</ele><time>2026-04-04T10:31:21Z</time></trkpt><trkpt lat="44.939786182231884" lon="11.939384995306984"><ele>-1.4000000000000001</ele><time>2026-04-04T10:31:23Z</time></trkpt><trkpt lat="44.93980374284306" lon="11.939232817742576"><ele>-1.6</ele><time>2026-04-04T10:31:25Z</time></trkpt><trkpt lat="44.93982359886126" lon="11.939083329380502"><ele>-1.8</ele><time>2026-04-04T10:31:27Z</time></trkpt><trkpt lat="44.93989397852977" lon="11.938952985813987"><ele>-2.0</ele><time>2026-04-04T10:31:29Z</time></trkpt><trkpt lat="44.93996059731063" lon="11.938830728702905"><ele>-2.0</ele><time>2026-04-04T10:31:31Z</time></trkpt><trkpt lat="44.94002769140413" lon="11.938718800357607"><ele>-2.0</ele><time>2026-04-04T10:31:33Z</time></trkpt><trkpt lat="44.94009542169933" lon="11.938612526312975"><ele>-2.0</ele><time>2026-04-04T10:31:35Z</time></trkpt><trkpt lat="44.94015791586199" lon="11.93850489632475"><ele>-2.0</ele><time>2026-04-04T10:31:37Z</time></trkpt><trkpt lat="44.94022137554051" lon="11.938399293492699"><ele>-2.0</ele><time>2026-04-04T10:31:39Z</time></trkpt><trkpt lat="44.9402858120849" lon="11.938286927164905"><ele>-2.2</ele><time>2026-04-04T10:31:41Z</time></trkpt><trkpt lat="44.94033662600936" lon="11.93816287526376"><ele>-2.4000000000000004</ele><time>2026-04-04T10:31:43Z</time></trkpt><trkpt lat="44.940395884980504" lon="11.938059597659562"><ele>-2.5999999999999996</ele><time>2026-04-04T10:31:45Z</time></trkpt><trkpt lat="44.94045225261062" lon="11.937961359142875"><ele>-2.8</ele><time>2026-04-04T10:31:47Z</time></trkpt><trkpt lat="44.94051790331272" lon="11.937876524548214"><ele>-3.0</ele><time>2026-04-04T10:31:49Z</time></trkpt><trkpt lat="44.94055776578457" lon="11.93777746887914"><ele>-3.0</ele><time>2026-04-04T10:31:50.999Z</time></trkpt><trkpt lat="44.94060703866062" lon="11.937690583707338"><ele>-3.0</ele><time>2026-04-04T10:31:52.999Z</time></trkpt><trkpt lat="44.940657111435605" lon="11.937609086749069"><ele>-3.0</ele><time>2026-04-04T10:31:54.999Z</time></trkpt><trkpt lat="44.940688308637334" lon="11.937521547040276"><ele>-3.0</ele><time>2026-04-04T10:31:56.999Z</time></trkpt><trkpt lat="44.9407362107077" lon="11.937436107144306"><ele>-3.0</ele><time>2026-04-04T10:31:58.999Z</time></trkpt><trkpt lat="44.94078732751749" lon="11.937345656141181"><ele>-3.0</ele><time>2026-04-04T10:32:00.999Z</time></trkpt><trkpt lat="44.94084733907077" lon="11.937241838285345"><ele>-2.8333333333333335</ele><time>2026-04-04T10:32:02.999Z</time></trkpt><trkpt lat="44.94091666144196" lon="11.937148544027993"><ele>-2.6666666666666665</ele><time>2026-04-04T10:32:04.999Z</time></trkpt><trkpt lat="44.940956911172776" lon="11.937045470948117"><ele>-2.5</ele><time>2026-04-04T10:32:06.999Z</time></trkpt><trkpt lat="44.94100967369105" lon="11.936957460098098"><ele>-2.333333333333333</ele><time>2026-04-04T10:32:08.999Z</time></trkpt><trkpt lat="44.941060678965385" lon="11.936869305149882"><ele>-2.1666666666666665</ele><time>2026-04-04T10:32:10.999Z</time></trkpt><trkpt lat="44.94111868602352" lon="11.936771057010699"><ele>-2.0</ele><time>2026-04-04T10:32:12.999Z</time></trkpt><trkpt lat="44.9411832758263" lon="11.936660273675667"><ele>-2.0</ele><time>2026-04-04T10:32:14.999Z</time></trkpt><trkpt lat="44.941246473033104" lon="11.93654874776231"><ele>-2.0</ele><time>2026-04-04T10:32:16.999Z</time></trkpt><trkpt lat="44.94131004561814" lon="11.936436701104501"><ele>-2.0</ele><time>2026-04-04T10:32:18.999Z</time></trkpt><trkpt lat="44.9413663995368" lon="11.936333931930994"><ele>-2.0</ele><time>2026-04-04T10:32:20.999Z</time></trkpt><trkpt lat="44.94142280140388" lon="11.936234939728545"><ele>-2.0</ele><time>2026-04-04T10:32:22.999Z</time></trkpt><trkpt lat="44.94148167981767" lon="11.936138081617948"><ele>-2.0</ele><time>2026-04-04T10:32:24.999Z</time></trkpt><trkpt lat="44.941532295384924" lon="11.936042342466358"><ele>-2.0</ele><time>2026-04-04T10:32:26.999Z</time></trkpt><trkpt lat="44.941592867218944" lon="11.935939202176563"><ele>-2.0</ele><time>2026-04-04T10:32:28.999Z</time></trkpt><trkpt lat="44.941653428423244" lon="11.935832247171215"><ele>-2.0</ele><time>2026-04-04T10:32:30.999Z</time></trkpt><trkpt lat="44.941713335689634" lon="11.935730413781503"><ele>-2.0</ele><time>2026-04-04T10:32:33Z</time></trkpt><trkpt lat="44.94176531494026" lon="11.935634556045631"><ele>-2.2</ele><time>2026-04-04T10:32:35Z</time></trkpt><trkpt lat="44.941819596664274" lon="11.935538183627736"><ele>-2.4000000000000004</ele><time>2026-04-04T10:32:37Z</time></trkpt><trkpt lat="44.94187895431932" lon="11.935432342823905"><ele>-2.5999999999999996</ele><time>2026-04-04T10:32:39Z</time></trkpt><trkpt lat="44.94194484191536" lon="11.935329012061631"><ele>-2.8</ele><time>2026-04-04T10:32:41Z</time></trkpt><trkpt lat="44.942000726867924" lon="11.935221918947459"><ele>-3.0</ele><time>2026-04-04T10:32:43Z</time></trkpt><trkpt lat="44.94206206724348" lon="11.935126680476646"><ele>-3.0</ele><time>2026-04-04T10:32:45Z</time></trkpt><trkpt lat="44.942114124807794" lon="11.935015777479286"><ele>-3.0</ele><time>2026-04-04T10:32:47Z</time></trkpt><trkpt lat="44.94217012038237" lon="11.93491464831862"><ele>-3.0</ele><time>2026-04-04T10:32:49Z</time></trkpt><trkpt lat="44.942224391953374" lon="11.93482259673622"><ele>-3.0</ele><time>2026-04-04T10:32:51Z</time></trkpt><trkpt lat="44.94227944393672" lon="11.934725285618093"><ele>-3.0</ele><time>2026-04-04T10:32:53Z</time></trkpt><trkpt lat="44.942334342490106" lon="11.934626734229719"><ele>-3.0</ele><time>2026-04-04T10:32:55Z</time></trkpt><trkpt lat="44.94239337948302" lon="11.934522882064725"><ele>-3.0</ele><time>2026-04-04T10:32:57Z</time></trkpt><trkpt lat="44.94244531512896" lon="11.934429445931515"><ele>-3.0</ele><time>2026-04-04T10:32:59Z</time></trkpt><trkpt lat="44.942495667080586" lon="11.93433895996654"><ele>-3.0</ele><time>2026-04-04T10:33:01Z</time></trkpt><trkpt lat="44.942541556269425" lon="11.934256000068483"><ele>-3.0</ele><time>2026-04-04T10:33:03Z</time></trkpt><trkpt lat="44.94258355453027" lon="11.934179219915737"><ele>-3.0</ele><time>2026-04-04T10:33:05Z</time></trkpt><trkpt lat="44.94263547832483" lon="11.934082248841458"><ele>-3.0</ele><time>2026-04-04T10:33:07Z</time></trkpt><trkpt lat="44.94269205498333" lon="11.933981272952416"><ele>-3.0</ele><time>2026-04-04T10:33:09Z</time></trkpt><trkpt lat="44.94274822888741" lon="11.933889639363045"><ele>-3.0</ele><time>2026-04-04T10:33:11Z</time></trkpt><trkpt lat="44.942803052756396" lon="11.933787880139233"><ele>-3.0</ele><time>2026-04-04T10:33:13Z</time></trkpt><trkpt lat="44.94285556964441" lon="11.933689314788596"><ele>-3.0</ele><time>2026-04-04T10:33:15Z</time></trkpt><trkpt lat="44.94290474894734" lon="11.933602763759426"><ele>-3.0</ele><time>2026-04-04T10:33:17Z</time></trkpt><trkpt lat="44.942952020820314" lon="11.933516565278394"><ele>-3.0</ele><time>2026-04-04T10:33:19Z</time></trkpt><trkpt lat="44.943004287685326" lon="11.933425366928596"><ele>-2.8333333333333335</ele><time>2026-04-04T10:33:21Z</time></trkpt><trkpt lat="44.943054724057674" lon="11.933322297086132"><ele>-2.6666666666666665</ele><time>2026-04-04T10:33:23Z</time></trkpt><trkpt lat="44.94310882948638" lon="11.933230272759122"><ele>-2.5</ele><time>2026-04-04T10:33:25Z</time></trkpt><trkpt lat="44.94315746181365" lon="11.933143053587921"><ele>-2.333333333333333</ele><time>2026-04-04T10:33:27Z</time></trkpt><trkpt lat="44.94320693003838" lon="11.933044329054047"><ele>-2.1666666666666665</ele><time>2026-04-04T10:33:29Z</time></trkpt><trkpt lat="44.94326450767983" lon="11.932939029612623"><ele>-2.0</ele><time>2026-04-04T10:33:31Z</time></trkpt><trkpt lat="44.94332599193567" lon="11.932831884773828"><ele>-2.1666666666666665</ele><time>2026-04-04T10:33:33Z</time></trkpt><trkpt lat="44.94338331001764" lon="11.93272564644981"><ele>-2.333333333333333</ele><time>2026-04-04T10:33:35Z</time></trkpt><trkpt lat="44.94343769442586" lon="11.932625523177572"><ele>-2.5</ele><time>2026-04-04T10:33:37Z</time></trkpt><trkpt lat="44.9434888492411" lon="11.932531522827817"><ele>-2.6666666666666665</ele><time>2026-04-04T10:33:39Z</time></trkpt><trkpt lat="44.94353685499916" lon="11.932448525167167"><ele>-2.8333333333333335</ele><time>2026-04-04T10:33:41Z</time></trkpt><trkpt lat="44.94358217610923" lon="11.932376716854085"><ele>-3.0</ele><time>2026-04-04T10:33:43Z</time></trkpt><trkpt lat="44.943636790797115" lon="11.932297284185601"><ele>-3.0</ele><time>2026-04-04T10:33:45Z</time></trkpt><trkpt lat="44.94369086705526" lon="11.932222945910082"><ele>-3.0</ele><time>2026-04-04T10:33:47Z</time></trkpt><trkpt lat="44.94376040974537" lon="11.932138268660719"><ele>-3.0</ele><time>2026-04-04T10:33:50Z</time></trkpt><trkpt lat="44.943817421302384" lon="11.93207312797433"><ele>-3.0</ele><time>2026-04-04T10:33:52Z</time></trkpt><trkpt lat="44.94388862532393" lon="11.932001891150188"><ele>-3.0</ele><time>2026-04-04T10:33:54Z</time></trkpt><trkpt lat="44.943969050931884" lon="11.931916820439575"><ele>-3.0</ele><time>2026-04-04T10:33:55.999Z</time></trkpt><trkpt lat="44.94405596358878" lon="11.931836724776943"><ele>-3.0</ele><time>2026-04-04T10:33:57.999Z</time></trkpt><trkpt lat="44.94414442377909" lon="11.931761105680362"><ele>-3.0</ele><time>2026-04-04T10:33:59.999Z</time></trkpt><trkpt lat="44.94423215919421" lon="11.931681531834155"><ele>-3.0</ele><time>2026-04-04T10:34:01.999Z</time></trkpt><trkpt lat="44.9443225124896" lon="11.931599318594198"><ele>-3.0</ele><time>2026-04-04T10:34:03.999Z</time></trkpt><trkpt lat="44.94440949861427" lon="11.931518399596996"><ele>-3.0</ele><time>2026-04-04T10:34:05.999Z</time></trkpt><trkpt lat="44.94449683539036" lon="11.931448913052684"><ele>-2.4</ele><time>2026-04-04T10:34:07.999Z</time></trkpt><trkpt lat="44.94457865202358" lon="11.93136999087193"><ele>-1.7999999999999998</ele><time>2026-04-04T10:34:09.999Z</time></trkpt><trkpt lat="44.94465954059277" lon="11.931292172108876"><ele>-1.2</ele><time>2026-04-04T10:34:11.999Z</time></trkpt><trkpt lat="44.944743218955644" lon="11.931226065296359"><ele>-0.6</ele><time>2026-04-04T10:34:13.999Z</time></trkpt><trkpt lat="44.94481709785721" lon="11.931159664360916"><ele>0.0</ele><time>2026-04-04T10:34:15.999Z</time></trkpt><trkpt lat="44.94488749559487" lon="11.93110046620862"><ele>0.0</ele><time>2026-04-04T10:34:17.999Z</time></trkpt><trkpt lat="44.94495790222319" lon="11.931045158011251"><ele>0.0</ele><time>2026-04-04T10:34:19.999Z</time></trkpt><trkpt lat="44.945042163283205" lon="11.931014180465745"><ele>0.0</ele><time>2026-04-04T10:34:21.999Z</time></trkpt><trkpt lat="44.94513719377969" lon="11.93099606927083"><ele>0.0</ele><time>2026-04-04T10:34:23.999Z</time></trkpt><trkpt lat="44.94523042681498" lon="11.930992159899047"><ele>0.0</ele><time>2026-04-04T10:34:25.999Z</time></trkpt><trkpt lat="44.94532442071173" lon="11.930990432960595"><ele>-0.4</ele><time>2026-04-04T10:34:27.999Z</time></trkpt><trkpt lat="44.945420947052554" lon="11.9309884375345"><ele>-0.8</ele><time>2026-04-04T10:34:29.999Z</time></trkpt><trkpt lat="44.945516211017974" lon="11.93098131767286"><ele>-1.2000000000000002</ele><time>2026-04-04T10:34:31.999Z</time></trkpt><trkpt lat="44.945614364766804" lon="11.930976235116704"><ele>-1.6</ele><time>2026-04-04T10:34:33.999Z</time></trkpt><trkpt lat="44.945712333757406" lon="11.930971326003547"><ele>-2.0</ele><time>2026-04-04T10:34:35.999Z</time></trkpt><trkpt lat="44.9458024530347" lon="11.93096999121071"><ele>-2.1666666666666665</ele><time>2026-04-04T10:34:38Z</time></trkpt><trkpt lat="44.945893870204294" lon="11.930956920326597"><ele>-2.333333333333333</ele><time>2026-04-04T10:34:40Z</time></trkpt><trkpt lat="44.94597411246119" lon="11.930953117129237"><ele>-2.5</ele><time>2026-04-04T10:34:42Z</time></trkpt><trkpt lat="44.9460552106521" lon="11.930956282004995"><ele>-2.6666666666666665</ele><time>2026-04-04T10:34:44Z</time></trkpt><trkpt lat="44.94613967838002" lon="11.930949393933346"><ele>-2.8333333333333335</ele><time>2026-04-04T10:34:46Z</time></trkpt><trkpt lat="44.946215500209966" lon="11.930952501819938"><ele>-3.0</ele><time>2026-04-04T10:34:48Z</time></trkpt><trkpt lat="44.946298750937125" lon="11.930951073171219"><ele>-3.0</ele><time>2026-04-04T10:34:50Z</time></trkpt><trkpt lat="44.946390750777674" lon="11.930947057956557"><ele>-3.0</ele><time>2026-04-04T10:34:52Z</time></trkpt><trkpt lat="44.946484082582515" lon="11.930939222882166"><ele>-3.0</ele><time>2026-04-04T10:34:54Z</time></trkpt><trkpt lat="44.94657465376656" lon="11.930932476955846"><ele>-3.0</ele><time>2026-04-04T10:34:56Z</time></trkpt><trkpt lat="44.946650719447796" lon="11.93093540265041"><ele>-3.0</ele><time>2026-04-04T10:34:58Z</time></trkpt><trkpt lat="44.946723527709324" lon="11.930924707368508"><ele>-3.0</ele><time>2026-04-04T10:35:00Z</time></trkpt><trkpt lat="44.94679610344197" lon="11.930927854986948"><ele>-2.8333333333333335</ele><time>2026-04-04T10:35:02Z</time></trkpt><trkpt lat="44.946883121925325" lon="11.930925806165703"><ele>-2.6666666666666665</ele><time>2026-04-04T10:35:04Z</time></trkpt><trkpt lat="44.946965534177394" lon="11.930921856678617"><ele>-2.5</ele><time>2026-04-04T10:35:06Z</time></trkpt><trkpt lat="44.947040466567046" lon="11.930915784407238"><ele>-2.333333333333333</ele><time>2026-04-04T10:35:08Z</time></trkpt><trkpt lat="44.947113651188126" lon="11.930916422322582"><ele>-2.1666666666666665</ele><time>2026-04-04T10:35:10Z</time></trkpt><trkpt lat="44.94717809030112" lon="11.93091354501043"><ele>-2.0</ele><time>2026-04-04T10:35:12Z</time></trkpt><trkpt lat="44.94727050563618" lon="11.93090791410851"><ele>-1.9999999999999998</ele><time>2026-04-04T10:35:15Z</time></trkpt><trkpt lat="44.94736150634014" lon="11.930903696890425"><ele>-2.0</ele><time>2026-04-04T10:35:18Z</time></trkpt><trkpt lat="44.94737603395763" lon="11.930809065610115"><ele>-2.0</ele><time>2026-04-04T10:35:19Z</time></trkpt><trkpt lat="44.94743567098104" lon="11.930770830405363"><ele>-2.0</ele><time>2026-04-04T10:35:21Z</time></trkpt><trkpt lat="44.947494524990404" lon="11.930733097310325"><ele>-1.9999999999999998</ele><time>2026-04-04T10:35:23Z</time></trkpt><trkpt lat="44.94756205271869" lon="11.930689803101796"><ele>-2.0</ele><time>2026-04-04T10:35:25Z</time></trkpt><trkpt lat="44.94766719824716" lon="11.930884448815954"><ele>-2.0</ele><time>2026-04-04T10:35:26Z</time></trkpt><trkpt lat="44.947744727475154" lon="11.93086746939416"><ele>-1.9999999999999998</ele><time>2026-04-04T10:35:28Z</time></trkpt><trkpt lat="44.94782785699837" lon="11.930858629524309"><ele>-2.0</ele><time>2026-04-04T10:35:31Z</time></trkpt><trkpt lat="44.94789162757389" lon="11.930844153091797"><ele>-2.0</ele><time>2026-04-04T10:35:33Z</time></trkpt><trkpt lat="44.94796002133679" lon="11.930832290049196"><ele>-1.9999999999999998</ele><time>2026-04-04T10:35:35Z</time></trkpt><trkpt lat="44.94803888261493" lon="11.930841657067612"><ele>-2.0</ele><time>2026-04-04T10:35:51Z</time></trkpt><trkpt lat="44.94810118371568" lon="11.930827481485418"><ele>-2.0</ele><time>2026-04-04T10:35:52.999Z</time></trkpt><trkpt lat="44.94817644006638" lon="11.930799975562937"><ele>-2.0</ele><time>2026-04-04T10:35:54.999Z</time></trkpt><trkpt lat="44.948253648804396" lon="11.93075320744847"><ele>-1.9999999999999998</ele><time>2026-04-04T10:35:56.999Z</time></trkpt><trkpt lat="44.948322689788604" lon="11.930726315380072"><ele>-2.0</ele><time>2026-04-04T10:35:58.999Z</time></trkpt><trkpt lat="44.94838978418632" lon="11.930700328484887"><ele>-2.0</ele><time>2026-04-04T10:36:00.999Z</time></trkpt><trkpt lat="44.948457577268" lon="11.930673534385123"><ele>-1.9999999999999998</ele><time>2026-04-04T10:36:02.999Z</time></trkpt><trkpt lat="44.9485200219184" lon="11.930648976820192"><ele>-2.0</ele><time>2026-04-04T10:36:04.999Z</time></trkpt><trkpt lat="44.94860221611059" lon="11.930612509991942"><ele>-2.0</ele><time>2026-04-04T10:36:07.999Z</time></trkpt><trkpt lat="44.94866810209409" lon="11.930584049118279"><ele>-2.0</ele><time>2026-04-04T10:36:09.999Z</time></trkpt><trkpt lat="44.948754133599145" lon="11.930553910393778"><ele>-2.0</ele><time>2026-04-04T10:36:11.999Z</time></trkpt><trkpt lat="44.94883858066599" lon="11.930510085882263"><ele>-2.0</ele><time>2026-04-04T10:36:13.999Z</time></trkpt><trkpt lat="44.94892900868398" lon="11.930480038350861"><ele>-2.0</ele><time>2026-04-04T10:36:15.999Z</time></trkpt><trkpt lat="44.94901802560815" lon="11.930438252225008"><ele>-2.0</ele><time>2026-04-04T10:36:17.999Z</time></trkpt><trkpt lat="44.94910769529959" lon="11.930403943742647"><ele>-2.0</ele><time>2026-04-04T10:36:19.999Z</time></trkpt><trkpt lat="44.94920047850728" lon="11.930365132883772"><ele>-2.0</ele><time>2026-04-04T10:36:21.999Z</time></trkpt><trkpt lat="44.94929068709327" lon="11.930327764311734"><ele>-2.0</ele><time>2026-04-04T10:36:23.999Z</time></trkpt><trkpt lat="44.94938083227631" lon="11.930293599256157"><ele>-2.0</ele><time>2026-04-04T10:36:25.999Z</time></trkpt><trkpt lat="44.94946590004145" lon="11.930258017769862"><ele>-2.0</ele><time>2026-04-04T10:36:27.999Z</time></trkpt><trkpt lat="44.94954701129168" lon="11.930226449315127"><ele>-1.9999999999999998</ele><time>2026-04-04T10:36:29.999Z</time></trkpt><trkpt lat="44.94962319074268" lon="11.930194882084423"><ele>-2.0</ele><time>2026-04-04T10:36:31.999Z</time></trkpt><trkpt lat="44.949705481475604" lon="11.930165443394023"><ele>-2.0</ele><time>2026-04-04T10:36:33.999Z</time></trkpt><trkpt lat="44.94979678589356" lon="11.93013032878676"><ele>-2.0</ele><time>2026-04-04T10:36:35.999Z</time></trkpt><trkpt lat="44.94988657826884" lon="11.93009127257979"><ele>-1.9999999999999998</ele><time>2026-04-04T10:36:37.999Z</time></trkpt><trkpt lat="44.949976995817096" lon="11.93006142442282"><ele>-2.0</ele><time>2026-04-04T10:36:39.999Z</time></trkpt><trkpt lat="44.95006968043405" lon="11.930023422869496"><ele>-2.0</ele><time>2026-04-04T10:36:41.999Z</time></trkpt><trkpt lat="44.95016556457456" lon="11.92998657494038"><ele>-2.0</ele><time>2026-04-04T10:36:44Z</time></trkpt><trkpt lat="44.95025999866135" lon="11.929951280601209"><ele>-2.0</ele><time>2026-04-04T10:36:46Z</time></trkpt><trkpt lat="44.950355481355196" lon="11.92991472738366"><ele>-2.0</ele><time>2026-04-04T10:36:48Z</time></trkpt><trkpt lat="44.95044356205057" lon="11.929888057316871"><ele>-2.0</ele><time>2026-04-04T10:36:50Z</time></trkpt><trkpt lat="44.95052455545214" lon="11.929852080141492"><ele>-1.9999999999999998</ele><time>2026-04-04T10:36:52Z</time></trkpt><trkpt lat="44.950600530031004" lon="11.929816571175117"><ele>-2.0</ele><time>2026-04-04T10:36:54Z</time></trkpt><trkpt lat="44.950685521334705" lon="11.929783378450912"><ele>-2.0</ele><time>2026-04-04T10:36:56Z</time></trkpt><trkpt lat="44.95076382703069" lon="11.929751714547956"><ele>-2.0</ele><time>2026-04-04T10:36:58Z</time></trkpt><trkpt lat="44.95084279554571" lon="11.929715633027433"><ele>-1.9999999999999998</ele><time>2026-04-04T10:37:00Z</time></trkpt><trkpt lat="44.95091474160642" lon="11.929686552369835"><ele>-2.0</ele><time>2026-04-04T10:37:02Z</time></trkpt><trkpt lat="44.950984009148435" lon="11.929659877824141"><ele>-1.9999999999999998</ele><time>2026-04-04T10:37:04Z</time></trkpt><trkpt lat="44.951066390096486" lon="11.929625977934275"><ele>-2.0</ele><time>2026-04-04T10:37:06Z</time></trkpt><trkpt lat="44.95113934315773" lon="11.929593991282351"><ele>-2.0</ele><time>2026-04-04T10:37:08Z</time></trkpt><trkpt lat="44.95121946714709" lon="11.929563116977599"><ele>-2.0</ele><time>2026-04-04T10:37:10Z</time></trkpt><trkpt lat="44.95128596074322" lon="11.929533115655179"><ele>-1.9999999999999998</ele><time>2026-04-04T10:37:12Z</time></trkpt><trkpt lat="44.95135993020801" lon="11.92949732689403"><ele>-2.0</ele><time>2026-04-04T10:37:14Z</time></trkpt><trkpt lat="44.95143232967506" lon="11.929470654249736"><ele>-1.9999999999999998</ele><time>2026-04-04T10:37:16Z</time></trkpt><trkpt lat="44.951518306800345" lon="11.929440308384773"><ele>-2.0</ele><time>2026-04-04T10:37:18Z</time></trkpt><trkpt lat="44.95159700076871" lon="11.929404342149725"><ele>-2.0</ele><time>2026-04-04T10:37:20Z</time></trkpt><trkpt lat="44.95167342692598" lon="11.929372242149618"><ele>-2.0</ele><time>2026-04-04T10:37:22Z</time></trkpt><trkpt lat="44.951745252661894" lon="11.929342661593312"><ele>-1.9999999999999998</ele><time>2026-04-04T10:37:24Z</time></trkpt><trkpt lat="44.95182735222056" lon="11.929309016376594"><ele>-2.0</ele><time>2026-04-04T10:37:26Z</time></trkpt><trkpt lat="44.951902539858445" lon="11.92927751530347"><ele>-2.1666666666666665</ele><time>2026-04-04T10:37:28Z</time></trkpt><trkpt lat="44.951968991974326" lon="11.929256781295827"><ele>-2.333333333333333</ele><time>2026-04-04T10:37:30Z</time></trkpt><trkpt lat="44.95205258723406" lon="11.929221562222823"><ele>-2.5</ele><time>2026-04-04T10:37:32Z</time></trkpt><trkpt lat="44.952140448949734" lon="11.9291851521134"><ele>-2.6666666666666665</ele><time>2026-04-04T10:37:34Z</time></trkpt><trkpt lat="44.952219075243065" lon="11.929154297812445"><ele>-2.8333333333333335</ele><time>2026-04-04T10:37:36Z</time></trkpt><trkpt lat="44.952299309779896" lon="11.929123297958116"><ele>-3.0</ele><time>2026-04-04T10:37:38Z</time></trkpt><trkpt lat="44.952382842994645" lon="11.929087418880192"><ele>-3.0</ele><time>2026-04-04T10:37:40Z</time></trkpt><trkpt lat="44.95246746381271" lon="11.929054828679817"><ele>-3.0</ele><time>2026-04-04T10:37:42Z</time></trkpt><trkpt lat="44.95255257460069" lon="11.929014627715596"><ele>-3.0</ele><time>2026-04-04T10:37:44Z</time></trkpt><trkpt lat="44.95263554525577" lon="11.928979863929237"><ele>-3.0</ele><time>2026-04-04T10:37:46Z</time></trkpt><trkpt lat="44.95271529218131" lon="11.928950941674916"><ele>-3.0</ele><time>2026-04-04T10:37:48Z</time></trkpt><trkpt lat="44.952794436602034" lon="11.928920664433265"><ele>-3.0</ele><time>2026-04-04T10:37:50Z</time></trkpt><trkpt lat="44.952883839321835" lon="11.928889808346343"><ele>-2.8333333333333335</ele><time>2026-04-04T10:37:52Z</time></trkpt><trkpt lat="44.95296917097819" lon="11.92887133518694"><ele>-2.6666666666666665</ele><time>2026-04-04T10:37:54Z</time></trkpt><trkpt lat="44.95304609816488" lon="11.928841242672314"><ele>-2.5</ele><time>2026-04-04T10:37:56Z</time></trkpt><trkpt lat="44.9531184328606" lon="11.928813225869494"><ele>-2.333333333333333</ele><time>2026-04-04T10:37:58Z</time></trkpt><trkpt lat="44.95318794768128" lon="11.928780880546125"><ele>-2.1666666666666665</ele><time>2026-04-04T10:38:00Z</time></trkpt><trkpt lat="44.95327006566117" lon="11.928758450039926"><ele>-2.0</ele><time>2026-04-04T10:38:02Z</time></trkpt><trkpt lat="44.95335998468172" lon="11.928720727630479"><ele>-2.1666666666666665</ele><time>2026-04-04T10:38:04Z</time></trkpt><trkpt lat="44.9534508348473" lon="11.92868695684187"><ele>-2.333333333333333</ele><time>2026-04-04T10:38:06Z</time></trkpt><trkpt lat="44.95353992953234" lon="11.928649270824682"><ele>-2.5</ele><time>2026-04-04T10:38:08Z</time></trkpt><trkpt lat="44.95362978262035" lon="11.928620209425409"><ele>-2.6666666666666665</ele><time>2026-04-04T10:38:10Z</time></trkpt><trkpt lat="44.95371055883593" lon="11.928579792562823"><ele>-2.8333333333333335</ele><time>2026-04-04T10:38:11.999Z</time></trkpt><trkpt lat="44.9537897649521" lon="11.928550132378962"><ele>-3.0</ele><time>2026-04-04T10:38:13.999Z</time></trkpt><trkpt lat="44.95387405769223" lon="11.92851371435667"><ele>-3.0</ele><time>2026-04-04T10:38:15.999Z</time></trkpt><trkpt lat="44.953961805694604" lon="11.928480931417774"><ele>-3.0</ele><time>2026-04-04T10:38:17.999Z</time></trkpt><trkpt lat="44.954042467723646" lon="11.928448643979062"><ele>-3.0</ele><time>2026-04-04T10:38:19.999Z</time></trkpt><trkpt lat="44.954121515534794" lon="11.928410560501607"><ele>-3.0</ele><time>2026-04-04T10:38:21.999Z</time></trkpt><trkpt lat="44.95419020530503" lon="11.928387961385882"><ele>-3.0</ele><time>2026-04-04T10:38:23.999Z</time></trkpt><trkpt lat="44.954266000189186" lon="11.928353285178847"><ele>-3.0</ele><time>2026-04-04T10:38:25.999Z</time></trkpt><trkpt lat="44.95434945205634" lon="11.928316769543095"><ele>-3.0</ele><time>2026-04-04T10:38:27.999Z</time></trkpt><trkpt lat="44.954430875969265" lon="11.928277500492426"><ele>-3.0</ele><time>2026-04-04T10:38:29.999Z</time></trkpt><trkpt lat="44.95450354551146" lon="11.92824112621082"><ele>-3.0</ele><time>2026-04-04T10:38:31.999Z</time></trkpt><trkpt lat="44.95456993558342" lon="11.928221249260602"><ele>-3.0</ele><time>2026-04-04T10:38:33.999Z</time></trkpt><trkpt lat="44.9546324389741" lon="11.928194322394525"><ele>-3.0</ele><time>2026-04-04T10:38:35.999Z</time></trkpt><trkpt lat="44.95472056573339" lon="11.928164727366465"><ele>-3.0</ele><time>2026-04-04T10:38:38.999Z</time></trkpt><trkpt lat="44.95479492342405" lon="11.928132239819616"><ele>-3.0</ele><time>2026-04-04T10:38:40.999Z</time></trkpt><trkpt lat="44.95488136722299" lon="11.928097644778312"><ele>-3.0</ele><time>2026-04-04T10:38:42.999Z</time></trkpt><trkpt lat="44.954963515661774" lon="11.928068216499398"><ele>-3.0</ele><time>2026-04-04T10:38:44.999Z</time></trkpt><trkpt lat="44.955040384385654" lon="11.928034909137768"><ele>-3.0</ele><time>2026-04-04T10:38:46.999Z</time></trkpt><trkpt lat="44.95511584487567" lon="11.928003829005057"><ele>-3.0</ele><time>2026-04-04T10:38:48.999Z</time></trkpt><trkpt lat="44.95518796635886" lon="11.92797499675049"><ele>-3.0</ele><time>2026-04-04T10:38:51Z</time></trkpt><trkpt lat="44.95526934581636" lon="11.92792176820888"><ele>-2.8333333333333335</ele><time>2026-04-04T10:38:54Z</time></trkpt><trkpt lat="44.95531528354884" lon="11.927833306024384"><ele>-2.6666666666666665</ele><time>2026-04-04T10:38:57Z</time></trkpt><trkpt lat="44.95529138053154" lon="11.927735968611053"><ele>-2.5</ele><time>2026-04-04T10:39:00Z</time></trkpt><trkpt lat="44.955274975422945" lon="11.927625664035533"><ele>-2.333333333333333</ele><time>2026-04-04T10:39:02Z</time></trkpt><trkpt lat="44.95526598248855" lon="11.927518222264643"><ele>-2.1666666666666665</ele><time>2026-04-04T10:39:04Z</time></trkpt><trkpt lat="44.95524845935451" lon="11.92741491543918"><ele>-2.0</ele><time>2026-04-04T10:39:06Z</time></trkpt><trkpt lat="44.95523353076524" lon="11.927292491818118"><ele>-1.8</ele><time>2026-04-04T10:39:08Z</time></trkpt><trkpt lat="44.955215696257966" lon="11.927160379421545"><ele>-1.6</ele><time>2026-04-04T10:39:10Z</time></trkpt><trkpt lat="44.95519875261803" lon="11.927039376021028"><ele>-1.4000000000000001</ele><time>2026-04-04T10:39:12Z</time></trkpt><trkpt lat="44.95518197748756" lon="11.926912965101028"><ele>-1.2000000000000002</ele><time>2026-04-04T10:39:14Z</time></trkpt><trkpt lat="44.955165123478" lon="11.926777586924093"><ele>-1.0</ele><time>2026-04-04T10:39:16Z</time></trkpt><trkpt lat="44.95514748567424" lon="11.926639673040231"><ele>-1.3333333333333333</ele><time>2026-04-04T10:39:18Z</time></trkpt><trkpt lat="44.955129785423445" lon="11.926506191678476"><ele>-1.6666666666666665</ele><time>2026-04-04T10:39:20Z</time></trkpt><trkpt lat="44.95511396923108" lon="11.926383693551417"><ele>-2.0</ele><time>2026-04-04T10:39:22Z</time></trkpt><trkpt lat="44.95510296734239" lon="11.926270810723201"><ele>-2.3333333333333335</ele><time>2026-04-04T10:39:24Z</time></trkpt><trkpt lat="44.95508860061451" lon="11.926165186189348"><ele>-2.6666666666666665</ele><time>2026-04-04T10:39:26Z</time></trkpt><trkpt lat="44.95507695455786" lon="11.92606026123066"><ele>-3.0</ele><time>2026-04-04T10:39:28Z</time></trkpt><trkpt lat="44.95506349598343" lon="11.925934548378551"><ele>-2.6666666666666665</ele><time>2026-04-04T10:39:31Z</time></trkpt><trkpt lat="44.95505238620439" lon="11.925830550083313"><ele>-2.3333333333333335</ele><time>2026-04-04T10:39:33Z</time></trkpt><trkpt lat="44.955039938450355" lon="11.925705914610768"><ele>-2.0</ele><time>2026-04-04T10:39:35Z</time></trkpt><trkpt lat="44.955029636988286" lon="11.925595318431231"><ele>-1.6666666666666665</ele><time>2026-04-04T10:39:37Z</time></trkpt><trkpt lat="44.95501624909173" lon="11.925485468363796"><ele>-1.3333333333333333</ele><time>2026-04-04T10:39:39Z</time></trkpt><trkpt lat="44.955004440140385" lon="11.925389562672331"><ele>-1.0</ele><time>2026-04-04T10:39:41Z</time></trkpt><trkpt lat="44.954990789036074" lon="11.92528271987017"><ele>-0.9999999999999999</ele><time>2026-04-04T10:39:43Z</time></trkpt><trkpt lat="44.954979145208625" lon="11.92516318433156"><ele>-1.0</ele><time>2026-04-04T10:39:45Z</time></trkpt><trkpt lat="44.95496445801205" lon="11.925048644230255"><ele>-1.0</ele><time>2026-04-04T10:39:47Z</time></trkpt><trkpt lat="44.95494891235451" lon="11.924939968830785"><ele>-1.0</ele><time>2026-04-04T10:39:49Z</time></trkpt><trkpt lat="44.9549400623511" lon="11.924844929363767"><ele>-0.9999999999999999</ele><time>2026-04-04T10:39:51Z</time></trkpt><trkpt lat="44.954926664176895" lon="11.924740067993541"><ele>-1.0</ele><time>2026-04-04T10:39:53Z</time></trkpt><trkpt lat="44.954914612133656" lon="11.924618170887472"><ele>-1.1666666666666665</ele><time>2026-04-04T10:39:55Z</time></trkpt><trkpt lat="44.95489875680305" lon="11.924508474507808"><ele>-1.3333333333333333</ele><time>2026-04-04T10:39:57Z</time></trkpt><trkpt lat="44.954885347657665" lon="11.924380175445876"><ele>-1.5</ele><time>2026-04-04T10:39:59Z</time></trkpt><trkpt lat="44.95487263360728" lon="11.924272808091441"><ele>-1.6666666666666665</ele><time>2026-04-04T10:40:01Z</time></trkpt><trkpt lat="44.954856449355646" lon="11.924172890270274"><ele>-1.8333333333333333</ele><time>2026-04-04T10:40:03Z</time></trkpt><trkpt lat="44.95484589664059" lon="11.924061189167546"><ele>-2.0</ele><time>2026-04-04T10:40:05Z</time></trkpt><trkpt lat="44.954831047177336" lon="11.923938074880855"><ele>-1.9999999999999998</ele><time>2026-04-04T10:40:07Z</time></trkpt><trkpt lat="44.95481577027123" lon="11.923803196259188"><ele>-2.0</ele><time>2026-04-04T10:40:09Z</time></trkpt><trkpt lat="44.95479511534211" lon="11.923674148527587"><ele>-2.0</ele><time>2026-04-04T10:40:11Z</time></trkpt><trkpt lat="44.954783596684095" lon="11.923551355963145"><ele>-2.0</ele><time>2026-04-04T10:40:13Z</time></trkpt><trkpt lat="44.954765355133894" lon="11.923437701287806"><ele>-1.9999999999999998</ele><time>2026-04-04T10:40:15Z</time></trkpt><trkpt lat="44.95474922592921" lon="11.923314521776774"><ele>-2.0</ele><time>2026-04-04T10:40:17Z</time></trkpt><trkpt lat="44.95472971388254" lon="11.92319699870362"><ele>-1.857142857142857</ele><time>2026-04-04T10:40:19Z</time></trkpt><trkpt lat="44.954723839075875" lon="11.923095978807721"><ele>-1.714285714285714</ele><time>2026-04-04T10:40:21Z</time></trkpt><trkpt lat="44.95470933387336" lon="11.922999343396663"><ele>-1.5714285714285714</ele><time>2026-04-04T10:40:23Z</time></trkpt><trkpt lat="44.95469497936746" lon="11.922882579754884"><ele>-1.4285714285714284</ele><time>2026-04-04T10:40:25Z</time></trkpt><trkpt lat="44.95467994352044" lon="11.92277365612489"><ele>-1.2857142857142856</ele><time>2026-04-04T10:40:27Z</time></trkpt><trkpt lat="44.95466529716254" lon="11.922677446775905"><ele>-1.1428571428571428</ele><time>2026-04-04T10:40:29Z</time></trkpt><trkpt lat="44.954655637256906" lon="11.92258734078616"><ele>-1.0</ele><time>2026-04-04T10:40:31Z</time></trkpt><trkpt lat="44.95464409660391" lon="11.92248241677175"><ele>-1.1666666666666665</ele><time>2026-04-04T10:40:34Z</time></trkpt><trkpt lat="44.95463949879065" lon="11.922368564652462"><ele>-1.3333333333333333</ele><time>2026-04-04T10:40:38Z</time></trkpt><trkpt lat="44.95472272694482" lon="11.922323034224528"><ele>-1.5</ele><time>2026-04-04T10:40:41Z</time></trkpt><trkpt lat="44.95480329508249" lon="11.922306313709777"><ele>-1.6666666666666665</ele><time>2026-04-04T10:40:43.999Z</time></trkpt><trkpt lat="44.95487771649335" lon="11.922280854487486"><ele>-1.8333333333333333</ele><time>2026-04-04T10:40:45.999Z</time></trkpt><trkpt lat="44.95496544573945" lon="11.92224613131345"><ele>-2.0</ele><time>2026-04-04T10:40:47.999Z</time></trkpt><trkpt lat="44.955056655098254" lon="11.922204152369847"><ele>-1.9999999999999998</ele><time>2026-04-04T10:40:49.999Z</time></trkpt><trkpt lat="44.955136316206755" lon="11.922166698679298"><ele>-2.0</ele><time>2026-04-04T10:40:51.999Z</time></trkpt><trkpt lat="44.955212122431774" lon="11.922132202234216"><ele>-2.0</ele><time>2026-04-04T10:40:53.999Z</time></trkpt><trkpt lat="44.95530046190335" lon="11.922087249242725"><ele>-2.0</ele><time>2026-04-04T10:40:56Z</time></trkpt><trkpt lat="44.9553835878701" lon="11.922047309289836"><ele>-1.9999999999999998</ele><time>2026-04-04T10:40:58Z</time></trkpt><trkpt lat="44.955460769875295" lon="11.922016668858355"><ele>-2.0</ele><time>2026-04-04T10:41:00Z</time></trkpt><trkpt lat="44.95554284955316" lon="11.921977517827663"><ele>-1.9999999999999998</ele><time>2026-04-04T10:41:02Z</time></trkpt><trkpt lat="44.95562505365823" lon="11.921939005470595"><ele>-2.0</ele><time>2026-04-04T10:41:04Z</time></trkpt><trkpt lat="44.95570471272798" lon="11.921905117847556"><ele>-2.0</ele><time>2026-04-04T10:41:06Z</time></trkpt><trkpt lat="44.95578330324377" lon="11.921875224896134"><ele>-2.0</ele><time>2026-04-04T10:41:08Z</time></trkpt><trkpt lat="44.9558578855508" lon="11.921832717984024"><ele>-1.9999999999999998</ele><time>2026-04-04T10:41:10Z</time></trkpt><trkpt lat="44.95593470587348" lon="11.921799139919917"><ele>-2.0</ele><time>2026-04-04T10:41:12Z</time></trkpt><trkpt lat="44.95600783966206" lon="11.921764535954674"><ele>-1.8333333333333333</ele><time>2026-04-04T10:41:14Z</time></trkpt><trkpt lat="44.956084711681434" lon="11.921733688762089"><ele>-1.6666666666666665</ele><time>2026-04-04T10:41:16Z</time></trkpt><trkpt lat="44.956158423643636" lon="11.921694164194784"><ele>-1.5</ele><time>2026-04-04T10:41:18Z</time></trkpt><trkpt lat="44.95624991440319" lon="11.921658490539041"><ele>-1.3333333333333333</ele><time>2026-04-04T10:41:20Z</time></trkpt><trkpt lat="44.95633855819829" lon="11.921615321773691"><ele>-1.1666666666666665</ele><time>2026-04-04T10:41:22Z</time></trkpt><trkpt lat="44.95642442107381" lon="11.921574831797821"><ele>-1.0</ele><time>2026-04-04T10:41:24Z</time></trkpt><trkpt lat="44.956508103385644" lon="11.921535838228367"><ele>-0.9999999999999999</ele><time>2026-04-04T10:41:26Z</time></trkpt><trkpt lat="44.95658640889835" lon="11.921498851603314"><ele>-1.0</ele><time>2026-04-04T10:41:28Z</time></trkpt><trkpt lat="44.95666344965903" lon="11.921467588935144"><ele>-1.0</ele><time>2026-04-04T10:41:30Z</time></trkpt><trkpt lat="44.956739832860066" lon="11.921431262074782"><ele>-1.0</ele><time>2026-04-04T10:41:32Z</time></trkpt><trkpt lat="44.956828613016825" lon="11.921389672576893"><ele>-0.9999999999999999</ele><time>2026-04-04T10:41:34Z</time></trkpt><trkpt lat="44.95691141419248" lon="11.921355144869306"><ele>-1.0</ele><time>2026-04-04T10:41:36Z</time></trkpt><trkpt lat="44.9569896685213" lon="11.921317342956812"><ele>-0.9999999999999999</ele><time>2026-04-04T10:41:38Z</time></trkpt><trkpt lat="44.9570669458481" lon="11.921285661038024"><ele>-1.0</ele><time>2026-04-04T10:41:40Z</time></trkpt><trkpt lat="44.95715119203399" lon="11.921243359342624"><ele>-1.0</ele><time>2026-04-04T10:41:42Z</time></trkpt><trkpt lat="44.95724482904058" lon="11.921200449273147"><ele>-1.0</ele><time>2026-04-04T10:41:44Z</time></trkpt><trkpt lat="44.95732888653462" lon="11.921161466918011"><ele>-0.9999999999999999</ele><time>2026-04-04T10:41:46Z</time></trkpt><trkpt lat="44.95740893101265" lon="11.921128139232382"><ele>-1.0</ele><time>2026-04-04T10:41:48Z</time></trkpt><trkpt lat="44.957487689829364" lon="11.921091462729168"><ele>-1.1666666666666665</ele><time>2026-04-04T10:41:50Z</time></trkpt><trkpt lat="44.95757326424087" lon="11.921052552745143"><ele>-1.3333333333333333</ele><time>2026-04-04T10:41:52Z</time></trkpt><trkpt lat="44.957660010483394" lon="11.921020424401796"><ele>-1.5</ele><time>2026-04-04T10:41:54Z</time></trkpt><trkpt lat="44.95773703767514" lon="11.92097817493933"><ele>-1.6666666666666665</ele><time>2026-04-04T10:41:56Z</time></trkpt><trkpt lat="44.957822446162886" lon="11.920941101148522"><ele>-1.8333333333333333</ele><time>2026-04-04T10:41:58Z</time></trkpt><trkpt lat="44.95790536907729" lon="11.920905502692099"><ele>-2.0</ele><time>2026-04-04T10:42:00Z</time></trkpt><trkpt lat="44.95797871088083" lon="11.920871713410332"><ele>-1.9999999999999998</ele><time>2026-04-04T10:42:02Z</time></trkpt><trkpt lat="44.95804828171637" lon="11.920838647357675"><ele>-2.0</ele><time>2026-04-04T10:42:04Z</time></trkpt><trkpt lat="44.95811543276325" lon="11.920799065941878"><ele>-2.0</ele><time>2026-04-04T10:42:06Z</time></trkpt><trkpt lat="44.95819495594272" lon="11.920762690694806"><ele>-2.0</ele><time>2026-04-04T10:42:08Z</time></trkpt><trkpt lat="44.95827906422775" lon="11.920725062112565"><ele>-1.9999999999999998</ele><time>2026-04-04T10:42:10Z</time></trkpt><trkpt lat="44.95835510429955" lon="11.920689223909857"><ele>-2.0</ele><time>2026-04-04T10:42:12Z</time></trkpt><trkpt lat="44.95842857708971" lon="11.920657819471748"><ele>-1.8333333333333333</ele><time>2026-04-04T10:42:14Z</time></trkpt><trkpt lat="44.95849834155816" lon="11.920622651671257"><ele>-1.6666666666666665</ele><time>2026-04-04T10:42:16Z</time></trkpt><trkpt lat="44.95857691871077" lon="11.920583037338496"><ele>-1.5</ele><time>2026-04-04T10:42:18Z</time></trkpt><trkpt lat="44.95866658504527" lon="11.920541859764564"><ele>-1.3333333333333333</ele><time>2026-04-04T10:42:20Z</time></trkpt><trkpt lat="44.95875643030942" lon="11.92050298011453"><ele>-1.1666666666666665</ele><time>2026-04-04T10:42:22Z</time></trkpt><trkpt lat="44.95884748281596" lon="11.920458704206572"><ele>-1.0</ele><time>2026-04-04T10:42:24Z</time></trkpt><trkpt lat="44.95893391199167" lon="11.920418446258195"><ele>-0.9999999999999999</ele><time>2026-04-04T10:42:26Z</time></trkpt><trkpt lat="44.95901738501782" lon="11.920387743577633"><ele>-1.0</ele><time>2026-04-04T10:42:27.999Z</time></trkpt><trkpt lat="44.95909448076954" lon="11.92034950570516"><ele>-1.0</ele><time>2026-04-04T10:42:29.999Z</time></trkpt><trkpt lat="44.95916080559461" lon="11.920309179530596"><ele>-1.0</ele><time>2026-04-04T10:42:31.999Z</time></trkpt><trkpt lat="44.959219029596845" lon="11.920272660908974"><ele>-0.9999999999999999</ele><time>2026-04-04T10:42:35.999Z</time></trkpt><trkpt lat="44.95929257885001" lon="11.920302839895092"><ele>-1.0</ele><time>2026-04-04T10:45:41Z</time></trkpt><trkpt lat="44.959370987432365" lon="11.92026722470426"><ele>-1.0</ele><time>2026-04-04T10:45:45Z</time></trkpt><trkpt lat="44.95944149293626" lon="11.920231008322494"><ele>-0.9999999999999999</ele><time>2026-04-04T10:45:47Z</time></trkpt><trkpt lat="44.95952393036998" lon="11.920193452807204"><ele>-1.0</ele><time>2026-04-04T10:45:49Z</time></trkpt><trkpt lat="44.959597599605196" lon="11.920151569345272"><ele>-1.0</ele><time>2026-04-04T10:45:51Z</time></trkpt><trkpt lat="44.95966413631233" lon="11.920110636281237"><ele>-0.9999999999999999</ele><time>2026-04-04T10:45:53Z</time></trkpt><trkpt lat="44.959724094855744" lon="11.920071783589455"><ele>-1.0</ele><time>2026-04-04T10:45:55Z</time></trkpt><trkpt lat="44.959788288967275" lon="11.920040211512868"><ele>-1.0</ele><time>2026-04-04T10:45:57Z</time></trkpt><trkpt lat="44.95987375969864" lon="11.920000608039635"><ele>-0.9999999999999999</ele><time>2026-04-04T10:45:59Z</time></trkpt><trkpt lat="44.95996251169429" lon="11.919956013539363"><ele>-1.0</ele><time>2026-04-04T10:46:01Z</time></trkpt><trkpt lat="44.960045445502026" lon="11.919924671155842"><ele>-1.0</ele><time>2026-04-04T10:46:03Z</time></trkpt><trkpt lat="44.96012433494662" lon="11.919891623989594"><ele>-1.0</ele><time>2026-04-04T10:46:05Z</time></trkpt><trkpt lat="44.960197673641886" lon="11.919854920170936"><ele>-0.9999999999999999</ele><time>2026-04-04T10:46:07Z</time></trkpt><trkpt lat="44.960271431686515" lon="11.919827806656672"><ele>-1.0</ele><time>2026-04-04T10:46:09Z</time></trkpt><trkpt lat="44.96034202654834" lon="11.919794213833603"><ele>-0.8333333333333333</ele><time>2026-04-04T10:46:11Z</time></trkpt><trkpt lat="44.96042195164125" lon="11.919753525165488"><ele>-0.6666666666666666</ele><time>2026-04-04T10:46:13Z</time></trkpt><trkpt lat="44.96050736115724" lon="11.919708778624022"><ele>-0.5</ele><time>2026-04-04T10:46:15Z</time></trkpt><trkpt lat="44.96058865714168" lon="11.919673221352829"><ele>-0.3333333333333333</ele><time>2026-04-04T10:46:17Z</time></trkpt><trkpt lat="44.96066253171552" lon="11.919633278701868"><ele>-0.16666666666666666</ele><time>2026-04-04T10:46:19Z</time></trkpt><trkpt lat="44.96073631822533" lon="11.91959559018833"><ele>0.0</ele><time>2026-04-04T10:46:21Z</time></trkpt><trkpt lat="44.960802731653274" lon="11.919566877204137"><ele>-0.3333333333333333</ele><time>2026-04-04T10:46:23Z</time></trkpt><trkpt lat="44.96087452159846" lon="11.919526622979152"><ele>-0.6666666666666666</ele><time>2026-04-04T10:46:25Z</time></trkpt><trkpt lat="44.960955837854975" lon="11.919485605196371"><ele>-1.0</ele><time>2026-04-04T10:46:27Z</time></trkpt><trkpt lat="44.96103862070671" lon="11.91945294875362"><ele>-1.3333333333333333</ele><time>2026-04-04T10:46:29Z</time></trkpt><trkpt lat="44.96111120512655" lon="11.91939371514434"><ele>-1.6666666666666665</ele><time>2026-04-04T10:46:31Z</time></trkpt><trkpt lat="44.96118478285759" lon="11.919365208695359"><ele>-2.0</ele><time>2026-04-04T10:46:33Z</time></trkpt><trkpt lat="44.96125834610947" lon="11.91932993283044"><ele>-2.0</ele><time>2026-04-04T10:46:35Z</time></trkpt><trkpt lat="44.961340466051155" lon="11.919292747569573"><ele>-2.0</ele><time>2026-04-04T10:46:37Z</time></trkpt><trkpt lat="44.96143013711737" lon="11.919246694566585"><ele>-2.0</ele><time>2026-04-04T10:46:39Z</time></trkpt><trkpt lat="44.961517948864426" lon="11.919205666146453"><ele>-2.0</ele><time>2026-04-04T10:46:41Z</time></trkpt><trkpt lat="44.9616065199679" lon="11.919167022935891"><ele>-2.0</ele><time>2026-04-04T10:46:43Z</time></trkpt><trkpt lat="44.961688917591296" lon="11.919125385915617"><ele>-1.8333333333333333</ele><time>2026-04-04T10:46:45Z</time></trkpt><trkpt lat="44.96176972791229" lon="11.91909019655873"><ele>-1.6666666666666665</ele><time>2026-04-04T10:46:46.999Z</time></trkpt><trkpt lat="44.961853549380805" lon="11.919070537393837"><ele>-1.5</ele><time>2026-04-04T10:46:48.999Z</time></trkpt><trkpt lat="44.96193968722515" lon="11.919030525929681"><ele>-1.3333333333333333</ele><time>2026-04-04T10:46:50.999Z</time></trkpt><trkpt lat="44.96201014668608" lon="11.918976779649237"><ele>-1.1666666666666665</ele><time>2026-04-04T10:46:52.999Z</time></trkpt><trkpt lat="44.96208675606642" lon="11.918944089292266"><ele>-1.0</ele><time>2026-04-04T10:46:54.999Z</time></trkpt><trkpt lat="44.9621644177699" lon="11.918909485322594"><ele>-0.9999999999999999</ele><time>2026-04-04T10:46:56.999Z</time></trkpt><trkpt lat="44.962234600304605" lon="11.91887976723386"><ele>-1.0</ele><time>2026-04-04T10:46:58.999Z</time></trkpt><trkpt lat="44.96230205589799" lon="11.918841800451148"><ele>-1.0</ele><time>2026-04-04T10:47:00.999Z</time></trkpt><trkpt lat="44.962387286888124" lon="11.918805352002748"><ele>-1.0</ele><time>2026-04-04T10:47:02.999Z</time></trkpt><trkpt lat="44.96247019420214" lon="11.91876778985892"><ele>-0.9999999999999999</ele><time>2026-04-04T10:47:04.999Z</time></trkpt><trkpt lat="44.96254551566106" lon="11.918730794058957"><ele>-1.0</ele><time>2026-04-04T10:47:06.999Z</time></trkpt><trkpt lat="44.96260581115362" lon="11.918701958481604"><ele>-0.9999999999999999</ele><time>2026-04-04T10:47:08.999Z</time></trkpt><trkpt lat="44.96267943529274" lon="11.918670120905457"><ele>-1.0</ele><time>2026-04-04T10:47:10.999Z</time></trkpt><trkpt lat="44.962763865447776" lon="11.918631600676475"><ele>-1.0</ele><time>2026-04-04T10:47:12.999Z</time></trkpt><trkpt lat="44.96283813990248" lon="11.918588917586796"><ele>-1.0</ele><time>2026-04-04T10:47:15Z</time></trkpt><trkpt lat="44.96290976622282" lon="11.918562971305482"><ele>-0.9999999999999999</ele><time>2026-04-04T10:47:17Z</time></trkpt><trkpt lat="44.962989837372255" lon="11.918526779340636"><ele>-1.0</ele><time>2026-04-04T10:47:19Z</time></trkpt><trkpt lat="44.963075749468196" lon="11.918488324254675"><ele>-0.9999999999999999</ele><time>2026-04-04T10:47:21Z</time></trkpt><trkpt lat="44.963161439087315" lon="11.918448872077919"><ele>-1.0</ele><time>2026-04-04T10:47:23Z</time></trkpt><trkpt lat="44.96324755783527" lon="11.91840998288292"><ele>-1.0</ele><time>2026-04-04T10:47:25Z</time></trkpt><trkpt lat="44.96333526496485" lon="11.918374559542388"><ele>-1.0</ele><time>2026-04-04T10:47:27Z</time></trkpt><trkpt lat="44.96342095757916" lon="11.918331618863448"><ele>-0.9999999999999999</ele><time>2026-04-04T10:47:29Z</time></trkpt><trkpt lat="44.96350324525172" lon="11.918294588068404"><ele>-1.0</ele><time>2026-04-04T10:47:31Z</time></trkpt><trkpt lat="44.963586410045" lon="11.918255639777502"><ele>-0.6666666666666666</ele><time>2026-04-04T10:47:33Z</time></trkpt><trkpt lat="44.963662786443216" lon="11.918220669328443"><ele>-0.3333333333333333</ele><time>2026-04-04T10:47:35Z</time></trkpt><trkpt lat="44.96373714363739" lon="11.91818629907733"><ele>0.0</ele><time>2026-04-04T10:47:37Z</time></trkpt><trkpt lat="44.9638226377659" lon="11.918146866270808"><ele>0.3333333333333333</ele><time>2026-04-04T10:47:39Z</time></trkpt><trkpt lat="44.96390445707045" lon="11.918109481052214"><ele>0.6666666666666666</ele><time>2026-04-04T10:47:41Z</time></trkpt><trkpt lat="44.9639774962272" lon="11.91807584697978"><ele>1.0</ele><time>2026-04-04T10:47:43Z</time></trkpt><trkpt lat="44.964056018014624" lon="11.918039123317138"><ele>1.0</ele><time>2026-04-04T10:47:45Z</time></trkpt><trkpt lat="44.96412504262711" lon="11.918005868346906"><ele>0.9999999999999999</ele><time>2026-04-04T10:47:47Z</time></trkpt><trkpt lat="44.964190541616894" lon="11.917973560261203"><ele>1.0</ele><time>2026-04-04T10:47:49Z</time></trkpt><trkpt lat="44.96427047420842" lon="11.917938350845578"><ele>1.0</ele><time>2026-04-04T10:47:51Z</time></trkpt><trkpt lat="44.96434000331858" lon="11.917908759466252"><ele>0.9999999999999999</ele><time>2026-04-04T10:47:53Z</time></trkpt><trkpt lat="44.96440863110315" lon="11.917895553796027"><ele>1.0</ele><time>2026-04-04T10:47:55Z</time></trkpt><trkpt lat="44.964472650357685" lon="11.917857033116645"><ele>1.0</ele><time>2026-04-04T10:47:57Z</time></trkpt><trkpt lat="44.9645631718196" lon="11.917831657811396"><ele>0.9999999999999999</ele><time>2026-04-04T10:48:00Z</time></trkpt><trkpt lat="44.964625807162854" lon="11.917788187659612"><ele>1.0</ele><time>2026-04-04T10:48:02Z</time></trkpt><trkpt lat="44.96469057222144" lon="11.917776835264386"><ele>1.0</ele><time>2026-04-04T10:48:05Z</time></trkpt><trkpt lat="44.96470018459187" lon="11.917623121929342"><ele>1.0</ele><time>2026-04-04T10:48:07Z</time></trkpt><trkpt lat="44.96467810849025" lon="11.917517634847144"><ele>0.9999999999999999</ele><time>2026-04-04T10:48:09Z</time></trkpt><trkpt lat="44.96464439543108" lon="11.91739825834429"><ele>1.0</ele><time>2026-04-04T10:48:11Z</time></trkpt><trkpt lat="44.96461630379842" lon="11.91727643577738"><ele>0.8</ele><time>2026-04-04T10:48:13Z</time></trkpt><trkpt lat="44.96458588378068" lon="11.917148028265782"><ele>0.6000000000000001</ele><time>2026-04-04T10:48:15Z</time></trkpt><trkpt lat="44.964552297930325" lon="11.917024055330492"><ele>0.4</ele><time>2026-04-04T10:48:17Z</time></trkpt><trkpt lat="44.96451790850488" lon="11.916897508909784"><ele>0.2</ele><time>2026-04-04T10:48:19Z</time></trkpt><trkpt lat="44.96448942985038" lon="11.916766445986058"><ele>0.0</ele><time>2026-04-04T10:48:21Z</time></trkpt><trkpt lat="44.964458876172614" lon="11.916640241105815"><ele>-0.2</ele><time>2026-04-04T10:48:23Z</time></trkpt><trkpt lat="44.96442797841363" lon="11.916513906174037"><ele>-0.4</ele><time>2026-04-04T10:48:25Z</time></trkpt><trkpt lat="44.96439200813633" lon="11.916387175536682"><ele>-0.6000000000000001</ele><time>2026-04-04T10:48:27Z</time></trkpt><trkpt lat="44.96436410319439" lon="11.916264275740371"><ele>-0.8</ele><time>2026-04-04T10:48:29Z</time></trkpt><trkpt lat="44.96433430904897" lon="11.916136501805886"><ele>-1.0</ele><time>2026-04-04T10:48:31Z</time></trkpt><trkpt lat="44.96430593818971" lon="11.916001868828065"><ele>-1.0</ele><time>2026-04-04T10:48:33Z</time></trkpt><trkpt lat="44.96427340049868" lon="11.915870402846233"><ele>-1.0</ele><time>2026-04-04T10:48:35Z</time></trkpt><trkpt lat="44.96424568712177" lon="11.915739493612676"><ele>-1.0</ele><time>2026-04-04T10:48:37Z</time></trkpt><trkpt lat="44.96421941191771" lon="11.91560840979645"><ele>-1.0</ele><time>2026-04-04T10:48:39Z</time></trkpt><trkpt lat="44.96419275210359" lon="11.91547740327863"><ele>-1.0</ele><time>2026-04-04T10:48:41Z</time></trkpt><trkpt lat="44.96416516190345" lon="11.915347177072613"><ele>-1.0</ele><time>2026-04-04T10:48:42.999Z</time></trkpt><trkpt lat="44.96413739364704" lon="11.915219247419168"><ele>-1.0</ele><time>2026-04-04T10:48:44.999Z</time></trkpt><trkpt lat="44.9641076537036" lon="11.915092166691279"><ele>-1.0</ele><time>2026-04-04T10:48:46.999Z</time></trkpt><trkpt lat="44.96407973182768" lon="11.91496256229156"><ele>-1.0</ele><time>2026-04-04T10:48:48.999Z</time></trkpt><trkpt lat="44.964052507933076" lon="11.914833160468724"><ele>-1.0</ele><time>2026-04-04T10:48:50.999Z</time></trkpt><trkpt lat="44.96402058530525" lon="11.914709611822932"><ele>-0.9999999999999999</ele><time>2026-04-04T10:48:52.999Z</time></trkpt><trkpt lat="44.963991427110244" lon="11.914581078431013"><ele>-1.0</ele><time>2026-04-04T10:48:54.999Z</time></trkpt><trkpt lat="44.963966133876056" lon="11.914457441226077"><ele>-1.0</ele><time>2026-04-04T10:48:56.999Z</time></trkpt><trkpt lat="44.96393931868233" lon="11.914336105040636"><ele>-1.0</ele><time>2026-04-04T10:48:58.999Z</time></trkpt><trkpt lat="44.96391297216661" lon="11.914219373788853"><ele>-0.9999999999999999</ele><time>2026-04-04T10:49:00.999Z</time></trkpt><trkpt lat="44.96388846996555" lon="11.914107410117131"><ele>-1.0</ele><time>2026-04-04T10:49:02.999Z</time></trkpt><trkpt lat="44.96385749129614" lon="11.913986326442384"><ele>-1.0</ele><time>2026-04-04T10:49:04.999Z</time></trkpt><trkpt lat="44.963831497714466" lon="11.91386275033905"><ele>-1.0</ele><time>2026-04-04T10:49:06.999Z</time></trkpt><trkpt lat="44.963801581843974" lon="11.913740301736578"><ele>-1.0</ele><time>2026-04-04T10:49:08.999Z</time></trkpt><trkpt lat="44.96377811382371" lon="11.913610364354101"><ele>-1.0</ele><time>2026-04-04T10:49:10.999Z</time></trkpt><trkpt lat="44.9637471458465" lon="11.913486406490957"><ele>-1.0</ele><time>2026-04-04T10:49:12.999Z</time></trkpt><trkpt lat="44.963715743394125" lon="11.913356959426325"><ele>-0.9999999999999999</ele><time>2026-04-04T10:49:14.999Z</time></trkpt><trkpt lat="44.963690249315235" lon="11.913234312237277"><ele>-1.0</ele><time>2026-04-04T10:49:16.999Z</time></trkpt><trkpt lat="44.96365856632919" lon="11.913111950035209"><ele>-1.0</ele><time>2026-04-04T10:49:18.999Z</time></trkpt><trkpt lat="44.963632661475906" lon="11.912992749965325"><ele>-1.0</ele><time>2026-04-04T10:49:21Z</time></trkpt><trkpt lat="44.96360887229691" lon="11.91287931632654"><ele>-0.9999999999999999</ele><time>2026-04-04T10:49:23Z</time></trkpt><trkpt lat="44.963584670339486" lon="11.91276412279481"><ele>-1.0</ele><time>2026-04-04T10:49:25Z</time></trkpt><trkpt lat="44.96355449497001" lon="11.912637549651794"><ele>-0.9999999999999999</ele><time>2026-04-04T10:49:27Z</time></trkpt><trkpt lat="44.96352288242775" lon="11.912516716826133"><ele>-1.0</ele><time>2026-04-04T10:49:29Z</time></trkpt><trkpt lat="44.96350079391653" lon="11.912402540933373"><ele>-1.0</ele><time>2026-04-04T10:49:31Z</time></trkpt><trkpt lat="44.96347242962135" lon="11.912296628397351"><ele>-1.0</ele><time>2026-04-04T10:49:33Z</time></trkpt><trkpt lat="44.96344874423084" lon="11.912193957871606"><ele>-0.9999999999999999</ele><time>2026-04-04T10:49:35Z</time></trkpt><trkpt lat="44.963432667340584" lon="11.912085598680495"><ele>-1.0</ele><time>2026-04-04T10:49:37Z</time></trkpt><trkpt lat="44.96340371524081" lon="11.911955168261395"><ele>-1.0</ele><time>2026-04-04T10:49:39Z</time></trkpt><trkpt lat="44.963373667272116" lon="11.911828856589661"><ele>-1.0</ele><time>2026-04-04T10:49:41Z</time></trkpt><trkpt lat="44.96334361857155" lon="11.911702048895439"><ele>-1.0</ele><time>2026-04-04T10:49:43Z</time></trkpt><trkpt lat="44.96331296634378" lon="11.911576307382717"><ele>-1.0</ele><time>2026-04-04T10:49:45Z</time></trkpt><trkpt lat="44.963286339309775" lon="11.911456177744396"><ele>-1.0</ele><time>2026-04-04T10:49:47Z</time></trkpt><trkpt lat="44.963259823159845" lon="11.911337060841035"><ele>-0.6000000000000001</ele><time>2026-04-04T10:49:49Z</time></trkpt><trkpt lat="44.963234745754455" lon="11.91121494017358"><ele>-0.20000000000000007</ele><time>2026-04-04T10:49:51Z</time></trkpt><trkpt lat="44.96320692385387" lon="11.91108794078737"><ele>0.20000000000000007</ele><time>2026-04-04T10:49:53Z</time></trkpt><trkpt lat="44.963177818414756" lon="11.910958660879066"><ele>0.6000000000000001</ele><time>2026-04-04T10:49:55Z</time></trkpt><trkpt lat="44.963145724547886" lon="11.910834601308508"><ele>1.0</ele><time>2026-04-04T10:49:57Z</time></trkpt><trkpt lat="44.96311349027843" lon="11.910708370395978"><ele>0.9999999999999999</ele><time>2026-04-04T10:49:59Z</time></trkpt><trkpt lat="44.963080619835125" lon="11.91058497707992"><ele>1.0</ele><time>2026-04-04T10:50:01Z</time></trkpt><trkpt lat="44.96304838174541" lon="11.910457682978347"><ele>1.0</ele><time>2026-04-04T10:50:03Z</time></trkpt><trkpt lat="44.96301423888336" lon="11.91034264413808"><ele>1.0</ele><time>2026-04-04T10:50:05Z</time></trkpt><trkpt lat="44.96297814275572" lon="11.910230057433614"><ele>0.9999999999999999</ele><time>2026-04-04T10:50:07Z</time></trkpt><trkpt lat="44.962939917935515" lon="11.910125556338295"><ele>1.0</ele><time>2026-04-04T10:50:09Z</time></trkpt><trkpt lat="44.96290899929529" lon="11.910015044007029"><ele>0.9999999999999999</ele><time>2026-04-04T10:50:11Z</time></trkpt><trkpt lat="44.96288036204567" lon="11.909909288675589"><ele>1.0</ele><time>2026-04-04T10:50:13Z</time></trkpt><trkpt lat="44.96287716716278" lon="11.909798906881132"><ele>1.0</ele><time>2026-04-04T10:50:15Z</time></trkpt><trkpt lat="44.96292987324019" lon="11.909717359889664"><ele>1.0</ele><time>2026-04-04T10:50:17Z</time></trkpt><trkpt lat="44.963004694084276" lon="11.909655770843901"><ele>0.9999999999999999</ele><time>2026-04-04T10:50:19Z</time></trkpt><trkpt lat="44.963094094757416" lon="11.90962889797528"><ele>1.0</ele><time>2026-04-04T10:50:21Z</time></trkpt><trkpt lat="44.963184318213216" lon="11.909608830431841"><ele>1.0</ele><time>2026-04-04T10:50:23Z</time></trkpt><trkpt lat="44.963270409035765" lon="11.909587031431652"><ele>1.0</ele><time>2026-04-04T10:50:25Z</time></trkpt><trkpt lat="44.963364342678794" lon="11.909559743650117"><ele>1.0</ele><time>2026-04-04T10:50:27Z</time></trkpt><trkpt lat="44.96346152625642" lon="11.909534095538756"><ele>1.0</ele><time>2026-04-04T10:50:29Z</time></trkpt><trkpt lat="44.96355578107144" lon="11.909507675121553"><ele>1.0</ele><time>2026-04-04T10:50:31Z</time></trkpt><trkpt lat="44.963649401912036" lon="11.909481359466373"><ele>0.8</ele><time>2026-04-04T10:50:33Z</time></trkpt><trkpt lat="44.96374476212268" lon="11.909455471362937"><ele>0.6000000000000001</ele><time>2026-04-04T10:50:35Z</time></trkpt><trkpt lat="44.96383609076373" lon="11.909422828565754"><ele>0.4</ele><time>2026-04-04T10:50:37Z</time></trkpt><trkpt lat="44.963930060538196" lon="11.909399549123695"><ele>0.2</ele><time>2026-04-04T10:50:39Z</time></trkpt><trkpt lat="44.96402440798718" lon="11.90937622042231"><ele>0.0</ele><time>2026-04-04T10:50:41Z</time></trkpt><trkpt lat="44.964117779147706" lon="11.909343079328037"><ele>0.0</ele><time>2026-04-04T10:50:42.999Z</time></trkpt><trkpt lat="44.96420495561114" lon="11.90931836447368"><ele>0.0</ele><time>2026-04-04T10:50:44.999Z</time></trkpt><trkpt lat="44.964289344955574" lon="11.909290862548493"><ele>0.0</ele><time>2026-04-04T10:50:46.999Z</time></trkpt><trkpt lat="44.96437809041757" lon="11.909274301181844"><ele>0.0</ele><time>2026-04-04T10:50:48.999Z</time></trkpt><trkpt lat="44.96447075810502" lon="11.909245058911319"><ele>0.0</ele><time>2026-04-04T10:50:50.999Z</time></trkpt><trkpt lat="44.96456266468009" lon="11.909213457966766"><ele>0.0</ele><time>2026-04-04T10:50:52.999Z</time></trkpt><trkpt lat="44.96464799458382" lon="11.909187902623293"><ele>0.0</ele><time>2026-04-04T10:50:54.999Z</time></trkpt><trkpt lat="44.96473257858009" lon="11.909167549151132"><ele>0.0</ele><time>2026-04-04T10:50:56.999Z</time></trkpt><trkpt lat="44.96481040729661" lon="11.909140146968104"><ele>0.0</ele><time>2026-04-04T10:50:58.999Z</time></trkpt><trkpt lat="44.96489149753498" lon="11.909126792716277"><ele>0.0</ele><time>2026-04-04T10:51:00.999Z</time></trkpt><trkpt lat="44.964982534430256" lon="11.909095260697445"><ele>0.0</ele><time>2026-04-04T10:51:02.999Z</time></trkpt><trkpt lat="44.96507288461927" lon="11.909059324753931"><ele>0.0</ele><time>2026-04-04T10:51:04.999Z</time></trkpt><trkpt lat="44.96515882422132" lon="11.909037895275517"><ele>0.0</ele><time>2026-04-04T10:51:06.999Z</time></trkpt><trkpt lat="44.96524230739058" lon="11.909018995808696"><ele>0.0</ele><time>2026-04-04T10:51:08.999Z</time></trkpt><trkpt lat="44.9653195368065" lon="11.908995539165078"><ele>0.0</ele><time>2026-04-04T10:51:10.999Z</time></trkpt><trkpt lat="44.96540159589684" lon="11.908968280016895"><ele>0.0</ele><time>2026-04-04T10:51:12.999Z</time></trkpt><trkpt lat="44.965493794657625" lon="11.90894487700968"><ele>0.0</ele><time>2026-04-04T10:51:14.999Z</time></trkpt><trkpt lat="44.965583349260534" lon="11.90891493205913"><ele>0.0</ele><time>2026-04-04T10:51:16.999Z</time></trkpt><trkpt lat="44.965667931598894" lon="11.908884776430034"><ele>0.0</ele><time>2026-04-04T10:51:18.999Z</time></trkpt><trkpt lat="44.96575380404364" lon="11.908865483276681"><ele>0.0</ele><time>2026-04-04T10:51:20.999Z</time></trkpt><trkpt lat="44.965833636816065" lon="11.908843979335206"><ele>0.0</ele><time>2026-04-04T10:51:22.999Z</time></trkpt><trkpt lat="44.965920437280744" lon="11.908828065654726"><ele>0.0</ele><time>2026-04-04T10:51:24.999Z</time></trkpt><trkpt lat="44.96600851210166" lon="11.908796779513205"><ele>0.0</ele><time>2026-04-04T10:51:27Z</time></trkpt><trkpt lat="44.966095630755696" lon="11.908773260048111"><ele>0.0</ele><time>2026-04-04T10:51:29Z</time></trkpt><trkpt lat="44.96617615677722" lon="11.908752075547447"><ele>0.0</ele><time>2026-04-04T10:51:31Z</time></trkpt><trkpt lat="44.96625355439766" lon="11.908726161809614"><ele>0.0</ele><time>2026-04-04T10:51:33Z</time></trkpt><trkpt lat="44.966332484949035" lon="11.908724187269076"><ele>0.0</ele><time>2026-04-04T10:51:35Z</time></trkpt><trkpt lat="44.966400212773905" lon="11.908680655526732"><ele>0.0</ele><time>2026-04-04T10:51:37Z</time></trkpt><trkpt lat="44.9664829498084" lon="11.90864068706573"><ele>0.0</ele><time>2026-04-04T10:51:39Z</time></trkpt><trkpt lat="44.966550371156586" lon="11.90856561604765"><ele>0.0</ele><time>2026-04-04T10:51:41Z</time></trkpt><trkpt lat="44.96659066737995" lon="11.908465865143707"><ele>0.0</ele><time>2026-04-04T10:51:43Z</time></trkpt><trkpt lat="44.96662472984781" lon="11.908369050191753"><ele>0.0</ele><time>2026-04-04T10:51:45Z</time></trkpt><trkpt lat="44.96661279191312" lon="11.908258759821251"><ele>0.0</ele><time>2026-04-04T10:51:47Z</time></trkpt><trkpt lat="44.96661066009448" lon="11.908156634967078"><ele>0.0</ele><time>2026-04-04T10:51:49Z</time></trkpt><trkpt lat="44.96658812091418" lon="11.90803348056303"><ele>0.0</ele><time>2026-04-04T10:51:51Z</time></trkpt><trkpt lat="44.9665643030282" lon="11.907901252519833"><ele>0.16666666666666666</ele><time>2026-04-04T10:51:53Z</time></trkpt><trkpt lat="44.9665425780737" lon="11.90777933972036"><ele>0.3333333333333333</ele><time>2026-04-04T10:51:55Z</time></trkpt><trkpt lat="44.96652365053885" lon="11.907666023532853"><ele>0.5</ele><time>2026-04-04T10:51:57Z</time></trkpt><trkpt lat="44.96650318949881" lon="11.907556819257577"><ele>0.6666666666666666</ele><time>2026-04-04T10:51:59Z</time></trkpt><trkpt lat="44.96648246766406" lon="11.907440506972934"><ele>0.8333333333333333</ele><time>2026-04-04T10:52:01Z</time></trkpt><trkpt lat="44.96646305432886" lon="11.907318985548976"><ele>1.0</ele><time>2026-04-04T10:52:03Z</time></trkpt><trkpt lat="44.9664364100761" lon="11.907191331909994"><ele>1.0</ele><time>2026-04-04T10:52:05Z</time></trkpt><trkpt lat="44.96641152667436" lon="11.90706057433468"><ele>1.0</ele><time>2026-04-04T10:52:07Z</time></trkpt><trkpt lat="44.96639668284953" lon="11.90692915278224"><ele>1.0</ele><time>2026-04-04T10:52:09Z</time></trkpt><trkpt lat="44.96638671551355" lon="11.906800269192033"><ele>1.0</ele><time>2026-04-04T10:52:11Z</time></trkpt><trkpt lat="44.966384729121394" lon="11.906670193588248"><ele>1.0</ele><time>2026-04-04T10:52:13Z</time></trkpt><trkpt lat="44.966384452862194" lon="11.906551501809835"><ele>0.8</ele><time>2026-04-04T10:52:15Z</time></trkpt><trkpt lat="44.96639657234618" lon="11.906436492349592"><ele>0.6000000000000001</ele><time>2026-04-04T10:52:17Z</time></trkpt><trkpt lat="44.96641697106807" lon="11.906312268850229"><ele>0.4</ele><time>2026-04-04T10:52:19Z</time></trkpt><trkpt lat="44.966445352227865" lon="11.906185265417603"><ele>0.2</ele><time>2026-04-04T10:52:21Z</time></trkpt><trkpt lat="44.96648065197816" lon="11.906059835364914"><ele>0.0</ele><time>2026-04-04T10:52:23Z</time></trkpt><trkpt lat="44.96652132833462" lon="11.905936169404269"><ele>0.0</ele><time>2026-04-04T10:52:25Z</time></trkpt><trkpt lat="44.966566660638556" lon="11.905820738973626"><ele>0.0</ele><time>2026-04-04T10:52:27Z</time></trkpt><trkpt lat="44.96660717347512" lon="11.905703069710015"><ele>0.0</ele><time>2026-04-04T10:52:29Z</time></trkpt><trkpt lat="44.966641984692615" lon="11.905581737973213"><ele>0.0</ele><time>2026-04-04T10:52:31Z</time></trkpt><trkpt lat="44.96667820093787" lon="11.905470231641026"><ele>0.0</ele><time>2026-04-04T10:52:33Z</time></trkpt><trkpt lat="44.96672186591716" lon="11.905364434405383"><ele>0.0</ele><time>2026-04-04T10:52:35Z</time></trkpt><trkpt lat="44.96674827692959" lon="11.905254157886121"><ele>0.0</ele><time>2026-04-04T10:52:37Z</time></trkpt><trkpt lat="44.966751815300036" lon="11.905141383417469"><ele>0.0</ele><time>2026-04-04T10:52:39Z</time></trkpt><trkpt lat="44.966771880066176" lon="11.90503091308661"><ele>0.0</ele><time>2026-04-04T10:52:41Z</time></trkpt><trkpt lat="44.96678388205965" lon="11.90490234992247"><ele>0.0</ele><time>2026-04-04T10:52:43Z</time></trkpt><trkpt lat="44.96678971532232" lon="11.904779106768345"><ele>0.0</ele><time>2026-04-04T10:52:45Z</time></trkpt><trkpt lat="44.966800132590365" lon="11.904659360496384"><ele>0.0</ele><time>2026-04-04T10:52:47Z</time></trkpt><trkpt lat="44.96680365436504" lon="11.904543637977385"><ele>0.0</ele><time>2026-04-04T10:52:49Z</time></trkpt><trkpt lat="44.96681020107983" lon="11.90443353469689"><ele>0.0</ele><time>2026-04-04T10:52:51Z</time></trkpt><trkpt lat="44.9668258994869" lon="11.904320386297787"><ele>0.0</ele><time>2026-04-04T10:52:53Z</time></trkpt><trkpt lat="44.96683491538956" lon="11.904194148557272"><ele>0.0</ele><time>2026-04-04T10:52:55Z</time></trkpt><trkpt lat="44.96683737434204" lon="11.90406449193449"><ele>0.0</ele><time>2026-04-04T10:52:57Z</time></trkpt><trkpt lat="44.96684143256185" lon="11.903929807117164"><ele>0.4</ele><time>2026-04-04T10:52:58.999Z</time></trkpt><trkpt lat="44.96684325850516" lon="11.903795179510523"><ele>0.8</ele><time>2026-04-04T10:53:00.999Z</time></trkpt><trkpt lat="44.966845791079656" lon="11.90366361488744"><ele>1.2000000000000002</ele><time>2026-04-04T10:53:02.999Z</time></trkpt><trkpt lat="44.966849229305964" lon="11.903536235038791"><ele>1.6</ele><time>2026-04-04T10:53:04.999Z</time></trkpt><trkpt lat="44.96684708174804" lon="11.90341187280666"><ele>2.0</ele><time>2026-04-04T10:53:06.999Z</time></trkpt><trkpt lat="44.9668464438575" lon="11.903289203283592"><ele>2.0</ele><time>2026-04-04T10:53:08.999Z</time></trkpt><trkpt lat="44.966850409879484" lon="11.903168373571118"><ele>2.0</ele><time>2026-04-04T10:53:10.999Z</time></trkpt><trkpt lat="44.96685128659417" lon="11.903038207146155"><ele>2.0</ele><time>2026-04-04T10:53:12.999Z</time></trkpt><trkpt lat="44.96684456006677" lon="11.902901089811836"><ele>2.0</ele><time>2026-04-04T10:53:14.999Z</time></trkpt><trkpt lat="44.966833445463976" lon="11.902765293564837"><ele>2.0</ele><time>2026-04-04T10:53:16.999Z</time></trkpt><trkpt lat="44.96682274334095" lon="11.902633736101867"><ele>1.8333333333333333</ele><time>2026-04-04T10:53:18.999Z</time></trkpt><trkpt lat="44.96681569937926" lon="11.902506437484785"><ele>1.6666666666666665</ele><time>2026-04-04T10:53:20.999Z</time></trkpt><trkpt lat="44.96680259384097" lon="11.902385611500154"><ele>1.5</ele><time>2026-04-04T10:53:22.999Z</time></trkpt><trkpt lat="44.966795483000475" lon="11.902265834112526"><ele>1.3333333333333333</ele><time>2026-04-04T10:53:24.999Z</time></trkpt><trkpt lat="44.96678599277043" lon="11.9021413914995"><ele>1.1666666666666665</ele><time>2026-04-04T10:53:26.999Z</time></trkpt><trkpt lat="44.966776216211976" lon="11.902010061397483"><ele>1.0</ele><time>2026-04-04T10:53:28.999Z</time></trkpt><trkpt lat="44.96676463664177" lon="11.901874594992846"><ele>1.0</ele><time>2026-04-04T10:53:30.999Z</time></trkpt><trkpt lat="44.96675586532738" lon="11.901738723094592"><ele>1.0</ele><time>2026-04-04T10:53:33Z</time></trkpt><trkpt lat="44.96674393338429" lon="11.901605301009527"><ele>1.0</ele><time>2026-04-04T10:53:35Z</time></trkpt><trkpt lat="44.96674221650127" lon="11.901470232476209"><ele>1.0</ele><time>2026-04-04T10:53:37Z</time></trkpt><trkpt lat="44.96674707888603" lon="11.901342649982178"><ele>1.0</ele><time>2026-04-04T10:53:39Z</time></trkpt><trkpt lat="44.966752239355976" lon="11.901219444413934"><ele>0.9999999999999999</ele><time>2026-04-04T10:53:41Z</time></trkpt><trkpt lat="44.9667770452745" lon="11.901111874880103"><ele>1.0</ele><time>2026-04-04T10:53:43Z</time></trkpt><trkpt lat="44.966802430472185" lon="11.901004819185115"><ele>1.0</ele><time>2026-04-04T10:53:45Z</time></trkpt><trkpt lat="44.96683325576408" lon="11.900907408560013"><ele>1.0</ele><time>2026-04-04T10:53:47Z</time></trkpt><trkpt lat="44.966859115397796" lon="11.90080452490801"><ele>0.9999999999999999</ele><time>2026-04-04T10:53:49Z</time></trkpt><trkpt lat="44.96688476844195" lon="11.900696856615331"><ele>1.0</ele><time>2026-04-04T10:53:51Z</time></trkpt><trkpt lat="44.96691402173626" lon="11.900600126924784"><ele>0.9999999999999999</ele><time>2026-04-04T10:53:53Z</time></trkpt><trkpt lat="44.9669365342503" lon="11.900496699709109"><ele>1.0</ele><time>2026-04-04T10:53:55Z</time></trkpt><trkpt lat="44.966972414066205" lon="11.900385478767335"><ele>1.0</ele><time>2026-04-04T10:53:57Z</time></trkpt><trkpt lat="44.9670008908922" lon="11.90025752361563"><ele>1.0</ele><time>2026-04-04T10:53:59Z</time></trkpt><trkpt lat="44.967031337966" lon="11.900145150764455"><ele>0.9999999999999999</ele><time>2026-04-04T10:54:01Z</time></trkpt><trkpt lat="44.96705564732536" lon="11.900035745078641"><ele>1.0</ele><time>2026-04-04T10:54:03Z</time></trkpt><trkpt lat="44.96708128709748" lon="11.899933142835229"><ele>0.9999999999999999</ele><time>2026-04-04T10:54:05Z</time></trkpt><trkpt lat="44.96710628040465" lon="11.89983479384744"><ele>1.0</ele><time>2026-04-04T10:54:07Z</time></trkpt><trkpt lat="44.96713549326471" lon="11.899733595426076"><ele>1.0</ele><time>2026-04-04T10:54:09Z</time></trkpt><trkpt lat="44.96716029487968" lon="11.89962046084974"><ele>1.0</ele><time>2026-04-04T10:54:11Z</time></trkpt><trkpt lat="44.96718233542697" lon="11.899509184355994"><ele>0.9999999999999999</ele><time>2026-04-04T10:54:13Z</time></trkpt><trkpt lat="44.96719962991937" lon="11.899389713884693"><ele>1.0</ele><time>2026-04-04T10:54:15Z</time></trkpt><trkpt lat="44.96722612650686" lon="11.899266530433735"><ele>1.4</ele><time>2026-04-04T10:54:17Z</time></trkpt><trkpt lat="44.9672504074739" lon="11.899148085559618"><ele>1.8</ele><time>2026-04-04T10:54:19Z</time></trkpt><trkpt lat="44.9672733168757" lon="11.899035019803428"><ele>2.1999999999999997</ele><time>2026-04-04T10:54:21Z</time></trkpt><trkpt lat="44.96730252710282" lon="11.89892067897876"><ele>2.6</ele><time>2026-04-04T10:54:23Z</time></trkpt><trkpt lat="44.967329331613655" lon="11.898788168692763"><ele>3.0</ele><time>2026-04-04T10:54:25Z</time></trkpt><trkpt lat="44.96736122028962" lon="11.898653269666237"><ele>3.0</ele><time>2026-04-04T10:54:27Z</time></trkpt><trkpt lat="44.967380918214914" lon="11.898519238012993"><ele>3.0</ele><time>2026-04-04T10:54:29Z</time></trkpt><trkpt lat="44.96738838507829" lon="11.898390742032877"><ele>3.0</ele><time>2026-04-04T10:54:31Z</time></trkpt><trkpt lat="44.96739707053716" lon="11.898267941922594"><ele>3.0</ele><time>2026-04-04T10:54:33Z</time></trkpt><trkpt lat="44.9673910205" lon="11.898149632694368"><ele>3.0</ele><time>2026-04-04T10:54:35Z</time></trkpt><trkpt lat="44.96738255883767" lon="11.898027266076449"><ele>3.0</ele><time>2026-04-04T10:54:37Z</time></trkpt><trkpt lat="44.96737579254442" lon="11.897903910515028"><ele>2.8</ele><time>2026-04-04T10:54:39Z</time></trkpt><trkpt lat="44.96736921360343" lon="11.897770485157084"><ele>2.5999999999999996</ele><time>2026-04-04T10:54:41Z</time></trkpt><trkpt lat="44.96736435550344" lon="11.897639900208901"><ele>2.4000000000000004</ele><time>2026-04-04T10:54:43Z</time></trkpt><trkpt lat="44.96735587393253" lon="11.897509450229567"><ele>2.2</ele><time>2026-04-04T10:54:45Z</time></trkpt><trkpt lat="44.96734705925991" lon="11.89737684976359"><ele>2.0</ele><time>2026-04-04T10:54:47Z</time></trkpt><trkpt lat="44.96733914999032" lon="11.897259098534663"><ele>2.0</ele><time>2026-04-04T10:54:49Z</time></trkpt><trkpt lat="44.96734240218791" lon="11.897141022822057"><ele>1.9999999999999998</ele><time>2026-04-04T10:54:51Z</time></trkpt><trkpt lat="44.96735733130758" lon="11.8970362004436"><ele>2.0</ele><time>2026-04-04T10:54:53Z</time></trkpt><trkpt lat="44.96741071188591" lon="11.896961517313427"><ele>2.0</ele><time>2026-04-04T10:54:55Z</time></trkpt><trkpt lat="44.967420378490246" lon="11.896860231777191"><ele>1.9999999999999998</ele><time>2026-04-04T10:54:58Z</time></trkpt><trkpt lat="44.96742049160881" lon="11.896747820842208"><ele>2.0</ele><time>2026-04-04T10:55:03Z</time></trkpt><trkpt lat="44.967381312445575" lon="11.896677558661327"><ele>2.0</ele><time>2026-04-04T10:55:06Z</time></trkpt><trkpt lat="44.967377992165176" lon="11.896584728744026"><ele>2.333333333333333</ele><time>2026-04-04T10:55:10Z</time></trkpt><trkpt lat="44.96734318435779" lon="11.896507489117612"><ele>2.6666666666666665</ele><time>2026-04-04T10:55:15Z</time></trkpt><trkpt lat="44.96725482556641" lon="11.896539712173094"><ele>3.0</ele><time>2026-04-04T11:19:15Z</time></trkpt><trkpt lat="44.96722775108592" lon="11.896424039734267"><ele>3.333333333333333</ele><time>2026-04-04T11:19:19Z</time></trkpt><trkpt lat="44.9672277888074" lon="11.896332327015863"><ele>3.6666666666666665</ele><time>2026-04-04T11:19:21Z</time></trkpt><trkpt lat="44.96722971042943" lon="11.896243283369962"><ele>4.0</ele><time>2026-04-04T11:19:23Z</time></trkpt><trkpt lat="44.96723177378288" lon="11.896124071340187"><ele>4.0</ele><time>2026-04-04T11:19:25Z</time></trkpt><trkpt lat="44.96723603651719" lon="11.895993181296147"><ele>4.0</ele><time>2026-04-04T11:19:27Z</time></trkpt><trkpt lat="44.9672522909321" lon="11.895860734625312"><ele>4.0</ele><time>2026-04-04T11:19:29Z</time></trkpt><trkpt lat="44.967264770551836" lon="11.895729165902697"><ele>4.0</ele><time>2026-04-04T11:19:31Z</time></trkpt><trkpt lat="44.9672729293659" lon="11.895596544036847"><ele>4.0</ele><time>2026-04-04T11:19:33Z</time></trkpt><trkpt lat="44.96728889040429" lon="11.89545986915795"><ele>3.8000000000000003</ele><time>2026-04-04T11:19:35Z</time></trkpt><trkpt lat="44.967308793323156" lon="11.895327233986533"><ele>3.6000000000000005</ele><time>2026-04-04T11:19:37Z</time></trkpt><trkpt lat="44.967334243482235" lon="11.895205432968933"><ele>3.4</ele><time>2026-04-04T11:19:39Z</time></trkpt><trkpt lat="44.9673663372177" lon="11.895082790277105"><ele>3.2</ele><time>2026-04-04T11:19:41Z</time></trkpt><trkpt lat="44.96740664497132" lon="11.894966748788452"><ele>3.0</ele><time>2026-04-04T11:19:43Z</time></trkpt><trkpt lat="44.96745581601875" lon="11.894848334493338"><ele>2.8</ele><time>2026-04-04T11:19:44.999Z</time></trkpt><trkpt lat="44.96751062102951" lon="11.894736569568769"><ele>2.5999999999999996</ele><time>2026-04-04T11:19:46.999Z</time></trkpt><trkpt lat="44.9675598049104" lon="11.894630446816233"><ele>2.4000000000000004</ele><time>2026-04-04T11:19:48.999Z</time></trkpt><trkpt lat="44.96761490392881" lon="11.894519913833063"><ele>2.2</ele><time>2026-04-04T11:19:50.999Z</time></trkpt><trkpt lat="44.9676679791324" lon="11.894408201045163"><ele>2.0</ele><time>2026-04-04T11:19:52.999Z</time></trkpt><trkpt lat="44.96772348777308" lon="11.894300313584722"><ele>2.0</ele><time>2026-04-04T11:19:54.999Z</time></trkpt><trkpt lat="44.96777659060195" lon="11.894192808855754"><ele>2.0</ele><time>2026-04-04T11:19:56.999Z</time></trkpt><trkpt lat="44.967829134513096" lon="11.89407925243488"><ele>2.0</ele><time>2026-04-04T11:19:58.999Z</time></trkpt><trkpt lat="44.967885912689134" lon="11.893963981422752"><ele>2.0</ele><time>2026-04-04T11:20:00.999Z</time></trkpt><trkpt lat="44.967937717659375" lon="11.893849165182216"><ele>2.0</ele><time>2026-04-04T11:20:02.999Z</time></trkpt><trkpt lat="44.96798223397915" lon="11.893723999981946"><ele>2.0</ele><time>2026-04-04T11:20:04.999Z</time></trkpt><trkpt lat="44.96802963718862" lon="11.893607606178675"><ele>2.0</ele><time>2026-04-04T11:20:06.999Z</time></trkpt><trkpt lat="44.96806964280398" lon="11.89349149950163"><ele>2.0</ele><time>2026-04-04T11:20:08.999Z</time></trkpt><trkpt lat="44.96810918869299" lon="11.89337094826903"><ele>2.0</ele><time>2026-04-04T11:20:10.999Z</time></trkpt><trkpt lat="44.968149673188464" lon="11.89324739320988"><ele>2.0</ele><time>2026-04-04T11:20:12.999Z</time></trkpt><trkpt lat="44.96818290139264" lon="11.893124323616366"><ele>2.0</ele><time>2026-04-04T11:20:14.999Z</time></trkpt><trkpt lat="44.968217010523844" lon="11.893000309373205"><ele>2.0</ele><time>2026-04-04T11:20:16.999Z</time></trkpt><trkpt lat="44.968246050036974" lon="11.892869891219302"><ele>2.0</ele><time>2026-04-04T11:20:18.999Z</time></trkpt><trkpt lat="44.968278764412126" lon="11.892744422125817"><ele>2.0</ele><time>2026-04-04T11:20:20.999Z</time></trkpt><trkpt lat="44.968306839197545" lon="11.892615771635459"><ele>2.0</ele><time>2026-04-04T11:20:22.999Z</time></trkpt><trkpt lat="44.968334806100906" lon="11.892492162323592"><ele>1.8</ele><time>2026-04-04T11:20:24.999Z</time></trkpt><trkpt lat="44.968367781167636" lon="11.892367515605951"><ele>1.6</ele><time>2026-04-04T11:20:26.999Z</time></trkpt><trkpt lat="44.96839960236206" lon="11.892239936198303"><ele>1.4000000000000001</ele><time>2026-04-04T11:20:28.999Z</time></trkpt><trkpt lat="44.9684257872771" lon="11.892112796575391"><ele>1.2000000000000002</ele><time>2026-04-04T11:20:30.999Z</time></trkpt><trkpt lat="44.96845356499012" lon="11.891983054073519"><ele>1.0</ele><time>2026-04-04T11:20:32.999Z</time></trkpt><trkpt lat="44.96847915452664" lon="11.891860962464795"><ele>1.0</ele><time>2026-04-04T11:20:34.999Z</time></trkpt><trkpt lat="44.96850575612354" lon="11.8917434710297"><ele>1.0</ele><time>2026-04-04T11:20:36.999Z</time></trkpt><trkpt lat="44.96857664326014" lon="11.891656249478732"><ele>1.0</ele><time>2026-04-04T11:20:38.999Z</time></trkpt><trkpt lat="44.96866793916593" lon="11.891686953861937"><ele>1.0</ele><time>2026-04-04T11:20:40.999Z</time></trkpt><trkpt lat="44.96874999748991" lon="11.89173006524171"><ele>1.0</ele><time>2026-04-04T11:20:42.999Z</time></trkpt><trkpt lat="44.96884076311459" lon="11.891773327372308"><ele>1.0</ele><time>2026-04-04T11:20:44.999Z</time></trkpt><trkpt lat="44.96893612543971" lon="11.891808401262592"><ele>1.0</ele><time>2026-04-04T11:20:46.999Z</time></trkpt><trkpt lat="44.96902782339809" lon="11.891855614075315"><ele>1.0</ele><time>2026-04-04T11:20:48.999Z</time></trkpt><trkpt lat="44.969122870212125" lon="11.891892647840306"><ele>1.0</ele><time>2026-04-04T11:20:51Z</time></trkpt><trkpt lat="44.96921791745581" lon="11.891897028012039"><ele>1.0</ele><time>2026-04-04T11:20:53Z</time></trkpt><trkpt lat="44.96931044891642" lon="11.891844662641772"><ele>0.9999999999999999</ele><time>2026-04-04T11:20:55Z</time></trkpt><trkpt lat="44.96939448913001" lon="11.891786220686152"><ele>1.0</ele><time>2026-04-04T11:20:57Z</time></trkpt><trkpt lat="44.969476571812784" lon="11.891734099252663"><ele>1.0</ele><time>2026-04-04T11:20:59Z</time></trkpt><trkpt lat="44.969555931832744" lon="11.891685846658417"><ele>1.0</ele><time>2026-04-04T11:21:01Z</time></trkpt><trkpt lat="44.969633583952636" lon="11.891629985494816"><ele>0.9999999999999999</ele><time>2026-04-04T11:21:03Z</time></trkpt><trkpt lat="44.96971611684105" lon="11.891577598604526"><ele>1.0</ele><time>2026-04-04T11:21:05Z</time></trkpt><trkpt lat="44.969799952840745" lon="11.891520853645773"><ele>0.9999999999999999</ele><time>2026-04-04T11:21:07Z</time></trkpt><trkpt lat="44.96988453243762" lon="11.891466609351433"><ele>1.0</ele><time>2026-04-04T11:21:09Z</time></trkpt><trkpt lat="44.96996177355923" lon="11.891407567075975"><ele>1.0</ele><time>2026-04-04T11:21:11Z</time></trkpt><trkpt lat="44.9700412669805" lon="11.891361629172826"><ele>1.0</ele><time>2026-04-04T11:21:13Z</time></trkpt><trkpt lat="44.9701168081978" lon="11.891304512803906"><ele>0.9999999999999999</ele><time>2026-04-04T11:21:15Z</time></trkpt><trkpt lat="44.97019668715299" lon="11.891257743598793"><ele>1.0</ele><time>2026-04-04T11:21:17Z</time></trkpt><trkpt lat="44.97027709679765" lon="11.891195880968887"><ele>1.1666666666666665</ele><time>2026-04-04T11:21:19Z</time></trkpt><trkpt lat="44.97034444031817" lon="11.891124588192818"><ele>1.3333333333333333</ele><time>2026-04-04T11:21:21Z</time></trkpt><trkpt lat="44.97037957162292" lon="11.89102366370658"><ele>1.5</ele><time>2026-04-04T11:21:23Z</time></trkpt><trkpt lat="44.97034731050131" lon="11.890915703360765"><ele>1.6666666666666665</ele><time>2026-04-04T11:21:25Z</time></trkpt><trkpt lat="44.97031505154558" lon="11.890796558314975"><ele>1.8333333333333333</ele><time>2026-04-04T11:21:27Z</time></trkpt><trkpt lat="44.97027994081145" lon="11.890676762496216"><ele>2.0</ele><time>2026-04-04T11:21:29Z</time></trkpt><trkpt lat="44.970251434625375" lon="11.890554450656808"><ele>2.2</ele><time>2026-04-04T11:21:31Z</time></trkpt><trkpt lat="44.97022934492336" lon="11.890428339091425"><ele>2.4000000000000004</ele><time>2026-04-04T11:21:33Z</time></trkpt><trkpt lat="44.9702015536303" lon="11.890301986595906"><ele>2.5999999999999996</ele><time>2026-04-04T11:21:35Z</time></trkpt><trkpt lat="44.97017291956907" lon="11.890176439878497"><ele>2.8</ele><time>2026-04-04T11:21:37Z</time></trkpt><trkpt lat="44.970139420873025" lon="11.890055288812885"><ele>3.0</ele><time>2026-04-04T11:21:39Z</time></trkpt><trkpt lat="44.97010792839654" lon="11.889927527773345"><ele>3.1666666666666665</ele><time>2026-04-04T11:21:41Z</time></trkpt><trkpt lat="44.97009319104123" lon="11.889803401032614"><ele>3.333333333333333</ele><time>2026-04-04T11:21:42.999Z</time></trkpt><trkpt lat="44.97007316735143" lon="11.889676948369024"><ele>3.5</ele><time>2026-04-04T11:21:44.999Z</time></trkpt><trkpt lat="44.970052035079284" lon="11.889554585300932"><ele>3.6666666666666665</ele><time>2026-04-04T11:21:46.999Z</time></trkpt><trkpt lat="44.97003767043811" lon="11.889425944737546"><ele>3.833333333333333</ele><time>2026-04-04T11:21:48.999Z</time></trkpt><trkpt lat="44.97002751664623" lon="11.889303914207117"><ele>4.0</ele><time>2026-04-04T11:21:50.999Z</time></trkpt><trkpt lat="44.97002570223777" lon="11.889191782466872"><ele>3.6666666666666665</ele><time>2026-04-04T11:21:52.999Z</time></trkpt><trkpt lat="44.97002343576793" lon="11.889072719336227"><ele>3.333333333333333</ele><time>2026-04-04T11:21:54.999Z</time></trkpt><trkpt lat="44.97001758741725" lon="11.888946877043498"><ele>3.0</ele><time>2026-04-04T11:21:56.999Z</time></trkpt><trkpt lat="44.9700002140559" lon="11.888821431350996"><ele>2.6666666666666665</ele><time>2026-04-04T11:21:58.999Z</time></trkpt><trkpt lat="44.96997244712093" lon="11.888700186674567"><ele>2.333333333333333</ele><time>2026-04-04T11:22:00.999Z</time></trkpt><trkpt lat="44.96995349062543" lon="11.888584933645044"><ele>2.0</ele><time>2026-04-04T11:22:02.999Z</time></trkpt><trkpt lat="44.96994265618266" lon="11.888478767840327"><ele>1.857142857142857</ele><time>2026-04-04T11:22:04.999Z</time></trkpt><trkpt lat="44.96992094263116" lon="11.888381834957237"><ele>1.714285714285714</ele><time>2026-04-04T11:22:06.999Z</time></trkpt><trkpt lat="44.969918767216136" lon="11.888261599670384"><ele>1.5714285714285714</ele><time>2026-04-04T11:22:08.999Z</time></trkpt><trkpt lat="44.969915321938004" lon="11.88814932931254"><ele>1.4285714285714284</ele><time>2026-04-04T11:22:10.999Z</time></trkpt><trkpt lat="44.969933046435045" lon="11.888048558551919"><ele>1.2857142857142856</ele><time>2026-04-04T11:22:12.999Z</time></trkpt><trkpt lat="44.969988190791156" lon="11.887984140904225"><ele>1.1428571428571428</ele><time>2026-04-04T11:22:14.999Z</time></trkpt><trkpt lat="44.97003360116908" lon="11.887915097328403"><ele>1.0</ele><time>2026-04-04T11:22:16.999Z</time></trkpt><trkpt lat="44.970080751295534" lon="11.887823571035398"><ele>1.1666666666666665</ele><time>2026-04-04T11:22:18.999Z</time></trkpt><trkpt lat="44.97013123408291" lon="11.887739729831216"><ele>1.3333333333333333</ele><time>2026-04-04T11:22:20.999Z</time></trkpt><trkpt lat="44.970177769490505" lon="11.887658623605859"><ele>1.5</ele><time>2026-04-04T11:22:22.999Z</time></trkpt><trkpt lat="44.97022977095055" lon="11.887539752505575"><ele>1.6666666666666665</ele><time>2026-04-04T11:22:25.999Z</time></trkpt><trkpt lat="44.97027299832143" lon="11.887434076467411"><ele>1.8333333333333333</ele><time>2026-04-04T11:22:27.999Z</time></trkpt><trkpt lat="44.97032643492192" lon="11.887331141624943"><ele>2.0</ele><time>2026-04-04T11:22:29.999Z</time></trkpt><trkpt lat="44.97038686217201" lon="11.887252091489373"><ele>1.9999999999999998</ele><time>2026-04-04T11:22:31.999Z</time></trkpt><trkpt lat="44.97044435139076" lon="11.887163364110439"><ele>2.0</ele><time>2026-04-04T11:22:33.999Z</time></trkpt><trkpt lat="44.97049945784441" lon="11.887056166868806"><ele>2.0</ele><time>2026-04-04T11:22:35.999Z</time></trkpt><trkpt lat="44.97055494717809" lon="11.886949926118525"><ele>2.0</ele><time>2026-04-04T11:22:37.999Z</time></trkpt><trkpt lat="44.97061363256286" lon="11.886860580902038"><ele>1.9999999999999998</ele><time>2026-04-04T11:22:39.999Z</time></trkpt><trkpt lat="44.9706610053119" lon="11.886760755200845"><ele>2.0</ele><time>2026-04-04T11:22:41.999Z</time></trkpt><trkpt lat="44.97071920390702" lon="11.886671853561507"><ele>1.9999999999999998</ele><time>2026-04-04T11:22:43.999Z</time></trkpt><trkpt lat="44.97077002712963" lon="11.886582328078047"><ele>2.0</ele><time>2026-04-04T11:22:45.999Z</time></trkpt><trkpt lat="44.970815219225685" lon="11.88648634587849"><ele>2.0</ele><time>2026-04-04T11:22:47.999Z</time></trkpt><trkpt lat="44.970862943757744" lon="11.886388264180129"><ele>2.0</ele><time>2026-04-04T11:22:49.999Z</time></trkpt><trkpt lat="44.97091583326755" lon="11.88627675493571"><ele>1.9999999999999998</ele><time>2026-04-04T11:22:51.999Z</time></trkpt><trkpt lat="44.97097694248651" lon="11.886174265159584"><ele>2.0</ele><time>2026-04-04T11:22:53.999Z</time></trkpt><trkpt lat="44.97103464860785" lon="11.886063567169327"><ele>2.0</ele><time>2026-04-04T11:22:56Z</time></trkpt><trkpt lat="44.9710922416283" lon="11.885952313802978"><ele>2.0</ele><time>2026-04-04T11:22:58Z</time></trkpt><trkpt lat="44.97115376189413" lon="11.885849215346523"><ele>2.0</ele><time>2026-04-04T11:23:00Z</time></trkpt><trkpt lat="44.97121046286772" lon="11.885747583937858"><ele>2.0</ele><time>2026-04-04T11:23:02Z</time></trkpt><trkpt lat="44.97125709909292" lon="11.885649354010944"><ele>2.0</ele><time>2026-04-04T11:23:04Z</time></trkpt><trkpt lat="44.971306933449014" lon="11.885553187747316"><ele>2.0</ele><time>2026-04-04T11:23:06Z</time></trkpt><trkpt lat="44.97135941098987" lon="11.88544518595584"><ele>2.0</ele><time>2026-04-04T11:23:08Z</time></trkpt><trkpt lat="44.9714174069651" lon="11.885340297752826"><ele>2.0</ele><time>2026-04-04T11:23:10Z</time></trkpt><trkpt lat="44.97147748069021" lon="11.885240083689462"><ele>2.0</ele><time>2026-04-04T11:23:12Z</time></trkpt><trkpt lat="44.971535877776894" lon="11.885136842793967"><ele>2.0</ele><time>2026-04-04T11:23:14Z</time></trkpt><trkpt lat="44.97159011688541" lon="11.885031806943578"><ele>1.9999999999999998</ele><time>2026-04-04T11:23:16Z</time></trkpt><trkpt lat="44.971648178644145" lon="11.884939673640423"><ele>2.0</ele><time>2026-04-04T11:23:18Z</time></trkpt><trkpt lat="44.97169942599264" lon="11.88484206441846"><ele>2.0</ele><time>2026-04-04T11:23:20Z</time></trkpt><trkpt lat="44.97174717544028" lon="11.884748212260295"><ele>2.0</ele><time>2026-04-04T11:23:22Z</time></trkpt><trkpt lat="44.97180236495094" lon="11.884658268443912"><ele>1.9999999999999998</ele><time>2026-04-04T11:23:24Z</time></trkpt><trkpt lat="44.97185650682676" lon="11.884555923194974"><ele>2.0</ele><time>2026-04-04T11:23:26Z</time></trkpt><trkpt lat="44.971916263153155" lon="11.884459399046033"><ele>2.0</ele><time>2026-04-04T11:23:28Z</time></trkpt><trkpt lat="44.97197356088294" lon="11.884357126477218"><ele>2.0</ele><time>2026-04-04T11:23:30Z</time></trkpt><trkpt lat="44.97202849122717" lon="11.884254102842746"><ele>2.0</ele><time>2026-04-04T11:23:32Z</time></trkpt><trkpt lat="44.972085938159765" lon="11.884157456515963"><ele>2.0</ele><time>2026-04-04T11:23:34Z</time></trkpt><trkpt lat="44.97214582342089" lon="11.884065910992977"><ele>2.0</ele><time>2026-04-04T11:23:36Z</time></trkpt><trkpt lat="44.972203426882224" lon="11.883969884664069"><ele>2.1666666666666665</ele><time>2026-04-04T11:23:38Z</time></trkpt><trkpt lat="44.972251890496906" lon="11.883870562821452"><ele>2.333333333333333</ele><time>2026-04-04T11:23:40Z</time></trkpt><trkpt lat="44.97230437472359" lon="11.883784207142186"><ele>2.5</ele><time>2026-04-04T11:23:42Z</time></trkpt><trkpt lat="44.972332691528955" lon="11.883689632438355"><ele>2.6666666666666665</ele><time>2026-04-04T11:23:44Z</time></trkpt><trkpt lat="44.97235438220501" lon="11.883598426319418"><ele>2.8333333333333335</ele><time>2026-04-04T11:23:45.999Z</time></trkpt><trkpt lat="44.972366542833946" lon="11.883471090665196"><ele>3.0</ele><time>2026-04-04T11:23:48.999Z</time></trkpt><trkpt lat="44.972363447222044" lon="11.883339503760713"><ele>3.1428571428571423</ele><time>2026-04-04T11:23:51.999Z</time></trkpt><trkpt lat="44.972355623130994" lon="11.883248871190236"><ele>3.2857142857142856</ele><time>2026-04-04T11:23:53.999Z</time></trkpt><trkpt lat="44.97234012145572" lon="11.883135908201849"><ele>3.4285714285714284</ele><time>2026-04-04T11:23:56.999Z</time></trkpt><trkpt lat="44.97233371152842" lon="11.883020487283577"><ele>3.571428571428571</ele><time>2026-04-04T11:24:00.999Z</time></trkpt><trkpt lat="44.972287192688285" lon="11.882953007199895"><ele>3.714285714285714</ele><time>2026-04-04T11:24:02.999Z</time></trkpt><trkpt lat="44.97224491629833" lon="11.882857567229124"><ele>3.8571428571428568</ele><time>2026-04-04T11:24:05.999Z</time></trkpt><trkpt lat="44.972213393694666" lon="11.882765426081445"><ele>4.0</ele><time>2026-04-04T11:24:07.999Z</time></trkpt><trkpt lat="44.97216199040572" lon="11.882666976970905"><ele>3.833333333333333</ele><time>2026-04-04T11:24:09.999Z</time></trkpt><trkpt lat="44.9721182545769" lon="11.882556524671267"><ele>3.6666666666666665</ele><time>2026-04-04T11:24:11.999Z</time></trkpt><trkpt lat="44.97207068955534" lon="11.88245208162648"><ele>3.5</ele><time>2026-04-04T11:24:13.999Z</time></trkpt><trkpt lat="44.97202642085491" lon="11.882341678222172"><ele>3.333333333333333</ele><time>2026-04-04T11:24:15.999Z</time></trkpt><trkpt lat="44.97197862369448" lon="11.882232766247027"><ele>3.1666666666666665</ele><time>2026-04-04T11:24:17.999Z</time></trkpt><trkpt lat="44.97193220890378" lon="11.882123747126093"><ele>3.0</ele><time>2026-04-04T11:24:19.999Z</time></trkpt><trkpt lat="44.97188034338878" lon="11.88202017746617"><ele>3.0</ele><time>2026-04-04T11:24:21.999Z</time></trkpt><trkpt lat="44.97183311442473" lon="11.88191222042668"><ele>3.0</ele><time>2026-04-04T11:24:23.999Z</time></trkpt><trkpt lat="44.971791870920036" lon="11.88179724705243"><ele>3.0</ele><time>2026-04-04T11:24:25.999Z</time></trkpt><trkpt lat="44.97174066987387" lon="11.881690387280377"><ele>3.0</ele><time>2026-04-04T11:24:27.999Z</time></trkpt><trkpt lat="44.9716935765888" lon="11.881579504747492"><ele>3.0</ele><time>2026-04-04T11:24:29.999Z</time></trkpt><trkpt lat="44.97164842575305" lon="11.881472241539278"><ele>3.1666666666666665</ele><time>2026-04-04T11:24:31.999Z</time></trkpt><trkpt lat="44.97160102309652" lon="11.881372973820698"><ele>3.333333333333333</ele><time>2026-04-04T11:24:33.999Z</time></trkpt><trkpt lat="44.971556158045324" lon="11.881271444768087"><ele>3.5</ele><time>2026-04-04T11:24:35.999Z</time></trkpt><trkpt lat="44.97151017401963" lon="11.88116352874357"><ele>3.6666666666666665</ele><time>2026-04-04T11:24:37.999Z</time></trkpt><trkpt lat="44.97146056463681" lon="11.881055728626642"><ele>3.833333333333333</ele><time>2026-04-04T11:24:39.999Z</time></trkpt><trkpt lat="44.971416283531646" lon="11.880941731448209"><ele>4.0</ele><time>2026-04-04T11:24:41.999Z</time></trkpt><trkpt lat="44.9713690123241" lon="11.88083056622501"><ele>4.166666666666666</ele><time>2026-04-04T11:24:43.999Z</time></trkpt><trkpt lat="44.97132165331379" lon="11.880721423507756"><ele>4.333333333333333</ele><time>2026-04-04T11:24:45.999Z</time></trkpt><trkpt lat="44.97127314567139" lon="11.880615445518158"><ele>4.5</ele><time>2026-04-04T11:24:47.999Z</time></trkpt><trkpt lat="44.97122498966384" lon="11.88051549146396"><ele>4.666666666666667</ele><time>2026-04-04T11:24:49.999Z</time></trkpt><trkpt lat="44.971181205058954" lon="11.880414868405492"><ele>4.833333333333334</ele><time>2026-04-04T11:24:51.999Z</time></trkpt><trkpt lat="44.971135286860054" lon="11.880303756598511"><ele>5.0</ele><time>2026-04-04T11:24:53.999Z</time></trkpt><trkpt lat="44.971084525282" lon="11.880195030132624"><ele>4.833333333333334</ele><time>2026-04-04T11:24:55.999Z</time></trkpt><trkpt lat="44.97103789520944" lon="11.880081189397034"><ele>4.666666666666667</ele><time>2026-04-04T11:24:57.999Z</time></trkpt><trkpt lat="44.970990061414554" lon="11.879971558753995"><ele>4.5</ele><time>2026-04-04T11:24:59.999Z</time></trkpt><trkpt lat="44.97094191477493" lon="11.879869285188928"><ele>4.333333333333333</ele><time>2026-04-04T11:25:01.999Z</time></trkpt><trkpt lat="44.97089789486632" lon="11.879769098485667"><ele>4.166666666666666</ele><time>2026-04-04T11:25:03.999Z</time></trkpt><trkpt lat="44.97085429043985" lon="11.879661987763663"><ele>4.0</ele><time>2026-04-04T11:25:05.999Z</time></trkpt><trkpt lat="44.97080513066829" lon="11.879549801160902"><ele>3.8000000000000003</ele><time>2026-04-04T11:25:07.999Z</time></trkpt><trkpt lat="44.97076078883555" lon="11.879432931104068"><ele>3.6000000000000005</ele><time>2026-04-04T11:25:09.999Z</time></trkpt><trkpt lat="44.970712083183244" lon="11.879320927757833"><ele>3.4</ele><time>2026-04-04T11:25:11.999Z</time></trkpt><trkpt lat="44.97066177375718" lon="11.879207573214748"><ele>3.2</ele><time>2026-04-04T11:25:13.999Z</time></trkpt><trkpt lat="44.97062193957524" lon="11.87909675217761"><ele>3.0</ele><time>2026-04-04T11:25:16Z</time></trkpt><trkpt lat="44.97057104038303" lon="11.878993485099752"><ele>3.5</ele><time>2026-04-04T11:25:18Z</time></trkpt><trkpt lat="44.970530115335414" lon="11.878890268435569"><ele>4.0</ele><time>2026-04-04T11:25:20Z</time></trkpt><trkpt lat="44.97048809322961" lon="11.878795895494717"><ele>4.5</ele><time>2026-04-04T11:25:22Z</time></trkpt><trkpt lat="44.97044770916178" lon="11.878704394720012"><ele>5.0</ele><time>2026-04-04T11:25:24Z</time></trkpt><trkpt lat="44.970409313535285" lon="11.87860357870957"><ele>5.5</ele><time>2026-04-04T11:25:26Z</time></trkpt><trkpt lat="44.97036244734093" lon="11.87849617353168"><ele>6.0</ele><time>2026-04-04T11:25:28Z</time></trkpt><trkpt lat="44.97032718949341" lon="11.87838966488733"><ele>6.666666666666667</ele><time>2026-04-04T11:25:30Z</time></trkpt><trkpt lat="44.97029138023546" lon="11.878288270825069"><ele>7.333333333333334</ele><time>2026-04-04T11:25:32Z</time></trkpt><trkpt lat="44.97025963849847" lon="11.87819062512581"><ele>8.0</ele><time>2026-04-04T11:25:34Z</time></trkpt><trkpt lat="44.970230487113405" lon="11.878088291419823"><ele>8.666666666666668</ele><time>2026-04-04T11:25:36Z</time></trkpt><trkpt lat="44.97020070541044" lon="11.877971567734159"><ele>9.333333333333334</ele><time>2026-04-04T11:25:38Z</time></trkpt><trkpt lat="44.97017461361201" lon="11.877845722148775"><ele>10.0</ele><time>2026-04-04T11:25:39.999Z</time></trkpt><trkpt lat="44.97014410594919" lon="11.877722258630785"><ele>10.166666666666668</ele><time>2026-04-04T11:25:41.999Z</time></trkpt><trkpt lat="44.97011960754638" lon="11.87759989130748"><ele>10.333333333333334</ele><time>2026-04-04T11:25:43.999Z</time></trkpt><trkpt lat="44.97010514054969" lon="11.877485718294103"><ele>10.5</ele><time>2026-04-04T11:25:45.999Z</time></trkpt><trkpt lat="44.970099648921334" lon="11.877373967252538"><ele>10.666666666666666</ele><time>2026-04-04T11:25:47.999Z</time></trkpt><trkpt lat="44.97010072633031" lon="11.877249223469068"><ele>10.833333333333332</ele><time>2026-04-04T11:25:49.999Z</time></trkpt><trkpt lat="44.97012052278388" lon="11.877118932220563"><ele>11.0</ele><time>2026-04-04T11:25:51.999Z</time></trkpt><trkpt lat="44.97014635217305" lon="11.876987392377425"><ele>11.0</ele><time>2026-04-04T11:25:53.999Z</time></trkpt><trkpt lat="44.97018113287954" lon="11.876859905903572"><ele>11.0</ele><time>2026-04-04T11:25:55.999Z</time></trkpt><trkpt lat="44.970224827273924" lon="11.87673974126398"><ele>11.0</ele><time>2026-04-04T11:25:57.999Z</time></trkpt><trkpt lat="44.97026410164722" lon="11.87661951552229"><ele>11.0</ele><time>2026-04-04T11:25:59.999Z</time></trkpt><trkpt lat="44.970306916591845" lon="11.87650234537595"><ele>11.0</ele><time>2026-04-04T11:26:01.999Z</time></trkpt><trkpt lat="44.97034479675413" lon="11.876388615111608"><ele>10.833333333333332</ele><time>2026-04-04T11:26:03.999Z</time></trkpt><trkpt lat="44.970383787786965" lon="11.876283062396816"><ele>10.666666666666666</ele><time>2026-04-04T11:26:05.999Z</time></trkpt><trkpt lat="44.970425381410614" lon="11.876184989133375"><ele>10.5</ele><time>2026-04-04T11:26:07.999Z</time></trkpt><trkpt lat="44.97046642326551" lon="11.876092364252006"><ele>10.333333333333334</ele><time>2026-04-04T11:26:09.999Z</time></trkpt><trkpt lat="44.9705019477766" lon="11.876003142084253"><ele>10.166666666666668</ele><time>2026-04-04T11:26:11.999Z</time></trkpt><trkpt lat="44.970546475375336" lon="11.875898232352586"><ele>10.0</ele><time>2026-04-04T11:26:13.999Z</time></trkpt><trkpt lat="44.9705968869836" lon="11.875793663755084"><ele>9.5</ele><time>2026-04-04T11:26:15.999Z</time></trkpt><trkpt lat="44.970640357468746" lon="11.87569306526485"><ele>9.0</ele><time>2026-04-04T11:26:17.999Z</time></trkpt><trkpt lat="44.970682160500914" lon="11.875598886559441"><ele>8.5</ele><time>2026-04-04T11:26:19.999Z</time></trkpt><trkpt lat="44.97072495227576" lon="11.87550893722859"><ele>8.0</ele><time>2026-04-04T11:26:21.999Z</time></trkpt><trkpt lat="44.97076861461006" lon="11.875399731656172"><ele>7.500000000000001</ele><time>2026-04-04T11:26:23.999Z</time></trkpt><trkpt lat="44.97081321134044" lon="11.875293420009113"><ele>7.0</ele><time>2026-04-04T11:26:25.999Z</time></trkpt><trkpt lat="44.97085368258348" lon="11.875196123163992"><ele>6.833333333333334</ele><time>2026-04-04T11:26:27.999Z</time></trkpt><trkpt lat="44.9708854691258" lon="11.87509704990327"><ele>6.666666666666667</ele><time>2026-04-04T11:26:29.999Z</time></trkpt><trkpt lat="44.97091260309034" lon="11.874982330563405"><ele>6.5</ele><time>2026-04-04T11:26:31.999Z</time></trkpt><trkpt lat="44.970946991000716" lon="11.87485722266979"><ele>6.333333333333334</ele><time>2026-04-04T11:26:33.999Z</time></trkpt><trkpt lat="44.97097601685049" lon="11.874736332177191"><ele>6.166666666666667</ele><time>2026-04-04T11:26:35.999Z</time></trkpt><trkpt lat="44.971003466620914" lon="11.874624245224668"><ele>6.0</ele><time>2026-04-04T11:26:37.999Z</time></trkpt><trkpt lat="44.97102677354427" lon="11.874513396277512"><ele>6.0</ele><time>2026-04-04T11:26:39.999Z</time></trkpt><trkpt lat="44.971042607017175" lon="11.87440521480066"><ele>6.0</ele><time>2026-04-04T11:26:41.999Z</time></trkpt><trkpt lat="44.971060986348746" lon="11.874295000436074"><ele>6.0</ele><time>2026-04-04T11:26:43.999Z</time></trkpt><trkpt lat="44.97108095389949" lon="11.874168154910132"><ele>6.0</ele><time>2026-04-04T11:26:45.999Z</time></trkpt><trkpt lat="44.9711085993129" lon="11.874041861524903"><ele>6.0</ele><time>2026-04-04T11:26:47.999Z</time></trkpt><trkpt lat="44.971129720318466" lon="11.873915241604122"><ele>6.0</ele><time>2026-04-04T11:26:49.999Z</time></trkpt><trkpt lat="44.971144530953765" lon="11.873794921771145"><ele>5.833333333333333</ele><time>2026-04-04T11:26:51.999Z</time></trkpt><trkpt lat="44.97116212684025" lon="11.873680102808844"><ele>5.666666666666667</ele><time>2026-04-04T11:26:53.999Z</time></trkpt><trkpt lat="44.97117650555929" lon="11.873571857487216"><ele>5.5</ele><time>2026-04-04T11:26:55.999Z</time></trkpt><trkpt lat="44.97118534587489" lon="11.873463711043842"><ele>5.333333333333334</ele><time>2026-04-04T11:26:57.999Z</time></trkpt><trkpt lat="44.97120355796439" lon="11.873344880767299"><ele>5.166666666666667</ele><time>2026-04-04T11:26:59.999Z</time></trkpt><trkpt lat="44.971229705830346" lon="11.873215621266196"><ele>5.0</ele><time>2026-04-04T11:27:01.999Z</time></trkpt><trkpt lat="44.971236967739486" lon="11.873086651830755"><ele>5.333333333333334</ele><time>2026-04-04T11:27:03.999Z</time></trkpt><trkpt lat="44.97125410934679" lon="11.872968726335472"><ele>5.666666666666667</ele><time>2026-04-04T11:27:05.999Z</time></trkpt><trkpt lat="44.97126552055831" lon="11.872854165380424"><ele>6.0</ele><time>2026-04-04T11:27:07.999Z</time></trkpt><trkpt lat="44.971272561373766" lon="11.87274110426998"><ele>6.333333333333334</ele><time>2026-04-04T11:27:09.999Z</time></trkpt><trkpt lat="44.971291059524326" lon="11.872618960947849"><ele>6.666666666666667</ele><time>2026-04-04T11:27:11.999Z</time></trkpt><trkpt lat="44.971301539524795" lon="11.872490171975606"><ele>7.0</ele><time>2026-04-04T11:27:13.999Z</time></trkpt><trkpt lat="44.97132110732367" lon="11.872359262766198"><ele>7.199999999999999</ele><time>2026-04-04T11:27:15.999Z</time></trkpt><trkpt lat="44.97133028742447" lon="11.872225979115633"><ele>7.3999999999999995</ele><time>2026-04-04T11:27:17.999Z</time></trkpt><trkpt lat="44.97134459376654" lon="11.872092629571794"><ele>7.6000000000000005</ele><time>2026-04-04T11:27:19.999Z</time></trkpt><trkpt lat="44.971358024677" lon="11.871959461876408"><ele>7.800000000000001</ele><time>2026-04-04T11:27:22Z</time></trkpt><trkpt lat="44.97137091457363" lon="11.87182662880299"><ele>8.0</ele><time>2026-04-04T11:27:24Z</time></trkpt><trkpt lat="44.97138365988675" lon="11.8717008367135"><ele>7.4</ele><time>2026-04-04T11:27:26Z</time></trkpt><trkpt lat="44.97139263566293" lon="11.87156596985358"><ele>6.800000000000001</ele><time>2026-04-04T11:27:28Z</time></trkpt><trkpt lat="44.97140491696734" lon="11.871431232691657"><ele>6.2</ele><time>2026-04-04T11:27:30Z</time></trkpt><trkpt lat="44.97142037536994" lon="11.871298903522266"><ele>5.6</ele><time>2026-04-04T11:27:32Z</time></trkpt><trkpt lat="44.97142844671906" lon="11.87116584504749"><ele>5.0</ele><time>2026-04-04T11:27:34Z</time></trkpt><trkpt lat="44.971436261501296" lon="11.871032399528358"><ele>4.8</ele><time>2026-04-04T11:27:36Z</time></trkpt><trkpt lat="44.97145367462447" lon="11.870900817506733"><ele>4.6</ele><time>2026-04-04T11:27:38Z</time></trkpt><trkpt lat="44.971456568087994" lon="11.870768291172544"><ele>4.4</ele><time>2026-04-04T11:27:40Z</time></trkpt><trkpt lat="44.97145878984202" lon="11.87063567681318"><ele>4.2</ele><time>2026-04-04T11:27:42Z</time></trkpt><trkpt lat="44.97146015726148" lon="11.87050758385846"><ele>4.0</ele><time>2026-04-04T11:27:44Z</time></trkpt><trkpt lat="44.971457768254595" lon="11.870373732953253"><ele>4.0</ele><time>2026-04-04T11:27:46Z</time></trkpt><trkpt lat="44.97145628136813" lon="11.870241384922872"><ele>4.0</ele><time>2026-04-04T11:27:48Z</time></trkpt><trkpt lat="44.97145562759838" lon="11.870110239241576"><ele>4.0</ele><time>2026-04-04T11:27:49.999Z</time></trkpt><trkpt lat="44.97145435064145" lon="11.869977458419532"><ele>4.0</ele><time>2026-04-04T11:27:51.999Z</time></trkpt><trkpt lat="44.97145086906389" lon="11.869842004407248"><ele>4.0</ele><time>2026-04-04T11:27:53.999Z</time></trkpt><trkpt lat="44.97144718820745" lon="11.869710022264737"><ele>4.2</ele><time>2026-04-04T11:27:55.999Z</time></trkpt><trkpt lat="44.97144246538601" lon="11.86957760178785"><ele>4.4</ele><time>2026-04-04T11:27:57.999Z</time></trkpt><trkpt lat="44.971432513380016" lon="11.869447392286972"><ele>4.6</ele><time>2026-04-04T11:27:59.999Z</time></trkpt><trkpt lat="44.97142946279496" lon="11.869319288438032"><ele>4.8</ele><time>2026-04-04T11:28:01.999Z</time></trkpt><trkpt lat="44.97142097513402" lon="11.869191578127852"><ele>5.0</ele><time>2026-04-04T11:28:03.999Z</time></trkpt><trkpt lat="44.97141181210012" lon="11.869071090716673"><ele>5.0</ele><time>2026-04-04T11:28:05.999Z</time></trkpt><trkpt lat="44.97140562103805" lon="11.86895755652748"><ele>5.0</ele><time>2026-04-04T11:28:07.999Z</time></trkpt><trkpt lat="44.97140360240445" lon="11.86885698686187"><ele>5.0</ele><time>2026-04-04T11:28:09.999Z</time></trkpt><trkpt lat="44.97139561538261" lon="11.868743029194997"><ele>5.0</ele><time>2026-04-04T11:28:11.999Z</time></trkpt><trkpt lat="44.971382666243194" lon="11.868610708190696"><ele>5.0</ele><time>2026-04-04T11:28:13.999Z</time></trkpt><trkpt lat="44.971378212600854" lon="11.868469034363322"><ele>5.0</ele><time>2026-04-04T11:28:15.999Z</time></trkpt><trkpt lat="44.971370143566816" lon="11.868322371492567"><ele>5.0</ele><time>2026-04-04T11:28:17.999Z</time></trkpt><trkpt lat="44.971358257563914" lon="11.868181824765406"><ele>5.0</ele><time>2026-04-04T11:28:19.999Z</time></trkpt><trkpt lat="44.97133918372942" lon="11.86803459680336"><ele>5.0</ele><time>2026-04-04T11:28:21.999Z</time></trkpt><trkpt lat="44.97133314336286" lon="11.867890153644462"><ele>5.0</ele><time>2026-04-04T11:28:23.999Z</time></trkpt><trkpt lat="44.97132953722777" lon="11.86775016920619"><ele>5.0</ele><time>2026-04-04T11:28:25.999Z</time></trkpt><trkpt lat="44.971314365760236" lon="11.867609317922971"><ele>5.166666666666667</ele><time>2026-04-04T11:28:27.999Z</time></trkpt><trkpt lat="44.97130243689018" lon="11.867473933948341"><ele>5.333333333333334</ele><time>2026-04-04T11:28:29.999Z</time></trkpt><trkpt lat="44.97129556918918" lon="11.867350392796398"><ele>5.5</ele><time>2026-04-04T11:28:31.999Z</time></trkpt><trkpt lat="44.97128768468575" lon="11.867236060344933"><ele>5.666666666666667</ele><time>2026-04-04T11:28:33.999Z</time></trkpt><trkpt lat="44.971279675806684" lon="11.86711468650994"><ele>5.833333333333333</ele><time>2026-04-04T11:28:35.999Z</time></trkpt><trkpt lat="44.97127027582787" lon="11.866984806938728"><ele>6.0</ele><time>2026-04-04T11:28:37.999Z</time></trkpt><trkpt lat="44.971261791008075" lon="11.86685362497586"><ele>6.6</ele><time>2026-04-04T11:28:39.999Z</time></trkpt><trkpt lat="44.97125046203187" lon="11.866724762152893"><ele>7.199999999999999</ele><time>2026-04-04T11:28:41.999Z</time></trkpt><trkpt lat="44.97123381053195" lon="11.866594350057408"><ele>7.800000000000001</ele><time>2026-04-04T11:28:43.999Z</time></trkpt><trkpt lat="44.9712236512165" lon="11.866466106640745"><ele>8.4</ele><time>2026-04-04T11:28:45.999Z</time></trkpt><trkpt lat="44.97121005325108" lon="11.866339742238132"><ele>9.0</ele><time>2026-04-04T11:28:47.999Z</time></trkpt><trkpt lat="44.97120022946066" lon="11.866222781341712"><ele>9.0</ele><time>2026-04-04T11:28:49.999Z</time></trkpt><trkpt lat="44.97119537658656" lon="11.86611318748062"><ele>9.0</ele><time>2026-04-04T11:28:51.999Z</time></trkpt><trkpt lat="44.97118068047953" lon="11.86598770231965"><ele>9.0</ele><time>2026-04-04T11:28:53.999Z</time></trkpt><trkpt lat="44.97116649965056" lon="11.865850077731686"><ele>9.0</ele><time>2026-04-04T11:28:55.999Z</time></trkpt><trkpt lat="44.971146425651455" lon="11.865716180379268"><ele>9.0</ele><time>2026-04-04T11:28:57.999Z</time></trkpt><trkpt lat="44.9711413747536" lon="11.865584684078314"><ele>9.166666666666666</ele><time>2026-04-04T11:28:59.999Z</time></trkpt><trkpt lat="44.97112824071783" lon="11.86546376373833"><ele>9.333333333333334</ele><time>2026-04-04T11:29:01.999Z</time></trkpt><trkpt lat="44.97111268489523" lon="11.86533941290322"><ele>9.5</ele><time>2026-04-04T11:29:03.999Z</time></trkpt><trkpt lat="44.97110116097228" lon="11.86521035744732"><ele>9.666666666666668</ele><time>2026-04-04T11:29:05.999Z</time></trkpt><trkpt lat="44.971089468963065" lon="11.865081364162616"><ele>9.833333333333334</ele><time>2026-04-04T11:29:07.999Z</time></trkpt><trkpt lat="44.97107675997684" lon="11.864964284234011"><ele>10.0</ele><time>2026-04-04T11:29:09.999Z</time></trkpt><trkpt lat="44.97106099099719" lon="11.86484613449189"><ele>10.5</ele><time>2026-04-04T11:29:11.999Z</time></trkpt><trkpt lat="44.97104805888717" lon="11.864719322947618"><ele>11.0</ele><time>2026-04-04T11:29:14Z</time></trkpt><trkpt lat="44.97103492348339" lon="11.864587126159055"><ele>11.5</ele><time>2026-04-04T11:29:16Z</time></trkpt><trkpt lat="44.9710224744577" lon="11.864465444316973"><ele>12.0</ele><time>2026-04-04T11:29:18Z</time></trkpt><trkpt lat="44.97100899266069" lon="11.864348755561062"><ele>12.499999999999998</ele><time>2026-04-04T11:29:20Z</time></trkpt><trkpt lat="44.97099741685922" lon="11.86423676473214"><ele>13.0</ele><time>2026-04-04T11:29:22Z</time></trkpt><trkpt lat="44.970991006165185" lon="11.864119353289222"><ele>13.2</ele><time>2026-04-04T11:29:24Z</time></trkpt><trkpt lat="44.97097038970436" lon="11.863992666935346"><ele>13.4</ele><time>2026-04-04T11:29:26Z</time></trkpt><trkpt lat="44.97095836216028" lon="11.86386622072335"><ele>13.599999999999998</ele><time>2026-04-04T11:29:28Z</time></trkpt><trkpt lat="44.97094330352437" lon="11.863735616753443"><ele>13.799999999999999</ele><time>2026-04-04T11:29:30Z</time></trkpt><trkpt lat="44.97093555643694" lon="11.863602540698688"><ele>14.0</ele><time>2026-04-04T11:29:32Z</time></trkpt><trkpt lat="44.97092280810597" lon="11.863470983838013"><ele>13.166666666666668</ele><time>2026-04-04T11:29:34Z</time></trkpt><trkpt lat="44.970908797872816" lon="11.8633402193173"><ele>12.333333333333334</ele><time>2026-04-04T11:29:36Z</time></trkpt><trkpt lat="44.97089254015163" lon="11.863213201107532"><ele>11.5</ele><time>2026-04-04T11:29:38Z</time></trkpt><trkpt lat="44.970883464836376" lon="11.863097868740258"><ele>10.666666666666668</ele><time>2026-04-04T11:29:40Z</time></trkpt><trkpt lat="44.97086999958871" lon="11.862985531733106"><ele>9.833333333333334</ele><time>2026-04-04T11:29:42Z</time></trkpt><trkpt lat="44.97085418883823" lon="11.862866201195525"><ele>9.0</ele><time>2026-04-04T11:29:44Z</time></trkpt><trkpt lat="44.97084303736235" lon="11.862735543499129"><ele>8.166666666666666</ele><time>2026-04-04T11:29:46Z</time></trkpt><trkpt lat="44.97083063899566" lon="11.862606058311455"><ele>7.333333333333333</ele><time>2026-04-04T11:29:48Z</time></trkpt><trkpt lat="44.97082184901987" lon="11.862486038973994"><ele>6.5</ele><time>2026-04-04T11:29:50Z</time></trkpt><trkpt lat="44.97080273351501" lon="11.862374187050408"><ele>5.666666666666666</ele><time>2026-04-04T11:29:52Z</time></trkpt><trkpt lat="44.970790072226535" lon="11.862263857201961"><ele>4.833333333333333</ele><time>2026-04-04T11:29:54Z</time></trkpt><trkpt lat="44.97078462693962" lon="11.862156765356925"><ele>4.0</ele><time>2026-04-04T11:29:56Z</time></trkpt><trkpt lat="44.9707701783252" lon="11.86203569657224"><ele>3.9999999999999996</ele><time>2026-04-04T11:29:58Z</time></trkpt><trkpt lat="44.97075786675007" lon="11.861909219782127"><ele>4.0</ele><time>2026-04-04T11:30:00Z</time></trkpt><trkpt lat="44.97073918595807" lon="11.861800579450751"><ele>4.0</ele><time>2026-04-04T11:30:02Z</time></trkpt><trkpt lat="44.970730327446994" lon="11.861684629513944"><ele>4.0</ele><time>2026-04-04T11:30:05Z</time></trkpt><trkpt lat="44.97071832065971" lon="11.861568993571806"><ele>3.9999999999999996</ele><time>2026-04-04T11:30:07Z</time></trkpt><trkpt lat="44.97070640096713" lon="11.861438517584252"><ele>4.0</ele><time>2026-04-04T11:30:09Z</time></trkpt><trkpt lat="44.970692829604005" lon="11.861295389188756"><ele>4.5</ele><time>2026-04-04T11:30:11Z</time></trkpt><trkpt lat="44.97067883242973" lon="11.861166866419643"><ele>5.0</ele><time>2026-04-04T11:30:13Z</time></trkpt><trkpt lat="44.9706630043246" lon="11.861047337768454"><ele>5.5</ele><time>2026-04-04T11:30:15Z</time></trkpt><trkpt lat="44.97065631025203" lon="11.860932442162666"><ele>6.0</ele><time>2026-04-04T11:30:17Z</time></trkpt><trkpt lat="44.97064200974998" lon="11.860824849105525"><ele>6.500000000000001</ele><time>2026-04-04T11:30:19Z</time></trkpt><trkpt lat="44.970633220268255" lon="11.860721984348624"><ele>7.0</ele><time>2026-04-04T11:30:21Z</time></trkpt><trkpt lat="44.97062297051772" lon="11.860615047499804"><ele>7.166666666666667</ele><time>2026-04-04T11:30:23Z</time></trkpt><trkpt lat="44.97060947080129" lon="11.860491760602876"><ele>7.333333333333334</ele><time>2026-04-04T11:30:25Z</time></trkpt><trkpt lat="44.97059480686108" lon="11.860365742555654"><ele>7.5</ele><time>2026-04-04T11:30:27Z</time></trkpt><trkpt lat="44.97058311343225" lon="11.860252992649805"><ele>7.666666666666666</ele><time>2026-04-04T11:30:29Z</time></trkpt><trkpt lat="44.97056921245466" lon="11.860147806420393"><ele>7.833333333333333</ele><time>2026-04-04T11:30:31Z</time></trkpt><trkpt lat="44.97055732681632" lon="11.86004988216476"><ele>8.0</ele><time>2026-04-04T11:30:33Z</time></trkpt><trkpt lat="44.970549934321056" lon="11.859948365395132"><ele>8.0</ele><time>2026-04-04T11:30:35Z</time></trkpt><trkpt lat="44.97053814813141" lon="11.859826513213191"><ele>8.0</ele><time>2026-04-04T11:30:37Z</time></trkpt><trkpt lat="44.97052614970471" lon="11.859697276128262"><ele>8.0</ele><time>2026-04-04T11:30:38.999Z</time></trkpt><trkpt lat="44.97051290164496" lon="11.859567621311632"><ele>8.0</ele><time>2026-04-04T11:30:40.999Z</time></trkpt><trkpt lat="44.97049834948901" lon="11.859437337341571"><ele>8.0</ele><time>2026-04-04T11:30:42.999Z</time></trkpt><trkpt lat="44.97047954195713" lon="11.85930927336245"><ele>7.666666666666666</ele><time>2026-04-04T11:30:44.999Z</time></trkpt><trkpt lat="44.97046433154275" lon="11.859181565907237"><ele>7.333333333333333</ele><time>2026-04-04T11:30:46.999Z</time></trkpt><trkpt lat="44.970453807425734" lon="11.859063932097788"><ele>7.0</ele><time>2026-04-04T11:30:48.999Z</time></trkpt><trkpt lat="44.97044603030824" lon="11.85894926578226"><ele>6.666666666666666</ele><time>2026-04-04T11:30:50.999Z</time></trkpt><trkpt lat="44.97042886284298" lon="11.85882207259162"><ele>6.333333333333333</ele><time>2026-04-04T11:30:52.999Z</time></trkpt><trkpt lat="44.970417491029814" lon="11.858694881856374"><ele>6.0</ele><time>2026-04-04T11:30:54.999Z</time></trkpt><trkpt lat="44.9704032717395" lon="11.858582124108057"><ele>6.0</ele><time>2026-04-04T11:30:56.999Z</time></trkpt><trkpt lat="44.970395258265775" lon="11.858479477797115"><ele>6.0</ele><time>2026-04-04T11:30:58.999Z</time></trkpt><trkpt lat="44.97038791716523" lon="11.858378280325601"><ele>6.0</ele><time>2026-04-04T11:31:00.999Z</time></trkpt><trkpt lat="44.97037093214084" lon="11.85827256086433"><ele>6.0</ele><time>2026-04-04T11:31:02.999Z</time></trkpt><trkpt lat="44.970360236251274" lon="11.858145880180667"><ele>6.0</ele><time>2026-04-04T11:31:04.999Z</time></trkpt><trkpt lat="44.97035146539029" lon="11.858014150789739"><ele>6.0</ele><time>2026-04-04T11:31:06.999Z</time></trkpt><trkpt lat="44.97033500885073" lon="11.857898625753469"><ele>5.5</ele><time>2026-04-04T11:31:08.999Z</time></trkpt><trkpt lat="44.97032418821345" lon="11.857785565956483"><ele>5.0</ele><time>2026-04-04T11:31:10.999Z</time></trkpt><trkpt lat="44.97030286409528" lon="11.857685042745345"><ele>4.5</ele><time>2026-04-04T11:31:12.999Z</time></trkpt><trkpt lat="44.97029977560483" lon="11.857568183346135"><ele>4.0</ele><time>2026-04-04T11:31:14.999Z</time></trkpt><trkpt lat="44.9702898509798" lon="11.857441238732912"><ele>3.5</ele><time>2026-04-04T11:31:16.999Z</time></trkpt><trkpt lat="44.97027177045342" lon="11.857328467444198"><ele>3.0</ele><time>2026-04-04T11:31:18.999Z</time></trkpt><trkpt lat="44.97026142926766" lon="11.857217896717973"><ele>3.0</ele><time>2026-04-04T11:31:21Z</time></trkpt><trkpt lat="44.97024617270747" lon="11.857098371249863"><ele>3.0</ele><time>2026-04-04T11:31:23Z</time></trkpt><trkpt lat="44.97023161458849" lon="11.856965319135726"><ele>3.0</ele><time>2026-04-04T11:31:25Z</time></trkpt><trkpt lat="44.97022263682691" lon="11.856831553574043"><ele>3.0</ele><time>2026-04-04T11:31:27Z</time></trkpt><trkpt lat="44.9702081006737" lon="11.856708547890964"><ele>3.0</ele><time>2026-04-04T11:31:29Z</time></trkpt><trkpt lat="44.97019424877639" lon="11.856590679217199"><ele>3.0</ele><time>2026-04-04T11:31:31Z</time></trkpt><trkpt lat="44.97018076150947" lon="11.856478806155096"><ele>3.0</ele><time>2026-04-04T11:31:33Z</time></trkpt><trkpt lat="44.97017000066097" lon="11.85635748214329"><ele>3.0</ele><time>2026-04-04T11:31:35Z</time></trkpt><trkpt lat="44.97016302273442" lon="11.856230282180842"><ele>3.0</ele><time>2026-04-04T11:31:37Z</time></trkpt><trkpt lat="44.97014664475044" lon="11.856100905941702"><ele>3.0</ele><time>2026-04-04T11:31:39Z</time></trkpt><trkpt lat="44.970131801950004" lon="11.855969036107428"><ele>3.0</ele><time>2026-04-04T11:31:41Z</time></trkpt><trkpt lat="44.970115230953155" lon="11.855842267070328"><ele>3.4</ele><time>2026-04-04T11:31:43Z</time></trkpt><trkpt lat="44.970105416322816" lon="11.855710419902431"><ele>3.8</ele><time>2026-04-04T11:31:45Z</time></trkpt><trkpt lat="44.970093255755586" lon="11.85558710286045"><ele>4.2</ele><time>2026-04-04T11:31:47Z</time></trkpt><trkpt lat="44.97008190496676" lon="11.855466191492699"><ele>4.6</ele><time>2026-04-04T11:31:49Z</time></trkpt><trkpt lat="44.970066996909075" lon="11.855336162706985"><ele>5.0</ele><time>2026-04-04T11:31:51Z</time></trkpt><trkpt lat="44.97005238752732" lon="11.855202002932662"><ele>5.0</ele><time>2026-04-04T11:31:53Z</time></trkpt><trkpt lat="44.9700415567156" lon="11.855075196528785"><ele>5.0</ele><time>2026-04-04T11:31:55Z</time></trkpt><trkpt lat="44.97002404534173" lon="11.854951330402411"><ele>5.0</ele><time>2026-04-04T11:31:57Z</time></trkpt><trkpt lat="44.9700095073425" lon="11.854831766297883"><ele>5.0</ele><time>2026-04-04T11:31:59Z</time></trkpt><trkpt lat="44.97000118687399" lon="11.854702137921935"><ele>5.0</ele><time>2026-04-04T11:32:01Z</time></trkpt><trkpt lat="44.969990848855886" lon="11.854571810228482"><ele>5.333333333333334</ele><time>2026-04-04T11:32:03Z</time></trkpt><trkpt lat="44.96997767118632" lon="11.854441166673316"><ele>5.666666666666667</ele><time>2026-04-04T11:32:05Z</time></trkpt><trkpt lat="44.96996086734606" lon="11.854310647745162"><ele>6.0</ele><time>2026-04-04T11:32:07Z</time></trkpt><trkpt lat="44.96994686866707" lon="11.854185033307857"><ele>6.333333333333334</ele><time>2026-04-04T11:32:09Z</time></trkpt><trkpt lat="44.96993625951959" lon="11.854067063251177"><ele>6.666666666666667</ele><time>2026-04-04T11:32:11Z</time></trkpt><trkpt lat="44.969923269827625" lon="11.853952382174716"><ele>7.0</ele><time>2026-04-04T11:32:13Z</time></trkpt><trkpt lat="44.96990655249741" lon="11.853840257981846"><ele>7.166666666666667</ele><time>2026-04-04T11:32:15Z</time></trkpt><trkpt lat="44.96989053157715" lon="11.853715683112803"><ele>7.333333333333334</ele><time>2026-04-04T11:32:17Z</time></trkpt><trkpt lat="44.96987723298309" lon="11.853586887172854"><ele>7.5</ele><time>2026-04-04T11:32:19Z</time></trkpt><trkpt lat="44.969875758612304" lon="11.853464111080733"><ele>7.666666666666666</ele><time>2026-04-04T11:32:21Z</time></trkpt><trkpt lat="44.96985894897199" lon="11.853346729164018"><ele>7.833333333333333</ele><time>2026-04-04T11:32:23Z</time></trkpt><trkpt lat="44.96984195781791" lon="11.85323552581111"><ele>8.0</ele><time>2026-04-04T11:32:25Z</time></trkpt><trkpt lat="44.969824491732844" lon="11.853112298884925"><ele>7.999999999999999</ele><time>2026-04-04T11:32:27Z</time></trkpt><trkpt lat="44.9698173972435" lon="11.85298065568966"><ele>8.0</ele><time>2026-04-04T11:32:29Z</time></trkpt><trkpt lat="44.969806637305155" lon="11.852850110427289"><ele>8.0</ele><time>2026-04-04T11:32:31Z</time></trkpt><trkpt lat="44.96979649622118" lon="11.852730755125883"><ele>8.0</ele><time>2026-04-04T11:32:33Z</time></trkpt><trkpt lat="44.969781140840425" lon="11.852614058528976"><ele>7.999999999999999</ele><time>2026-04-04T11:32:35Z</time></trkpt><trkpt lat="44.96977250574146" lon="11.852484809364242"><ele>8.0</ele><time>2026-04-04T11:32:37Z</time></trkpt><trkpt lat="44.96975667470675" lon="11.852352858989454"><ele>7.999999999999999</ele><time>2026-04-04T11:32:39Z</time></trkpt><trkpt lat="44.96974360971835" lon="11.852231567838835"><ele>8.0</ele><time>2026-04-04T11:32:41Z</time></trkpt><trkpt lat="44.96973434401088" lon="11.85211878341504"><ele>8.0</ele><time>2026-04-04T11:32:43Z</time></trkpt><trkpt lat="44.96971901366729" lon="11.852007593320273"><ele>8.0</ele><time>2026-04-04T11:32:45Z</time></trkpt><trkpt lat="44.96970640085037" lon="11.851891271385057"><ele>7.999999999999999</ele><time>2026-04-04T11:32:47Z</time></trkpt><trkpt lat="44.96969190619368" lon="11.851773162503356"><ele>8.0</ele><time>2026-04-04T11:32:49Z</time></trkpt><trkpt lat="44.96968478945354" lon="11.851667547820291"><ele>7.857142857142857</ele><time>2026-04-04T11:32:51Z</time></trkpt><trkpt lat="44.969675885286534" lon="11.85157334445717"><ele>7.7142857142857135</ele><time>2026-04-04T11:32:53Z</time></trkpt><trkpt lat="44.969667949735545" lon="11.8514735951443"><ele>7.571428571428571</ele><time>2026-04-04T11:32:55Z</time></trkpt><trkpt lat="44.96965906374089" lon="11.851359466409738"><ele>7.428571428571429</ele><time>2026-04-04T11:32:57Z</time></trkpt><trkpt lat="44.96964378272246" lon="11.851258530332395"><ele>7.285714285714286</ele><time>2026-04-04T11:32:59Z</time></trkpt><trkpt lat="44.969635519761546" lon="11.851164714125334"><ele>7.142857142857142</ele><time>2026-04-04T11:33:01Z</time></trkpt><trkpt lat="44.9696215927448" lon="11.851066068381046"><ele>7.0</ele><time>2026-04-04T11:33:02.999Z</time></trkpt><trkpt lat="44.96961207570741" lon="11.85094871922008"><ele>7.000000000000001</ele><time>2026-04-04T11:33:04.999Z</time></trkpt><trkpt lat="44.96960386851811" lon="11.850830288486527"><ele>7.0</ele><time>2026-04-04T11:33:06.999Z</time></trkpt><trkpt lat="44.96959100502235" lon="11.850722915821473"><ele>7.0</ele><time>2026-04-04T11:33:08.999Z</time></trkpt><trkpt lat="44.96958274679285" lon="11.850614899103643"><ele>7.0</ele><time>2026-04-04T11:33:10.999Z</time></trkpt><trkpt lat="44.969571914488256" lon="11.850502825694228"><ele>7.000000000000001</ele><time>2026-04-04T11:33:12.999Z</time></trkpt><trkpt lat="44.96955918393614" lon="11.85037433802584"><ele>7.0</ele><time>2026-04-04T11:33:14.999Z</time></trkpt><trkpt lat="44.96955521186956" lon="11.850241531832005"><ele>7.000000000000001</ele><time>2026-04-04T11:33:16.999Z</time></trkpt><trkpt lat="44.96954711912972" lon="11.850112486378546"><ele>7.0</ele><time>2026-04-04T11:33:18.999Z</time></trkpt><trkpt lat="44.96953164548288" lon="11.849992566787071"><ele>7.0</ele><time>2026-04-04T11:33:20.999Z</time></trkpt><trkpt lat="44.969525750284895" lon="11.849878078161474"><ele>7.0</ele><time>2026-04-04T11:33:22.999Z</time></trkpt><trkpt lat="44.969516649315956" lon="11.849767443798317"><ele>7.000000000000001</ele><time>2026-04-04T11:33:24.999Z</time></trkpt><trkpt lat="44.969506154572876" lon="11.849652600660443"><ele>7.0</ele><time>2026-04-04T11:33:27Z</time></trkpt><trkpt lat="44.969498629397485" lon="11.849530555768867"><ele>7.000000000000001</ele><time>2026-04-04T11:33:29Z</time></trkpt><trkpt lat="44.96949341331359" lon="11.849421627007075"><ele>7.0</ele><time>2026-04-04T11:33:31Z</time></trkpt><trkpt lat="44.96948903107531" lon="11.849318405546521"><ele>7.0</ele><time>2026-04-04T11:33:33Z</time></trkpt><trkpt lat="44.96947947700959" lon="11.849215294033165"><ele>7.0</ele><time>2026-04-04T11:33:35Z</time></trkpt><trkpt lat="44.969468900022264" lon="11.849109685593108"><ele>7.000000000000001</ele><time>2026-04-04T11:33:37Z</time></trkpt><trkpt lat="44.96946621011153" lon="11.848983588473278"><ele>7.0</ele><time>2026-04-04T11:33:39Z</time></trkpt><trkpt lat="44.969461949750894" lon="11.848869924482267"><ele>7.000000000000001</ele><time>2026-04-04T11:33:41Z</time></trkpt><trkpt lat="44.96945408895559" lon="11.848759270856933"><ele>7.0</ele><time>2026-04-04T11:33:43Z</time></trkpt><trkpt lat="44.96944780238804" lon="11.848648402675709"><ele>7.0</ele><time>2026-04-04T11:33:45Z</time></trkpt><trkpt lat="44.969435346356754" lon="11.848543498106054"><ele>7.0</ele><time>2026-04-04T11:33:47Z</time></trkpt><trkpt lat="44.969436554446624" lon="11.848435215950126"><ele>7.000000000000001</ele><time>2026-04-04T11:33:49Z</time></trkpt><trkpt lat="44.96943018079501" lon="11.848313630776099"><ele>7.0</ele><time>2026-04-04T11:33:51Z</time></trkpt><trkpt lat="44.969423723556645" lon="11.848198009246772"><ele>7.166666666666667</ele><time>2026-04-04T11:33:53Z</time></trkpt><trkpt lat="44.96941965417177" lon="11.848081165217014"><ele>7.333333333333334</ele><time>2026-04-04T11:33:55Z</time></trkpt><trkpt lat="44.969419155648296" lon="11.847970480049641"><ele>7.5</ele><time>2026-04-04T11:33:57Z</time></trkpt><trkpt lat="44.96940833291165" lon="11.847845287525589"><ele>7.666666666666666</ele><time>2026-04-04T11:33:59Z</time></trkpt><trkpt lat="44.96940024076102" lon="11.847717550138121"><ele>7.833333333333333</ele><time>2026-04-04T11:34:01Z</time></trkpt><trkpt lat="44.96939613902184" lon="11.847602434046038"><ele>8.0</ele><time>2026-04-04T11:34:03Z</time></trkpt><trkpt lat="44.969390347725856" lon="11.847489710717547"><ele>7.666666666666666</ele><time>2026-04-04T11:34:05Z</time></trkpt><trkpt lat="44.96938428509732" lon="11.847370920110968"><ele>7.333333333333333</ele><time>2026-04-04T11:34:07Z</time></trkpt><trkpt lat="44.969383387622784" lon="11.847237751357984"><ele>7.0</ele><time>2026-04-04T11:34:09Z</time></trkpt><trkpt lat="44.9693806053456" lon="11.84711601848162"><ele>6.666666666666666</ele><time>2026-04-04T11:34:11Z</time></trkpt><trkpt lat="44.96937882381711" lon="11.84699623962614"><ele>6.333333333333333</ele><time>2026-04-04T11:34:13Z</time></trkpt><trkpt lat="44.96936932250933" lon="11.846884784752225"><ele>6.0</ele><time>2026-04-04T11:34:15Z</time></trkpt><trkpt lat="44.969367574519346" lon="11.846776057815543"><ele>5.833333333333333</ele><time>2026-04-04T11:34:17Z</time></trkpt><trkpt lat="44.96936333363831" lon="11.846671884071661"><ele>5.666666666666667</ele><time>2026-04-04T11:34:19Z</time></trkpt><trkpt lat="44.9693540135604" lon="11.8465576669682"><ele>5.5</ele><time>2026-04-04T11:34:21Z</time></trkpt><trkpt lat="44.9693528152725" lon="11.846432208433319"><ele>5.333333333333334</ele><time>2026-04-04T11:34:23Z</time></trkpt><trkpt lat="44.96935592144157" lon="11.846319939236647"><ele>5.166666666666667</ele><time>2026-04-04T11:34:25Z</time></trkpt><trkpt lat="44.969358036655656" lon="11.846211132215894"><ele>5.0</ele><time>2026-04-04T11:34:27Z</time></trkpt><trkpt lat="44.96934943492515" lon="11.84610746823714"><ele>5.0</ele><time>2026-04-04T11:34:29Z</time></trkpt><trkpt lat="44.969344360405145" lon="11.845992439365821"><ele>5.0</ele><time>2026-04-04T11:34:31Z</time></trkpt><trkpt lat="44.96934364933659" lon="11.845877221306406"><ele>5.0</ele><time>2026-04-04T11:34:33Z</time></trkpt><trkpt lat="44.96934360624784" lon="11.84576331439348"><ele>5.0</ele><time>2026-04-04T11:34:35Z</time></trkpt><trkpt lat="44.96933905991496" lon="11.845651433316856"><ele>5.0</ele><time>2026-04-04T11:34:37Z</time></trkpt><trkpt lat="44.96933277117962" lon="11.84554510294374"><ele>5.0</ele><time>2026-04-04T11:34:39Z</time></trkpt><trkpt lat="44.96933035060577" lon="11.845439658615412"><ele>5.333333333333334</ele><time>2026-04-04T11:34:41Z</time></trkpt><trkpt lat="44.96932868993724" lon="11.845327241496594"><ele>5.666666666666667</ele><time>2026-04-04T11:34:43Z</time></trkpt><trkpt lat="44.969330685254384" lon="11.845212077669972"><ele>6.0</ele><time>2026-04-04T11:34:45Z</time></trkpt><trkpt lat="44.96932624419084" lon="11.845099379772156"><ele>6.333333333333334</ele><time>2026-04-04T11:34:47Z</time></trkpt><trkpt lat="44.96932330551929" lon="11.844993487818249"><ele>6.666666666666667</ele><time>2026-04-04T11:34:49Z</time></trkpt><trkpt lat="44.969324754066974" lon="11.844873204169353"><ele>7.0</ele><time>2026-04-04T11:34:51Z</time></trkpt><trkpt lat="44.969327241949195" lon="11.844759023344489"><ele>7.000000000000001</ele><time>2026-04-04T11:34:53Z</time></trkpt><trkpt lat="44.96932623231533" lon="11.844650834220023"><ele>7.0</ele><time>2026-04-04T11:34:55Z</time></trkpt><trkpt lat="44.969324883797285" lon="11.844537861563497"><ele>7.0</ele><time>2026-04-04T11:34:57Z</time></trkpt><trkpt lat="44.969330322274196" lon="11.844412366154623"><ele>7.0</ele><time>2026-04-04T11:34:59Z</time></trkpt><trkpt lat="44.96933286964485" lon="11.844288873433108"><ele>7.000000000000001</ele><time>2026-04-04T11:35:01Z</time></trkpt><trkpt lat="44.96932875586321" lon="11.844171656069165"><ele>7.0</ele><time>2026-04-04T11:35:03Z</time></trkpt><trkpt lat="44.96933222303079" lon="11.844052892700743"><ele>7.166666666666667</ele><time>2026-04-04T11:35:05Z</time></trkpt><trkpt lat="44.96933197974275" lon="11.843943690780698"><ele>7.333333333333334</ele><time>2026-04-04T11:35:07Z</time></trkpt><trkpt lat="44.969333935909034" lon="11.843833761629387"><ele>7.5</ele><time>2026-04-04T11:35:09Z</time></trkpt><trkpt lat="44.96933305101662" lon="11.843728692670725"><ele>7.666666666666666</ele><time>2026-04-04T11:35:11Z</time></trkpt><trkpt lat="44.96933669872277" lon="11.843604541687393"><ele>7.833333333333333</ele><time>2026-04-04T11:35:13Z</time></trkpt><trkpt lat="44.96933985708384" lon="11.843476672765076"><ele>8.0</ele><time>2026-04-04T11:35:15Z</time></trkpt><trkpt lat="44.96933957273233" lon="11.843354969393355"><ele>8.5</ele><time>2026-04-04T11:35:17Z</time></trkpt><trkpt lat="44.96934349326609" lon="11.843241348081767"><ele>9.0</ele><time>2026-04-04T11:35:19Z</time></trkpt><trkpt lat="44.969346875642096" lon="11.84313756329262"><ele>9.5</ele><time>2026-04-04T11:35:21Z</time></trkpt><trkpt lat="44.96934670895622" lon="11.843029972705049"><ele>10.0</ele><time>2026-04-04T11:35:22.999Z</time></trkpt><trkpt lat="44.96934935650898" lon="11.842906309454982"><ele>10.5</ele><time>2026-04-04T11:35:24.999Z</time></trkpt><trkpt lat="44.969353775942885" lon="11.842797377908662"><ele>11.0</ele><time>2026-04-04T11:35:26.999Z</time></trkpt><trkpt lat="44.96935905254323" lon="11.842698600139487"><ele>10.833333333333332</ele><time>2026-04-04T11:35:28.999Z</time></trkpt><trkpt lat="44.9693593407118" lon="11.842591964194149"><ele>10.666666666666666</ele><time>2026-04-04T11:35:30.999Z</time></trkpt><trkpt lat="44.96936743694751" lon="11.842470704732257"><ele>10.5</ele><time>2026-04-04T11:35:33Z</time></trkpt><trkpt lat="44.96937253454075" lon="11.842359706374763"><ele>10.333333333333334</ele><time>2026-04-04T11:35:35Z</time></trkpt><trkpt lat="44.96937820494193" lon="11.842252790034212"><ele>10.166666666666668</ele><time>2026-04-04T11:35:37Z</time></trkpt><trkpt lat="44.96939220334448" lon="11.842134500717158"><ele>10.0</ele><time>2026-04-04T11:35:39Z</time></trkpt><trkpt lat="44.96939726043385" lon="11.842015490140554"><ele>10.0</ele><time>2026-04-04T11:35:41Z</time></trkpt><trkpt lat="44.96941020892558" lon="11.841901743925028"><ele>10.0</ele><time>2026-04-04T11:35:43Z</time></trkpt><trkpt lat="44.96942724709014" lon="11.84179864953777"><ele>10.0</ele><time>2026-04-04T11:35:45Z</time></trkpt><trkpt lat="44.96943712355275" lon="11.841680929110787"><ele>10.0</ele><time>2026-04-04T11:35:47Z</time></trkpt><trkpt lat="44.96945094983078" lon="11.841570601666998"><ele>10.0</ele><time>2026-04-04T11:35:49Z</time></trkpt><trkpt lat="44.96946406762504" lon="11.841463715002222"><ele>10.0</ele><time>2026-04-04T11:35:51Z</time></trkpt><trkpt lat="44.96947998633251" lon="11.841344354046019"><ele>10.0</ele><time>2026-04-04T11:35:53Z</time></trkpt><trkpt lat="44.969496091011926" lon="11.841228563993996"><ele>10.0</ele><time>2026-04-04T11:35:55Z</time></trkpt><trkpt lat="44.969509595312196" lon="11.84112317115712"><ele>10.0</ele><time>2026-04-04T11:35:57Z</time></trkpt><trkpt lat="44.969525440902856" lon="11.841001827389192"><ele>10.0</ele><time>2026-04-04T11:35:59Z</time></trkpt><trkpt lat="44.96954756009989" lon="11.840879546768459"><ele>10.0</ele><time>2026-04-04T11:36:01Z</time></trkpt><trkpt lat="44.96956378432012" lon="11.840757985786553"><ele>10.0</ele><time>2026-04-04T11:36:03Z</time></trkpt><trkpt lat="44.96957477272848" lon="11.84064627664938"><ele>9.833333333333334</ele><time>2026-04-04T11:36:05Z</time></trkpt><trkpt lat="44.9695940380068" lon="11.840534231768507"><ele>9.666666666666668</ele><time>2026-04-04T11:36:07Z</time></trkpt><trkpt lat="44.96960464587913" lon="11.840430377061393"><ele>9.5</ele><time>2026-04-04T11:36:09Z</time></trkpt><trkpt lat="44.96962199809308" lon="11.84031961117472"><ele>9.333333333333334</ele><time>2026-04-04T11:36:11Z</time></trkpt><trkpt lat="44.96963638709001" lon="11.840205548162407"><ele>9.166666666666666</ele><time>2026-04-04T11:36:13Z</time></trkpt><trkpt lat="44.96965581759087" lon="11.840101100843588"><ele>9.0</ele><time>2026-04-04T11:36:15Z</time></trkpt><trkpt lat="44.969670047277454" lon="11.839994094961149"><ele>9.0</ele><time>2026-04-04T11:36:17Z</time></trkpt><trkpt lat="44.96968486370749" lon="11.839863416895891"><ele>9.0</ele><time>2026-04-04T11:36:19Z</time></trkpt><trkpt lat="44.969704977580406" lon="11.839731546241925"><ele>9.0</ele><time>2026-04-04T11:36:21Z</time></trkpt><trkpt lat="44.96971997179959" lon="11.83961045331279"><ele>9.0</ele><time>2026-04-04T11:36:23Z</time></trkpt><trkpt lat="44.96973705458235" lon="11.839491491881525"><ele>9.0</ele><time>2026-04-04T11:36:25Z</time></trkpt><trkpt lat="44.96974740784868" lon="11.839373823068824"><ele>9.0</ele><time>2026-04-04T11:36:27Z</time></trkpt><trkpt lat="44.96977021750033" lon="11.839262735349866"><ele>9.166666666666666</ele><time>2026-04-04T11:36:29Z</time></trkpt><trkpt lat="44.969790601416996" lon="11.839138901723395"><ele>9.333333333333334</ele><time>2026-04-04T11:36:31Z</time></trkpt><trkpt lat="44.96980794066298" lon="11.839023171203255"><ele>9.5</ele><time>2026-04-04T11:36:33Z</time></trkpt><trkpt lat="44.969817190134066" lon="11.838915988775844"><ele>9.666666666666668</ele><time>2026-04-04T11:36:35Z</time></trkpt><trkpt lat="44.969831989879324" lon="11.83881520991852"><ele>9.833333333333334</ele><time>2026-04-04T11:36:37Z</time></trkpt><trkpt lat="44.96984998762686" lon="11.83871985723269"><ele>10.0</ele><time>2026-04-04T11:36:39Z</time></trkpt><trkpt lat="44.96986149736714" lon="11.838626611505598"><ele>10.0</ele><time>2026-04-04T11:36:41Z</time></trkpt><trkpt lat="44.969877771446605" lon="11.838519984811766"><ele>10.0</ele><time>2026-04-04T11:36:43Z</time></trkpt><trkpt lat="44.96989619409622" lon="11.8383949014276"><ele>10.0</ele><time>2026-04-04T11:36:45Z</time></trkpt><trkpt lat="44.96991440112948" lon="11.838278130265524"><ele>10.0</ele><time>2026-04-04T11:36:47Z</time></trkpt><trkpt lat="44.96993287069593" lon="11.838164406495212"><ele>10.0</ele><time>2026-04-04T11:36:49Z</time></trkpt><trkpt lat="44.96994622723014" lon="11.838052725525692"><ele>10.0</ele><time>2026-04-04T11:36:51Z</time></trkpt><trkpt lat="44.96995781823777" lon="11.837943487704521"><ele>10.142857142857142</ele><time>2026-04-04T11:36:53Z</time></trkpt><trkpt lat="44.96997819994926" lon="11.837822558727915"><ele>10.285714285714286</ele><time>2026-04-04T11:36:55Z</time></trkpt><trkpt lat="44.969997938147024" lon="11.837712912057924"><ele>10.428571428571429</ele><time>2026-04-04T11:36:57Z</time></trkpt><trkpt lat="44.97001234541978" lon="11.837610030244743"><ele>10.571428571428571</ele><time>2026-04-04T11:36:59Z</time></trkpt><trkpt lat="44.97002666806123" lon="11.837510149794742"><ele>10.714285714285714</ele><time>2026-04-04T11:37:01Z</time></trkpt><trkpt lat="44.97004150454412" lon="11.837412800189659"><ele>10.857142857142858</ele><time>2026-04-04T11:37:03Z</time></trkpt><trkpt lat="44.97004894773933" lon="11.837323651854902"><ele>11.0</ele><time>2026-04-04T11:37:05Z</time></trkpt><trkpt lat="44.97006546074604" lon="11.837216236945842"><ele>10.0</ele><time>2026-04-04T11:37:07Z</time></trkpt><trkpt lat="44.97008214915715" lon="11.837099550509938"><ele>9.0</ele><time>2026-04-04T11:37:09Z</time></trkpt><trkpt lat="44.970098346984614" lon="11.836990837874264"><ele>8.0</ele><time>2026-04-04T11:37:11Z</time></trkpt><trkpt lat="44.97011225712442" lon="11.836887418275976"><ele>7.0</ele><time>2026-04-04T11:37:13Z</time></trkpt><trkpt lat="44.97012586346848" lon="11.836787391081854"><ele>6.0</ele><time>2026-04-04T11:37:15Z</time></trkpt><trkpt lat="44.970142544726095" lon="11.836676637964645"><ele>5.0</ele><time>2026-04-04T11:37:17Z</time></trkpt><trkpt lat="44.97016245523242" lon="11.836561548804955"><ele>4.833333333333334</ele><time>2026-04-04T11:37:19Z</time></trkpt><trkpt lat="44.97017760220897" lon="11.836448512043772"><ele>4.666666666666667</ele><time>2026-04-04T11:37:21Z</time></trkpt><trkpt lat="44.97019517408536" lon="11.836340277808205"><ele>4.5</ele><time>2026-04-04T11:37:23Z</time></trkpt><trkpt lat="44.970215866473964" lon="11.836215402871227"><ele>4.333333333333333</ele><time>2026-04-04T11:37:25Z</time></trkpt><trkpt lat="44.970237254051895" lon="11.836087217684742"><ele>4.166666666666666</ele><time>2026-04-04T11:37:27Z</time></trkpt><trkpt lat="44.97026040455209" lon="11.83595997818343"><ele>4.0</ele><time>2026-04-04T11:37:29Z</time></trkpt><trkpt lat="44.97028355972117" lon="11.835832406068315"><ele>4.800000000000001</ele><time>2026-04-04T11:37:31Z</time></trkpt><trkpt lat="44.970306539585984" lon="11.83570327770714"><ele>5.6000000000000005</ele><time>2026-04-04T11:37:33Z</time></trkpt><trkpt lat="44.9703302916376" lon="11.835573839257295"><ele>6.4</ele><time>2026-04-04T11:37:35Z</time></trkpt><trkpt lat="44.97035432539082" lon="11.835446844520353"><ele>7.2</ele><time>2026-04-04T11:37:37Z</time></trkpt><trkpt lat="44.970385649208765" lon="11.835320868275735"><ele>8.0</ele><time>2026-04-04T11:37:39Z</time></trkpt><trkpt lat="44.9704029281192" lon="11.835195269129915"><ele>8.333333333333332</ele><time>2026-04-04T11:37:41Z</time></trkpt><trkpt lat="44.97043128792229" lon="11.835080807488232"><ele>8.666666666666666</ele><time>2026-04-04T11:37:43Z</time></trkpt><trkpt lat="44.970453493212915" lon="11.834971323246448"><ele>9.0</ele><time>2026-04-04T11:37:45Z</time></trkpt><trkpt lat="44.97047746218247" lon="11.834860106448136"><ele>9.333333333333334</ele><time>2026-04-04T11:37:47Z</time></trkpt><trkpt lat="44.97050727918529" lon="11.834737727481874"><ele>9.666666666666668</ele><time>2026-04-04T11:37:49Z</time></trkpt><trkpt lat="44.970533635537336" lon="11.834625656915538"><ele>10.0</ele><time>2026-04-04T11:37:51Z</time></trkpt><trkpt lat="44.97055594758945" lon="11.834521709545227"><ele>10.0</ele><time>2026-04-04T11:37:53Z</time></trkpt><trkpt lat="44.970577162309844" lon="11.834425127494077"><ele>10.0</ele><time>2026-04-04T11:37:55Z</time></trkpt><trkpt lat="44.97059610738454" lon="11.834337311436565"><ele>10.0</ele><time>2026-04-04T11:37:57Z</time></trkpt><trkpt lat="44.970616422121786" lon="11.834251449606201"><ele>10.0</ele><time>2026-04-04T11:37:59Z</time></trkpt><trkpt lat="44.97064391062693" lon="11.83412091877839"><ele>10.0</ele><time>2026-04-04T11:38:02Z</time></trkpt><trkpt lat="44.970674842216" lon="11.834004043203512"><ele>10.0</ele><time>2026-04-04T11:38:04Z</time></trkpt><trkpt lat="44.970696300239815" lon="11.833888069836433"><ele>9.666666666666668</ele><time>2026-04-04T11:38:06Z</time></trkpt><trkpt lat="44.970721991447476" lon="11.833789619154787"><ele>9.333333333333334</ele><time>2026-04-04T11:38:08Z</time></trkpt><trkpt lat="44.97074038750361" lon="11.833678437056482"><ele>9.0</ele><time>2026-04-04T11:38:10Z</time></trkpt><trkpt lat="44.9707672114293" lon="11.833555696017267"><ele>8.666666666666666</ele><time>2026-04-04T11:38:12Z</time></trkpt><trkpt lat="44.970794504677876" lon="11.833431099286875"><ele>8.333333333333332</ele><time>2026-04-04T11:38:14Z</time></trkpt><trkpt lat="44.970815973725166" lon="11.833314148951123"><ele>8.0</ele><time>2026-04-04T11:38:16Z</time></trkpt><trkpt lat="44.97083814322279" lon="11.833205312523202"><ele>7.166666666666666</ele><time>2026-04-04T11:38:18Z</time></trkpt><trkpt lat="44.97085941222401" lon="11.833084714578549"><ele>6.333333333333333</ele><time>2026-04-04T11:38:20Z</time></trkpt><trkpt lat="44.970883454309636" lon="11.832960722924785"><ele>5.5</ele><time>2026-04-04T11:38:22Z</time></trkpt><trkpt lat="44.970902371520175" lon="11.83284983455804"><ele>4.666666666666666</ele><time>2026-04-04T11:38:24Z</time></trkpt><trkpt lat="44.97091919928805" lon="11.832744853152718"><ele>3.833333333333333</ele><time>2026-04-04T11:38:26Z</time></trkpt><trkpt lat="44.970931621262096" lon="11.832650769561837"><ele>3.0</ele><time>2026-04-04T11:38:28Z</time></trkpt><trkpt lat="44.970944749132336" lon="11.832556625004596"><ele>2.8333333333333335</ele><time>2026-04-04T11:38:30Z</time></trkpt><trkpt lat="44.97095593522422" lon="11.832437692015857"><ele>2.6666666666666665</ele><time>2026-04-04T11:38:32Z</time></trkpt><trkpt lat="44.97097344573695" lon="11.832322628343736"><ele>2.5</ele><time>2026-04-04T11:38:34Z</time></trkpt><trkpt lat="44.97097817313929" lon="11.8322131024444"><ele>2.333333333333333</ele><time>2026-04-04T11:38:36Z</time></trkpt><trkpt lat="44.97099870979612" lon="11.832108445765025"><ele>2.1666666666666665</ele><time>2026-04-04T11:38:38Z</time></trkpt><trkpt lat="44.97101294156769" lon="11.831987685168544"><ele>2.0</ele><time>2026-04-04T11:38:40Z</time></trkpt><trkpt lat="44.971031318336735" lon="11.831858124725542"><ele>2.0</ele><time>2026-04-04T11:38:42Z</time></trkpt><trkpt lat="44.971052430247845" lon="11.831729598043268"><ele>2.0</ele><time>2026-04-04T11:38:44Z</time></trkpt><trkpt lat="44.97107053889777" lon="11.831598537901579"><ele>2.0</ele><time>2026-04-04T11:38:46Z</time></trkpt><trkpt lat="44.97109318739362" lon="11.831471481210968"><ele>2.0</ele><time>2026-04-04T11:38:48Z</time></trkpt><trkpt lat="44.971110203908395" lon="11.831346734501757"><ele>2.0</ele><time>2026-04-04T11:38:50Z</time></trkpt><trkpt lat="44.9711335499373" lon="11.831227904467783"><ele>1.9999999999999998</ele><time>2026-04-04T11:38:52Z</time></trkpt><trkpt lat="44.97115049819008" lon="11.831113801263935"><ele>2.0</ele><time>2026-04-04T11:38:54Z</time></trkpt><trkpt lat="44.97117108923939" lon="11.831006828120774"><ele>2.0</ele><time>2026-04-04T11:38:56Z</time></trkpt><trkpt lat="44.971187995650624" lon="11.830890998834807"><ele>2.0</ele><time>2026-04-04T11:38:58Z</time></trkpt><trkpt lat="44.971214170850175" lon="11.83076906830507"><ele>1.9999999999999998</ele><time>2026-04-04T11:39:00Z</time></trkpt><trkpt lat="44.971233862426146" lon="11.830649659838887"><ele>2.0</ele><time>2026-04-04T11:39:02Z</time></trkpt><trkpt lat="44.97125746328413" lon="11.830537719368754"><ele>2.333333333333333</ele><time>2026-04-04T11:39:04Z</time></trkpt><trkpt lat="44.97126870607202" lon="11.830423025684782"><ele>2.6666666666666665</ele><time>2026-04-04T11:39:06Z</time></trkpt><trkpt lat="44.9712882882786" lon="11.830319099715492"><ele>3.0</ele><time>2026-04-04T11:39:08Z</time></trkpt><trkpt lat="44.97131008560072" lon="11.830200942084591"><ele>3.333333333333333</ele><time>2026-04-04T11:39:10Z</time></trkpt><trkpt lat="44.97133916274716" lon="11.830080433028364"><ele>3.6666666666666665</ele><time>2026-04-04T11:39:12Z</time></trkpt><trkpt lat="44.97136113997204" lon="11.82996729345028"><ele>4.0</ele><time>2026-04-04T11:39:14Z</time></trkpt><trkpt lat="44.97138710626197" lon="11.829860588311426"><ele>4.2</ele><time>2026-04-04T11:39:16Z</time></trkpt><trkpt lat="44.971420080800755" lon="11.829755549562876"><ele>4.4</ele><time>2026-04-04T11:39:18Z</time></trkpt><trkpt lat="44.97144734309376" lon="11.829632634774315"><ele>4.6</ele><time>2026-04-04T11:39:20Z</time></trkpt><trkpt lat="44.97148431714233" lon="11.82951063805173"><ele>4.8</ele><time>2026-04-04T11:39:22Z</time></trkpt><trkpt lat="44.97151180586606" lon="11.829381416987644"><ele>5.0</ele><time>2026-04-04T11:39:24Z</time></trkpt><trkpt lat="44.97154754580659" lon="11.829256482704457"><ele>5.2</ele><time>2026-04-04T11:39:26Z</time></trkpt><trkpt lat="44.97158364124105" lon="11.829137314151009"><ele>5.4</ele><time>2026-04-04T11:39:27.999Z</time></trkpt><trkpt lat="44.97162152854057" lon="11.829009428157491"><ele>5.6</ele><time>2026-04-04T11:39:29.999Z</time></trkpt><trkpt lat="44.971659916487646" lon="11.828880894238345"><ele>5.8</ele><time>2026-04-04T11:39:31.999Z</time></trkpt><trkpt lat="44.97169183054298" lon="11.828757711337596"><ele>6.0</ele><time>2026-04-04T11:39:33.999Z</time></trkpt><trkpt lat="44.97172105722207" lon="11.828631109135785"><ele>5.6</ele><time>2026-04-04T11:39:35.999Z</time></trkpt><trkpt lat="44.971757286305504" lon="11.828509302996759"><ele>5.199999999999999</ele><time>2026-04-04T11:39:37.999Z</time></trkpt><trkpt lat="44.971795352960655" lon="11.828385542345739"><ele>4.800000000000001</ele><time>2026-04-04T11:39:39.999Z</time></trkpt><trkpt lat="44.9718283536882" lon="11.82826122686333"><ele>4.4</ele><time>2026-04-04T11:39:41.999Z</time></trkpt><trkpt lat="44.97186479325712" lon="11.828137879471148"><ele>4.0</ele><time>2026-04-04T11:39:44Z</time></trkpt><trkpt lat="44.97189932042391" lon="11.82801283516922"><ele>4.0</ele><time>2026-04-04T11:39:46Z</time></trkpt><trkpt lat="44.97193662622787" lon="11.827889959582064"><ele>4.0</ele><time>2026-04-04T11:39:48Z</time></trkpt><trkpt lat="44.971972423176645" lon="11.827768948741218"><ele>4.0</ele><time>2026-04-04T11:39:50Z</time></trkpt><trkpt lat="44.97200542290733" lon="11.82764154526326"><ele>4.0</ele><time>2026-04-04T11:39:52Z</time></trkpt><trkpt lat="44.97204004362372" lon="11.827522252253647"><ele>4.0</ele><time>2026-04-04T11:39:54Z</time></trkpt><trkpt lat="44.97207519974001" lon="11.827402656217021"><ele>4.166666666666666</ele><time>2026-04-04T11:39:56Z</time></trkpt><trkpt lat="44.972106656065485" lon="11.827288673443318"><ele>4.333333333333333</ele><time>2026-04-04T11:39:58Z</time></trkpt><trkpt lat="44.97213625895565" lon="11.827180810040467"><ele>4.5</ele><time>2026-04-04T11:40:00Z</time></trkpt><trkpt lat="44.97216392765279" lon="11.827086235382057"><ele>4.666666666666667</ele><time>2026-04-04T11:40:02Z</time></trkpt><trkpt lat="44.97219242210384" lon="11.826996134656932"><ele>4.833333333333334</ele><time>2026-04-04T11:40:04Z</time></trkpt><trkpt lat="44.97223015365429" lon="11.826905097776947"><ele>5.0</ele><time>2026-04-04T11:40:06Z</time></trkpt><trkpt lat="44.97226912320247" lon="11.826791865108442"><ele>5.166666666666667</ele><time>2026-04-04T11:40:08Z</time></trkpt><trkpt lat="44.972303672175194" lon="11.826682015600278"><ele>5.333333333333334</ele><time>2026-04-04T11:40:10Z</time></trkpt><trkpt lat="44.97234359031263" lon="11.826584516756782"><ele>5.5</ele><time>2026-04-04T11:40:12Z</time></trkpt><trkpt lat="44.97237933173277" lon="11.82648557598023"><ele>5.666666666666667</ele><time>2026-04-04T11:40:14Z</time></trkpt><trkpt lat="44.972413710560055" lon="11.826388081851752"><ele>5.833333333333333</ele><time>2026-04-04T11:40:16Z</time></trkpt><trkpt lat="44.97243529710629" lon="11.826292487449454"><ele>6.0</ele><time>2026-04-04T11:40:18Z</time></trkpt><trkpt lat="44.972460837884505" lon="11.82617829633536"><ele>6.0</ele><time>2026-04-04T11:40:20Z</time></trkpt><trkpt lat="44.97248657810833" lon="11.826064251646331"><ele>6.0</ele><time>2026-04-04T11:40:22Z</time></trkpt><trkpt lat="44.97250686234723" lon="11.825962475530035"><ele>6.0</ele><time>2026-04-04T11:40:24Z</time></trkpt><trkpt lat="44.972533643061205" lon="11.825865564712837"><ele>6.0</ele><time>2026-04-04T11:40:26Z</time></trkpt><trkpt lat="44.97254715384529" lon="11.825770748013847"><ele>6.0</ele><time>2026-04-04T11:40:28Z</time></trkpt><trkpt lat="44.97257516399614" lon="11.82563346151949"><ele>6.0</ele><time>2026-04-04T11:40:31Z</time></trkpt><trkpt lat="44.97260049298558" lon="11.825518559839685"><ele>5.7142857142857135</ele><time>2026-04-04T11:40:33Z</time></trkpt><trkpt lat="44.97262412408117" lon="11.825409286325511"><ele>5.428571428571429</ele><time>2026-04-04T11:40:35Z</time></trkpt><trkpt lat="44.97265086988749" lon="11.825310004209047"><ele>5.142857142857142</ele><time>2026-04-04T11:40:37Z</time></trkpt><trkpt lat="44.972674399325406" lon="11.825215446720842"><ele>4.857142857142857</ele><time>2026-04-04T11:40:39Z</time></trkpt><trkpt lat="44.97269254581289" lon="11.82512185330169"><ele>4.571428571428571</ele><time>2026-04-04T11:40:41Z</time></trkpt><trkpt lat="44.97270767730941" lon="11.825032296950688"><ele>4.285714285714286</ele><time>2026-04-04T11:40:43Z</time></trkpt><trkpt lat="44.97272110512817" lon="11.824945214399277"><ele>4.0</ele><time>2026-04-04T11:40:45Z</time></trkpt><trkpt lat="44.97274688534552" lon="11.824836720040825"><ele>4.0</ele><time>2026-04-04T11:40:47Z</time></trkpt><trkpt lat="44.97277161568846" lon="11.824728622252472"><ele>3.9999999999999996</ele><time>2026-04-04T11:40:49Z</time></trkpt><trkpt lat="44.97279430781633" lon="11.82462274054831"><ele>4.0</ele><time>2026-04-04T11:40:51Z</time></trkpt><trkpt lat="44.9728112614673" lon="11.82452435113962"><ele>4.0</ele><time>2026-04-04T11:40:53Z</time></trkpt><trkpt lat="44.97283059077568" lon="11.824428494548574"><ele>3.9999999999999996</ele><time>2026-04-04T11:40:55Z</time></trkpt><trkpt lat="44.97284542608269" lon="11.824336815195105"><ele>4.0</ele><time>2026-04-04T11:40:57Z</time></trkpt><trkpt lat="44.97286467212522" lon="11.824232603795558"><ele>4.0</ele><time>2026-04-04T11:40:59Z</time></trkpt><trkpt lat="44.97288661040085" lon="11.824119222554804"><ele>4.0</ele><time>2026-04-04T11:41:01Z</time></trkpt><trkpt lat="44.97291018861315" lon="11.824010404861333"><ele>3.9999999999999996</ele><time>2026-04-04T11:41:03Z</time></trkpt><trkpt lat="44.972929916572234" lon="11.823905602542924"><ele>4.0</ele><time>2026-04-04T11:41:05Z</time></trkpt><trkpt lat="44.97294885333216" lon="11.823803390571209"><ele>4.0</ele><time>2026-04-04T11:41:07Z</time></trkpt><trkpt lat="44.97296879420993" lon="11.8237110819119"><ele>3.9999999999999996</ele><time>2026-04-04T11:41:09Z</time></trkpt><trkpt lat="44.972990569536776" lon="11.823618037396312"><ele>4.0</ele><time>2026-04-04T11:41:11Z</time></trkpt><trkpt lat="44.97301018325114" lon="11.823528494014106"><ele>4.0</ele><time>2026-04-04T11:41:13Z</time></trkpt><trkpt lat="44.97302974510538" lon="11.823443393095767"><ele>4.0</ele><time>2026-04-04T11:41:15Z</time></trkpt><trkpt lat="44.973046675745266" lon="11.823356568059257"><ele>3.9999999999999996</ele><time>2026-04-04T11:41:17Z</time></trkpt><trkpt lat="44.97307269306243" lon="11.823258095012273"><ele>4.0</ele><time>2026-04-04T11:41:19Z</time></trkpt><trkpt lat="44.97309663197479" lon="11.823173799523602"><ele>4.0</ele><time>2026-04-04T11:41:21Z</time></trkpt><trkpt lat="44.97311629604677" lon="11.823086496290362"><ele>3.9999999999999996</ele><time>2026-04-04T11:41:23Z</time></trkpt><trkpt lat="44.97314025671556" lon="11.82299313212752"><ele>4.0</ele><time>2026-04-04T11:41:25Z</time></trkpt><trkpt lat="44.97316372146158" lon="11.822870860416723"><ele>4.0</ele><time>2026-04-04T11:41:27Z</time></trkpt><trkpt lat="44.973197837701456" lon="11.822755272006265"><ele>3.9999999999999996</ele><time>2026-04-04T11:41:29Z</time></trkpt><trkpt lat="44.97321505878194" lon="11.822644666961866"><ele>4.0</ele><time>2026-04-04T11:41:31Z</time></trkpt><trkpt lat="44.973238332424174" lon="11.822543080362763"><ele>4.0</ele><time>2026-04-04T11:41:33Z</time></trkpt><trkpt lat="44.97326727107559" lon="11.822433153053648"><ele>4.0</ele><time>2026-04-04T11:41:35Z</time></trkpt><trkpt lat="44.97329295815252" lon="11.822310086778938"><ele>3.9999999999999996</ele><time>2026-04-04T11:41:37Z</time></trkpt><trkpt lat="44.97331843129378" lon="11.822182697571536"><ele>4.0</ele><time>2026-04-04T11:41:39Z</time></trkpt><trkpt lat="44.97334628771583" lon="11.822058894418042"><ele>4.0</ele><time>2026-04-04T11:41:41Z</time></trkpt><trkpt lat="44.97337347720036" lon="11.821940851672629"><ele>4.0</ele><time>2026-04-04T11:41:42.999Z</time></trkpt><trkpt lat="44.97340722625819" lon="11.821829926397236"><ele>4.0</ele><time>2026-04-04T11:41:44.999Z</time></trkpt><trkpt lat="44.97343348253029" lon="11.821705847626045"><ele>4.0</ele><time>2026-04-04T11:41:46.999Z</time></trkpt><trkpt lat="44.97346030971936" lon="11.821576774802352"><ele>4.0</ele><time>2026-04-04T11:41:48.999Z</time></trkpt><trkpt lat="44.973473111509534" lon="11.821444995415787"><ele>4.0</ele><time>2026-04-04T11:41:51Z</time></trkpt><trkpt lat="44.973492830094756" lon="11.82131446838135"><ele>4.0</ele><time>2026-04-04T11:41:53Z</time></trkpt><trkpt lat="44.97347068905812" lon="11.821183477096769"><ele>4.0</ele><time>2026-04-04T11:41:55Z</time></trkpt><trkpt lat="44.973391931742015" lon="11.821099012545236"><ele>4.0</ele><time>2026-04-04T11:41:57Z</time></trkpt><trkpt lat="44.97330176328079" lon="11.821050375387932"><ele>4.0</ele><time>2026-04-04T11:41:59Z</time></trkpt><trkpt lat="44.97320820939072" lon="11.821009438473242"><ele>4.2</ele><time>2026-04-04T11:42:01Z</time></trkpt><trkpt lat="44.973114147871435" lon="11.82096977807423"><ele>4.4</ele><time>2026-04-04T11:42:03Z</time></trkpt><trkpt lat="44.97301985073341" lon="11.820926054790409"><ele>4.6</ele><time>2026-04-04T11:42:05Z</time></trkpt><trkpt lat="44.97293045074507" lon="11.820880854836007"><ele>4.8</ele><time>2026-04-04T11:42:07Z</time></trkpt><trkpt lat="44.97285713589001" lon="11.820809897647143"><ele>5.0</ele><time>2026-04-04T11:42:09Z</time></trkpt><trkpt lat="44.97280272189684" lon="11.820714149880587"><ele>5.0</ele><time>2026-04-04T11:42:11Z</time></trkpt><trkpt lat="44.97276940025207" lon="11.820608765379275"><ele>5.0</ele><time>2026-04-04T11:42:13Z</time></trkpt><trkpt lat="44.97275655693217" lon="11.82051488189678"><ele>5.0</ele><time>2026-04-04T11:42:15Z</time></trkpt><trkpt lat="44.97275499232826" lon="11.82042493347603"><ele>5.0</ele><time>2026-04-04T11:42:18Z</time></trkpt><trkpt lat="44.97277485669061" lon="11.820319470961465"><ele>5.0</ele><time>2026-04-04T11:46:58Z</time></trkpt><trkpt lat="44.972792181688966" lon="11.820223141729045"><ele>5.0</ele><time>2026-04-04T11:47:01Z</time></trkpt><trkpt lat="44.97281741048463" lon="11.820120207996201"><ele>5.0</ele><time>2026-04-04T11:47:03Z</time></trkpt><trkpt lat="44.972836580643964" lon="11.820010358662607"><ele>5.0</ele><time>2026-04-04T11:47:05Z</time></trkpt><trkpt lat="44.972860612795415" lon="11.819888084404843"><ele>5.0</ele><time>2026-04-04T11:47:07Z</time></trkpt><trkpt lat="44.97288867448279" lon="11.81976279196667"><ele>5.0</ele><time>2026-04-04T11:47:09Z</time></trkpt><trkpt lat="44.972914744094325" lon="11.819638011947488"><ele>5.0</ele><time>2026-04-04T11:47:11Z</time></trkpt><trkpt lat="44.97294102777946" lon="11.819510219757174"><ele>5.0</ele><time>2026-04-04T11:47:13Z</time></trkpt><trkpt lat="44.97296622038297" lon="11.819381988446793"><ele>5.0</ele><time>2026-04-04T11:47:15Z</time></trkpt><trkpt lat="44.97299107401909" lon="11.819256480336117"><ele>5.0</ele><time>2026-04-04T11:47:17Z</time></trkpt><trkpt lat="44.97301743016137" lon="11.819130299733073"><ele>5.0</ele><time>2026-04-04T11:47:19Z</time></trkpt><trkpt lat="44.973048125987496" lon="11.819002871496048"><ele>5.0</ele><time>2026-04-04T11:47:21Z</time></trkpt><trkpt lat="44.97307346942952" lon="11.818873320128343"><ele>5.0</ele><time>2026-04-04T11:47:23Z</time></trkpt><trkpt lat="44.973100359678654" lon="11.818747686229093"><ele>5.0</ele><time>2026-04-04T11:47:25Z</time></trkpt><trkpt lat="44.97312251652795" lon="11.81862268872265"><ele>5.0</ele><time>2026-04-04T11:47:27Z</time></trkpt><trkpt lat="44.97315095053778" lon="11.81849724914694"><ele>5.0</ele><time>2026-04-04T11:47:29Z</time></trkpt><trkpt lat="44.973178547853536" lon="11.818371819550666"><ele>5.0</ele><time>2026-04-04T11:47:31Z</time></trkpt><trkpt lat="44.973203811305765" lon="11.818242040918978"><ele>5.0</ele><time>2026-04-04T11:47:33Z</time></trkpt><trkpt lat="44.97322883389288" lon="11.818117223845494"><ele>5.0</ele><time>2026-04-04T11:47:35Z</time></trkpt><trkpt lat="44.9732571811935" lon="11.817992183607776"><ele>5.0</ele><time>2026-04-04T11:47:37Z</time></trkpt><trkpt lat="44.97328095602968" lon="11.817863083527687"><ele>5.0</ele><time>2026-04-04T11:47:39Z</time></trkpt><trkpt lat="44.97330847278146" lon="11.81773239830109"><ele>5.0</ele><time>2026-04-04T11:47:41Z</time></trkpt><trkpt lat="44.973337714371326" lon="11.81760953707158"><ele>5.0</ele><time>2026-04-04T11:47:43Z</time></trkpt><trkpt lat="44.973359689899695" lon="11.817481434948025"><ele>5.0</ele><time>2026-04-04T11:47:45Z</time></trkpt><trkpt lat="44.97338885103279" lon="11.817350705231256"><ele>5.0</ele><time>2026-04-04T11:47:47Z</time></trkpt><trkpt lat="44.97341739611359" lon="11.817225904991943"><ele>5.0</ele><time>2026-04-04T11:47:49Z</time></trkpt><trkpt lat="44.97344862963046" lon="11.817097587672544"><ele>5.0</ele><time>2026-04-04T11:47:51Z</time></trkpt><trkpt lat="44.97347943721471" lon="11.816972077846714"><ele>5.0</ele><time>2026-04-04T11:47:53Z</time></trkpt><trkpt lat="44.973512287546924" lon="11.816848625780112"><ele>4.8</ele><time>2026-04-04T11:47:55Z</time></trkpt><trkpt lat="44.973541735280705" lon="11.816719664950442"><ele>4.6</ele><time>2026-04-04T11:47:57Z</time></trkpt><trkpt lat="44.9735738633399" lon="11.816599509018934"><ele>4.4</ele><time>2026-04-04T11:47:59Z</time></trkpt><trkpt lat="44.97360506283784" lon="11.816472035392717"><ele>4.2</ele><time>2026-04-04T11:48:01Z</time></trkpt><trkpt lat="44.973638061757306" lon="11.816354360194843"><ele>4.0</ele><time>2026-04-04T11:48:03Z</time></trkpt><trkpt lat="44.973674535754604" lon="11.816233190650687"><ele>4.0</ele><time>2026-04-04T11:48:05Z</time></trkpt><trkpt lat="44.97371053053546" lon="11.816109471940454"><ele>4.0</ele><time>2026-04-04T11:48:07Z</time></trkpt><trkpt lat="44.973749156620165" lon="11.815987214409162"><ele>4.0</ele><time>2026-04-04T11:48:09Z</time></trkpt><trkpt lat="44.97379479054423" lon="11.815867213374132"><ele>4.0</ele><time>2026-04-04T11:48:11Z</time></trkpt><trkpt lat="44.9738469663674" lon="11.815750544568738"><ele>4.0</ele><time>2026-04-04T11:48:13Z</time></trkpt><trkpt lat="44.973902380125594" lon="11.815636446453233"><ele>3.8000000000000003</ele><time>2026-04-04T11:48:15Z</time></trkpt><trkpt lat="44.97395820282989" lon="11.815520085557596"><ele>3.6000000000000005</ele><time>2026-04-04T11:48:17Z</time></trkpt><trkpt lat="44.97401554647508" lon="11.8154097693364"><ele>3.4</ele><time>2026-04-04T11:48:19Z</time></trkpt><trkpt lat="44.97406754679713" lon="11.815298657205622"><ele>3.2</ele><time>2026-04-04T11:48:21Z</time></trkpt><trkpt lat="44.974116405718" lon="11.81518574606214"><ele>3.0</ele><time>2026-04-04T11:48:23Z</time></trkpt><trkpt lat="44.97415566471681" lon="11.815066291868707"><ele>3.0</ele><time>2026-04-04T11:48:25Z</time></trkpt><trkpt lat="44.97417833433119" lon="11.814940443446092"><ele>3.0</ele><time>2026-04-04T11:48:27Z</time></trkpt><trkpt lat="44.97418097626765" lon="11.814820228064853"><ele>3.0</ele><time>2026-04-04T11:48:29Z</time></trkpt><trkpt lat="44.97417072211858" lon="11.814706601806616"><ele>3.0</ele><time>2026-04-04T11:48:31Z</time></trkpt><trkpt lat="44.97414146878859" lon="11.814574414197384"><ele>3.0</ele><time>2026-04-04T11:48:33Z</time></trkpt><trkpt lat="44.974090109215965" lon="11.814446853620852"><ele>3.0</ele><time>2026-04-04T11:48:35Z</time></trkpt><trkpt lat="44.97404153048875" lon="11.814324356054051"><ele>3.0</ele><time>2026-04-04T11:48:37Z</time></trkpt><trkpt lat="44.973989574446925" lon="11.814209841518359"><ele>3.0</ele><time>2026-04-04T11:48:39Z</time></trkpt><trkpt lat="44.97394475603241" lon="11.814089719050799"><ele>3.0</ele><time>2026-04-04T11:48:41Z</time></trkpt><trkpt lat="44.97389857120481" lon="11.81397121251217"><ele>3.0</ele><time>2026-04-04T11:48:43Z</time></trkpt><trkpt lat="44.97385154285362" lon="11.813852278201903"><ele>3.0</ele><time>2026-04-04T11:48:45Z</time></trkpt><trkpt lat="44.97380863409132" lon="11.813730229233997"><ele>3.0</ele><time>2026-04-04T11:48:47Z</time></trkpt><trkpt lat="44.9737650341764" lon="11.813611553654171"><ele>3.0</ele><time>2026-04-04T11:48:49Z</time></trkpt><trkpt lat="44.973730485250144" lon="11.813488598701225"><ele>3.0</ele><time>2026-04-04T11:48:51Z</time></trkpt><trkpt lat="44.97369796119253" lon="11.813361675162183"><ele>3.0</ele><time>2026-04-04T11:48:53Z</time></trkpt><trkpt lat="44.973669684336684" lon="11.81323578623666"><ele>3.0</ele><time>2026-04-04T11:48:55Z</time></trkpt><trkpt lat="44.973650306295674" lon="11.813105261690966"><ele>3.0</ele><time>2026-04-04T11:48:57Z</time></trkpt><trkpt lat="44.97363182596452" lon="11.812975264136428"><ele>3.0</ele><time>2026-04-04T11:48:59Z</time></trkpt><trkpt lat="44.97361714954924" lon="11.812846474798912"><ele>3.0</ele><time>2026-04-04T11:49:01Z</time></trkpt><trkpt lat="44.97360387444513" lon="11.812718793584855"><ele>3.0</ele><time>2026-04-04T11:49:03Z</time></trkpt><trkpt lat="44.97359438518806" lon="11.812589630477902"><ele>2.6</ele><time>2026-04-04T11:49:05Z</time></trkpt><trkpt lat="44.97359120100073" lon="11.812456871541757"><ele>2.1999999999999997</ele><time>2026-04-04T11:49:07Z</time></trkpt><trkpt lat="44.973583867134685" lon="11.812327975986738"><ele>1.8</ele><time>2026-04-04T11:49:09Z</time></trkpt><trkpt lat="44.97358329806848" lon="11.812196918671482"><ele>1.4</ele><time>2026-04-04T11:49:11Z</time></trkpt><trkpt lat="44.97357491153399" lon="11.812067852535563"><ele>1.0</ele><time>2026-04-04T11:49:13Z</time></trkpt><trkpt lat="44.973572283921975" lon="11.811933332513558"><ele>1.2000000000000002</ele><time>2026-04-04T11:49:15Z</time></trkpt><trkpt lat="44.97357016661161" lon="11.811797695428917"><ele>1.4000000000000001</ele><time>2026-04-04T11:49:17Z</time></trkpt><trkpt lat="44.97356234623261" lon="11.811660123171096"><ele>1.6</ele><time>2026-04-04T11:49:19Z</time></trkpt><trkpt lat="44.97355712223844" lon="11.811524756350245"><ele>1.8</ele><time>2026-04-04T11:49:21Z</time></trkpt><trkpt lat="44.97356054418123" lon="11.811388142238082"><ele>2.0</ele><time>2026-04-04T11:49:23Z</time></trkpt><trkpt lat="44.97355522251244" lon="11.811253684991376"><ele>2.0</ele><time>2026-04-04T11:49:25Z</time></trkpt><trkpt lat="44.973552796598184" lon="11.811120176202317"><ele>2.0</ele><time>2026-04-04T11:49:27Z</time></trkpt><trkpt lat="44.973552445533954" lon="11.810988245571084"><ele>2.0</ele><time>2026-04-04T11:49:29Z</time></trkpt><trkpt lat="44.97355849941217" lon="11.8108565050412"><ele>2.0</ele><time>2026-04-04T11:49:31Z</time></trkpt><trkpt lat="44.97354777380588" lon="11.810726400071188"><ele>2.0</ele><time>2026-04-04T11:49:33Z</time></trkpt><trkpt lat="44.973549405269125" lon="11.81059397743217"><ele>2.4000000000000004</ele><time>2026-04-04T11:49:35Z</time></trkpt><trkpt lat="44.9735450296448" lon="11.810460364387847"><ele>2.8000000000000003</ele><time>2026-04-04T11:49:37Z</time></trkpt><trkpt lat="44.97354574516131" lon="11.810328142418088"><ele>3.2</ele><time>2026-04-04T11:49:39Z</time></trkpt><trkpt lat="44.9735435829327" lon="11.810193801296112"><ele>3.6</ele><time>2026-04-04T11:49:41Z</time></trkpt><trkpt lat="44.97354894336343" lon="11.810059013004548"><ele>4.0</ele><time>2026-04-04T11:49:43Z</time></trkpt><trkpt lat="44.9735569239956" lon="11.809922651574475"><ele>4.0</ele><time>2026-04-04T11:49:45Z</time></trkpt><trkpt lat="44.97356627377377" lon="11.809786869995918"><ele>4.0</ele><time>2026-04-04T11:49:47Z</time></trkpt><trkpt lat="44.97357844613856" lon="11.80965229343539"><ele>4.0</ele><time>2026-04-04T11:49:49Z</time></trkpt><trkpt lat="44.973591934248105" lon="11.809512628091719"><ele>4.0</ele><time>2026-04-04T11:49:51Z</time></trkpt><trkpt lat="44.973603349779566" lon="11.809376758334635"><ele>4.0</ele><time>2026-04-04T11:49:53Z</time></trkpt><trkpt lat="44.973619435250114" lon="11.8092496759495"><ele>4.0</ele><time>2026-04-04T11:49:55Z</time></trkpt><trkpt lat="44.97362988068404" lon="11.809123994430191"><ele>4.0</ele><time>2026-04-04T11:49:57Z</time></trkpt><trkpt lat="44.97364192799913" lon="11.808997974576442"><ele>4.0</ele><time>2026-04-04T11:49:59Z</time></trkpt><trkpt lat="44.97365717722999" lon="11.808846575379409"><ele>4.0</ele><time>2026-04-04T11:50:01Z</time></trkpt><trkpt lat="44.97367011683194" lon="11.808687619776503"><ele>4.0</ele><time>2026-04-04T11:50:03Z</time></trkpt><trkpt lat="44.97368575931455" lon="11.808527439042937"><ele>4.2</ele><time>2026-04-04T11:50:05Z</time></trkpt><trkpt lat="44.973699471392344" lon="11.808371348487002"><ele>4.4</ele><time>2026-04-04T11:50:07Z</time></trkpt><trkpt lat="44.97371655384823" lon="11.808219598035475"><ele>4.6</ele><time>2026-04-04T11:50:09Z</time></trkpt><trkpt lat="44.97372792775782" lon="11.808071177804516"><ele>4.8</ele><time>2026-04-04T11:50:11Z</time></trkpt><trkpt lat="44.9737359898689" lon="11.807924667281801"><ele>5.0</ele><time>2026-04-04T11:50:13Z</time></trkpt><trkpt lat="44.973753403789495" lon="11.80778240914508"><ele>5.2</ele><time>2026-04-04T11:50:15Z</time></trkpt><trkpt lat="44.97377427758021" lon="11.807642784336023"><ele>5.4</ele><time>2026-04-04T11:50:17Z</time></trkpt><trkpt lat="44.973785225710046" lon="11.807503689924067"><ele>5.6</ele><time>2026-04-04T11:50:19Z</time></trkpt><trkpt lat="44.973797118793556" lon="11.807362404741289"><ele>5.8</ele><time>2026-04-04T11:50:21Z</time></trkpt><trkpt lat="44.973812140210335" lon="11.807222785049303"><ele>6.0</ele><time>2026-04-04T11:50:23Z</time></trkpt><trkpt lat="44.97382589831279" lon="11.807084389645858"><ele>6.0</ele><time>2026-04-04T11:50:25Z</time></trkpt><trkpt lat="44.97384186503707" lon="11.806948893352057"><ele>6.0</ele><time>2026-04-04T11:50:27Z</time></trkpt><trkpt lat="44.973862212499625" lon="11.806815716231997"><ele>6.0</ele><time>2026-04-04T11:50:29Z</time></trkpt><trkpt lat="44.97387887820926" lon="11.806680588804097"><ele>6.0</ele><time>2026-04-04T11:50:31Z</time></trkpt><trkpt lat="44.973900582766944" lon="11.8065507815528"><ele>6.0</ele><time>2026-04-04T11:50:33Z</time></trkpt><trkpt lat="44.97392196256434" lon="11.806422875530172"><ele>5.833333333333333</ele><time>2026-04-04T11:50:35Z</time></trkpt><trkpt lat="44.97394399949965" lon="11.8062935923453"><ele>5.666666666666667</ele><time>2026-04-04T11:50:37Z</time></trkpt><trkpt lat="44.97396754689234" lon="11.806172935982396"><ele>5.5</ele><time>2026-04-04T11:50:39Z</time></trkpt><trkpt lat="44.973991047665386" lon="11.806054957331504"><ele>5.333333333333334</ele><time>2026-04-04T11:50:41Z</time></trkpt><trkpt lat="44.97400557939061" lon="11.805934288024712"><ele>5.166666666666667</ele><time>2026-04-04T11:50:43Z</time></trkpt><trkpt lat="44.974027698924694" lon="11.805824075671746"><ele>5.0</ele><time>2026-04-04T11:50:45Z</time></trkpt><trkpt lat="44.97404652509762" lon="11.805718671294073"><ele>5.0</ele><time>2026-04-04T11:50:47Z</time></trkpt><trkpt lat="44.97406524526006" lon="11.805613763577743"><ele>5.0</ele><time>2026-04-04T11:50:49Z</time></trkpt><trkpt lat="44.974091605871" lon="11.805504503977557"><ele>5.0</ele><time>2026-04-04T11:50:51Z</time></trkpt><trkpt lat="44.974109663585516" lon="11.805373052976188"><ele>5.0</ele><time>2026-04-04T11:50:53Z</time></trkpt><trkpt lat="44.974130783041254" lon="11.805250076959547"><ele>5.0</ele><time>2026-04-04T11:50:55Z</time></trkpt><trkpt lat="44.97415146162084" lon="11.805132342006958"><ele>5.0</ele><time>2026-04-04T11:50:57Z</time></trkpt><trkpt lat="44.974163148617684" lon="11.805018713406024"><ele>4.833333333333334</ele><time>2026-04-04T11:50:59Z</time></trkpt><trkpt lat="44.97417458474594" lon="11.80490212923468"><ele>4.666666666666667</ele><time>2026-04-04T11:51:01Z</time></trkpt><trkpt lat="44.97418213420192" lon="11.804794157461828"><ele>4.5</ele><time>2026-04-04T11:51:03Z</time></trkpt><trkpt lat="44.974185821827206" lon="11.804671462986432"><ele>4.333333333333333</ele><time>2026-04-04T11:51:05Z</time></trkpt><trkpt lat="44.97417792825733" lon="11.8045472190617"><ele>4.166666666666666</ele><time>2026-04-04T11:51:07Z</time></trkpt><trkpt lat="44.974183185210364" lon="11.804434502614841"><ele>4.0</ele><time>2026-04-04T11:51:09Z</time></trkpt><trkpt lat="44.97416911525536" lon="11.8043280720372"><ele>4.0</ele><time>2026-04-04T11:51:11Z</time></trkpt><trkpt lat="44.97417034200585" lon="11.80422522486484"><ele>3.9999999999999996</ele><time>2026-04-04T11:51:13Z</time></trkpt><trkpt lat="44.97415710000155" lon="11.804125773776189"><ele>4.0</ele><time>2026-04-04T11:51:15Z</time></trkpt><trkpt lat="44.97414867638623" lon="11.80403260764012"><ele>4.0</ele><time>2026-04-04T11:51:17Z</time></trkpt><trkpt lat="44.974147691020185" lon="11.803937154228965"><ele>3.9999999999999996</ele><time>2026-04-04T11:51:19Z</time></trkpt><trkpt lat="44.974127668852574" lon="11.80382688318509"><ele>4.0</ele><time>2026-04-04T11:51:21Z</time></trkpt><trkpt lat="44.97412064990711" lon="11.803724850917233"><ele>4.0</ele><time>2026-04-04T11:51:23Z</time></trkpt><trkpt lat="44.97410482500839" lon="11.803627856637148"><ele>3.9999999999999996</ele><time>2026-04-04T11:51:25Z</time></trkpt><trkpt lat="44.97409470103739" lon="11.803529372255948"><ele>4.0</ele><time>2026-04-04T11:51:27Z</time></trkpt><trkpt lat="44.974083052745776" lon="11.803412290241596"><ele>4.0</ele><time>2026-04-04T11:51:29Z</time></trkpt><trkpt lat="44.97406411019916" lon="11.803296856949906"><ele>4.0</ele><time>2026-04-04T11:51:31Z</time></trkpt><trkpt lat="44.97404893989678" lon="11.803188704813218"><ele>3.9999999999999996</ele><time>2026-04-04T11:51:33Z</time></trkpt><trkpt lat="44.9740298243775" lon="11.803083562794141"><ele>4.0</ele><time>2026-04-04T11:51:35Z</time></trkpt><trkpt lat="44.974011644677766" lon="11.80298711276128"><ele>4.166666666666666</ele><time>2026-04-04T11:51:37Z</time></trkpt><trkpt lat="44.974003326707276" lon="11.80288724189249"><ele>4.333333333333333</ele><time>2026-04-04T11:51:39Z</time></trkpt><trkpt lat="44.973985982278286" lon="11.802773526762087"><ele>4.5</ele><time>2026-04-04T11:51:41Z</time></trkpt><trkpt lat="44.97396559261748" lon="11.802652125644405"><ele>4.666666666666667</ele><time>2026-04-04T11:51:43Z</time></trkpt><trkpt lat="44.97395031709726" lon="11.802535014997103"><ele>4.833333333333334</ele><time>2026-04-04T11:51:45Z</time></trkpt><trkpt lat="44.97392983887461" lon="11.802421668921959"><ele>5.0</ele><time>2026-04-04T11:51:47Z</time></trkpt><trkpt lat="44.97392042008492" lon="11.80231586610687"><ele>5.0</ele><time>2026-04-04T11:51:49Z</time></trkpt><trkpt lat="44.973902916735426" lon="11.802216913216983"><ele>5.0</ele><time>2026-04-04T11:51:51Z</time></trkpt><trkpt lat="44.973878486013774" lon="11.802112667130105"><ele>5.0</ele><time>2026-04-04T11:51:53Z</time></trkpt><trkpt lat="44.9738602091102" lon="11.801999444058312"><ele>5.0</ele><time>2026-04-04T11:51:55Z</time></trkpt><trkpt lat="44.97383956320133" lon="11.801885019642626"><ele>5.0</ele><time>2026-04-04T11:51:57Z</time></trkpt><trkpt lat="44.97381798146982" lon="11.801780644651865"><ele>5.0</ele><time>2026-04-04T11:51:59Z</time></trkpt><trkpt lat="44.97379406349919" lon="11.801683453826046"><ele>5.0</ele><time>2026-04-04T11:52:01Z</time></trkpt><trkpt lat="44.973770953637576" lon="11.801592081369304"><ele>5.0</ele><time>2026-04-04T11:52:03Z</time></trkpt><trkpt lat="44.97374042578642" lon="11.80148594959848"><ele>5.0</ele><time>2026-04-04T11:52:05Z</time></trkpt><trkpt lat="44.97370391963208" lon="11.801367966960825"><ele>5.0</ele><time>2026-04-04T11:52:07Z</time></trkpt><trkpt lat="44.97366202362833" lon="11.801256308668973"><ele>5.0</ele><time>2026-04-04T11:52:09Z</time></trkpt><trkpt lat="44.97363307882969" lon="11.801149961157876"><ele>5.0</ele><time>2026-04-04T11:52:11Z</time></trkpt><trkpt lat="44.97360267811301" lon="11.801046920961467"><ele>4.5</ele><time>2026-04-04T11:52:13Z</time></trkpt><trkpt lat="44.973570468928855" lon="11.800955157160708"><ele>4.0</ele><time>2026-04-04T11:52:15Z</time></trkpt><trkpt lat="44.97353875562606" lon="11.800866771458148"><ele>3.5</ele><time>2026-04-04T11:52:17Z</time></trkpt><trkpt lat="44.97350849427413" lon="11.800764435445183"><ele>3.0</ele><time>2026-04-04T11:52:19Z</time></trkpt><trkpt lat="44.97347120354909" lon="11.800651323989795"><ele>2.5</ele><time>2026-04-04T11:52:21Z</time></trkpt><trkpt lat="44.97343339211831" lon="11.800539767897495"><ele>2.0</ele><time>2026-04-04T11:52:23Z</time></trkpt><trkpt lat="44.97340090249183" lon="11.800438754302055"><ele>1.9999999999999998</ele><time>2026-04-04T11:52:25Z</time></trkpt><trkpt lat="44.9733657591151" lon="11.800341341527439"><ele>2.0</ele><time>2026-04-04T11:52:27Z</time></trkpt><trkpt lat="44.973334273771826" lon="11.80024281458376"><ele>2.0</ele><time>2026-04-04T11:52:29Z</time></trkpt><trkpt lat="44.97329677695553" lon="11.800142981911133"><ele>2.0</ele><time>2026-04-04T11:52:31Z</time></trkpt><trkpt lat="44.973260795835294" lon="11.800022498787602"><ele>1.9999999999999998</ele><time>2026-04-04T11:52:33Z</time></trkpt><trkpt lat="44.9732141347953" lon="11.799894600418655"><ele>2.0</ele><time>2026-04-04T11:52:35Z</time></trkpt><trkpt lat="44.97315241539463" lon="11.799758410098194"><ele>2.0</ele><time>2026-04-04T11:52:37Z</time></trkpt><trkpt lat="44.97308792745226" lon="11.799622822603366"><ele>2.0</ele><time>2026-04-04T11:52:39Z</time></trkpt><trkpt lat="44.97302359851757" lon="11.799504991042067"><ele>2.0</ele><time>2026-04-04T11:52:41Z</time></trkpt><trkpt lat="44.97295713032102" lon="11.79939727444444"><ele>2.0</ele><time>2026-04-04T11:52:43Z</time></trkpt><trkpt lat="44.97289069060359" lon="11.79930080011646"><ele>2.0</ele><time>2026-04-04T11:52:45Z</time></trkpt><trkpt lat="44.972819953545454" lon="11.799222388680652"><ele>1.9999999999999998</ele><time>2026-04-04T11:52:47Z</time></trkpt><trkpt lat="44.972757850938066" lon="11.799138621158761"><ele>2.0</ele><time>2026-04-04T11:52:49Z</time></trkpt><trkpt lat="44.97269975445921" lon="11.799054904900835"><ele>2.0</ele><time>2026-04-04T11:52:51Z</time></trkpt><trkpt lat="44.97263247619239" lon="11.798975335694967"><ele>2.0</ele><time>2026-04-04T11:52:53Z</time></trkpt><trkpt lat="44.97256222406508" lon="11.798896499983933"><ele>1.9999999999999998</ele><time>2026-04-04T11:52:55Z</time></trkpt><trkpt lat="44.972489522427615" lon="11.798819679051146"><ele>2.0</ele><time>2026-04-04T11:52:57Z</time></trkpt><trkpt lat="44.972415675384255" lon="11.798743100863739"><ele>2.4000000000000004</ele><time>2026-04-04T11:52:59Z</time></trkpt><trkpt lat="44.972339261906356" lon="11.798671895394024"><ele>2.8000000000000003</ele><time>2026-04-04T11:53:01Z</time></trkpt><trkpt lat="44.97225885890295" lon="11.798609749608689"><ele>3.2</ele><time>2026-04-04T11:53:03Z</time></trkpt><trkpt lat="44.972179671867146" lon="11.798543987575805"><ele>3.6</ele><time>2026-04-04T11:53:05Z</time></trkpt><trkpt lat="44.9720970625759" lon="11.79848729980682"><ele>4.0</ele><time>2026-04-04T11:53:07Z</time></trkpt><trkpt lat="44.97201913235572" lon="11.798421895415032"><ele>4.2</ele><time>2026-04-04T11:53:09Z</time></trkpt><trkpt lat="44.9719367578386" lon="11.798363746645402"><ele>4.4</ele><time>2026-04-04T11:53:11Z</time></trkpt><trkpt lat="44.97185350811002" lon="11.798308893561417"><ele>4.6</ele><time>2026-04-04T11:53:13Z</time></trkpt><trkpt lat="44.97177020887527" lon="11.79825741586211"><ele>4.8</ele><time>2026-04-04T11:53:15Z</time></trkpt><trkpt lat="44.97168927313278" lon="11.79819863581204"><ele>5.0</ele><time>2026-04-04T11:53:17Z</time></trkpt><trkpt lat="44.97160342474652" lon="11.798147205949016"><ele>5.2</ele><time>2026-04-04T11:53:19Z</time></trkpt><trkpt lat="44.971520823737166" lon="11.798090727003183"><ele>5.4</ele><time>2026-04-04T11:53:21Z</time></trkpt><trkpt lat="44.971437805133625" lon="11.798031387849646"><ele>5.6</ele><time>2026-04-04T11:53:23Z</time></trkpt><trkpt lat="44.97135621689323" lon="11.797972232222277"><ele>5.8</ele><time>2026-04-04T11:53:25Z</time></trkpt><trkpt lat="44.97127364107883" lon="11.797916609313093"><ele>6.0</ele><time>2026-04-04T11:53:27Z</time></trkpt><trkpt lat="44.971190099084346" lon="11.797862365673527"><ele>6.0</ele><time>2026-04-04T11:53:29Z</time></trkpt><trkpt lat="44.97110791617889" lon="11.79780560128059"><ele>6.0</ele><time>2026-04-04T11:53:31Z</time></trkpt><trkpt lat="44.971026534757534" lon="11.797744432336442"><ele>6.0</ele><time>2026-04-04T11:53:33Z</time></trkpt><trkpt lat="44.97094507506178" lon="11.797687138279127"><ele>6.0</ele><time>2026-04-04T11:53:35Z</time></trkpt><trkpt lat="44.97086216565791" lon="11.79763286100126"><ele>6.0</ele><time>2026-04-04T11:53:37Z</time></trkpt><trkpt lat="44.97078112665939" lon="11.79757261201534"><ele>5.3999999999999995</ele><time>2026-04-04T11:53:39Z</time></trkpt><trkpt lat="44.970697779015005" lon="11.797521258713482"><ele>4.8</ele><time>2026-04-04T11:53:41Z</time></trkpt><trkpt lat="44.97061319385883" lon="11.797466867890794"><ele>4.199999999999999</ele><time>2026-04-04T11:53:43Z</time></trkpt><trkpt lat="44.9705325845131" lon="11.79740229551143"><ele>3.5999999999999996</ele><time>2026-04-04T11:53:45Z</time></trkpt><trkpt lat="44.97045116014177" lon="11.797343855899975"><ele>3.0</ele><time>2026-04-04T11:53:47Z</time></trkpt><trkpt lat="44.970367065182664" lon="11.797284801038135"><ele>3.0</ele><time>2026-04-04T11:53:49Z</time></trkpt><trkpt lat="44.97028041723395" lon="11.797224046423816"><ele>3.0</ele><time>2026-04-04T11:53:51Z</time></trkpt><trkpt lat="44.97020312035115" lon="11.797169230765924"><ele>3.0</ele><time>2026-04-04T11:53:53Z</time></trkpt><trkpt lat="44.97012504450314" lon="11.797115740257533"><ele>3.0</ele><time>2026-04-04T11:53:55Z</time></trkpt><trkpt lat="44.97005357390687" lon="11.797057211434437"><ele>3.0</ele><time>2026-04-04T11:53:57Z</time></trkpt><trkpt lat="44.969983202952754" lon="11.79701072394809"><ele>3.0</ele><time>2026-04-04T11:53:59Z</time></trkpt><trkpt lat="44.969916536126135" lon="11.796962556994588"><ele>3.3333333333333335</ele><time>2026-04-04T11:54:01Z</time></trkpt><trkpt lat="44.969849310056205" lon="11.796895116598114"><ele>3.666666666666667</ele><time>2026-04-04T11:54:03Z</time></trkpt><trkpt lat="44.969770484938735" lon="11.796830801610843"><ele>4.0</ele><time>2026-04-04T11:54:05Z</time></trkpt><trkpt lat="44.96969436068809" lon="11.79676661860107"><ele>4.333333333333334</ele><time>2026-04-04T11:54:07Z</time></trkpt><trkpt lat="44.96962975806656" lon="11.796705235037903"><ele>4.666666666666667</ele><time>2026-04-04T11:54:09Z</time></trkpt><trkpt lat="44.969565474418125" lon="11.796653100350037"><ele>5.0</ele><time>2026-04-04T11:54:11Z</time></trkpt><trkpt lat="44.969505749629725" lon="11.796588695595867"><ele>5.0</ele><time>2026-04-04T11:54:13Z</time></trkpt><trkpt lat="44.96943147836856" lon="11.796524683570182"><ele>5.0</ele><time>2026-04-04T11:54:15Z</time></trkpt><trkpt lat="44.9693581021062" lon="11.79645348139733"><ele>5.0</ele><time>2026-04-04T11:54:17Z</time></trkpt><trkpt lat="44.969282544942914" lon="11.796378187272806"><ele>5.0</ele><time>2026-04-04T11:54:19Z</time></trkpt><trkpt lat="44.96921051965756" lon="11.796298732967493"><ele>5.0</ele><time>2026-04-04T11:54:21Z</time></trkpt><trkpt lat="44.969136368331995" lon="11.796228811182228"><ele>5.0</ele><time>2026-04-04T11:54:23Z</time></trkpt><trkpt lat="44.96906764368145" lon="11.79615723386304"><ele>5.0</ele><time>2026-04-04T11:54:25Z</time></trkpt><trkpt lat="44.969001216063965" lon="11.796083891346758"><ele>5.0</ele><time>2026-04-04T11:54:27Z</time></trkpt><trkpt lat="44.96893304828598" lon="11.796004230261651"><ele>5.0</ele><time>2026-04-04T11:54:29Z</time></trkpt><trkpt lat="44.96886845552062" lon="11.795931616606428"><ele>5.0</ele><time>2026-04-04T11:54:31Z</time></trkpt><trkpt lat="44.96880361731153" lon="11.795866212145453"><ele>5.0</ele><time>2026-04-04T11:54:33Z</time></trkpt><trkpt lat="44.96874687145953" lon="11.795792363987454"><ele>5.0</ele><time>2026-04-04T11:54:35Z</time></trkpt><trkpt lat="44.96868365881101" lon="11.795724571816288"><ele>5.0</ele><time>2026-04-04T11:54:37Z</time></trkpt><trkpt lat="44.96861308179688" lon="11.795650219067959"><ele>5.0</ele><time>2026-04-04T11:54:39Z</time></trkpt><trkpt lat="44.96854015897481" lon="11.795564970171478"><ele>5.0</ele><time>2026-04-04T11:54:41Z</time></trkpt><trkpt lat="44.96846599695921" lon="11.795482942348423"><ele>5.0</ele><time>2026-04-04T11:54:43Z</time></trkpt><trkpt lat="44.96839543786014" lon="11.795394477643153"><ele>5.0</ele><time>2026-04-04T11:54:45Z</time></trkpt><trkpt lat="44.968321599990375" lon="11.795306540640837"><ele>4.6</ele><time>2026-04-04T11:54:47Z</time></trkpt><trkpt lat="44.96824631728976" lon="11.795228193195447"><ele>4.2</ele><time>2026-04-04T11:54:49Z</time></trkpt><trkpt lat="44.968170612879696" lon="11.795137122199073"><ele>3.8</ele><time>2026-04-04T11:54:51Z</time></trkpt><trkpt lat="44.96809325136726" lon="11.795054011412653"><ele>3.4</ele><time>2026-04-04T11:54:53Z</time></trkpt><trkpt lat="44.96801709168591" lon="11.794968813790366"><ele>3.0</ele><time>2026-04-04T11:54:55Z</time></trkpt><trkpt lat="44.967938309024575" lon="11.794888765981385"><ele>2.8</ele><time>2026-04-04T11:54:57Z</time></trkpt><trkpt lat="44.96786014395031" lon="11.794805703114202"><ele>2.5999999999999996</ele><time>2026-04-04T11:54:59Z</time></trkpt><trkpt lat="44.96778079309854" lon="11.794726480841753"><ele>2.4000000000000004</ele><time>2026-04-04T11:55:01Z</time></trkpt><trkpt lat="44.96770174744416" lon="11.79463657778472"><ele>2.2</ele><time>2026-04-04T11:55:03Z</time></trkpt><trkpt lat="44.967621373222435" lon="11.794555291388336"><ele>2.0</ele><time>2026-04-04T11:55:05Z</time></trkpt><trkpt lat="44.967539334924204" lon="11.794469809096409"><ele>2.2</ele><time>2026-04-04T11:55:07Z</time></trkpt><trkpt lat="44.96745915645827" lon="11.794388144639775"><ele>2.4000000000000004</ele><time>2026-04-04T11:55:09Z</time></trkpt><trkpt lat="44.967381247196016" lon="11.794305656467609"><ele>2.5999999999999996</ele><time>2026-04-04T11:55:11Z</time></trkpt><trkpt lat="44.96730169823122" lon="11.794221022291376"><ele>2.8</ele><time>2026-04-04T11:55:13Z</time></trkpt><trkpt lat="44.96722110880182" lon="11.79413891408941"><ele>3.0</ele><time>2026-04-04T11:55:15Z</time></trkpt><trkpt lat="44.967149390610764" lon="11.794049670151779"><ele>3.0</ele><time>2026-04-04T11:55:17Z</time></trkpt><trkpt lat="44.96707719156074" lon="11.793960515287676"><ele>3.0</ele><time>2026-04-04T11:55:19Z</time></trkpt><trkpt lat="44.96700587650599" lon="11.79387766485786"><ele>3.0</ele><time>2026-04-04T11:55:21Z</time></trkpt><trkpt lat="44.96693120553481" lon="11.79379382673321"><ele>3.0</ele><time>2026-04-04T11:55:23Z</time></trkpt><trkpt lat="44.96685970355021" lon="11.793712597296917"><ele>3.0</ele><time>2026-04-04T11:55:25Z</time></trkpt><trkpt lat="44.96679356055336" lon="11.793635639690805"><ele>3.0</ele><time>2026-04-04T11:55:27Z</time></trkpt><trkpt lat="44.966721858556255" lon="11.793556391039372"><ele>3.0</ele><time>2026-04-04T11:55:29Z</time></trkpt><trkpt lat="44.966651468017695" lon="11.793475909336449"><ele>3.0</ele><time>2026-04-04T11:55:31Z</time></trkpt><trkpt lat="44.96658283509731" lon="11.793397476768428"><ele>3.0</ele><time>2026-04-04T11:55:33Z</time></trkpt><trkpt lat="44.966518894328146" lon="11.793326195021326"><ele>3.0</ele><time>2026-04-04T11:55:35Z</time></trkpt><trkpt lat="44.96645916619848" lon="11.793258362651457"><ele>3.0</ele><time>2026-04-04T11:55:37Z</time></trkpt><trkpt lat="44.96640155319221" lon="11.793195454628862"><ele>3.1666666666666665</ele><time>2026-04-04T11:55:39Z</time></trkpt><trkpt lat="44.966348893198685" lon="11.793132772420407"><ele>3.333333333333333</ele><time>2026-04-04T11:55:41Z</time></trkpt><trkpt lat="44.9663003526301" lon="11.793075554826704"><ele>3.5</ele><time>2026-04-04T11:55:43Z</time></trkpt><trkpt lat="44.966235553983644" lon="11.792991367213274"><ele>3.6666666666666665</ele><time>2026-04-04T11:55:46Z</time></trkpt><trkpt lat="44.966179366026594" lon="11.792934138908311"><ele>3.833333333333333</ele><time>2026-04-04T11:55:48Z</time></trkpt><trkpt lat="44.966115731107635" lon="11.792852782532433"><ele>4.0</ele><time>2026-04-04T11:55:50Z</time></trkpt><trkpt lat="44.96605515894432" lon="11.792785505510135"><ele>3.9999999999999996</ele><time>2026-04-04T11:55:52Z</time></trkpt><trkpt lat="44.96600019959596" lon="11.79272065047976"><ele>4.0</ele><time>2026-04-04T11:55:54Z</time></trkpt><trkpt lat="44.96594938819856" lon="11.792657698525092"><ele>4.0</ele><time>2026-04-04T11:55:56Z</time></trkpt><trkpt lat="44.96588443897737" lon="11.792586212462162"><ele>4.0</ele><time>2026-04-04T11:55:58Z</time></trkpt><trkpt lat="44.96581676620921" lon="11.792511600142523"><ele>3.9999999999999996</ele><time>2026-04-04T11:56:00Z</time></trkpt><trkpt lat="44.96575909691175" lon="11.792435680862996"><ele>4.0</ele><time>2026-04-04T11:56:02Z</time></trkpt><trkpt lat="44.965699642685586" lon="11.792375548659201"><ele>4.166666666666666</ele><time>2026-04-04T11:56:04Z</time></trkpt><trkpt lat="44.96564716940559" lon="11.792307256866597"><ele>4.333333333333333</ele><time>2026-04-04T11:56:06Z</time></trkpt><trkpt lat="44.965595786771566" lon="11.792245089454187"><ele>4.5</ele><time>2026-04-04T11:56:08Z</time></trkpt><trkpt lat="44.96554078659933" lon="11.792181225626841"><ele>4.666666666666667</ele><time>2026-04-04T11:56:10Z</time></trkpt><trkpt lat="44.9654693404021" lon="11.792105534278114"><ele>4.833333333333334</ele><time>2026-04-04T11:56:12Z</time></trkpt><trkpt lat="44.965397060222564" lon="11.792020908208327"><ele>5.0</ele><time>2026-04-04T11:56:14Z</time></trkpt><trkpt lat="44.96532408491732" lon="11.791937817227764"><ele>5.0</ele><time>2026-04-04T11:56:16Z</time></trkpt><trkpt lat="44.96525711836473" lon="11.791847982945141"><ele>5.0</ele><time>2026-04-04T11:56:18Z</time></trkpt><trkpt lat="44.965185194545185" lon="11.791764019542212"><ele>5.0</ele><time>2026-04-04T11:56:20Z</time></trkpt><trkpt lat="44.96511351376266" lon="11.791682904238572"><ele>5.0</ele><time>2026-04-04T11:56:22Z</time></trkpt><trkpt lat="44.96504253491632" lon="11.79159667446548"><ele>5.0</ele><time>2026-04-04T11:56:24Z</time></trkpt><trkpt lat="44.964979660854105" lon="11.791520676495729"><ele>5.5</ele><time>2026-04-04T11:56:26Z</time></trkpt><trkpt lat="44.96491706899218" lon="11.791453629663476"><ele>6.0</ele><time>2026-04-04T11:56:28Z</time></trkpt><trkpt lat="44.964856338646705" lon="11.791381648012665"><ele>6.5</ele><time>2026-04-04T11:56:30Z</time></trkpt><trkpt lat="44.96479195965676" lon="11.791318530255635"><ele>7.0</ele><time>2026-04-04T11:56:32Z</time></trkpt><trkpt lat="44.96472871252018" lon="11.791232442802599"><ele>7.499999999999999</ele><time>2026-04-04T11:56:34Z</time></trkpt><trkpt lat="44.964652979419164" lon="11.791147488405716"><ele>8.0</ele><time>2026-04-04T11:56:36Z</time></trkpt><trkpt lat="44.964582927320215" lon="11.791073690568737"><ele>7.999999999999999</ele><time>2026-04-04T11:56:38Z</time></trkpt><trkpt lat="44.96451713626712" lon="11.790997591985032"><ele>8.0</ele><time>2026-04-04T11:56:40Z</time></trkpt><trkpt lat="44.964461195052195" lon="11.790920051163242"><ele>8.0</ele><time>2026-04-04T11:56:42Z</time></trkpt><trkpt lat="44.96439907732793" lon="11.790851667296634"><ele>8.0</ele><time>2026-04-04T11:56:44Z</time></trkpt><trkpt lat="44.96433136882173" lon="11.7907660772751"><ele>7.999999999999999</ele><time>2026-04-04T11:56:46Z</time></trkpt><trkpt lat="44.96426459912856" lon="11.79068279870177"><ele>8.0</ele><time>2026-04-04T11:56:48Z</time></trkpt><trkpt lat="44.96420228036399" lon="11.790612480440535"><ele>8.0</ele><time>2026-04-04T11:56:50Z</time></trkpt><trkpt lat="44.964146361875834" lon="11.790546900468375"><ele>7.999999999999999</ele><time>2026-04-04T11:56:52Z</time></trkpt><trkpt lat="44.96409080902619" lon="11.790484352679464"><ele>8.0</ele><time>2026-04-04T11:56:54Z</time></trkpt><trkpt lat="44.96403793456826" lon="11.790423276086722"><ele>8.0</ele><time>2026-04-04T11:56:56Z</time></trkpt><trkpt lat="44.96397414795292" lon="11.79035037084846"><ele>7.999999999999999</ele><time>2026-04-04T11:56:58Z</time></trkpt><trkpt lat="44.96391585532543" lon="11.790272882290399"><ele>8.0</ele><time>2026-04-04T11:57:00Z</time></trkpt><trkpt lat="44.96386084049638" lon="11.790208657622063"><ele>8.0</ele><time>2026-04-04T11:57:02Z</time></trkpt><trkpt lat="44.96381146321176" lon="11.790147070079371"><ele>8.200000000000001</ele><time>2026-04-04T11:57:04Z</time></trkpt><trkpt lat="44.963735746189364" lon="11.790060137188467"><ele>8.4</ele><time>2026-04-04T11:57:07Z</time></trkpt><trkpt lat="44.96367418983002" lon="11.789981953068692"><ele>8.600000000000001</ele><time>2026-04-04T11:57:09Z</time></trkpt><trkpt lat="44.96360361006018" lon="11.7899024861884"><ele>8.8</ele><time>2026-04-04T11:57:11Z</time></trkpt><trkpt lat="44.96352939403006" lon="11.789819839066467"><ele>9.0</ele><time>2026-04-04T11:57:13Z</time></trkpt><trkpt lat="44.9634579582178" lon="11.7897338100337"><ele>9.0</ele><time>2026-04-04T11:57:15Z</time></trkpt><trkpt lat="44.963386629083864" lon="11.789650127183751"><ele>9.0</ele><time>2026-04-04T11:57:17Z</time></trkpt><trkpt lat="44.963315420543445" lon="11.789565617739461"><ele>9.0</ele><time>2026-04-04T11:57:19Z</time></trkpt><trkpt lat="44.96324545587353" lon="11.789488669121399"><ele>9.0</ele><time>2026-04-04T11:57:21Z</time></trkpt><trkpt lat="44.96318006240497" lon="11.7894096258214"><ele>9.0</ele><time>2026-04-04T11:57:23Z</time></trkpt><trkpt lat="44.963116903788446" lon="11.789338936586772"><ele>9.0</ele><time>2026-04-04T11:57:25Z</time></trkpt><trkpt lat="44.96305391753291" lon="11.78926439638945"><ele>9.6</ele><time>2026-04-04T11:57:27Z</time></trkpt><trkpt lat="44.96298580895183" lon="11.789182655206956"><ele>10.2</ele><time>2026-04-04T11:57:29Z</time></trkpt><trkpt lat="44.96291449933089" lon="11.789097262528289"><ele>10.799999999999999</ele><time>2026-04-04T11:57:31Z</time></trkpt><trkpt lat="44.962844063922645" lon="11.789013735850077"><ele>11.4</ele><time>2026-04-04T11:57:33Z</time></trkpt><trkpt lat="44.9627743657772" lon="11.788932963199004"><ele>12.0</ele><time>2026-04-04T11:57:35Z</time></trkpt><trkpt lat="44.96270297913945" lon="11.788847642470577"><ele>12.0</ele><time>2026-04-04T11:57:37Z</time></trkpt><trkpt lat="44.96263412824627" lon="11.78876200889669"><ele>12.0</ele><time>2026-04-04T11:57:39Z</time></trkpt><trkpt lat="44.962562188180904" lon="11.788680503003777"><ele>12.0</ele><time>2026-04-04T11:57:41Z</time></trkpt><trkpt lat="44.96249685871121" lon="11.78861421961904"><ele>12.0</ele><time>2026-04-04T11:57:43Z</time></trkpt><trkpt lat="44.96244284790596" lon="11.788541809182929"><ele>12.0</ele><time>2026-04-04T11:57:45Z</time></trkpt><trkpt lat="44.96239050543993" lon="11.788475957581484"><ele>12.0</ele><time>2026-04-04T11:57:47Z</time></trkpt><trkpt lat="44.96233935926223" lon="11.788407666269316"><ele>12.0</ele><time>2026-04-04T11:57:49Z</time></trkpt><trkpt lat="44.96227883380589" lon="11.788317876847675"><ele>12.0</ele><time>2026-04-04T11:57:51Z</time></trkpt><trkpt lat="44.96221947999211" lon="11.788220449709945"><ele>12.0</ele><time>2026-04-04T11:57:53Z</time></trkpt><trkpt lat="44.96216595946571" lon="11.788118293100007"><ele>12.0</ele><time>2026-04-04T11:57:55Z</time></trkpt><trkpt lat="44.96211783695789" lon="11.78802663021891"><ele>12.0</ele><time>2026-04-04T11:57:57Z</time></trkpt><trkpt lat="44.962064611533734" lon="11.787931144539826"><ele>12.0</ele><time>2026-04-04T11:57:59Z</time></trkpt><trkpt lat="44.962011812949044" lon="11.787826811401784"><ele>12.0</ele><time>2026-04-04T11:58:01Z</time></trkpt><trkpt lat="44.96195740259606" lon="11.787725209489972"><ele>12.0</ele><time>2026-04-04T11:58:03Z</time></trkpt><trkpt lat="44.96190585938444" lon="11.787625163447371"><ele>12.0</ele><time>2026-04-04T11:58:05Z</time></trkpt><trkpt lat="44.96185931538606" lon="11.787533815307972"><ele>12.0</ele><time>2026-04-04T11:58:07Z</time></trkpt><trkpt lat="44.96180935416498" lon="11.787437884579989"><ele>12.0</ele><time>2026-04-04T11:58:09Z</time></trkpt><trkpt lat="44.961756377594156" lon="11.787329240728464"><ele>12.0</ele><time>2026-04-04T11:58:11Z</time></trkpt><trkpt lat="44.96170323907446" lon="11.787232655456885"><ele>11.666666666666666</ele><time>2026-04-04T11:58:13Z</time></trkpt><trkpt lat="44.96165509972599" lon="11.787138303274928"><ele>11.333333333333334</ele><time>2026-04-04T11:58:15Z</time></trkpt><trkpt lat="44.96160918677279" lon="11.78705248185407"><ele>11.0</ele><time>2026-04-04T11:58:17Z</time></trkpt><trkpt lat="44.961567060527834" lon="11.786967990550915"><ele>10.666666666666668</ele><time>2026-04-04T11:58:19Z</time></trkpt><trkpt lat="44.96152081312527" lon="11.786872089790391"><ele>10.333333333333334</ele><time>2026-04-04T11:58:21Z</time></trkpt><trkpt lat="44.961464835405906" lon="11.786770149220144"><ele>10.0</ele><time>2026-04-04T11:58:23Z</time></trkpt><trkpt lat="44.96141376217299" lon="11.78666527331838"><ele>10.0</ele><time>2026-04-04T11:58:25Z</time></trkpt><trkpt lat="44.961357081296164" lon="11.786557996245762"><ele>10.0</ele><time>2026-04-04T11:58:27Z</time></trkpt><trkpt lat="44.9613075540436" lon="11.786454997699675"><ele>10.0</ele><time>2026-04-04T11:58:29Z</time></trkpt><trkpt lat="44.961249467511514" lon="11.786350470715101"><ele>10.0</ele><time>2026-04-04T11:58:31Z</time></trkpt><trkpt lat="44.96119650881585" lon="11.78624062538424"><ele>10.0</ele><time>2026-04-04T11:58:33Z</time></trkpt><trkpt lat="44.96114008218266" lon="11.786135231154582"><ele>10.0</ele><time>2026-04-04T11:58:35Z</time></trkpt><trkpt lat="44.96109158142845" lon="11.78603452689816"><ele>10.0</ele><time>2026-04-04T11:58:37Z</time></trkpt><trkpt lat="44.96104405277415" lon="11.785942516562468"><ele>10.0</ele><time>2026-04-04T11:58:39Z</time></trkpt><trkpt lat="44.96099968632631" lon="11.785854164886619"><ele>10.0</ele><time>2026-04-04T11:58:41Z</time></trkpt><trkpt lat="44.96095902506092" lon="11.785775259638644"><ele>10.0</ele><time>2026-04-04T11:58:43Z</time></trkpt><trkpt lat="44.96091667012454" lon="11.785685210381402"><ele>10.0</ele><time>2026-04-04T11:58:45Z</time></trkpt><trkpt lat="44.96086316121595" lon="11.785584353228868"><ele>10.2</ele><time>2026-04-04T11:58:47Z</time></trkpt><trkpt lat="44.96081005209966" lon="11.785478274280345"><ele>10.4</ele><time>2026-04-04T11:58:49Z</time></trkpt><trkpt lat="44.96075448562472" lon="11.785370628974027"><ele>10.600000000000001</ele><time>2026-04-04T11:58:51Z</time></trkpt><trkpt lat="44.960699793132015" lon="11.78526506997267"><ele>10.8</ele><time>2026-04-04T11:58:53Z</time></trkpt><trkpt lat="44.96064404210141" lon="11.785156239776082"><ele>11.0</ele><time>2026-04-04T11:58:55Z</time></trkpt><trkpt lat="44.96058690736587" lon="11.785047953703204"><ele>11.0</ele><time>2026-04-04T11:58:57Z</time></trkpt><trkpt lat="44.96053134414231" lon="11.784934911235409"><ele>11.0</ele><time>2026-04-04T11:58:59Z</time></trkpt><trkpt lat="44.96047697506106" lon="11.784821015700869"><ele>11.0</ele><time>2026-04-04T11:59:01Z</time></trkpt><trkpt lat="44.96042141642192" lon="11.784714833746605"><ele>11.0</ele><time>2026-04-04T11:59:03Z</time></trkpt><trkpt lat="44.9603749563566" lon="11.784596375879058"><ele>11.0</ele><time>2026-04-04T11:59:05Z</time></trkpt><trkpt lat="44.9603375100471" lon="11.784474944700122"><ele>11.0</ele><time>2026-04-04T11:59:07Z</time></trkpt><trkpt lat="44.96031343165312" lon="11.784344510575721"><ele>11.0</ele><time>2026-04-04T11:59:09Z</time></trkpt><trkpt lat="44.96030185551045" lon="11.784216151858129"><ele>11.0</ele><time>2026-04-04T11:59:11Z</time></trkpt><trkpt lat="44.960300357258106" lon="11.784086459691245"><ele>11.0</ele><time>2026-04-04T11:59:13Z</time></trkpt><trkpt lat="44.960305274616175" lon="11.783955367386008"><ele>11.0</ele><time>2026-04-04T11:59:15Z</time></trkpt><trkpt lat="44.96031302312562" lon="11.783827456460036"><ele>11.0</ele><time>2026-04-04T11:59:17Z</time></trkpt><trkpt lat="44.96032212655562" lon="11.783700261333276"><ele>11.0</ele><time>2026-04-04T11:59:19Z</time></trkpt><trkpt lat="44.960329312623095" lon="11.783569777574657"><ele>11.0</ele><time>2026-04-04T11:59:21Z</time></trkpt><trkpt lat="44.96033790589498" lon="11.783439722131542"><ele>11.0</ele><time>2026-04-04T11:59:23Z</time></trkpt><trkpt lat="44.96034744049029" lon="11.783306001613438"><ele>11.0</ele><time>2026-04-04T11:59:25Z</time></trkpt><trkpt lat="44.96035372368036" lon="11.78317291871216"><ele>11.0</ele><time>2026-04-04T11:59:27Z</time></trkpt><trkpt lat="44.96035634296618" lon="11.78304364185704"><ele>11.0</ele><time>2026-04-04T11:59:29Z</time></trkpt><trkpt lat="44.96036634790561" lon="11.78290957948228"><ele>11.0</ele><time>2026-04-04T11:59:31Z</time></trkpt><trkpt lat="44.96037860590901" lon="11.782776365997167"><ele>11.0</ele><time>2026-04-04T11:59:33Z</time></trkpt><trkpt lat="44.960377938099526" lon="11.782641470485604"><ele>11.0</ele><time>2026-04-04T11:59:35Z</time></trkpt><trkpt lat="44.96038428135947" lon="11.782507209931776"><ele>10.8</ele><time>2026-04-04T11:59:37Z</time></trkpt><trkpt lat="44.96039610051197" lon="11.7823705597398"><ele>10.600000000000001</ele><time>2026-04-04T11:59:39Z</time></trkpt><trkpt lat="44.96040663225218" lon="11.782236227114188"><ele>10.4</ele><time>2026-04-04T11:59:41Z</time></trkpt><trkpt lat="44.960408955237504" lon="11.782099093664048"><ele>10.2</ele><time>2026-04-04T11:59:43Z</time></trkpt><trkpt lat="44.96041698939177" lon="11.781968820886181"><ele>10.0</ele><time>2026-04-04T11:59:45Z</time></trkpt><trkpt lat="44.96042521050818" lon="11.781838782892804"><ele>10.5</ele><time>2026-04-04T11:59:47Z</time></trkpt><trkpt lat="44.960434727193906" lon="11.78171484829613"><ele>11.0</ele><time>2026-04-04T11:59:49Z</time></trkpt><trkpt lat="44.96044665297186" lon="11.781594261745813"><ele>11.5</ele><time>2026-04-04T11:59:51Z</time></trkpt><trkpt lat="44.960462417300086" lon="11.78147639443903"><ele>12.0</ele><time>2026-04-04T11:59:53Z</time></trkpt><trkpt lat="44.960470369753786" lon="11.781342981136769"><ele>12.499999999999998</ele><time>2026-04-04T11:59:55Z</time></trkpt><trkpt lat="44.96047647922565" lon="11.78120864275882"><ele>13.0</ele><time>2026-04-04T11:59:57Z</time></trkpt><trkpt lat="44.960481452676326" lon="11.781068819465956"><ele>12.499999999999998</ele><time>2026-04-04T11:59:59Z</time></trkpt><trkpt lat="44.96048556338584" lon="11.7809339223206"><ele>12.0</ele><time>2026-04-04T12:00:01Z</time></trkpt><trkpt lat="44.96049442748055" lon="11.780805677224146"><ele>11.5</ele><time>2026-04-04T12:00:03Z</time></trkpt><trkpt lat="44.96050719091922" lon="11.780682696853408"><ele>11.0</ele><time>2026-04-04T12:00:05Z</time></trkpt><trkpt lat="44.9605117685961" lon="11.780562458323017"><ele>10.5</ele><time>2026-04-04T12:00:07Z</time></trkpt><trkpt lat="44.96051651787734" lon="11.780447518763905"><ele>10.0</ele><time>2026-04-04T12:00:09Z</time></trkpt><trkpt lat="44.96051428925114" lon="11.780321890754557"><ele>10.0</ele><time>2026-04-04T12:00:11Z</time></trkpt><trkpt lat="44.96052878210073" lon="11.780190959933234"><ele>10.0</ele><time>2026-04-04T12:00:13Z</time></trkpt><trkpt lat="44.96054715752632" lon="11.780071671151374"><ele>10.0</ele><time>2026-04-04T12:00:15Z</time></trkpt><trkpt lat="44.96055102837104" lon="11.779947013566813"><ele>10.0</ele><time>2026-04-04T12:00:17Z</time></trkpt><trkpt lat="44.96056160669792" lon="11.779814630757164"><ele>10.0</ele><time>2026-04-04T12:00:19Z</time></trkpt><trkpt lat="44.96056561569307" lon="11.779683070156672"><ele>9.666666666666668</ele><time>2026-04-04T12:00:21Z</time></trkpt><trkpt lat="44.960571924353886" lon="11.779561957568996"><ele>9.333333333333334</ele><time>2026-04-04T12:00:22.999Z</time></trkpt><trkpt lat="44.96058376848902" lon="11.779441574114546"><ele>9.0</ele><time>2026-04-04T12:00:24.999Z</time></trkpt><trkpt lat="44.96058086771825" lon="11.779315730365802"><ele>8.666666666666666</ele><time>2026-04-04T12:00:26.999Z</time></trkpt><trkpt lat="44.96058659421134" lon="11.779200348561263"><ele>8.333333333333332</ele><time>2026-04-04T12:00:28.999Z</time></trkpt><trkpt lat="44.96059042115689" lon="11.779089745067564"><ele>8.0</ele><time>2026-04-04T12:00:30.999Z</time></trkpt><trkpt lat="44.96057127184502" lon="11.778968105920308"><ele>7.999999999999999</ele><time>2026-04-04T12:00:32.999Z</time></trkpt><trkpt lat="44.96055311223806" lon="11.778843401405195"><ele>8.0</ele><time>2026-04-04T12:00:34.999Z</time></trkpt><trkpt lat="44.960514621098866" lon="11.778728761929559"><ele>8.0</ele><time>2026-04-04T12:00:36.999Z</time></trkpt><trkpt lat="44.96048154790705" lon="11.778616782959888"><ele>8.0</ele><time>2026-04-04T12:00:38.999Z</time></trkpt><trkpt lat="44.96044604903178" lon="11.778510262000161"><ele>7.999999999999999</ele><time>2026-04-04T12:00:40.999Z</time></trkpt><trkpt lat="44.960411813127244" lon="11.778410643505666"><ele>8.0</ele><time>2026-04-04T12:00:42.999Z</time></trkpt><trkpt lat="44.96037774154456" lon="11.7783168220754"><ele>7.428571428571428</ele><time>2026-04-04T12:00:45Z</time></trkpt><trkpt lat="44.96035063553531" lon="11.778224314042491"><ele>6.857142857142856</ele><time>2026-04-04T12:00:47Z</time></trkpt><trkpt lat="44.96032551885847" lon="11.77813585343511"><ele>6.285714285714286</ele><time>2026-04-04T12:00:49Z</time></trkpt><trkpt lat="44.960296417685306" lon="11.778055096276924"><ele>5.7142857142857135</ele><time>2026-04-04T12:00:51Z</time></trkpt><trkpt lat="44.960271807474314" lon="11.777961531922214"><ele>5.142857142857142</ele><time>2026-04-04T12:00:53Z</time></trkpt><trkpt lat="44.96023478754115" lon="11.777852671135868"><ele>4.571428571428571</ele><time>2026-04-04T12:00:55Z</time></trkpt><trkpt lat="44.96019941432377" lon="11.777736482732397"><ele>4.0</ele><time>2026-04-04T12:00:57Z</time></trkpt><trkpt lat="44.96016123047294" lon="11.77761482702583"><ele>3.9999999999999996</ele><time>2026-04-04T12:00:59Z</time></trkpt><trkpt lat="44.960130261366224" lon="11.777491450724478"><ele>4.0</ele><time>2026-04-04T12:01:01Z</time></trkpt><trkpt lat="44.960103783227474" lon="11.777361099638382"><ele>4.0</ele><time>2026-04-04T12:01:03Z</time></trkpt><trkpt lat="44.96007018582293" lon="11.777244755045167"><ele>4.0</ele><time>2026-04-04T12:01:05Z</time></trkpt><trkpt lat="44.96004464349767" lon="11.777127346033108"><ele>3.9999999999999996</ele><time>2026-04-04T12:01:07Z</time></trkpt><trkpt lat="44.96002400010179" lon="11.777015291103169"><ele>4.0</ele><time>2026-04-04T12:01:09Z</time></trkpt><trkpt lat="44.96000300018861" lon="11.77690224165879"><ele>3.6</ele><time>2026-04-04T12:01:11Z</time></trkpt><trkpt lat="44.95997941257818" lon="11.776776180150897"><ele>3.2</ele><time>2026-04-04T12:01:13Z</time></trkpt><trkpt lat="44.95994484121243" lon="11.776648919561213"><ele>2.8000000000000003</ele><time>2026-04-04T12:01:15Z</time></trkpt><trkpt lat="44.95991619967433" lon="11.776526082202164"><ele>2.4000000000000004</ele><time>2026-04-04T12:01:17Z</time></trkpt><trkpt lat="44.9598903381811" lon="11.776403971291847"><ele>2.0</ele><time>2026-04-04T12:01:19Z</time></trkpt><trkpt lat="44.959863309264655" lon="11.776287776206628"><ele>1.9999999999999998</ele><time>2026-04-04T12:01:21Z</time></trkpt><trkpt lat="44.95984039931084" lon="11.776177084760235"><ele>2.0</ele><time>2026-04-04T12:01:23Z</time></trkpt><trkpt lat="44.95982414690458" lon="11.776068700220373"><ele>2.0</ele><time>2026-04-04T12:01:25Z</time></trkpt><trkpt lat="44.95980224408606" lon="11.775958125211801"><ele>2.0</ele><time>2026-04-04T12:01:27Z</time></trkpt><trkpt lat="44.95977681094275" lon="11.775835954701078"><ele>1.9999999999999998</ele><time>2026-04-04T12:01:29Z</time></trkpt><trkpt lat="44.95974233997416" lon="11.77571455900058"><ele>2.0</ele><time>2026-04-04T12:01:31Z</time></trkpt><trkpt lat="44.959716177076984" lon="11.775600310900932"><ele>2.1666666666666665</ele><time>2026-04-04T12:01:33Z</time></trkpt><trkpt lat="44.95968971874276" lon="11.775490877791437"><ele>2.333333333333333</ele><time>2026-04-04T12:01:35Z</time></trkpt><trkpt lat="44.95966871528182" lon="11.775380726040598"><ele>2.5</ele><time>2026-04-04T12:01:37Z</time></trkpt><trkpt lat="44.95964581436322" lon="11.775275801275974"><ele>2.6666666666666665</ele><time>2026-04-04T12:01:39Z</time></trkpt><trkpt lat="44.95962143028927" lon="11.775175389625105"><ele>2.8333333333333335</ele><time>2026-04-04T12:01:41Z</time></trkpt><trkpt lat="44.95960076124911" lon="11.77507838820684"><ele>3.0</ele><time>2026-04-04T12:01:43Z</time></trkpt><trkpt lat="44.95958174029543" lon="11.774986783822413"><ele>3.0</ele><time>2026-04-04T12:01:45Z</time></trkpt><trkpt lat="44.959561436068896" lon="11.774902564173"><ele>3.0</ele><time>2026-04-04T12:01:47Z</time></trkpt><trkpt lat="44.9595314354419" lon="11.774784917161845"><ele>3.0</ele><time>2026-04-04T12:01:50Z</time></trkpt><trkpt lat="44.95951219297843" lon="11.77469018822638"><ele>3.0</ele><time>2026-04-04T12:01:52Z</time></trkpt><trkpt lat="44.95949334621974" lon="11.77457490336372"><ele>3.0</ele><time>2026-04-04T12:01:54Z</time></trkpt><trkpt lat="44.9594643736025" lon="11.774459250496555"><ele>3.0</ele><time>2026-04-04T12:01:56Z</time></trkpt><trkpt lat="44.95943856884269" lon="11.774331912007025"><ele>3.4</ele><time>2026-04-04T12:01:58Z</time></trkpt><trkpt lat="44.959407521509206" lon="11.77420392944335"><ele>3.8</ele><time>2026-04-04T12:02:00Z</time></trkpt><trkpt lat="44.95938310745765" lon="11.77407511504751"><ele>4.2</ele><time>2026-04-04T12:02:02Z</time></trkpt><trkpt lat="44.959359457913955" lon="11.773955186991524"><ele>4.6</ele><time>2026-04-04T12:02:04Z</time></trkpt><trkpt lat="44.95933631886795" lon="11.773838610345626"><ele>5.0</ele><time>2026-04-04T12:02:06Z</time></trkpt><trkpt lat="44.95931791431865" lon="11.77371650323894"><ele>5.0</ele><time>2026-04-04T12:02:08Z</time></trkpt><trkpt lat="44.95928542487724" lon="11.773591505780335"><ele>5.0</ele><time>2026-04-04T12:02:10Z</time></trkpt><trkpt lat="44.959264034887006" lon="11.773460173607685"><ele>5.0</ele><time>2026-04-04T12:02:12Z</time></trkpt><trkpt lat="44.95923810297898" lon="11.77333435819409"><ele>5.0</ele><time>2026-04-04T12:02:14Z</time></trkpt><trkpt lat="44.95920942530525" lon="11.77320516629094"><ele>5.0</ele><time>2026-04-04T12:02:16Z</time></trkpt><trkpt lat="44.95918005804998" lon="11.773076474515292"><ele>4.8</ele><time>2026-04-04T12:02:18Z</time></trkpt><trkpt lat="44.95915625177328" lon="11.772944392692594"><ele>4.6</ele><time>2026-04-04T12:02:20Z</time></trkpt><trkpt lat="44.95912656541076" lon="11.772815819875811"><ele>4.4</ele><time>2026-04-04T12:02:22Z</time></trkpt><trkpt lat="44.95909660758571" lon="11.772685817739314"><ele>4.2</ele><time>2026-04-04T12:02:24Z</time></trkpt><trkpt lat="44.959068222581486" lon="11.77255850989659"><ele>4.0</ele><time>2026-04-04T12:02:26Z</time></trkpt><trkpt lat="44.95904445206286" lon="11.772426544208848"><ele>4.0</ele><time>2026-04-04T12:02:28Z</time></trkpt><trkpt lat="44.9590211703125" lon="11.772295146441927"><ele>4.0</ele><time>2026-04-04T12:02:30Z</time></trkpt><trkpt lat="44.95899191967103" lon="11.772167609782828"><ele>4.0</ele><time>2026-04-04T12:02:32Z</time></trkpt><trkpt lat="44.9589676577009" lon="11.772037848851298"><ele>4.0</ele><time>2026-04-04T12:02:34Z</time></trkpt><trkpt lat="44.958941087733514" lon="11.771910589697285"><ele>4.0</ele><time>2026-04-04T12:02:36Z</time></trkpt><trkpt lat="44.958913992781135" lon="11.771782377568703"><ele>4.0</ele><time>2026-04-04T12:02:38Z</time></trkpt><trkpt lat="44.958888088465145" lon="11.771659175484228"><ele>4.0</ele><time>2026-04-04T12:02:40Z</time></trkpt><trkpt lat="44.95886343130931" lon="11.771532847371443"><ele>4.0</ele><time>2026-04-04T12:02:42Z</time></trkpt><trkpt lat="44.95883780020394" lon="11.771407466385439"><ele>4.0</ele><time>2026-04-04T12:02:44Z</time></trkpt><trkpt lat="44.95881368627931" lon="11.771276455626607"><ele>4.0</ele><time>2026-04-04T12:02:45.999Z</time></trkpt><trkpt lat="44.95878389929532" lon="11.77114752701403"><ele>3.6</ele><time>2026-04-04T12:02:47.999Z</time></trkpt><trkpt lat="44.95875563216217" lon="11.771017968275904"><ele>3.2</ele><time>2026-04-04T12:02:50Z</time></trkpt><trkpt lat="44.958726674913315" lon="11.770891157576072"><ele>2.8000000000000003</ele><time>2026-04-04T12:02:52Z</time></trkpt><trkpt lat="44.95869890198725" lon="11.770770142983963"><ele>2.4000000000000004</ele><time>2026-04-04T12:02:54Z</time></trkpt><trkpt lat="44.9586789105261" lon="11.77064775473453"><ele>2.0</ele><time>2026-04-04T12:02:56Z</time></trkpt><trkpt lat="44.9586556033248" lon="11.770522756951495"><ele>2.0</ele><time>2026-04-04T12:02:58Z</time></trkpt><trkpt lat="44.95863123496804" lon="11.77039298568354"><ele>2.0</ele><time>2026-04-04T12:03:00Z</time></trkpt><trkpt lat="44.95860771054256" lon="11.770268103954415"><ele>2.0</ele><time>2026-04-04T12:03:02Z</time></trkpt><trkpt lat="44.95858501458072" lon="11.770141023266467"><ele>2.0</ele><time>2026-04-04T12:03:04Z</time></trkpt><trkpt lat="44.958564759731004" lon="11.770009468552706"><ele>2.0</ele><time>2026-04-04T12:03:06Z</time></trkpt><trkpt lat="44.95854648443858" lon="11.76988256201255"><ele>2.0</ele><time>2026-04-04T12:03:08Z</time></trkpt><trkpt lat="44.95852930395901" lon="11.769752114348462"><ele>2.0</ele><time>2026-04-04T12:03:10Z</time></trkpt><trkpt lat="44.95850228378728" lon="11.769625334630389"><ele>2.0</ele><time>2026-04-04T12:03:12Z</time></trkpt><trkpt lat="44.958480821380924" lon="11.7694954463596"><ele>2.0</ele><time>2026-04-04T12:03:14Z</time></trkpt><trkpt lat="44.95846720896428" lon="11.769358996196281"><ele>2.0</ele><time>2026-04-04T12:03:16Z</time></trkpt><trkpt lat="44.958453294154936" lon="11.769231597731176"><ele>2.0</ele><time>2026-04-04T12:03:18Z</time></trkpt><trkpt lat="44.958446913767936" lon="11.769102819850103"><ele>2.0</ele><time>2026-04-04T12:03:20Z</time></trkpt><trkpt lat="44.9584360773389" lon="11.768969721857031"><ele>2.0</ele><time>2026-04-04T12:03:22Z</time></trkpt><trkpt lat="44.9584185650609" lon="11.768841233107262"><ele>2.0</ele><time>2026-04-04T12:03:24Z</time></trkpt><trkpt lat="44.958404766070046" lon="11.76870831402318"><ele>2.0</ele><time>2026-04-04T12:03:26Z</time></trkpt><trkpt lat="44.95839012337749" lon="11.768574789351947"><ele>1.8</ele><time>2026-04-04T12:03:28Z</time></trkpt><trkpt lat="44.95837702107926" lon="11.768437234149484"><ele>1.6</ele><time>2026-04-04T12:03:30Z</time></trkpt><trkpt lat="44.95836022332781" lon="11.768299952912427"><ele>1.4000000000000001</ele><time>2026-04-04T12:03:32Z</time></trkpt><trkpt lat="44.95834596734517" lon="11.768162249179888"><ele>1.2000000000000002</ele><time>2026-04-04T12:03:34Z</time></trkpt><trkpt lat="44.95833201018968" lon="11.768037194838818"><ele>1.0</ele><time>2026-04-04T12:03:36Z</time></trkpt><trkpt lat="44.95831504510881" lon="11.767911148082396"><ele>1.8</ele><time>2026-04-04T12:03:38Z</time></trkpt><trkpt lat="44.958300638730755" lon="11.767780007890657"><ele>2.6</ele><time>2026-04-04T12:03:40Z</time></trkpt><trkpt lat="44.958288040594034" lon="11.767648175272551"><ele>3.4</ele><time>2026-04-04T12:03:42Z</time></trkpt><trkpt lat="44.95827367311409" lon="11.767514407863835"><ele>4.2</ele><time>2026-04-04T12:03:44Z</time></trkpt><trkpt lat="44.95826031772254" lon="11.76738214745599"><ele>5.0</ele><time>2026-04-04T12:03:46Z</time></trkpt><trkpt lat="44.95824396033974" lon="11.767250964540217"><ele>5.2</ele><time>2026-04-04T12:03:48Z</time></trkpt><trkpt lat="44.958229876410044" lon="11.767113548569084"><ele>5.4</ele><time>2026-04-04T12:03:50Z</time></trkpt><trkpt lat="44.95821346003696" lon="11.766977178102994"><ele>5.6</ele><time>2026-04-04T12:03:52Z</time></trkpt><trkpt lat="44.958196929922124" lon="11.76684064467592"><ele>5.8</ele><time>2026-04-04T12:03:54Z</time></trkpt><trkpt lat="44.958183032701555" lon="11.766706043465533"><ele>6.0</ele><time>2026-04-04T12:03:56Z</time></trkpt><trkpt lat="44.95816989516307" lon="11.766566519167256"><ele>5.6</ele><time>2026-04-04T12:03:58Z</time></trkpt><trkpt lat="44.95815282156037" lon="11.766429746485796"><ele>5.199999999999999</ele><time>2026-04-04T12:04:00Z</time></trkpt><trkpt lat="44.95813657084835" lon="11.766292891804941"><ele>4.800000000000001</ele><time>2026-04-04T12:04:02Z</time></trkpt><trkpt lat="44.95812403905233" lon="11.766158107174205"><ele>4.4</ele><time>2026-04-04T12:04:04Z</time></trkpt><trkpt lat="44.958108880695114" lon="11.766024467725558"><ele>4.0</ele><time>2026-04-04T12:04:06Z</time></trkpt><trkpt lat="44.958093458450705" lon="11.765891812957246"><ele>3.8000000000000003</ele><time>2026-04-04T12:04:08Z</time></trkpt><trkpt lat="44.958081528011796" lon="11.765759648664314"><ele>3.6000000000000005</ele><time>2026-04-04T12:04:10Z</time></trkpt><trkpt lat="44.95806386317226" lon="11.765624824430343"><ele>3.4</ele><time>2026-04-04T12:04:12Z</time></trkpt><trkpt lat="44.95805089136964" lon="11.765489780849245"><ele>3.2</ele><time>2026-04-04T12:04:14Z</time></trkpt><trkpt lat="44.95803916328671" lon="11.765355313056007"><ele>3.0</ele><time>2026-04-04T12:04:16Z</time></trkpt><trkpt lat="44.958025125782605" lon="11.76521705171966"><ele>3.2</ele><time>2026-04-04T12:04:18Z</time></trkpt><trkpt lat="44.958008064070945" lon="11.765080072948239"><ele>3.4</ele><time>2026-04-04T12:04:20Z</time></trkpt><trkpt lat="44.95799346420526" lon="11.764935880064602"><ele>3.6000000000000005</ele><time>2026-04-04T12:04:22Z</time></trkpt><trkpt lat="44.9579752457327" lon="11.7647892599787"><ele>3.8000000000000003</ele><time>2026-04-04T12:04:24Z</time></trkpt><trkpt lat="44.95796017496846" lon="11.764642053587702"><ele>4.0</ele><time>2026-04-04T12:04:26Z</time></trkpt><trkpt lat="44.95795202400006" lon="11.76449052698558"><ele>4.0</ele><time>2026-04-04T12:04:28Z</time></trkpt><trkpt lat="44.95793520901911" lon="11.764344723415753"><ele>4.0</ele><time>2026-04-04T12:04:30Z</time></trkpt><trkpt lat="44.957923161635215" lon="11.764203893667613"><ele>4.0</ele><time>2026-04-04T12:04:32Z</time></trkpt><trkpt lat="44.95790760744339" lon="11.764063057505671"><ele>4.0</ele><time>2026-04-04T12:04:34Z</time></trkpt><trkpt lat="44.95789152681375" lon="11.763926701076324"><ele>4.0</ele><time>2026-04-04T12:04:36Z</time></trkpt><trkpt lat="44.957873909495895" lon="11.763792013925643"><ele>4.0</ele><time>2026-04-04T12:04:38Z</time></trkpt><trkpt lat="44.957858675740155" lon="11.763660034716503"><ele>4.0</ele><time>2026-04-04T12:04:40Z</time></trkpt><trkpt lat="44.95784421720549" lon="11.763532449487782"><ele>4.0</ele><time>2026-04-04T12:04:42Z</time></trkpt><trkpt lat="44.957826319276855" lon="11.763406501034673"><ele>4.0</ele><time>2026-04-04T12:04:44Z</time></trkpt><trkpt lat="44.957812269070715" lon="11.76328243184123"><ele>4.0</ele><time>2026-04-04T12:04:46Z</time></trkpt><trkpt lat="44.957800910134345" lon="11.76316085650742"><ele>3.8571428571428568</ele><time>2026-04-04T12:04:48Z</time></trkpt><trkpt lat="44.95778756596117" lon="11.76304333298772"><ele>3.714285714285714</ele><time>2026-04-04T12:04:50Z</time></trkpt><trkpt lat="44.95777341829833" lon="11.762931820300665"><ele>3.571428571428571</ele><time>2026-04-04T12:04:52Z</time></trkpt><trkpt lat="44.95776293223782" lon="11.762829260130566"><ele>3.4285714285714284</ele><time>2026-04-04T12:04:54Z</time></trkpt><trkpt lat="44.95775512076138" lon="11.762729438153286"><ele>3.2857142857142856</ele><time>2026-04-04T12:04:56Z</time></trkpt><trkpt lat="44.9577401729912" lon="11.762639201880313"><ele>3.1428571428571423</ele><time>2026-04-04T12:04:58Z</time></trkpt><trkpt lat="44.95773284471651" lon="11.762538880924323"><ele>3.0</ele><time>2026-04-04T12:05:00Z</time></trkpt><trkpt lat="44.957732372652146" lon="11.762418481405154"><ele>3.3333333333333335</ele><time>2026-04-04T12:05:02Z</time></trkpt><trkpt lat="44.95772984581459" lon="11.76231798492671"><ele>3.666666666666667</ele><time>2026-04-04T12:05:04Z</time></trkpt><trkpt lat="44.9577245770102" lon="11.76222199588895"><ele>4.0</ele><time>2026-04-04T12:05:06Z</time></trkpt><trkpt lat="44.957734571292676" lon="11.762129356369018"><ele>4.333333333333334</ele><time>2026-04-04T12:05:08Z</time></trkpt><trkpt lat="44.95773480023965" lon="11.762005037421865"><ele>4.666666666666667</ele><time>2026-04-04T12:05:10Z</time></trkpt><trkpt lat="44.95773788657315" lon="11.761873781437847"><ele>5.0</ele><time>2026-04-04T12:05:12Z</time></trkpt><trkpt lat="44.95774377752471" lon="11.761737141788364"><ele>5.6</ele><time>2026-04-04T12:05:14Z</time></trkpt><trkpt lat="44.95774594038096" lon="11.761599305108914"><ele>6.2</ele><time>2026-04-04T12:05:16Z</time></trkpt><trkpt lat="44.957745805673945" lon="11.761458826258254"><ele>6.800000000000001</ele><time>2026-04-04T12:05:18Z</time></trkpt><trkpt lat="44.95774356909295" lon="11.76132171517785"><ele>7.4</ele><time>2026-04-04T12:05:20Z</time></trkpt><trkpt lat="44.95774326500632" lon="11.761192918883573"><ele>8.0</ele><time>2026-04-04T12:05:22Z</time></trkpt><trkpt lat="44.957738392650775" lon="11.761057229676933"><ele>7.4</ele><time>2026-04-04T12:05:24Z</time></trkpt><trkpt lat="44.95772826140525" lon="11.760925200935336"><ele>6.800000000000001</ele><time>2026-04-04T12:05:26Z</time></trkpt><trkpt lat="44.95771967234924" lon="11.760795393154567"><ele>6.2</ele><time>2026-04-04T12:05:28Z</time></trkpt><trkpt lat="44.95770960726682" lon="11.760666240070378"><ele>5.6</ele><time>2026-04-04T12:05:30Z</time></trkpt><trkpt lat="44.957699101869004" lon="11.760537204401341"><ele>5.0</ele><time>2026-04-04T12:05:32Z</time></trkpt><trkpt lat="44.95769148972196" lon="11.76041365195534"><ele>5.0</ele><time>2026-04-04T12:05:34Z</time></trkpt><trkpt lat="44.95768113722604" lon="11.760305543956244"><ele>5.0</ele><time>2026-04-04T12:05:36Z</time></trkpt><trkpt lat="44.957676531790256" lon="11.7601963619086"><ele>5.0</ele><time>2026-04-04T12:05:38Z</time></trkpt><trkpt lat="44.95766586074196" lon="11.760096481776587"><ele>5.0</ele><time>2026-04-04T12:05:40Z</time></trkpt><trkpt lat="44.95766392626256" lon="11.760000882816161"><ele>5.0</ele><time>2026-04-04T12:05:42Z</time></trkpt><trkpt lat="44.95765631357594" lon="11.75988675857323"><ele>5.0</ele><time>2026-04-04T12:05:44Z</time></trkpt><trkpt lat="44.95764793198136" lon="11.759755894423337"><ele>4.833333333333334</ele><time>2026-04-04T12:05:46Z</time></trkpt><trkpt lat="44.95763537302015" lon="11.75963242942827"><ele>4.666666666666667</ele><time>2026-04-04T12:05:48Z</time></trkpt><trkpt lat="44.95763151231069" lon="11.75950991350574"><ele>4.5</ele><time>2026-04-04T12:05:50Z</time></trkpt><trkpt lat="44.95762219876348" lon="11.75939599687168"><ele>4.333333333333333</ele><time>2026-04-04T12:05:52Z</time></trkpt><trkpt lat="44.95761080758952" lon="11.759290825405495"><ele>4.166666666666666</ele><time>2026-04-04T12:05:54Z</time></trkpt><trkpt lat="44.95759477015677" lon="11.759174166267366"><ele>4.0</ele><time>2026-04-04T12:05:56Z</time></trkpt><trkpt lat="44.95757956074239" lon="11.759058597550354"><ele>3.9999999999999996</ele><time>2026-04-04T12:05:58Z</time></trkpt><trkpt lat="44.9575578083519" lon="11.758955636027"><ele>4.0</ele><time>2026-04-04T12:06:00Z</time></trkpt><trkpt lat="44.95754223693142" lon="11.758854899860152"><ele>4.0</ele><time>2026-04-04T12:06:02Z</time></trkpt><trkpt lat="44.95751653306188" lon="11.758737416442827"><ele>4.0</ele><time>2026-04-04T12:06:04Z</time></trkpt><trkpt lat="44.95749286957228" lon="11.758612448381857"><ele>3.9999999999999996</ele><time>2026-04-04T12:06:06Z</time></trkpt><trkpt lat="44.957468177115416" lon="11.75848968556268"><ele>4.0</ele><time>2026-04-04T12:06:08Z</time></trkpt><trkpt lat="44.95744837152841" lon="11.758373043936759"><ele>4.833333333333333</ele><time>2026-04-04T12:06:10Z</time></trkpt><trkpt lat="44.9574242860225" lon="11.758265597273159"><ele>5.666666666666666</ele><time>2026-04-04T12:06:12Z</time></trkpt><trkpt lat="44.95739992319893" lon="11.758160041926208"><ele>6.5</ele><time>2026-04-04T12:06:14Z</time></trkpt><trkpt lat="44.95737635145521" lon="11.758034761969661"><ele>7.333333333333333</ele><time>2026-04-04T12:06:16Z</time></trkpt><trkpt lat="44.95735259616668" lon="11.757906253860089"><ele>8.166666666666666</ele><time>2026-04-04T12:06:18Z</time></trkpt><trkpt lat="44.957324730207525" lon="11.7577862149984"><ele>9.0</ele><time>2026-04-04T12:06:20Z</time></trkpt><trkpt lat="44.95730242514607" lon="11.75767117161034"><ele>9.0</ele><time>2026-04-04T12:06:22Z</time></trkpt><trkpt lat="44.95728043201831" lon="11.757566209591438"><ele>9.0</ele><time>2026-04-04T12:06:24Z</time></trkpt><trkpt lat="44.95725799403483" lon="11.757455892503637"><ele>9.0</ele><time>2026-04-04T12:06:26Z</time></trkpt><trkpt lat="44.95722891716631" lon="11.757331688724467"><ele>9.0</ele><time>2026-04-04T12:06:28Z</time></trkpt><trkpt lat="44.95720547377761" lon="11.757210598024425"><ele>9.0</ele><time>2026-04-04T12:06:30Z</time></trkpt><trkpt lat="44.95717022054629" lon="11.757100866898654"><ele>9.0</ele><time>2026-04-04T12:06:32Z</time></trkpt><trkpt lat="44.957146355698114" lon="11.756993666957298"><ele>9.0</ele><time>2026-04-04T12:06:34Z</time></trkpt><trkpt lat="44.95711588260743" lon="11.756892382953879"><ele>9.0</ele><time>2026-04-04T12:06:36Z</time></trkpt><trkpt lat="44.957060806077614" lon="11.75680774101078"><ele>9.0</ele><time>2026-04-04T12:06:38Z</time></trkpt><trkpt lat="44.95699937214058" lon="11.75671024543664"><ele>9.0</ele><time>2026-04-04T12:06:40Z</time></trkpt><trkpt lat="44.956924073109164" lon="11.756571567762975"><ele>9.0</ele><time>2026-04-04T12:06:42Z</time></trkpt><trkpt lat="44.95688223265384" lon="11.756487836257639"><ele>9.0</ele><time>2026-04-04T12:06:43Z</time></trkpt><trkpt lat="44.95683876307247" lon="11.756409167653436"><ele>9.0</ele><time>2026-04-04T12:06:44Z</time></trkpt><trkpt lat="44.956801357654015" lon="11.756331388364764"><ele>9.0</ele><time>2026-04-04T12:06:45Z</time></trkpt><trkpt lat="44.95677871516286" lon="11.756243300001884"><ele>9.0</ele><time>2026-04-04T12:06:45.999Z</time></trkpt><trkpt lat="44.95677698515093" lon="11.756146702104463"><ele>9.0</ele><time>2026-04-04T12:06:46.999Z</time></trkpt><trkpt lat="44.95675427645926" lon="11.755988841899596"><ele>9.0</ele><time>2026-04-04T12:06:48.999Z</time></trkpt><trkpt lat="44.95675190966277" lon="11.755873984595821"><ele>9.0</ele><time>2026-04-04T12:06:50.999Z</time></trkpt><trkpt lat="44.95674308951593" lon="11.75574680409358"><ele>9.0</ele><time>2026-04-04T12:06:53.999Z</time></trkpt><trkpt lat="44.956734179121455" lon="11.755634783598452"><ele>9.0</ele><time>2026-04-04T12:06:55.999Z</time></trkpt><trkpt lat="44.95671217140306" lon="11.755503762044544"><ele>9.0</ele><time>2026-04-04T12:06:57.999Z</time></trkpt><trkpt lat="44.956697836998664" lon="11.755365631288758"><ele>9.0</ele><time>2026-04-04T12:06:59.999Z</time></trkpt><trkpt lat="44.95669749009949" lon="11.755238376831059"><ele>9.0</ele><time>2026-04-04T12:07:02Z</time></trkpt><trkpt lat="44.95667999936586" lon="11.755114327050475"><ele>8.666666666666666</ele><time>2026-04-04T12:07:04Z</time></trkpt><trkpt lat="44.95666011177218" lon="11.754998762972548"><ele>8.333333333333334</ele><time>2026-04-04T12:07:06Z</time></trkpt><trkpt lat="44.956652433058835" lon="11.754890258018367"><ele>8.0</ele><time>2026-04-04T12:07:08Z</time></trkpt><trkpt lat="44.95665524341875" lon="11.754785197454078"><ele>7.666666666666667</ele><time>2026-04-04T12:07:10Z</time></trkpt><trkpt lat="44.95665146429879" lon="11.754689419385496"><ele>7.333333333333334</ele><time>2026-04-04T12:07:12Z</time></trkpt><trkpt lat="44.956733246434815" lon="11.754686098200674"><ele>7.0</ele><time>2026-04-04T12:07:15Z</time></trkpt><trkpt lat="44.95674114567323" lon="11.754799542770268"><ele>7.199999999999999</ele><time>2026-04-04T12:07:17Z</time></trkpt><trkpt lat="44.95673985865539" lon="11.754926445514434"><ele>7.3999999999999995</ele><time>2026-04-04T12:07:19Z</time></trkpt><trkpt lat="44.95674918533694" lon="11.755058093496068"><ele>7.6000000000000005</ele><time>2026-04-04T12:07:21Z</time></trkpt><trkpt lat="44.956768805245986" lon="11.75518695702291"><ele>7.800000000000001</ele><time>2026-04-04T12:07:23Z</time></trkpt><trkpt lat="44.9567868182849" lon="11.755317043169722"><ele>8.0</ele><time>2026-04-04T12:07:25Z</time></trkpt><trkpt lat="44.95680340898556" lon="11.755441654034188"><ele>8.0</ele><time>2026-04-04T12:07:27Z</time></trkpt><trkpt lat="44.95682453324443" lon="11.755560461991985"><ele>8.0</ele><time>2026-04-04T12:07:29Z</time></trkpt><trkpt lat="44.9568468043071" lon="11.755674123213822"><ele>8.0</ele><time>2026-04-04T12:07:31Z</time></trkpt><trkpt lat="44.956874366758974" lon="11.755775383975543"><ele>8.0</ele><time>2026-04-04T12:07:33Z</time></trkpt><trkpt lat="44.956963389294806" lon="11.755816929052106"><ele>8.0</ele><time>2026-04-04T12:07:35Z</time></trkpt><trkpt lat="44.95708995155246" lon="11.755801276702046"><ele>7.999999999999999</ele><time>2026-04-04T12:07:37Z</time></trkpt><trkpt lat="44.95715811338166" lon="11.755782954278589"><ele>8.0</ele><time>2026-04-04T12:07:38Z</time></trkpt><trkpt lat="44.95727995521895" lon="11.75577162964787"><ele>8.0</ele><time>2026-04-04T12:07:40Z</time></trkpt><trkpt lat="44.95734463921091" lon="11.755756584631238"><ele>8.0</ele><time>2026-04-04T12:07:41Z</time></trkpt><trkpt lat="44.9574320652029" lon="11.75575492810804"><ele>7.999999999999999</ele><time>2026-04-04T12:07:43Z</time></trkpt><trkpt lat="44.957498926126476" lon="11.755863182998338"><ele>8.0</ele><time>2026-04-04T12:07:46Z</time></trkpt><trkpt lat="44.95750574698305" lon="11.755968465175238"><ele>7.166666666666666</ele><time>2026-04-04T12:07:48Z</time></trkpt><trkpt lat="44.957547763400434" lon="11.756059773096252"><ele>6.333333333333333</ele><time>2026-04-04T12:07:50Z</time></trkpt><trkpt lat="44.95757413789437" lon="11.756172537863007"><ele>5.5</ele><time>2026-04-04T12:07:52Z</time></trkpt><trkpt lat="44.95754800590713" lon="11.756279781652706"><ele>4.666666666666666</ele><time>2026-04-04T12:07:54Z</time></trkpt><trkpt lat="44.95762358850767" lon="11.756311360286414"><ele>3.833333333333333</ele><time>2026-04-04T12:07:57Z</time></trkpt><trkpt lat="44.957621608556444" lon="11.756195232281435"><ele>3.0</ele><time>2026-04-04T12:07:59Z</time></trkpt><trkpt lat="44.95755503508547" lon="11.756072964789887"><ele>3.833333333333333</ele><time>2026-04-04T12:08:01Z</time></trkpt><trkpt lat="44.957528561400856" lon="11.755952615316172"><ele>4.666666666666666</ele><time>2026-04-04T12:08:03Z</time></trkpt><trkpt lat="44.95750609728752" lon="11.755851133802803"><ele>5.5</ele><time>2026-04-04T12:08:05Z</time></trkpt><trkpt lat="44.957462402633496" lon="11.755765596729415"><ele>6.333333333333333</ele><time>2026-04-04T12:08:07Z</time></trkpt><trkpt lat="44.957390242406866" lon="11.755737678839486"><ele>7.166666666666666</ele><time>2026-04-04T12:08:09Z</time></trkpt><trkpt lat="44.957301977986546" lon="11.755759882236275"><ele>8.0</ele><time>2026-04-04T12:08:11Z</time></trkpt><trkpt lat="44.95721888801593" lon="11.755767379176792"><ele>7.999999999999999</ele><time>2026-04-04T12:08:13Z</time></trkpt><trkpt lat="44.95713675722208" lon="11.75577770619353"><ele>8.0</ele><time>2026-04-04T12:08:15Z</time></trkpt><trkpt lat="44.95705957459832" lon="11.7557872730775"><ele>8.0</ele><time>2026-04-04T12:08:17Z</time></trkpt><trkpt lat="44.95697928082998" lon="11.755798879224594"><ele>8.0</ele><time>2026-04-04T12:08:19Z</time></trkpt><trkpt lat="44.95690889887784" lon="11.75579903601468"><ele>7.999999999999999</ele><time>2026-04-04T12:08:21Z</time></trkpt><trkpt lat="44.956838103231895" lon="11.755803818582798"><ele>8.0</ele><time>2026-04-04T12:08:24Z</time></trkpt><trkpt lat="44.95674450736454" lon="11.75586118912279"><ele>8.166666666666666</ele><time>2026-04-04T12:08:28Z</time></trkpt><trkpt lat="44.956675402361455" lon="11.75586009412076"><ele>8.333333333333332</ele><time>2026-04-04T12:08:29Z</time></trkpt><trkpt lat="44.95655962375167" lon="11.755890112020435"><ele>8.5</ele><time>2026-04-04T12:08:31Z</time></trkpt><trkpt lat="44.95643475091366" lon="11.755934132369843"><ele>8.666666666666666</ele><time>2026-04-04T12:08:33Z</time></trkpt><trkpt lat="44.95637267031584" lon="11.755952743645548"><ele>8.833333333333334</ele><time>2026-04-04T12:08:34Z</time></trkpt><trkpt lat="44.956304829368385" lon="11.755955130653415"><ele>9.0</ele><time>2026-04-04T12:08:35Z</time></trkpt><trkpt lat="44.95623880892922" lon="11.75596969185937"><ele>9.000000000000002</ele><time>2026-04-04T12:08:36Z</time></trkpt><trkpt lat="44.95616936354422" lon="11.755985008441874"><ele>9.0</ele><time>2026-04-04T12:08:37Z</time></trkpt><trkpt lat="44.95610131888648" lon="11.756007714485039"><ele>9.0</ele><time>2026-04-04T12:08:38Z</time></trkpt><trkpt lat="44.95603001154226" lon="11.756022691660965"><ele>9.0</ele><time>2026-04-04T12:08:39Z</time></trkpt><trkpt lat="44.95595912443209" lon="11.756041398764882"><ele>9.0</ele><time>2026-04-04T12:08:40Z</time></trkpt><trkpt lat="44.955886639654715" lon="11.75607205793976"><ele>9.000000000000002</ele><time>2026-04-04T12:08:41Z</time></trkpt><trkpt lat="44.95581244347844" lon="11.756087777486055"><ele>9.0</ele><time>2026-04-04T12:08:42Z</time></trkpt><trkpt lat="44.955736172508715" lon="11.756096608531426"><ele>8.5</ele><time>2026-04-04T12:08:43Z</time></trkpt><trkpt lat="44.95565853545408" lon="11.756121440020973"><ele>8.0</ele><time>2026-04-04T12:08:44Z</time></trkpt><trkpt lat="44.955579284348865" lon="11.756133786021199"><ele>7.5</ele><time>2026-04-04T12:08:45Z</time></trkpt><trkpt lat="44.95549992664466" lon="11.756153563863636"><ele>7.0</ele><time>2026-04-04T12:08:46Z</time></trkpt><trkpt lat="44.955419326214155" lon="11.756171923793108"><ele>6.5</ele><time>2026-04-04T12:08:47Z</time></trkpt><trkpt lat="44.95533472760646" lon="11.756194473346598"><ele>6.0</ele><time>2026-04-04T12:08:48Z</time></trkpt><trkpt lat="44.95525106507305" lon="11.756209463102719"><ele>6.0</ele><time>2026-04-04T12:08:48.999Z</time></trkpt><trkpt lat="44.95517254479914" lon="11.756226365613333"><ele>6.0</ele><time>2026-04-04T12:08:49.999Z</time></trkpt><trkpt lat="44.95510468586617" lon="11.75626419685781"><ele>6.0</ele><time>2026-04-04T12:08:50.999Z</time></trkpt><trkpt lat="44.95505833698465" lon="11.756324724392856"><ele>6.0</ele><time>2026-04-04T12:08:51.999Z</time></trkpt><trkpt lat="44.95501823892069" lon="11.75640630238961"><ele>6.0</ele><time>2026-04-04T12:08:52.999Z</time></trkpt><trkpt lat="44.95497131048" lon="11.756533224413648"><ele>6.0</ele><time>2026-04-04T12:08:54.999Z</time></trkpt><trkpt lat="44.9551639208538" lon="11.75665012171198"><ele>5.999999999999999</ele><time>2026-04-04T12:08:58.999Z</time></trkpt><trkpt lat="44.95526865763748" lon="11.75663613123793"><ele>6.0</ele><time>2026-04-04T12:09:00.999Z</time></trkpt><trkpt lat="44.95533418081923" lon="11.756633809584844"><ele>6.0</ele><time>2026-04-04T12:09:01.999Z</time></trkpt><trkpt lat="44.95540121765109" lon="11.75662148847566"><ele>6.0</ele><time>2026-04-04T12:09:02.999Z</time></trkpt><trkpt lat="44.9554719050979" lon="11.756621071609127"><ele>6.0</ele><time>2026-04-04T12:09:03.999Z</time></trkpt><trkpt lat="44.955541529062145" lon="11.756632053752135"><ele>5.999999999999999</ele><time>2026-04-04T12:09:04.999Z</time></trkpt><trkpt lat="44.95560880484518" lon="11.756622926857833"><ele>6.0</ele><time>2026-04-04T12:09:05.999Z</time></trkpt><trkpt lat="44.95573628589947" lon="11.756619681488425"><ele>6.0</ele><time>2026-04-04T12:09:08Z</time></trkpt><trkpt lat="44.95580508146663" lon="11.756609703344589"><ele>6.0</ele><time>2026-04-04T12:09:09Z</time></trkpt><trkpt lat="44.9558681732499" lon="11.756606103825527"><ele>6.0</ele><time>2026-04-04T12:09:10Z</time></trkpt><trkpt lat="44.95598545343253" lon="11.756598886657274"><ele>6.0</ele><time>2026-04-04T12:09:12Z</time></trkpt><trkpt lat="44.956106604285694" lon="11.756606619589723"><ele>6.0</ele><time>2026-04-04T12:09:14Z</time></trkpt><trkpt lat="44.956223700031714" lon="11.756572511372482"><ele>6.5</ele><time>2026-04-04T12:09:16Z</time></trkpt><trkpt lat="44.956331363905875" lon="11.756610379290148"><ele>7.0</ele><time>2026-04-04T12:09:18Z</time></trkpt><trkpt lat="44.95643323212652" lon="11.756608365314573"><ele>7.5</ele><time>2026-04-04T12:09:20Z</time></trkpt><trkpt lat="44.95649929742967" lon="11.756682565524018"><ele>8.0</ele><time>2026-04-04T12:09:21Z</time></trkpt><trkpt lat="44.95657068401478" lon="11.756731777069733"><ele>8.5</ele><time>2026-04-04T12:09:23Z</time></trkpt><trkpt lat="44.9566385454512" lon="11.756698702304945"><ele>9.0</ele><time>2026-04-04T12:09:25Z</time></trkpt><trkpt lat="44.95662915612097" lon="11.756865960590616"><ele>9.0</ele><time>2026-04-04T12:09:27Z</time></trkpt><trkpt lat="44.956515037784975" lon="11.756900398760033"><ele>9.0</ele><time>2026-04-04T12:09:28Z</time></trkpt><trkpt lat="44.956638655534576" lon="11.756886966080765"><ele>9.0</ele><time>2026-04-04T12:10:19Z</time></trkpt><trkpt lat="44.9565654729029" lon="11.756885831393626"><ele>9.0</ele><time>2026-04-04T12:59:52.001Z</time></trkpt><trkpt lat="44.956492141751745" lon="11.75686616997162"><ele>9.0</ele><time>2026-04-04T12:59:56.001Z</time></trkpt><trkpt lat="44.95649358362991" lon="11.756742623578214"><ele>9.0</ele><time>2026-04-04T12:59:59.001Z</time></trkpt><trkpt lat="44.956467953190696" lon="11.756633384819038"><ele>9.0</ele><time>2026-04-04T13:00:01.001Z</time></trkpt><trkpt lat="44.956415366078666" lon="11.756557387413082"><ele>9.0</ele><time>2026-04-04T13:00:03.001Z</time></trkpt><trkpt lat="44.95634206866831" lon="11.75655910855364"><ele>9.0</ele><time>2026-04-04T13:00:05.001Z</time></trkpt><trkpt lat="44.95627097988244" lon="11.75657845185243"><ele>9.0</ele><time>2026-04-04T13:00:07.001Z</time></trkpt><trkpt lat="44.95618932132011" lon="11.756590271235543"><ele>9.0</ele><time>2026-04-04T13:00:09.001Z</time></trkpt><trkpt lat="44.95610189517962" lon="11.756585359821793"><ele>9.0</ele><time>2026-04-04T13:00:11.001Z</time></trkpt><trkpt lat="44.95601216023345" lon="11.756592414882343"><ele>9.0</ele><time>2026-04-04T13:00:13.001Z</time></trkpt><trkpt lat="44.95592928837587" lon="11.756594500666443"><ele>9.0</ele><time>2026-04-04T13:00:15.001Z</time></trkpt><trkpt lat="44.95584557498625" lon="11.7565797840578"><ele>9.0</ele><time>2026-04-04T13:00:17.001Z</time></trkpt><trkpt lat="44.955750487681776" lon="11.756585066197797"><ele>9.0</ele><time>2026-04-04T13:00:19.001Z</time></trkpt><trkpt lat="44.95565425684132" lon="11.756592647503888"><ele>9.0</ele><time>2026-04-04T13:00:21.001Z</time></trkpt><trkpt lat="44.95556542019624" lon="11.756599810948508"><ele>8.5</ele><time>2026-04-04T13:00:23.001Z</time></trkpt><trkpt lat="44.95548219447549" lon="11.7566042441702"><ele>8.0</ele><time>2026-04-04T13:00:25.001Z</time></trkpt><trkpt lat="44.95540030386385" lon="11.756620822406633"><ele>7.5</ele><time>2026-04-04T13:00:27.001Z</time></trkpt><trkpt lat="44.95531521577904" lon="11.75662770352857"><ele>7.0</ele><time>2026-04-04T13:00:29.001Z</time></trkpt><trkpt lat="44.955237249566615" lon="11.756633771768657"><ele>6.5</ele><time>2026-04-04T13:00:31.001Z</time></trkpt><trkpt lat="44.955164434938034" lon="11.756643459328332"><ele>6.0</ele><time>2026-04-04T13:00:33.001Z</time></trkpt><trkpt lat="44.955090726956314" lon="11.756664163231706"><ele>6.0</ele><time>2026-04-04T13:00:35.001Z</time></trkpt><trkpt lat="44.95502239675623" lon="11.75665790251227"><ele>6.0</ele><time>2026-04-04T13:00:37.001Z</time></trkpt><trkpt lat="44.95496471490909" lon="11.756599200890621"><ele>6.0</ele><time>2026-04-04T13:00:39.001Z</time></trkpt><trkpt lat="44.9550029308903" lon="11.756475617725188"><ele>6.0</ele><time>2026-04-04T13:00:42.001Z</time></trkpt><trkpt lat="44.955050230816475" lon="11.756384427334421"><ele>6.0</ele><time>2026-04-04T13:00:44.001Z</time></trkpt><trkpt lat="44.95511369938546" lon="11.756295104117623"><ele>6.0</ele><time>2026-04-04T13:00:46.001Z</time></trkpt><trkpt lat="44.9551908339478" lon="11.756266318074736"><ele>6.0</ele><time>2026-04-04T13:00:48.001Z</time></trkpt><trkpt lat="44.95526373579847" lon="11.756240351411442"><ele>6.0</ele><time>2026-04-04T13:00:50.001Z</time></trkpt><trkpt lat="44.95534023143484" lon="11.75622287510571"><ele>6.0</ele><time>2026-04-04T13:00:52.001Z</time></trkpt><trkpt lat="44.9554137832633" lon="11.756205715043091"><ele>6.0</ele><time>2026-04-04T13:00:54.001Z</time></trkpt><trkpt lat="44.955494868556144" lon="11.756187559355242"><ele>6.0</ele><time>2026-04-04T13:00:56.001Z</time></trkpt><trkpt lat="44.955570270695546" lon="11.756164052487227"><ele>6.0</ele><time>2026-04-04T13:00:58.001Z</time></trkpt><trkpt lat="44.955650046274044" lon="11.756152754982148"><ele>6.0</ele><time>2026-04-04T13:01:00.001Z</time></trkpt><trkpt lat="44.95572570759934" lon="11.756131139230638"><ele>6.0</ele><time>2026-04-04T13:01:02.001Z</time></trkpt><trkpt lat="44.95579556459527" lon="11.75610864047395"><ele>6.0</ele><time>2026-04-04T13:01:04.001Z</time></trkpt><trkpt lat="44.95587220776944" lon="11.756091486569836"><ele>6.0</ele><time>2026-04-04T13:01:06.001Z</time></trkpt><trkpt lat="44.95595217694663" lon="11.756075934603265"><ele>6.0</ele><time>2026-04-04T13:01:08.001Z</time></trkpt><trkpt lat="44.95602680125077" lon="11.756050806399593"><ele>6.0</ele><time>2026-04-04T13:01:10.001Z</time></trkpt><trkpt lat="44.956103028913425" lon="11.756032816079802"><ele>6.428571428571428</ele><time>2026-04-04T13:01:12.001Z</time></trkpt><trkpt lat="44.9561810691422" lon="11.756022786233677"><ele>6.857142857142858</ele><time>2026-04-04T13:01:14.001Z</time></trkpt><trkpt lat="44.956256889000024" lon="11.756008546785486"><ele>7.2857142857142865</ele><time>2026-04-04T13:01:16.001Z</time></trkpt><trkpt lat="44.95633390018393" lon="11.755981110812767"><ele>7.714285714285714</ele><time>2026-04-04T13:01:18.001Z</time></trkpt><trkpt lat="44.95640950330381" lon="11.755960917407883"><ele>8.142857142857142</ele><time>2026-04-04T13:01:20.001Z</time></trkpt><trkpt lat="44.95647775090598" lon="11.755962640687518"><ele>8.571428571428573</ele><time>2026-04-04T13:01:22.001Z</time></trkpt><trkpt lat="44.95654026375021" lon="11.755935654699366"><ele>9.0</ele><time>2026-04-04T13:01:24.001Z</time></trkpt><trkpt lat="44.956611375101694" lon="11.755912901272195"><ele>9.000000000000002</ele><time>2026-04-04T13:01:26.001Z</time></trkpt><trkpt lat="44.95667040576057" lon="11.755842318194828"><ele>9.0</ele><time>2026-04-04T13:01:29.001Z</time></trkpt><trkpt lat="44.95671415584803" lon="11.755758843679068"><ele>9.0</ele><time>2026-04-04T13:01:33.001Z</time></trkpt><trkpt lat="44.956736959048804" lon="11.755664457224048"><ele>9.0</ele><time>2026-04-04T13:01:35.001Z</time></trkpt><trkpt lat="44.956722969930304" lon="11.755566138654943"><ele>9.0</ele><time>2026-04-04T13:01:37.001Z</time></trkpt><trkpt lat="44.95670656616739" lon="11.755463796862262"><ele>9.000000000000002</ele><time>2026-04-04T13:01:39.001Z</time></trkpt><trkpt lat="44.95669539319914" lon="11.755356465942441"><ele>9.0</ele><time>2026-04-04T13:01:41.001Z</time></trkpt><trkpt lat="44.95668080488332" lon="11.755253289783301"><ele>8.666666666666666</ele><time>2026-04-04T13:01:43.001Z</time></trkpt><trkpt lat="44.95667342009934" lon="11.755140153080564"><ele>8.333333333333334</ele><time>2026-04-04T13:01:45.001Z</time></trkpt><trkpt lat="44.956646935412515" lon="11.755023109839424"><ele>8.0</ele><time>2026-04-04T13:01:47.001Z</time></trkpt><trkpt lat="44.95663436652903" lon="11.754915144582995"><ele>7.666666666666667</ele><time>2026-04-04T13:01:49.001Z</time></trkpt><trkpt lat="44.95663402372287" lon="11.754805114998046"><ele>7.333333333333334</ele><time>2026-04-04T13:01:52.001Z</time></trkpt><trkpt lat="44.95662899473278" lon="11.754705874855778"><ele>7.0</ele><time>2026-04-04T13:01:55.001Z</time></trkpt><trkpt lat="44.95666854260446" lon="11.754636027507965"><ele>7.166666666666667</ele><time>2026-04-04T13:01:58.001Z</time></trkpt><trkpt lat="44.956709162029256" lon="11.754720055355339"><ele>7.333333333333334</ele><time>2026-04-04T13:02:00.001Z</time></trkpt><trkpt lat="44.95671736063887" lon="11.754837391012599"><ele>7.5</ele><time>2026-04-04T13:02:02.001Z</time></trkpt><trkpt lat="44.956720877451446" lon="11.754939657329182"><ele>7.666666666666666</ele><time>2026-04-04T13:02:04Z</time></trkpt><trkpt lat="44.95674394496266" lon="11.755031794789314"><ele>7.833333333333333</ele><time>2026-04-04T13:02:06Z</time></trkpt><trkpt lat="44.95674971543984" lon="11.755123379943983"><ele>8.0</ele><time>2026-04-04T13:02:08Z</time></trkpt><trkpt lat="44.95677109060157" lon="11.75524937638792"><ele>7.999999999999999</ele><time>2026-04-04T13:02:11Z</time></trkpt><trkpt lat="44.95678052288237" lon="11.755364551310887"><ele>8.0</ele><time>2026-04-04T13:02:14Z</time></trkpt><trkpt lat="44.95679735391472" lon="11.75546243024076"><ele>8.0</ele><time>2026-04-04T13:02:16Z</time></trkpt><trkpt lat="44.9568089443115" lon="11.7555855786025"><ele>8.0</ele><time>2026-04-04T13:02:19Z</time></trkpt><trkpt lat="44.95681669700722" lon="11.75569799685091"><ele>7.999999999999999</ele><time>2026-04-04T13:02:22Z</time></trkpt><trkpt lat="44.95685920670927" lon="11.755781044025516"><ele>8.0</ele><time>2026-04-04T13:02:25Z</time></trkpt><trkpt lat="44.956811908935045" lon="11.755855786499609"><ele>8.0</ele><time>2026-04-04T13:02:29Z</time></trkpt><trkpt lat="44.95670490050403" lon="11.755848410362434"><ele>8.0</ele><time>2026-04-04T13:02:32Z</time></trkpt><trkpt lat="44.95665691400248" lon="11.755931134499592"><ele>8.0</ele><time>2026-04-04T13:02:35Z</time></trkpt><trkpt lat="44.95674162695032" lon="11.755979331650993"><ele>8.0</ele><time>2026-04-04T13:02:38Z</time></trkpt><trkpt lat="44.95677212307381" lon="11.756104765254177"><ele>8.0</ele><time>2026-04-04T13:02:40Z</time></trkpt><trkpt lat="44.956783430867716" lon="11.756248288733113"><ele>8.166666666666666</ele><time>2026-04-04T13:02:42Z</time></trkpt><trkpt lat="44.956831305163945" lon="11.756382394651345"><ele>8.333333333333332</ele><time>2026-04-04T13:02:44Z</time></trkpt><trkpt lat="44.95687579233493" lon="11.756513915781953"><ele>8.5</ele><time>2026-04-04T13:02:46Z</time></trkpt><trkpt lat="44.95693333694809" lon="11.75660700947794"><ele>8.666666666666666</ele><time>2026-04-04T13:02:48Z</time></trkpt><trkpt lat="44.95697672514605" lon="11.756697117368867"><ele>8.833333333333334</ele><time>2026-04-04T13:02:50Z</time></trkpt><trkpt lat="44.95702067919177" lon="11.756774922899398"><ele>9.0</ele><time>2026-04-04T13:02:52Z</time></trkpt><trkpt lat="44.95706367778181" lon="11.756848274573427"><ele>9.0</ele><time>2026-04-04T13:02:54Z</time></trkpt><trkpt lat="44.95710594707523" lon="11.756927031164484"><ele>9.0</ele><time>2026-04-04T13:02:56Z</time></trkpt><trkpt lat="44.95714145551654" lon="11.757008822926883"><ele>9.0</ele><time>2026-04-04T13:02:58Z</time></trkpt><trkpt lat="44.95717045227188" lon="11.757119147607435"><ele>9.0</ele><time>2026-04-04T13:03:00Z</time></trkpt><trkpt lat="44.95719387988277" lon="11.757237110611433"><ele>9.0</ele><time>2026-04-04T13:03:02Z</time></trkpt><trkpt lat="44.957217455371406" lon="11.757359150432073"><ele>9.0</ele><time>2026-04-04T13:03:04Z</time></trkpt><trkpt lat="44.9572445247713" lon="11.757481737765437"><ele>9.0</ele><time>2026-04-04T13:03:06Z</time></trkpt><trkpt lat="44.957267267846625" lon="11.757605665218456"><ele>9.0</ele><time>2026-04-04T13:03:08Z</time></trkpt><trkpt lat="44.957295179913444" lon="11.757729737308036"><ele>9.0</ele><time>2026-04-04T13:03:10Z</time></trkpt><trkpt lat="44.95732570645272" lon="11.757846461285657"><ele>9.0</ele><time>2026-04-04T13:03:12Z</time></trkpt><trkpt lat="44.95734807946727" lon="11.757971902157779"><ele>9.0</ele><time>2026-04-04T13:03:14Z</time></trkpt><trkpt lat="44.95737247028474" lon="11.758093344789094"><ele>9.0</ele><time>2026-04-04T13:03:16Z</time></trkpt><trkpt lat="44.95740180450618" lon="11.758214424852126"><ele>9.0</ele><time>2026-04-04T13:03:18Z</time></trkpt><trkpt lat="44.95742688069274" lon="11.758337203280487"><ele>9.0</ele><time>2026-04-04T13:03:20Z</time></trkpt><trkpt lat="44.9574515031426" lon="11.758462405980799"><ele>9.0</ele><time>2026-04-04T13:03:22Z</time></trkpt><trkpt lat="44.95747567026318" lon="11.758587484606657"><ele>9.0</ele><time>2026-04-04T13:03:24Z</time></trkpt><trkpt lat="44.957500268814464" lon="11.758713076159717"><ele>9.0</ele><time>2026-04-04T13:03:26Z</time></trkpt><trkpt lat="44.95752656075755" lon="11.758836611629162"><ele>9.0</ele><time>2026-04-04T13:03:28Z</time></trkpt><trkpt lat="44.957551058020975" lon="11.758961893675576"><ele>9.0</ele><time>2026-04-04T13:03:30Z</time></trkpt><trkpt lat="44.957572029057566" lon="11.759091193820792"><ele>9.0</ele><time>2026-04-04T13:03:32Z</time></trkpt><trkpt lat="44.9575909614279" lon="11.75922021679932"><ele>9.0</ele><time>2026-04-04T13:03:34Z</time></trkpt><trkpt lat="44.957605192115295" lon="11.759348616241901"><ele>8.0</ele><time>2026-04-04T13:03:36Z</time></trkpt><trkpt lat="44.95761838089811" lon="11.75947754475117"><ele>7.0</ele><time>2026-04-04T13:03:38Z</time></trkpt><trkpt lat="44.957628785966996" lon="11.759604595681392"><ele>6.0</ele><time>2026-04-04T13:03:40Z</time></trkpt><trkpt lat="44.95763335045589" lon="11.759732991836392"><ele>5.0</ele><time>2026-04-04T13:03:42Z</time></trkpt><trkpt lat="44.95763837255459" lon="11.759857552481728"><ele>4.0</ele><time>2026-04-04T13:03:44Z</time></trkpt><trkpt lat="44.95765436095225" lon="11.75998329436306"><ele>4.0</ele><time>2026-04-04T13:03:46Z</time></trkpt><trkpt lat="44.95766438175903" lon="11.76011174434895"><ele>4.0</ele><time>2026-04-04T13:03:48Z</time></trkpt><trkpt lat="44.95766506397766" lon="11.760240410697158"><ele>4.0</ele><time>2026-04-04T13:03:50Z</time></trkpt><trkpt lat="44.957687768548666" lon="11.760369099954245"><ele>4.0</ele><time>2026-04-04T13:03:52Z</time></trkpt><trkpt lat="44.9576878695087" lon="11.760494578631324"><ele>4.0</ele><time>2026-04-04T13:03:54Z</time></trkpt><trkpt lat="44.957697886089974" lon="11.760625408108444"><ele>4.2</ele><time>2026-04-04T13:03:56Z</time></trkpt><trkpt lat="44.95770625117564" lon="11.760750321975305"><ele>4.4</ele><time>2026-04-04T13:03:58Z</time></trkpt><trkpt lat="44.95771007927412" lon="11.760880430472644"><ele>4.6</ele><time>2026-04-04T13:04:00Z</time></trkpt><trkpt lat="44.957718354614975" lon="11.761008203118642"><ele>4.8</ele><time>2026-04-04T13:04:02Z</time></trkpt><trkpt lat="44.95773007926717" lon="11.761133044854367"><ele>5.0</ele><time>2026-04-04T13:04:04Z</time></trkpt><trkpt lat="44.95773204352297" lon="11.761265008485665"><ele>5.0</ele><time>2026-04-04T13:04:06Z</time></trkpt><trkpt lat="44.95773754736673" lon="11.761394001973049"><ele>5.0</ele><time>2026-04-04T13:04:08Z</time></trkpt><trkpt lat="44.957737260339016" lon="11.761528412218068"><ele>5.0</ele><time>2026-04-04T13:04:10Z</time></trkpt><trkpt lat="44.95773376927069" lon="11.761646645955825"><ele>5.0</ele><time>2026-04-04T13:04:12Z</time></trkpt><trkpt lat="44.95772942899577" lon="11.761759883933864"><ele>5.0</ele><time>2026-04-04T13:04:14Z</time></trkpt><trkpt lat="44.95772583597453" lon="11.761866983114759"><ele>5.0</ele><time>2026-04-04T13:04:16Z</time></trkpt><trkpt lat="44.95772304283322" lon="11.76198221395781"><ele>5.0</ele><time>2026-04-04T13:04:18Z</time></trkpt><trkpt lat="44.95772748077896" lon="11.762093265979221"><ele>5.0</ele><time>2026-04-04T13:04:20Z</time></trkpt><trkpt lat="44.95771823413629" lon="11.762193775217655"><ele>5.0</ele><time>2026-04-04T13:04:22Z</time></trkpt><trkpt lat="44.957715802116944" lon="11.762289104323674"><ele>5.0</ele><time>2026-04-04T13:04:24Z</time></trkpt><trkpt lat="44.95771776092888" lon="11.762381581645622"><ele>5.0</ele><time>2026-04-04T13:04:26Z</time></trkpt><trkpt lat="44.957725407313255" lon="11.762473621297941"><ele>5.0</ele><time>2026-04-04T13:04:28Z</time></trkpt><trkpt lat="44.95773741893432" lon="11.762595399862922"><ele>5.0</ele><time>2026-04-04T13:04:30Z</time></trkpt><trkpt lat="44.95774574687782" lon="11.762725023334468"><ele>4.6</ele><time>2026-04-04T13:04:32Z</time></trkpt><trkpt lat="44.95775466569572" lon="11.76285211427539"><ele>4.2</ele><time>2026-04-04T13:04:34Z</time></trkpt><trkpt lat="44.95776928958456" lon="11.762978415863568"><ele>3.8</ele><time>2026-04-04T13:04:36Z</time></trkpt><trkpt lat="44.95778174719982" lon="11.76310775764841"><ele>3.4</ele><time>2026-04-04T13:04:38Z</time></trkpt><trkpt lat="44.957794651633584" lon="11.763233293993851"><ele>3.0</ele><time>2026-04-04T13:04:40Z</time></trkpt><trkpt lat="44.957809497405194" lon="11.763356878066292"><ele>3.0</ele><time>2026-04-04T13:04:42Z</time></trkpt><trkpt lat="44.95782699420765" lon="11.763480292424012"><ele>3.0</ele><time>2026-04-04T13:04:44Z</time></trkpt><trkpt lat="44.957837987853026" lon="11.763593047666095"><ele>3.0</ele><time>2026-04-04T13:04:46Z</time></trkpt><trkpt lat="44.95785560375674" lon="11.763697744279991"><ele>3.0</ele><time>2026-04-04T13:04:48Z</time></trkpt><trkpt lat="44.95786111911009" lon="11.76379975633049"><ele>3.0</ele><time>2026-04-04T13:04:50Z</time></trkpt><trkpt lat="44.957874345228404" lon="11.76389345333601"><ele>3.0</ele><time>2026-04-04T13:04:52Z</time></trkpt><trkpt lat="44.95788535938982" lon="11.763983009930957"><ele>3.1666666666666665</ele><time>2026-04-04T13:04:54Z</time></trkpt><trkpt lat="44.95790100190324" lon="11.764092049014277"><ele>3.333333333333333</ele><time>2026-04-04T13:04:56Z</time></trkpt><trkpt lat="44.95790633886352" lon="11.764214893887853"><ele>3.5</ele><time>2026-04-04T13:04:58Z</time></trkpt><trkpt lat="44.9579184171216" lon="11.764328106013417"><ele>3.6666666666666665</ele><time>2026-04-04T13:05:00Z</time></trkpt><trkpt lat="44.957930032327674" lon="11.764439274004303"><ele>3.833333333333333</ele><time>2026-04-04T13:05:02Z</time></trkpt><trkpt lat="44.95794586107404" lon="11.764543073765976"><ele>4.0</ele><time>2026-04-04T13:05:04Z</time></trkpt><trkpt lat="44.957952781830144" lon="11.764641365580049"><ele>4.0</ele><time>2026-04-04T13:05:06Z</time></trkpt><trkpt lat="44.957953737901136" lon="11.764734429978803"><ele>3.9999999999999996</ele><time>2026-04-04T13:05:08Z</time></trkpt><trkpt lat="44.957978570445796" lon="11.76485754094674"><ele>4.0</ele><time>2026-04-04T13:05:11Z</time></trkpt><trkpt lat="44.957988104481934" lon="11.76494634721178"><ele>4.0</ele><time>2026-04-04T13:05:13Z</time></trkpt><trkpt lat="44.95799254438995" lon="11.765062120467194"><ele>3.9999999999999996</ele><time>2026-04-04T13:05:15Z</time></trkpt><trkpt lat="44.958003270146804" lon="11.765167741939083"><ele>4.0</ele><time>2026-04-04T13:05:17Z</time></trkpt><trkpt lat="44.95801630944961" lon="11.765267437446928"><ele>4.0</ele><time>2026-04-04T13:05:19Z</time></trkpt><trkpt lat="44.95801972711088" lon="11.765364433035788"><ele>3.9999999999999996</ele><time>2026-04-04T13:05:21Z</time></trkpt><trkpt lat="44.95803633277411" lon="11.7654689493992"><ele>4.0</ele><time>2026-04-04T13:05:23Z</time></trkpt><trkpt lat="44.95804964160019" lon="11.765594710574186"><ele>4.0</ele><time>2026-04-04T13:05:25Z</time></trkpt><trkpt lat="44.95806310408621" lon="11.765723708094486"><ele>4.0</ele><time>2026-04-04T13:05:27Z</time></trkpt><trkpt lat="44.95807654798777" lon="11.765852128977905"><ele>3.9999999999999996</ele><time>2026-04-04T13:05:29Z</time></trkpt><trkpt lat="44.95809016942556" lon="11.765979298270006"><ele>4.0</ele><time>2026-04-04T13:05:31Z</time></trkpt><trkpt lat="44.95810310172182" lon="11.766106162174616"><ele>3.9999999999999996</ele><time>2026-04-04T13:05:33Z</time></trkpt><trkpt lat="44.958119532528585" lon="11.766233211675237"><ele>4.0</ele><time>2026-04-04T13:05:35Z</time></trkpt><trkpt lat="44.95813457640996" lon="11.766354676097475"><ele>4.0</ele><time>2026-04-04T13:05:37Z</time></trkpt><trkpt lat="44.958141142012835" lon="11.766470416833293"><ele>4.0</ele><time>2026-04-04T13:05:39Z</time></trkpt><trkpt lat="44.958155271106186" lon="11.76657907551441"><ele>3.9999999999999996</ele><time>2026-04-04T13:05:41Z</time></trkpt><trkpt lat="44.95817225572881" lon="11.766690827558252"><ele>4.0</ele><time>2026-04-04T13:05:42.999Z</time></trkpt><trkpt lat="44.95818404931545" lon="11.766812836575268"><ele>4.4</ele><time>2026-04-04T13:05:44.999Z</time></trkpt><trkpt lat="44.95819350645034" lon="11.766940056712738"><ele>4.800000000000001</ele><time>2026-04-04T13:05:46.999Z</time></trkpt><trkpt lat="44.958212296815674" lon="11.767066298049508"><ele>5.199999999999999</ele><time>2026-04-04T13:05:48.999Z</time></trkpt><trkpt lat="44.95822771154849" lon="11.767191947714426"><ele>5.6</ele><time>2026-04-04T13:05:50.999Z</time></trkpt><trkpt lat="44.95823888001822" lon="11.767317357144133"><ele>6.0</ele><time>2026-04-04T13:05:52.999Z</time></trkpt><trkpt lat="44.95825088886458" lon="11.767443420558976"><ele>6.0</ele><time>2026-04-04T13:05:54.999Z</time></trkpt><trkpt lat="44.958268132576414" lon="11.7675697643626"><ele>6.0</ele><time>2026-04-04T13:05:56.999Z</time></trkpt><trkpt lat="44.958281328675504" lon="11.767690794045405"><ele>6.0</ele><time>2026-04-04T13:05:58.999Z</time></trkpt><trkpt lat="44.95829434383031" lon="11.767813533718586"><ele>6.0</ele><time>2026-04-04T13:06:00.999Z</time></trkpt><trkpt lat="44.958303953275546" lon="11.767939212460318"><ele>6.0</ele><time>2026-04-04T13:06:02.999Z</time></trkpt><trkpt lat="44.958318518905756" lon="11.768065542340972"><ele>6.0</ele><time>2026-04-04T13:06:04.999Z</time></trkpt><trkpt lat="44.95833359362492" lon="11.768192619042704"><ele>5.8</ele><time>2026-04-04T13:06:06.999Z</time></trkpt><trkpt lat="44.95834746723197" lon="11.76831831352198"><ele>5.6</ele><time>2026-04-04T13:06:08.999Z</time></trkpt><trkpt lat="44.95836093611985" lon="11.768444358409704"><ele>5.4</ele><time>2026-04-04T13:06:10.999Z</time></trkpt><trkpt lat="44.95837818261972" lon="11.76857012349625"><ele>5.2</ele><time>2026-04-04T13:06:12.999Z</time></trkpt><trkpt lat="44.95839185511303" lon="11.768697366319586"><ele>5.0</ele><time>2026-04-04T13:06:14.999Z</time></trkpt><trkpt lat="44.958407348199835" lon="11.768821444479356"><ele>4.4</ele><time>2026-04-04T13:06:16.999Z</time></trkpt><trkpt lat="44.95842115744145" lon="11.76894691630455"><ele>3.8</ele><time>2026-04-04T13:06:18.999Z</time></trkpt><trkpt lat="44.95843598321585" lon="11.769075908446947"><ele>3.2</ele><time>2026-04-04T13:06:20.999Z</time></trkpt><trkpt lat="44.95845291772582" lon="11.769199579616624"><ele>2.6</ele><time>2026-04-04T13:06:22.999Z</time></trkpt><trkpt lat="44.95846406572922" lon="11.769324716059371"><ele>2.0</ele><time>2026-04-04T13:06:24.999Z</time></trkpt><trkpt lat="44.95848132753981" lon="11.769449538323162"><ele>2.0</ele><time>2026-04-04T13:06:26.999Z</time></trkpt><trkpt lat="44.95849584487045" lon="11.769578060232947"><ele>2.0</ele><time>2026-04-04T13:06:28.999Z</time></trkpt><trkpt lat="44.958506781400104" lon="11.769706885590688"><ele>2.0</ele><time>2026-04-04T13:06:30.999Z</time></trkpt><trkpt lat="44.95852562964812" lon="11.76983568714083"><ele>2.0</ele><time>2026-04-04T13:06:32.999Z</time></trkpt><trkpt lat="44.9585487662879" lon="11.769965291147509"><ele>2.0</ele><time>2026-04-04T13:06:34.999Z</time></trkpt><trkpt lat="44.95856645506273" lon="11.770098177968771"><ele>2.0</ele><time>2026-04-04T13:06:36.999Z</time></trkpt><trkpt lat="44.95858541840951" lon="11.770227219111852"><ele>2.0</ele><time>2026-04-04T13:06:38.999Z</time></trkpt><trkpt lat="44.95861043532727" lon="11.77035639108874"><ele>2.0</ele><time>2026-04-04T13:06:40.999Z</time></trkpt><trkpt lat="44.95863205266319" lon="11.770481165332441"><ele>2.0</ele><time>2026-04-04T13:06:42.999Z</time></trkpt><trkpt lat="44.95866642749445" lon="11.77060877507355"><ele>2.0</ele><time>2026-04-04T13:06:44.999Z</time></trkpt><trkpt lat="44.95868493918038" lon="11.770735373380848"><ele>1.9999999999999998</ele><time>2026-04-04T13:06:46.999Z</time></trkpt><trkpt lat="44.958713404846996" lon="11.77085449103485"><ele>2.0</ele><time>2026-04-04T13:06:48.999Z</time></trkpt><trkpt lat="44.95873563992066" lon="11.770969989359696"><ele>2.0</ele><time>2026-04-04T13:06:50.999Z</time></trkpt><trkpt lat="44.95875666897278" lon="11.771076411238933"><ele>2.0</ele><time>2026-04-04T13:06:52.999Z</time></trkpt><trkpt lat="44.958778331730656" lon="11.77118000078061"><ele>1.9999999999999998</ele><time>2026-04-04T13:06:54.999Z</time></trkpt><trkpt lat="44.958797140406084" lon="11.771283575932932"><ele>2.0</ele><time>2026-04-04T13:06:56.999Z</time></trkpt><trkpt lat="44.95881956554799" lon="11.77137408244319"><ele>2.333333333333333</ele><time>2026-04-04T13:06:58.999Z</time></trkpt><trkpt lat="44.958838815261856" lon="11.771466931190831"><ele>2.6666666666666665</ele><time>2026-04-04T13:07:00.999Z</time></trkpt><trkpt lat="44.958863449321456" lon="11.77158216870631"><ele>3.0</ele><time>2026-04-04T13:07:02.999Z</time></trkpt><trkpt lat="44.958889867519595" lon="11.771706866734258"><ele>3.333333333333333</ele><time>2026-04-04T13:07:04.999Z</time></trkpt><trkpt lat="44.95891265038106" lon="11.771830438721445"><ele>3.6666666666666665</ele><time>2026-04-04T13:07:06.999Z</time></trkpt><trkpt lat="44.9589379400262" lon="11.771944649690495"><ele>4.0</ele><time>2026-04-04T13:07:08.999Z</time></trkpt><trkpt lat="44.95896036242674" lon="11.772059468557948"><ele>3.9999999999999996</ele><time>2026-04-04T13:07:10.999Z</time></trkpt><trkpt lat="44.95898365696899" lon="11.772167187074109"><ele>4.0</ele><time>2026-04-04T13:07:12.999Z</time></trkpt><trkpt lat="44.9590046187196" lon="11.772269712549734"><ele>4.0</ele><time>2026-04-04T13:07:14.999Z</time></trkpt><trkpt lat="44.9590285771348" lon="11.772368563791382"><ele>4.0</ele><time>2026-04-04T13:07:16.999Z</time></trkpt><trkpt lat="44.959043492556994" lon="11.77247061816644"><ele>3.9999999999999996</ele><time>2026-04-04T13:07:18.999Z</time></trkpt><trkpt lat="44.95906623531781" lon="11.772578853615444"><ele>4.0</ele><time>2026-04-04T13:07:20.999Z</time></trkpt><trkpt lat="44.959092910344964" lon="11.772703936334308"><ele>3.833333333333333</ele><time>2026-04-04T13:07:22.999Z</time></trkpt><trkpt lat="44.95912156533954" lon="11.772823056685539"><ele>3.6666666666666665</ele><time>2026-04-04T13:07:24.999Z</time></trkpt><trkpt lat="44.95914312391006" lon="11.77294067682451"><ele>3.5</ele><time>2026-04-04T13:07:26.999Z</time></trkpt><trkpt lat="44.95916772618611" lon="11.773050958806845"><ele>3.333333333333333</ele><time>2026-04-04T13:07:28.999Z</time></trkpt><trkpt lat="44.959189991543695" lon="11.77315340682115"><ele>3.1666666666666665</ele><time>2026-04-04T13:07:30.999Z</time></trkpt><trkpt lat="44.959207476230915" lon="11.773254710434594"><ele>3.0</ele><time>2026-04-04T13:07:32.999Z</time></trkpt><trkpt lat="44.95923311181627" lon="11.773345466271588"><ele>2.8333333333333335</ele><time>2026-04-04T13:07:34.999Z</time></trkpt><trkpt lat="44.95924869683836" lon="11.773437285667677"><ele>2.6666666666666665</ele><time>2026-04-04T13:07:36.999Z</time></trkpt><trkpt lat="44.959269862344286" lon="11.77352136319362"><ele>2.5</ele><time>2026-04-04T13:07:38.999Z</time></trkpt><trkpt lat="44.95929560237197" lon="11.77365688668818"><ele>2.333333333333333</ele><time>2026-04-04T13:07:41.999Z</time></trkpt><trkpt lat="44.9593225051188" lon="11.773772989285455"><ele>2.1666666666666665</ele><time>2026-04-04T13:07:43.999Z</time></trkpt><trkpt lat="44.95934579286095" lon="11.773889820040482"><ele>2.0</ele><time>2026-04-04T13:07:45.999Z</time></trkpt><trkpt lat="44.95936697642751" lon="11.773998630413015"><ele>2.1666666666666665</ele><time>2026-04-04T13:07:47.999Z</time></trkpt><trkpt lat="44.95939101461132" lon="11.774108189920602"><ele>2.333333333333333</ele><time>2026-04-04T13:07:49.999Z</time></trkpt><trkpt lat="44.959415102894724" lon="11.77422945015309"><ele>2.5</ele><time>2026-04-04T13:07:51.999Z</time></trkpt><trkpt lat="44.95944221198749" lon="11.774352341072062"><ele>2.6666666666666665</ele><time>2026-04-04T13:07:53.999Z</time></trkpt><trkpt lat="44.95946889135632" lon="11.774473777983527"><ele>2.8333333333333335</ele><time>2026-04-04T13:07:55.999Z</time></trkpt><trkpt lat="44.959495948757386" lon="11.774595824352756"><ele>3.0</ele><time>2026-04-04T13:07:57.999Z</time></trkpt><trkpt lat="44.959519966549095" lon="11.774719995431319"><ele>3.0</ele><time>2026-04-04T13:07:59.999Z</time></trkpt><trkpt lat="44.95955039500027" lon="11.774842744462049"><ele>3.0</ele><time>2026-04-04T13:08:01.999Z</time></trkpt><trkpt lat="44.95957535749933" lon="11.77496664767564"><ele>3.0</ele><time>2026-04-04T13:08:03.999Z</time></trkpt><trkpt lat="44.95960203726641" lon="11.775092977695666"><ele>3.0</ele><time>2026-04-04T13:08:05.999Z</time></trkpt><trkpt lat="44.959633838281725" lon="11.77521702422746"><ele>3.0</ele><time>2026-04-04T13:08:07.999Z</time></trkpt><trkpt lat="44.959658433023705" lon="11.775338997578027"><ele>3.0</ele><time>2026-04-04T13:08:09.999Z</time></trkpt><trkpt lat="44.95968123928284" lon="11.775457815590544"><ele>3.0</ele><time>2026-04-04T13:08:11.999Z</time></trkpt><trkpt lat="44.95970481246321" lon="11.775568834999989"><ele>3.0</ele><time>2026-04-04T13:08:13.999Z</time></trkpt><trkpt lat="44.959732265742375" lon="11.775664851332179"><ele>3.0</ele><time>2026-04-04T13:08:15.999Z</time></trkpt><trkpt lat="44.9597507889593" lon="11.775760849922765"><ele>3.0</ele><time>2026-04-04T13:08:17.999Z</time></trkpt><trkpt lat="44.9597674883194" lon="11.77585686165037"><ele>3.0</ele><time>2026-04-04T13:08:20Z</time></trkpt><trkpt lat="44.95979180003303" lon="11.77595383320825"><ele>2.8333333333333335</ele><time>2026-04-04T13:08:22Z</time></trkpt><trkpt lat="44.959815484930864" lon="11.776065414983464"><ele>2.6666666666666665</ele><time>2026-04-04T13:08:24Z</time></trkpt><trkpt lat="44.959836047563996" lon="11.776171626472943"><ele>2.5</ele><time>2026-04-04T13:08:26Z</time></trkpt><trkpt lat="44.95985602344455" lon="11.776270915587869"><ele>2.333333333333333</ele><time>2026-04-04T13:08:28Z</time></trkpt><trkpt lat="44.95988052045971" lon="11.776363675036128"><ele>2.1666666666666665</ele><time>2026-04-04T13:08:30Z</time></trkpt><trkpt lat="44.95989908305123" lon="11.776464820956422"><ele>2.0</ele><time>2026-04-04T13:08:32Z</time></trkpt><trkpt lat="44.959920899441336" lon="11.776570013108548"><ele>2.0</ele><time>2026-04-04T13:08:34Z</time></trkpt><trkpt lat="44.95994627584459" lon="11.776667612310517"><ele>1.9999999999999998</ele><time>2026-04-04T13:08:36Z</time></trkpt><trkpt lat="44.9599636105041" lon="11.776766168469791"><ele>2.0</ele><time>2026-04-04T13:08:38Z</time></trkpt><trkpt lat="44.9599836797439" lon="11.776857176701885"><ele>2.0</ele><time>2026-04-04T13:08:40Z</time></trkpt><trkpt lat="44.96000576520553" lon="11.776942668063505"><ele>1.9999999999999998</ele><time>2026-04-04T13:08:42Z</time></trkpt><trkpt lat="44.96002841713232" lon="11.77703400828401"><ele>2.0</ele><time>2026-04-04T13:08:44Z</time></trkpt><trkpt lat="44.96005124979479" lon="11.777145617734703"><ele>2.0</ele><time>2026-04-04T13:08:46Z</time></trkpt><trkpt lat="44.960078944519516" lon="11.777266900624591"><ele>1.8333333333333333</ele><time>2026-04-04T13:08:48Z</time></trkpt><trkpt lat="44.96010646097046" lon="11.777384821958462"><ele>1.6666666666666665</ele><time>2026-04-04T13:08:50Z</time></trkpt><trkpt lat="44.9601330843113" lon="11.777497747249656"><ele>1.5</ele><time>2026-04-04T13:08:52Z</time></trkpt><trkpt lat="44.96015561229123" lon="11.777603745460764"><ele>1.3333333333333333</ele><time>2026-04-04T13:08:54Z</time></trkpt><trkpt lat="44.960185649262776" lon="11.777705089526426"><ele>1.1666666666666665</ele><time>2026-04-04T13:08:56Z</time></trkpt><trkpt lat="44.96021989265978" lon="11.777814575719999"><ele>1.0</ele><time>2026-04-04T13:08:58Z</time></trkpt><trkpt lat="44.960258628790555" lon="11.77792672812728"><ele>1.5</ele><time>2026-04-04T13:09:00Z</time></trkpt><trkpt lat="44.96029349448393" lon="11.778040155838184"><ele>2.0</ele><time>2026-04-04T13:09:02Z</time></trkpt><trkpt lat="44.96032272809702" lon="11.778151365546107"><ele>2.5</ele><time>2026-04-04T13:09:04Z</time></trkpt><trkpt lat="44.9603549907257" lon="11.778257103042256"><ele>3.0</ele><time>2026-04-04T13:09:06Z</time></trkpt><trkpt lat="44.96038491426062" lon="11.7783569116746"><ele>3.4999999999999996</ele><time>2026-04-04T13:09:08Z</time></trkpt><trkpt lat="44.96041628721989" lon="11.778450130609459"><ele>4.0</ele><time>2026-04-04T13:09:10Z</time></trkpt><trkpt lat="44.960445355623804" lon="11.778541330717633"><ele>4.666666666666666</ele><time>2026-04-04T13:09:12Z</time></trkpt><trkpt lat="44.96046870358491" lon="11.778634448546011"><ele>5.333333333333333</ele><time>2026-04-04T13:09:14Z</time></trkpt><trkpt lat="44.96049698570225" lon="11.778718378744198"><ele>6.0</ele><time>2026-04-04T13:09:16Z</time></trkpt><trkpt lat="44.96053069645264" lon="11.778839029326548"><ele>6.666666666666666</ele><time>2026-04-04T13:09:19Z</time></trkpt><trkpt lat="44.96055728133039" lon="11.77895148812101"><ele>7.333333333333333</ele><time>2026-04-04T13:09:22Z</time></trkpt><trkpt lat="44.96057205680426" lon="11.779057513139973"><ele>8.0</ele><time>2026-04-04T13:09:25Z</time></trkpt><trkpt lat="44.96057991969476" lon="11.779184411408153"><ele>8.0</ele><time>2026-04-04T13:09:28Z</time></trkpt><trkpt lat="44.96058207509143" lon="11.77929212959479"><ele>8.0</ele><time>2026-04-04T13:09:30Z</time></trkpt><trkpt lat="44.96056803093523" lon="11.779422385861087"><ele>8.0</ele><time>2026-04-04T13:09:32Z</time></trkpt><trkpt lat="44.96056360928379" lon="11.77956009632269"><ele>8.0</ele><time>2026-04-04T13:09:34Z</time></trkpt><trkpt lat="44.960557050900455" lon="11.779700623179853"><ele>8.0</ele><time>2026-04-04T13:09:36Z</time></trkpt><trkpt lat="44.96054465220735" lon="11.779843573383253"><ele>7.800000000000001</ele><time>2026-04-04T13:09:38Z</time></trkpt><trkpt lat="44.96053648487603" lon="11.779986890229228"><ele>7.6000000000000005</ele><time>2026-04-04T13:09:40Z</time></trkpt><trkpt lat="44.960527729847115" lon="11.780129371974882"><ele>7.3999999999999995</ele><time>2026-04-04T13:09:42Z</time></trkpt><trkpt lat="44.96052127436574" lon="11.780276257356423"><ele>7.199999999999999</ele><time>2026-04-04T13:09:44Z</time></trkpt><trkpt lat="44.96051320133305" lon="11.78042213993639"><ele>7.0</ele><time>2026-04-04T13:09:46Z</time></trkpt><trkpt lat="44.96050130753256" lon="11.780567090248454"><ele>7.6</ele><time>2026-04-04T13:09:48Z</time></trkpt><trkpt lat="44.960492478505856" lon="11.780711303373822"><ele>8.2</ele><time>2026-04-04T13:09:50Z</time></trkpt><trkpt lat="44.96048564368035" lon="11.780856547045898"><ele>8.8</ele><time>2026-04-04T13:09:52Z</time></trkpt><trkpt lat="44.960477318989234" lon="11.781001178557906"><ele>9.4</ele><time>2026-04-04T13:09:54Z</time></trkpt><trkpt lat="44.96047291525235" lon="11.781146563952873"><ele>10.0</ele><time>2026-04-04T13:09:56Z</time></trkpt><trkpt lat="44.960465293070015" lon="11.781292311026256"><ele>10.0</ele><time>2026-04-04T13:09:58Z</time></trkpt><trkpt lat="44.960453865398314" lon="11.781436536315221"><ele>10.0</ele><time>2026-04-04T13:10:00Z</time></trkpt><trkpt lat="44.96044434304116" lon="11.781581541982248"><ele>10.0</ele><time>2026-04-04T13:10:02Z</time></trkpt><trkpt lat="44.96043491370284" lon="11.781728297201246"><ele>10.0</ele><time>2026-04-04T13:10:04Z</time></trkpt><trkpt lat="44.96043008345884" lon="11.78187414842063"><ele>10.0</ele><time>2026-04-04T13:10:06Z</time></trkpt><trkpt lat="44.960420902225856" lon="11.782016019318558"><ele>10.0</ele><time>2026-04-04T13:10:08Z</time></trkpt><trkpt lat="44.96041009696648" lon="11.782158770588932"><ele>10.0</ele><time>2026-04-04T13:10:10Z</time></trkpt><trkpt lat="44.960399912174275" lon="11.782304709667168"><ele>10.0</ele><time>2026-04-04T13:10:12Z</time></trkpt><trkpt lat="44.960391127937925" lon="11.782450257251508"><ele>10.0</ele><time>2026-04-04T13:10:14Z</time></trkpt><trkpt lat="44.960380284916766" lon="11.782597428507179"><ele>10.0</ele><time>2026-04-04T13:10:16Z</time></trkpt><trkpt lat="44.960374881075744" lon="11.782743860327473"><ele>10.2</ele><time>2026-04-04T13:10:18Z</time></trkpt><trkpt lat="44.96036544863548" lon="11.782891590768207"><ele>10.4</ele><time>2026-04-04T13:10:20Z</time></trkpt><trkpt lat="44.96035576005016" lon="11.783034770217235"><ele>10.600000000000001</ele><time>2026-04-04T13:10:22Z</time></trkpt><trkpt lat="44.96034804210793" lon="11.783176492227938"><ele>10.8</ele><time>2026-04-04T13:10:24Z</time></trkpt><trkpt lat="44.96033916463255" lon="11.783323219173129"><ele>11.0</ele><time>2026-04-04T13:10:26Z</time></trkpt><trkpt lat="44.960331391927916" lon="11.783469408927857"><ele>11.0</ele><time>2026-04-04T13:10:28Z</time></trkpt><trkpt lat="44.96031831156606" lon="11.783612473127056"><ele>11.0</ele><time>2026-04-04T13:10:30Z</time></trkpt><trkpt lat="44.96031079812963" lon="11.783757692802098"><ele>11.0</ele><time>2026-04-04T13:10:32Z</time></trkpt><trkpt lat="44.96030452029563" lon="11.783905333448713"><ele>11.0</ele><time>2026-04-04T13:10:34Z</time></trkpt><trkpt lat="44.96029537600644" lon="11.78405218060133"><ele>11.0</ele><time>2026-04-04T13:10:36Z</time></trkpt><trkpt lat="44.96029283884154" lon="11.784200226402303"><ele>11.0</ele><time>2026-04-04T13:10:38Z</time></trkpt><trkpt lat="44.9603087063417" lon="11.784346470593793"><ele>11.0</ele><time>2026-04-04T13:10:40Z</time></trkpt><trkpt lat="44.960331389072536" lon="11.784490037527942"><ele>11.0</ele><time>2026-04-04T13:10:42Z</time></trkpt><trkpt lat="44.96036493907644" lon="11.784627419192747"><ele>11.0</ele><time>2026-04-04T13:10:44Z</time></trkpt><trkpt lat="44.96041574805976" lon="11.784750913499826"><ele>11.0</ele><time>2026-04-04T13:10:46Z</time></trkpt><trkpt lat="44.96047260333847" lon="11.7848629102618"><ele>11.0</ele><time>2026-04-04T13:10:48Z</time></trkpt><trkpt lat="44.96052520652102" lon="11.784961845636825"><ele>11.0</ele><time>2026-04-04T13:10:50Z</time></trkpt><trkpt lat="44.96057199198741" lon="11.785063010796344"><ele>11.0</ele><time>2026-04-04T13:10:52Z</time></trkpt><trkpt lat="44.960619693718584" lon="11.785158546698716"><ele>11.0</ele><time>2026-04-04T13:10:54Z</time></trkpt><trkpt lat="44.96067183423639" lon="11.785244851051571"><ele>11.0</ele><time>2026-04-04T13:10:56Z</time></trkpt><trkpt lat="44.96071671202386" lon="11.78532806943574"><ele>11.0</ele><time>2026-04-04T13:10:58Z</time></trkpt><trkpt lat="44.960756976759384" lon="11.785411227382696"><ele>10.4</ele><time>2026-04-04T13:11:00Z</time></trkpt><trkpt lat="44.9607988711899" lon="11.785499825588069"><ele>9.8</ele><time>2026-04-04T13:11:02Z</time></trkpt><trkpt lat="44.960856105290155" lon="11.78560621516405"><ele>9.200000000000001</ele><time>2026-04-04T13:11:04Z</time></trkpt><trkpt lat="44.960914924132254" lon="11.785721332415138"><ele>8.600000000000001</ele><time>2026-04-04T13:11:06Z</time></trkpt><trkpt lat="44.96096826781376" lon="11.785834577104833"><ele>8.0</ele><time>2026-04-04T13:11:08Z</time></trkpt><trkpt lat="44.96102013099718" lon="11.785941135244041"><ele>8.333333333333332</ele><time>2026-04-04T13:11:10Z</time></trkpt><trkpt lat="44.961071679191384" lon="11.786044954097399"><ele>8.666666666666666</ele><time>2026-04-04T13:11:12Z</time></trkpt><trkpt lat="44.96112514181001" lon="11.786137071389392"><ele>9.0</ele><time>2026-04-04T13:11:14Z</time></trkpt><trkpt lat="44.96117037074747" lon="11.786229218415535"><ele>9.333333333333334</ele><time>2026-04-04T13:11:16Z</time></trkpt><trkpt lat="44.96121501219654" lon="11.786324042221507"><ele>9.666666666666668</ele><time>2026-04-04T13:11:18Z</time></trkpt><trkpt lat="44.961276083513624" lon="11.786428831796481"><ele>10.0</ele><time>2026-04-04T13:11:20Z</time></trkpt><trkpt lat="44.961329731868084" lon="11.786537463354898"><ele>10.0</ele><time>2026-04-04T13:11:22Z</time></trkpt><trkpt lat="44.961384194823" lon="11.786647854753523"><ele>10.0</ele><time>2026-04-04T13:11:24Z</time></trkpt><trkpt lat="44.961436158153504" lon="11.786752641659012"><ele>10.0</ele><time>2026-04-04T13:11:26Z</time></trkpt><trkpt lat="44.961488665594004" lon="11.786848018980006"><ele>10.0</ele><time>2026-04-04T13:11:28Z</time></trkpt><trkpt lat="44.96153383192455" lon="11.786944630969924"><ele>10.0</ele><time>2026-04-04T13:11:30Z</time></trkpt><trkpt lat="44.96157939408874" lon="11.787031058680137"><ele>10.0</ele><time>2026-04-04T13:11:32Z</time></trkpt><trkpt lat="44.961622830678934" lon="11.787114144713676"><ele>9.833333333333334</ele><time>2026-04-04T13:11:34Z</time></trkpt><trkpt lat="44.96167169953493" lon="11.78719549936604"><ele>9.666666666666668</ele><time>2026-04-04T13:11:36Z</time></trkpt><trkpt lat="44.961723571505246" lon="11.787311061438702"><ele>9.5</ele><time>2026-04-04T13:11:38Z</time></trkpt><trkpt lat="44.96177855229699" lon="11.787408536199267"><ele>9.333333333333334</ele><time>2026-04-04T13:11:40Z</time></trkpt><trkpt lat="44.96182575234079" lon="11.7875059215766"><ele>9.166666666666666</ele><time>2026-04-04T13:11:42Z</time></trkpt><trkpt lat="44.96187107995254" lon="11.787598487675965"><ele>9.0</ele><time>2026-04-04T13:11:44Z</time></trkpt><trkpt lat="44.96191777024688" lon="11.787689768423803"><ele>9.5</ele><time>2026-04-04T13:11:46Z</time></trkpt><trkpt lat="44.96196590211699" lon="11.787773939983836"><ele>10.0</ele><time>2026-04-04T13:11:48Z</time></trkpt><trkpt lat="44.96201699930157" lon="11.787878687817644"><ele>10.5</ele><time>2026-04-04T13:11:50Z</time></trkpt><trkpt lat="44.96207260481868" lon="11.787992220858108"><ele>11.0</ele><time>2026-04-04T13:11:52Z</time></trkpt><trkpt lat="44.96212882407091" lon="11.788095880903434"><ele>11.5</ele><time>2026-04-04T13:11:54Z</time></trkpt><trkpt lat="44.96218072379803" lon="11.78820030271177"><ele>12.0</ele><time>2026-04-04T13:11:56Z</time></trkpt><trkpt lat="44.962240176841064" lon="11.788292077312944"><ele>12.0</ele><time>2026-04-04T13:11:58Z</time></trkpt><trkpt lat="44.962295029478334" lon="11.788377203595513"><ele>12.0</ele><time>2026-04-04T13:12:00Z</time></trkpt><trkpt lat="44.962352488441745" lon="11.788452798047768"><ele>12.0</ele><time>2026-04-04T13:12:02Z</time></trkpt><trkpt lat="44.962402889452456" lon="11.788530051385166"><ele>12.0</ele><time>2026-04-04T13:12:04Z</time></trkpt><trkpt lat="44.96247157010589" lon="11.788616768221017"><ele>12.0</ele><time>2026-04-04T13:12:06Z</time></trkpt><trkpt lat="44.96254374110777" lon="11.788693991499722"><ele>12.0</ele><time>2026-04-04T13:12:08Z</time></trkpt><trkpt lat="44.962608648122384" lon="11.788773820755223"><ele>12.0</ele><time>2026-04-04T13:12:10Z</time></trkpt><trkpt lat="44.96267044206792" lon="11.788850303142215"><ele>12.0</ele><time>2026-04-04T13:12:12Z</time></trkpt><trkpt lat="44.962729766488394" lon="11.788919628231705"><ele>12.0</ele><time>2026-04-04T13:12:14Z</time></trkpt><trkpt lat="44.962786545391225" lon="11.788983468482101"><ele>12.0</ele><time>2026-04-04T13:12:16Z</time></trkpt><trkpt lat="44.96283794390388" lon="11.789047827756471"><ele>12.0</ele><time>2026-04-04T13:12:18Z</time></trkpt><trkpt lat="44.96289743476292" lon="11.789111618372024"><ele>12.0</ele><time>2026-04-04T13:12:20Z</time></trkpt><trkpt lat="44.96297465414818" lon="11.789179149156869"><ele>12.0</ele><time>2026-04-04T13:12:22Z</time></trkpt><trkpt lat="44.96303157263632" lon="11.789234601423722"><ele>12.0</ele><time>2026-04-04T13:12:24Z</time></trkpt><trkpt lat="44.963078818523684" lon="11.789297826589856"><ele>12.0</ele><time>2026-04-04T13:12:26Z</time></trkpt><trkpt lat="44.96314302397083" lon="11.789385199215072"><ele>12.0</ele><time>2026-04-04T13:12:29Z</time></trkpt><trkpt lat="44.963201326758735" lon="11.78946987192643"><ele>12.0</ele><time>2026-04-04T13:12:32Z</time></trkpt><trkpt lat="44.9632631856492" lon="11.789536372058869"><ele>12.0</ele><time>2026-04-04T13:12:34Z</time></trkpt><trkpt lat="44.963324865337235" lon="11.789607719871848"><ele>11.571428571428571</ele><time>2026-04-04T13:12:36Z</time></trkpt><trkpt lat="44.96338012479135" lon="11.789669947863722"><ele>11.142857142857142</ele><time>2026-04-04T13:12:38Z</time></trkpt><trkpt lat="44.96343202111483" lon="11.789732453528506"><ele>10.714285714285715</ele><time>2026-04-04T13:12:40Z</time></trkpt><trkpt lat="44.96347923093693" lon="11.789794116869489"><ele>10.285714285714285</ele><time>2026-04-04T13:12:42Z</time></trkpt><trkpt lat="44.96355185357871" lon="11.789871816136438"><ele>9.857142857142858</ele><time>2026-04-04T13:12:45Z</time></trkpt><trkpt lat="44.96359931206993" lon="11.789932086171572"><ele>9.428571428571429</ele><time>2026-04-04T13:12:47Z</time></trkpt><trkpt lat="44.96365339949955" lon="11.789999915056306"><ele>9.0</ele><time>2026-04-04T13:12:49Z</time></trkpt><trkpt lat="44.963703999391434" lon="11.790058207916294"><ele>9.000000000000002</ele><time>2026-04-04T13:12:51Z</time></trkpt><trkpt lat="44.96375278563278" lon="11.790118260368978"><ele>9.0</ele><time>2026-04-04T13:12:53Z</time></trkpt><trkpt lat="44.96382470146882" lon="11.790197505817872"><ele>9.0</ele><time>2026-04-04T13:12:56Z</time></trkpt><trkpt lat="44.96387520782211" lon="11.790261927181591"><ele>9.0</ele><time>2026-04-04T13:12:58Z</time></trkpt><trkpt lat="44.963925582861314" lon="11.790323686114679"><ele>9.0</ele><time>2026-04-04T13:13:00Z</time></trkpt><trkpt lat="44.96397490281552" lon="11.790379707155816"><ele>9.000000000000002</ele><time>2026-04-04T13:13:02Z</time></trkpt><trkpt lat="44.964022561078174" lon="11.790440211411411"><ele>9.0</ele><time>2026-04-04T13:13:04Z</time></trkpt><trkpt lat="44.96407061070239" lon="11.790497844622655"><ele>8.833333333333334</ele><time>2026-04-04T13:13:06Z</time></trkpt><trkpt lat="44.96413833310153" lon="11.790582050280902"><ele>8.666666666666666</ele><time>2026-04-04T13:13:09Z</time></trkpt><trkpt lat="44.96420603387332" lon="11.79064228259317"><ele>8.5</ele><time>2026-04-04T13:13:12Z</time></trkpt><trkpt lat="44.964252760004506" lon="11.7907056780901"><ele>8.333333333333332</ele><time>2026-04-04T13:13:14Z</time></trkpt><trkpt lat="44.96431860470784" lon="11.790782836885729"><ele>8.166666666666666</ele><time>2026-04-04T13:13:16Z</time></trkpt><trkpt lat="44.96437842170213" lon="11.790857875578164"><ele>8.0</ele><time>2026-04-04T13:13:18Z</time></trkpt><trkpt lat="44.964436225550315" lon="11.790927101787629"><ele>7.999999999999999</ele><time>2026-04-04T13:13:20Z</time></trkpt><trkpt lat="44.964496941049035" lon="11.790987770460521"><ele>8.0</ele><time>2026-04-04T13:13:22Z</time></trkpt><trkpt lat="44.96454590745827" lon="11.791059041344337"><ele>8.0</ele><time>2026-04-04T13:13:24Z</time></trkpt><trkpt lat="44.964601394003786" lon="11.791118770065859"><ele>8.0</ele><time>2026-04-04T13:13:26Z</time></trkpt><trkpt lat="44.964653152458915" lon="11.791178041862374"><ele>7.999999999999999</ele><time>2026-04-04T13:13:28Z</time></trkpt><trkpt lat="44.9647234173074" lon="11.79126408636773"><ele>8.0</ele><time>2026-04-04T13:13:31Z</time></trkpt><trkpt lat="44.96478926578527" lon="11.79132996025567"><ele>7.999999999999999</ele><time>2026-04-04T13:13:34Z</time></trkpt><trkpt lat="44.964835979209106" lon="11.7913899039622"><ele>8.0</ele><time>2026-04-04T13:13:36Z</time></trkpt><trkpt lat="44.96489426515221" lon="11.791454921258168"><ele>8.0</ele><time>2026-04-04T13:13:39Z</time></trkpt><trkpt lat="44.964955860195964" lon="11.791530677235036"><ele>8.0</ele><time>2026-04-04T13:13:42Z</time></trkpt><trkpt lat="44.96501998051353" lon="11.791604620123575"><ele>7.999999999999999</ele><time>2026-04-04T13:13:44Z</time></trkpt><trkpt lat="44.96508351623434" lon="11.791685790600186"><ele>8.0</ele><time>2026-04-04T13:13:46Z</time></trkpt><trkpt lat="44.96514523037556" lon="11.791758748798124"><ele>7.499999999999999</ele><time>2026-04-04T13:13:48Z</time></trkpt><trkpt lat="44.9652046025183" lon="11.791827889183988"><ele>7.0</ele><time>2026-04-04T13:13:50Z</time></trkpt><trkpt lat="44.9652601770294" lon="11.791890906210325"><ele>6.5</ele><time>2026-04-04T13:13:52Z</time></trkpt><trkpt lat="44.96531190497233" lon="11.791949618279148"><ele>6.0</ele><time>2026-04-04T13:13:54Z</time></trkpt><trkpt lat="44.9653738327712" lon="11.792026840712072"><ele>5.5</ele><time>2026-04-04T13:13:57Z</time></trkpt><trkpt lat="44.96544146236104" lon="11.792104580052467"><ele>5.0</ele><time>2026-04-04T13:14:00Z</time></trkpt><trkpt lat="44.96550468263342" lon="11.792178576338873"><ele>5.0</ele><time>2026-04-04T13:14:02Z</time></trkpt><trkpt lat="44.96556143681123" lon="11.792246047371611"><ele>5.0</ele><time>2026-04-04T13:14:04Z</time></trkpt><trkpt lat="44.96561723268148" lon="11.792304924070871"><ele>5.0</ele><time>2026-04-04T13:14:06Z</time></trkpt><trkpt lat="44.96566474670797" lon="11.792369319593876"><ele>5.0</ele><time>2026-04-04T13:14:08Z</time></trkpt><trkpt lat="44.96571880776026" lon="11.79243147773312"><ele>5.0</ele><time>2026-04-04T13:14:11Z</time></trkpt><trkpt lat="44.965775495197775" lon="11.792501376720486"><ele>5.0</ele><time>2026-04-04T13:15:34Z</time></trkpt><trkpt lat="44.96583071526547" lon="11.792564674499657"><ele>5.0</ele><time>2026-04-04T13:15:36Z</time></trkpt><trkpt lat="44.96590173644174" lon="11.792641005916538"><ele>4.8</ele><time>2026-04-04T13:15:38Z</time></trkpt><trkpt lat="44.96597369933317" lon="11.792727390935607"><ele>4.6</ele><time>2026-04-04T13:15:40Z</time></trkpt><trkpt lat="44.96604882730045" lon="11.792817321853757"><ele>4.4</ele><time>2026-04-04T13:15:42Z</time></trkpt><trkpt lat="44.96612689552136" lon="11.792906478173405"><ele>4.2</ele><time>2026-04-04T13:15:44Z</time></trkpt><trkpt lat="44.96620344436312" lon="11.79299627345324"><ele>4.0</ele><time>2026-04-04T13:15:46Z</time></trkpt><trkpt lat="44.96627356640389" lon="11.793078089423425"><ele>3.9999999999999996</ele><time>2026-04-04T13:15:48Z</time></trkpt><trkpt lat="44.96634296655891" lon="11.793155370337875"><ele>4.0</ele><time>2026-04-04T13:15:50Z</time></trkpt><trkpt lat="44.96640703335592" lon="11.793232489872743"><ele>4.0</ele><time>2026-04-04T13:15:52Z</time></trkpt><trkpt lat="44.96646993389451" lon="11.793299217792546"><ele>4.0</ele><time>2026-04-04T13:15:54Z</time></trkpt><trkpt lat="44.96652316804833" lon="11.793367432533834"><ele>3.9999999999999996</ele><time>2026-04-04T13:15:56Z</time></trkpt><trkpt lat="44.966581858282034" lon="11.793432059055366"><ele>4.0</ele><time>2026-04-04T13:15:58Z</time></trkpt><trkpt lat="44.966650899591585" lon="11.793520431035963"><ele>3.833333333333333</ele><time>2026-04-04T13:16:00Z</time></trkpt><trkpt lat="44.966726573194634" lon="11.793603540981684"><ele>3.6666666666666665</ele><time>2026-04-04T13:16:02Z</time></trkpt><trkpt lat="44.96679435250528" lon="11.793684018519924"><ele>3.5</ele><time>2026-04-04T13:16:04Z</time></trkpt><trkpt lat="44.96685776202924" lon="11.793751177896153"><ele>3.333333333333333</ele><time>2026-04-04T13:16:06Z</time></trkpt><trkpt lat="44.96691257447976" lon="11.793814774083508"><ele>3.1666666666666665</ele><time>2026-04-04T13:16:08Z</time></trkpt><trkpt lat="44.966964126158906" lon="11.793872525010805"><ele>3.0</ele><time>2026-04-04T13:16:10Z</time></trkpt><trkpt lat="44.96703145435841" lon="11.793949381399306"><ele>3.0</ele><time>2026-04-04T13:16:13Z</time></trkpt><trkpt lat="44.96711706899599" lon="11.794033656730285"><ele>3.0</ele><time>2026-04-04T13:16:16Z</time></trkpt><trkpt lat="44.96718953708268" lon="11.794120058919022"><ele>3.0</ele><time>2026-04-04T13:16:18Z</time></trkpt><trkpt lat="44.96726655756297" lon="11.794202883508309"><ele>3.0</ele><time>2026-04-04T13:16:20.001Z</time></trkpt><trkpt lat="44.96733595912621" lon="11.794280583248517"><ele>3.0</ele><time>2026-04-04T13:16:22.001Z</time></trkpt><trkpt lat="44.96740017993966" lon="11.79435282648505"><ele>3.0</ele><time>2026-04-04T13:16:24.001Z</time></trkpt><trkpt lat="44.96746379238975" lon="11.79441990505997"><ele>3.0</ele><time>2026-04-04T13:16:26.001Z</time></trkpt><trkpt lat="44.96752463113969" lon="11.794481507477025"><ele>3.0</ele><time>2026-04-04T13:16:28.001Z</time></trkpt><trkpt lat="44.967585922067435" lon="11.794542212383346"><ele>3.0</ele><time>2026-04-04T13:16:30.001Z</time></trkpt><trkpt lat="44.96765817263405" lon="11.794626201499009"><ele>3.0</ele><time>2026-04-04T13:16:32.001Z</time></trkpt><trkpt lat="44.96773532314488" lon="11.794711275300118"><ele>3.0</ele><time>2026-04-04T13:16:34.001Z</time></trkpt><trkpt lat="44.96780767415335" lon="11.794783251239464"><ele>3.0</ele><time>2026-04-04T13:16:36.001Z</time></trkpt><trkpt lat="44.96788025249531" lon="11.794856843447869"><ele>3.0</ele><time>2026-04-04T13:16:38.001Z</time></trkpt><trkpt lat="44.96795996067052" lon="11.794939902583979"><ele>3.0</ele><time>2026-04-04T13:16:40.001Z</time></trkpt><trkpt lat="44.96804185431095" lon="11.795025778704602"><ele>3.0</ele><time>2026-04-04T13:16:42Z</time></trkpt><trkpt lat="44.96812017018393" lon="11.795119036264968"><ele>3.0</ele><time>2026-04-04T13:16:44Z</time></trkpt><trkpt lat="44.9681982213017" lon="11.795205412751796"><ele>3.0</ele><time>2026-04-04T13:16:46Z</time></trkpt><trkpt lat="44.968277928459536" lon="11.795295828136547"><ele>3.0</ele><time>2026-04-04T13:16:48Z</time></trkpt><trkpt lat="44.96835595637894" lon="11.795384373139514"><ele>3.0</ele><time>2026-04-04T13:16:50Z</time></trkpt><trkpt lat="44.96843735603629" lon="11.795472794664983"><ele>3.0</ele><time>2026-04-04T13:16:52Z</time></trkpt><trkpt lat="44.968516969848594" lon="11.795564760552171"><ele>3.0</ele><time>2026-04-04T13:16:54Z</time></trkpt><trkpt lat="44.96859765604273" lon="11.795655473993747"><ele>3.2</ele><time>2026-04-04T13:16:56Z</time></trkpt><trkpt lat="44.96867605399077" lon="11.795749106193485"><ele>3.4</ele><time>2026-04-04T13:16:58Z</time></trkpt><trkpt lat="44.96875761278755" lon="11.795838637930704"><ele>3.6000000000000005</ele><time>2026-04-04T13:17:00Z</time></trkpt><trkpt lat="44.96883938294522" lon="11.795927143967596"><ele>3.8000000000000003</ele><time>2026-04-04T13:17:02Z</time></trkpt><trkpt lat="44.96891867371942" lon="11.796020958085341"><ele>4.0</ele><time>2026-04-04T13:17:04Z</time></trkpt><trkpt lat="44.96899818311749" lon="11.796110476135013"><ele>4.0</ele><time>2026-04-04T13:17:06Z</time></trkpt><trkpt lat="44.96907718171489" lon="11.796203110810168"><ele>4.0</ele><time>2026-04-04T13:17:08Z</time></trkpt><trkpt lat="44.96916500022366" lon="11.796290855865024"><ele>4.0</ele><time>2026-04-04T13:17:10Z</time></trkpt><trkpt lat="44.96924979322631" lon="11.796381500796157"><ele>4.0</ele><time>2026-04-04T13:17:12Z</time></trkpt><trkpt lat="44.96933436908383" lon="11.796468615785908"><ele>4.0</ele><time>2026-04-04T13:17:14Z</time></trkpt><trkpt lat="44.96942257535175" lon="11.796550948445041"><ele>4.2</ele><time>2026-04-04T13:17:16Z</time></trkpt><trkpt lat="44.96950770395514" lon="11.796638249502506"><ele>4.4</ele><time>2026-04-04T13:17:18Z</time></trkpt><trkpt lat="44.96959399350723" lon="11.796718289940733"><ele>4.6</ele><time>2026-04-04T13:17:20Z</time></trkpt><trkpt lat="44.96968447422667" lon="11.796797186038717"><ele>4.8</ele><time>2026-04-04T13:17:22Z</time></trkpt><trkpt lat="44.969772946716716" lon="11.796878288576362"><ele>5.0</ele><time>2026-04-04T13:17:24Z</time></trkpt><trkpt lat="44.96986520627522" lon="11.796948912381438"><ele>5.0</ele><time>2026-04-04T13:17:26Z</time></trkpt><trkpt lat="44.9699612588041" lon="11.797014714929569"><ele>5.0</ele><time>2026-04-04T13:17:28Z</time></trkpt><trkpt lat="44.970051229049716" lon="11.797093090124353"><ele>5.0</ele><time>2026-04-04T13:17:30Z</time></trkpt><trkpt lat="44.97014463519798" lon="11.797162585848039"><ele>5.0</ele><time>2026-04-04T13:17:32Z</time></trkpt><trkpt lat="44.97023588193707" lon="11.79722533954328"><ele>5.0</ele><time>2026-04-04T13:17:34Z</time></trkpt><trkpt lat="44.97032022352851" lon="11.797291332801661"><ele>4.666666666666667</ele><time>2026-04-04T13:17:36Z</time></trkpt><trkpt lat="44.97040403118764" lon="11.797354715373704"><ele>4.333333333333334</ele><time>2026-04-04T13:17:38Z</time></trkpt><trkpt lat="44.97048799695956" lon="11.797407843544065"><ele>4.0</ele><time>2026-04-04T13:17:40Z</time></trkpt><trkpt lat="44.970574864310066" lon="11.797467317894732"><ele>3.666666666666667</ele><time>2026-04-04T13:17:42Z</time></trkpt><trkpt lat="44.97065751945716" lon="11.797519140674446"><ele>3.3333333333333335</ele><time>2026-04-04T13:17:44Z</time></trkpt><trkpt lat="44.97072365803582" lon="11.797570139911091"><ele>3.0</ele><time>2026-04-04T13:18:14Z</time></trkpt><trkpt lat="44.97079591877902" lon="11.797628160128328"><ele>2.8</ele><time>2026-04-04T13:18:17Z</time></trkpt><trkpt lat="44.97087511483764" lon="11.797665284832664"><ele>2.5999999999999996</ele><time>2026-04-04T13:18:19Z</time></trkpt><trkpt lat="44.97095411537428" lon="11.797714665362104"><ele>2.4000000000000004</ele><time>2026-04-04T13:18:21Z</time></trkpt><trkpt lat="44.97104051370113" lon="11.797781622763535"><ele>2.2</ele><time>2026-04-04T13:18:23Z</time></trkpt><trkpt lat="44.97113037545412" lon="11.797841043039641"><ele>2.0</ele><time>2026-04-04T13:18:25Z</time></trkpt><trkpt lat="44.97121855564527" lon="11.797900730803265"><ele>2.6666666666666665</ele><time>2026-04-04T13:18:27Z</time></trkpt><trkpt lat="44.971299954614416" lon="11.797976540775"><ele>3.333333333333333</ele><time>2026-04-04T13:18:29Z</time></trkpt><trkpt lat="44.97139030248873" lon="11.798020073222238"><ele>4.0</ele><time>2026-04-04T13:18:31Z</time></trkpt><trkpt lat="44.97146882907604" lon="11.79808081752249"><ele>4.666666666666667</ele><time>2026-04-04T13:18:33Z</time></trkpt><trkpt lat="44.971544526195046" lon="11.798133964472479"><ele>5.333333333333333</ele><time>2026-04-04T13:18:35Z</time></trkpt><trkpt lat="44.97161733491904" lon="11.798183264514"><ele>6.0</ele><time>2026-04-04T13:18:37Z</time></trkpt><trkpt lat="44.97168971148466" lon="11.798226609325146"><ele>5.833333333333333</ele><time>2026-04-04T13:18:39Z</time></trkpt><trkpt lat="44.971757538095204" lon="11.798269983442015"><ele>5.666666666666667</ele><time>2026-04-04T13:18:41Z</time></trkpt><trkpt lat="44.971821468748296" lon="11.798311216393865"><ele>5.5</ele><time>2026-04-04T13:18:43Z</time></trkpt><trkpt lat="44.97189228404057" lon="11.798364937455501"><ele>5.333333333333334</ele><time>2026-04-04T13:18:45Z</time></trkpt><trkpt lat="44.97197491749991" lon="11.798429590106517"><ele>5.166666666666667</ele><time>2026-04-04T13:18:47Z</time></trkpt><trkpt lat="44.97206406819371" lon="11.798491651483832"><ele>5.0</ele><time>2026-04-04T13:18:49Z</time></trkpt><trkpt lat="44.97215263729716" lon="11.798558718816894"><ele>4.8</ele><time>2026-04-04T13:18:51Z</time></trkpt><trkpt lat="44.972242962193995" lon="11.798629207208574"><ele>4.6</ele><time>2026-04-04T13:18:53Z</time></trkpt><trkpt lat="44.97232987068221" lon="11.798699899021667"><ele>4.4</ele><time>2026-04-04T13:18:55Z</time></trkpt><trkpt lat="44.972416443875545" lon="11.798780630720227"><ele>4.2</ele><time>2026-04-04T13:18:57Z</time></trkpt><trkpt lat="44.97250046320414" lon="11.798868968040637"><ele>4.0</ele><time>2026-04-04T13:18:59Z</time></trkpt><trkpt lat="44.97258429407535" lon="11.798956509669004"><ele>3.8000000000000003</ele><time>2026-04-04T13:19:01Z</time></trkpt><trkpt lat="44.97266635320852" lon="11.79905021576943"><ele>3.6000000000000005</ele><time>2026-04-04T13:19:03Z</time></trkpt><trkpt lat="44.97274296303557" lon="11.799139657028483"><ele>3.4</ele><time>2026-04-04T13:19:05Z</time></trkpt><trkpt lat="44.97281496375002" lon="11.79923614440473"><ele>3.2</ele><time>2026-04-04T13:19:07Z</time></trkpt><trkpt lat="44.972891779388085" lon="11.79933474659325"><ele>3.0</ele><time>2026-04-04T13:19:09Z</time></trkpt><trkpt lat="44.97296574137173" lon="11.799435454494597"><ele>3.0</ele><time>2026-04-04T13:19:11Z</time></trkpt><trkpt lat="44.973031597890326" lon="11.799548159315508"><ele>3.0</ele><time>2026-04-04T13:19:13Z</time></trkpt><trkpt lat="44.97309352969243" lon="11.799667184050692"><ele>3.0</ele><time>2026-04-04T13:19:15Z</time></trkpt><trkpt lat="44.97314883384095" lon="11.799789139686203"><ele>3.0</ele><time>2026-04-04T13:19:17Z</time></trkpt><trkpt lat="44.97319628804512" lon="11.799910978852798"><ele>3.0</ele><time>2026-04-04T13:19:19Z</time></trkpt><trkpt lat="44.97323200899758" lon="11.800024891680888"><ele>3.0</ele><time>2026-04-04T13:19:21Z</time></trkpt><trkpt lat="44.97327788597061" lon="11.800129210185613"><ele>3.0</ele><time>2026-04-04T13:19:23Z</time></trkpt><trkpt lat="44.97331781930298" lon="11.800243645491792"><ele>3.0</ele><time>2026-04-04T13:19:25Z</time></trkpt><trkpt lat="44.973357425760476" lon="11.800363608116477"><ele>3.0</ele><time>2026-04-04T13:19:27Z</time></trkpt><trkpt lat="44.97340290235647" lon="11.800497192766032"><ele>3.0</ele><time>2026-04-04T13:19:29Z</time></trkpt><trkpt lat="44.973451022320795" lon="11.800641647563806"><ele>2.8</ele><time>2026-04-04T13:19:31Z</time></trkpt><trkpt lat="44.97350529025051" lon="11.800793782712367"><ele>2.5999999999999996</ele><time>2026-04-04T13:19:33Z</time></trkpt><trkpt lat="44.97355111681244" lon="11.800938572559271"><ele>2.4000000000000004</ele><time>2026-04-04T13:19:35Z</time></trkpt><trkpt lat="44.97359700744764" lon="11.801073234045099"><ele>2.2</ele><time>2026-04-04T13:19:37Z</time></trkpt><trkpt lat="44.97363689052197" lon="11.8012064705661"><ele>2.0</ele><time>2026-04-04T13:19:39Z</time></trkpt><trkpt lat="44.97367722087199" lon="11.80133262104786"><ele>2.6</ele><time>2026-04-04T13:19:41Z</time></trkpt><trkpt lat="44.97371157383682" lon="11.801457704372694"><ele>3.2</ele><time>2026-04-04T13:19:43Z</time></trkpt><trkpt lat="44.973751952328286" lon="11.801587860128723"><ele>3.8</ele><time>2026-04-04T13:19:45Z</time></trkpt><trkpt lat="44.97378664171039" lon="11.801726151866784"><ele>4.4</ele><time>2026-04-04T13:19:47Z</time></trkpt><trkpt lat="44.97382024650712" lon="11.801861813599833"><ele>5.0</ele><time>2026-04-04T13:19:49Z</time></trkpt><trkpt lat="44.97384854997896" lon="11.80200265881765"><ele>5.0</ele><time>2026-04-04T13:19:51Z</time></trkpt><trkpt lat="44.97387612056267" lon="11.802147770174006"><ele>5.0</ele><time>2026-04-04T13:19:53Z</time></trkpt><trkpt lat="44.973898140586286" lon="11.802298265415445"><ele>5.0</ele><time>2026-04-04T13:19:55Z</time></trkpt><trkpt lat="44.973922316256086" lon="11.802451692964205"><ele>5.0</ele><time>2026-04-04T13:19:57Z</time></trkpt><trkpt lat="44.97394868296428" lon="11.802598916341747"><ele>5.0</ele><time>2026-04-04T13:19:59Z</time></trkpt><trkpt lat="44.973972002358394" lon="11.802745372495066"><ele>5.0</ele><time>2026-04-04T13:20:01Z</time></trkpt><trkpt lat="44.97399120785793" lon="11.802887235996216"><ele>5.0</ele><time>2026-04-04T13:20:03Z</time></trkpt><trkpt lat="44.97401247517492" lon="11.803022803952953"><ele>5.0</ele><time>2026-04-04T13:20:05Z</time></trkpt><trkpt lat="44.97403361679965" lon="11.803153364959273"><ele>5.0</ele><time>2026-04-04T13:20:07Z</time></trkpt><trkpt lat="44.974056842866574" lon="11.80327102858274"><ele>5.0</ele><time>2026-04-04T13:20:09Z</time></trkpt><trkpt lat="44.97407470802854" lon="11.80338510685828"><ele>5.0</ele><time>2026-04-04T13:20:11Z</time></trkpt><trkpt lat="44.97408859353311" lon="11.803494231663295"><ele>5.0</ele><time>2026-04-04T13:20:13Z</time></trkpt><trkpt lat="44.974105940163085" lon="11.80361101289973"><ele>5.0</ele><time>2026-04-04T13:20:15Z</time></trkpt><trkpt lat="44.97411982285092" lon="11.803748378964858"><ele>5.0</ele><time>2026-04-04T13:20:17Z</time></trkpt><trkpt lat="44.97413489860961" lon="11.80388891352877"><ele>5.0</ele><time>2026-04-04T13:20:19Z</time></trkpt><trkpt lat="44.97414831256823" lon="11.804029639646973"><ele>4.8</ele><time>2026-04-04T13:20:21Z</time></trkpt><trkpt lat="44.974161384755455" lon="11.804173919637819"><ele>4.6</ele><time>2026-04-04T13:20:23Z</time></trkpt><trkpt lat="44.97417309906867" lon="11.804318488826548"><ele>4.4</ele><time>2026-04-04T13:20:25Z</time></trkpt><trkpt lat="44.97417762802588" lon="11.804461243158931"><ele>4.2</ele><time>2026-04-04T13:20:27Z</time></trkpt><trkpt lat="44.974181683917074" lon="11.80460550753122"><ele>4.0</ele><time>2026-04-04T13:20:29Z</time></trkpt><trkpt lat="44.97418195590489" lon="11.804751513637765"><ele>4.0</ele><time>2026-04-04T13:20:31Z</time></trkpt><trkpt lat="44.974173032641225" lon="11.804894773151139"><ele>4.0</ele><time>2026-04-04T13:20:33Z</time></trkpt><trkpt lat="44.97415887189848" lon="11.80504018794499"><ele>4.0</ele><time>2026-04-04T13:20:35Z</time></trkpt><trkpt lat="44.97413151628506" lon="11.805184684936838"><ele>4.0</ele><time>2026-04-04T13:20:37Z</time></trkpt><trkpt lat="44.97410757850381" lon="11.805325887551895"><ele>4.0</ele><time>2026-04-04T13:20:39Z</time></trkpt><trkpt lat="44.97408382271381" lon="11.80546581926429"><ele>4.0</ele><time>2026-04-04T13:20:41Z</time></trkpt><trkpt lat="44.97405707728443" lon="11.805607322324677"><ele>4.0</ele><time>2026-04-04T13:20:43Z</time></trkpt><trkpt lat="44.97403618833211" lon="11.805750303141831"><ele>4.0</ele><time>2026-04-04T13:20:45Z</time></trkpt><trkpt lat="44.97401302004191" lon="11.805892396578242"><ele>4.0</ele><time>2026-04-04T13:20:47Z</time></trkpt><trkpt lat="44.97398434921633" lon="11.806032503162415"><ele>4.0</ele><time>2026-04-04T13:20:49Z</time></trkpt><trkpt lat="44.97395646847355" lon="11.806170561146967"><ele>4.0</ele><time>2026-04-04T13:20:51Z</time></trkpt><trkpt lat="44.97392773131077" lon="11.806308378496691"><ele>4.0</ele><time>2026-04-04T13:20:53Z</time></trkpt><trkpt lat="44.973906338605964" lon="11.806450842363919"><ele>4.0</ele><time>2026-04-04T13:20:55Z</time></trkpt><trkpt lat="44.97388567415781" lon="11.806592686012426"><ele>4.0</ele><time>2026-04-04T13:20:57Z</time></trkpt><trkpt lat="44.97385904125125" lon="11.806738105253109"><ele>4.0</ele><time>2026-04-04T13:20:59Z</time></trkpt><trkpt lat="44.97383963846826" lon="11.806880822463913"><ele>4.4</ele><time>2026-04-04T13:21:01Z</time></trkpt><trkpt lat="44.97381505844756" lon="11.807024209917708"><ele>4.800000000000001</ele><time>2026-04-04T13:21:03Z</time></trkpt><trkpt lat="44.97380476754585" lon="11.807171814284596"><ele>5.199999999999999</ele><time>2026-04-04T13:21:05Z</time></trkpt><trkpt lat="44.97379159474601" lon="11.807313085198569"><ele>5.6</ele><time>2026-04-04T13:21:07Z</time></trkpt><trkpt lat="44.97377801838399" lon="11.807447668383046"><ele>6.0</ele><time>2026-04-04T13:21:09Z</time></trkpt><trkpt lat="44.97375934734109" lon="11.807573026055811"><ele>5.8</ele><time>2026-04-04T13:21:11Z</time></trkpt><trkpt lat="44.973753383874644" lon="11.807705048177231"><ele>5.6</ele><time>2026-04-04T13:21:13Z</time></trkpt><trkpt lat="44.973735730562126" lon="11.807844185692318"><ele>5.4</ele><time>2026-04-04T13:21:15Z</time></trkpt><trkpt lat="44.97372433881402" lon="11.80798811920047"><ele>5.2</ele><time>2026-04-04T13:21:17Z</time></trkpt><trkpt lat="44.97370525695501" lon="11.80813288921987"><ele>5.0</ele><time>2026-04-04T13:21:19Z</time></trkpt><trkpt lat="44.973694613581934" lon="11.808274055836398"><ele>5.0</ele><time>2026-04-04T13:21:21Z</time></trkpt><trkpt lat="44.9736858664777" lon="11.80840756762958"><ele>5.0</ele><time>2026-04-04T13:21:23Z</time></trkpt><trkpt lat="44.97366979053355" lon="11.808533405706564"><ele>5.0</ele><time>2026-04-04T13:21:25Z</time></trkpt><trkpt lat="44.97366328945242" lon="11.808658788670046"><ele>5.0</ele><time>2026-04-04T13:21:27Z</time></trkpt><trkpt lat="44.97364636355211" lon="11.808771575088889"><ele>5.0</ele><time>2026-04-04T13:21:29Z</time></trkpt><trkpt lat="44.97364310829024" lon="11.808873836255696"><ele>5.0</ele><time>2026-04-04T13:21:31Z</time></trkpt><trkpt lat="44.97362801452677" lon="11.808988780672331"><ele>5.0</ele><time>2026-04-04T13:21:33Z</time></trkpt><trkpt lat="44.973621441781624" lon="11.80910443007345"><ele>5.0</ele><time>2026-04-04T13:21:35Z</time></trkpt><trkpt lat="44.97360127180624" lon="11.809231384350985"><ele>5.0</ele><time>2026-04-04T13:21:38Z</time></trkpt><trkpt lat="44.97359350155328" lon="11.809338770622588"><ele>5.0</ele><time>2026-04-04T13:21:40Z</time></trkpt><trkpt lat="44.97358237870305" lon="11.80945645232805"><ele>5.0</ele><time>2026-04-04T13:21:42Z</time></trkpt><trkpt lat="44.97357163283699" lon="11.809578576782652"><ele>5.0</ele><time>2026-04-04T13:21:44Z</time></trkpt><trkpt lat="44.97355984482338" lon="11.809698921353629"><ele>5.0</ele><time>2026-04-04T13:21:46Z</time></trkpt><trkpt lat="44.97354991546135" lon="11.809817925621216"><ele>5.0</ele><time>2026-04-04T13:21:48Z</time></trkpt><trkpt lat="44.97354241648446" lon="11.809955440437433"><ele>5.0</ele><time>2026-04-04T13:21:50Z</time></trkpt><trkpt lat="44.973530988703736" lon="11.810095013900623"><ele>5.0</ele><time>2026-04-04T13:21:52Z</time></trkpt><trkpt lat="44.97352709049284" lon="11.810240358393305"><ele>5.0</ele><time>2026-04-04T13:21:54Z</time></trkpt><trkpt lat="44.97352956905603" lon="11.810385154406124"><ele>4.8</ele><time>2026-04-04T13:21:56Z</time></trkpt><trkpt lat="44.97353402423264" lon="11.810529921506483"><ele>4.6</ele><time>2026-04-04T13:21:58Z</time></trkpt><trkpt lat="44.97353323239405" lon="11.81067552973993"><ele>4.4</ele><time>2026-04-04T13:22:00Z</time></trkpt><trkpt lat="44.97353065932085" lon="11.810820781609669"><ele>4.2</ele><time>2026-04-04T13:22:02Z</time></trkpt><trkpt lat="44.97353360952053" lon="11.810967499761656"><ele>4.0</ele><time>2026-04-04T13:22:04Z</time></trkpt><trkpt lat="44.97353635442458" lon="11.811113783289128"><ele>3.6</ele><time>2026-04-04T13:22:06Z</time></trkpt><trkpt lat="44.97353950749612" lon="11.811259408045043"><ele>3.2</ele><time>2026-04-04T13:22:08Z</time></trkpt><trkpt lat="44.97354300118724" lon="11.811405387680376"><ele>2.8000000000000003</ele><time>2026-04-04T13:22:10Z</time></trkpt><trkpt lat="44.97354543568464" lon="11.811550296511587"><ele>2.4000000000000004</ele><time>2026-04-04T13:22:12Z</time></trkpt><trkpt lat="44.973548444640336" lon="11.811694157605912"><ele>2.0</ele><time>2026-04-04T13:22:14Z</time></trkpt><trkpt lat="44.97355128877113" lon="11.81184043241225"><ele>1.8</ele><time>2026-04-04T13:22:16Z</time></trkpt><trkpt lat="44.973558413486025" lon="11.811983653024214"><ele>1.6</ele><time>2026-04-04T13:22:17.999Z</time></trkpt><trkpt lat="44.973565519809036" lon="11.81212396029182"><ele>1.4000000000000001</ele><time>2026-04-04T13:22:19.999Z</time></trkpt><trkpt lat="44.97357692826094" lon="11.81225043679001"><ele>1.2000000000000002</ele><time>2026-04-04T13:22:21.999Z</time></trkpt><trkpt lat="44.973572015956684" lon="11.812371039733977"><ele>1.0</ele><time>2026-04-04T13:22:23.999Z</time></trkpt><trkpt lat="44.973582774678704" lon="11.812486440761298"><ele>0.9999999999999999</ele><time>2026-04-04T13:22:25.999Z</time></trkpt><trkpt lat="44.97359171492093" lon="11.812592913299016"><ele>1.0</ele><time>2026-04-04T13:22:27.999Z</time></trkpt><trkpt lat="44.97359415061022" lon="11.812696291519435"><ele>1.0</ele><time>2026-04-04T13:22:29.999Z</time></trkpt><trkpt lat="44.973606423587896" lon="11.812802515503074"><ele>1.0</ele><time>2026-04-04T13:22:31.999Z</time></trkpt><trkpt lat="44.97361535822725" lon="11.812932046216773"><ele>0.9999999999999999</ele><time>2026-04-04T13:22:33.999Z</time></trkpt><trkpt lat="44.97363406565277" lon="11.813060827151235"><ele>1.0</ele><time>2026-04-04T13:22:35.999Z</time></trkpt><trkpt lat="44.97364956784844" lon="11.813171170715941"><ele>1.3333333333333333</ele><time>2026-04-04T13:22:38Z</time></trkpt><trkpt lat="44.973674921514615" lon="11.813275415045233"><ele>1.6666666666666665</ele><time>2026-04-04T13:22:40Z</time></trkpt><trkpt lat="44.97368857862537" lon="11.813373742099392"><ele>2.0</ele><time>2026-04-04T13:22:42Z</time></trkpt><trkpt lat="44.97370574078809" lon="11.813467488327905"><ele>2.3333333333333335</ele><time>2026-04-04T13:22:44Z</time></trkpt><trkpt lat="44.97373621135141" lon="11.813552363163252"><ele>2.6666666666666665</ele><time>2026-04-04T13:22:46Z</time></trkpt><trkpt lat="44.97377810247618" lon="11.813668459704282"><ele>3.0</ele><time>2026-04-04T13:22:49Z</time></trkpt><trkpt lat="44.97381729709936" lon="11.813793529212578"><ele>3.0</ele><time>2026-04-04T13:22:52Z</time></trkpt><trkpt lat="44.97385329417059" lon="11.813889343069585"><ele>3.0</ele><time>2026-04-04T13:22:54Z</time></trkpt><trkpt lat="44.973882106824945" lon="11.813979434931987"><ele>3.0</ele><time>2026-04-04T13:22:56Z</time></trkpt><trkpt lat="44.97393085683323" lon="11.814089692035925"><ele>3.0</ele><time>2026-04-04T13:22:59Z</time></trkpt><trkpt lat="44.97397240917511" lon="11.814184824350837"><ele>3.0</ele><time>2026-04-04T13:23:02Z</time></trkpt><trkpt lat="44.974003290993" lon="11.814280007120885"><ele>3.0</ele><time>2026-04-04T13:23:05Z</time></trkpt><trkpt lat="44.97403857616474" lon="11.814364763646914"><ele>3.0</ele><time>2026-04-04T13:23:07Z</time></trkpt><trkpt lat="44.97408962755522" lon="11.81447576504446"><ele>3.0</ele><time>2026-04-04T13:23:09Z</time></trkpt><trkpt lat="44.97412530497684" lon="11.814606954379737"><ele>3.0</ele><time>2026-04-04T13:23:11Z</time></trkpt><trkpt lat="44.97415185201926" lon="11.814721544405598"><ele>3.0</ele><time>2026-04-04T13:23:13Z</time></trkpt><trkpt lat="44.974154335343464" lon="11.81485203987941"><ele>3.0</ele><time>2026-04-04T13:23:16Z</time></trkpt><trkpt lat="44.974147675364826" lon="11.814958808973365"><ele>3.0</ele><time>2026-04-04T13:23:18Z</time></trkpt><trkpt lat="44.974119328593346" lon="11.815072608472596"><ele>3.0</ele><time>2026-04-04T13:23:20Z</time></trkpt><trkpt lat="44.97407708437571" lon="11.815167808265084"><ele>3.0</ele><time>2026-04-04T13:23:22Z</time></trkpt><trkpt lat="44.974034644482785" lon="11.815272424263805"><ele>3.0</ele><time>2026-04-04T13:23:24Z</time></trkpt><trkpt lat="44.97397530352166" lon="11.815391558268768"><ele>3.0</ele><time>2026-04-04T13:23:26Z</time></trkpt><trkpt lat="44.97391211991079" lon="11.815507802823333"><ele>3.0</ele><time>2026-04-04T13:23:28Z</time></trkpt><trkpt lat="44.97385358990191" lon="11.815624632283889"><ele>3.0</ele><time>2026-04-04T13:23:30Z</time></trkpt><trkpt lat="44.97381433114584" lon="11.81573939474248"><ele>3.0</ele><time>2026-04-04T13:23:32Z</time></trkpt><trkpt lat="44.97377441408541" lon="11.81584219050715"><ele>3.0</ele><time>2026-04-04T13:23:34Z</time></trkpt><trkpt lat="44.973733930590605" lon="11.815931725769335"><ele>3.0</ele><time>2026-04-04T13:23:36Z</time></trkpt><trkpt lat="44.97370064961936" lon="11.816019652591399"><ele>3.0</ele><time>2026-04-04T13:23:38Z</time></trkpt><trkpt lat="44.97366909869763" lon="11.816112679852125"><ele>3.0</ele><time>2026-04-04T13:23:40Z</time></trkpt><trkpt lat="44.97363875659475" lon="11.81623338655379"><ele>3.1666666666666665</ele><time>2026-04-04T13:23:42Z</time></trkpt><trkpt lat="44.973605971234505" lon="11.816340398154551"><ele>3.333333333333333</ele><time>2026-04-04T13:23:44Z</time></trkpt><trkpt lat="44.973577720506206" lon="11.816444811533948"><ele>3.5</ele><time>2026-04-04T13:23:46Z</time></trkpt><trkpt lat="44.97355874115179" lon="11.816548330097678"><ele>3.6666666666666665</ele><time>2026-04-04T13:23:48Z</time></trkpt><trkpt lat="44.97353613351599" lon="11.816646825615534"><ele>3.833333333333333</ele><time>2026-04-04T13:23:50Z</time></trkpt><trkpt lat="44.973514175048045" lon="11.816736669843202"><ele>4.0</ele><time>2026-04-04T13:23:52Z</time></trkpt><trkpt lat="44.973487793863434" lon="11.816861625887457"><ele>4.166666666666666</ele><time>2026-04-04T13:23:55Z</time></trkpt><trkpt lat="44.97346503841753" lon="11.81695661857461"><ele>4.333333333333333</ele><time>2026-04-04T13:23:57Z</time></trkpt><trkpt lat="44.97343247918161" lon="11.817072121856638"><ele>4.5</ele><time>2026-04-04T13:23:59Z</time></trkpt><trkpt lat="44.973407163920996" lon="11.817175415431782"><ele>4.666666666666667</ele><time>2026-04-04T13:24:01Z</time></trkpt><trkpt lat="44.97338376173686" lon="11.817279383977299"><ele>4.833333333333334</ele><time>2026-04-04T13:24:03Z</time></trkpt><trkpt lat="44.97335097691802" lon="11.817402134534571"><ele>5.0</ele><time>2026-04-04T13:24:05Z</time></trkpt><trkpt lat="44.97332514046575" lon="11.817537514359199"><ele>5.0</ele><time>2026-04-04T13:24:07Z</time></trkpt><trkpt lat="44.9732989769623" lon="11.817670742976622"><ele>5.0</ele><time>2026-04-04T13:24:09Z</time></trkpt><trkpt lat="44.973265761640334" lon="11.817798490869368"><ele>5.0</ele><time>2026-04-04T13:24:11Z</time></trkpt><trkpt lat="44.97324676084829" lon="11.81793458944577"><ele>5.0</ele><time>2026-04-04T13:24:13Z</time></trkpt><trkpt lat="44.973213229501994" lon="11.818065300056862"><ele>5.0</ele><time>2026-04-04T13:24:15Z</time></trkpt><trkpt lat="44.97318124395382" lon="11.81820046876549"><ele>5.0</ele><time>2026-04-04T13:24:17Z</time></trkpt><trkpt lat="44.97315576029748" lon="11.818340509769662"><ele>5.0</ele><time>2026-04-04T13:24:19Z</time></trkpt><trkpt lat="44.973126950330425" lon="11.818473827125096"><ele>5.0</ele><time>2026-04-04T13:24:21Z</time></trkpt><trkpt lat="44.9731002793919" lon="11.818610384404657"><ele>5.0</ele><time>2026-04-04T13:24:23Z</time></trkpt><trkpt lat="44.97307401458028" lon="11.818747715113954"><ele>5.0</ele><time>2026-04-04T13:24:25Z</time></trkpt><trkpt lat="44.97304556906553" lon="11.818883568119608"><ele>5.0</ele><time>2026-04-04T13:24:27Z</time></trkpt><trkpt lat="44.973013722288584" lon="11.81901827847224"><ele>5.0</ele><time>2026-04-04T13:24:29Z</time></trkpt><trkpt lat="44.97299372927816" lon="11.819159321657793"><ele>5.0</ele><time>2026-04-04T13:24:31Z</time></trkpt><trkpt lat="44.972962005578054" lon="11.819293002295211"><ele>5.0</ele><time>2026-04-04T13:24:33Z</time></trkpt><trkpt lat="44.97293571551932" lon="11.819428603403283"><ele>5.0</ele><time>2026-04-04T13:24:35Z</time></trkpt><trkpt lat="44.97291025334889" lon="11.81956751497675"><ele>5.0</ele><time>2026-04-04T13:24:37Z</time></trkpt><trkpt lat="44.97288125860229" lon="11.819703299841425"><ele>5.0</ele><time>2026-04-04T13:24:38.999Z</time></trkpt><trkpt lat="44.97284958170488" lon="11.819838467663685"><ele>5.0</ele><time>2026-04-04T13:24:40.999Z</time></trkpt><trkpt lat="44.97282231810692" lon="11.819976097898948"><ele>5.0</ele><time>2026-04-04T13:24:43Z</time></trkpt><trkpt lat="44.97279424917909" lon="11.820114678442819"><ele>5.0</ele><time>2026-04-04T13:24:45Z</time></trkpt><trkpt lat="44.972770131482" lon="11.8202510128197"><ele>5.0</ele><time>2026-04-04T13:24:47Z</time></trkpt><trkpt lat="44.972749514765724" lon="11.820388714464425"><ele>5.0</ele><time>2026-04-04T13:24:49Z</time></trkpt><trkpt lat="44.97275058802127" lon="11.820524077184793"><ele>5.0</ele><time>2026-04-04T13:24:51Z</time></trkpt><trkpt lat="44.97278760383906" lon="11.820663314814452"><ele>5.0</ele><time>2026-04-04T13:24:53Z</time></trkpt><trkpt lat="44.97285292774434" lon="11.820780219208778"><ele>5.0</ele><time>2026-04-04T13:24:55Z</time></trkpt><trkpt lat="44.9729342097142" lon="11.820869387757435"><ele>5.0</ele><time>2026-04-04T13:24:57Z</time></trkpt><trkpt lat="44.973034168301616" lon="11.820910894752986"><ele>5.0</ele><time>2026-04-04T13:24:59Z</time></trkpt><trkpt lat="44.97313044744969" lon="11.820950603269615"><ele>5.0</ele><time>2026-04-04T13:25:01Z</time></trkpt><trkpt lat="44.97322326489727" lon="11.82100578927041"><ele>5.0</ele><time>2026-04-04T13:25:03Z</time></trkpt><trkpt lat="44.97331314066446" lon="11.821055981142223"><ele>5.0</ele><time>2026-04-04T13:25:05Z</time></trkpt><trkpt lat="44.9733924287388" lon="11.821107506671579"><ele>4.8</ele><time>2026-04-04T13:25:07Z</time></trkpt><trkpt lat="44.973460656738084" lon="11.821193675508317"><ele>4.6</ele><time>2026-04-04T13:25:09Z</time></trkpt><trkpt lat="44.97348294444932" lon="11.821339488160822"><ele>4.4</ele><time>2026-04-04T13:25:11Z</time></trkpt><trkpt lat="44.97345734160375" lon="11.821486432069767"><ele>4.2</ele><time>2026-04-04T13:25:13Z</time></trkpt><trkpt lat="44.97343117589294" lon="11.821607352854377"><ele>4.0</ele><time>2026-04-04T13:25:15Z</time></trkpt><trkpt lat="44.97339237335752" lon="11.82171540935487"><ele>4.0</ele><time>2026-04-04T13:25:17Z</time></trkpt><trkpt lat="44.973365526251875" lon="11.821848730962353"><ele>4.0</ele><time>2026-04-04T13:25:19Z</time></trkpt><trkpt lat="44.973349162902316" lon="11.821984340474092"><ele>4.0</ele><time>2026-04-04T13:25:21Z</time></trkpt><trkpt lat="44.97332346028088" lon="11.822117980708134"><ele>4.0</ele><time>2026-04-04T13:25:23Z</time></trkpt><trkpt lat="44.97329582435346" lon="11.822241583731365"><ele>4.0</ele><time>2026-04-04T13:25:25Z</time></trkpt><trkpt lat="44.97327669213212" lon="11.822344597838397"><ele>3.9999999999999996</ele><time>2026-04-04T13:25:27Z</time></trkpt><trkpt lat="44.97325977056435" lon="11.82244486469017"><ele>4.0</ele><time>2026-04-04T13:25:29Z</time></trkpt><trkpt lat="44.97323705848463" lon="11.8225384492256"><ele>4.0</ele><time>2026-04-04T13:25:31Z</time></trkpt><trkpt lat="44.97319825994209" lon="11.822651155282646"><ele>4.0</ele><time>2026-04-04T13:25:34Z</time></trkpt><trkpt lat="44.973175304020835" lon="11.822763348667038"><ele>3.9999999999999996</ele><time>2026-04-04T13:25:36Z</time></trkpt><trkpt lat="44.9731582628092" lon="11.822874753482385"><ele>4.0</ele><time>2026-04-04T13:25:38Z</time></trkpt><trkpt lat="44.97313520362247" lon="11.822974506532292"><ele>4.0</ele><time>2026-04-04T13:25:40Z</time></trkpt><trkpt lat="44.97311512249234" lon="11.823061629585668"><ele>3.9999999999999996</ele><time>2026-04-04T13:25:42Z</time></trkpt><trkpt lat="44.97308465959929" lon="11.823144848050696"><ele>4.0</ele><time>2026-04-04T13:25:44Z</time></trkpt><trkpt lat="44.97306434414654" lon="11.823266975781914"><ele>4.0</ele><time>2026-04-04T13:25:46Z</time></trkpt><trkpt lat="44.97303654720247" lon="11.823369528839425"><ele>3.9999999999999996</ele><time>2026-04-04T13:25:48Z</time></trkpt><trkpt lat="44.97301829485372" lon="11.82346679529688"><ele>4.0</ele><time>2026-04-04T13:25:50Z</time></trkpt><trkpt lat="44.97299434710599" lon="11.82355549845754"><ele>4.0</ele><time>2026-04-04T13:25:52Z</time></trkpt><trkpt lat="44.97295940975355" lon="11.823677415393886"><ele>3.9999999999999996</ele><time>2026-04-04T13:25:55Z</time></trkpt><trkpt lat="44.97294025507373" lon="11.823780096737686"><ele>4.0</ele><time>2026-04-04T13:25:57Z</time></trkpt><trkpt lat="44.972914839559344" lon="11.823906648962087"><ele>4.0</ele><time>2026-04-04T13:25:59Z</time></trkpt><trkpt lat="44.97289057328522" lon="11.824013447273044"><ele>4.0</ele><time>2026-04-04T13:26:01Z</time></trkpt><trkpt lat="44.97287038882375" lon="11.82410923164028"><ele>3.9999999999999996</ele><time>2026-04-04T13:26:03Z</time></trkpt><trkpt lat="44.972850554914636" lon="11.824246177722394"><ele>4.0</ele><time>2026-04-04T13:26:06Z</time></trkpt><trkpt lat="44.97282836030156" lon="11.824364202757218"><ele>3.9999999999999996</ele><time>2026-04-04T13:26:08Z</time></trkpt><trkpt lat="44.97280332797998" lon="11.82449253773144"><ele>4.0</ele><time>2026-04-04T13:26:10Z</time></trkpt><trkpt lat="44.97278398954585" lon="11.824610390422878"><ele>4.0</ele><time>2026-04-04T13:26:12Z</time></trkpt><trkpt lat="44.97276448700295" lon="11.824715910982915"><ele>4.0</ele><time>2026-04-04T13:26:14Z</time></trkpt><trkpt lat="44.97274597552353" lon="11.824818717404954"><ele>3.9999999999999996</ele><time>2026-04-04T13:26:16Z</time></trkpt><trkpt lat="44.97272260371529" lon="11.82491176522527"><ele>4.0</ele><time>2026-04-04T13:26:18Z</time></trkpt><trkpt lat="44.97270404552775" lon="11.824999231118813"><ele>3.9999999999999996</ele><time>2026-04-04T13:26:20Z</time></trkpt><trkpt lat="44.97267574488158" lon="11.825094719560097"><ele>4.0</ele><time>2026-04-04T13:26:22Z</time></trkpt><trkpt lat="44.97265793428038" lon="11.82522934887871"><ele>4.0</ele><time>2026-04-04T13:26:24Z</time></trkpt><trkpt lat="44.97263672124411" lon="11.825349717860028"><ele>4.0</ele><time>2026-04-04T13:26:26Z</time></trkpt><trkpt lat="44.972609511092536" lon="11.825456914894703"><ele>3.9999999999999996</ele><time>2026-04-04T13:26:28Z</time></trkpt><trkpt lat="44.97258666734094" lon="11.825559309001312"><ele>4.0</ele><time>2026-04-04T13:26:30Z</time></trkpt><trkpt lat="44.97256242307117" lon="11.825651394443295"><ele>3.9999999999999996</ele><time>2026-04-04T13:26:32Z</time></trkpt><trkpt lat="44.972547734914976" lon="11.825745972675172"><ele>4.0</ele><time>2026-04-04T13:26:34Z</time></trkpt><trkpt lat="44.97252040953969" lon="11.825864231976082"><ele>4.0</ele><time>2026-04-04T13:26:36Z</time></trkpt><trkpt lat="44.97249127568048" lon="11.825983358152751"><ele>4.0</ele><time>2026-04-04T13:26:38Z</time></trkpt><trkpt lat="44.972469096806215" lon="11.826088151561592"><ele>3.9999999999999996</ele><time>2026-04-04T13:26:40Z</time></trkpt><trkpt lat="44.97244664425071" lon="11.826191445901594"><ele>4.0</ele><time>2026-04-04T13:26:42Z</time></trkpt><trkpt lat="44.97241518141094" lon="11.826311580154403"><ele>4.166666666666666</ele><time>2026-04-04T13:26:44Z</time></trkpt><trkpt lat="44.97238154217416" lon="11.826440679617686"><ele>4.333333333333333</ele><time>2026-04-04T13:26:46Z</time></trkpt><trkpt lat="44.972339464897075" lon="11.82656175129544"><ele>4.5</ele><time>2026-04-04T13:26:48Z</time></trkpt><trkpt lat="44.97230182214765" lon="11.826671953956453"><ele>4.666666666666667</ele><time>2026-04-04T13:26:50Z</time></trkpt><trkpt lat="44.97226530539476" lon="11.826773551772252"><ele>4.833333333333334</ele><time>2026-04-04T13:26:52Z</time></trkpt><trkpt lat="44.972224325561854" lon="11.826881693342406"><ele>5.0</ele><time>2026-04-04T13:26:54Z</time></trkpt><trkpt lat="44.972178165864314" lon="11.827000177440777"><ele>5.0</ele><time>2026-04-04T13:26:56Z</time></trkpt><trkpt lat="44.97213569445954" lon="11.827125166670223"><ele>5.0</ele><time>2026-04-04T13:26:58Z</time></trkpt><trkpt lat="44.972097354109195" lon="11.827256112044918"><ele>5.0</ele><time>2026-04-04T13:27:00Z</time></trkpt><trkpt lat="44.972060763052305" lon="11.827391371805868"><ele>5.0</ele><time>2026-04-04T13:27:02Z</time></trkpt><trkpt lat="44.972023898058204" lon="11.827522155573686"><ele>5.0</ele><time>2026-04-04T13:27:04Z</time></trkpt><trkpt lat="44.97198749733625" lon="11.827643475880876"><ele>4.8</ele><time>2026-04-04T13:27:06Z</time></trkpt><trkpt lat="44.97195135783263" lon="11.827757926090836"><ele>4.6</ele><time>2026-04-04T13:27:08Z</time></trkpt><trkpt lat="44.97191455664908" lon="11.827865838742099"><ele>4.4</ele><time>2026-04-04T13:27:10Z</time></trkpt><trkpt lat="44.97187881249664" lon="11.827992243419693"><ele>4.2</ele><time>2026-04-04T13:27:12Z</time></trkpt><trkpt lat="44.97184939812929" lon="11.828123000586716"><ele>4.0</ele><time>2026-04-04T13:27:14Z</time></trkpt><trkpt lat="44.971817580750354" lon="11.828244988984583"><ele>3.9999999999999996</ele><time>2026-04-04T13:27:16Z</time></trkpt><trkpt lat="44.97178673112848" lon="11.828354419104546"><ele>4.0</ele><time>2026-04-04T13:27:18Z</time></trkpt><trkpt lat="44.9717565761099" lon="11.828462010824163"><ele>4.0</ele><time>2026-04-04T13:27:20Z</time></trkpt><trkpt lat="44.971730212259686" lon="11.828563265116587"><ele>4.0</ele><time>2026-04-04T13:27:22Z</time></trkpt><trkpt lat="44.9717018409086" lon="11.828681320036827"><ele>3.9999999999999996</ele><time>2026-04-04T13:27:24Z</time></trkpt><trkpt lat="44.97166759361388" lon="11.828804870735057"><ele>4.0</ele><time>2026-04-04T13:27:26Z</time></trkpt><trkpt lat="44.97163137056844" lon="11.828916364331805"><ele>4.2</ele><time>2026-04-04T13:27:28Z</time></trkpt><trkpt lat="44.971599206880065" lon="11.829036088896668"><ele>4.4</ele><time>2026-04-04T13:27:30Z</time></trkpt><trkpt lat="44.971563982628666" lon="11.82916701694651"><ele>4.6</ele><time>2026-04-04T13:27:32Z</time></trkpt><trkpt lat="44.97152961050666" lon="11.829302713197109"><ele>4.8</ele><time>2026-04-04T13:27:34Z</time></trkpt><trkpt lat="44.97148794206193" lon="11.829427223530875"><ele>5.0</ele><time>2026-04-04T13:27:36Z</time></trkpt><trkpt lat="44.971454176439636" lon="11.829561144868364"><ele>5.0</ele><time>2026-04-04T13:27:38Z</time></trkpt><trkpt lat="44.97142447851439" lon="11.829696044638409"><ele>5.0</ele><time>2026-04-04T13:27:40Z</time></trkpt><trkpt lat="44.97138333628761" lon="11.829825294223095"><ele>5.0</ele><time>2026-04-04T13:27:42Z</time></trkpt><trkpt lat="44.97135781601636" lon="11.829960671996863"><ele>5.0</ele><time>2026-04-04T13:27:44Z</time></trkpt><trkpt lat="44.971323864613126" lon="11.83009393084519"><ele>5.0</ele><time>2026-04-04T13:27:46Z</time></trkpt><trkpt lat="44.97130068100928" lon="11.830236093193049"><ele>4.833333333333334</ele><time>2026-04-04T13:27:48Z</time></trkpt><trkpt lat="44.971283387547324" lon="11.830372344924056"><ele>4.666666666666667</ele><time>2026-04-04T13:27:50Z</time></trkpt><trkpt lat="44.97124917484792" lon="11.8304960063775"><ele>4.5</ele><time>2026-04-04T13:27:52Z</time></trkpt><trkpt lat="44.97123807794064" lon="11.830616813673563"><ele>4.333333333333333</ele><time>2026-04-04T13:27:54Z</time></trkpt><trkpt lat="44.971212020467675" lon="11.8307275422548"><ele>4.166666666666666</ele><time>2026-04-04T13:27:56Z</time></trkpt><trkpt lat="44.97119622782583" lon="11.830832104985298"><ele>4.0</ele><time>2026-04-04T13:27:58Z</time></trkpt><trkpt lat="44.971176108862416" lon="11.830927006797106"><ele>3.6666666666666665</ele><time>2026-04-04T13:28:00Z</time></trkpt><trkpt lat="44.97115223119003" lon="11.831012784043345"><ele>3.333333333333333</ele><time>2026-04-04T13:28:02Z</time></trkpt><trkpt lat="44.9711278315247" lon="11.831133887448209"><ele>3.0</ele><time>2026-04-04T13:28:05Z</time></trkpt><trkpt lat="44.97111395604476" lon="11.831253861709788"><ele>2.6666666666666665</ele><time>2026-04-04T13:28:08Z</time></trkpt><trkpt lat="44.971093218047145" lon="11.831371618409658"><ele>2.333333333333333</ele><time>2026-04-04T13:28:10Z</time></trkpt><trkpt lat="44.97107472563403" lon="11.831482839884055"><ele>2.0</ele><time>2026-04-04T13:28:12Z</time></trkpt><trkpt lat="44.971055385364835" lon="11.83158653349493"><ele>1.9999999999999998</ele><time>2026-04-04T13:28:14Z</time></trkpt><trkpt lat="44.97104648034178" lon="11.83168976979186"><ele>2.0</ele><time>2026-04-04T13:28:16Z</time></trkpt><trkpt lat="44.971036492461266" lon="11.831785825644351"><ele>2.0</ele><time>2026-04-04T13:28:18Z</time></trkpt><trkpt lat="44.97102080336702" lon="11.831890012820587"><ele>2.0</ele><time>2026-04-04T13:28:20Z</time></trkpt><trkpt lat="44.97100141118331" lon="11.832014913969989"><ele>1.9999999999999998</ele><time>2026-04-04T13:28:22Z</time></trkpt><trkpt lat="44.970983103492216" lon="11.83212294600753"><ele>2.0</ele><time>2026-04-04T13:28:24Z</time></trkpt><trkpt lat="44.97096752011429" lon="11.832224654235063"><ele>1.9999999999999998</ele><time>2026-04-04T13:28:26Z</time></trkpt><trkpt lat="44.970943450874" lon="11.832314687109532"><ele>2.0</ele><time>2026-04-04T13:28:28Z</time></trkpt><trkpt lat="44.97093611974191" lon="11.832411017277149"><ele>2.0</ele><time>2026-04-04T13:28:30Z</time></trkpt><trkpt lat="44.97092472551664" lon="11.83255472377041"><ele>2.0</ele><time>2026-04-04T13:28:33Z</time></trkpt><trkpt lat="44.97091091865163" lon="11.832660339151065"><ele>1.9999999999999998</ele><time>2026-04-04T13:28:35Z</time></trkpt><trkpt lat="44.97090110434884" lon="11.832758947345035"><ele>2.0</ele><time>2026-04-04T13:28:37Z</time></trkpt><trkpt lat="44.970887512913635" lon="11.832853693121681"><ele>2.1666666666666665</ele><time>2026-04-04T13:28:39Z</time></trkpt><trkpt lat="44.970875723951444" lon="11.832946493514353"><ele>2.333333333333333</ele><time>2026-04-04T13:28:41Z</time></trkpt><trkpt lat="44.97085938308693" lon="11.833035474406644"><ele>2.5</ele><time>2026-04-04T13:28:43Z</time></trkpt><trkpt lat="44.97084701549847" lon="11.833124219981034"><ele>2.6666666666666665</ele><time>2026-04-04T13:28:45Z</time></trkpt><trkpt lat="44.97082225162112" lon="11.833250900198365"><ele>2.8333333333333335</ele><time>2026-04-04T13:28:48Z</time></trkpt><trkpt lat="44.970795698333966" lon="11.833371553372283"><ele>3.0</ele><time>2026-04-04T13:28:51Z</time></trkpt><trkpt lat="44.97077127004532" lon="11.833493609114871"><ele>4.0</ele><time>2026-04-04T13:28:53Z</time></trkpt><trkpt lat="44.970745380102144" lon="11.833628451165104"><ele>5.0</ele><time>2026-04-04T13:28:55Z</time></trkpt><trkpt lat="44.9707205655136" lon="11.833762736718384"><ele>6.000000000000001</ele><time>2026-04-04T13:28:57Z</time></trkpt><trkpt lat="44.97069233899767" lon="11.833888003267921"><ele>7.0</ele><time>2026-04-04T13:28:59Z</time></trkpt><trkpt lat="44.97066852182458" lon="11.83400649246682"><ele>8.0</ele><time>2026-04-04T13:29:01Z</time></trkpt><trkpt lat="44.97064143486644" lon="11.834112238608993"><ele>7.999999999999999</ele><time>2026-04-04T13:29:03Z</time></trkpt><trkpt lat="44.97062092120072" lon="11.834213643057113"><ele>8.0</ele><time>2026-04-04T13:29:05Z</time></trkpt><trkpt lat="44.970596059578426" lon="11.834321342823717"><ele>8.0</ele><time>2026-04-04T13:29:07Z</time></trkpt><trkpt lat="44.97056787515302" lon="11.83444282236563"><ele>8.0</ele><time>2026-04-04T13:29:09Z</time></trkpt><trkpt lat="44.97054897634252" lon="11.834558135472882"><ele>7.999999999999999</ele><time>2026-04-04T13:29:11Z</time></trkpt><trkpt lat="44.97052200873118" lon="11.834660270172545"><ele>8.0</ele><time>2026-04-04T13:29:13Z</time></trkpt><trkpt lat="44.970498728011684" lon="11.834762582217571"><ele>7.999999999999999</ele><time>2026-04-04T13:29:15Z</time></trkpt><trkpt lat="44.970479107161154" lon="11.834858510704452"><ele>8.0</ele><time>2026-04-04T13:29:17Z</time></trkpt><trkpt lat="44.97045809305054" lon="11.834949728621634"><ele>8.0</ele><time>2026-04-04T13:29:19Z</time></trkpt><trkpt lat="44.9704360912394" lon="11.835033695007123"><ele>8.0</ele><time>2026-04-04T13:29:21Z</time></trkpt><trkpt lat="44.970413952244975" lon="11.835158595683598"><ele>7.999999999999999</ele><time>2026-04-04T13:29:24Z</time></trkpt><trkpt lat="44.97038876769968" lon="11.835275701990813"><ele>8.0</ele><time>2026-04-04T13:29:26Z</time></trkpt><trkpt lat="44.97036226317328" lon="11.835406712940557"><ele>8.0</ele><time>2026-04-04T13:29:28Z</time></trkpt><trkpt lat="44.97033695889562" lon="11.835535882416186"><ele>8.0</ele><time>2026-04-04T13:29:30Z</time></trkpt><trkpt lat="44.97030697458752" lon="11.835668702218895"><ele>8.0</ele><time>2026-04-04T13:29:32Z</time></trkpt><trkpt lat="44.970286036768336" lon="11.835803690320544"><ele>8.0</ele><time>2026-04-04T13:29:34Z</time></trkpt><trkpt lat="44.97026274697457" lon="11.835943237158826"><ele>8.0</ele><time>2026-04-04T13:29:36Z</time></trkpt><trkpt lat="44.97023880253127" lon="11.836081748930173"><ele>7.2</ele><time>2026-04-04T13:29:38Z</time></trkpt><trkpt lat="44.97021581060166" lon="11.83622159573278"><ele>6.4</ele><time>2026-04-04T13:29:40Z</time></trkpt><trkpt lat="44.97019563837098" lon="11.836361283103615"><ele>5.6000000000000005</ele><time>2026-04-04T13:29:42Z</time></trkpt><trkpt lat="44.97017457433328" lon="11.83649722187339"><ele>4.800000000000001</ele><time>2026-04-04T13:29:44Z</time></trkpt><trkpt lat="44.97015478896164" lon="11.836636502505709"><ele>4.0</ele><time>2026-04-04T13:29:46Z</time></trkpt><trkpt lat="44.97013354181188" lon="11.836775660012021"><ele>4.2</ele><time>2026-04-04T13:29:48Z</time></trkpt><trkpt lat="44.97011622208583" lon="11.836913925509846"><ele>4.4</ele><time>2026-04-04T13:29:50Z</time></trkpt><trkpt lat="44.970092634951634" lon="11.8370549914767"><ele>4.6</ele><time>2026-04-04T13:29:52Z</time></trkpt><trkpt lat="44.97007060063514" lon="11.837193202836168"><ele>4.8</ele><time>2026-04-04T13:29:54Z</time></trkpt><trkpt lat="44.970053293973635" lon="11.837335646236001"><ele>5.0</ele><time>2026-04-04T13:29:56Z</time></trkpt><trkpt lat="44.97002782408969" lon="11.837476737374756"><ele>6.2</ele><time>2026-04-04T13:29:58Z</time></trkpt><trkpt lat="44.97000857689892" lon="11.837619899617748"><ele>7.4</ele><time>2026-04-04T13:30:00Z</time></trkpt><trkpt lat="44.96999222065665" lon="11.837759886042484"><ele>8.600000000000001</ele><time>2026-04-04T13:30:02Z</time></trkpt><trkpt lat="44.969962676167555" lon="11.837884035339625"><ele>9.8</ele><time>2026-04-04T13:30:04Z</time></trkpt><trkpt lat="44.96994086535593" lon="11.838008761092588"><ele>11.0</ele><time>2026-04-04T13:30:06Z</time></trkpt><trkpt lat="44.96993067702107" lon="11.838130704654844"><ele>11.0</ele><time>2026-04-04T13:30:08Z</time></trkpt><trkpt lat="44.96991328004136" lon="11.83824223780579"><ele>11.0</ele><time>2026-04-04T13:30:10Z</time></trkpt><trkpt lat="44.96989487700256" lon="11.838372166365017"><ele>11.0</ele><time>2026-04-04T13:30:12Z</time></trkpt><trkpt lat="44.96987986364736" lon="11.838510081443289"><ele>11.0</ele><time>2026-04-04T13:30:14Z</time></trkpt><trkpt lat="44.96986410585502" lon="11.83863851270601"><ele>11.0</ele><time>2026-04-04T13:30:16Z</time></trkpt><trkpt lat="44.96983897245603" lon="11.838757720593623"><ele>10.833333333333332</ele><time>2026-04-04T13:30:18Z</time></trkpt><trkpt lat="44.96983130562651" lon="11.838871763831134"><ele>10.666666666666666</ele><time>2026-04-04T13:30:20Z</time></trkpt><trkpt lat="44.96980921751096" lon="11.838975360909856"><ele>10.5</ele><time>2026-04-04T13:30:22Z</time></trkpt><trkpt lat="44.969786956218044" lon="11.839098834952798"><ele>10.333333333333334</ele><time>2026-04-04T13:30:24Z</time></trkpt><trkpt lat="44.969768454359304" lon="11.839240213441338"><ele>10.166666666666668</ele><time>2026-04-04T13:30:26Z</time></trkpt><trkpt lat="44.96974984506163" lon="11.839373048720068"><ele>10.0</ele><time>2026-04-04T13:30:28Z</time></trkpt><trkpt lat="44.969738127532956" lon="11.839501476812844"><ele>9.8</ele><time>2026-04-04T13:30:30Z</time></trkpt><trkpt lat="44.96972248920844" lon="11.839619407212691"><ele>9.6</ele><time>2026-04-04T13:30:32Z</time></trkpt><trkpt lat="44.96970263682799" lon="11.839738242313366"><ele>9.4</ele><time>2026-04-04T13:30:34Z</time></trkpt><trkpt lat="44.96967923074583" lon="11.839874966963652"><ele>9.2</ele><time>2026-04-04T13:30:36Z</time></trkpt><trkpt lat="44.96965794977455" lon="11.840018968015116"><ele>9.0</ele><time>2026-04-04T13:30:38Z</time></trkpt><trkpt lat="44.969637419834164" lon="11.840163139393411"><ele>9.0</ele><time>2026-04-04T13:30:40Z</time></trkpt><trkpt lat="44.96961638221927" lon="11.840309112741274"><ele>9.0</ele><time>2026-04-04T13:30:42Z</time></trkpt><trkpt lat="44.9696000068118" lon="11.840448477182667"><ele>9.0</ele><time>2026-04-04T13:30:44Z</time></trkpt><trkpt lat="44.96957852019466" lon="11.840598110613398"><ele>9.0</ele><time>2026-04-04T13:30:46Z</time></trkpt><trkpt lat="44.969555106860824" lon="11.840741932624335"><ele>9.0</ele><time>2026-04-04T13:30:48Z</time></trkpt><trkpt lat="44.96953711633874" lon="11.840884573045917"><ele>9.2</ele><time>2026-04-04T13:30:50Z</time></trkpt><trkpt lat="44.969519530296495" lon="11.841024306252177"><ele>9.4</ele><time>2026-04-04T13:30:52Z</time></trkpt><trkpt lat="44.96950162092853" lon="11.841171351556937"><ele>9.6</ele><time>2026-04-04T13:30:54Z</time></trkpt><trkpt lat="44.96948617636807" lon="11.841315911360557"><ele>9.8</ele><time>2026-04-04T13:30:56Z</time></trkpt><trkpt lat="44.96946754592176" lon="11.84145858915661"><ele>10.0</ele><time>2026-04-04T13:30:58Z</time></trkpt><trkpt lat="44.969451696170026" lon="11.841595813516296"><ele>10.0</ele><time>2026-04-04T13:31:00Z</time></trkpt><trkpt lat="44.96943293888624" lon="11.841736833167422"><ele>10.0</ele><time>2026-04-04T13:31:02Z</time></trkpt><trkpt lat="44.96941734719672" lon="11.841879893469061"><ele>10.0</ele><time>2026-04-04T13:31:04Z</time></trkpt><trkpt lat="44.96940572962723" lon="11.842022840993474"><ele>10.0</ele><time>2026-04-04T13:31:06Z</time></trkpt><trkpt lat="44.96939256498983" lon="11.842167612941067"><ele>10.0</ele><time>2026-04-04T13:31:08Z</time></trkpt><trkpt lat="44.96937747541527" lon="11.842309582358991"><ele>10.0</ele><time>2026-04-04T13:31:10Z</time></trkpt><trkpt lat="44.969370062476905" lon="11.84245182773709"><ele>10.0</ele><time>2026-04-04T13:31:12Z</time></trkpt><trkpt lat="44.969373089866664" lon="11.842595292388278"><ele>10.0</ele><time>2026-04-04T13:31:14Z</time></trkpt><trkpt lat="44.96936682476441" lon="11.842736196219448"><ele>10.0</ele><time>2026-04-04T13:31:16Z</time></trkpt><trkpt lat="44.969361686157114" lon="11.842877967082831"><ele>10.0</ele><time>2026-04-04T13:31:18Z</time></trkpt><trkpt lat="44.96936278322722" lon="11.84302336540016"><ele>10.2</ele><time>2026-04-04T13:31:20Z</time></trkpt><trkpt lat="44.96935539997089" lon="11.8431610010703"><ele>10.4</ele><time>2026-04-04T13:31:22Z</time></trkpt><trkpt lat="44.96935266809818" lon="11.843300565784759"><ele>10.600000000000001</ele><time>2026-04-04T13:31:24Z</time></trkpt><trkpt lat="44.969352758640674" lon="11.843432159359338"><ele>10.8</ele><time>2026-04-04T13:31:26Z</time></trkpt><trkpt lat="44.9693528699884" lon="11.84354805024705"><ele>11.0</ele><time>2026-04-04T13:31:28Z</time></trkpt><trkpt lat="44.9693526248431" lon="11.84366216330919"><ele>10.5</ele><time>2026-04-04T13:31:30Z</time></trkpt><trkpt lat="44.96935694382634" lon="11.843756996915658"><ele>10.0</ele><time>2026-04-04T13:31:32Z</time></trkpt><trkpt lat="44.96934523968741" lon="11.843856870708228"><ele>9.5</ele><time>2026-04-04T13:31:34Z</time></trkpt><trkpt lat="44.96933487435248" lon="11.843987214803104"><ele>9.0</ele><time>2026-04-04T13:31:36Z</time></trkpt><trkpt lat="44.9693351703698" lon="11.844132458143065"><ele>8.5</ele><time>2026-04-04T13:31:38Z</time></trkpt><trkpt lat="44.96933032173269" lon="11.844268131186356"><ele>8.0</ele><time>2026-04-04T13:31:40Z</time></trkpt><trkpt lat="44.96934238610562" lon="11.844402181256356"><ele>7.800000000000001</ele><time>2026-04-04T13:31:42Z</time></trkpt><trkpt lat="44.96934012266529" lon="11.844516478359838"><ele>7.6000000000000005</ele><time>2026-04-04T13:31:44Z</time></trkpt><trkpt lat="44.96933953195914" lon="11.844629875375011"><ele>7.3999999999999995</ele><time>2026-04-04T13:31:46Z</time></trkpt><trkpt lat="44.96933352902588" lon="11.844765273514662"><ele>7.199999999999999</ele><time>2026-04-04T13:31:48Z</time></trkpt><trkpt lat="44.96934105504634" lon="11.844908131778686"><ele>7.0</ele><time>2026-04-04T13:31:50Z</time></trkpt><trkpt lat="44.9693469013121" lon="11.845051495712994"><ele>7.000000000000001</ele><time>2026-04-04T13:31:52Z</time></trkpt><trkpt lat="44.96934551778925" lon="11.845193633695404"><ele>7.0</ele><time>2026-04-04T13:31:54Z</time></trkpt><trkpt lat="44.96935203644463" lon="11.845324072071916"><ele>7.0</ele><time>2026-04-04T13:31:56Z</time></trkpt><trkpt lat="44.969352166167525" lon="11.845448536253615"><ele>7.0</ele><time>2026-04-04T13:31:58Z</time></trkpt><trkpt lat="44.96935413336739" lon="11.84557012547883"><ele>7.000000000000001</ele><time>2026-04-04T13:32:00Z</time></trkpt><trkpt lat="44.96935670175689" lon="11.84568259619351"><ele>7.0</ele><time>2026-04-04T13:32:02Z</time></trkpt><trkpt lat="44.96935810537919" lon="11.84581557459467"><ele>7.0</ele><time>2026-04-04T13:32:04Z</time></trkpt><trkpt lat="44.9693589858222" lon="11.845954734643586"><ele>6.999999999999999</ele><time>2026-04-04T13:32:06Z</time></trkpt><trkpt lat="44.96935183674481" lon="11.846091936989255"><ele>6.999999999999999</ele><time>2026-04-04T13:32:08Z</time></trkpt><trkpt lat="44.96935099352198" lon="11.846235090499977"><ele>7.0</ele><time>2026-04-04T13:32:10Z</time></trkpt><trkpt lat="44.969359166578236" lon="11.846377555253971"><ele>7.0</ele><time>2026-04-04T13:32:12Z</time></trkpt><trkpt lat="44.96935779138278" lon="11.8465175898018"><ele>6.8</ele><time>2026-04-04T13:32:14Z</time></trkpt><trkpt lat="44.96936580353332" lon="11.84665648286576"><ele>6.6</ele><time>2026-04-04T13:32:16Z</time></trkpt><trkpt lat="44.96936950184458" lon="11.846798710600215"><ele>6.3999999999999995</ele><time>2026-04-04T13:32:18Z</time></trkpt><trkpt lat="44.96937205005193" lon="11.846942304565015"><ele>6.199999999999999</ele><time>2026-04-04T13:32:20Z</time></trkpt><trkpt lat="44.96937698358028" lon="11.847086925359092"><ele>6.0</ele><time>2026-04-04T13:32:22Z</time></trkpt><trkpt lat="44.96937984238602" lon="11.847228351160277"><ele>6.0</ele><time>2026-04-04T13:32:24Z</time></trkpt><trkpt lat="44.96938907154716" lon="11.847372059018605"><ele>6.0</ele><time>2026-04-04T13:32:26Z</time></trkpt><trkpt lat="44.969398440324404" lon="11.847516610102078"><ele>6.0</ele><time>2026-04-04T13:32:28Z</time></trkpt><trkpt lat="44.969404023993214" lon="11.847653718198544"><ele>6.0</ele><time>2026-04-04T13:32:30Z</time></trkpt><trkpt lat="44.96940996109619" lon="11.84778289576911"><ele>6.0</ele><time>2026-04-04T13:32:32Z</time></trkpt><trkpt lat="44.96942007810443" lon="11.847901969946992"><ele>6.166666666666667</ele><time>2026-04-04T13:32:34Z</time></trkpt><trkpt lat="44.96942128259556" lon="11.848010327253196"><ele>6.333333333333334</ele><time>2026-04-04T13:32:36Z</time></trkpt><trkpt lat="44.96943416452261" lon="11.848114902969645"><ele>6.5</ele><time>2026-04-04T13:32:38Z</time></trkpt><trkpt lat="44.96943480246613" lon="11.848206430083211"><ele>6.666666666666667</ele><time>2026-04-04T13:32:40Z</time></trkpt><trkpt lat="44.96943257128993" lon="11.848340794057453"><ele>6.833333333333334</ele><time>2026-04-04T13:32:43Z</time></trkpt><trkpt lat="44.9694468634922" lon="11.84846450806948"><ele>7.0</ele><time>2026-04-04T13:32:45Z</time></trkpt><trkpt lat="44.96945303648833" lon="11.848579978916119"><ele>7.000000000000001</ele><time>2026-04-04T13:32:47Z</time></trkpt><trkpt lat="44.96945631793502" lon="11.848688067840726"><ele>7.0</ele><time>2026-04-04T13:32:49Z</time></trkpt><trkpt lat="44.96946195232878" lon="11.84878805264548"><ele>7.0</ele><time>2026-04-04T13:32:51Z</time></trkpt><trkpt lat="44.96946770059295" lon="11.848877845808598"><ele>7.0</ele><time>2026-04-04T13:32:53Z</time></trkpt><trkpt lat="44.96947590721691" lon="11.849010726363314"><ele>7.000000000000001</ele><time>2026-04-04T13:32:56Z</time></trkpt><trkpt lat="44.969486768526224" lon="11.849133959661664"><ele>7.0</ele><time>2026-04-04T13:32:58Z</time></trkpt><trkpt lat="44.969493476159734" lon="11.849259550758903"><ele>7.000000000000001</ele><time>2026-04-04T13:33:00Z</time></trkpt><trkpt lat="44.96949689799658" lon="11.8493742423364"><ele>7.0</ele><time>2026-04-04T13:33:02Z</time></trkpt><trkpt lat="44.96951118013153" lon="11.84948222325338"><ele>7.0</ele><time>2026-04-04T13:33:04Z</time></trkpt><trkpt lat="44.969513663799916" lon="11.84957765256427"><ele>7.0</ele><time>2026-04-04T13:33:06Z</time></trkpt><trkpt lat="44.96952092482556" lon="11.849674435933387"><ele>7.000000000000001</ele><time>2026-04-04T13:33:08Z</time></trkpt><trkpt lat="44.96953364582507" lon="11.849804704996236"><ele>7.0</ele><time>2026-04-04T13:33:11Z</time></trkpt><trkpt lat="44.969538980117285" lon="11.849927018321608"><ele>7.000000000000001</ele><time>2026-04-04T13:33:14Z</time></trkpt><trkpt lat="44.9695486930635" lon="11.850036813444163"><ele>7.0</ele><time>2026-04-04T13:33:17Z</time></trkpt><trkpt lat="44.969559427412115" lon="11.850129685300974"><ele>7.0</ele><time>2026-04-04T13:33:20Z</time></trkpt><trkpt lat="44.96956813683155" lon="11.85023817928823"><ele>7.0</ele><time>2026-04-04T13:33:24Z</time></trkpt><trkpt lat="44.969578276863395" lon="11.850358428486999"><ele>7.000000000000001</ele><time>2026-04-04T13:33:28Z</time></trkpt><trkpt lat="44.96958714627448" lon="11.85046660001091"><ele>7.0</ele><time>2026-04-04T13:33:30Z</time></trkpt><trkpt lat="44.96959318781209" lon="11.850583562215816"><ele>7.000000000000001</ele><time>2026-04-04T13:33:32Z</time></trkpt><trkpt lat="44.96960704319559" lon="11.850687281211668"><ele>7.0</ele><time>2026-04-04T13:33:34Z</time></trkpt><trkpt lat="44.9696190839734" lon="11.850787267928636"><ele>7.0</ele><time>2026-04-04T13:33:36Z</time></trkpt><trkpt lat="44.96962801369796" lon="11.850890105973614"><ele>7.0</ele><time>2026-04-04T13:33:38Z</time></trkpt><trkpt lat="44.96963498661483" lon="11.851017812349257"><ele>7.000000000000001</ele><time>2026-04-04T13:33:40Z</time></trkpt><trkpt lat="44.969646660406205" lon="11.851159803149981"><ele>7.0</ele><time>2026-04-04T13:33:42Z</time></trkpt><trkpt lat="44.96965528598917" lon="11.851297169769412"><ele>7.000000000000001</ele><time>2026-04-04T13:33:44Z</time></trkpt><trkpt lat="44.96967458280825" lon="11.851430195450197"><ele>7.0</ele><time>2026-04-04T13:33:46Z</time></trkpt><trkpt lat="44.96968536662258" lon="11.851555945478685"><ele>7.0</ele><time>2026-04-04T13:33:48Z</time></trkpt><trkpt lat="44.96969637748822" lon="11.851676171436672"><ele>7.0</ele><time>2026-04-04T13:33:50Z</time></trkpt><trkpt lat="44.96971011108425" lon="11.851793483102426"><ele>7.000000000000001</ele><time>2026-04-04T13:33:52Z</time></trkpt><trkpt lat="44.969719171897005" lon="11.851918295693281"><ele>7.0</ele><time>2026-04-04T13:33:54Z</time></trkpt><trkpt lat="44.96973616774692" lon="11.852054158479827"><ele>7.199999999999999</ele><time>2026-04-04T13:33:56Z</time></trkpt><trkpt lat="44.969750031988326" lon="11.852197009226469"><ele>7.3999999999999995</ele><time>2026-04-04T13:33:58Z</time></trkpt><trkpt lat="44.96976661763548" lon="11.852328786696628"><ele>7.6000000000000005</ele><time>2026-04-04T13:34:00Z</time></trkpt><trkpt lat="44.969782566511675" lon="11.852452144491716"><ele>7.800000000000001</ele><time>2026-04-04T13:34:02Z</time></trkpt><trkpt lat="44.96978574267519" lon="11.85257513112995"><ele>8.0</ele><time>2026-04-04T13:34:04Z</time></trkpt><trkpt lat="44.96979925796365" lon="11.85268651092411"><ele>8.166666666666666</ele><time>2026-04-04T13:34:06Z</time></trkpt><trkpt lat="44.96980994466581" lon="11.852788530910807"><ele>8.333333333333332</ele><time>2026-04-04T13:34:08Z</time></trkpt><trkpt lat="44.96982873019922" lon="11.852894227271321"><ele>8.5</ele><time>2026-04-04T13:34:10Z</time></trkpt><trkpt lat="44.969847394610944" lon="11.853021864135757"><ele>8.666666666666666</ele><time>2026-04-04T13:34:12Z</time></trkpt><trkpt lat="44.96984984589378" lon="11.85314257610829"><ele>8.833333333333334</ele><time>2026-04-04T13:34:14Z</time></trkpt><trkpt lat="44.96986866717449" lon="11.853254274827464"><ele>9.0</ele><time>2026-04-04T13:34:16Z</time></trkpt><trkpt lat="44.96987529098236" lon="11.853364637750918"><ele>8.857142857142858</ele><time>2026-04-04T13:34:18Z</time></trkpt><trkpt lat="44.96988781421903" lon="11.853466868897515"><ele>8.714285714285715</ele><time>2026-04-04T13:34:20Z</time></trkpt><trkpt lat="44.969896731180555" lon="11.853565635191991"><ele>8.571428571428571</ele><time>2026-04-04T13:34:22Z</time></trkpt><trkpt lat="44.96990691917604" lon="11.853655259155722"><ele>8.428571428571429</ele><time>2026-04-04T13:34:24Z</time></trkpt><trkpt lat="44.969915734553126" lon="11.853743531420344"><ele>8.285714285714285</ele><time>2026-04-04T13:34:26Z</time></trkpt><trkpt lat="44.96991718066057" lon="11.853837642417927"><ele>8.142857142857142</ele><time>2026-04-04T13:34:28Z</time></trkpt><trkpt lat="44.96993631230334" lon="11.85395481650484"><ele>8.0</ele><time>2026-04-04T13:34:30Z</time></trkpt><trkpt lat="44.96995001730615" lon="11.854083406224824"><ele>7.999999999999999</ele><time>2026-04-04T13:34:32Z</time></trkpt><trkpt lat="44.96996270533434" lon="11.854198129338712"><ele>8.0</ele><time>2026-04-04T13:34:34Z</time></trkpt><trkpt lat="44.969973890014266" lon="11.854309529867098"><ele>8.0</ele><time>2026-04-04T13:34:36Z</time></trkpt><trkpt lat="44.969982373262994" lon="11.854416292627313"><ele>8.0</ele><time>2026-04-04T13:34:38Z</time></trkpt><trkpt lat="44.96999522237276" lon="11.854521433158155"><ele>7.999999999999999</ele><time>2026-04-04T13:34:40Z</time></trkpt><trkpt lat="44.9700069568938" lon="11.854648360573542"><ele>8.0</ele><time>2026-04-04T13:34:42Z</time></trkpt><trkpt lat="44.97001926166937" lon="11.85478416228472"><ele>7.4</ele><time>2026-04-04T13:34:44Z</time></trkpt><trkpt lat="44.970036990748724" lon="11.85492518117449"><ele>6.800000000000001</ele><time>2026-04-04T13:34:46Z</time></trkpt><trkpt lat="44.97004884400256" lon="11.855063947261748"><ele>6.2</ele><time>2026-04-04T13:34:48Z</time></trkpt><trkpt lat="44.97005815799831" lon="11.85519143344898"><ele>5.6</ele><time>2026-04-04T13:34:50Z</time></trkpt><trkpt lat="44.97007295764282" lon="11.85531124636066"><ele>5.0</ele><time>2026-04-04T13:34:52Z</time></trkpt><trkpt lat="44.97008469023501" lon="11.855420670715874"><ele>5.0</ele><time>2026-04-04T13:34:54Z</time></trkpt><trkpt lat="44.97009400528065" lon="11.855530038459252"><ele>5.0</ele><time>2026-04-04T13:34:56Z</time></trkpt><trkpt lat="44.97011049714358" lon="11.855622620985221"><ele>5.0</ele><time>2026-04-04T13:34:58Z</time></trkpt><trkpt lat="44.97011390390987" lon="11.855721925256441"><ele>5.0</ele><time>2026-04-04T13:35:00Z</time></trkpt><trkpt lat="44.97013084424053" lon="11.855849273938517"><ele>5.0</ele><time>2026-04-04T13:35:02Z</time></trkpt><trkpt lat="44.97014421249469" lon="11.855963660032039"><ele>5.0</ele><time>2026-04-04T13:35:04Z</time></trkpt><trkpt lat="44.97014805495991" lon="11.856077979927532"><ele>4.6</ele><time>2026-04-04T13:35:06Z</time></trkpt><trkpt lat="44.97016439872056" lon="11.856212225565947"><ele>4.2</ele><time>2026-04-04T13:35:08Z</time></trkpt><trkpt lat="44.97017601703463" lon="11.856350574749058"><ele>3.8</ele><time>2026-04-04T13:35:10Z</time></trkpt><trkpt lat="44.970189845703906" lon="11.8564889483663"><ele>3.4</ele><time>2026-04-04T13:35:12Z</time></trkpt><trkpt lat="44.97020596605279" lon="11.856628184372255"><ele>3.0</ele><time>2026-04-04T13:35:14Z</time></trkpt><trkpt lat="44.97020034082634" lon="11.856772285066796"><ele>2.8333333333333335</ele><time>2026-04-04T13:35:16Z</time></trkpt><trkpt lat="44.97023065199655" lon="11.856898560519785"><ele>2.6666666666666665</ele><time>2026-04-04T13:35:18Z</time></trkpt><trkpt lat="44.97022665905904" lon="11.857017926609712"><ele>2.5</ele><time>2026-04-04T13:35:20Z</time></trkpt><trkpt lat="44.97023729221728" lon="11.857120200855917"><ele>2.333333333333333</ele><time>2026-04-04T13:35:22Z</time></trkpt><trkpt lat="44.97026228374761" lon="11.85722092672452"><ele>2.1666666666666665</ele><time>2026-04-04T13:35:24Z</time></trkpt><trkpt lat="44.970276236160345" lon="11.857347976983714"><ele>2.0</ele><time>2026-04-04T13:35:26Z</time></trkpt><trkpt lat="44.97027399976157" lon="11.857482263100872"><ele>1.9999999999999998</ele><time>2026-04-04T13:35:28Z</time></trkpt><trkpt lat="44.970296678766985" lon="11.857614709599861"><ele>2.0</ele><time>2026-04-04T13:35:30Z</time></trkpt><trkpt lat="44.97031675956935" lon="11.857753377800865"><ele>2.0</ele><time>2026-04-04T13:35:32Z</time></trkpt><trkpt lat="44.970323338449894" lon="11.857875714078881"><ele>2.0</ele><time>2026-04-04T13:35:34Z</time></trkpt><trkpt lat="44.970326956071915" lon="11.8579951260009"><ele>1.9999999999999998</ele><time>2026-04-04T13:35:36Z</time></trkpt><trkpt lat="44.97035416830793" lon="11.85810012509108"><ele>2.0</ele><time>2026-04-04T13:35:38Z</time></trkpt><trkpt lat="44.9703621393745" lon="11.858202072244973"><ele>2.142857142857143</ele><time>2026-04-04T13:35:40Z</time></trkpt><trkpt lat="44.97037091293068" lon="11.858300666214165"><ele>2.2857142857142856</ele><time>2026-04-04T13:35:42Z</time></trkpt><trkpt lat="44.97038336283195" lon="11.858420297502148"><ele>2.4285714285714284</ele><time>2026-04-04T13:35:44Z</time></trkpt><trkpt lat="44.970383051933325" lon="11.858530980468474"><ele>2.571428571428571</ele><time>2026-04-04T13:35:46Z</time></trkpt><trkpt lat="44.970404143136044" lon="11.858628406381554"><ele>2.7142857142857144</ele><time>2026-04-04T13:35:48Z</time></trkpt><trkpt lat="44.97041493277517" lon="11.858727746163876"><ele>2.8571428571428568</ele><time>2026-04-04T13:35:50Z</time></trkpt><trkpt lat="44.97042745880579" lon="11.858821274763113"><ele>3.0</ele><time>2026-04-04T13:35:52Z</time></trkpt><trkpt lat="44.970434343318956" lon="11.858910220659483"><ele>3.5</ele><time>2026-04-04T13:35:54Z</time></trkpt><trkpt lat="44.97044280860876" lon="11.85903259865028"><ele>4.0</ele><time>2026-04-04T13:35:56Z</time></trkpt><trkpt lat="44.97045343896956" lon="11.859151600891401"><ele>4.5</ele><time>2026-04-04T13:35:58Z</time></trkpt><trkpt lat="44.970468015067176" lon="11.859265899299594"><ele>5.0</ele><time>2026-04-04T13:36:00Z</time></trkpt><trkpt lat="44.970483186158006" lon="11.859399706284655"><ele>5.5</ele><time>2026-04-04T13:36:02Z</time></trkpt><trkpt lat="44.97049719678071" lon="11.859528446227417"><ele>6.0</ele><time>2026-04-04T13:36:04Z</time></trkpt><trkpt lat="44.97051151947174" lon="11.859645045911668"><ele>6.333333333333333</ele><time>2026-04-04T13:36:06Z</time></trkpt><trkpt lat="44.97052661278736" lon="11.859753876931379"><ele>6.666666666666666</ele><time>2026-04-04T13:36:08Z</time></trkpt><trkpt lat="44.97053631522299" lon="11.859858261684382"><ele>7.0</ele><time>2026-04-04T13:36:10Z</time></trkpt><trkpt lat="44.97054638263625" lon="11.859955357362384"><ele>7.333333333333333</ele><time>2026-04-04T13:36:12Z</time></trkpt><trkpt lat="44.97055774906609" lon="11.860054944524808"><ele>7.666666666666666</ele><time>2026-04-04T13:36:14Z</time></trkpt><trkpt lat="44.970571085388066" lon="11.860181651971635"><ele>8.0</ele><time>2026-04-04T13:36:16Z</time></trkpt><trkpt lat="44.97058190786401" lon="11.860295669314564"><ele>8.166666666666666</ele><time>2026-04-04T13:36:18Z</time></trkpt><trkpt lat="44.97059617821549" lon="11.860410839446972"><ele>8.333333333333332</ele><time>2026-04-04T13:36:20Z</time></trkpt><trkpt lat="44.970604523617205" lon="11.860514619158366"><ele>8.5</ele><time>2026-04-04T13:36:22Z</time></trkpt><trkpt lat="44.97061455628703" lon="11.860613011152267"><ele>8.666666666666666</ele><time>2026-04-04T13:36:24Z</time></trkpt><trkpt lat="44.970625488678515" lon="11.860724641519973"><ele>8.833333333333334</ele><time>2026-04-04T13:36:26Z</time></trkpt><trkpt lat="44.970641335591964" lon="11.860847645073514"><ele>9.0</ele><time>2026-04-04T13:36:28Z</time></trkpt><trkpt lat="44.97065263473543" lon="11.860955055196433"><ele>8.714285714285715</ele><time>2026-04-04T13:36:30Z</time></trkpt><trkpt lat="44.970663259075145" lon="11.861056507131325"><ele>8.428571428571429</ele><time>2026-04-04T13:36:32Z</time></trkpt><trkpt lat="44.970674734995676" lon="11.861152213996803"><ele>8.142857142857142</ele><time>2026-04-04T13:36:34Z</time></trkpt><trkpt lat="44.97068057272699" lon="11.86124622282904"><ele>7.857142857142858</ele><time>2026-04-04T13:36:36Z</time></trkpt><trkpt lat="44.97068411102844" lon="11.861336343700218"><ele>7.571428571428571</ele><time>2026-04-04T13:36:38Z</time></trkpt><trkpt lat="44.97068978497667" lon="11.861449633440394"><ele>7.285714285714286</ele><time>2026-04-04T13:36:40Z</time></trkpt><trkpt lat="44.970709581402645" lon="11.861559438251025"><ele>7.0</ele><time>2026-04-04T13:36:42Z</time></trkpt><trkpt lat="44.970723372344075" lon="11.861650696823602"><ele>7.000000000000001</ele><time>2026-04-04T13:36:44Z</time></trkpt><trkpt lat="44.970729701926395" lon="11.861748213382917"><ele>7.0</ele><time>2026-04-04T13:36:46Z</time></trkpt><trkpt lat="44.970741785732606" lon="11.861866913418245"><ele>7.0</ele><time>2026-04-04T13:36:48Z</time></trkpt><trkpt lat="44.970758435924616" lon="11.862006785017988"><ele>7.0</ele><time>2026-04-04T13:36:50Z</time></trkpt><trkpt lat="44.97077281654263" lon="11.862146290158918"><ele>7.000000000000001</ele><time>2026-04-04T13:36:52Z</time></trkpt><trkpt lat="44.97078810806284" lon="11.862274242220098"><ele>7.0</ele><time>2026-04-04T13:36:54Z</time></trkpt><trkpt lat="44.97080355393214" lon="11.862403185872836"><ele>7.199999999999999</ele><time>2026-04-04T13:36:56Z</time></trkpt><trkpt lat="44.970815560687996" lon="11.862538802764199"><ele>7.3999999999999995</ele><time>2026-04-04T13:36:58Z</time></trkpt><trkpt lat="44.97082509443852" lon="11.862681190533761"><ele>7.6000000000000005</ele><time>2026-04-04T13:37:00Z</time></trkpt><trkpt lat="44.970841402183815" lon="11.862822204836712"><ele>7.800000000000001</ele><time>2026-04-04T13:37:02Z</time></trkpt><trkpt lat="44.97085495338179" lon="11.862964171409196"><ele>8.0</ele><time>2026-04-04T13:37:04Z</time></trkpt><trkpt lat="44.970873789619716" lon="11.86310347893277"><ele>8.200000000000001</ele><time>2026-04-04T13:37:06Z</time></trkpt><trkpt lat="44.9708826736542" lon="11.863243875996991"><ele>8.4</ele><time>2026-04-04T13:37:08Z</time></trkpt><trkpt lat="44.97089928199041" lon="11.863386347360029"><ele>8.600000000000001</ele><time>2026-04-04T13:37:10Z</time></trkpt><trkpt lat="44.97091087671089" lon="11.86352491911863"><ele>8.8</ele><time>2026-04-04T13:37:12Z</time></trkpt><trkpt lat="44.970928924380566" lon="11.863668243225453"><ele>9.0</ele><time>2026-04-04T13:37:14Z</time></trkpt><trkpt lat="44.97094749902901" lon="11.863807921685277"><ele>9.8</ele><time>2026-04-04T13:37:16Z</time></trkpt><trkpt lat="44.97096155774671" lon="11.863948998286231"><ele>10.600000000000001</ele><time>2026-04-04T13:37:18Z</time></trkpt><trkpt lat="44.97097597913504" lon="11.864095523806162"><ele>11.4</ele><time>2026-04-04T13:37:20Z</time></trkpt><trkpt lat="44.9709898825965" lon="11.864237446535453"><ele>12.200000000000001</ele><time>2026-04-04T13:37:22Z</time></trkpt><trkpt lat="44.97100169028748" lon="11.86437774960415"><ele>13.0</ele><time>2026-04-04T13:37:24Z</time></trkpt><trkpt lat="44.97101927788147" lon="11.864518809805311"><ele>12.999999999999998</ele><time>2026-04-04T13:37:26Z</time></trkpt><trkpt lat="44.97102718051859" lon="11.864658714812537"><ele>13.0</ele><time>2026-04-04T13:37:28Z</time></trkpt><trkpt lat="44.97104828751574" lon="11.864790226597952"><ele>13.0</ele><time>2026-04-04T13:37:30Z</time></trkpt><trkpt lat="44.97105878167851" lon="11.86491797245174"><ele>13.0</ele><time>2026-04-04T13:37:32Z</time></trkpt><trkpt lat="44.97107914122516" lon="11.865037178400573"><ele>12.999999999999998</ele><time>2026-04-04T13:37:34Z</time></trkpt><trkpt lat="44.97108598344586" lon="11.865145303492715"><ele>13.0</ele><time>2026-04-04T13:37:36Z</time></trkpt><trkpt lat="44.97109832813524" lon="11.865256027253025"><ele>12.499999999999998</ele><time>2026-04-04T13:37:38Z</time></trkpt><trkpt lat="44.97110592662633" lon="11.865381454630679"><ele>12.0</ele><time>2026-04-04T13:37:40Z</time></trkpt><trkpt lat="44.971126161682264" lon="11.865498862565964"><ele>11.5</ele><time>2026-04-04T13:37:42Z</time></trkpt><trkpt lat="44.97113832469301" lon="11.865603401986993"><ele>11.0</ele><time>2026-04-04T13:37:44Z</time></trkpt><trkpt lat="44.971149805706645" lon="11.865708443555835"><ele>10.5</ele><time>2026-04-04T13:37:46Z</time></trkpt><trkpt lat="44.971158066943346" lon="11.8658167573036"><ele>10.0</ele><time>2026-04-04T13:37:48Z</time></trkpt><trkpt lat="44.971172814343646" lon="11.865943941539777"><ele>9.8</ele><time>2026-04-04T13:37:50Z</time></trkpt><trkpt lat="44.97118425771359" lon="11.866071478079661"><ele>9.6</ele><time>2026-04-04T13:37:52Z</time></trkpt><trkpt lat="44.97120028177589" lon="11.866195193265307"><ele>9.4</ele><time>2026-04-04T13:37:54Z</time></trkpt><trkpt lat="44.97121104465093" lon="11.866338234988728"><ele>9.2</ele><time>2026-04-04T13:37:56Z</time></trkpt><trkpt lat="44.97122267001093" lon="11.866511609611528"><ele>9.0</ele><time>2026-04-04T13:37:58Z</time></trkpt><trkpt lat="44.971239695130436" lon="11.866670588503732"><ele>8.4</ele><time>2026-04-04T13:38:00Z</time></trkpt><trkpt lat="44.97125071884196" lon="11.866825382738336"><ele>7.800000000000001</ele><time>2026-04-04T13:38:02Z</time></trkpt><trkpt lat="44.97126300448186" lon="11.86697134238176"><ele>7.199999999999999</ele><time>2026-04-04T13:38:04Z</time></trkpt><trkpt lat="44.97127226046018" lon="11.867106952148246"><ele>6.6</ele><time>2026-04-04T13:38:06Z</time></trkpt><trkpt lat="44.971284270977335" lon="11.867237597755016"><ele>6.0</ele><time>2026-04-04T13:38:08Z</time></trkpt><trkpt lat="44.9712915234894" lon="11.867358312059727"><ele>6.0</ele><time>2026-04-04T13:38:10Z</time></trkpt><trkpt lat="44.97130228942831" lon="11.867491234085524"><ele>6.0</ele><time>2026-04-04T13:38:12Z</time></trkpt><trkpt lat="44.97131476545479" lon="11.867632264605142"><ele>6.0</ele><time>2026-04-04T13:38:14Z</time></trkpt><trkpt lat="44.97133014151362" lon="11.867771772361868"><ele>6.0</ele><time>2026-04-04T13:38:16Z</time></trkpt><trkpt lat="44.97133439434802" lon="11.867915330214698"><ele>6.0</ele><time>2026-04-04T13:38:18Z</time></trkpt><trkpt lat="44.971342754799515" lon="11.86805668143378"><ele>5.833333333333333</ele><time>2026-04-04T13:38:20Z</time></trkpt><trkpt lat="44.971355535660756" lon="11.868197841501747"><ele>5.666666666666667</ele><time>2026-04-04T13:38:22Z</time></trkpt><trkpt lat="44.97136225395139" lon="11.868332328145359"><ele>5.5</ele><time>2026-04-04T13:38:24Z</time></trkpt><trkpt lat="44.97137067312248" lon="11.868454834835271"><ele>5.333333333333334</ele><time>2026-04-04T13:38:26Z</time></trkpt><trkpt lat="44.971376993886956" lon="11.868563659428874"><ele>5.166666666666667</ele><time>2026-04-04T13:38:28Z</time></trkpt><trkpt lat="44.97138181899982" lon="11.868655689501468"><ele>5.0</ele><time>2026-04-04T13:38:30Z</time></trkpt><trkpt lat="44.971388161437694" lon="11.868762908540214"><ele>5.0</ele><time>2026-04-04T13:38:32Z</time></trkpt><trkpt lat="44.97139393614251" lon="11.86888414311422"><ele>5.0</ele><time>2026-04-04T13:38:34Z</time></trkpt><trkpt lat="44.97140212618503" lon="11.869004423368299"><ele>5.0</ele><time>2026-04-04T13:38:36Z</time></trkpt><trkpt lat="44.9714039262055" lon="11.869138474920018"><ele>5.0</ele><time>2026-04-04T13:38:38Z</time></trkpt><trkpt lat="44.97141812765168" lon="11.869281965034741"><ele>5.0</ele><time>2026-04-04T13:38:40Z</time></trkpt><trkpt lat="44.971424088536715" lon="11.869430678381155"><ele>5.0</ele><time>2026-04-04T13:38:42Z</time></trkpt><trkpt lat="44.97143179198784" lon="11.869579245365324"><ele>5.0</ele><time>2026-04-04T13:38:44Z</time></trkpt><trkpt lat="44.971435517554355" lon="11.869724122126865"><ele>5.0</ele><time>2026-04-04T13:38:46Z</time></trkpt><trkpt lat="44.971433712842355" lon="11.869862097150277"><ele>5.0</ele><time>2026-04-04T13:38:48Z</time></trkpt><trkpt lat="44.97143835974216" lon="11.869990102727945"><ele>5.0</ele><time>2026-04-04T13:38:50Z</time></trkpt><trkpt lat="44.97143626801179" lon="11.870114612375808"><ele>4.833333333333334</ele><time>2026-04-04T13:38:52Z</time></trkpt><trkpt lat="44.97144253328938" lon="11.870228643433846"><ele>4.666666666666667</ele><time>2026-04-04T13:38:54Z</time></trkpt><trkpt lat="44.97143745034206" lon="11.87034686037862"><ele>4.5</ele><time>2026-04-04T13:38:56Z</time></trkpt><trkpt lat="44.971437313372036" lon="11.87048374752098"><ele>4.333333333333333</ele><time>2026-04-04T13:38:58Z</time></trkpt><trkpt lat="44.97143480790868" lon="11.870610992260225"><ele>4.166666666666666</ele><time>2026-04-04T13:39:00Z</time></trkpt><trkpt lat="44.97143704747018" lon="11.870734533100912"><ele>4.0</ele><time>2026-04-04T13:39:02Z</time></trkpt><trkpt lat="44.97142664366716" lon="11.87085128704279"><ele>4.142857142857142</ele><time>2026-04-04T13:39:04Z</time></trkpt><trkpt lat="44.971424936994175" lon="11.87096520026654"><ele>4.285714285714286</ele><time>2026-04-04T13:39:06Z</time></trkpt><trkpt lat="44.97142534585228" lon="11.871072530502422"><ele>4.428571428571429</ele><time>2026-04-04T13:39:08Z</time></trkpt><trkpt lat="44.97140104973824" lon="11.871166947138565"><ele>4.571428571428571</ele><time>2026-04-04T13:39:10Z</time></trkpt><trkpt lat="44.971395694799625" lon="11.871256689524913"><ele>4.714285714285714</ele><time>2026-04-04T13:39:12Z</time></trkpt><trkpt lat="44.97139510302627" lon="11.871359495769594"><ele>4.857142857142857</ele><time>2026-04-04T13:39:15Z</time></trkpt><trkpt lat="44.97138745164481" lon="11.871454943920687"><ele>5.0</ele><time>2026-04-04T13:39:18Z</time></trkpt><trkpt lat="44.97137017679174" lon="11.87159551073495"><ele>5.0</ele><time>2026-04-04T13:39:21Z</time></trkpt><trkpt lat="44.97135563432952" lon="11.871701453243753"><ele>5.0</ele><time>2026-04-04T13:39:23Z</time></trkpt><trkpt lat="44.97134969111574" lon="11.871802733881202"><ele>5.0</ele><time>2026-04-04T13:39:25Z</time></trkpt><trkpt lat="44.97134176955714" lon="11.871896438885955"><ele>5.0</ele><time>2026-04-04T13:39:27Z</time></trkpt><trkpt lat="44.971333299463694" lon="11.871995349839437"><ele>5.0</ele><time>2026-04-04T13:39:29Z</time></trkpt><trkpt lat="44.971318661208194" lon="11.87210219064571"><ele>5.0</ele><time>2026-04-04T13:39:31Z</time></trkpt><trkpt lat="44.97131157151226" lon="11.872195929201656"><ele>5.0</ele><time>2026-04-04T13:39:33Z</time></trkpt><trkpt lat="44.97129707848928" lon="11.872320565472496"><ele>5.333333333333334</ele><time>2026-04-04T13:39:36Z</time></trkpt><trkpt lat="44.97129142779228" lon="11.872439771246874"><ele>5.666666666666667</ele><time>2026-04-04T13:39:39Z</time></trkpt><trkpt lat="44.97127083104217" lon="11.872548330075361"><ele>6.0</ele><time>2026-04-04T13:39:42Z</time></trkpt><trkpt lat="44.971260622749874" lon="11.87264882569418"><ele>6.333333333333334</ele><time>2026-04-04T13:39:44Z</time></trkpt><trkpt lat="44.97124581267601" lon="11.872777616842345"><ele>6.666666666666667</ele><time>2026-04-04T13:39:46Z</time></trkpt><trkpt lat="44.97123632896045" lon="11.8728935302456"><ele>7.0</ele><time>2026-04-04T13:39:48Z</time></trkpt><trkpt lat="44.9712215880792" lon="11.872997322161792"><ele>7.0</ele><time>2026-04-04T13:39:50Z</time></trkpt><trkpt lat="44.971207940395814" lon="11.87312211831606"><ele>6.999999999999999</ele><time>2026-04-04T13:39:52Z</time></trkpt><trkpt lat="44.9711909809654" lon="11.873258289681818"><ele>6.999999999999999</ele><time>2026-04-04T13:39:54Z</time></trkpt><trkpt lat="44.97117755238" lon="11.873398973464914"><ele>7.0</ele><time>2026-04-04T13:39:56Z</time></trkpt><trkpt lat="44.97116334386589" lon="11.873535440913674"><ele>7.0</ele><time>2026-04-04T13:39:58Z</time></trkpt><trkpt lat="44.97114504029585" lon="11.87366254364182"><ele>6.833333333333334</ele><time>2026-04-04T13:40:00Z</time></trkpt><trkpt lat="44.97112087922223" lon="11.873781139472646"><ele>6.666666666666667</ele><time>2026-04-04T13:40:02Z</time></trkpt><trkpt lat="44.971107790660334" lon="11.873894163297917"><ele>6.5</ele><time>2026-04-04T13:40:04Z</time></trkpt><trkpt lat="44.97109081411596" lon="11.874005074401632"><ele>6.333333333333334</ele><time>2026-04-04T13:40:06Z</time></trkpt><trkpt lat="44.97106959814927" lon="11.87413724660051"><ele>6.166666666666667</ele><time>2026-04-04T13:40:08Z</time></trkpt><trkpt lat="44.971048563628884" lon="11.874273676821698"><ele>6.0</ele><time>2026-04-04T13:40:10Z</time></trkpt><trkpt lat="44.97103278710943" lon="11.874407757394494"><ele>6.0</ele><time>2026-04-04T13:40:12Z</time></trkpt><trkpt lat="44.971001102737326" lon="11.874526651030626"><ele>6.0</ele><time>2026-04-04T13:40:14Z</time></trkpt><trkpt lat="44.97097480800503" lon="11.87463979985788"><ele>6.0</ele><time>2026-04-04T13:40:16Z</time></trkpt><trkpt lat="44.97094724034121" lon="11.87474555503968"><ele>6.0</ele><time>2026-04-04T13:40:18Z</time></trkpt><trkpt lat="44.9709290597613" lon="11.874848999148732"><ele>6.0</ele><time>2026-04-04T13:40:20Z</time></trkpt><trkpt lat="44.97089120175369" lon="11.874957224004667"><ele>6.0</ele><time>2026-04-04T13:40:22Z</time></trkpt><trkpt lat="44.97085768585544" lon="11.875083360817374"><ele>6.199999999999999</ele><time>2026-04-04T13:40:24Z</time></trkpt><trkpt lat="44.97080910993648" lon="11.875210071756648"><ele>6.3999999999999995</ele><time>2026-04-04T13:40:26Z</time></trkpt><trkpt lat="44.97076548690364" lon="11.875338071417248"><ele>6.6</ele><time>2026-04-04T13:40:28Z</time></trkpt><trkpt lat="44.97071301192297" lon="11.875461885960116"><ele>6.8</ele><time>2026-04-04T13:40:30Z</time></trkpt><trkpt lat="44.970664163199004" lon="11.875589962386217"><ele>7.0</ele><time>2026-04-04T13:40:32Z</time></trkpt><trkpt lat="44.97061064659773" lon="11.875710568505836"><ele>7.0</ele><time>2026-04-04T13:40:34Z</time></trkpt><trkpt lat="44.97055742935727" lon="11.875834900493462"><ele>6.999999999999999</ele><time>2026-04-04T13:40:36Z</time></trkpt><trkpt lat="44.970499188218604" lon="11.87595558610457"><ele>6.999999999999999</ele><time>2026-04-04T13:40:38Z</time></trkpt><trkpt lat="44.970449092264616" lon="11.876072751417048"><ele>7.0</ele><time>2026-04-04T13:40:40Z</time></trkpt><trkpt lat="44.970405687065266" lon="11.87618180703068"><ele>7.0</ele><time>2026-04-04T13:40:42Z</time></trkpt><trkpt lat="44.97037187541624" lon="11.876297875603978"><ele>7.500000000000001</ele><time>2026-04-04T13:40:44Z</time></trkpt><trkpt lat="44.970318126337546" lon="11.876402490605399"><ele>8.0</ele><time>2026-04-04T13:40:46Z</time></trkpt><trkpt lat="44.97027180860245" lon="11.876517051721867"><ele>8.5</ele><time>2026-04-04T13:40:48Z</time></trkpt><trkpt lat="44.97023477932653" lon="11.87662733758799"><ele>9.0</ele><time>2026-04-04T13:40:50Z</time></trkpt><trkpt lat="44.970205352237556" lon="11.876732053679715"><ele>9.5</ele><time>2026-04-04T13:40:52Z</time></trkpt><trkpt lat="44.97017692735256" lon="11.876829946530608"><ele>10.0</ele><time>2026-04-04T13:40:54Z</time></trkpt><trkpt lat="44.97015277375997" lon="11.87692050588848"><ele>10.166666666666668</ele><time>2026-04-04T13:40:56Z</time></trkpt><trkpt lat="44.970126903746966" lon="11.877012854132"><ele>10.333333333333334</ele><time>2026-04-04T13:40:58Z</time></trkpt><trkpt lat="44.97010282646951" lon="11.877113945308857"><ele>10.5</ele><time>2026-04-04T13:41:00Z</time></trkpt><trkpt lat="44.97008955417059" lon="11.87720944881735"><ele>10.666666666666666</ele><time>2026-04-04T13:41:02Z</time></trkpt><trkpt lat="44.970089811829304" lon="11.877302873376614"><ele>10.833333333333332</ele><time>2026-04-04T13:41:04Z</time></trkpt><trkpt lat="44.97008871240618" lon="11.877432096178199"><ele>11.0</ele><time>2026-04-04T13:41:07Z</time></trkpt><trkpt lat="44.970102662011826" lon="11.87754231492102"><ele>10.8</ele><time>2026-04-04T13:41:09Z</time></trkpt><trkpt lat="44.970115973216714" lon="11.877680637951215"><ele>10.600000000000001</ele><time>2026-04-04T13:41:11Z</time></trkpt><trkpt lat="44.9701554263046" lon="11.877816863224325"><ele>10.4</ele><time>2026-04-04T13:41:13Z</time></trkpt><trkpt lat="44.970185599740944" lon="11.877959664130026"><ele>10.2</ele><time>2026-04-04T13:41:15Z</time></trkpt><trkpt lat="44.970227289200594" lon="11.878098705151153"><ele>10.0</ele><time>2026-04-04T13:41:17Z</time></trkpt><trkpt lat="44.9702606883024" lon="11.878231620900037"><ele>10.0</ele><time>2026-04-04T13:41:19Z</time></trkpt><trkpt lat="44.970306560603646" lon="11.878361003701364"><ele>10.0</ele><time>2026-04-04T13:41:21Z</time></trkpt><trkpt lat="44.97034641520695" lon="11.87849177218761"><ele>10.0</ele><time>2026-04-04T13:41:23Z</time></trkpt><trkpt lat="44.97038975697846" lon="11.87862268232481"><ele>10.0</ele><time>2026-04-04T13:41:25Z</time></trkpt><trkpt lat="44.97044634387003" lon="11.878745832739636"><ele>10.0</ele><time>2026-04-04T13:41:27Z</time></trkpt><trkpt lat="44.970499843218725" lon="11.878867065577147"><ele>9.2</ele><time>2026-04-04T13:41:29Z</time></trkpt><trkpt lat="44.970548030019906" lon="11.878992721104149"><ele>8.4</ele><time>2026-04-04T13:41:31Z</time></trkpt><trkpt lat="44.9706034054719" lon="11.879113817706017"><ele>7.6</ele><time>2026-04-04T13:41:33Z</time></trkpt><trkpt lat="44.97065331888607" lon="11.879235258337227"><ele>6.8</ele><time>2026-04-04T13:41:35Z</time></trkpt><trkpt lat="44.97070549708066" lon="11.879356407961048"><ele>6.0</ele><time>2026-04-04T13:41:37Z</time></trkpt><trkpt lat="44.97075629853755" lon="11.87947070302623"><ele>5.6</ele><time>2026-04-04T13:41:39Z</time></trkpt><trkpt lat="44.970801628902564" lon="11.879583890264252"><ele>5.199999999999999</ele><time>2026-04-04T13:41:41Z</time></trkpt><trkpt lat="44.97085631607359" lon="11.879701887915713"><ele>4.800000000000001</ele><time>2026-04-04T13:41:43Z</time></trkpt><trkpt lat="44.970909056526125" lon="11.879827939654458"><ele>4.4</ele><time>2026-04-04T13:41:45Z</time></trkpt><trkpt lat="44.970959519788686" lon="11.87995646187"><ele>4.0</ele><time>2026-04-04T13:41:47Z</time></trkpt><trkpt lat="44.97101650103693" lon="11.880080713767343"><ele>4.2</ele><time>2026-04-04T13:41:49Z</time></trkpt><trkpt lat="44.97107164843482" lon="11.880205215473845"><ele>4.4</ele><time>2026-04-04T13:41:51Z</time></trkpt><trkpt lat="44.971124006814" lon="11.880325238199527"><ele>4.6</ele><time>2026-04-04T13:41:53Z</time></trkpt><trkpt lat="44.97117687436243" lon="11.880450805931888"><ele>4.8</ele><time>2026-04-04T13:41:55Z</time></trkpt><trkpt lat="44.97123419388749" lon="11.880569267324416"><ele>5.0</ele><time>2026-04-04T13:41:57Z</time></trkpt><trkpt lat="44.97128239925482" lon="11.88068210421776"><ele>5.0</ele><time>2026-04-04T13:41:59Z</time></trkpt><trkpt lat="44.971329489172014" lon="11.880792096763091"><ele>5.0</ele><time>2026-04-04T13:42:01Z</time></trkpt><trkpt lat="44.97137843170662" lon="11.88089934883373"><ele>5.0</ele><time>2026-04-04T13:42:03Z</time></trkpt><trkpt lat="44.97141925701969" lon="11.881003114724239"><ele>5.0</ele><time>2026-04-04T13:42:05Z</time></trkpt><trkpt lat="44.971466506083004" lon="11.88109860996257"><ele>5.0</ele><time>2026-04-04T13:42:07Z</time></trkpt><trkpt lat="44.971510526744076" lon="11.881214318159685"><ele>5.0</ele><time>2026-04-04T13:42:09Z</time></trkpt><trkpt lat="44.97155908406861" lon="11.881324113563167"><ele>4.8</ele><time>2026-04-04T13:42:11Z</time></trkpt><trkpt lat="44.97160761262605" lon="11.881425621079572"><ele>4.6</ele><time>2026-04-04T13:42:13Z</time></trkpt><trkpt lat="44.971651183228296" lon="11.88152842896162"><ele>4.4</ele><time>2026-04-04T13:42:15Z</time></trkpt><trkpt lat="44.97170017485135" lon="11.881631054998927"><ele>4.2</ele><time>2026-04-04T13:42:17Z</time></trkpt><trkpt lat="44.97175138045754" lon="11.881755555972209"><ele>4.0</ele><time>2026-04-04T13:42:19Z</time></trkpt><trkpt lat="44.971801731117225" lon="11.881881464459928"><ele>3.8000000000000003</ele><time>2026-04-04T13:42:21Z</time></trkpt><trkpt lat="44.97186063765589" lon="11.881999165217591"><ele>3.6000000000000005</ele><time>2026-04-04T13:42:23Z</time></trkpt><trkpt lat="44.97190780913225" lon="11.882113909162179"><ele>3.4</ele><time>2026-04-04T13:42:25Z</time></trkpt><trkpt lat="44.97195598121795" lon="11.882240604825512"><ele>3.2</ele><time>2026-04-04T13:42:27Z</time></trkpt><trkpt lat="44.972009564369706" lon="11.882364598842445"><ele>3.0</ele><time>2026-04-04T13:42:29Z</time></trkpt><trkpt lat="44.97206437217066" lon="11.882482077582644"><ele>3.0</ele><time>2026-04-04T13:42:31Z</time></trkpt><trkpt lat="44.972113917954445" lon="11.882591936605627"><ele>3.0</ele><time>2026-04-04T13:42:33Z</time></trkpt><trkpt lat="44.97216437145359" lon="11.882699871438602"><ele>3.0</ele><time>2026-04-04T13:42:35Z</time></trkpt><trkpt lat="44.972208074683905" lon="11.882809539157908"><ele>3.0</ele><time>2026-04-04T13:42:37Z</time></trkpt><trkpt lat="44.972255238833846" lon="11.882914102508503"><ele>3.0</ele><time>2026-04-04T13:42:39Z</time></trkpt><trkpt lat="44.9723062204228" lon="11.883005471023324"><ele>3.0</ele><time>2026-04-04T13:42:41Z</time></trkpt><trkpt lat="44.97233691232451" lon="11.883105747005912"><ele>3.0</ele><time>2026-04-04T13:42:43Z</time></trkpt><trkpt lat="44.97235341355955" lon="11.883230580890219"><ele>3.0</ele><time>2026-04-04T13:42:45Z</time></trkpt><trkpt lat="44.97236983193805" lon="11.883415698932435"><ele>3.0</ele><time>2026-04-04T13:42:47Z</time></trkpt><trkpt lat="44.972357772929115" lon="11.883528030298141"><ele>3.0</ele><time>2026-04-04T13:42:48Z</time></trkpt><trkpt lat="44.97233615486511" lon="11.883650004280197"><ele>3.0</ele><time>2026-04-04T13:42:49Z</time></trkpt><trkpt lat="44.97229433150291" lon="11.883779201760438"><ele>3.0</ele><time>2026-04-04T13:42:50Z</time></trkpt><trkpt lat="44.972241917696245" lon="11.883910510541945"><ele>3.0</ele><time>2026-04-04T13:42:51Z</time></trkpt><trkpt lat="44.97217818134447" lon="11.884030069059547"><ele>3.0</ele><time>2026-04-04T13:42:52Z</time></trkpt><trkpt lat="44.972109327021435" lon="11.884141748324312"><ele>3.0</ele><time>2026-04-04T13:42:53Z</time></trkpt><trkpt lat="44.97204335682578" lon="11.884246993689171"><ele>3.0</ele><time>2026-04-04T13:42:54Z</time></trkpt><trkpt lat="44.97198270948272" lon="11.884353487988456"><ele>2.8333333333333335</ele><time>2026-04-04T13:42:55Z</time></trkpt><trkpt lat="44.971927195839115" lon="11.884460360284859"><ele>2.6666666666666665</ele><time>2026-04-04T13:42:56Z</time></trkpt><trkpt lat="44.97186968588632" lon="11.884560851211837"><ele>2.5</ele><time>2026-04-04T13:42:57Z</time></trkpt><trkpt lat="44.97179210392487" lon="11.884633456030592"><ele>2.333333333333333</ele><time>2026-04-04T13:42:58Z</time></trkpt><trkpt lat="44.971739284839366" lon="11.884728559770984"><ele>2.1666666666666665</ele><time>2026-04-04T13:42:59Z</time></trkpt><trkpt lat="44.971687570476355" lon="11.884821674737504"><ele>2.0</ele><time>2026-04-04T13:43:00Z</time></trkpt><trkpt lat="44.97163813676701" lon="11.884910683289387"><ele>1.9999999999999998</ele><time>2026-04-04T13:43:01Z</time></trkpt><trkpt lat="44.97160160032111" lon="11.885010699262983"><ele>2.0</ele><time>2026-04-04T13:43:02Z</time></trkpt><trkpt lat="44.971557185547645" lon="11.885091345593267"><ele>2.0</ele><time>2026-04-04T13:43:03Z</time></trkpt><trkpt lat="44.9715009843244" lon="11.8851576344397"><ele>2.0</ele><time>2026-04-04T13:43:04Z</time></trkpt><trkpt lat="44.97145802412582" lon="11.885234986848609"><ele>1.9999999999999998</ele><time>2026-04-04T13:43:05Z</time></trkpt><trkpt lat="44.971378579245496" lon="11.885378032186724"><ele>2.0</ele><time>2026-04-04T13:43:07Z</time></trkpt><trkpt lat="44.97130619694032" lon="11.885508360622007"><ele>2.0</ele><time>2026-04-04T13:43:09Z</time></trkpt><trkpt lat="44.97123410458566" lon="11.885638167724736"><ele>2.0</ele><time>2026-04-04T13:43:11Z</time></trkpt><trkpt lat="44.97116898506305" lon="11.88575541944045"><ele>2.0</ele><time>2026-04-04T13:43:13Z</time></trkpt><trkpt lat="44.97110612869401" lon="11.885868596128404"><ele>2.0</ele><time>2026-04-04T13:43:15Z</time></trkpt><trkpt lat="44.97104236258677" lon="11.885983410751333"><ele>2.0</ele><time>2026-04-04T13:43:17Z</time></trkpt><trkpt lat="44.970977952312516" lon="11.886102146995707"><ele>2.0</ele><time>2026-04-04T13:43:19Z</time></trkpt><trkpt lat="44.97091930950656" lon="11.886214312324956"><ele>2.0</ele><time>2026-04-04T13:43:20.999Z</time></trkpt><trkpt lat="44.9708605029877" lon="11.886327967660868"><ele>2.0</ele><time>2026-04-04T13:43:22.999Z</time></trkpt><trkpt lat="44.97080403309263" lon="11.886435343952744"><ele>2.0</ele><time>2026-04-04T13:43:24.999Z</time></trkpt><trkpt lat="44.97075262759682" lon="11.886529745781488"><ele>2.0</ele><time>2026-04-04T13:43:26.999Z</time></trkpt><trkpt lat="44.970717336080426" lon="11.886629601075724"><ele>1.9999999999999998</ele><time>2026-04-04T13:43:28.999Z</time></trkpt><trkpt lat="44.97065559845005" lon="11.886727811860796"><ele>2.0</ele><time>2026-04-04T13:43:30.999Z</time></trkpt><trkpt lat="44.970599996538425" lon="11.886824011260796"><ele>2.0</ele><time>2026-04-04T13:43:32.999Z</time></trkpt><trkpt lat="44.970544137388465" lon="11.88690737801159"><ele>2.0</ele><time>2026-04-04T13:43:34.999Z</time></trkpt><trkpt lat="44.97050969355513" lon="11.887005138089716"><ele>1.9999999999999998</ele><time>2026-04-04T13:43:37Z</time></trkpt><trkpt lat="44.97046110581863" lon="11.887081003623898"><ele>2.0</ele><time>2026-04-04T13:43:39Z</time></trkpt><trkpt lat="44.97041815912132" lon="11.887171323674773"><ele>1.9999999999999998</ele><time>2026-04-04T13:43:41Z</time></trkpt><trkpt lat="44.97036163718941" lon="11.887272417269358"><ele>2.0</ele><time>2026-04-04T13:43:43Z</time></trkpt><trkpt lat="44.97030636365291" lon="11.88736847114147"><ele>2.0</ele><time>2026-04-04T13:43:45Z</time></trkpt><trkpt lat="44.970259687915956" lon="11.887460119607116"><ele>2.0</ele><time>2026-04-04T13:43:47Z</time></trkpt><trkpt lat="44.970212331898665" lon="11.887545615538693"><ele>1.9999999999999998</ele><time>2026-04-04T13:43:49Z</time></trkpt><trkpt lat="44.97016747547581" lon="11.887626317955968"><ele>2.0</ele><time>2026-04-04T13:43:51Z</time></trkpt><trkpt lat="44.97010139647233" lon="11.887670318546496"><ele>2.2</ele><time>2026-04-04T13:43:53Z</time></trkpt><trkpt lat="44.97003933126118" lon="11.887724116463529"><ele>2.4000000000000004</ele><time>2026-04-04T13:43:55Z</time></trkpt><trkpt lat="44.96997988463334" lon="11.887786224071723"><ele>2.5999999999999996</ele><time>2026-04-04T13:43:57Z</time></trkpt><trkpt lat="44.969921949541956" lon="11.887830208740894"><ele>2.8</ele><time>2026-04-04T13:43:59Z</time></trkpt><trkpt lat="44.969847698344694" lon="11.887882731342746"><ele>3.0</ele><time>2026-04-04T13:44:02Z</time></trkpt><trkpt lat="44.969878826104285" lon="11.888117015650625"><ele>2.8571428571428568</ele><time>2026-04-04T13:44:04Z</time></trkpt><trkpt lat="44.96989487648929" lon="11.888233858459662"><ele>2.7142857142857144</ele><time>2026-04-04T13:44:06Z</time></trkpt><trkpt lat="44.96990721176212" lon="11.888341989394846"><ele>2.571428571428571</ele><time>2026-04-04T13:44:08Z</time></trkpt><trkpt lat="44.96991791964379" lon="11.888446804013919"><ele>2.4285714285714284</ele><time>2026-04-04T13:44:10Z</time></trkpt><trkpt lat="44.96993216060343" lon="11.88855243066289"><ele>2.2857142857142856</ele><time>2026-04-04T13:44:12Z</time></trkpt><trkpt lat="44.969945908325016" lon="11.888647108261837"><ele>2.142857142857143</ele><time>2026-04-04T13:44:14Z</time></trkpt><trkpt lat="44.96996058489726" lon="11.888737079145704"><ele>2.0</ele><time>2026-04-04T13:44:16Z</time></trkpt><trkpt lat="44.96997414433925" lon="11.888826375953926"><ele>1.9999999999999998</ele><time>2026-04-04T13:44:18Z</time></trkpt><trkpt lat="44.96998286389324" lon="11.888920499059402"><ele>2.0</ele><time>2026-04-04T13:44:20Z</time></trkpt><trkpt lat="44.96999255255951" lon="11.88901287374255"><ele>2.0</ele><time>2026-04-04T13:44:22Z</time></trkpt><trkpt lat="44.97000551418403" lon="11.889145485628392"><ele>2.0</ele><time>2026-04-04T13:44:25Z</time></trkpt><trkpt lat="44.970022413686756" lon="11.88927160573033"><ele>1.9999999999999998</ele><time>2026-04-04T13:44:28Z</time></trkpt><trkpt lat="44.97003670822012" lon="11.88939235779242"><ele>2.0</ele><time>2026-04-04T13:44:31Z</time></trkpt><trkpt lat="44.97003643214847" lon="11.889510312139818"><ele>2.1666666666666665</ele><time>2026-04-04T13:44:34Z</time></trkpt><trkpt lat="44.97006176285432" lon="11.889619500324176"><ele>2.333333333333333</ele><time>2026-04-04T13:44:37Z</time></trkpt><trkpt lat="44.970056516961094" lon="11.889726143228888"><ele>2.5</ele><time>2026-04-04T13:44:40Z</time></trkpt><trkpt lat="44.970087483368715" lon="11.889822974647922"><ele>2.6666666666666665</ele><time>2026-04-04T13:44:43Z</time></trkpt><trkpt lat="44.97009710926603" lon="11.889920317198207"><ele>2.8333333333333335</ele><time>2026-04-04T13:44:46Z</time></trkpt><trkpt lat="44.970123555518974" lon="11.890043552512951"><ele>3.0</ele><time>2026-04-04T13:44:50Z</time></trkpt><trkpt lat="44.97013984797691" lon="11.890173336752817"><ele>2.9999999999999996</ele><time>2026-04-04T13:44:53Z</time></trkpt><trkpt lat="44.97016988355309" lon="11.890280713160573"><ele>3.0</ele><time>2026-04-04T13:44:55Z</time></trkpt><trkpt lat="44.97019711472984" lon="11.890373609879084"><ele>3.0</ele><time>2026-04-04T13:44:57Z</time></trkpt><trkpt lat="44.97021760242667" lon="11.890475342433053"><ele>3.0</ele><time>2026-04-04T13:44:59Z</time></trkpt><trkpt lat="44.97024960176899" lon="11.890566761464402"><ele>3.0</ele><time>2026-04-04T13:45:01Z</time></trkpt><trkpt lat="44.97027681771126" lon="11.890655885134757"><ele>2.9999999999999996</ele><time>2026-04-04T13:45:03Z</time></trkpt><trkpt lat="44.97031000479324" lon="11.890739936964255"><ele>3.0</ele><time>2026-04-04T13:45:05Z</time></trkpt><trkpt lat="44.97033214760955" lon="11.8908322364811"><ele>2.9999999999999996</ele><time>2026-04-04T13:45:07Z</time></trkpt><trkpt lat="44.970337635711566" lon="11.890921208172411"><ele>3.0</ele><time>2026-04-04T13:45:09Z</time></trkpt><trkpt lat="44.97034264168966" lon="11.891047316572516"><ele>3.0</ele><time>2026-04-04T13:45:11.999Z</time></trkpt><trkpt lat="44.97030409194329" lon="11.891130928059722"><ele>3.0</ele><time>2026-04-04T13:45:13.999Z</time></trkpt><trkpt lat="44.970244368888046" lon="11.89116909641613"><ele>3.0</ele><time>2026-04-04T13:45:15.999Z</time></trkpt><trkpt lat="44.970183946898175" lon="11.891210160252532"><ele>2.9999999999999996</ele><time>2026-04-04T13:45:17.999Z</time></trkpt><trkpt lat="44.97011121368508" lon="11.891284726912664"><ele>3.0</ele><time>2026-04-04T13:45:19.999Z</time></trkpt><trkpt lat="44.97003845699027" lon="11.89133434385901"><ele>2.6666666666666665</ele><time>2026-04-04T13:45:21.999Z</time></trkpt><trkpt lat="44.96996933681051" lon="11.89137072834822"><ele>2.3333333333333335</ele><time>2026-04-04T13:45:23.999Z</time></trkpt><trkpt lat="44.96990388246295" lon="11.891422078752486"><ele>2.0</ele><time>2026-04-04T13:45:25.999Z</time></trkpt><trkpt lat="44.96982312049032" lon="11.891470262610182"><ele>1.6666666666666665</ele><time>2026-04-04T13:45:27.999Z</time></trkpt><trkpt lat="44.96974658042755" lon="11.891522018568205"><ele>1.3333333333333333</ele><time>2026-04-04T13:45:29.999Z</time></trkpt><trkpt lat="44.9696723160392" lon="11.891570831932448"><ele>1.0</ele><time>2026-04-04T13:45:31.999Z</time></trkpt><trkpt lat="44.96960163879688" lon="11.891612626247328"><ele>0.9999999999999999</ele><time>2026-04-04T13:45:33.999Z</time></trkpt><trkpt lat="44.96954209215676" lon="11.891662804822309"><ele>1.0</ele><time>2026-04-04T13:45:35.999Z</time></trkpt><trkpt lat="44.96947286732997" lon="11.891706265282803"><ele>1.0</ele><time>2026-04-04T13:45:37.999Z</time></trkpt><trkpt lat="44.969392433053656" lon="11.891766846467517"><ele>1.0</ele><time>2026-04-04T13:45:39.999Z</time></trkpt><trkpt lat="44.96931944668114" lon="11.89180928706625"><ele>0.9999999999999999</ele><time>2026-04-04T13:45:41.999Z</time></trkpt><trkpt lat="44.96924902434435" lon="11.89185110580037"><ele>1.0</ele><time>2026-04-04T13:45:44Z</time></trkpt><trkpt lat="44.969179623685626" lon="11.891875565980184"><ele>0.9999999999999999</ele><time>2026-04-04T13:45:46Z</time></trkpt><trkpt lat="44.969116195794626" lon="11.891866453718206"><ele>1.0</ele><time>2026-04-04T13:45:48Z</time></trkpt><trkpt lat="44.96905252898675" lon="11.891840031562653"><ele>1.0</ele><time>2026-04-04T13:45:50Z</time></trkpt><trkpt lat="44.968972459923805" lon="11.89178149029598"><ele>1.0</ele><time>2026-04-04T13:45:52Z</time></trkpt><trkpt lat="44.96888828898451" lon="11.891741634063655"><ele>0.9999999999999999</ele><time>2026-04-04T13:45:54Z</time></trkpt><trkpt lat="44.968815168563346" lon="11.891724975919276"><ele>1.0</ele><time>2026-04-04T13:45:56Z</time></trkpt><trkpt lat="44.968750778880874" lon="11.891677950329676"><ele>1.0</ele><time>2026-04-04T13:45:58Z</time></trkpt><trkpt lat="44.968670734496236" lon="11.891642279030222"><ele>1.0</ele><time>2026-04-04T13:46:01Z</time></trkpt><trkpt lat="44.9686323921664" lon="11.891815566922729"><ele>1.0</ele><time>2026-04-04T13:46:04Z</time></trkpt><trkpt lat="44.968631969816144" lon="11.891919177814204"><ele>1.0</ele><time>2026-04-04T13:46:06Z</time></trkpt><trkpt lat="44.968605428591594" lon="11.892025116809496"><ele>1.0</ele><time>2026-04-04T13:46:08Z</time></trkpt><trkpt lat="44.96858130739664" lon="11.892157686595432"><ele>0.9999999999999999</ele><time>2026-04-04T13:46:10Z</time></trkpt><trkpt lat="44.968563867767614" lon="11.892292911405884"><ele>1.0</ele><time>2026-04-04T13:46:12Z</time></trkpt><trkpt lat="44.968538722440286" lon="11.892413815437898"><ele>1.0</ele><time>2026-04-04T13:46:14Z</time></trkpt><trkpt lat="44.96850893407329" lon="11.892519308078795"><ele>1.0</ele><time>2026-04-04T13:46:16Z</time></trkpt><trkpt lat="44.96848500538535" lon="11.892628026638556"><ele>0.9999999999999999</ele><time>2026-04-04T13:46:18Z</time></trkpt><trkpt lat="44.96843245867577" lon="11.892712535672638"><ele>1.0</ele><time>2026-04-04T13:46:20Z</time></trkpt><trkpt lat="44.96840971042218" lon="11.89280858867447"><ele>0.8333333333333333</ele><time>2026-04-04T13:46:22Z</time></trkpt><trkpt lat="44.968382457029854" lon="11.892923615754258"><ele>0.6666666666666666</ele><time>2026-04-04T13:46:24Z</time></trkpt><trkpt lat="44.96835607150981" lon="11.893034979746787"><ele>0.5</ele><time>2026-04-04T13:46:26Z</time></trkpt><trkpt lat="44.96833115363967" lon="11.893140149386316"><ele>0.3333333333333333</ele><time>2026-04-04T13:46:28Z</time></trkpt><trkpt lat="44.968306149957655" lon="11.893245681212493"><ele>0.16666666666666666</ele><time>2026-04-04T13:46:30Z</time></trkpt><trkpt lat="44.96827586155054" lon="11.89337351892374"><ele>0.0</ele><time>2026-04-04T13:46:32Z</time></trkpt><trkpt lat="44.96826067020526" lon="11.89350629698245"><ele>0.4</ele><time>2026-04-04T13:46:34Z</time></trkpt><trkpt lat="44.968232086614506" lon="11.893625875793695"><ele>0.8</ele><time>2026-04-04T13:46:36Z</time></trkpt><trkpt lat="44.968197294001946" lon="11.893737411280343"><ele>1.2000000000000002</ele><time>2026-04-04T13:46:38Z</time></trkpt><trkpt lat="44.96816587688265" lon="11.893868828081265"><ele>1.6</ele><time>2026-04-04T13:46:40Z</time></trkpt><trkpt lat="44.968129564974234" lon="11.893987313008381"><ele>2.0</ele><time>2026-04-04T13:46:42Z</time></trkpt><trkpt lat="44.96809699485286" lon="11.894119251134578"><ele>2.0</ele><time>2026-04-04T13:46:44Z</time></trkpt><trkpt lat="44.9680581413668" lon="11.894246468984221"><ele>2.0</ele><time>2026-04-04T13:46:46Z</time></trkpt><trkpt lat="44.96802854952495" lon="11.894380441836798"><ele>2.0</ele><time>2026-04-04T13:46:48Z</time></trkpt><trkpt lat="44.96798811101734" lon="11.894507689190924"><ele>2.0</ele><time>2026-04-04T13:46:50Z</time></trkpt><trkpt lat="44.96795477718809" lon="11.894634765946016"><ele>2.0</ele><time>2026-04-04T13:46:52Z</time></trkpt><trkpt lat="44.96792381603534" lon="11.894758973971154"><ele>1.9999999999999998</ele><time>2026-04-04T13:46:54Z</time></trkpt><trkpt lat="44.967899140425075" lon="11.894868923596245"><ele>2.0</ele><time>2026-04-04T13:46:56Z</time></trkpt><trkpt lat="44.96786867748591" lon="11.894973879745368"><ele>2.0</ele><time>2026-04-04T13:46:58Z</time></trkpt><trkpt lat="44.96782134002712" lon="11.89509054427089"><ele>2.0</ele><time>2026-04-04T13:47:00Z</time></trkpt><trkpt lat="44.967777541552756" lon="11.89521056987023"><ele>1.9999999999999998</ele><time>2026-04-04T13:47:02Z</time></trkpt><trkpt lat="44.96773630407784" lon="11.895318193010114"><ele>2.0</ele><time>2026-04-04T13:47:04Z</time></trkpt><trkpt lat="44.967692723364706" lon="11.89541239184043"><ele>1.9999999999999998</ele><time>2026-04-04T13:47:06Z</time></trkpt><trkpt lat="44.96765719879395" lon="11.895505352326808"><ele>2.0</ele><time>2026-04-04T13:47:08Z</time></trkpt><trkpt lat="44.96761838400991" lon="11.895592370687934"><ele>2.0</ele><time>2026-04-04T13:47:10Z</time></trkpt><trkpt lat="44.96756803520903" lon="11.895702516090344"><ele>2.0</ele><time>2026-04-04T13:47:12Z</time></trkpt><trkpt lat="44.96752235376783" lon="11.89582128667074"><ele>1.9999999999999998</ele><time>2026-04-04T13:47:14Z</time></trkpt><trkpt lat="44.967482843976676" lon="11.895935370211111"><ele>2.0</ele><time>2026-04-04T13:47:16Z</time></trkpt><trkpt lat="44.96744017091487" lon="11.896045850761409"><ele>2.2857142857142856</ele><time>2026-04-04T13:47:18Z</time></trkpt><trkpt lat="44.96739793054294" lon="11.896139147587835"><ele>2.571428571428571</ele><time>2026-04-04T13:47:20Z</time></trkpt><trkpt lat="44.967359830670816" lon="11.896233745637044"><ele>2.8571428571428568</ele><time>2026-04-04T13:47:22Z</time></trkpt><trkpt lat="44.967364532648325" lon="11.896351864271404"><ele>3.142857142857143</ele><time>2026-04-04T13:47:24.999Z</time></trkpt><trkpt lat="44.96738384534772" lon="11.89644391127373"><ele>3.428571428571428</ele><time>2026-04-04T13:47:27.999Z</time></trkpt><trkpt lat="44.96740750043406" lon="11.896527881864516"><ele>3.714285714285714</ele><time>2026-04-04T14:22:45.999Z</time></trkpt><trkpt lat="44.96741178135207" lon="11.896628816322401"><ele>4.0</ele><time>2026-04-04T14:22:54.999Z</time></trkpt><trkpt lat="44.967423967281015" lon="11.896725571769764"><ele>3.6666666666666665</ele><time>2026-04-04T14:23:03.999Z</time></trkpt><trkpt lat="44.967426376480084" lon="11.896817496973862"><ele>3.333333333333333</ele><time>2026-04-04T14:23:13.999Z</time></trkpt><trkpt lat="44.96745473494402" lon="11.896968771484199"><ele>3.0</ele><time>2026-04-04T14:24:08Z</time></trkpt><trkpt lat="44.96743535417305" lon="11.897066070206362"><ele>2.6666666666666665</ele><time>2026-04-04T14:24:11Z</time></trkpt><trkpt lat="44.967378938245325" lon="11.897139010012312"><ele>2.333333333333333</ele><time>2026-04-04T14:24:14Z</time></trkpt><trkpt lat="44.96732254625995" lon="11.897212788203383"><ele>2.0</ele><time>2026-04-04T14:24:18Z</time></trkpt><trkpt lat="44.96733464157836" lon="11.89733507369041"><ele>1.9999999999999998</ele><time>2026-04-04T14:24:21Z</time></trkpt><trkpt lat="44.96733495150349" lon="11.89744085208434"><ele>2.0</ele><time>2026-04-04T14:24:23Z</time></trkpt><trkpt lat="44.967334981474586" lon="11.89756408151347"><ele>2.0</ele><time>2026-04-04T14:24:25Z</time></trkpt><trkpt lat="44.96734355097034" lon="11.897672814187958"><ele>2.0</ele><time>2026-04-04T14:24:27Z</time></trkpt><trkpt lat="44.96734382868054" lon="11.897774586725093"><ele>1.9999999999999998</ele><time>2026-04-04T14:24:29Z</time></trkpt><trkpt lat="44.967340268335256" lon="11.89787590066604"><ele>2.0</ele><time>2026-04-04T14:24:31Z</time></trkpt><trkpt lat="44.967354040165674" lon="11.897998420883592"><ele>1.9999999999999998</ele><time>2026-04-04T14:24:33Z</time></trkpt><trkpt lat="44.967363996276994" lon="11.898119474998895"><ele>2.0</ele><time>2026-04-04T14:24:35Z</time></trkpt><trkpt lat="44.967364787251675" lon="11.898236455986012"><ele>2.0</ele><time>2026-04-04T14:24:37Z</time></trkpt><trkpt lat="44.96737486035453" lon="11.898345253811396"><ele>2.0</ele><time>2026-04-04T14:24:39Z</time></trkpt><trkpt lat="44.96736979865248" lon="11.8984514200144"><ele>1.9999999999999998</ele><time>2026-04-04T14:24:41Z</time></trkpt><trkpt lat="44.96734802996276" lon="11.898539418989866"><ele>2.0</ele><time>2026-04-04T14:24:43Z</time></trkpt><trkpt lat="44.967341160298396" lon="11.898660347667896"><ele>2.1666666666666665</ele><time>2026-04-04T14:24:44.999Z</time></trkpt><trkpt lat="44.96733000904352" lon="11.898781532936175"><ele>2.333333333333333</ele><time>2026-04-04T14:24:46.999Z</time></trkpt><trkpt lat="44.967313116400675" lon="11.89888070638371"><ele>2.5</ele><time>2026-04-04T14:24:48.999Z</time></trkpt><trkpt lat="44.96728982812336" lon="11.898986466601803"><ele>2.6666666666666665</ele><time>2026-04-04T14:24:50.999Z</time></trkpt><trkpt lat="44.967262275579685" lon="11.899116445745399"><ele>2.8333333333333335</ele><time>2026-04-04T14:24:52.999Z</time></trkpt><trkpt lat="44.96723353288472" lon="11.899239931845353"><ele>3.0</ele><time>2026-04-04T14:24:54.999Z</time></trkpt><trkpt lat="44.96720517433503" lon="11.899371154670801"><ele>2.6</ele><time>2026-04-04T14:24:56.999Z</time></trkpt><trkpt lat="44.96716743736548" lon="11.899494889573555"><ele>2.1999999999999997</ele><time>2026-04-04T14:24:58.999Z</time></trkpt><trkpt lat="44.96714695996272" lon="11.899628791357433"><ele>1.8</ele><time>2026-04-04T14:25:00.999Z</time></trkpt><trkpt lat="44.96711049571652" lon="11.8997562840308"><ele>1.4</ele><time>2026-04-04T14:25:02.999Z</time></trkpt><trkpt lat="44.96707923793643" lon="11.899884095069625"><ele>1.0</ele><time>2026-04-04T14:25:04.999Z</time></trkpt><trkpt lat="44.967043857763144" lon="11.900016004231022"><ele>1.0</ele><time>2026-04-04T14:25:06.999Z</time></trkpt><trkpt lat="44.96700674097417" lon="11.90014971758391"><ele>1.0</ele><time>2026-04-04T14:25:08.999Z</time></trkpt><trkpt lat="44.9669719844686" lon="11.900281116852604"><ele>1.0</ele><time>2026-04-04T14:25:10.999Z</time></trkpt><trkpt lat="44.96693133251275" lon="11.900412045643119"><ele>1.0</ele><time>2026-04-04T14:25:12.999Z</time></trkpt><trkpt lat="44.96689489749526" lon="11.900539701357289"><ele>1.0</ele><time>2026-04-04T14:25:14.999Z</time></trkpt><trkpt lat="44.96685947065879" lon="11.900676204835872"><ele>1.0</ele><time>2026-04-04T14:25:16.999Z</time></trkpt><trkpt lat="44.96682153549906" lon="11.900803539562476"><ele>1.0</ele><time>2026-04-04T14:25:18.999Z</time></trkpt><trkpt lat="44.96678197729965" lon="11.90093594017057"><ele>1.0</ele><time>2026-04-04T14:25:20.999Z</time></trkpt><trkpt lat="44.96674893517743" lon="11.901064597518374"><ele>1.0</ele><time>2026-04-04T14:25:22.999Z</time></trkpt><trkpt lat="44.966726903056475" lon="11.901202760117155"><ele>1.0</ele><time>2026-04-04T14:25:24.999Z</time></trkpt><trkpt lat="44.96671854223914" lon="11.90134054321411"><ele>1.0</ele><time>2026-04-04T14:25:26.999Z</time></trkpt><trkpt lat="44.96671565038811" lon="11.901480248536458"><ele>1.0</ele><time>2026-04-04T14:25:28.999Z</time></trkpt><trkpt lat="44.96672795463893" lon="11.901620625849683"><ele>1.0</ele><time>2026-04-04T14:25:30.999Z</time></trkpt><trkpt lat="44.966732431034636" lon="11.901764654620552"><ele>1.0</ele><time>2026-04-04T14:25:32.999Z</time></trkpt><trkpt lat="44.966743029468944" lon="11.901902620723467"><ele>1.0</ele><time>2026-04-04T14:25:35Z</time></trkpt><trkpt lat="44.96675187051051" lon="11.90204123656734"><ele>1.0</ele><time>2026-04-04T14:25:37Z</time></trkpt><trkpt lat="44.96676171822084" lon="11.902181938687956"><ele>1.0</ele><time>2026-04-04T14:25:39Z</time></trkpt><trkpt lat="44.96677153886511" lon="11.902323611085833"><ele>1.0</ele><time>2026-04-04T14:25:41Z</time></trkpt><trkpt lat="44.96678238921334" lon="11.902461235112984"><ele>1.0</ele><time>2026-04-04T14:25:43Z</time></trkpt><trkpt lat="44.966789445041634" lon="11.902602663693619"><ele>1.0</ele><time>2026-04-04T14:25:45Z</time></trkpt><trkpt lat="44.96680226487214" lon="11.902740690080785"><ele>1.2000000000000002</ele><time>2026-04-04T14:25:47Z</time></trkpt><trkpt lat="44.96681066915824" lon="11.902882492667082"><ele>1.4000000000000001</ele><time>2026-04-04T14:25:49Z</time></trkpt><trkpt lat="44.96681700940425" lon="11.903023155409585"><ele>1.6</ele><time>2026-04-04T14:25:51Z</time></trkpt><trkpt lat="44.96682538143651" lon="11.903166916863524"><ele>1.8</ele><time>2026-04-04T14:25:53Z</time></trkpt><trkpt lat="44.9668317179611" lon="11.903305421687872"><ele>2.0</ele><time>2026-04-04T14:25:55Z</time></trkpt><trkpt lat="44.96683627485507" lon="11.903447202965076"><ele>2.0</ele><time>2026-04-04T14:25:57Z</time></trkpt><trkpt lat="44.96683212917639" lon="11.903587694786566"><ele>2.0</ele><time>2026-04-04T14:25:59Z</time></trkpt><trkpt lat="44.96682630605642" lon="11.903728356111227"><ele>2.0</ele><time>2026-04-04T14:26:01Z</time></trkpt><trkpt lat="44.9668188911511" lon="11.90386951242284"><ele>2.0</ele><time>2026-04-04T14:26:03Z</time></trkpt><trkpt lat="44.96681175921303" lon="11.904009574560693"><ele>2.0</ele><time>2026-04-04T14:26:05Z</time></trkpt><trkpt lat="44.96680503357368" lon="11.90415093163459"><ele>1.6</ele><time>2026-04-04T14:26:07Z</time></trkpt><trkpt lat="44.96680097719649" lon="11.904293502069134"><ele>1.2000000000000002</ele><time>2026-04-04T14:26:09Z</time></trkpt><trkpt lat="44.96679220828767" lon="11.904438386928087"><ele>0.8</ele><time>2026-04-04T14:26:11Z</time></trkpt><trkpt lat="44.96678693239629" lon="11.904578382751643"><ele>0.4</ele><time>2026-04-04T14:26:13Z</time></trkpt><trkpt lat="44.96678025962598" lon="11.904719899644277"><ele>0.0</ele><time>2026-04-04T14:26:15Z</time></trkpt><trkpt lat="44.96677171266684" lon="11.904861981782693"><ele>0.0</ele><time>2026-04-04T14:26:17Z</time></trkpt><trkpt lat="44.9667640532301" lon="11.90499617515553"><ele>0.0</ele><time>2026-04-04T14:26:19Z</time></trkpt><trkpt lat="44.966758934426295" lon="11.905130942109292"><ele>0.0</ele><time>2026-04-04T14:26:21Z</time></trkpt><trkpt lat="44.96672075720936" lon="11.90525782362196"><ele>0.0</ele><time>2026-04-04T14:26:23Z</time></trkpt><trkpt lat="44.96669024199032" lon="11.905398416335865"><ele>0.0</ele><time>2026-04-04T14:26:25Z</time></trkpt><trkpt lat="44.966649300822105" lon="11.905527054317055"><ele>0.0</ele><time>2026-04-04T14:26:27Z</time></trkpt><trkpt lat="44.96660357801305" lon="11.905651001859214"><ele>0.0</ele><time>2026-04-04T14:26:29Z</time></trkpt><trkpt lat="44.966561891141936" lon="11.905785278164304"><ele>0.0</ele><time>2026-04-04T14:26:31Z</time></trkpt><trkpt lat="44.966513696516635" lon="11.905910586011336"><ele>0.0</ele><time>2026-04-04T14:26:33Z</time></trkpt><trkpt lat="44.96647585343014" lon="11.906041254578032"><ele>0.0</ele><time>2026-04-04T14:26:35Z</time></trkpt><trkpt lat="44.966432813488645" lon="11.906167985491992"><ele>0.0</ele><time>2026-04-04T14:26:37Z</time></trkpt><trkpt lat="44.9664028171004" lon="11.906300658958617"><ele>0.0</ele><time>2026-04-04T14:26:39Z</time></trkpt><trkpt lat="44.96637875786747" lon="11.90643879126789"><ele>0.0</ele><time>2026-04-04T14:26:41Z</time></trkpt><trkpt lat="44.96636675841299" lon="11.906578246504957"><ele>0.0</ele><time>2026-04-04T14:26:43Z</time></trkpt><trkpt lat="44.96636867709968" lon="11.906724031686972"><ele>0.0</ele><time>2026-04-04T14:26:45Z</time></trkpt><trkpt lat="44.966381911190766" lon="11.906861139068539"><ele>0.2</ele><time>2026-04-04T14:26:46.999Z</time></trkpt><trkpt lat="44.96638923337471" lon="11.906999543941229"><ele>0.4</ele><time>2026-04-04T14:26:48.999Z</time></trkpt><trkpt lat="44.966402703758774" lon="11.907136032692433"><ele>0.6000000000000001</ele><time>2026-04-04T14:26:50.999Z</time></trkpt><trkpt lat="44.96642688872584" lon="11.907269223117858"><ele>0.8</ele><time>2026-04-04T14:26:52.999Z</time></trkpt><trkpt lat="44.96644799631995" lon="11.907413434740036"><ele>1.0</ele><time>2026-04-04T14:26:54.999Z</time></trkpt><trkpt lat="44.96647481180551" lon="11.90754465765409"><ele>1.0</ele><time>2026-04-04T14:26:56.999Z</time></trkpt><trkpt lat="44.96649500126495" lon="11.907684522267902"><ele>1.0</ele><time>2026-04-04T14:26:58.999Z</time></trkpt><trkpt lat="44.966520935866" lon="11.907821806612764"><ele>1.0</ele><time>2026-04-04T14:27:00.999Z</time></trkpt><trkpt lat="44.966546437935655" lon="11.907959942779769"><ele>1.0</ele><time>2026-04-04T14:27:02.999Z</time></trkpt><trkpt lat="44.966555493642865" lon="11.908097050837885"><ele>1.0</ele><time>2026-04-04T14:27:04.999Z</time></trkpt><trkpt lat="44.96657592582996" lon="11.908226232853352"><ele>0.9999999999999999</ele><time>2026-04-04T14:27:06.999Z</time></trkpt><trkpt lat="44.96658138576278" lon="11.908352130553093"><ele>1.0</ele><time>2026-04-04T14:27:08.999Z</time></trkpt><trkpt lat="44.96656161450051" lon="11.90847447562347"><ele>1.0</ele><time>2026-04-04T14:27:10.999Z</time></trkpt><trkpt lat="44.96651515289975" lon="11.908570329070491"><ele>1.0</ele><time>2026-04-04T14:27:12.999Z</time></trkpt><trkpt lat="44.966456383783466" lon="11.908638944020353"><ele>0.9999999999999999</ele><time>2026-04-04T14:27:14.999Z</time></trkpt><trkpt lat="44.966387897339224" lon="11.908678959742328"><ele>1.0</ele><time>2026-04-04T14:27:16.999Z</time></trkpt><trkpt lat="44.966319933211786" lon="11.908702440059491"><ele>0.8</ele><time>2026-04-04T14:27:18.999Z</time></trkpt><trkpt lat="44.96623668944132" lon="11.908731591493067"><ele>0.6000000000000001</ele><time>2026-04-04T14:27:20.999Z</time></trkpt><trkpt lat="44.96614508275685" lon="11.908748671763913"><ele>0.4</ele><time>2026-04-04T14:27:22.999Z</time></trkpt><trkpt lat="44.96604913189208" lon="11.908765972388666"><ele>0.2</ele><time>2026-04-04T14:27:24.999Z</time></trkpt><trkpt lat="44.96595170064992" lon="11.908794967874694"><ele>0.0</ele><time>2026-04-04T14:27:26.999Z</time></trkpt><trkpt lat="44.965852685945244" lon="11.908817955689852"><ele>0.0</ele><time>2026-04-04T14:27:28.999Z</time></trkpt><trkpt lat="44.96575151311024" lon="11.908848185730339"><ele>0.0</ele><time>2026-04-04T14:27:30.999Z</time></trkpt><trkpt lat="44.96565432449918" lon="11.908876807107887"><ele>0.0</ele><time>2026-04-04T14:27:32.999Z</time></trkpt><trkpt lat="44.965556786168996" lon="11.90890717024991"><ele>0.0</ele><time>2026-04-04T14:27:34.999Z</time></trkpt><trkpt lat="44.965458980294905" lon="11.908932875780305"><ele>0.0</ele><time>2026-04-04T14:27:36.999Z</time></trkpt><trkpt lat="44.96535993977019" lon="11.908956954052597"><ele>0.0</ele><time>2026-04-04T14:27:38.999Z</time></trkpt><trkpt lat="44.96526059576707" lon="11.908990007280138"><ele>0.0</ele><time>2026-04-04T14:27:41Z</time></trkpt><trkpt lat="44.96515958855432" lon="11.909013944610429"><ele>0.0</ele><time>2026-04-04T14:27:43Z</time></trkpt><trkpt lat="44.9650598376928" lon="11.90904796607163"><ele>0.0</ele><time>2026-04-04T14:27:45Z</time></trkpt><trkpt lat="44.96496087425161" lon="11.909070274729839"><ele>0.0</ele><time>2026-04-04T14:27:47Z</time></trkpt><trkpt lat="44.964861385142335" lon="11.909093112918642"><ele>0.0</ele><time>2026-04-04T14:27:49Z</time></trkpt><trkpt lat="44.964763697735734" lon="11.909127241762288"><ele>0.0</ele><time>2026-04-04T14:27:51Z</time></trkpt><trkpt lat="44.96466358966902" lon="11.90915602602171"><ele>0.0</ele><time>2026-04-04T14:27:53Z</time></trkpt><trkpt lat="44.964565540371886" lon="11.909181123262984"><ele>0.0</ele><time>2026-04-04T14:27:55Z</time></trkpt><trkpt lat="44.964465931849084" lon="11.909207446758563"><ele>0.0</ele><time>2026-04-04T14:27:57Z</time></trkpt><trkpt lat="44.964365101041984" lon="11.909240299892714"><ele>0.0</ele><time>2026-04-04T14:27:59Z</time></trkpt><trkpt lat="44.964267348529006" lon="11.909264213659046"><ele>0.0</ele><time>2026-04-04T14:28:01Z</time></trkpt><trkpt lat="44.96416965061798" lon="11.909296540905896"><ele>0.0</ele><time>2026-04-04T14:28:03Z</time></trkpt><trkpt lat="44.96407217414249" lon="11.909324777607255"><ele>0.0</ele><time>2026-04-04T14:28:05Z</time></trkpt><trkpt lat="44.96397426611194" lon="11.909350249652382"><ele>0.0</ele><time>2026-04-04T14:28:07Z</time></trkpt><trkpt lat="44.96387533080797" lon="11.90937966901368"><ele>0.0</ele><time>2026-04-04T14:28:09Z</time></trkpt><trkpt lat="44.96377863762534" lon="11.909407878326284"><ele>0.0</ele><time>2026-04-04T14:28:11Z</time></trkpt><trkpt lat="44.963685565116634" lon="11.90943793714738"><ele>0.0</ele><time>2026-04-04T14:28:13Z</time></trkpt><trkpt lat="44.96360114462836" lon="11.909462241839602"><ele>0.0</ele><time>2026-04-04T14:28:15Z</time></trkpt><trkpt lat="44.9635207089593" lon="11.909491534414315"><ele>0.0</ele><time>2026-04-04T14:28:17Z</time></trkpt><trkpt lat="44.96344285096732" lon="11.909510522522934"><ele>0.0</ele><time>2026-04-04T14:28:19Z</time></trkpt><trkpt lat="44.96337167144967" lon="11.909532712559674"><ele>0.16666666666666666</ele><time>2026-04-04T14:28:21Z</time></trkpt><trkpt lat="44.963301885988926" lon="11.909551743753125"><ele>0.3333333333333333</ele><time>2026-04-04T14:28:23Z</time></trkpt><trkpt lat="44.96323626371243" lon="11.90956360167281"><ele>0.5</ele><time>2026-04-04T14:28:25Z</time></trkpt><trkpt lat="44.96314552650208" lon="11.909589013574493"><ele>0.6666666666666666</ele><time>2026-04-04T14:28:28Z</time></trkpt><trkpt lat="44.963062736183" lon="11.909612502606368"><ele>0.8333333333333333</ele><time>2026-04-04T14:28:31Z</time></trkpt><trkpt lat="44.96299107398962" lon="11.90964301064354"><ele>1.0</ele><time>2026-04-04T14:28:34Z</time></trkpt><trkpt lat="44.9629124444302" lon="11.909681307716424"><ele>0.9999999999999999</ele><time>2026-04-04T14:28:37Z</time></trkpt><trkpt lat="44.96284682275152" lon="11.909711765182882"><ele>1.0</ele><time>2026-04-04T14:28:40Z</time></trkpt><trkpt lat="44.962811024294986" lon="11.909822299157351"><ele>1.0</ele><time>2026-04-04T14:28:44Z</time></trkpt><trkpt lat="44.96283846771002" lon="11.909933378468503"><ele>1.0</ele><time>2026-04-04T14:28:46Z</time></trkpt><trkpt lat="44.96289624694691" lon="11.910048115686244"><ele>0.9999999999999999</ele><time>2026-04-04T14:28:48Z</time></trkpt><trkpt lat="44.96292764331698" lon="11.910178118072988"><ele>1.0</ele><time>2026-04-04T14:28:50Z</time></trkpt><trkpt lat="44.96297039684001" lon="11.91029304936911"><ele>0.9999999999999999</ele><time>2026-04-04T14:28:51.999Z</time></trkpt><trkpt lat="44.96299997361249" lon="11.910406079605089"><ele>1.0</ele><time>2026-04-04T14:28:53.999Z</time></trkpt><trkpt lat="44.96302599496181" lon="11.910518647859782"><ele>1.0</ele><time>2026-04-04T14:28:55.999Z</time></trkpt><trkpt lat="44.963054637197224" lon="11.910627232460293"><ele>1.0</ele><time>2026-04-04T14:28:57.999Z</time></trkpt><trkpt lat="44.96309037356915" lon="11.910730946538202"><ele>0.9999999999999999</ele><time>2026-04-04T14:28:59.999Z</time></trkpt><trkpt lat="44.963114866906196" lon="11.910836043667997"><ele>1.0</ele><time>2026-04-04T14:29:01.999Z</time></trkpt><trkpt lat="44.96314318072114" lon="11.910931988327384"><ele>0.9999999999999999</ele><time>2026-04-04T14:29:03.999Z</time></trkpt><trkpt lat="44.96309899217036" lon="11.911029775155527"><ele>1.0</ele><time>2026-04-04T14:29:06.999Z</time></trkpt><trkpt lat="44.96303550710968" lon="11.911029465858814"><ele>1.0</ele><time>2026-04-04T14:29:08.999Z</time></trkpt><trkpt lat="44.962959764917606" lon="11.911075476832195"><ele>1.0</ele><time>2026-04-04T14:29:11.999Z</time></trkpt><trkpt lat="44.962881027371715" lon="11.911092299512871"><ele>0.9999999999999999</ele><time>2026-04-04T14:29:14.999Z</time></trkpt><trkpt lat="44.9628151940933" lon="11.911122404734057"><ele>1.0</ele><time>2026-04-04T14:29:17.999Z</time></trkpt><trkpt lat="44.96290092153933" lon="11.911084206106866"><ele>0.9999999999999999</ele><time>2026-04-04T14:31:01.999Z</time></trkpt><trkpt lat="44.96299321367536" lon="11.911075262740326"><ele>1.0</ele><time>2026-04-04T14:31:16.999Z</time></trkpt><trkpt lat="44.96305341990013" lon="11.911041069929151"><ele>1.0</ele><time>2026-04-04T14:31:19.999Z</time></trkpt><trkpt lat="44.9631325445863" lon="11.911025337375873"><ele>1.0</ele><time>2026-04-04T14:31:22.999Z</time></trkpt><trkpt lat="44.96317488547002" lon="11.911096747543475"><ele>0.9999999999999999</ele><time>2026-04-04T14:31:25.999Z</time></trkpt><trkpt lat="44.963204236929656" lon="11.911209563172896"><ele>1.0</ele><time>2026-04-04T14:31:28.999Z</time></trkpt><trkpt lat="44.96322563726599" lon="11.911301491849214"><ele>1.0</ele><time>2026-04-04T14:31:30.999Z</time></trkpt><trkpt lat="44.9632546805279" lon="11.91141988437375"><ele>1.0</ele><time>2026-04-04T14:31:32.999Z</time></trkpt><trkpt lat="44.96328143961934" lon="11.91154754953058"><ele>1.0</ele><time>2026-04-04T14:31:34.999Z</time></trkpt><trkpt lat="44.96331295299078" lon="11.911677704052526"><ele>1.0</ele><time>2026-04-04T14:31:36.999Z</time></trkpt><trkpt lat="44.963341675366" lon="11.911806486018406"><ele>1.0</ele><time>2026-04-04T14:31:38.999Z</time></trkpt><trkpt lat="44.963364060027835" lon="11.91190860681246"><ele>0.6000000000000001</ele><time>2026-04-04T14:31:39.999Z</time></trkpt><trkpt lat="44.96338274514492" lon="11.911996618203853"><ele>0.20000000000000007</ele><time>2026-04-04T14:31:40.999Z</time></trkpt><trkpt lat="44.963417943528036" lon="11.912133301095453"><ele>-0.20000000000000007</ele><time>2026-04-04T14:31:42.999Z</time></trkpt><trkpt lat="44.96344402300457" lon="11.912268756398449"><ele>-0.6000000000000001</ele><time>2026-04-04T14:31:44.999Z</time></trkpt><trkpt lat="44.96347640937777" lon="11.912402591477923"><ele>-1.0</ele><time>2026-04-04T14:31:46.999Z</time></trkpt><trkpt lat="44.963511710260825" lon="11.91253757263448"><ele>-1.0</ele><time>2026-04-04T14:31:48.999Z</time></trkpt><trkpt lat="44.963540708209855" lon="11.912676287781625"><ele>-1.0</ele><time>2026-04-04T14:31:50.999Z</time></trkpt><trkpt lat="44.9635776461196" lon="11.912808960485936"><ele>-1.0</ele><time>2026-04-04T14:31:53Z</time></trkpt><trkpt lat="44.963609471895225" lon="11.912941890736832"><ele>-1.0</ele><time>2026-04-04T14:31:55Z</time></trkpt><trkpt lat="44.96363478855724" lon="11.913081151818442"><ele>-1.0</ele><time>2026-04-04T14:31:57Z</time></trkpt><trkpt lat="44.96366273956761" lon="11.913212805712728"><ele>-1.0</ele><time>2026-04-04T14:31:59Z</time></trkpt><trkpt lat="44.96369337938838" lon="11.91334763494573"><ele>-1.0</ele><time>2026-04-04T14:32:01Z</time></trkpt><trkpt lat="44.963721238253704" lon="11.913483780053014"><ele>-1.0</ele><time>2026-04-04T14:32:03Z</time></trkpt><trkpt lat="44.96375148080672" lon="11.91362179904863"><ele>-1.0</ele><time>2026-04-04T14:32:05Z</time></trkpt><trkpt lat="44.96378005091388" lon="11.913758520608782"><ele>-1.0</ele><time>2026-04-04T14:32:07Z</time></trkpt><trkpt lat="44.96381209684106" lon="11.913893223373396"><ele>-1.0</ele><time>2026-04-04T14:32:09Z</time></trkpt><trkpt lat="44.9638427474787" lon="11.914030572615886"><ele>-1.0</ele><time>2026-04-04T14:32:11Z</time></trkpt><trkpt lat="44.96387413920546" lon="11.914167935138552"><ele>-1.0</ele><time>2026-04-04T14:32:13Z</time></trkpt><trkpt lat="44.96390432027591" lon="11.914305150651629"><ele>-1.0</ele><time>2026-04-04T14:32:15Z</time></trkpt><trkpt lat="44.96393658070664" lon="11.914445981856806"><ele>-1.0</ele><time>2026-04-04T14:32:17Z</time></trkpt><trkpt lat="44.96396845521169" lon="11.914582288190536"><ele>-1.0</ele><time>2026-04-04T14:32:19Z</time></trkpt><trkpt lat="44.963998718046184" lon="11.91472053634958"><ele>-1.0</ele><time>2026-04-04T14:32:21Z</time></trkpt><trkpt lat="44.96402799314355" lon="11.91485914480307"><ele>-1.0</ele><time>2026-04-04T14:32:23Z</time></trkpt><trkpt lat="44.96405765916561" lon="11.91499292007348"><ele>-1.0</ele><time>2026-04-04T14:32:25Z</time></trkpt><trkpt lat="44.96408916675632" lon="11.915129053107968"><ele>-1.0</ele><time>2026-04-04T14:32:27Z</time></trkpt><trkpt lat="44.96411971740169" lon="11.91526463809016"><ele>-1.0</ele><time>2026-04-04T14:32:29Z</time></trkpt><trkpt lat="44.96415214548114" lon="11.915402096629279"><ele>-1.0</ele><time>2026-04-04T14:32:31Z</time></trkpt><trkpt lat="44.96418338961154" lon="11.91554055628827"><ele>-1.0</ele><time>2026-04-04T14:32:33Z</time></trkpt><trkpt lat="44.96421355267026" lon="11.915680220248476"><ele>-1.0</ele><time>2026-04-04T14:32:35Z</time></trkpt><trkpt lat="44.96424372987834" lon="11.915813657717672"><ele>-1.0</ele><time>2026-04-04T14:32:37Z</time></trkpt><trkpt lat="44.96427385779904" lon="11.91594457062079"><ele>-1.0</ele><time>2026-04-04T14:32:39Z</time></trkpt><trkpt lat="44.96430620352933" lon="11.916079630474675"><ele>-1.0</ele><time>2026-04-04T14:32:41Z</time></trkpt><trkpt lat="44.964336603741074" lon="11.916215829881128"><ele>-1.0</ele><time>2026-04-04T14:32:43Z</time></trkpt><trkpt lat="44.96437029249982" lon="11.916351690048845"><ele>-1.0</ele><time>2026-04-04T14:32:45Z</time></trkpt><trkpt lat="44.96440007308154" lon="11.916489823173197"><ele>-1.0</ele><time>2026-04-04T14:32:47Z</time></trkpt><trkpt lat="44.96443301117614" lon="11.916626350495893"><ele>-0.8</ele><time>2026-04-04T14:32:49Z</time></trkpt><trkpt lat="44.96446093889994" lon="11.916764671228641"><ele>-0.6000000000000001</ele><time>2026-04-04T14:32:51Z</time></trkpt><trkpt lat="44.96449153295403" lon="11.916903513138816"><ele>-0.4</ele><time>2026-04-04T14:32:53Z</time></trkpt><trkpt lat="44.96452086166447" lon="11.917022754824846"><ele>-0.2</ele><time>2026-04-04T14:32:55Z</time></trkpt><trkpt lat="44.964549087725615" lon="11.917140282580991"><ele>0.0</ele><time>2026-04-04T14:32:57Z</time></trkpt><trkpt lat="44.964578215225366" lon="11.917254616752876"><ele>0.0</ele><time>2026-04-04T14:32:59Z</time></trkpt><trkpt lat="44.964603961982945" lon="11.917358722857138"><ele>0.0</ele><time>2026-04-04T14:33:01Z</time></trkpt><trkpt lat="44.96462427789379" lon="11.917461792008469"><ele>0.0</ele><time>2026-04-04T14:33:02.999Z</time></trkpt><trkpt lat="44.964650895859606" lon="11.917551753833544"><ele>0.0</ele><time>2026-04-04T14:33:04.999Z</time></trkpt><trkpt lat="44.9646784522519" lon="11.917679663687087"><ele>0.0</ele><time>2026-04-04T14:33:07.999Z</time></trkpt><trkpt lat="44.964660902201956" lon="11.917778371036592"><ele>0.0</ele><time>2026-04-04T14:33:10.999Z</time></trkpt><trkpt lat="44.96459558503715" lon="11.917814689001078"><ele>0.16666666666666666</ele><time>2026-04-04T14:33:13.999Z</time></trkpt><trkpt lat="44.96450113331392" lon="11.917822944308215"><ele>0.3333333333333333</ele><time>2026-04-04T14:33:16.999Z</time></trkpt><trkpt lat="44.96442983401758" lon="11.917866084901041"><ele>0.5</ele><time>2026-04-04T14:33:18.999Z</time></trkpt><trkpt lat="44.964362333955144" lon="11.917905389972354"><ele>0.6666666666666666</ele><time>2026-04-04T14:33:20.999Z</time></trkpt><trkpt lat="44.96429476040011" lon="11.917931502431786"><ele>0.8333333333333333</ele><time>2026-04-04T14:33:22.999Z</time></trkpt><trkpt lat="44.96422683858647" lon="11.917966435569296"><ele>1.0</ele><time>2026-04-04T14:33:24.999Z</time></trkpt><trkpt lat="44.964162720866604" lon="11.917989732969762"><ele>0.9999999999999999</ele><time>2026-04-04T14:33:26.999Z</time></trkpt><trkpt lat="44.96409966049078" lon="11.918016984347013"><ele>1.0</ele><time>2026-04-04T14:33:28.999Z</time></trkpt><trkpt lat="44.964037804447486" lon="11.91803938788171"><ele>1.0</ele><time>2026-04-04T14:33:30.999Z</time></trkpt><trkpt lat="44.96396135149268" lon="11.918075283467164"><ele>1.0</ele><time>2026-04-04T14:33:32.999Z</time></trkpt><trkpt lat="44.96387057487332" lon="11.918113036532066"><ele>0.9999999999999999</ele><time>2026-04-04T14:33:34.999Z</time></trkpt><trkpt lat="44.96378284736712" lon="11.918161349044201"><ele>1.0</ele><time>2026-04-04T14:33:36.999Z</time></trkpt><trkpt lat="44.96368991747009" lon="11.91820128848043"><ele>0.9999999999999999</ele><time>2026-04-04T14:33:38.999Z</time></trkpt><trkpt lat="44.963599770630395" lon="11.91825035692407"><ele>1.0</ele><time>2026-04-04T14:33:40.999Z</time></trkpt><trkpt lat="44.96351830713976" lon="11.918287332873374"><ele>1.0</ele><time>2026-04-04T14:33:42.999Z</time></trkpt><trkpt lat="44.96344364006665" lon="11.918313276725073"><ele>1.0</ele><time>2026-04-04T14:33:44.999Z</time></trkpt><trkpt lat="44.96338278786798" lon="11.918340104510865"><ele>0.9999999999999999</ele><time>2026-04-04T14:33:46.999Z</time></trkpt><trkpt lat="44.96332416288283" lon="11.918375479718904"><ele>1.0</ele><time>2026-04-04T14:33:48.999Z</time></trkpt><trkpt lat="44.963258062531935" lon="11.918409713987451"><ele>0.6666666666666666</ele><time>2026-04-04T14:33:50.999Z</time></trkpt><trkpt lat="44.96318312283364" lon="11.91841956654378"><ele>0.3333333333333333</ele><time>2026-04-04T14:33:52.999Z</time></trkpt><trkpt lat="44.96309780456284" lon="11.918460750452711"><ele>0.0</ele><time>2026-04-04T14:33:54.999Z</time></trkpt><trkpt lat="44.96301186796497" lon="11.918502889855679"><ele>-0.3333333333333333</ele><time>2026-04-04T14:33:56.999Z</time></trkpt><trkpt lat="44.96292367563862" lon="11.918545024879373"><ele>-0.6666666666666666</ele><time>2026-04-04T14:33:59Z</time></trkpt><trkpt lat="44.962837005884424" lon="11.91858459043146"><ele>-1.0</ele><time>2026-04-04T14:34:01Z</time></trkpt><trkpt lat="44.96274847683656" lon="11.918617777128345"><ele>-1.0</ele><time>2026-04-04T14:34:03Z</time></trkpt><trkpt lat="44.96266205342889" lon="11.918660027001403"><ele>-1.0</ele><time>2026-04-04T14:34:05Z</time></trkpt><trkpt lat="44.96257244281773" lon="11.918707758559488"><ele>-1.0</ele><time>2026-04-04T14:34:07Z</time></trkpt><trkpt lat="44.96248729643334" lon="11.918746755735839"><ele>-1.0</ele><time>2026-04-04T14:34:09Z</time></trkpt><trkpt lat="44.962398884496814" lon="11.918785499902809"><ele>-1.0</ele><time>2026-04-04T14:34:11Z</time></trkpt><trkpt lat="44.96230697500511" lon="11.91882437542456"><ele>-1.0</ele><time>2026-04-04T14:34:13Z</time></trkpt><trkpt lat="44.96222175163958" lon="11.918867052559646"><ele>-1.0</ele><time>2026-04-04T14:34:15Z</time></trkpt><trkpt lat="44.96213314113466" lon="11.918908607814428"><ele>-1.0</ele><time>2026-04-04T14:34:17Z</time></trkpt><trkpt lat="44.962042923918325" lon="11.918950974998841"><ele>-1.0</ele><time>2026-04-04T14:34:19Z</time></trkpt><trkpt lat="44.96195157650301" lon="11.918987973676359"><ele>-1.0</ele><time>2026-04-04T14:34:21Z</time></trkpt><trkpt lat="44.961864379458305" lon="11.919032236092248"><ele>-0.9999999999999999</ele><time>2026-04-04T14:34:23Z</time></trkpt><trkpt lat="44.96178638267329" lon="11.919074235491243"><ele>-1.0</ele><time>2026-04-04T14:34:25Z</time></trkpt><trkpt lat="44.96169967682445" lon="11.919108949746814"><ele>-1.0</ele><time>2026-04-04T14:34:27Z</time></trkpt><trkpt lat="44.96161346417572" lon="11.919145286173785"><ele>-1.0</ele><time>2026-04-04T14:34:29Z</time></trkpt><trkpt lat="44.961533232971654" lon="11.919184526978091"><ele>-0.9999999999999999</ele><time>2026-04-04T14:34:31Z</time></trkpt><trkpt lat="44.96146103216045" lon="11.919222283477247"><ele>-1.0</ele><time>2026-04-04T14:34:33Z</time></trkpt><trkpt lat="44.96139325022527" lon="11.91925091074628"><ele>-1.1666666666666665</ele><time>2026-04-04T14:34:35Z</time></trkpt><trkpt lat="44.9613310515215" lon="11.919278437450808"><ele>-1.3333333333333333</ele><time>2026-04-04T14:34:37Z</time></trkpt><trkpt lat="44.961250473623274" lon="11.919319032474979"><ele>-1.5</ele><time>2026-04-04T14:34:40Z</time></trkpt><trkpt lat="44.961178728715105" lon="11.919355482923615"><ele>-1.6666666666666665</ele><time>2026-04-04T14:34:43Z</time></trkpt><trkpt lat="44.961096339574624" lon="11.91938907245778"><ele>-1.8333333333333333</ele><time>2026-04-04T14:34:46Z</time></trkpt><trkpt lat="44.9610190182672" lon="11.919423019363501"><ele>-2.0</ele><time>2026-04-04T14:34:48Z</time></trkpt><trkpt lat="44.96095458111707" lon="11.91946392706295"><ele>-2.0</ele><time>2026-04-04T14:34:50Z</time></trkpt><trkpt lat="44.9608928633503" lon="11.919490077775714"><ele>-1.9999999999999998</ele><time>2026-04-04T14:34:52Z</time></trkpt><trkpt lat="44.9608274829334" lon="11.919528803273355"><ele>-2.0</ele><time>2026-04-04T14:34:54Z</time></trkpt><trkpt lat="44.96075682720657" lon="11.919546629268863"><ele>-2.0</ele><time>2026-04-04T14:34:56Z</time></trkpt><trkpt lat="44.96067980933055" lon="11.919591294351651"><ele>-1.9999999999999998</ele><time>2026-04-04T14:34:58Z</time></trkpt><trkpt lat="44.9606074231458" lon="11.919628223922683"><ele>-2.0</ele><time>2026-04-04T14:35:00Z</time></trkpt><trkpt lat="44.96053941542808" lon="11.919658560805455"><ele>-2.0</ele><time>2026-04-04T14:35:02Z</time></trkpt><trkpt lat="44.960468322295014" lon="11.919697205641313"><ele>-1.8333333333333333</ele><time>2026-04-04T14:35:04Z</time></trkpt><trkpt lat="44.96038759125433" lon="11.919733051968072"><ele>-1.6666666666666665</ele><time>2026-04-04T14:35:06Z</time></trkpt><trkpt lat="44.96032398234583" lon="11.919768383979276"><ele>-1.5</ele><time>2026-04-04T14:35:08Z</time></trkpt><trkpt lat="44.96025705661765" lon="11.919798975905834"><ele>-1.3333333333333333</ele><time>2026-04-04T14:35:10Z</time></trkpt><trkpt lat="44.96017805918732" lon="11.919834945677588"><ele>-1.1666666666666665</ele><time>2026-04-04T14:35:12Z</time></trkpt><trkpt lat="44.960099686658324" lon="11.919870225329948"><ele>-1.0</ele><time>2026-04-04T14:35:13.999Z</time></trkpt><trkpt lat="44.96003145104716" lon="11.919897757296022"><ele>-0.9999999999999999</ele><time>2026-04-04T14:35:15.999Z</time></trkpt><trkpt lat="44.95994254333207" lon="11.91993598395081"><ele>-1.0</ele><time>2026-04-04T14:35:18.999Z</time></trkpt><trkpt lat="44.95986933816729" lon="11.919971760797866"><ele>-1.0</ele><time>2026-04-04T14:35:21.999Z</time></trkpt><trkpt lat="44.95977225401961" lon="11.920013016775258"><ele>-1.0</ele><time>2026-04-04T14:35:24.999Z</time></trkpt><trkpt lat="44.9596834401441" lon="11.92005525592765"><ele>-0.9999999999999999</ele><time>2026-04-04T14:35:26.999Z</time></trkpt><trkpt lat="44.959609135770805" lon="11.920091001275765"><ele>-1.0</ele><time>2026-04-04T14:35:28.999Z</time></trkpt><trkpt lat="44.959542631252425" lon="11.92012547921332"><ele>-1.0</ele><time>2026-04-04T14:35:30.999Z</time></trkpt><trkpt lat="44.95945778622602" lon="11.920159510160365"><ele>-1.0</ele><time>2026-04-04T14:35:32.999Z</time></trkpt><trkpt lat="44.959367590556454" lon="11.920200444527017"><ele>-1.0</ele><time>2026-04-04T14:35:34.999Z</time></trkpt><trkpt lat="44.95927586986506" lon="11.920243289727171"><ele>-1.0</ele><time>2026-04-04T14:35:36.999Z</time></trkpt><trkpt lat="44.959184726513215" lon="11.920280352199706"><ele>-1.0</ele><time>2026-04-04T14:35:38.999Z</time></trkpt><trkpt lat="44.95909073176176" lon="11.920323154917627"><ele>-1.0</ele><time>2026-04-04T14:35:40.999Z</time></trkpt><trkpt lat="44.95899732684299" lon="11.920366629302338"><ele>-1.0</ele><time>2026-04-04T14:35:42.999Z</time></trkpt><trkpt lat="44.95890542572934" lon="11.920405863575127"><ele>-1.0</ele><time>2026-04-04T14:35:44.999Z</time></trkpt><trkpt lat="44.95881315924151" lon="11.920449486222143"><ele>-1.0</ele><time>2026-04-04T14:35:46.999Z</time></trkpt><trkpt lat="44.95871755536175" lon="11.920485585398556"><ele>-1.0</ele><time>2026-04-04T14:35:48.999Z</time></trkpt><trkpt lat="44.95862400884448" lon="11.920527163093292"><ele>-1.0</ele><time>2026-04-04T14:35:50.999Z</time></trkpt><trkpt lat="44.9585345981549" lon="11.920573058558627"><ele>-1.0</ele><time>2026-04-04T14:35:52.999Z</time></trkpt><trkpt lat="44.95844287187085" lon="11.920613522497623"><ele>-1.0</ele><time>2026-04-04T14:35:54.999Z</time></trkpt><trkpt lat="44.95835222817747" lon="11.920656074247702"><ele>-1.0</ele><time>2026-04-04T14:35:56.999Z</time></trkpt><trkpt lat="44.95826015877424" lon="11.92069849112577"><ele>-1.0</ele><time>2026-04-04T14:35:58.999Z</time></trkpt><trkpt lat="44.958166287351276" lon="11.920745629621246"><ele>-1.1666666666666665</ele><time>2026-04-04T14:36:00.999Z</time></trkpt><trkpt lat="44.958073515409936" lon="11.920786634654958"><ele>-1.3333333333333333</ele><time>2026-04-04T14:36:02.999Z</time></trkpt><trkpt lat="44.95798485874188" lon="11.92083423554091"><ele>-1.5</ele><time>2026-04-04T14:36:05Z</time></trkpt><trkpt lat="44.95790024020595" lon="11.920864380208656"><ele>-1.6666666666666665</ele><time>2026-04-04T14:36:07Z</time></trkpt><trkpt lat="44.957824948429554" lon="11.920903231329369"><ele>-1.8333333333333333</ele><time>2026-04-04T14:36:09Z</time></trkpt><trkpt lat="44.95774477526838" lon="11.920936163788392"><ele>-2.0</ele><time>2026-04-04T14:36:11Z</time></trkpt><trkpt lat="44.95765736962065" lon="11.920981831141567"><ele>-2.0</ele><time>2026-04-04T14:36:13Z</time></trkpt><trkpt lat="44.95756515270081" lon="11.921022398273703"><ele>-2.0</ele><time>2026-04-04T14:36:15Z</time></trkpt><trkpt lat="44.957482752358324" lon="11.92106358683616"><ele>-2.0</ele><time>2026-04-04T14:36:17Z</time></trkpt><trkpt lat="44.957408544029335" lon="11.9211045970733"><ele>-2.0</ele><time>2026-04-04T14:36:19Z</time></trkpt><trkpt lat="44.957310842432065" lon="11.921155577533073"><ele>-2.0</ele><time>2026-04-04T14:36:22Z</time></trkpt><trkpt lat="44.957226919182716" lon="11.921192400753512"><ele>-1.8333333333333333</ele><time>2026-04-04T14:36:24Z</time></trkpt><trkpt lat="44.95715600814262" lon="11.921228845110027"><ele>-1.6666666666666665</ele><time>2026-04-04T14:36:26Z</time></trkpt><trkpt lat="44.95708728960188" lon="11.921250882875855"><ele>-1.5</ele><time>2026-04-04T14:36:28Z</time></trkpt><trkpt lat="44.95699539525355" lon="11.92127801978253"><ele>-1.3333333333333333</ele><time>2026-04-04T14:36:31Z</time></trkpt><trkpt lat="44.95693113832095" lon="11.921313744842282"><ele>-1.1666666666666665</ele><time>2026-04-04T14:36:33Z</time></trkpt><trkpt lat="44.956851681583245" lon="11.921361140658288"><ele>-1.0</ele><time>2026-04-04T14:36:36Z</time></trkpt><trkpt lat="44.95676265496652" lon="11.921407590910935"><ele>-0.9999999999999999</ele><time>2026-04-04T14:36:39Z</time></trkpt><trkpt lat="44.95667927305884" lon="11.921446841964586"><ele>-1.0</ele><time>2026-04-04T14:36:41Z</time></trkpt><trkpt lat="44.95660468023218" lon="11.921474485727753"><ele>-1.0</ele><time>2026-04-04T14:36:43Z</time></trkpt><trkpt lat="44.956539028202016" lon="11.921497683206443"><ele>-1.0</ele><time>2026-04-04T14:36:45Z</time></trkpt><trkpt lat="44.9564562269361" lon="11.921552210667658"><ele>-0.9999999999999999</ele><time>2026-04-04T14:36:48Z</time></trkpt><trkpt lat="44.956371543846885" lon="11.921586670670214"><ele>-1.0</ele><time>2026-04-04T14:36:50Z</time></trkpt><trkpt lat="44.95629493579763" lon="11.92162106081873"><ele>-0.9999999999999999</ele><time>2026-04-04T14:36:52Z</time></trkpt><trkpt lat="44.95622804654322" lon="11.921648397502759"><ele>-1.0</ele><time>2026-04-04T14:36:54Z</time></trkpt><trkpt lat="44.95614595376385" lon="11.921683802087644"><ele>-1.0</ele><time>2026-04-04T14:36:57Z</time></trkpt><trkpt lat="44.95607722863457" lon="11.921721992809468"><ele>-1.0</ele><time>2026-04-04T14:37:00Z</time></trkpt><trkpt lat="44.95600082263539" lon="11.921759504796324"><ele>-0.9999999999999999</ele><time>2026-04-04T14:37:02Z</time></trkpt><trkpt lat="44.955916030749236" lon="11.921796966571447"><ele>-1.0</ele><time>2026-04-04T14:37:04Z</time></trkpt><trkpt lat="44.95584515973896" lon="11.921826412949942"><ele>-1.1666666666666665</ele><time>2026-04-04T14:37:06Z</time></trkpt><trkpt lat="44.95578204865195" lon="11.921854459625203"><ele>-1.3333333333333333</ele><time>2026-04-04T14:37:08Z</time></trkpt><trkpt lat="44.95569337660513" lon="11.921904880749132"><ele>-1.5</ele><time>2026-04-04T14:37:11Z</time></trkpt><trkpt lat="44.9556174840449" lon="11.921926873116565"><ele>-1.6666666666666665</ele><time>2026-04-04T14:37:13Z</time></trkpt><trkpt lat="44.955538763349814" lon="11.921962908303811"><ele>-1.8333333333333333</ele><time>2026-04-04T14:37:14.999Z</time></trkpt><trkpt lat="44.9554732270202" lon="11.921993256577316"><ele>-2.0</ele><time>2026-04-04T14:37:16.999Z</time></trkpt><trkpt lat="44.95540658809177" lon="11.92202577725686"><ele>-2.0</ele><time>2026-04-04T14:37:18.999Z</time></trkpt><trkpt lat="44.95533259414134" lon="11.922057964246184"><ele>-1.9999999999999998</ele><time>2026-04-04T14:37:20.999Z</time></trkpt><trkpt lat="44.95525967768528" lon="11.922093936262524"><ele>-2.0</ele><time>2026-04-04T14:37:22.999Z</time></trkpt><trkpt lat="44.95518685600594" lon="11.922126302658837"><ele>-2.0</ele><time>2026-04-04T14:37:24.999Z</time></trkpt><trkpt lat="44.955118988934345" lon="11.922156011654748"><ele>-1.9999999999999998</ele><time>2026-04-04T14:37:26.999Z</time></trkpt><trkpt lat="44.9550551797798" lon="11.922181854517092"><ele>-2.0</ele><time>2026-04-04T14:37:28.999Z</time></trkpt><trkpt lat="44.954984306018304" lon="11.922214133167657"><ele>-2.0</ele><time>2026-04-04T14:37:30.999Z</time></trkpt><trkpt lat="44.954910719054624" lon="11.922248496910814"><ele>-2.1666666666666665</ele><time>2026-04-04T14:37:32.999Z</time></trkpt><trkpt lat="44.95484668244165" lon="11.92226509467811"><ele>-2.333333333333333</ele><time>2026-04-04T14:37:34.999Z</time></trkpt><trkpt lat="44.95476114860617" lon="11.922301175434663"><ele>-2.5</ele><time>2026-04-04T14:37:37.999Z</time></trkpt><trkpt lat="44.954695191812604" lon="11.922328467441"><ele>-2.6666666666666665</ele><time>2026-04-04T14:37:40.999Z</time></trkpt><trkpt lat="44.954634849354505" lon="11.922394576786923"><ele>-2.8333333333333335</ele><time>2026-04-04T14:37:44.999Z</time></trkpt><trkpt lat="44.95464208017419" lon="11.922520813316542"><ele>-3.0</ele><time>2026-04-04T14:37:48.999Z</time></trkpt><trkpt lat="44.95466737963938" lon="11.922619744299235"><ele>-2.714285714285714</ele><time>2026-04-04T14:37:50.999Z</time></trkpt><trkpt lat="44.95468776974257" lon="11.922717956331272"><ele>-2.4285714285714284</ele><time>2026-04-04T14:37:52.999Z</time></trkpt><trkpt lat="44.954696689996155" lon="11.92281214940459"><ele>-2.142857142857143</ele><time>2026-04-04T14:37:54.999Z</time></trkpt><trkpt lat="44.954715996606254" lon="11.922917868632194"><ele>-1.857142857142857</ele><time>2026-04-04T14:37:56.999Z</time></trkpt><trkpt lat="44.95472590134736" lon="11.92302608123457"><ele>-1.5714285714285712</ele><time>2026-04-04T14:37:58.999Z</time></trkpt><trkpt lat="44.95473992171102" lon="11.923129821287292"><ele>-1.2857142857142856</ele><time>2026-04-04T14:38:00.999Z</time></trkpt><trkpt lat="44.95475667187657" lon="11.923226923276724"><ele>-1.0</ele><time>2026-04-04T14:38:02.999Z</time></trkpt><trkpt lat="44.95476568221195" lon="11.923317773335636"><ele>-1.1666666666666665</ele><time>2026-04-04T14:38:04.999Z</time></trkpt><trkpt lat="44.95477741422773" lon="11.923450137670349"><ele>-1.3333333333333333</ele><time>2026-04-04T14:38:07.999Z</time></trkpt><trkpt lat="44.95479296227561" lon="11.923568860141222"><ele>-1.5</ele><time>2026-04-04T14:38:09.999Z</time></trkpt><trkpt lat="44.95480661461304" lon="11.923670002702103"><ele>-1.6666666666666665</ele><time>2026-04-04T14:38:12Z</time></trkpt><trkpt lat="44.95482456110505" lon="11.923761129252256"><ele>-1.8333333333333333</ele><time>2026-04-04T14:38:14Z</time></trkpt><trkpt lat="44.95483386044669" lon="11.923864617465693"><ele>-2.0</ele><time>2026-04-04T14:38:16Z</time></trkpt><trkpt lat="44.95484194576202" lon="11.923965368041461"><ele>-1.9999999999999998</ele><time>2026-04-04T14:38:18Z</time></trkpt><trkpt lat="44.95485330815175" lon="11.92406847206764"><ele>-2.0</ele><time>2026-04-04T14:38:20Z</time></trkpt><trkpt lat="44.95486715942107" lon="11.924191370643825"><ele>-2.0</ele><time>2026-04-04T14:38:22Z</time></trkpt><trkpt lat="44.954887501000265" lon="11.924312843773562"><ele>-2.0</ele><time>2026-04-04T14:38:24Z</time></trkpt><trkpt lat="44.95489985344453" lon="11.924422330157821"><ele>-1.9999999999999998</ele><time>2026-04-04T14:38:26Z</time></trkpt><trkpt lat="44.95491616939029" lon="11.924526458464618"><ele>-2.0</ele><time>2026-04-04T14:38:28Z</time></trkpt><trkpt lat="44.95492906909185" lon="11.924625137212255"><ele>-2.1666666666666665</ele><time>2026-04-04T14:38:30Z</time></trkpt><trkpt lat="44.95493867487234" lon="11.924736355912742"><ele>-2.333333333333333</ele><time>2026-04-04T14:38:32Z</time></trkpt><trkpt lat="44.954955841052666" lon="11.924860338146718"><ele>-2.5</ele><time>2026-04-04T14:38:34Z</time></trkpt><trkpt lat="44.954973092566576" lon="11.924980037627098"><ele>-2.6666666666666665</ele><time>2026-04-04T14:38:36Z</time></trkpt><trkpt lat="44.95498672667058" lon="11.925090661379292"><ele>-2.8333333333333335</ele><time>2026-04-04T14:38:38Z</time></trkpt><trkpt lat="44.954997846047455" lon="11.925187435698476"><ele>-3.0</ele><time>2026-04-04T14:38:40Z</time></trkpt><trkpt lat="44.955020125067314" lon="11.925334149836097"><ele>-3.0</ele><time>2026-04-04T14:38:43Z</time></trkpt><trkpt lat="44.9550306752906" lon="11.925442473493158"><ele>-3.0</ele><time>2026-04-04T14:38:45Z</time></trkpt><trkpt lat="44.95504337457424" lon="11.925549124071559"><ele>-3.0</ele><time>2026-04-04T14:38:47Z</time></trkpt><trkpt lat="44.95506029913343" lon="11.92566536567629"><ele>-3.0</ele><time>2026-04-04T14:38:49Z</time></trkpt><trkpt lat="44.95506930932544" lon="11.925760723602474"><ele>-3.0</ele><time>2026-04-04T14:38:51Z</time></trkpt><trkpt lat="44.95508249859679" lon="11.925877724110038"><ele>-3.0</ele><time>2026-04-04T14:38:54Z</time></trkpt><trkpt lat="44.9550978725272" lon="11.926015086178058"><ele>-3.0</ele><time>2026-04-04T14:38:57Z</time></trkpt><trkpt lat="44.95510789319302" lon="11.926125984294794"><ele>-3.0</ele><time>2026-04-04T14:38:59Z</time></trkpt><trkpt lat="44.95512294921114" lon="11.92622667223148"><ele>-3.0</ele><time>2026-04-04T14:39:01Z</time></trkpt><trkpt lat="44.95513409734586" lon="11.926318033976395"><ele>-3.0</ele><time>2026-04-04T14:39:03Z</time></trkpt><trkpt lat="44.95514411703424" lon="11.926416017919228"><ele>-3.0</ele><time>2026-04-04T14:39:05Z</time></trkpt><trkpt lat="44.9551580578493" lon="11.926538636788948"><ele>-3.0</ele><time>2026-04-04T14:39:07Z</time></trkpt><trkpt lat="44.95517119499778" lon="11.92664404706802"><ele>-2.6666666666666665</ele><time>2026-04-04T14:39:09Z</time></trkpt><trkpt lat="44.95518526580841" lon="11.926746923601444"><ele>-2.3333333333333335</ele><time>2026-04-04T14:39:11Z</time></trkpt><trkpt lat="44.95520270029595" lon="11.926874586708538"><ele>-2.0</ele><time>2026-04-04T14:39:13Z</time></trkpt><trkpt lat="44.95521997541709" lon="11.927003754604327"><ele>-1.6666666666666665</ele><time>2026-04-04T14:39:15Z</time></trkpt><trkpt lat="44.9552345964552" lon="11.92712805903667"><ele>-1.3333333333333333</ele><time>2026-04-04T14:39:17Z</time></trkpt><trkpt lat="44.955249781408824" lon="11.92726080168232"><ele>-1.0</ele><time>2026-04-04T14:39:19Z</time></trkpt><trkpt lat="44.95527036698422" lon="11.927387899360198"><ele>-0.9999999999999999</ele><time>2026-04-04T14:39:21Z</time></trkpt><trkpt lat="44.95528190392105" lon="11.927505714237071"><ele>-1.0</ele><time>2026-04-04T14:39:23Z</time></trkpt><trkpt lat="44.955302098035055" lon="11.927619485070656"><ele>-1.0</ele><time>2026-04-04T14:39:25Z</time></trkpt><trkpt lat="44.95531817217171" lon="11.92773408169753"><ele>-1.0</ele><time>2026-04-04T14:39:27Z</time></trkpt><trkpt lat="44.95533082846751" lon="11.927828063192912"><ele>-0.9999999999999999</ele><time>2026-04-04T14:39:29Z</time></trkpt><trkpt lat="44.95527619925896" lon="11.92792957689249"><ele>-1.0</ele><time>2026-04-04T14:39:31.999Z</time></trkpt><trkpt lat="44.95518586516504" lon="11.927937822418125"><ele>-1.1666666666666665</ele><time>2026-04-04T14:39:34.999Z</time></trkpt><trkpt lat="44.95511037047533" lon="11.927989898276326"><ele>-1.3333333333333333</ele><time>2026-04-04T14:39:36.999Z</time></trkpt><trkpt lat="44.95504138982699" lon="11.928017072590322"><ele>-1.5</ele><time>2026-04-04T14:39:38.999Z</time></trkpt><trkpt lat="44.95497508349228" lon="11.928043005021305"><ele>-1.6666666666666665</ele><time>2026-04-04T14:39:40.999Z</time></trkpt><trkpt lat="44.954884987318955" lon="11.928079892177795"><ele>-1.8333333333333333</ele><time>2026-04-04T14:39:43.999Z</time></trkpt><trkpt lat="44.954805455267056" lon="11.928113670246416"><ele>-2.0</ele><time>2026-04-04T14:39:45.999Z</time></trkpt><trkpt lat="44.95473129713743" lon="11.928140407509291"><ele>-2.2</ele><time>2026-04-04T14:39:47.999Z</time></trkpt><trkpt lat="44.95465429449301" lon="11.928169082831838"><ele>-2.4000000000000004</ele><time>2026-04-04T14:39:49.999Z</time></trkpt><trkpt lat="44.95456387577052" lon="11.928203429185796"><ele>-2.5999999999999996</ele><time>2026-04-04T14:39:51.999Z</time></trkpt><trkpt lat="44.95446861716182" lon="11.92823890882547"><ele>-2.8</ele><time>2026-04-04T14:39:53.999Z</time></trkpt><trkpt lat="44.95437464760829" lon="11.928281326083292"><ele>-3.0</ele><time>2026-04-04T14:39:55.999Z</time></trkpt><trkpt lat="44.9542851622216" lon="11.928327289641642"><ele>-3.0</ele><time>2026-04-04T14:39:57.999Z</time></trkpt><trkpt lat="44.95419558606755" lon="11.928367398321786"><ele>-3.0</ele><time>2026-04-04T14:39:59.999Z</time></trkpt><trkpt lat="44.95411170762135" lon="11.92839768430342"><ele>-3.0</ele><time>2026-04-04T14:40:01.999Z</time></trkpt><trkpt lat="44.95403276647159" lon="11.928417846817435"><ele>-3.0</ele><time>2026-04-04T14:40:03.999Z</time></trkpt><trkpt lat="44.95397233280419" lon="11.928449836844074"><ele>-3.0</ele><time>2026-04-04T14:40:05.999Z</time></trkpt><trkpt lat="44.953900655230804" lon="11.928474501545404"><ele>-3.0</ele><time>2026-04-04T14:40:07.999Z</time></trkpt><trkpt lat="44.95383566816593" lon="11.928486683828933"><ele>-3.0</ele><time>2026-04-04T14:40:09.999Z</time></trkpt><trkpt lat="44.95376682032845" lon="11.928516822352597"><ele>-3.0</ele><time>2026-04-04T14:40:11.999Z</time></trkpt><trkpt lat="44.953695737526864" lon="11.928544247358913"><ele>-3.0</ele><time>2026-04-04T14:40:13.999Z</time></trkpt><trkpt lat="44.9536223550785" lon="11.928576215493656"><ele>-3.0</ele><time>2026-04-04T14:40:15.999Z</time></trkpt><trkpt lat="44.95353352988375" lon="11.928609021836202"><ele>-3.0</ele><time>2026-04-04T14:40:18Z</time></trkpt><trkpt lat="44.95344568102111" lon="11.928645133031647"><ele>-3.0</ele><time>2026-04-04T14:40:20Z</time></trkpt><trkpt lat="44.953367952556455" lon="11.92867264083519"><ele>-2.8333333333333335</ele><time>2026-04-04T14:40:22Z</time></trkpt><trkpt lat="44.953296304269536" lon="11.92870359701007"><ele>-2.6666666666666665</ele><time>2026-04-04T14:40:24Z</time></trkpt><trkpt lat="44.953226863860614" lon="11.928732550668721"><ele>-2.5</ele><time>2026-04-04T14:40:26Z</time></trkpt><trkpt lat="44.95313911403812" lon="11.92876043327547"><ele>-2.333333333333333</ele><time>2026-04-04T14:40:28Z</time></trkpt><trkpt lat="44.95304094733455" lon="11.928793908372256"><ele>-2.1666666666666665</ele><time>2026-04-04T14:40:30Z</time></trkpt><trkpt lat="44.95294878830684" lon="11.928835530087172"><ele>-2.0</ele><time>2026-04-04T14:40:32Z</time></trkpt><trkpt lat="44.952863945179345" lon="11.928869362780533"><ele>-1.9999999999999998</ele><time>2026-04-04T14:40:34Z</time></trkpt><trkpt lat="44.952787953898415" lon="11.928896682850272"><ele>-2.0</ele><time>2026-04-04T14:40:36Z</time></trkpt><trkpt lat="44.95270318362496" lon="11.928932353722809"><ele>-2.0</ele><time>2026-04-04T14:40:38Z</time></trkpt><trkpt lat="44.95261846315418" lon="11.92896330827879"><ele>-2.0</ele><time>2026-04-04T14:40:40Z</time></trkpt><trkpt lat="44.95252872563431" lon="11.928999558864868"><ele>-1.9999999999999998</ele><time>2026-04-04T14:40:42Z</time></trkpt><trkpt lat="44.95244079529672" lon="11.929041769816958"><ele>-2.0</ele><time>2026-04-04T14:40:44Z</time></trkpt><trkpt lat="44.9523628185813" lon="11.929096065719838"><ele>-2.1666666666666665</ele><time>2026-04-04T14:40:46Z</time></trkpt><trkpt lat="44.95228150246046" lon="11.929120381797663"><ele>-2.333333333333333</ele><time>2026-04-04T14:40:48Z</time></trkpt><trkpt lat="44.95220556110763" lon="11.929152655826224"><ele>-2.5</ele><time>2026-04-04T14:40:50Z</time></trkpt><trkpt lat="44.95212123605098" lon="11.92918815619452"><ele>-2.6666666666666665</ele><time>2026-04-04T14:40:52Z</time></trkpt><trkpt lat="44.95202916475542" lon="11.929223455434231"><ele>-2.8333333333333335</ele><time>2026-04-04T14:40:54Z</time></trkpt><trkpt lat="44.95193490393718" lon="11.929263051663325"><ele>-3.0</ele><time>2026-04-04T14:40:56Z</time></trkpt><trkpt lat="44.9518495151741" lon="11.9292887764984"><ele>-3.0</ele><time>2026-04-04T14:40:58Z</time></trkpt><trkpt lat="44.951783104335334" lon="11.92932166403993"><ele>-3.0</ele><time>2026-04-04T14:41:00Z</time></trkpt><trkpt lat="44.95171433643252" lon="11.929350886593056"><ele>-3.0</ele><time>2026-04-04T14:41:02Z</time></trkpt><trkpt lat="44.951639921798574" lon="11.929382048922307"><ele>-3.0</ele><time>2026-04-04T14:41:04Z</time></trkpt><trkpt lat="44.95157604731105" lon="11.929410148659466"><ele>-3.0</ele><time>2026-04-04T14:41:06Z</time></trkpt><trkpt lat="44.95149390449862" lon="11.929442703962362"><ele>-3.0</ele><time>2026-04-04T14:41:09Z</time></trkpt><trkpt lat="44.95141899526077" lon="11.929472822787062"><ele>-2.8</ele><time>2026-04-04T14:41:11Z</time></trkpt><trkpt lat="44.95133053913778" lon="11.929508569197683"><ele>-2.5999999999999996</ele><time>2026-04-04T14:41:13Z</time></trkpt><trkpt lat="44.95124191553087" lon="11.929544446069242"><ele>-2.4000000000000004</ele><time>2026-04-04T14:41:15Z</time></trkpt><trkpt lat="44.95115402966789" lon="11.92958214380503"><ele>-2.2</ele><time>2026-04-04T14:41:17Z</time></trkpt><trkpt lat="44.95106152546746" lon="11.929622476956867"><ele>-2.0</ele><time>2026-04-04T14:41:19Z</time></trkpt><trkpt lat="44.95097291616133" lon="11.929656629596094"><ele>-1.9999999999999998</ele><time>2026-04-04T14:41:21Z</time></trkpt><trkpt lat="44.95088180647059" lon="11.929696031916022"><ele>-2.0</ele><time>2026-04-04T14:41:23Z</time></trkpt><trkpt lat="44.9508073807583" lon="11.929720407198213"><ele>-2.0</ele><time>2026-04-04T14:41:25Z</time></trkpt><trkpt lat="44.950731751660804" lon="11.929732912908367"><ele>-2.0</ele><time>2026-04-04T14:41:27Z</time></trkpt><trkpt lat="44.95065435304187" lon="11.92977845604557"><ele>-1.9999999999999998</ele><time>2026-04-04T14:41:29Z</time></trkpt><trkpt lat="44.95059429437664" lon="11.929813711745124"><ele>-2.0</ele><time>2026-04-04T14:41:31Z</time></trkpt><trkpt lat="44.950501855953114" lon="11.929853952099178"><ele>-1.9999999999999998</ele><time>2026-04-04T14:41:34Z</time></trkpt><trkpt lat="44.950420744816" lon="11.929883909096102"><ele>-2.0</ele><time>2026-04-04T14:41:37Z</time></trkpt><trkpt lat="44.95033623239891" lon="11.92991442107941"><ele>-2.0</ele><time>2026-04-04T14:41:40Z</time></trkpt><trkpt lat="44.95026694622956" lon="11.929943255953253"><ele>-2.0</ele><time>2026-04-04T14:41:42Z</time></trkpt><trkpt lat="44.95020027625275" lon="11.929966845611284"><ele>-1.9999999999999998</ele><time>2026-04-04T14:41:44Z</time></trkpt><trkpt lat="44.95012770481816" lon="11.929995215695048"><ele>-2.0</ele><time>2026-04-04T14:41:47Z</time></trkpt><trkpt lat="44.95006508502969" lon="11.930021392491847"><ele>-2.1666666666666665</ele><time>2026-04-04T14:41:48.999Z</time></trkpt><trkpt lat="44.94999203757446" lon="11.93005027210828"><ele>-2.333333333333333</ele><time>2026-04-04T14:41:50.999Z</time></trkpt><trkpt lat="44.9499100928757" lon="11.93007569280054"><ele>-2.5</ele><time>2026-04-04T14:41:53.999Z</time></trkpt><trkpt lat="44.94984172358075" lon="11.930107585548702"><ele>-2.6666666666666665</ele><time>2026-04-04T14:41:56.999Z</time></trkpt><trkpt lat="44.949775791590056" lon="11.930130524026241"><ele>-2.8333333333333335</ele><time>2026-04-04T14:41:58.999Z</time></trkpt><trkpt lat="44.94970719932556" lon="11.930161719714711"><ele>-3.0</ele><time>2026-04-04T14:42:00.999Z</time></trkpt><trkpt lat="44.949629034385694" lon="11.930192590549241"><ele>-3.0</ele><time>2026-04-04T14:42:03.999Z</time></trkpt><trkpt lat="44.94953181869463" lon="11.930226809971499"><ele>-3.0</ele><time>2026-04-04T14:42:06.999Z</time></trkpt><trkpt lat="44.94945894380217" lon="11.930255073795378"><ele>-3.0</ele><time>2026-04-04T14:42:08.999Z</time></trkpt><trkpt lat="44.94939640803276" lon="11.930284128001029"><ele>-3.0</ele><time>2026-04-04T14:42:10.999Z</time></trkpt><trkpt lat="44.94931224979525" lon="11.930311454082897"><ele>-3.0</ele><time>2026-04-04T14:42:13.999Z</time></trkpt><trkpt lat="44.94923812078418" lon="11.930341608585127"><ele>-3.0</ele><time>2026-04-04T14:42:15.999Z</time></trkpt><trkpt lat="44.949168043308894" lon="11.930369626447437"><ele>-2.8333333333333335</ele><time>2026-04-04T14:42:17.999Z</time></trkpt><trkpt lat="44.94910621089164" lon="11.930394741743383"><ele>-2.6666666666666665</ele><time>2026-04-04T14:42:19.999Z</time></trkpt><trkpt lat="44.94902693863651" lon="11.930425984964332"><ele>-2.5</ele><time>2026-04-04T14:42:21.999Z</time></trkpt><trkpt lat="44.9489369737869" lon="11.930464010554466"><ele>-2.333333333333333</ele><time>2026-04-04T14:42:24Z</time></trkpt><trkpt lat="44.948848272505344" lon="11.930497371151297"><ele>-2.1666666666666665</ele><time>2026-04-04T14:42:26Z</time></trkpt><trkpt lat="44.94877118454779" lon="11.930522817556689"><ele>-2.0</ele><time>2026-04-04T14:42:28Z</time></trkpt><trkpt lat="44.94870267862987" lon="11.93055508764264"><ele>-2.0</ele><time>2026-04-04T14:42:30Z</time></trkpt><trkpt lat="44.94863928520501" lon="11.930581723461088"><ele>-1.9999999999999998</ele><time>2026-04-04T14:42:32Z</time></trkpt><trkpt lat="44.94856970261025" lon="11.930609857832657"><ele>-2.0</ele><time>2026-04-04T14:42:34Z</time></trkpt><trkpt lat="44.94849159173268" lon="11.93064086320717"><ele>-2.0</ele><time>2026-04-04T14:42:36Z</time></trkpt><trkpt lat="44.94841786070572" lon="11.93066825426772"><ele>-1.9999999999999998</ele><time>2026-04-04T14:42:38Z</time></trkpt><trkpt lat="44.94835420521987" lon="11.930692861232137"><ele>-2.0</ele><time>2026-04-04T14:42:40Z</time></trkpt><trkpt lat="44.94827844730498" lon="11.930722350925645"><ele>-2.0</ele><time>2026-04-04T14:42:42Z</time></trkpt><trkpt lat="44.94819444229602" lon="11.930753303700776"><ele>-1.9999999999999998</ele><time>2026-04-04T14:42:44Z</time></trkpt><trkpt lat="44.94811984846297" lon="11.930776989051562"><ele>-2.0</ele><time>2026-04-04T14:42:46Z</time></trkpt><trkpt lat="44.948052113484636" lon="11.930799095303588"><ele>-2.0</ele><time>2026-04-04T14:42:48Z</time></trkpt><trkpt lat="44.94798839458796" lon="11.930815097745956"><ele>-2.0</ele><time>2026-04-04T14:42:50Z</time></trkpt><trkpt lat="44.94790985051612" lon="11.930825341658725"><ele>-1.9999999999999998</ele><time>2026-04-04T14:42:52Z</time></trkpt><trkpt lat="44.94782966228622" lon="11.930838923644037"><ele>-2.0</ele><time>2026-04-04T14:42:54Z</time></trkpt><trkpt lat="44.94774932888976" lon="11.930846042617851"><ele>-1.9999999999999998</ele><time>2026-04-04T14:42:57Z</time></trkpt><trkpt lat="44.9476820466311" lon="11.93086591545785"><ele>-2.0</ele><time>2026-04-04T14:42:59Z</time></trkpt><trkpt lat="44.94760026503557" lon="11.930877020653158"><ele>-2.0</ele><time>2026-04-04T14:43:01Z</time></trkpt><trkpt lat="44.94752527752214" lon="11.930887528303069"><ele>-2.0</ele><time>2026-04-04T14:43:03Z</time></trkpt><trkpt lat="44.947438514604876" lon="11.930894418690086"><ele>-1.9999999999999998</ele><time>2026-04-04T14:43:05Z</time></trkpt><trkpt lat="44.94735296661635" lon="11.930894374829395"><ele>-2.0</ele><time>2026-04-04T14:43:07Z</time></trkpt><trkpt lat="44.947287375434456" lon="11.930870854397593"><ele>-1.9999999999999998</ele><time>2026-04-04T14:43:09Z</time></trkpt><trkpt lat="44.94720774875592" lon="11.930896869078502"><ele>-2.0</ele><time>2026-04-04T14:43:12Z</time></trkpt><trkpt lat="44.947118906502965" lon="11.93090412075615"><ele>-2.0</ele><time>2026-04-04T14:43:15Z</time></trkpt><trkpt lat="44.94705030083989" lon="11.930902619312711"><ele>-2.0</ele><time>2026-04-04T14:43:17Z</time></trkpt><trkpt lat="44.946953511884374" lon="11.93090755390406"><ele>-1.9999999999999998</ele><time>2026-04-04T14:43:20Z</time></trkpt><trkpt lat="44.94687463758511" lon="11.930914987190324"><ele>-2.0</ele><time>2026-04-04T14:43:22Z</time></trkpt><trkpt lat="44.94680443840807" lon="11.930918323928623"><ele>-1.9999999999999998</ele><time>2026-04-04T14:43:24Z</time></trkpt><trkpt lat="44.94673788330509" lon="11.930921201587672"><ele>-2.0</ele><time>2026-04-04T14:43:26Z</time></trkpt><trkpt lat="44.94664777826661" lon="11.930922394930693"><ele>-2.0</ele><time>2026-04-04T14:43:29Z</time></trkpt><trkpt lat="44.94656468721592" lon="11.930930068348152"><ele>-2.0</ele><time>2026-04-04T14:43:32Z</time></trkpt><trkpt lat="44.9464945637168" lon="11.930931520949185"><ele>-1.9999999999999998</ele><time>2026-04-04T14:43:34Z</time></trkpt><trkpt lat="44.94640086276552" lon="11.930933959839933"><ele>-2.0</ele><time>2026-04-04T14:43:36Z</time></trkpt><trkpt lat="44.94630530336746" lon="11.930940254006265"><ele>-1.9999999999999998</ele><time>2026-04-04T14:43:38Z</time></trkpt><trkpt lat="44.94620715539453" lon="11.930944314628956"><ele>-2.0</ele><time>2026-04-04T14:43:39.999Z</time></trkpt><trkpt lat="44.946125792304514" lon="11.930942443381268"><ele>-2.0</ele><time>2026-04-04T14:43:41.999Z</time></trkpt><trkpt lat="44.94604137450962" lon="11.930946399822389"><ele>-2.0</ele><time>2026-04-04T14:43:43.999Z</time></trkpt><trkpt lat="44.94597144357065" lon="11.930952944453653"><ele>-1.9999999999999998</ele><time>2026-04-04T14:43:45.999Z</time></trkpt><trkpt lat="44.94589225687393" lon="11.93095334699272"><ele>-2.0</ele><time>2026-04-04T14:43:47.999Z</time></trkpt><trkpt lat="44.94579661129797" lon="11.930959968881641"><ele>-1.9999999999999998</ele><time>2026-04-04T14:43:49.999Z</time></trkpt><trkpt lat="44.94571226213909" lon="11.930969151705336"><ele>-2.0</ele><time>2026-04-04T14:43:51.999Z</time></trkpt><trkpt lat="44.94563869910078" lon="11.930969683679761"><ele>-2.0</ele><time>2026-04-04T14:43:53.999Z</time></trkpt><trkpt lat="44.945553221575615" lon="11.930974447718677"><ele>-2.0</ele><time>2026-04-04T14:43:55.999Z</time></trkpt><trkpt lat="44.945462889366965" lon="11.930981314193488"><ele>-1.9999999999999998</ele><time>2026-04-04T14:43:57.999Z</time></trkpt><trkpt lat="44.94537572252298" lon="11.930982901740952"><ele>-2.0</ele><time>2026-04-04T14:43:59.999Z</time></trkpt><trkpt lat="44.94529771149076" lon="11.93098270635083"><ele>-1.9999999999999998</ele><time>2026-04-04T14:44:01.999Z</time></trkpt><trkpt lat="44.94522603712971" lon="11.930990842651054"><ele>-2.0</ele><time>2026-04-04T14:44:03.999Z</time></trkpt><trkpt lat="44.94513829511962" lon="11.930999017835111"><ele>-2.0</ele><time>2026-04-04T14:44:05.999Z</time></trkpt><trkpt lat="44.945042978622695" lon="11.931018027199011"><ele>-2.0</ele><time>2026-04-04T14:44:07.999Z</time></trkpt><trkpt lat="44.94496156643709" lon="11.931060206647986"><ele>-1.9999999999999998</ele><time>2026-04-04T14:44:09.999Z</time></trkpt><trkpt lat="44.944885574566335" lon="11.931110834015243"><ele>-2.0</ele><time>2026-04-04T14:44:11.999Z</time></trkpt><trkpt lat="44.944818618017166" lon="11.931173903191949"><ele>-1.6666666666666665</ele><time>2026-04-04T14:44:13.999Z</time></trkpt><trkpt lat="44.94475322401558" lon="11.931232718682136"><ele>-1.3333333333333333</ele><time>2026-04-04T14:44:15.999Z</time></trkpt><trkpt lat="44.944679097003984" lon="11.931299729314345"><ele>-1.0</ele><time>2026-04-04T14:44:17.999Z</time></trkpt><trkpt lat="44.944610203955" lon="11.931365838017252"><ele>-0.6666666666666666</ele><time>2026-04-04T14:44:19.999Z</time></trkpt><trkpt lat="44.94454538533492" lon="11.931414674232311"><ele>-0.3333333333333333</ele><time>2026-04-04T14:44:21.999Z</time></trkpt><trkpt lat="44.94447699594027" lon="11.93147852698129"><ele>0.0</ele><time>2026-04-04T14:44:23.999Z</time></trkpt><trkpt lat="44.94439955699278" lon="11.931549548657424"><ele>0.0</ele><time>2026-04-04T14:44:25.999Z</time></trkpt><trkpt lat="44.94432404353362" lon="11.931618090606614"><ele>0.0</ele><time>2026-04-04T14:44:27.999Z</time></trkpt><trkpt lat="44.944248829365144" lon="11.93167891452398"><ele>0.0</ele><time>2026-04-04T14:44:30Z</time></trkpt><trkpt lat="44.94418019098856" lon="11.931740867296188"><ele>0.0</ele><time>2026-04-04T14:44:32Z</time></trkpt><trkpt lat="44.944102051329054" lon="11.931814448726657"><ele>0.0</ele><time>2026-04-04T14:44:34Z</time></trkpt><trkpt lat="44.94402228126032" lon="11.931888894580423"><ele>0.0</ele><time>2026-04-04T14:44:36Z</time></trkpt><trkpt lat="44.94394598258814" lon="11.931955880475906"><ele>-0.6</ele><time>2026-04-04T14:44:38Z</time></trkpt><trkpt lat="44.943871722964154" lon="11.93202667410374"><ele>-1.2</ele><time>2026-04-04T14:44:40Z</time></trkpt><trkpt lat="44.94379958208993" lon="11.932105267795272"><ele>-1.7999999999999998</ele><time>2026-04-04T14:44:42Z</time></trkpt><trkpt lat="44.943733749620336" lon="11.932173440742218"><ele>-2.4</ele><time>2026-04-04T14:44:44Z</time></trkpt><trkpt lat="44.943669568747104" lon="11.932262255876793"><ele>-3.0</ele><time>2026-04-04T14:44:47Z</time></trkpt><trkpt lat="44.94359899457287" lon="11.932365528270884"><ele>-3.0</ele><time>2026-04-04T14:44:50Z</time></trkpt><trkpt lat="44.943538236468434" lon="11.932466209178335"><ele>-3.0</ele><time>2026-04-04T14:44:52Z</time></trkpt><trkpt lat="44.94348162068973" lon="11.932569220950331"><ele>-3.0</ele><time>2026-04-04T14:44:54Z</time></trkpt><trkpt lat="44.94342555409351" lon="11.93266997905381"><ele>-3.0</ele><time>2026-04-04T14:44:56Z</time></trkpt><trkpt lat="44.94337808430381" lon="11.932760733780363"><ele>-3.0</ele><time>2026-04-04T14:44:58Z</time></trkpt><trkpt lat="44.94332682415142" lon="11.932842193105662"><ele>-3.0</ele><time>2026-04-04T14:45:00Z</time></trkpt><trkpt lat="44.943278322555" lon="11.932943629627589"><ele>-2.9999999999999996</ele><time>2026-04-04T14:45:02Z</time></trkpt><trkpt lat="44.943229300600635" lon="11.93303813865645"><ele>-3.0</ele><time>2026-04-04T14:45:04Z</time></trkpt><trkpt lat="44.94317933037868" lon="11.933124950804016"><ele>-3.0</ele><time>2026-04-04T14:45:06Z</time></trkpt><trkpt lat="44.94313701555474" lon="11.933205296863644"><ele>-3.0</ele><time>2026-04-04T14:45:08Z</time></trkpt><trkpt lat="44.943096478246815" lon="11.933274299092469"><ele>-3.0</ele><time>2026-04-04T14:45:10Z</time></trkpt><trkpt lat="44.943054436764406" lon="11.933347233285776"><ele>-2.9999999999999996</ele><time>2026-04-04T14:45:12Z</time></trkpt><trkpt lat="44.94301321688782" lon="11.933427786391558"><ele>-3.0</ele><time>2026-04-04T14:45:14Z</time></trkpt><trkpt lat="44.94297125532569" lon="11.933496841631495"><ele>-3.0</ele><time>2026-04-04T14:45:16Z</time></trkpt><trkpt lat="44.94291932327146" lon="11.933594461187461"><ele>-3.0</ele><time>2026-04-04T14:45:18Z</time></trkpt><trkpt lat="44.942874109414625" lon="11.933692244054154"><ele>-3.0</ele><time>2026-04-04T14:45:20Z</time></trkpt><trkpt lat="44.94282599056202" lon="11.933769405591883"><ele>-3.0</ele><time>2026-04-04T14:45:22Z</time></trkpt><trkpt lat="44.94278235913601" lon="11.933845620030695"><ele>-3.0</ele><time>2026-04-04T14:45:24Z</time></trkpt><trkpt lat="44.94273543366133" lon="11.933936076144239"><ele>-3.0</ele><time>2026-04-04T14:45:26Z</time></trkpt><trkpt lat="44.94269243377777" lon="11.93401969370235"><ele>-3.0</ele><time>2026-04-04T14:45:28Z</time></trkpt><trkpt lat="44.94264504978019" lon="11.934093390599134"><ele>-3.0</ele><time>2026-04-04T14:45:30Z</time></trkpt><trkpt lat="44.942606816510605" lon="11.934169308235363"><ele>-3.0</ele><time>2026-04-04T14:45:32Z</time></trkpt><trkpt lat="44.942550306398886" lon="11.93426976040308"><ele>-3.0</ele><time>2026-04-04T14:45:34Z</time></trkpt><trkpt lat="44.942506424157976" lon="11.934356367959394"><ele>-3.0</ele><time>2026-04-04T14:45:36Z</time></trkpt><trkpt lat="44.942453779541296" lon="11.934434997691463"><ele>-3.0</ele><time>2026-04-04T14:45:38Z</time></trkpt><trkpt lat="44.94239733708421" lon="11.93454310421509"><ele>-3.0</ele><time>2026-04-04T14:45:41Z</time></trkpt><trkpt lat="44.94234350833061" lon="11.934636337902807"><ele>-3.0</ele><time>2026-04-04T14:45:43Z</time></trkpt><trkpt lat="44.94229210893545" lon="11.934725740668874"><ele>-3.0</ele><time>2026-04-04T14:45:45Z</time></trkpt><trkpt lat="44.942247956998706" lon="11.934802341124769"><ele>-3.0</ele><time>2026-04-04T14:45:47Z</time></trkpt><trkpt lat="44.942208271948175" lon="11.934877065415424"><ele>-3.0</ele><time>2026-04-04T14:45:49Z</time></trkpt><trkpt lat="44.94215501852116" lon="11.934974486532356"><ele>-3.0</ele><time>2026-04-04T14:45:52Z</time></trkpt><trkpt lat="44.942101474162556" lon="11.93505143445339"><ele>-3.0</ele><time>2026-04-04T14:45:53.999Z</time></trkpt><trkpt lat="44.94204139305821" lon="11.935162446644435"><ele>-3.0</ele><time>2026-04-04T14:45:56.999Z</time></trkpt><trkpt lat="44.94199953729859" lon="11.935240161901701"><ele>-3.0</ele><time>2026-04-04T14:45:58.999Z</time></trkpt><trkpt lat="44.94194595345507" lon="11.935329592754911"><ele>-3.0</ele><time>2026-04-04T14:46:01.999Z</time></trkpt><trkpt lat="44.94188812461093" lon="11.935438303764487"><ele>-3.0</ele><time>2026-04-04T14:46:04.999Z</time></trkpt><trkpt lat="44.941839866208035" lon="11.935521892199022"><ele>-3.0</ele><time>2026-04-04T14:46:06.999Z</time></trkpt><trkpt lat="44.941795139543466" lon="11.935594012119509"><ele>-3.0</ele><time>2026-04-04T14:46:08.999Z</time></trkpt><trkpt lat="44.94175420727841" lon="11.935668776759446"><ele>-3.0</ele><time>2026-04-04T14:46:10.999Z</time></trkpt><trkpt lat="44.941706160925456" lon="11.93575734657828"><ele>-3.0</ele><time>2026-04-04T14:46:12.999Z</time></trkpt><trkpt lat="44.941651011426636" lon="11.935847055117978"><ele>-3.0</ele><time>2026-04-04T14:46:14.999Z</time></trkpt><trkpt lat="44.941601675411185" lon="11.935939961544445"><ele>-3.0</ele><time>2026-04-04T14:46:16.999Z</time></trkpt><trkpt lat="44.941550043928856" lon="11.93603047278499"><ele>-3.0</ele><time>2026-04-04T14:46:18.999Z</time></trkpt><trkpt lat="44.941503379838416" lon="11.936120804568686"><ele>-2.8333333333333335</ele><time>2026-04-04T14:46:20.999Z</time></trkpt><trkpt lat="44.94145114340259" lon="11.93620741747752"><ele>-2.6666666666666665</ele><time>2026-04-04T14:46:22.999Z</time></trkpt><trkpt lat="44.94140293161818" lon="11.936286457886098"><ele>-2.5</ele><time>2026-04-04T14:46:24.999Z</time></trkpt><trkpt lat="44.941351729345236" lon="11.936373752137744"><ele>-2.333333333333333</ele><time>2026-04-04T14:46:26.999Z</time></trkpt><trkpt lat="44.94130533037164" lon="11.936460828835981"><ele>-2.1666666666666665</ele><time>2026-04-04T14:46:28.999Z</time></trkpt><trkpt lat="44.94125109058384" lon="11.936545825263885"><ele>-2.0</ele><time>2026-04-04T14:46:30.999Z</time></trkpt><trkpt lat="44.94120370059626" lon="11.93663608008177"><ele>-1.9999999999999998</ele><time>2026-04-04T14:46:32.999Z</time></trkpt><trkpt lat="44.94115439869281" lon="11.93672058886996"><ele>-2.0</ele><time>2026-04-04T14:46:35Z</time></trkpt><trkpt lat="44.94111155607932" lon="11.936799361910932"><ele>-2.0</ele><time>2026-04-04T14:46:37Z</time></trkpt><trkpt lat="44.94105917285918" lon="11.936898006015427"><ele>-2.0</ele><time>2026-04-04T14:46:39Z</time></trkpt><trkpt lat="44.94100570146776" lon="11.936982359164535"><ele>-1.9999999999999998</ele><time>2026-04-04T14:46:41Z</time></trkpt><trkpt lat="44.94094721549506" lon="11.937078545744624"><ele>-2.0</ele><time>2026-04-04T14:46:43Z</time></trkpt><trkpt lat="44.940890366689885" lon="11.937186394961419"><ele>-2.2</ele><time>2026-04-04T14:46:45Z</time></trkpt><trkpt lat="44.94083578318706" lon="11.937292060118494"><ele>-2.4000000000000004</ele><time>2026-04-04T14:46:47Z</time></trkpt><trkpt lat="44.940773707906516" lon="11.937395018012312"><ele>-2.5999999999999996</ele><time>2026-04-04T14:46:49Z</time></trkpt><trkpt lat="44.94071669945898" lon="11.937497258547696"><ele>-2.8</ele><time>2026-04-04T14:46:51Z</time></trkpt><trkpt lat="44.94065887291888" lon="11.937590438240983"><ele>-3.0</ele><time>2026-04-04T14:46:53Z</time></trkpt><trkpt lat="44.940608754870674" lon="11.937684493170176"><ele>-3.0</ele><time>2026-04-04T14:46:55Z</time></trkpt><trkpt lat="44.94054581118624" lon="11.937781701461807"><ele>-3.0</ele><time>2026-04-04T14:46:57Z</time></trkpt><trkpt lat="44.94049060226042" lon="11.937887384575523"><ele>-3.0</ele><time>2026-04-04T14:46:59Z</time></trkpt><trkpt lat="44.94043516630988" lon="11.937990672361275"><ele>-3.0</ele><time>2026-04-04T14:47:01Z</time></trkpt><trkpt lat="44.94038072483878" lon="11.938088130406985"><ele>-3.0</ele><time>2026-04-04T14:47:03Z</time></trkpt><trkpt lat="44.94031791383127" lon="11.938190771200997"><ele>-3.0</ele><time>2026-04-04T14:47:05Z</time></trkpt><trkpt lat="44.940251345023135" lon="11.938292202876722"><ele>-3.0</ele><time>2026-04-04T14:47:07Z</time></trkpt><trkpt lat="44.9401950116022" lon="11.938392848971889"><ele>-3.0</ele><time>2026-04-04T14:47:09Z</time></trkpt><trkpt lat="44.94013861113477" lon="11.9384780806806"><ele>-3.0</ele><time>2026-04-04T14:47:11Z</time></trkpt><trkpt lat="44.940081339927204" lon="11.938580616595438"><ele>-3.0</ele><time>2026-04-04T14:47:13Z</time></trkpt><trkpt lat="44.940023656891775" lon="11.938679759871432"><ele>-2.8333333333333335</ele><time>2026-04-04T14:47:15Z</time></trkpt><trkpt lat="44.93997689952706" lon="11.938772001396499"><ele>-2.6666666666666665</ele><time>2026-04-04T14:47:17Z</time></trkpt><trkpt lat="44.939927471988874" lon="11.938849917860711"><ele>-2.5</ele><time>2026-04-04T14:47:19Z</time></trkpt><trkpt lat="44.939886889746326" lon="11.938920926322226"><ele>-2.333333333333333</ele><time>2026-04-04T14:47:21Z</time></trkpt><trkpt lat="44.93983263772098" lon="11.939020707057932"><ele>-2.1666666666666665</ele><time>2026-04-04T14:47:24Z</time></trkpt><trkpt lat="44.93980173953574" lon="11.939109492524986"><ele>-2.0</ele><time>2026-04-04T14:47:26Z</time></trkpt><trkpt lat="44.939782567933925" lon="11.939233428526888"><ele>-1.9999999999999998</ele><time>2026-04-04T14:47:29Z</time></trkpt><trkpt lat="44.93978024424733" lon="11.93935204809619"><ele>-2.0</ele><time>2026-04-04T14:47:31Z</time></trkpt><trkpt lat="44.93978454983682" lon="11.939467475783824"><ele>-2.0</ele><time>2026-04-04T14:47:33Z</time></trkpt><trkpt lat="44.939790847977754" lon="11.939573746322745"><ele>-2.0</ele><time>2026-04-04T14:47:35Z</time></trkpt><trkpt lat="44.939797877654776" lon="11.939709880192257"><ele>-1.9999999999999998</ele><time>2026-04-04T14:47:38Z</time></trkpt><trkpt lat="44.93980229649017" lon="11.939827589812966"><ele>-2.0</ele><time>2026-04-04T14:47:40Z</time></trkpt><trkpt lat="44.93981516022095" lon="11.939924471819682"><ele>-1.9999999999999998</ele><time>2026-04-04T14:47:42Z</time></trkpt><trkpt lat="44.93982337154507" lon="11.940018045928877"><ele>-2.0</ele><time>2026-04-04T14:47:44Z</time></trkpt><trkpt lat="44.93982859790857" lon="11.940146372668643"><ele>-2.0</ele><time>2026-04-04T14:47:47Z</time></trkpt><trkpt lat="44.939844376438614" lon="11.940238751665436"><ele>-2.0</ele><time>2026-04-04T14:47:49Z</time></trkpt><trkpt lat="44.93985822941221" lon="11.940349195695978"><ele>-1.9999999999999998</ele><time>2026-04-04T14:47:51Z</time></trkpt><trkpt lat="44.93988120062243" lon="11.940441819724773"><ele>-2.0</ele><time>2026-04-04T14:47:53Z</time></trkpt><trkpt lat="44.93990022294264" lon="11.940566563471855"><ele>-1.8333333333333333</ele><time>2026-04-04T14:47:55.999Z</time></trkpt><trkpt lat="44.93991567141286" lon="11.94069855159255"><ele>-1.6666666666666665</ele><time>2026-04-04T14:47:58.999Z</time></trkpt><trkpt lat="44.93993759048869" lon="11.94078437288323"><ele>-1.5</ele><time>2026-04-04T14:48:00.999Z</time></trkpt><trkpt lat="44.93995184913718" lon="11.940904350684143"><ele>-1.3333333333333333</ele><time>2026-04-04T14:48:03.999Z</time></trkpt><trkpt lat="44.93997241677509" lon="11.94101439320418"><ele>-1.1666666666666665</ele><time>2026-04-04T14:48:06.999Z</time></trkpt><trkpt lat="44.93999514853854" lon="11.941113941296207"><ele>-1.0</ele><time>2026-04-04T14:50:21.999Z</time></trkpt><trkpt lat="44.940013728746834" lon="11.94120599339721"><ele>-1.0</ele><time>2026-04-04T14:50:24.999Z</time></trkpt><trkpt lat="44.94003484978648" lon="11.9413144600943"><ele>-0.9999999999999999</ele><time>2026-04-04T14:50:27.999Z</time></trkpt><trkpt lat="44.94006422035738" lon="11.941405665777094"><ele>-1.0</ele><time>2026-04-04T14:50:29.999Z</time></trkpt><trkpt lat="44.94009989348149" lon="11.941494523219394"><ele>-1.0</ele><time>2026-04-04T14:50:31.999Z</time></trkpt><trkpt lat="44.94013935423062" lon="11.94157393481342"><ele>-0.9999999999999999</ele><time>2026-04-04T14:50:33.999Z</time></trkpt><trkpt lat="44.94019231663206" lon="11.941646527718273"><ele>-1.0</ele><time>2026-04-04T14:50:35.999Z</time></trkpt><trkpt lat="44.94024441418163" lon="11.941701314747892"><ele>-1.0</ele><time>2026-04-04T14:50:37.999Z</time></trkpt><trkpt lat="44.940316080560336" lon="11.941772433628609"><ele>-1.3333333333333333</ele><time>2026-04-04T14:50:40.999Z</time></trkpt><trkpt lat="44.94038713948446" lon="11.94180993153426"><ele>-1.6666666666666665</ele><time>2026-04-04T14:50:42.999Z</time></trkpt><trkpt lat="44.94045661077159" lon="11.941874119230738"><ele>-2.0</ele><time>2026-04-04T14:50:44.999Z</time></trkpt><trkpt lat="44.94052565213129" lon="11.941931016320089"><ele>-2.3333333333333335</ele><time>2026-04-04T14:50:47Z</time></trkpt><trkpt lat="44.94058457763287" lon="11.942008758816716"><ele>-2.6666666666666665</ele><time>2026-04-04T14:50:49Z</time></trkpt><trkpt lat="44.94063412975255" lon="11.94208871660536"><ele>-3.0</ele><time>2026-04-04T14:50:51Z</time></trkpt><trkpt lat="44.94067322443575" lon="11.942163444183524"><ele>-3.0</ele><time>2026-04-04T14:50:53Z</time></trkpt><trkpt lat="44.94071684348769" lon="11.942271529709528"><ele>-3.0</ele><time>2026-04-04T14:50:56Z</time></trkpt><trkpt lat="44.94074836175161" lon="11.942372189919318"><ele>-3.0</ele><time>2026-04-04T14:50:58Z</time></trkpt><trkpt lat="44.94078826579637" lon="11.942490077462327"><ele>-3.0</ele><time>2026-04-04T14:51:00Z</time></trkpt><trkpt lat="44.940837871910134" lon="11.942607940148054"><ele>-3.0</ele><time>2026-04-04T14:51:02Z</time></trkpt><trkpt lat="44.94086390487057" lon="11.942725949016642"><ele>-3.0</ele><time>2026-04-04T14:51:04Z</time></trkpt><trkpt lat="44.94089869439765" lon="11.942822565257847"><ele>-2.8571428571428568</ele><time>2026-04-04T14:51:06Z</time></trkpt><trkpt lat="44.94093718031192" lon="11.942914156290943"><ele>-2.7142857142857144</ele><time>2026-04-04T14:51:08Z</time></trkpt><trkpt lat="44.940962009242455" lon="11.942999954286819"><ele>-2.571428571428571</ele><time>2026-04-04T14:51:10Z</time></trkpt><trkpt lat="44.94099038161641" lon="11.943082679139772"><ele>-2.4285714285714284</ele><time>2026-04-04T14:51:12Z</time></trkpt><trkpt lat="44.94097461154447" lon="11.943182660976074"><ele>-2.2857142857142856</ele><time>2026-04-04T14:51:15Z</time></trkpt><trkpt lat="44.94089288521228" lon="11.943218392416142"><ele>-2.142857142857143</ele><time>2026-04-04T14:51:18Z</time></trkpt><trkpt lat="44.940827185175095" lon="11.943235461331302"><ele>-2.0</ele><time>2026-04-04T14:51:20Z</time></trkpt><trkpt lat="44.94074186879448" lon="11.943299231359115"><ele>-1.9999999999999998</ele><time>2026-04-04T14:51:23Z</time></trkpt><trkpt lat="44.940657225625415" lon="11.943318097923946"><ele>-2.0</ele><time>2026-04-04T14:51:25Z</time></trkpt><trkpt lat="44.940563897410954" lon="11.94334554787515"><ele>-2.0</ele><time>2026-04-04T14:51:27Z</time></trkpt><trkpt lat="44.94050329181044" lon="11.943422944804517"><ele>-2.0</ele><time>2026-04-04T14:51:29Z</time></trkpt><trkpt lat="44.940495602056956" lon="11.943543142151217"><ele>-1.9999999999999998</ele><time>2026-04-04T14:51:31Z</time></trkpt><trkpt lat="44.94053131405482" lon="11.943635068865808"><ele>-2.0</ele><time>2026-04-04T14:51:33Z</time></trkpt><trkpt lat="44.94058476510286" lon="11.943737409709234"><ele>-1.9999999999999998</ele><time>2026-04-04T14:51:35Z</time></trkpt><trkpt lat="44.94063706513407" lon="11.943849356106117"><ele>-2.0</ele><time>2026-04-04T14:51:37Z</time></trkpt><trkpt lat="44.940682906654466" lon="11.94393944831606"><ele>-2.0</ele><time>2026-04-04T14:51:39Z</time></trkpt><trkpt lat="44.94073261749377" lon="11.944023506329158"><ele>-2.0</ele><time>2026-04-04T14:51:41Z</time></trkpt><trkpt lat="44.94077448194123" lon="11.94411146942164"><ele>-1.9999999999999998</ele><time>2026-04-04T14:51:43Z</time></trkpt><trkpt lat="44.940822684597016" lon="11.944214378189244"><ele>-2.0</ele><time>2026-04-04T14:51:45Z</time></trkpt><trkpt lat="44.94086979515181" lon="11.944316967458057"><ele>-1.9999999999999998</ele><time>2026-04-04T14:51:47Z</time></trkpt><trkpt lat="44.94090955516557" lon="11.944409140375736"><ele>-2.0</ele><time>2026-04-04T14:51:49Z</time></trkpt><trkpt lat="44.940955799203294" lon="11.944504573323323"><ele>-2.0</ele><time>2026-04-04T14:51:51Z</time></trkpt><trkpt lat="44.94100828111817" lon="11.94461458190043"><ele>-2.0</ele><time>2026-04-04T14:51:53Z</time></trkpt><trkpt lat="44.941056034747405" lon="11.944727588620779"><ele>-1.9999999999999998</ele><time>2026-04-04T14:51:55Z</time></trkpt><trkpt lat="44.9411027364186" lon="11.944832243711005"><ele>-2.0</ele><time>2026-04-04T14:51:57Z</time></trkpt><trkpt lat="44.94114344692323" lon="11.944939518247438"><ele>-1.8333333333333333</ele><time>2026-04-04T14:51:59Z</time></trkpt><trkpt lat="44.941193793109605" lon="11.945056107434223"><ele>-1.6666666666666665</ele><time>2026-04-04T14:52:01Z</time></trkpt><trkpt lat="44.941234209927465" lon="11.945177813106085"><ele>-1.5</ele><time>2026-04-04T14:52:03Z</time></trkpt><trkpt lat="44.94126763959241" lon="11.945292522558617"><ele>-1.3333333333333333</ele><time>2026-04-04T14:52:05Z</time></trkpt><trkpt lat="44.94129345228256" lon="11.945406926855018"><ele>-1.1666666666666665</ele><time>2026-04-04T14:52:07Z</time></trkpt><trkpt lat="44.94131421817657" lon="11.945512582918218"><ele>-1.0</ele><time>2026-04-04T14:52:09Z</time></trkpt><trkpt lat="44.9413359912601" lon="11.945634621024865"><ele>-1.0</ele><time>2026-04-04T14:52:11Z</time></trkpt><trkpt lat="44.94135840377354" lon="11.94576238227889"><ele>-1.0</ele><time>2026-04-04T14:52:13Z</time></trkpt><trkpt lat="44.94138626635016" lon="11.945886875570524"><ele>-1.0</ele><time>2026-04-04T14:52:14.999Z</time></trkpt><trkpt lat="44.94140845047385" lon="11.946019508278772"><ele>-1.0</ele><time>2026-04-04T14:52:16.999Z</time></trkpt><trkpt lat="44.941444565484716" lon="11.946148206332666"><ele>-1.0</ele><time>2026-04-04T14:52:18.999Z</time></trkpt><trkpt lat="44.94148184032291" lon="11.946272577060482"><ele>-0.9999999999999999</ele><time>2026-04-04T14:52:20.999Z</time></trkpt><trkpt lat="44.94150893274439" lon="11.946387322105162"><ele>-1.0</ele><time>2026-04-04T14:52:22.999Z</time></trkpt><trkpt lat="44.94153060626344" lon="11.946489302043474"><ele>-1.0</ele><time>2026-04-04T14:52:24.999Z</time></trkpt><trkpt lat="44.94157039851227" lon="11.946586191627118"><ele>-1.0</ele><time>2026-04-04T14:52:26.999Z</time></trkpt><trkpt lat="44.94160532883202" lon="11.946702993002326"><ele>-0.9999999999999999</ele><time>2026-04-04T14:52:28.999Z</time></trkpt><trkpt lat="44.941643210656636" lon="11.946807326520846"><ele>-1.0</ele><time>2026-04-04T14:52:30.999Z</time></trkpt><trkpt lat="44.94167493532094" lon="11.946897259282833"><ele>-1.0</ele><time>2026-04-04T14:52:32.999Z</time></trkpt><trkpt lat="44.94165080007984" lon="11.946988744720196"><ele>-0.9999999999999999</ele><time>2026-04-04T14:52:34.999Z</time></trkpt><trkpt lat="44.94158466748571" lon="11.947001609500381"><ele>-1.0</ele><time>2026-04-04T14:52:36.999Z</time></trkpt><trkpt lat="44.94151142498119" lon="11.947025478389001"><ele>-1.0</ele><time>2026-04-04T14:52:38.999Z</time></trkpt><trkpt lat="44.94144428715914" lon="11.947042688420861"><ele>-0.9999999999999999</ele><time>2026-04-04T14:52:40.999Z</time></trkpt><trkpt lat="44.94137832772132" lon="11.947050083209827"><ele>-1.0</ele><time>2026-04-04T14:52:42.999Z</time></trkpt><trkpt lat="44.94131504545492" lon="11.947064087857761"><ele>-1.0</ele><time>2026-04-04T14:52:44.999Z</time></trkpt><trkpt lat="44.94125243903477" lon="11.947074971043302"><ele>-0.9999999999999999</ele><time>2026-04-04T14:52:46.999Z</time></trkpt><trkpt lat="44.9411628070786" lon="11.947097901774871"><ele>-1.0</ele><time>2026-04-04T14:52:49.999Z</time></trkpt><trkpt lat="44.94107618090903" lon="11.947122682669558"><ele>-1.0</ele><time>2026-04-04T14:52:53Z</time></trkpt><trkpt lat="44.94099210522848" lon="11.9471411598186"><ele>-1.0</ele><time>2026-04-04T14:52:56Z</time></trkpt><trkpt lat="44.94093064860509" lon="11.947170688901041"><ele>-0.9999999999999999</ele><time>2026-04-04T14:52:58Z</time></trkpt><trkpt lat="44.940867473550746" lon="11.947155682379346"><ele>-1.0</ele><time>2026-04-04T14:53:00Z</time></trkpt><trkpt lat="44.94080200230756" lon="11.947182113811571"><ele>-1.0</ele><time>2026-04-04T14:53:02Z</time></trkpt><trkpt lat="44.94073540113215" lon="11.947202577743198"><ele>-0.9999999999999999</ele><time>2026-04-04T14:53:04Z</time></trkpt><trkpt lat="44.94066843963954" lon="11.947203892309846"><ele>-1.0</ele><time>2026-04-04T14:53:06Z</time></trkpt><trkpt lat="44.94059643054924" lon="11.947226789963814"><ele>-1.0</ele><time>2026-04-04T14:53:08Z</time></trkpt><trkpt lat="44.940530814330614" lon="11.947249624977605"><ele>-0.9999999999999999</ele><time>2026-04-04T14:53:10Z</time></trkpt><trkpt lat="44.94046777109495" lon="11.947259530888722"><ele>-1.0</ele><time>2026-04-04T14:53:12Z</time></trkpt><trkpt lat="44.94038031943272" lon="11.947277418725538"><ele>-1.0</ele><time>2026-04-04T14:53:15Z</time></trkpt><trkpt lat="44.94031662834658" lon="11.947287253612496"><ele>-0.9999999999999999</ele><time>2026-04-04T14:53:17Z</time></trkpt><trkpt lat="44.94022622379012" lon="11.947302428965296"><ele>-1.0</ele><time>2026-04-04T14:53:20Z</time></trkpt><trkpt lat="44.94014084138312" lon="11.947322689456668"><ele>-1.0</ele><time>2026-04-04T14:53:23Z</time></trkpt><trkpt lat="44.94005093982632" lon="11.947323375282167"><ele>-1.0</ele><time>2026-04-04T14:53:26Z</time></trkpt><trkpt lat="44.93998747176548" lon="11.947353445764339"><ele>-0.9999999999999999</ele><time>2026-04-04T14:53:28Z</time></trkpt><trkpt lat="44.93990176373911" lon="11.947378114293695"><ele>-1.0</ele><time>2026-04-04T14:53:31Z</time></trkpt><trkpt lat="44.939825634839686" lon="11.94740155547805"><ele>-1.2857142857142856</ele><time>2026-04-04T14:53:34Z</time></trkpt><trkpt lat="44.9397535790803" lon="11.947407494352255"><ele>-1.5714285714285712</ele><time>2026-04-04T14:53:37Z</time></trkpt><trkpt lat="44.93968775885812" lon="11.947427199017872"><ele>-1.857142857142857</ele><time>2026-04-04T14:53:39Z</time></trkpt><trkpt lat="44.939608184443095" lon="11.947419369130275"><ele>-2.142857142857143</ele><time>2026-04-04T14:53:41Z</time></trkpt><trkpt lat="44.93953278295712" lon="11.947448067114685"><ele>-2.4285714285714284</ele><time>2026-04-04T14:53:43Z</time></trkpt><trkpt lat="44.939465946971254" lon="11.94746793647966"><ele>-2.714285714285714</ele><time>2026-04-04T14:53:45Z</time></trkpt><trkpt lat="44.939403168091864" lon="11.947500830979966"><ele>-3.0</ele><time>2026-04-04T14:53:47Z</time></trkpt><trkpt lat="44.939331905304" lon="11.947511326120019"><ele>-3.0</ele><time>2026-04-04T14:53:49Z</time></trkpt><trkpt lat="44.93923371256643" lon="11.947516045247024"><ele>-3.0</ele><time>2026-04-04T14:53:52Z</time></trkpt><trkpt lat="44.93914229564496" lon="11.947542571689112"><ele>-3.0</ele><time>2026-04-04T14:53:55Z</time></trkpt><trkpt lat="44.93905245246925" lon="11.947553401644637"><ele>-3.0</ele><time>2026-04-04T14:53:58Z</time></trkpt><trkpt lat="44.93896724325439" lon="11.947577505660254"><ele>-3.0</ele><time>2026-04-04T14:54:01Z</time></trkpt><trkpt lat="44.93887636377066" lon="11.94758879079279"><ele>-2.9999999999999996</ele><time>2026-04-04T14:54:03.999Z</time></trkpt><trkpt lat="44.938807677387004" lon="11.947612371417"><ele>-3.0</ele><time>2026-04-04T14:54:05.999Z</time></trkpt><trkpt lat="44.93874313487254" lon="11.94762317026786"><ele>-3.0</ele><time>2026-04-04T14:54:07.999Z</time></trkpt><trkpt lat="44.93867701122797" lon="11.94764213969027"><ele>-3.0</ele><time>2026-04-04T14:54:09.999Z</time></trkpt><trkpt lat="44.93861453999638" lon="11.947660590911074"><ele>-3.0</ele><time>2026-04-04T14:54:11.999Z</time></trkpt><trkpt lat="44.93851657504138" lon="11.947676473944083"><ele>-2.9999999999999996</ele><time>2026-04-04T14:54:14.999Z</time></trkpt><trkpt lat="44.93844352551448" lon="11.947698942675796"><ele>-3.0</ele><time>2026-04-04T14:54:16.999Z</time></trkpt><trkpt lat="44.938374655968545" lon="11.947720697168979"><ele>-2.8333333333333335</ele><time>2026-04-04T14:54:18.999Z</time></trkpt><trkpt lat="44.93830858946313" lon="11.947729783749601"><ele>-2.6666666666666665</ele><time>2026-04-04T14:54:20.999Z</time></trkpt><trkpt lat="44.938207769663066" lon="11.947734415492828"><ele>-2.5</ele><time>2026-04-04T14:54:23.999Z</time></trkpt><trkpt lat="44.938135009326544" lon="11.947756652538216"><ele>-2.333333333333333</ele><time>2026-04-04T14:54:25.999Z</time></trkpt><trkpt lat="44.93805677705213" lon="11.947778485431453"><ele>-2.1666666666666665</ele><time>2026-04-04T14:54:27.999Z</time></trkpt><trkpt lat="44.93797496560346" lon="11.947798689437564"><ele>-2.0</ele><time>2026-04-04T14:54:29.999Z</time></trkpt><trkpt lat="44.93789037604789" lon="11.947822811732017"><ele>-1.9999999999999998</ele><time>2026-04-04T14:54:31.999Z</time></trkpt><trkpt lat="44.93781133433447" lon="11.947847518051894"><ele>-2.0</ele><time>2026-04-04T14:54:33.999Z</time></trkpt><trkpt lat="44.93772831846114" lon="11.9478651997395"><ele>-2.0</ele><time>2026-04-04T14:54:35.999Z</time></trkpt><trkpt lat="44.93763863699904" lon="11.947886763057378"><ele>-2.0</ele><time>2026-04-04T14:54:37.999Z</time></trkpt><trkpt lat="44.93754582611711" lon="11.947910336136381"><ele>-1.9999999999999998</ele><time>2026-04-04T14:54:39.999Z</time></trkpt><trkpt lat="44.937448510179266" lon="11.947927259759137"><ele>-2.0</ele><time>2026-04-04T14:54:41.999Z</time></trkpt><trkpt lat="44.93735057698734" lon="11.947946626088841"><ele>-2.0</ele><time>2026-04-04T14:54:43.999Z</time></trkpt><trkpt lat="44.93725331837637" lon="11.947960033345272"><ele>-2.0</ele><time>2026-04-04T14:54:45.999Z</time></trkpt><trkpt lat="44.93715764595795" lon="11.947990553536163"><ele>-2.0</ele><time>2026-04-04T14:54:47.999Z</time></trkpt><trkpt lat="44.93706217899548" lon="11.948006786479734"><ele>-2.0</ele><time>2026-04-04T14:54:49.999Z</time></trkpt><trkpt lat="44.936963087208916" lon="11.948030018047149"><ele>-2.0</ele><time>2026-04-04T14:54:51.999Z</time></trkpt><trkpt lat="44.936866991295275" lon="11.948054746008381"><ele>-2.0</ele><time>2026-04-04T14:54:53.999Z</time></trkpt><trkpt lat="44.936770728498566" lon="11.948078578769668"><ele>-2.0</ele><time>2026-04-04T14:54:55.999Z</time></trkpt><trkpt lat="44.93667654687336" lon="11.94809526233056"><ele>-2.0</ele><time>2026-04-04T14:54:58Z</time></trkpt><trkpt lat="44.93657783355801" lon="11.94811934336795"><ele>-2.0</ele><time>2026-04-04T14:55:00Z</time></trkpt><trkpt lat="44.93648292181449" lon="11.94813179626038"><ele>-2.0</ele><time>2026-04-04T14:55:02Z</time></trkpt><trkpt lat="44.93638641547629" lon="11.948139956334082"><ele>-2.2</ele><time>2026-04-04T14:55:04Z</time></trkpt><trkpt lat="44.93629059542475" lon="11.9481656612729"><ele>-2.4000000000000004</ele><time>2026-04-04T14:55:06Z</time></trkpt><trkpt lat="44.93619516093619" lon="11.948190724707226"><ele>-2.5999999999999996</ele><time>2026-04-04T14:55:08Z</time></trkpt><trkpt lat="44.93610100777257" lon="11.948218391394189"><ele>-2.8</ele><time>2026-04-04T14:55:10Z</time></trkpt><trkpt lat="44.93600759307468" lon="11.948231109882498"><ele>-3.0</ele><time>2026-04-04T14:55:12Z</time></trkpt><trkpt lat="44.935912891844055" lon="11.94824994639418"><ele>-3.0</ele><time>2026-04-04T14:55:14Z</time></trkpt><trkpt lat="44.935819592889366" lon="11.948286700224106"><ele>-3.0</ele><time>2026-04-04T14:55:16Z</time></trkpt><trkpt lat="44.93571898523145" lon="11.94830568284701"><ele>-3.0</ele><time>2026-04-04T14:55:18Z</time></trkpt><trkpt lat="44.935621164691206" lon="11.948316452290989"><ele>-3.0</ele><time>2026-04-04T14:55:20Z</time></trkpt><trkpt lat="44.935526930436254" lon="11.94834591033615"><ele>-3.0</ele><time>2026-04-04T14:55:22Z</time></trkpt><trkpt lat="44.93543212935244" lon="11.948368549720385"><ele>-3.0</ele><time>2026-04-04T14:55:24Z</time></trkpt><trkpt lat="44.93533777094038" lon="11.948394630684005"><ele>-3.0</ele><time>2026-04-04T14:55:26Z</time></trkpt><trkpt lat="44.935240887516024" lon="11.948415086322097"><ele>-3.0</ele><time>2026-04-04T14:55:28Z</time></trkpt><trkpt lat="44.935143093785356" lon="11.948433535051036"><ele>-3.0</ele><time>2026-04-04T14:55:30Z</time></trkpt><trkpt lat="44.9350455573226" lon="11.948459853554585"><ele>-3.0</ele><time>2026-04-04T14:55:32Z</time></trkpt><trkpt lat="44.93494968179143" lon="11.948487446781334"><ele>-3.0</ele><time>2026-04-04T14:55:34Z</time></trkpt><trkpt lat="44.93485261679415" lon="11.948514742967156"><ele>-3.0</ele><time>2026-04-04T14:55:36Z</time></trkpt><trkpt lat="44.934756015031205" lon="11.948536494158455"><ele>-3.0</ele><time>2026-04-04T14:55:38Z</time></trkpt><trkpt lat="44.934662784363795" lon="11.948554372884855"><ele>-3.0</ele><time>2026-04-04T14:55:40Z</time></trkpt><trkpt lat="44.93457768854591" lon="11.948578733985673"><ele>-3.0</ele><time>2026-04-04T14:55:42Z</time></trkpt><trkpt lat="44.93449976278906" lon="11.948605052993837"><ele>-2.9999999999999996</ele><time>2026-04-04T14:55:44Z</time></trkpt><trkpt lat="44.93442815862707" lon="11.948620095884174"><ele>-3.0</ele><time>2026-04-04T14:55:46Z</time></trkpt><trkpt lat="44.934362163191295" lon="11.948633370984833"><ele>-3.0</ele><time>2026-04-04T14:55:48Z</time></trkpt><trkpt lat="44.934291945794875" lon="11.948639898346636"><ele>-3.0</ele><time>2026-04-04T14:55:50Z</time></trkpt><trkpt lat="44.934214412750215" lon="11.948663517550962"><ele>-3.0</ele><time>2026-04-04T14:55:52Z</time></trkpt><trkpt lat="44.93413321668037" lon="11.94868161409659"><ele>-2.9999999999999996</ele><time>2026-04-04T14:55:54Z</time></trkpt><trkpt lat="44.93405871049582" lon="11.948707178130697"><ele>-3.0</ele><time>2026-04-04T14:55:56Z</time></trkpt><trkpt lat="44.933986874613275" lon="11.948719675164705"><ele>-3.0</ele><time>2026-04-04T14:55:58Z</time></trkpt><trkpt lat="44.93391824250239" lon="11.948735668991453"><ele>-3.0</ele><time>2026-04-04T14:56:00Z</time></trkpt><trkpt lat="44.93384581824321" lon="11.9487342036339"><ele>-3.0</ele><time>2026-04-04T14:56:02Z</time></trkpt><trkpt lat="44.93376507021968" lon="11.948764594821174"><ele>-3.0</ele><time>2026-04-04T14:56:04Z</time></trkpt><trkpt lat="44.933683523519626" lon="11.948781162529912"><ele>-3.0</ele><time>2026-04-04T14:56:06Z</time></trkpt><trkpt lat="44.9336005094129" lon="11.948792720704528"><ele>-3.0</ele><time>2026-04-04T14:56:08Z</time></trkpt><trkpt lat="44.93351997179342" lon="11.948822283378195"><ele>-3.0</ele><time>2026-04-04T14:56:10Z</time></trkpt><trkpt lat="44.93343885661607" lon="11.948847333518723"><ele>-3.0</ele><time>2026-04-04T14:56:12Z</time></trkpt><trkpt lat="44.93336207956574" lon="11.948870954504518"><ele>-3.0</ele><time>2026-04-04T14:56:13.999Z</time></trkpt><trkpt lat="44.93328720965384" lon="11.948875848290992"><ele>-3.0</ele><time>2026-04-04T14:56:15.999Z</time></trkpt><trkpt lat="44.93322042510008" lon="11.94891043225323"><ele>-3.0</ele><time>2026-04-04T14:56:17.999Z</time></trkpt><trkpt lat="44.933147636242985" lon="11.948927028971978"><ele>-3.0</ele><time>2026-04-04T14:56:19.999Z</time></trkpt><trkpt lat="44.93307365534567" lon="11.948942799343662"><ele>-3.1666666666666665</ele><time>2026-04-04T14:56:21.999Z</time></trkpt><trkpt lat="44.93299087488277" lon="11.94896038549828"><ele>-3.333333333333333</ele><time>2026-04-04T14:56:23.999Z</time></trkpt><trkpt lat="44.93291554310254" lon="11.948940069920644"><ele>-3.5</ele><time>2026-04-04T14:56:25.999Z</time></trkpt><trkpt lat="44.93283372998388" lon="11.948968669161076"><ele>-3.6666666666666665</ele><time>2026-04-04T14:56:27.999Z</time></trkpt><trkpt lat="44.93275791595802" lon="11.94900239167925"><ele>-3.833333333333333</ele><time>2026-04-04T14:56:29.999Z</time></trkpt><trkpt lat="44.932688232234746" lon="11.94902210384866"><ele>-4.0</ele><time>2026-04-04T14:56:31.999Z</time></trkpt><trkpt lat="44.93262298192724" lon="11.949038455940821"><ele>-3.8571428571428568</ele><time>2026-04-04T14:56:33.999Z</time></trkpt><trkpt lat="44.93255415468838" lon="11.949063670030473"><ele>-3.714285714285714</ele><time>2026-04-04T14:56:35.999Z</time></trkpt><trkpt lat="44.93249001794405" lon="11.949063978886608"><ele>-3.571428571428571</ele><time>2026-04-04T14:56:37.999Z</time></trkpt><trkpt lat="44.932412531913464" lon="11.949087905330076"><ele>-3.4285714285714284</ele><time>2026-04-04T14:56:39.999Z</time></trkpt><trkpt lat="44.932336796464995" lon="11.94910753619039"><ele>-3.2857142857142856</ele><time>2026-04-04T14:56:41.999Z</time></trkpt><trkpt lat="44.93226075895182" lon="11.949113065175869"><ele>-3.1428571428571423</ele><time>2026-04-04T14:56:43.999Z</time></trkpt><trkpt lat="44.93219830649228" lon="11.949125456382298"><ele>-3.0</ele><time>2026-04-04T14:56:45.999Z</time></trkpt><trkpt lat="44.93212892358092" lon="11.949134587605657"><ele>-3.0</ele><time>2026-04-04T14:56:47.999Z</time></trkpt><trkpt lat="44.93205166511917" lon="11.94915923869105"><ele>-3.0</ele><time>2026-04-04T14:56:49.999Z</time></trkpt><trkpt lat="44.93197300688616" lon="11.94917519697748"><ele>-3.0</ele><time>2026-04-04T14:56:51.999Z</time></trkpt><trkpt lat="44.93189659633156" lon="11.949188288908775"><ele>-3.0</ele><time>2026-04-04T14:56:53.999Z</time></trkpt><trkpt lat="44.93180512653427" lon="11.949205475717765"><ele>-3.0</ele><time>2026-04-04T14:56:55.999Z</time></trkpt><trkpt lat="44.93171339357714" lon="11.94923167501514"><ele>-3.0</ele><time>2026-04-04T14:56:57.999Z</time></trkpt><trkpt lat="44.93162062392155" lon="11.949250687625065"><ele>-3.2</ele><time>2026-04-04T14:56:59.999Z</time></trkpt><trkpt lat="44.93151762024996" lon="11.949275276404263"><ele>-3.4</ele><time>2026-04-04T14:57:01.999Z</time></trkpt><trkpt lat="44.93142381977428" lon="11.949296312094567"><ele>-3.6000000000000005</ele><time>2026-04-04T14:57:04Z</time></trkpt><trkpt lat="44.931330198125735" lon="11.949316366099461"><ele>-3.8000000000000003</ele><time>2026-04-04T14:57:06Z</time></trkpt><trkpt lat="44.9312318030382" lon="11.949341352461552"><ele>-4.0</ele><time>2026-04-04T14:57:08Z</time></trkpt><trkpt lat="44.931136984240226" lon="11.949358470308342"><ele>-4.0</ele><time>2026-04-04T14:57:10Z</time></trkpt><trkpt lat="44.931042296701875" lon="11.949380350822688"><ele>-4.0</ele><time>2026-04-04T14:57:12Z</time></trkpt><trkpt lat="44.93094422199537" lon="11.949400590154186"><ele>-4.0</ele><time>2026-04-04T14:57:14Z</time></trkpt><trkpt lat="44.93084472911775" lon="11.949417481565689"><ele>-4.0</ele><time>2026-04-04T14:57:16Z</time></trkpt><trkpt lat="44.93074604744252" lon="11.94943674869717"><ele>-4.0</ele><time>2026-04-04T14:57:18Z</time></trkpt><trkpt lat="44.93065111728867" lon="11.949469209698128"><ele>-4.0</ele><time>2026-04-04T14:57:20Z</time></trkpt><trkpt lat="44.930551685977136" lon="11.9494902223572"><ele>-4.0</ele><time>2026-04-04T14:57:22Z</time></trkpt><trkpt lat="44.93045275793376" lon="11.949511634296181"><ele>-4.0</ele><time>2026-04-04T14:57:24Z</time></trkpt><trkpt lat="44.93035615681213" lon="11.949534471492669"><ele>-4.0</ele><time>2026-04-04T14:57:26Z</time></trkpt><trkpt lat="44.93025831148293" lon="11.949561317608838"><ele>-4.0</ele><time>2026-04-04T14:57:28Z</time></trkpt><trkpt lat="44.93015981055839" lon="11.949570917687813"><ele>-4.0</ele><time>2026-04-04T14:57:30Z</time></trkpt><trkpt lat="44.93006368218178" lon="11.949604148044129"><ele>-4.0</ele><time>2026-04-04T14:57:32Z</time></trkpt><trkpt lat="44.929968485045535" lon="11.94962523800575"><ele>-4.0</ele><time>2026-04-04T14:57:34Z</time></trkpt><trkpt lat="44.92987265283944" lon="11.949642679968692"><ele>-4.0</ele><time>2026-04-04T14:57:36Z</time></trkpt><trkpt lat="44.929778030726276" lon="11.949674154956751"><ele>-4.0</ele><time>2026-04-04T14:57:38Z</time></trkpt><trkpt lat="44.929681046332156" lon="11.949693744144646"><ele>-3.833333333333333</ele><time>2026-04-04T14:57:40Z</time></trkpt><trkpt lat="44.92958582817315" lon="11.949705256746435"><ele>-3.6666666666666665</ele><time>2026-04-04T14:57:42Z</time></trkpt><trkpt lat="44.929495962605536" lon="11.949735239323315"><ele>-3.5</ele><time>2026-04-04T14:57:44Z</time></trkpt><trkpt lat="44.929417627269714" lon="11.949752756500013"><ele>-3.333333333333333</ele><time>2026-04-04T14:57:46Z</time></trkpt><trkpt lat="44.92934222379722" lon="11.949767934060056"><ele>-3.1666666666666665</ele><time>2026-04-04T14:57:48Z</time></trkpt><trkpt lat="44.92926133723979" lon="11.949775704426997"><ele>-3.0</ele><time>2026-04-04T14:57:50Z</time></trkpt><trkpt lat="44.92917835705595" lon="11.949799043193154"><ele>-3.0</ele><time>2026-04-04T14:57:52Z</time></trkpt><trkpt lat="44.929092207268106" lon="11.949817375531323"><ele>-3.0</ele><time>2026-04-04T14:57:54Z</time></trkpt><trkpt lat="44.929013339385186" lon="11.949832774149488"><ele>-3.0</ele><time>2026-04-04T14:57:56Z</time></trkpt><trkpt lat="44.928932786149424" lon="11.94986275271688"><ele>-3.0</ele><time>2026-04-04T14:57:58Z</time></trkpt><trkpt lat="44.92886151239206" lon="11.949896484822185"><ele>-3.0</ele><time>2026-04-04T14:58:00Z</time></trkpt><trkpt lat="44.92878960210863" lon="11.94990460824556"><ele>-3.0</ele><time>2026-04-04T14:58:02Z</time></trkpt><trkpt lat="44.92870139644081" lon="11.94990356984166"><ele>-3.0</ele><time>2026-04-04T14:58:04Z</time></trkpt><trkpt lat="44.92860604976838" lon="11.949931538506886"><ele>-3.0</ele><time>2026-04-04T14:58:06Z</time></trkpt><trkpt lat="44.92851019737626" lon="11.949948011796309"><ele>-3.0</ele><time>2026-04-04T14:58:08Z</time></trkpt><trkpt lat="44.92841481365003" lon="11.94997668878075"><ele>-3.0</ele><time>2026-04-04T14:58:10Z</time></trkpt><trkpt lat="44.9283208391464" lon="11.949999404572647"><ele>-3.0</ele><time>2026-04-04T14:58:12Z</time></trkpt><trkpt lat="44.92823443526835" lon="11.950007077481187"><ele>-3.0</ele><time>2026-04-04T14:58:14Z</time></trkpt><trkpt lat="44.92814793943588" lon="11.950033086967222"><ele>-3.0</ele><time>2026-04-04T14:58:16Z</time></trkpt><trkpt lat="44.92805584695025" lon="11.95005171252938"><ele>-3.0</ele><time>2026-04-04T14:58:17.999Z</time></trkpt><trkpt lat="44.9279602713438" lon="11.950075656118793"><ele>-3.0</ele><time>2026-04-04T14:58:19.999Z</time></trkpt><trkpt lat="44.9278630167118" lon="11.950090972235554"><ele>-3.0</ele><time>2026-04-04T14:58:21.999Z</time></trkpt><trkpt lat="44.927766190981686" lon="11.950118732037836"><ele>-2.8333333333333335</ele><time>2026-04-04T14:58:23.999Z</time></trkpt><trkpt lat="44.92767829840119" lon="11.950158055723897"><ele>-2.6666666666666665</ele><time>2026-04-04T14:58:25.999Z</time></trkpt><trkpt lat="44.927596125175675" lon="11.950178087444998"><ele>-2.5</ele><time>2026-04-04T14:58:27.999Z</time></trkpt><trkpt lat="44.927519656187314" lon="11.95019694687536"><ele>-2.333333333333333</ele><time>2026-04-04T14:58:29.999Z</time></trkpt><trkpt lat="44.92745086905943" lon="11.950209085666655"><ele>-2.1666666666666665</ele><time>2026-04-04T14:58:31.999Z</time></trkpt><trkpt lat="44.92738792331346" lon="11.950225279661474"><ele>-2.0</ele><time>2026-04-04T14:58:33.999Z</time></trkpt><trkpt lat="44.92729869778592" lon="11.950238135595534"><ele>-1.8333333333333333</ele><time>2026-04-04T14:58:36.999Z</time></trkpt><trkpt lat="44.927212413019014" lon="11.950254959351529"><ele>-1.6666666666666665</ele><time>2026-04-04T14:58:39.999Z</time></trkpt><trkpt lat="44.927140984153525" lon="11.95027555195583"><ele>-1.5</ele><time>2026-04-04T14:58:42.999Z</time></trkpt><trkpt lat="44.92706755058196" lon="11.950284576910962"><ele>-1.3333333333333333</ele><time>2026-04-04T14:58:45.999Z</time></trkpt><trkpt lat="44.92698938663749" lon="11.950309623591009"><ele>-1.1666666666666665</ele><time>2026-04-04T14:58:48.999Z</time></trkpt><trkpt lat="44.926918001634604" lon="11.950324182769544"><ele>-1.0</ele><time>2026-04-04T14:58:51.999Z</time></trkpt><trkpt lat="44.92683571602255" lon="11.950337587777664"><ele>-0.9999999999999999</ele><time>2026-04-04T14:58:54.999Z</time></trkpt><trkpt lat="44.92675572540982" lon="11.950357427330228"><ele>-1.0</ele><time>2026-04-04T14:58:57.999Z</time></trkpt><trkpt lat="44.92667506927928" lon="11.950380736288501"><ele>-1.0</ele><time>2026-04-04T14:59:00.999Z</time></trkpt><trkpt lat="44.926587444486714" lon="11.950400700552734"><ele>-1.0</ele><time>2026-04-04T14:59:03.999Z</time></trkpt><trkpt lat="44.92650505295408" lon="11.950427483245607"><ele>-0.9999999999999999</ele><time>2026-04-04T14:59:06.999Z</time></trkpt><trkpt lat="44.926441309522545" lon="11.950436856195953"><ele>-1.0</ele><time>2026-04-04T14:59:08.999Z</time></trkpt><trkpt lat="44.92637215790984" lon="11.950449534718313"><ele>-0.9999999999999999</ele><time>2026-04-04T14:59:11Z</time></trkpt><trkpt lat="44.926275871201746" lon="11.950451747065527"><ele>-1.0</ele><time>2026-04-04T14:59:14Z</time></trkpt><trkpt lat="44.92620043550142" lon="11.950461785118527"><ele>-1.0</ele><time>2026-04-04T14:59:16Z</time></trkpt><trkpt lat="44.92611952516221" lon="11.950478460349656"><ele>-1.0</ele><time>2026-04-04T14:59:18Z</time></trkpt><trkpt lat="44.92604051035103" lon="11.950500003968598"><ele>-0.9999999999999999</ele><time>2026-04-04T14:59:20Z</time></trkpt><trkpt lat="44.92595964822871" lon="11.950516901213911"><ele>-1.0</ele><time>2026-04-04T14:59:22Z</time></trkpt><trkpt lat="44.92588625325718" lon="11.950528473326024"><ele>-1.3333333333333333</ele><time>2026-04-04T14:59:24Z</time></trkpt><trkpt lat="44.925817228246586" lon="11.950545189869079"><ele>-1.6666666666666665</ele><time>2026-04-04T14:59:26Z</time></trkpt><trkpt lat="44.92572136744726" lon="11.950564605945363"><ele>-2.0</ele><time>2026-04-04T14:59:29Z</time></trkpt><trkpt lat="44.925649730447425" lon="11.95057629550564"><ele>-2.3333333333333335</ele><time>2026-04-04T14:59:31Z</time></trkpt><trkpt lat="44.92558180067854" lon="11.950600029381988"><ele>-2.6666666666666665</ele><time>2026-04-04T14:59:33Z</time></trkpt><trkpt lat="44.92549210239307" lon="11.95061203048121"><ele>-3.0</ele><time>2026-04-04T14:59:36Z</time></trkpt><trkpt lat="44.92540540753675" lon="11.950633976047603"><ele>-3.0</ele><time>2026-04-04T14:59:39Z</time></trkpt><trkpt lat="44.925311682406246" lon="11.950651389979638"><ele>-3.0</ele><time>2026-04-04T14:59:42Z</time></trkpt><trkpt lat="44.925236308487236" lon="11.9506639455434"><ele>-3.0</ele><time>2026-04-04T14:59:44Z</time></trkpt><trkpt lat="44.925154322319834" lon="11.950681770991444"><ele>-3.0</ele><time>2026-04-04T14:59:46Z</time></trkpt><trkpt lat="44.92507520138553" lon="11.950695373760947"><ele>-3.0</ele><time>2026-04-04T14:59:48Z</time></trkpt><trkpt lat="44.92499351719521" lon="11.950712966040632"><ele>-3.0</ele><time>2026-04-04T14:59:50Z</time></trkpt><trkpt lat="44.924917650992846" lon="11.950731579773478"><ele>-2.9999999999999996</ele><time>2026-04-04T14:59:52Z</time></trkpt><trkpt lat="44.92484724481934" lon="11.950751015698224"><ele>-3.0</ele><time>2026-04-04T14:59:54Z</time></trkpt><trkpt lat="44.92477195914073" lon="11.950764938201464"><ele>-3.0</ele><time>2026-04-04T14:59:56Z</time></trkpt><trkpt lat="44.92469491286325" lon="11.950785059089734"><ele>-3.0</ele><time>2026-04-04T14:59:58Z</time></trkpt><trkpt lat="44.9246183732698" lon="11.950797394261418"><ele>-3.0</ele><time>2026-04-04T15:00:00Z</time></trkpt><trkpt lat="44.924544392320826" lon="11.950812609682668"><ele>-2.9999999999999996</ele><time>2026-04-04T15:00:02Z</time></trkpt><trkpt lat="44.924474042886644" lon="11.950830888181068"><ele>-3.0</ele><time>2026-04-04T15:00:04Z</time></trkpt><trkpt lat="44.924409539821276" lon="11.950848985152446"><ele>-2.9999999999999996</ele><time>2026-04-04T15:00:06Z</time></trkpt><trkpt lat="44.92434243024097" lon="11.950860752456988"><ele>-3.0</ele><time>2026-04-04T15:00:08Z</time></trkpt><trkpt lat="44.92426488163819" lon="11.950876521023448"><ele>-3.0</ele><time>2026-04-04T15:00:10Z</time></trkpt><trkpt lat="44.92418671447656" lon="11.950891939957645"><ele>-3.0</ele><time>2026-04-04T15:00:12Z</time></trkpt><trkpt lat="44.92411643393309" lon="11.950917783483643"><ele>-3.0</ele><time>2026-04-04T15:00:14Z</time></trkpt><trkpt lat="44.92405187846773" lon="11.950932176663283"><ele>-2.9999999999999996</ele><time>2026-04-04T15:00:16Z</time></trkpt><trkpt lat="44.92398637519632" lon="11.95095565025914"><ele>-3.0</ele><time>2026-04-04T15:00:18Z</time></trkpt><trkpt lat="44.923916880805386" lon="11.95097002479585"><ele>-3.0</ele><time>2026-04-04T15:00:20Z</time></trkpt><trkpt lat="44.923842612542494" lon="11.950984978400898"><ele>-3.0</ele><time>2026-04-04T15:00:22Z</time></trkpt><trkpt lat="44.923770982605916" lon="11.950994112118908"><ele>-3.0</ele><time>2026-04-04T15:00:23.999Z</time></trkpt><trkpt lat="44.9237038354816" lon="11.951008233278369"><ele>-3.0</ele><time>2026-04-04T15:00:25.999Z</time></trkpt><trkpt lat="44.92362164099189" lon="11.951030199605965"><ele>-3.0</ele><time>2026-04-04T15:00:28.999Z</time></trkpt><trkpt lat="44.923544977601956" lon="11.951044898443701"><ele>-3.0</ele><time>2026-04-04T15:00:31.999Z</time></trkpt><trkpt lat="44.923456519177726" lon="11.95106241757449"><ele>-3.0</ele><time>2026-04-04T15:00:34.999Z</time></trkpt><trkpt lat="44.923408601832755" lon="11.951133312365942"><ele>-3.0</ele><time>2026-04-04T15:00:37.999Z</time></trkpt><trkpt lat="44.923409915317" lon="11.951241758128756"><ele>-3.0</ele><time>2026-04-04T15:00:40.999Z</time></trkpt><trkpt lat="44.92339046375855" lon="11.951381424078672"><ele>-3.0</ele><time>2026-04-04T15:00:43.999Z</time></trkpt><trkpt lat="44.92337825367865" lon="11.95149040665397"><ele>-3.0</ele><time>2026-04-04T15:00:45.999Z</time></trkpt><trkpt lat="44.92336597059771" lon="11.951600804535023"><ele>-3.0</ele><time>2026-04-04T15:00:47.999Z</time></trkpt><trkpt lat="44.92334798516823" lon="11.951701987182673"><ele>-2.8571428571428568</ele><time>2026-04-04T15:00:49.999Z</time></trkpt><trkpt lat="44.92332549221381" lon="11.951826326430535"><ele>-2.7142857142857144</ele><time>2026-04-04T15:00:52.999Z</time></trkpt><trkpt lat="44.923310018517164" lon="11.951918474605671"><ele>-2.571428571428571</ele><time>2026-04-04T15:00:54.999Z</time></trkpt><trkpt lat="44.92329831772681" lon="11.952014219401926"><ele>-2.4285714285714284</ele><time>2026-04-04T15:00:56.999Z</time></trkpt><trkpt lat="44.92328204162502" lon="11.952114266138175"><ele>-2.2857142857142856</ele><time>2026-04-04T15:00:58.999Z</time></trkpt><trkpt lat="44.92326524144278" lon="11.952216253623117"><ele>-2.142857142857143</ele><time>2026-04-04T15:01:00.999Z</time></trkpt><trkpt lat="44.923254914227165" lon="11.952322090419113"><ele>-2.0</ele><time>2026-04-04T15:01:02.999Z</time></trkpt><trkpt lat="44.92324978346314" lon="11.95242307923611"><ele>-1.9999999999999998</ele><time>2026-04-04T15:01:04.999Z</time></trkpt><trkpt lat="44.92325456873371" lon="11.952514293198561"><ele>-2.0</ele><time>2026-04-04T15:01:06.999Z</time></trkpt><trkpt lat="44.92326718918356" lon="11.952644213058859"><ele>-2.0</ele><time>2026-04-04T15:01:09.999Z</time></trkpt><trkpt lat="44.923282175878725" lon="11.952746562483805"><ele>-2.0</ele><time>2026-04-04T15:01:11.999Z</time></trkpt><trkpt lat="44.923290095511256" lon="11.95284465326055"><ele>-1.9999999999999998</ele><time>2026-04-04T15:01:13.999Z</time></trkpt><trkpt lat="44.923300908006254" lon="11.952947968153346"><ele>-2.0</ele><time>2026-04-04T15:01:16Z</time></trkpt><trkpt lat="44.92331760346732" lon="11.953060062901748"><ele>-2.1666666666666665</ele><time>2026-04-04T15:01:18Z</time></trkpt><trkpt lat="44.92332518759101" lon="11.95316589042316"><ele>-2.333333333333333</ele><time>2026-04-04T15:01:20Z</time></trkpt><trkpt lat="44.92333735392321" lon="11.953261534923335"><ele>-2.5</ele><time>2026-04-04T15:01:22Z</time></trkpt><trkpt lat="44.923350434420335" lon="11.95336646691366"><ele>-2.6666666666666665</ele><time>2026-04-04T15:01:24Z</time></trkpt><trkpt lat="44.92336138390989" lon="11.953467744171208"><ele>-2.8333333333333335</ele><time>2026-04-04T15:01:26Z</time></trkpt><trkpt lat="44.92337641066936" lon="11.95356493551525"><ele>-3.0</ele><time>2026-04-04T15:01:28Z</time></trkpt><trkpt lat="44.92337142943753" lon="11.953695444600362"><ele>-3.0</ele><time>2026-04-04T15:01:31Z</time></trkpt><trkpt lat="44.92338172119248" lon="11.953797934118954"><ele>-3.0</ele><time>2026-04-04T15:01:33Z</time></trkpt><trkpt lat="44.92339441741926" lon="11.953908403054145"><ele>-3.0</ele><time>2026-04-04T15:01:35Z</time></trkpt><trkpt lat="44.923410611760914" lon="11.954021273650236"><ele>-3.0</ele><time>2026-04-04T15:01:37Z</time></trkpt><trkpt lat="44.92342153228495" lon="11.9541368414259"><ele>-3.0</ele><time>2026-04-04T15:01:39Z</time></trkpt><trkpt lat="44.9234320609324" lon="11.954252015024167"><ele>-3.0</ele><time>2026-04-04T15:01:41Z</time></trkpt><trkpt lat="44.92344295902881" lon="11.954365173918317"><ele>-3.0</ele><time>2026-04-04T15:01:43Z</time></trkpt><trkpt lat="44.923458137038196" lon="11.954479061353702"><ele>-3.0</ele><time>2026-04-04T15:01:45Z</time></trkpt><trkpt lat="44.92347241862549" lon="11.954584775768772"><ele>-3.0</ele><time>2026-04-04T15:01:47Z</time></trkpt><trkpt lat="44.92347538374003" lon="11.954685698781496"><ele>-3.0</ele><time>2026-04-04T15:01:49Z</time></trkpt><trkpt lat="44.92348030651857" lon="11.954795388241635"><ele>-3.0</ele><time>2026-04-04T15:01:51Z</time></trkpt><trkpt lat="44.92348476311071" lon="11.95490825397729"><ele>-3.0</ele><time>2026-04-04T15:01:53Z</time></trkpt><trkpt lat="44.92349598424156" lon="11.95502212968509"><ele>-3.1666666666666665</ele><time>2026-04-04T15:01:55Z</time></trkpt><trkpt lat="44.923503104718826" lon="11.955139126936473"><ele>-3.333333333333333</ele><time>2026-04-04T15:01:57Z</time></trkpt><trkpt lat="44.923514465088125" lon="11.955252153902439"><ele>-3.5</ele><time>2026-04-04T15:01:59Z</time></trkpt><trkpt lat="44.92352778482854" lon="11.955374180199094"><ele>-3.6666666666666665</ele><time>2026-04-04T15:02:01Z</time></trkpt><trkpt lat="44.923540775505856" lon="11.955509785442725"><ele>-3.833333333333333</ele><time>2026-04-04T15:02:03Z</time></trkpt><trkpt lat="44.923553280401464" lon="11.955642569274861"><ele>-4.0</ele><time>2026-04-04T15:02:05Z</time></trkpt><trkpt lat="44.92356562330158" lon="11.955779481731435"><ele>-4.0</ele><time>2026-04-04T15:02:07Z</time></trkpt><trkpt lat="44.92357500282474" lon="11.95591722907327"><ele>-4.0</ele><time>2026-04-04T15:02:09Z</time></trkpt><trkpt lat="44.92358989497022" lon="11.956055247087015"><ele>-4.0</ele><time>2026-04-04T15:02:11Z</time></trkpt><trkpt lat="44.92360364269476" lon="11.956194031973068"><ele>-4.0</ele><time>2026-04-04T15:02:13Z</time></trkpt><trkpt lat="44.923614871021385" lon="11.956330995346262"><ele>-4.0</ele><time>2026-04-04T15:02:15Z</time></trkpt><trkpt lat="44.92362841611158" lon="11.956470183476489"><ele>-4.0</ele><time>2026-04-04T15:02:17Z</time></trkpt><trkpt lat="44.92363765797606" lon="11.956605796087995"><ele>-4.0</ele><time>2026-04-04T15:02:19Z</time></trkpt><trkpt lat="44.92365071345701" lon="11.956742305363774"><ele>-4.0</ele><time>2026-04-04T15:02:21Z</time></trkpt><trkpt lat="44.923668265698254" lon="11.956880809252036"><ele>-4.0</ele><time>2026-04-04T15:02:23Z</time></trkpt><trkpt lat="44.92369044124914" lon="11.957014458271498"><ele>-4.0</ele><time>2026-04-04T15:02:25Z</time></trkpt><trkpt lat="44.92370465500342" lon="11.957143641691165"><ele>-3.9999999999999996</ele><time>2026-04-04T15:02:27Z</time></trkpt><trkpt lat="44.923715059650306" lon="11.95726273437851"><ele>-4.0</ele><time>2026-04-04T15:02:29Z</time></trkpt><trkpt lat="44.92373033938637" lon="11.957369388559277"><ele>-4.0</ele><time>2026-04-04T15:02:30.999Z</time></trkpt><trkpt lat="44.92373316322204" lon="11.957474766421276"><ele>-4.0</ele><time>2026-04-04T15:02:32.999Z</time></trkpt><trkpt lat="44.92372961876036" lon="11.957574988860898"><ele>-3.9999999999999996</ele><time>2026-04-04T15:02:34.999Z</time></trkpt><trkpt lat="44.92373862004213" lon="11.95766553044231"><ele>-4.0</ele><time>2026-04-04T15:02:36.999Z</time></trkpt><trkpt lat="44.92374964848219" lon="11.957782054846113"><ele>-3.833333333333333</ele><time>2026-04-04T15:02:38.999Z</time></trkpt><trkpt lat="44.92377249743396" lon="11.957913820271663"><ele>-3.6666666666666665</ele><time>2026-04-04T15:02:40.999Z</time></trkpt><trkpt lat="44.92378655641837" lon="11.9580384739059"><ele>-3.5</ele><time>2026-04-04T15:02:42.999Z</time></trkpt><trkpt lat="44.92379404922204" lon="11.958161288404364"><ele>-3.333333333333333</ele><time>2026-04-04T15:02:44.999Z</time></trkpt><trkpt lat="44.923805827194606" lon="11.958267250788674"><ele>-3.1666666666666665</ele><time>2026-04-04T15:02:46.999Z</time></trkpt><trkpt lat="44.92381474448938" lon="11.958366102155892"><ele>-3.0</ele><time>2026-04-04T15:02:48.999Z</time></trkpt><trkpt lat="44.92381761049217" lon="11.958470031499072"><ele>-2.8333333333333335</ele><time>2026-04-04T15:02:50.999Z</time></trkpt><trkpt lat="44.92382818770236" lon="11.958583288598314"><ele>-2.6666666666666665</ele><time>2026-04-04T15:02:52.999Z</time></trkpt><trkpt lat="44.92384373302686" lon="11.958698812066185"><ele>-2.5</ele><time>2026-04-04T15:02:54.999Z</time></trkpt><trkpt lat="44.923856832472325" lon="11.958811486242265"><ele>-2.333333333333333</ele><time>2026-04-04T15:02:56.999Z</time></trkpt><trkpt lat="44.92386678996049" lon="11.958921111626024"><ele>-2.1666666666666665</ele><time>2026-04-04T15:02:58.999Z</time></trkpt><trkpt lat="44.92387516621547" lon="11.959024881705162"><ele>-2.0</ele><time>2026-04-04T15:03:00.999Z</time></trkpt><trkpt lat="44.92388274824335" lon="11.959131128992553"><ele>-1.8333333333333333</ele><time>2026-04-04T15:03:02.999Z</time></trkpt><trkpt lat="44.92390000120075" lon="11.959235446628337"><ele>-1.6666666666666665</ele><time>2026-04-04T15:03:04.999Z</time></trkpt><trkpt lat="44.923914020012084" lon="11.959351691331127"><ele>-1.5</ele><time>2026-04-04T15:03:06.999Z</time></trkpt><trkpt lat="44.92392471936434" lon="11.95947384073675"><ele>-1.3333333333333333</ele><time>2026-04-04T15:03:08.999Z</time></trkpt><trkpt lat="44.92393647983833" lon="11.959584218908097"><ele>-1.1666666666666665</ele><time>2026-04-04T15:03:10.999Z</time></trkpt><trkpt lat="44.92394292460928" lon="11.959697009821017"><ele>-1.0</ele><time>2026-04-04T15:03:12.999Z</time></trkpt><trkpt lat="44.92396523542071" lon="11.959809659330572"><ele>-0.9999999999999999</ele><time>2026-04-04T15:03:14.999Z</time></trkpt><trkpt lat="44.923968666719084" lon="11.959923210284336"><ele>-1.0</ele><time>2026-04-04T15:03:16.999Z</time></trkpt><trkpt lat="44.92398589900343" lon="11.960030953200379"><ele>-1.0</ele><time>2026-04-04T15:03:18.999Z</time></trkpt><trkpt lat="44.92400693968699" lon="11.960134438052371"><ele>-1.0</ele><time>2026-04-04T15:03:21Z</time></trkpt><trkpt lat="44.92400230517392" lon="11.960229208832471"><ele>-0.9999999999999999</ele><time>2026-04-04T15:03:23Z</time></trkpt><trkpt lat="44.9240498458928" lon="11.960334567356275"><ele>-1.0</ele><time>2026-04-04T15:03:26Z</time></trkpt><trkpt lat="44.92412791628527" lon="11.960327271919851"><ele>-1.1428571428571428</ele><time>2026-04-04T15:03:28Z</time></trkpt><trkpt lat="44.92420055369449" lon="11.96029242074334"><ele>-1.2857142857142856</ele><time>2026-04-04T15:03:30Z</time></trkpt><trkpt lat="44.924281316943905" lon="11.96029954248091"><ele>-1.4285714285714284</ele><time>2026-04-04T15:03:32Z</time></trkpt><trkpt lat="44.9243544934885" lon="11.960265943831677"><ele>-1.5714285714285714</ele><time>2026-04-04T15:03:34Z</time></trkpt><trkpt lat="44.92442863910794" lon="11.960250155441258"><ele>-1.714285714285714</ele><time>2026-04-04T15:03:36Z</time></trkpt><trkpt lat="44.924501963413505" lon="11.960240339015549"><ele>-1.857142857142857</ele><time>2026-04-04T15:03:38Z</time></trkpt><trkpt lat="44.92456503828608" lon="11.960238577552584"><ele>-2.0</ele><time>2026-04-04T15:03:42Z</time></trkpt><trkpt lat="44.92456359493789" lon="11.960351920989881"><ele>-1.9999999999999998</ele><time>2026-04-04T15:03:46Z</time></trkpt><trkpt lat="44.92450042142958" lon="11.960418606594956"><ele>-2.0</ele><time>2026-04-04T15:03:49Z</time></trkpt><trkpt lat="44.92452170407934" lon="11.96053161173887"><ele>-2.0</ele><time>2026-04-04T15:03:52Z</time></trkpt><trkpt lat="44.9244635248804" lon="11.960476957915784"><ele>-2.0</ele><time>2026-04-04T15:05:21.999Z</time></trkpt><trkpt lat="44.92449095689278" lon="11.96035797561271"><ele>-1.9999999999999998</ele><time>2026-04-04T15:05:25.999Z</time></trkpt><trkpt lat="44.92452458624264" lon="11.960273550733394"><ele>-2.0</ele><time>2026-04-04T15:05:28Z</time></trkpt><trkpt lat="44.92445626216911" lon="11.960217797251588"><ele>-1.9999999999999998</ele><time>2026-04-04T15:05:32Z</time></trkpt><trkpt lat="44.92438415926665" lon="11.960246349974952"><ele>-2.0</ele><time>2026-04-04T15:05:34Z</time></trkpt><trkpt lat="44.92429662167169" lon="11.960249376564795"><ele>-2.0</ele><time>2026-04-04T15:05:37Z</time></trkpt><trkpt lat="44.92422128680366" lon="11.960264058343544"><ele>-2.0</ele><time>2026-04-04T15:05:40Z</time></trkpt><trkpt lat="44.92414923814449" lon="11.960291602207132"><ele>-1.9999999999999998</ele><time>2026-04-04T15:05:43Z</time></trkpt><trkpt lat="44.92407454860597" lon="11.960313880825696"><ele>-2.0</ele><time>2026-04-04T15:05:46Z</time></trkpt><trkpt lat="44.92401150499385" lon="11.960311882254901"><ele>-1.9999999999999998</ele><time>2026-04-04T15:05:49Z</time></trkpt><trkpt lat="44.923971296175495" lon="11.960384615277842"><ele>-2.0</ele><time>2026-04-04T15:05:53Z</time></trkpt><trkpt lat="44.92399696758816" lon="11.960501895778389"><ele>-2.0</ele><time>2026-04-04T15:05:55Z</time></trkpt><trkpt lat="44.9240130189153" lon="11.960613372304794"><ele>-2.0</ele><time>2026-04-04T15:05:57Z</time></trkpt><trkpt lat="44.924025151996815" lon="11.960719384761779"><ele>-1.9999999999999998</ele><time>2026-04-04T15:05:59Z</time></trkpt><trkpt lat="44.92404097269955" lon="11.960827133062413"><ele>-2.0</ele><time>2026-04-04T15:06:01Z</time></trkpt><trkpt lat="44.9240490979237" lon="11.96093894146372"><ele>-1.6666666666666665</ele><time>2026-04-04T15:06:03Z</time></trkpt><trkpt lat="44.924013324948625" lon="11.96104645522014"><ele>-1.3333333333333333</ele><time>2026-04-04T15:06:05Z</time></trkpt><trkpt lat="44.92393316801716" lon="11.961060081223774"><ele>-1.0</ele><time>2026-04-04T15:06:07Z</time></trkpt><trkpt lat="44.92384640556111" lon="11.961032641819887"><ele>-0.6666666666666666</ele><time>2026-04-04T15:06:09Z</time></trkpt><trkpt lat="44.92376180628266" lon="11.96105638231162"><ele>-0.3333333333333333</ele><time>2026-04-04T15:06:11Z</time></trkpt><trkpt lat="44.923678413511254" lon="11.961066101494106"><ele>0.0</ele><time>2026-04-04T15:06:13Z</time></trkpt><trkpt lat="44.92359198755264" lon="11.96107658573549"><ele>0.0</ele><time>2026-04-04T15:06:15Z</time></trkpt><trkpt lat="44.92351012288192" lon="11.9610999924088"><ele>0.0</ele><time>2026-04-04T15:06:17Z</time></trkpt><trkpt lat="44.92342790571939" lon="11.961108764520866"><ele>0.0</ele><time>2026-04-04T15:06:19Z</time></trkpt><trkpt lat="44.92334571766007" lon="11.96110923647639"><ele>0.0</ele><time>2026-04-04T15:06:21Z</time></trkpt><trkpt lat="44.923268026458764" lon="11.961134924304421"><ele>0.0</ele><time>2026-04-04T15:06:23Z</time></trkpt><trkpt lat="44.923191269087354" lon="11.961152018150134"><ele>0.0</ele><time>2026-04-04T15:06:25Z</time></trkpt><trkpt lat="44.923123757552" lon="11.961158016984239"><ele>-0.42857142857142855</ele><time>2026-04-04T15:06:27Z</time></trkpt><trkpt lat="44.92305942545334" lon="11.961166531482025"><ele>-0.8571428571428571</ele><time>2026-04-04T15:06:29Z</time></trkpt><trkpt lat="44.922975667076216" lon="11.96116135097358"><ele>-1.2857142857142856</ele><time>2026-04-04T15:06:32Z</time></trkpt><trkpt lat="44.92289253668717" lon="11.961160812532023"><ele>-1.7142857142857142</ele><time>2026-04-04T15:06:35Z</time></trkpt><trkpt lat="44.92282611408988" lon="11.961175467880913"><ele>-2.142857142857143</ele><time>2026-04-04T15:06:37Z</time></trkpt><trkpt lat="44.92275353048075" lon="11.961180983864136"><ele>-2.571428571428571</ele><time>2026-04-04T15:06:39Z</time></trkpt><trkpt lat="44.922683774522426" lon="11.961194258213576"><ele>-3.0</ele><time>2026-04-04T15:06:41Z</time></trkpt><trkpt lat="44.92259465473638" lon="11.961210871504434"><ele>-3.1428571428571423</ele><time>2026-04-04T15:06:44Z</time></trkpt><trkpt lat="44.92250788482195" lon="11.961215598384392"><ele>-3.2857142857142856</ele><time>2026-04-04T15:06:47Z</time></trkpt><trkpt lat="44.922442624676705" lon="11.961229883697454"><ele>-3.4285714285714284</ele><time>2026-04-04T15:06:50Z</time></trkpt><trkpt lat="44.92236884539058" lon="11.961248988517394"><ele>-3.571428571428571</ele><time>2026-04-04T15:06:53Z</time></trkpt><trkpt lat="44.922278412410776" lon="11.961241739540979"><ele>-3.714285714285714</ele><time>2026-04-04T15:06:56Z</time></trkpt><trkpt lat="44.92221290577042" lon="11.961262278220188"><ele>-3.8571428571428568</ele><time>2026-04-04T15:06:58Z</time></trkpt><trkpt lat="44.92214988593248" lon="11.961268399120284"><ele>-4.0</ele><time>2026-04-04T15:06:59.999Z</time></trkpt><trkpt lat="44.92205655180538" lon="11.961279120314455"><ele>-3.9999999999999996</ele><time>2026-04-04T15:07:02.999Z</time></trkpt><trkpt lat="44.921969712370434" lon="11.961282773704086"><ele>-4.0</ele><time>2026-04-04T15:07:05.999Z</time></trkpt><trkpt lat="44.921889266120765" lon="11.96127091709613"><ele>-4.0</ele><time>2026-04-04T15:07:08.999Z</time></trkpt><trkpt lat="44.9218247680534" lon="11.961272782667018"><ele>-4.0</ele><time>2026-04-04T15:07:10.999Z</time></trkpt><trkpt lat="44.92176021999719" lon="11.9612880722333"><ele>-3.9999999999999996</ele><time>2026-04-04T15:07:12.999Z</time></trkpt><trkpt lat="44.921675797856345" lon="11.961305989802845"><ele>-4.0</ele><time>2026-04-04T15:07:15.999Z</time></trkpt><trkpt lat="44.92159683365683" lon="11.961294076010702"><ele>-3.833333333333333</ele><time>2026-04-04T15:07:18.999Z</time></trkpt><trkpt lat="44.921520779178614" lon="11.961299891745425"><ele>-3.6666666666666665</ele><time>2026-04-04T15:07:21.999Z</time></trkpt><trkpt lat="44.921440097248585" lon="11.96130845726549"><ele>-3.5</ele><time>2026-04-04T15:07:24.999Z</time></trkpt><trkpt lat="44.9213568137746" lon="11.961318428825036"><ele>-3.333333333333333</ele><time>2026-04-04T15:07:27.999Z</time></trkpt><trkpt lat="44.92128039586286" lon="11.961321634805637"><ele>-3.1666666666666665</ele><time>2026-04-04T15:07:29.999Z</time></trkpt><trkpt lat="44.92119895415312" lon="11.961330110706353"><ele>-3.0</ele><time>2026-04-04T15:07:31.999Z</time></trkpt><trkpt lat="44.921115019960524" lon="11.96133655684456"><ele>-3.0</ele><time>2026-04-04T15:07:34Z</time></trkpt><trkpt lat="44.92103449714891" lon="11.96135089978994"><ele>-3.0</ele><time>2026-04-04T15:07:36Z</time></trkpt><trkpt lat="44.92095176178952" lon="11.96136078704315"><ele>-3.0</ele><time>2026-04-04T15:07:38Z</time></trkpt><trkpt lat="44.920872807767395" lon="11.961363375507565"><ele>-3.0</ele><time>2026-04-04T15:07:40Z</time></trkpt><trkpt lat="44.920789622056894" lon="11.961375891630029"><ele>-3.0</ele><time>2026-04-04T15:07:42Z</time></trkpt><trkpt lat="44.92069473762606" lon="11.961387486469333"><ele>-3.0</ele><time>2026-04-04T15:07:44Z</time></trkpt><trkpt lat="44.92060277613215" lon="11.961392722942042"><ele>-3.0</ele><time>2026-04-04T15:07:46Z</time></trkpt><trkpt lat="44.92050024778701" lon="11.961404156706712"><ele>-3.0</ele><time>2026-04-04T15:07:48Z</time></trkpt><trkpt lat="44.920398747269495" lon="11.961410031447455"><ele>-3.0</ele><time>2026-04-04T15:07:50Z</time></trkpt><trkpt lat="44.92028750403837" lon="11.961424960322734"><ele>-3.0</ele><time>2026-04-04T15:07:52Z</time></trkpt><trkpt lat="44.92017097137758" lon="11.961437784270132"><ele>-3.0</ele><time>2026-04-04T15:07:54Z</time></trkpt><trkpt lat="44.92004951850518" lon="11.961427937788834"><ele>-3.2</ele><time>2026-04-04T15:07:56Z</time></trkpt><trkpt lat="44.91993824739501" lon="11.961438988899182"><ele>-3.4</ele><time>2026-04-04T15:07:58Z</time></trkpt><trkpt lat="44.919837882473665" lon="11.961448956851319"><ele>-3.6000000000000005</ele><time>2026-04-04T15:08:00Z</time></trkpt><trkpt lat="44.91972883264401" lon="11.961481160639758"><ele>-3.8000000000000003</ele><time>2026-04-04T15:08:02Z</time></trkpt><trkpt lat="44.919614735345164" lon="11.961493109329723"><ele>-4.0</ele><time>2026-04-04T15:08:04Z</time></trkpt><trkpt lat="44.91949694430792" lon="11.96150339073661"><ele>-4.0</ele><time>2026-04-04T15:08:06Z</time></trkpt><trkpt lat="44.919381660439875" lon="11.961510331240992"><ele>-4.0</ele><time>2026-04-04T15:08:08Z</time></trkpt><trkpt lat="44.91926295044309" lon="11.961526575345019"><ele>-4.0</ele><time>2026-04-04T15:08:10Z</time></trkpt><trkpt lat="44.9191485491627" lon="11.961539617917223"><ele>-4.0</ele><time>2026-04-04T15:08:12Z</time></trkpt><trkpt lat="44.91903799075214" lon="11.961550000962966"><ele>-4.0</ele><time>2026-04-04T15:08:14Z</time></trkpt><trkpt lat="44.91892177500648" lon="11.96156215854055"><ele>-4.0</ele><time>2026-04-04T15:08:16Z</time></trkpt><trkpt lat="44.91881076515641" lon="11.961574084074778"><ele>-4.0</ele><time>2026-04-04T15:08:18Z</time></trkpt><trkpt lat="44.91869800322637" lon="11.961585261964856"><ele>-4.0</ele><time>2026-04-04T15:08:20Z</time></trkpt><trkpt lat="44.91858802223859" lon="11.961596692650446"><ele>-4.0</ele><time>2026-04-04T15:08:22Z</time></trkpt><trkpt lat="44.91847793534976" lon="11.961606064147686"><ele>-4.0</ele><time>2026-04-04T15:08:24Z</time></trkpt><trkpt lat="44.91836563168325" lon="11.961614267160463"><ele>-4.0</ele><time>2026-04-04T15:08:26Z</time></trkpt><trkpt lat="44.918251788940864" lon="11.961621087770775"><ele>-4.0</ele><time>2026-04-04T15:08:28Z</time></trkpt><trkpt lat="44.91814816383816" lon="11.96163372715692"><ele>-4.0</ele><time>2026-04-04T15:08:30Z</time></trkpt><trkpt lat="44.91804883279501" lon="11.961632826382365"><ele>-3.833333333333333</ele><time>2026-04-04T15:08:32Z</time></trkpt><trkpt lat="44.917957322479175" lon="11.961621995607597"><ele>-3.6666666666666665</ele><time>2026-04-04T15:08:34Z</time></trkpt><trkpt lat="44.917869360281614" lon="11.961608817166578"><ele>-3.5</ele><time>2026-04-04T15:08:36Z</time></trkpt><trkpt lat="44.91778389436294" lon="11.961596055817934"><ele>-3.333333333333333</ele><time>2026-04-04T15:08:38Z</time></trkpt><trkpt lat="44.917701724922516" lon="11.961577592384756"><ele>-3.1666666666666665</ele><time>2026-04-04T15:08:40Z</time></trkpt><trkpt lat="44.9176193937048" lon="11.961563302032047"><ele>-3.0</ele><time>2026-04-04T15:08:42Z</time></trkpt><trkpt lat="44.91753707465458" lon="11.961550862016654"><ele>-3.0</ele><time>2026-04-04T15:08:44Z</time></trkpt><trkpt lat="44.91745793536042" lon="11.961536065213346"><ele>-3.0</ele><time>2026-04-04T15:08:46Z</time></trkpt><trkpt lat="44.917376633063306" lon="11.961520107138622"><ele>-3.0</ele><time>2026-04-04T15:08:48Z</time></trkpt><trkpt lat="44.917301145696136" lon="11.961505160647777"><ele>-3.0</ele><time>2026-04-04T15:08:49.999Z</time></trkpt><trkpt lat="44.917226376389465" lon="11.961493959015206"><ele>-3.0</ele><time>2026-04-04T15:08:51.999Z</time></trkpt><trkpt lat="44.91715090154269" lon="11.961463390369754"><ele>-3.0</ele><time>2026-04-04T15:08:53.999Z</time></trkpt><trkpt lat="44.91705656505792" lon="11.961445905690827"><ele>-3.0</ele><time>2026-04-04T15:08:55.999Z</time></trkpt><trkpt lat="44.916965435106604" lon="11.96142901532681"><ele>-3.0</ele><time>2026-04-04T15:08:57.999Z</time></trkpt><trkpt lat="44.91686329610757" lon="11.961410084505927"><ele>-3.0</ele><time>2026-04-04T15:08:59.999Z</time></trkpt><trkpt lat="44.91675507845375" lon="11.961390027046273"><ele>-3.0</ele><time>2026-04-04T15:09:01.999Z</time></trkpt><trkpt lat="44.91663987378445" lon="11.961368806886956"><ele>-3.0</ele><time>2026-04-04T15:09:03.999Z</time></trkpt><trkpt lat="44.91651961008871" lon="11.961346915643382"><ele>-3.0</ele><time>2026-04-04T15:09:05.999Z</time></trkpt><trkpt lat="44.916401147628754" lon="11.96134831980305"><ele>-3.0</ele><time>2026-04-04T15:09:07.999Z</time></trkpt><trkpt lat="44.91629118729104" lon="11.961305336570488"><ele>-3.0</ele><time>2026-04-04T15:09:09.999Z</time></trkpt><trkpt lat="44.91618161827122" lon="11.961308268918357"><ele>-3.0</ele><time>2026-04-04T15:09:11.999Z</time></trkpt><trkpt lat="44.91607159316235" lon="11.96128381570052"><ele>-3.0</ele><time>2026-04-04T15:09:13.999Z</time></trkpt><trkpt lat="44.9159625161148" lon="11.961257525508405"><ele>-3.0</ele><time>2026-04-04T15:09:15.999Z</time></trkpt><trkpt lat="44.91584922568344" lon="11.9612399488011"><ele>-3.0</ele><time>2026-04-04T15:09:17.999Z</time></trkpt><trkpt lat="44.91573722174663" lon="11.961223386064846"><ele>-3.0</ele><time>2026-04-04T15:09:19.999Z</time></trkpt><trkpt lat="44.915617464514774" lon="11.961205077467163"><ele>-3.2</ele><time>2026-04-04T15:09:21.999Z</time></trkpt><trkpt lat="44.915507559430225" lon="11.961182393780227"><ele>-3.4</ele><time>2026-04-04T15:09:23.999Z</time></trkpt><trkpt lat="44.91541027740116" lon="11.961160786230996"><ele>-3.6000000000000005</ele><time>2026-04-04T15:09:25.999Z</time></trkpt><trkpt lat="44.915324300286265" lon="11.96114916444559"><ele>-3.8000000000000003</ele><time>2026-04-04T15:09:27.999Z</time></trkpt><trkpt lat="44.91524053239906" lon="11.961131192861657"><ele>-4.0</ele><time>2026-04-04T15:09:29.999Z</time></trkpt><trkpt lat="44.9151621300204" lon="11.961119804248186"><ele>-3.9999999999999996</ele><time>2026-04-04T15:09:31.999Z</time></trkpt><trkpt lat="44.91508729099009" lon="11.961109328139765"><ele>-4.0</ele><time>2026-04-04T15:09:33.999Z</time></trkpt><trkpt lat="44.914999372262194" lon="11.961086217603281"><ele>-4.0</ele><time>2026-04-04T15:09:35.999Z</time></trkpt><trkpt lat="44.91490740736462" lon="11.96106928152274"><ele>-4.0</ele><time>2026-04-04T15:09:37.999Z</time></trkpt><trkpt lat="44.91481655230276" lon="11.961055528759042"><ele>-3.9999999999999996</ele><time>2026-04-04T15:09:40Z</time></trkpt><trkpt lat="44.91472153000586" lon="11.961019618636087"><ele>-4.0</ele><time>2026-04-04T15:09:42Z</time></trkpt><trkpt lat="44.914621500692206" lon="11.961023963723727"><ele>-4.2</ele><time>2026-04-04T15:09:44Z</time></trkpt><trkpt lat="44.914519957425846" lon="11.961001726117797"><ele>-4.4</ele><time>2026-04-04T15:09:46Z</time></trkpt><trkpt lat="44.91441556160894" lon="11.96098018195469"><ele>-4.6</ele><time>2026-04-04T15:09:48Z</time></trkpt><trkpt lat="44.91431054042605" lon="11.960959858430808"><ele>-4.8</ele><time>2026-04-04T15:09:50Z</time></trkpt><trkpt lat="44.91420376332637" lon="11.960942574446948"><ele>-5.0</ele><time>2026-04-04T15:09:52Z</time></trkpt><trkpt lat="44.91409463644013" lon="11.960920867518345"><ele>-5.0</ele><time>2026-04-04T15:09:54Z</time></trkpt><trkpt lat="44.91398756864886" lon="11.960905207514903"><ele>-5.0</ele><time>2026-04-04T15:09:56Z</time></trkpt><trkpt lat="44.91387750012764" lon="11.960878288524428"><ele>-5.0</ele><time>2026-04-04T15:09:58Z</time></trkpt><trkpt lat="44.913773354236874" lon="11.960864306362247"><ele>-5.0</ele><time>2026-04-04T15:10:00Z</time></trkpt><trkpt lat="44.913694314348355" lon="11.96085451256648"><ele>-5.0</ele><time>2026-04-04T15:10:02Z</time></trkpt><trkpt lat="44.913630547710895" lon="11.9608267008919"><ele>-5.166666666666667</ele><time>2026-04-04T15:10:06Z</time></trkpt><trkpt lat="44.913603378752846" lon="11.960984346687752"><ele>-5.333333333333334</ele><time>2026-04-04T15:10:08Z</time></trkpt><trkpt lat="44.91358928103835" lon="11.961094661628925"><ele>-5.5</ele><time>2026-04-04T15:10:10Z</time></trkpt><trkpt lat="44.913584904706006" lon="11.961210545158638"><ele>-5.666666666666667</ele><time>2026-04-04T15:10:12Z</time></trkpt><trkpt lat="44.913572814742636" lon="11.96132761486481"><ele>-5.833333333333333</ele><time>2026-04-04T15:10:14Z</time></trkpt><trkpt lat="44.91356293400158" lon="11.961444968183129"><ele>-6.0</ele><time>2026-04-04T15:10:16Z</time></trkpt><trkpt lat="44.91355214744836" lon="11.961561026420018"><ele>-6.0</ele><time>2026-04-04T15:10:18Z</time></trkpt><trkpt lat="44.913547655188864" lon="11.961675005711257"><ele>-6.0</ele><time>2026-04-04T15:10:20Z</time></trkpt><trkpt lat="44.91353475677757" lon="11.961787847549616"><ele>-6.0</ele><time>2026-04-04T15:10:22Z</time></trkpt><trkpt lat="44.91353049723971" lon="11.961899753597057"><ele>-6.0</ele><time>2026-04-04T15:10:24Z</time></trkpt><trkpt lat="44.91351328623215" lon="11.962005743695695"><ele>-6.0</ele><time>2026-04-04T15:10:26Z</time></trkpt><trkpt lat="44.91350984005118" lon="11.962109797532621"><ele>-6.0</ele><time>2026-04-04T15:10:28Z</time></trkpt><trkpt lat="44.91349583848921" lon="11.962228632123951"><ele>-5.8</ele><time>2026-04-04T15:10:30Z</time></trkpt><trkpt lat="44.91349031841623" lon="11.962361505927293"><ele>-5.6</ele><time>2026-04-04T15:10:32Z</time></trkpt><trkpt lat="44.91347908768287" lon="11.96248642243004"><ele>-5.4</ele><time>2026-04-04T15:10:34Z</time></trkpt><trkpt lat="44.91347360902977" lon="11.962602111296244"><ele>-5.2</ele><time>2026-04-04T15:10:36Z</time></trkpt><trkpt lat="44.91346199821378" lon="11.962733029336926"><ele>-5.0</ele><time>2026-04-04T15:10:38Z</time></trkpt><trkpt lat="44.913448626078754" lon="11.962872551995353"><ele>-5.0</ele><time>2026-04-04T15:10:39.999Z</time></trkpt><trkpt lat="44.913438207516414" lon="11.96301087365831"><ele>-5.0</ele><time>2026-04-04T15:10:41.999Z</time></trkpt><trkpt lat="44.91343145153911" lon="11.963149748127078"><ele>-5.0</ele><time>2026-04-04T15:10:43.999Z</time></trkpt><trkpt lat="44.91342623686238" lon="11.963292625814692"><ele>-5.0</ele><time>2026-04-04T15:10:45.999Z</time></trkpt><trkpt lat="44.91341439799311" lon="11.963427502446363"><ele>-5.0</ele><time>2026-04-04T15:10:47.999Z</time></trkpt><trkpt lat="44.913405345526996" lon="11.963567820047489"><ele>-5.0</ele><time>2026-04-04T15:10:49.999Z</time></trkpt><trkpt lat="44.913391388426135" lon="11.963704275151375"><ele>-5.0</ele><time>2026-04-04T15:10:51.999Z</time></trkpt><trkpt lat="44.91338506162697" lon="11.963842868318265"><ele>-5.0</ele><time>2026-04-04T15:10:53.999Z</time></trkpt><trkpt lat="44.913370723459806" lon="11.963965706881114"><ele>-5.0</ele><time>2026-04-04T15:10:55.999Z</time></trkpt><trkpt lat="44.9133551689314" lon="11.96409328897873"><ele>-5.0</ele><time>2026-04-04T15:10:57.999Z</time></trkpt><trkpt lat="44.91334896622441" lon="11.964224152722464"><ele>-5.0</ele><time>2026-04-04T15:10:59.999Z</time></trkpt><trkpt lat="44.91333800340435" lon="11.964356348323165"><ele>-5.0</ele><time>2026-04-04T15:11:01.999Z</time></trkpt><trkpt lat="44.913329620122425" lon="11.96449221297941"><ele>-5.0</ele><time>2026-04-04T15:11:03.999Z</time></trkpt><trkpt lat="44.9133155772721" lon="11.964627485267636"><ele>-5.0</ele><time>2026-04-04T15:11:05.999Z</time></trkpt><trkpt lat="44.91330110073254" lon="11.964761568952023"><ele>-5.0</ele><time>2026-04-04T15:11:07.999Z</time></trkpt><trkpt lat="44.9132886478452" lon="11.96489841624864"><ele>-5.2</ele><time>2026-04-04T15:11:09.999Z</time></trkpt><trkpt lat="44.913278921958764" lon="11.965033702360266"><ele>-5.4</ele><time>2026-04-04T15:11:11.999Z</time></trkpt><trkpt lat="44.913271606217634" lon="11.965169154028109"><ele>-5.6</ele><time>2026-04-04T15:11:13.999Z</time></trkpt><trkpt lat="44.9132588809146" lon="11.965304255202943"><ele>-5.8</ele><time>2026-04-04T15:11:15.999Z</time></trkpt><trkpt lat="44.91323118044418" lon="11.965425303661574"><ele>-6.0</ele><time>2026-04-04T15:11:17.999Z</time></trkpt><trkpt lat="44.9132218593097" lon="11.965539596713173"><ele>-6.0</ele><time>2026-04-04T15:11:19.999Z</time></trkpt><trkpt lat="44.91321237463015" lon="11.965655895135715"><ele>-6.0</ele><time>2026-04-04T15:11:21.999Z</time></trkpt><trkpt lat="44.91321872012876" lon="11.965776326283098"><ele>-6.0</ele><time>2026-04-04T15:11:23.999Z</time></trkpt><trkpt lat="44.9132027161239" lon="11.965874802971173"><ele>-6.0</ele><time>2026-04-04T15:11:25.999Z</time></trkpt><trkpt lat="44.91320070785879" lon="11.96596402652313"><ele>-6.0</ele><time>2026-04-04T15:11:27.999Z</time></trkpt><trkpt lat="44.91319318556438" lon="11.966055330107906"><ele>-6.0</ele><time>2026-04-04T15:11:29.999Z</time></trkpt><trkpt lat="44.91318450275179" lon="11.966173248610072"><ele>-6.0</ele><time>2026-04-04T15:11:31.999Z</time></trkpt><trkpt lat="44.91317141838904" lon="11.966306582500716"><ele>-6.0</ele><time>2026-04-04T15:11:33.999Z</time></trkpt><trkpt lat="44.91316213361056" lon="11.966432868890827"><ele>-6.0</ele><time>2026-04-04T15:11:35.999Z</time></trkpt><trkpt lat="44.91315319305492" lon="11.966558605510754"><ele>-6.0</ele><time>2026-04-04T15:11:37.999Z</time></trkpt><trkpt lat="44.91313826217769" lon="11.966695512624632"><ele>-6.0</ele><time>2026-04-04T15:11:39.999Z</time></trkpt><trkpt lat="44.91313072235963" lon="11.966829210994197"><ele>-5.8</ele><time>2026-04-04T15:11:41.999Z</time></trkpt><trkpt lat="44.913118952794896" lon="11.966960755476533"><ele>-5.6</ele><time>2026-04-04T15:11:43.999Z</time></trkpt><trkpt lat="44.91310591860105" lon="11.967094301321522"><ele>-5.4</ele><time>2026-04-04T15:11:46Z</time></trkpt><trkpt lat="44.913097092924836" lon="11.967240511860197"><ele>-5.2</ele><time>2026-04-04T15:11:48Z</time></trkpt><trkpt lat="44.913085617210626" lon="11.967392527657749"><ele>-5.0</ele><time>2026-04-04T15:11:50Z</time></trkpt><trkpt lat="44.913073576894945" lon="11.967533928559803"><ele>-4.8</ele><time>2026-04-04T15:11:52Z</time></trkpt><trkpt lat="44.913058185958974" lon="11.96767788936621"><ele>-4.6</ele><time>2026-04-04T15:11:54Z</time></trkpt><trkpt lat="44.913049001412354" lon="11.967820677133075"><ele>-4.4</ele><time>2026-04-04T15:11:56Z</time></trkpt><trkpt lat="44.91303674637994" lon="11.96796289905341"><ele>-4.2</ele><time>2026-04-04T15:11:58Z</time></trkpt><trkpt lat="44.91302873615624" lon="11.96811203650413"><ele>-4.0</ele><time>2026-04-04T15:12:00Z</time></trkpt><trkpt lat="44.91301671750448" lon="11.968249516842691"><ele>-4.0</ele><time>2026-04-04T15:12:02Z</time></trkpt><trkpt lat="44.913000859295074" lon="11.968397259206526"><ele>-4.0</ele><time>2026-04-04T15:12:04Z</time></trkpt><trkpt lat="44.912989167161" lon="11.968552843419797"><ele>-4.0</ele><time>2026-04-04T15:12:06Z</time></trkpt><trkpt lat="44.9129786376646" lon="11.968689349848075"><ele>-4.0</ele><time>2026-04-04T15:12:08Z</time></trkpt><trkpt lat="44.91296529206946" lon="11.968839173828977"><ele>-4.0</ele><time>2026-04-04T15:12:10Z</time></trkpt><trkpt lat="44.91295362947827" lon="11.968991846113969"><ele>-4.0</ele><time>2026-04-04T15:12:12Z</time></trkpt><trkpt lat="44.91294571679984" lon="11.969132467130214"><ele>-4.0</ele><time>2026-04-04T15:12:14Z</time></trkpt><trkpt lat="44.912932818756154" lon="11.96927981480176"><ele>-4.0</ele><time>2026-04-04T15:12:16Z</time></trkpt><trkpt lat="44.91292262281858" lon="11.96943549164482"><ele>-4.0</ele><time>2026-04-04T15:12:18Z</time></trkpt><trkpt lat="44.91290947585229" lon="11.969573316286665"><ele>-4.0</ele><time>2026-04-04T15:12:20Z</time></trkpt><trkpt lat="44.91289781396028" lon="11.9697203578912"><ele>-4.2</ele><time>2026-04-04T15:12:22Z</time></trkpt><trkpt lat="44.91288619154382" lon="11.969873489108336"><ele>-4.4</ele><time>2026-04-04T15:12:24Z</time></trkpt><trkpt lat="44.912877946757376" lon="11.970009594515862"><ele>-4.6</ele><time>2026-04-04T15:12:26Z</time></trkpt><trkpt lat="44.91286199619797" lon="11.970136537135447"><ele>-4.8</ele><time>2026-04-04T15:12:28Z</time></trkpt><trkpt lat="44.91285295913263" lon="11.9702810818272"><ele>-5.0</ele><time>2026-04-04T15:12:30Z</time></trkpt><trkpt lat="44.912840932638076" lon="11.970426075119828"><ele>-5.0</ele><time>2026-04-04T15:12:32Z</time></trkpt><trkpt lat="44.91283105322823" lon="11.970562868564011"><ele>-5.0</ele><time>2026-04-04T15:12:34Z</time></trkpt><trkpt lat="44.91281980748487" lon="11.970680183516828"><ele>-5.0</ele><time>2026-04-04T15:12:36Z</time></trkpt><trkpt lat="44.91281547416307" lon="11.970785135330411"><ele>-5.0</ele><time>2026-04-04T15:12:38Z</time></trkpt><trkpt lat="44.91279261247379" lon="11.97086935038524"><ele>-5.0</ele><time>2026-04-04T15:12:40Z</time></trkpt><trkpt lat="44.912696345564164" lon="11.97091030454156"><ele>-5.0</ele><time>2026-04-04T15:12:44Z</time></trkpt><trkpt lat="44.91261035193678" lon="11.970879917948544"><ele>-5.0</ele><time>2026-04-04T15:12:46Z</time></trkpt><trkpt lat="44.912518015165055" lon="11.970865612791586"><ele>-5.0</ele><time>2026-04-04T15:12:48Z</time></trkpt><trkpt lat="44.91241514358561" lon="11.97084172417436"><ele>-5.0</ele><time>2026-04-04T15:12:50Z</time></trkpt><trkpt lat="44.912302822192274" lon="11.970822757838814"><ele>-5.0</ele><time>2026-04-04T15:12:52Z</time></trkpt><trkpt lat="44.91218608244022" lon="11.970798673796558"><ele>-5.0</ele><time>2026-04-04T15:12:54Z</time></trkpt><trkpt lat="44.9120660126624" lon="11.970769642876983"><ele>-5.0</ele><time>2026-04-04T15:12:56Z</time></trkpt><trkpt lat="44.911999736451996" lon="11.97075618551031"><ele>-5.0</ele><time>2026-04-04T15:12:57Z</time></trkpt><trkpt lat="44.91193658260329" lon="11.970743056594367"><ele>-5.0</ele><time>2026-04-04T15:12:58Z</time></trkpt><trkpt lat="44.9118742144111" lon="11.970729599033081"><ele>-5.0</ele><time>2026-04-04T15:12:59Z</time></trkpt><trkpt lat="44.91180908893308" lon="11.970715845729153"><ele>-5.0</ele><time>2026-04-04T15:13:00Z</time></trkpt><trkpt lat="44.911742604393794" lon="11.970706005794943"><ele>-5.0</ele><time>2026-04-04T15:13:01Z</time></trkpt><trkpt lat="44.91167613495183" lon="11.97070078812934"><ele>-5.0</ele><time>2026-04-04T15:13:02Z</time></trkpt><trkpt lat="44.91160610692837" lon="11.97068936023031"><ele>-5.142857142857142</ele><time>2026-04-04T15:13:03Z</time></trkpt><trkpt lat="44.91153629153396" lon="11.970687599722265"><ele>-5.285714285714286</ele><time>2026-04-04T15:13:04Z</time></trkpt><trkpt lat="44.911465980868265" lon="11.970680366831017"><ele>-5.428571428571429</ele><time>2026-04-04T15:13:05Z</time></trkpt><trkpt lat="44.91139271228787" lon="11.970692567713112"><ele>-5.571428571428571</ele><time>2026-04-04T15:13:06Z</time></trkpt><trkpt lat="44.911318135161665" lon="11.970690620353663"><ele>-5.714285714285714</ele><time>2026-04-04T15:13:07Z</time></trkpt><trkpt lat="44.91124309706603" lon="11.970691769093154"><ele>-5.857142857142857</ele><time>2026-04-04T15:13:08Z</time></trkpt><trkpt lat="44.9111680676937" lon="11.970693465703944"><ele>-6.0</ele><time>2026-04-04T15:13:08.999Z</time></trkpt><trkpt lat="44.911092512938986" lon="11.970700349190704"><ele>-5.999999999999999</ele><time>2026-04-04T15:13:09.999Z</time></trkpt><trkpt lat="44.911018854229056" lon="11.970699397067769"><ele>-6.0</ele><time>2026-04-04T15:13:10.999Z</time></trkpt><trkpt lat="44.91094374958621" lon="11.970701020849503"><ele>-6.0</ele><time>2026-04-04T15:13:11.999Z</time></trkpt><trkpt lat="44.910869169743776" lon="11.97070600270251"><ele>-6.0</ele><time>2026-04-04T15:13:12.999Z</time></trkpt><trkpt lat="44.91079612103625" lon="11.970708977977907"><ele>-6.0</ele><time>2026-04-04T15:13:13.999Z</time></trkpt><trkpt lat="44.910725002613454" lon="11.970714132296369"><ele>-5.999999999999999</ele><time>2026-04-04T15:13:14.999Z</time></trkpt><trkpt lat="44.91065240241314" lon="11.970716903692669"><ele>-6.0</ele><time>2026-04-04T15:13:15.999Z</time></trkpt><trkpt lat="44.91058121428443" lon="11.970721742086772"><ele>-5.857142857142857</ele><time>2026-04-04T15:13:16.999Z</time></trkpt><trkpt lat="44.91051038901529" lon="11.970720901048566"><ele>-5.714285714285714</ele><time>2026-04-04T15:13:17.999Z</time></trkpt><trkpt lat="44.91043935341448" lon="11.970725117705422"><ele>-5.571428571428571</ele><time>2026-04-04T15:13:18.999Z</time></trkpt><trkpt lat="44.91036834738598" lon="11.970726563733635"><ele>-5.428571428571429</ele><time>2026-04-04T15:13:19.999Z</time></trkpt><trkpt lat="44.91029364727092" lon="11.970728410645956"><ele>-5.285714285714286</ele><time>2026-04-04T15:13:20.999Z</time></trkpt><trkpt lat="44.91022002441841" lon="11.970729326126351"><ele>-5.142857142857142</ele><time>2026-04-04T15:13:21.999Z</time></trkpt><trkpt lat="44.91014770520024" lon="11.970735117712497"><ele>-5.0</ele><time>2026-04-04T15:13:22.999Z</time></trkpt><trkpt lat="44.91007245975385" lon="11.97074266845969"><ele>-5.285714285714286</ele><time>2026-04-04T15:13:23.999Z</time></trkpt><trkpt lat="44.90999927847459" lon="11.970746891095379"><ele>-5.571428571428571</ele><time>2026-04-04T15:13:24.999Z</time></trkpt><trkpt lat="44.90992594146206" lon="11.97074954025041"><ele>-5.857142857142858</ele><time>2026-04-04T15:13:25.999Z</time></trkpt><trkpt lat="44.909854192389375" lon="11.970757102846571"><ele>-6.142857142857142</ele><time>2026-04-04T15:13:26.999Z</time></trkpt><trkpt lat="44.909780309438375" lon="11.97075938766947"><ele>-6.428571428571429</ele><time>2026-04-04T15:13:27.999Z</time></trkpt><trkpt lat="44.909706690788546" lon="11.970760954589094"><ele>-6.714285714285714</ele><time>2026-04-04T15:13:28.999Z</time></trkpt><trkpt lat="44.90963493141953" lon="11.970763860490894"><ele>-7.0</ele><time>2026-04-04T15:13:29.999Z</time></trkpt><trkpt lat="44.909564019921014" lon="11.970767227080056"><ele>-7.0</ele><time>2026-04-04T15:13:30.999Z</time></trkpt><trkpt lat="44.90949034644691" lon="11.970770056524357"><ele>-7.0</ele><time>2026-04-04T15:13:31.999Z</time></trkpt><trkpt lat="44.90941333430849" lon="11.97075299248223"><ele>-7.0</ele><time>2026-04-04T15:13:32.999Z</time></trkpt><trkpt lat="44.90934160332103" lon="11.970755929825485"><ele>-7.0</ele><time>2026-04-04T15:13:33.999Z</time></trkpt><trkpt lat="44.909267347180105" lon="11.970773581561318"><ele>-7.0</ele><time>2026-04-04T15:13:34.999Z</time></trkpt><trkpt lat="44.909192052206286" lon="11.97076805677638"><ele>-7.0</ele><time>2026-04-04T15:13:35.999Z</time></trkpt><trkpt lat="44.90912052279678" lon="11.97077476789569"><ele>-7.0</ele><time>2026-04-04T15:13:36.999Z</time></trkpt><trkpt lat="44.90904830581407" lon="11.970775513135546"><ele>-6.857142857142857</ele><time>2026-04-04T15:13:37.999Z</time></trkpt><trkpt lat="44.908975721931775" lon="11.970780521044054"><ele>-6.714285714285714</ele><time>2026-04-04T15:13:38.999Z</time></trkpt><trkpt lat="44.90890076662416" lon="11.97079204412841"><ele>-6.571428571428571</ele><time>2026-04-04T15:13:39.999Z</time></trkpt><trkpt lat="44.90882958067852" lon="11.970790384252165"><ele>-6.428571428571429</ele><time>2026-04-04T15:13:40.999Z</time></trkpt><trkpt lat="44.90875892691854" lon="11.970792478337795"><ele>-6.285714285714286</ele><time>2026-04-04T15:13:41.999Z</time></trkpt><trkpt lat="44.90868593563025" lon="11.970797340155777"><ele>-6.142857142857142</ele><time>2026-04-04T15:13:42.999Z</time></trkpt><trkpt lat="44.9086112974565" lon="11.97079441590687"><ele>-6.0</ele><time>2026-04-04T15:13:43.999Z</time></trkpt><trkpt lat="44.908539988668764" lon="11.970794100419745"><ele>-5.999999999999999</ele><time>2026-04-04T15:13:44.999Z</time></trkpt><trkpt lat="44.908469643756156" lon="11.970799859556989"><ele>-6.0</ele><time>2026-04-04T15:13:45.999Z</time></trkpt><trkpt lat="44.908397888183636" lon="11.970806325207436"><ele>-6.0</ele><time>2026-04-04T15:13:46.999Z</time></trkpt><trkpt lat="44.908326990630385" lon="11.970809989691016"><ele>-6.0</ele><time>2026-04-04T15:13:47.999Z</time></trkpt><trkpt lat="44.90825388514716" lon="11.97081102155654"><ele>-6.0</ele><time>2026-04-04T15:13:48.999Z</time></trkpt><trkpt lat="44.908179796782676" lon="11.970809560771144"><ele>-5.999999999999999</ele><time>2026-04-04T15:13:49.999Z</time></trkpt><trkpt lat="44.90810379685145" lon="11.970812089515986"><ele>-6.0</ele><time>2026-04-04T15:13:51Z</time></trkpt><trkpt lat="44.90802721357077" lon="11.970817154312758"><ele>-6.0</ele><time>2026-04-04T15:13:52Z</time></trkpt><trkpt lat="44.907949814708836" lon="11.970820033358205"><ele>-6.0</ele><time>2026-04-04T15:13:53Z</time></trkpt><trkpt lat="44.90787470399437" lon="11.970826297206337"><ele>-6.0</ele><time>2026-04-04T15:13:54Z</time></trkpt><trkpt lat="44.907795974512354" lon="11.970831700644814"><ele>-6.0</ele><time>2026-04-04T15:13:55Z</time></trkpt><trkpt lat="44.90771739243533" lon="11.970829205074219"><ele>-6.0</ele><time>2026-04-04T15:13:56Z</time></trkpt><trkpt lat="44.90764140257665" lon="11.97083003314861"><ele>-6.0</ele><time>2026-04-04T15:13:57Z</time></trkpt><trkpt lat="44.90756409658039" lon="11.970833840074958"><ele>-6.0</ele><time>2026-04-04T15:13:58Z</time></trkpt><trkpt lat="44.9074882535998" lon="11.9708446328571"><ele>-6.0</ele><time>2026-04-04T15:13:59Z</time></trkpt><trkpt lat="44.907412294372136" lon="11.970840361875773"><ele>-6.0</ele><time>2026-04-04T15:14:00Z</time></trkpt><trkpt lat="44.90733561080868" lon="11.970846100811103"><ele>-6.0</ele><time>2026-04-04T15:14:01Z</time></trkpt><trkpt lat="44.907259354037585" lon="11.970851388952134"><ele>-6.0</ele><time>2026-04-04T15:14:02Z</time></trkpt><trkpt lat="44.90718502473829" lon="11.97085022104881"><ele>-6.0</ele><time>2026-04-04T15:14:03Z</time></trkpt><trkpt lat="44.90710965728897" lon="11.970851308186253"><ele>-5.999999999999999</ele><time>2026-04-04T15:14:04Z</time></trkpt><trkpt lat="44.90703471290791" lon="11.970854680952518"><ele>-6.0</ele><time>2026-04-04T15:14:05Z</time></trkpt><trkpt lat="44.90696007256483" lon="11.970857941821851"><ele>-6.0</ele><time>2026-04-04T15:14:06Z</time></trkpt><trkpt lat="44.90688598591663" lon="11.970859531937387"><ele>-6.0</ele><time>2026-04-04T15:14:07Z</time></trkpt><trkpt lat="44.90681227210163" lon="11.970862701357127"><ele>-6.0</ele><time>2026-04-04T15:14:08Z</time></trkpt><trkpt lat="44.906737620200985" lon="11.970865585658995"><ele>-5.999999999999999</ele><time>2026-04-04T15:14:09Z</time></trkpt><trkpt lat="44.90666162283493" lon="11.970867631474826"><ele>-6.0</ele><time>2026-04-04T15:14:10Z</time></trkpt><trkpt lat="44.90658579828621" lon="11.970874982609589"><ele>-6.142857142857142</ele><time>2026-04-04T15:14:11Z</time></trkpt><trkpt lat="44.90651128860673" lon="11.970873680796636"><ele>-6.285714285714286</ele><time>2026-04-04T15:14:12Z</time></trkpt><trkpt lat="44.906436401032394" lon="11.97087296741213"><ele>-6.428571428571429</ele><time>2026-04-04T15:14:13Z</time></trkpt><trkpt lat="44.90636106772731" lon="11.9708739765587"><ele>-6.571428571428571</ele><time>2026-04-04T15:14:14Z</time></trkpt><trkpt lat="44.9062870377999" lon="11.970880957614948"><ele>-6.714285714285714</ele><time>2026-04-04T15:14:15Z</time></trkpt><trkpt lat="44.90621331142801" lon="11.970888866745186"><ele>-6.857142857142857</ele><time>2026-04-04T15:14:16Z</time></trkpt><trkpt lat="44.906137811889224" lon="11.970884004247887"><ele>-7.0</ele><time>2026-04-04T15:14:17Z</time></trkpt><trkpt lat="44.90606171892374" lon="11.970887274022235"><ele>-7.0</ele><time>2026-04-04T15:14:18Z</time></trkpt><trkpt lat="44.905986225424435" lon="11.970890173226092"><ele>-7.0</ele><time>2026-04-04T15:14:19Z</time></trkpt><trkpt lat="44.90591055532451" lon="11.97089456606012"><ele>-7.0</ele><time>2026-04-04T15:14:20Z</time></trkpt><trkpt lat="44.905835460553604" lon="11.970899281155214"><ele>-7.0</ele><time>2026-04-04T15:14:21Z</time></trkpt><trkpt lat="44.90576151108927" lon="11.970901241018437"><ele>-7.0</ele><time>2026-04-04T15:14:22Z</time></trkpt><trkpt lat="44.90568752110427" lon="11.970901447927757"><ele>-7.0</ele><time>2026-04-04T15:14:23Z</time></trkpt><trkpt lat="44.90561391922198" lon="11.970906502659732"><ele>-7.0</ele><time>2026-04-04T15:14:24Z</time></trkpt><trkpt lat="44.90553817064467" lon="11.970909551302526"><ele>-6.6</ele><time>2026-04-04T15:14:25Z</time></trkpt><trkpt lat="44.90546242976852" lon="11.97091736215343"><ele>-6.199999999999999</ele><time>2026-04-04T15:14:26Z</time></trkpt><trkpt lat="44.905393657302426" lon="11.9709056779803"><ele>-5.8</ele><time>2026-04-04T15:14:27Z</time></trkpt><trkpt lat="44.90532701636161" lon="11.97090615794372"><ele>-5.4</ele><time>2026-04-04T15:14:28Z</time></trkpt><trkpt lat="44.905201163968805" lon="11.970908386122119"><ele>-5.0</ele><time>2026-04-04T15:14:30Z</time></trkpt><trkpt lat="44.90508385103426" lon="11.970928428156258"><ele>-5.2</ele><time>2026-04-04T15:14:32Z</time></trkpt><trkpt lat="44.9049856589336" lon="11.971033470293852"><ele>-5.4</ele><time>2026-04-04T15:14:34Z</time></trkpt><trkpt lat="44.90496357127158" lon="11.97113159283326"><ele>-5.6</ele><time>2026-04-04T15:14:35Z</time></trkpt><trkpt lat="44.90499066480775" lon="11.971313585488991"><ele>-5.8</ele><time>2026-04-04T15:14:37Z</time></trkpt><trkpt lat="44.90501437321443" lon="11.971462060504512"><ele>-6.0</ele><time>2026-04-04T15:14:39Z</time></trkpt><trkpt lat="44.905040809061354" lon="11.971597134543144"><ele>-6.0</ele><time>2026-04-04T15:14:41Z</time></trkpt><trkpt lat="44.905058466852026" lon="11.971688481503616"><ele>-6.0</ele><time>2026-04-04T15:14:42Z</time></trkpt><trkpt lat="44.905066491904186" lon="11.971805504424829"><ele>-6.0</ele><time>2026-04-04T15:14:44Z</time></trkpt><trkpt lat="44.90510026741485" lon="11.9719530451646"><ele>-6.0</ele><time>2026-04-04T15:14:46Z</time></trkpt><trkpt lat="44.905122025649995" lon="11.97211595419995"><ele>-6.0</ele><time>2026-04-04T15:14:48Z</time></trkpt><trkpt lat="44.90515251851759" lon="11.972282880719478"><ele>-6.0</ele><time>2026-04-04T15:14:50Z</time></trkpt><trkpt lat="44.905184933151965" lon="11.972454917827724"><ele>-6.0</ele><time>2026-04-04T15:14:52Z</time></trkpt><trkpt lat="44.905198326205685" lon="11.972544895469737"><ele>-6.0</ele><time>2026-04-04T15:14:53Z</time></trkpt><trkpt lat="44.90521728880089" lon="11.972634432886085"><ele>-6.0</ele><time>2026-04-04T15:14:54Z</time></trkpt><trkpt lat="44.90523352269609" lon="11.972724398470515"><ele>-6.0</ele><time>2026-04-04T15:14:55Z</time></trkpt><trkpt lat="44.905250082775225" lon="11.972817963186207"><ele>-6.0</ele><time>2026-04-04T15:14:56Z</time></trkpt><trkpt lat="44.90526557581071" lon="11.972912115274369"><ele>-5.999999999999999</ele><time>2026-04-04T15:14:57Z</time></trkpt><trkpt lat="44.90528068050732" lon="11.973008359783133"><ele>-6.0</ele><time>2026-04-04T15:14:58Z</time></trkpt><trkpt lat="44.90529951552518" lon="11.973104038166555"><ele>-6.0</ele><time>2026-04-04T15:14:59Z</time></trkpt><trkpt lat="44.90531806764419" lon="11.973198098789545"><ele>-6.0</ele><time>2026-04-04T15:15:00Z</time></trkpt><trkpt lat="44.90533351254776" lon="11.973295720999422"><ele>-6.0</ele><time>2026-04-04T15:15:01Z</time></trkpt><trkpt lat="44.90534977088497" lon="11.973395472984095"><ele>-5.999999999999999</ele><time>2026-04-04T15:15:02Z</time></trkpt><trkpt lat="44.90536728681488" lon="11.97349338843447"><ele>-6.0</ele><time>2026-04-04T15:15:03Z</time></trkpt><trkpt lat="44.905387753794955" lon="11.973591050942893"><ele>-5.999999999999999</ele><time>2026-04-04T15:15:04Z</time></trkpt><trkpt lat="44.9054058169428" lon="11.973692304778247"><ele>-6.0</ele><time>2026-04-04T15:15:05Z</time></trkpt><trkpt lat="44.90542299589346" lon="11.97379169700957"><ele>-6.0</ele><time>2026-04-04T15:15:06Z</time></trkpt><trkpt lat="44.90544110691991" lon="11.973891854252097"><ele>-6.0</ele><time>2026-04-04T15:15:07Z</time></trkpt><trkpt lat="44.90545848178933" lon="11.973991346818256"><ele>-6.0</ele><time>2026-04-04T15:15:08Z</time></trkpt><trkpt lat="44.90547416559341" lon="11.974091613983218"><ele>-5.999999999999999</ele><time>2026-04-04T15:15:09Z</time></trkpt><trkpt lat="44.90549191692641" lon="11.97418796197426"><ele>-6.0</ele><time>2026-04-04T15:15:09.999Z</time></trkpt><trkpt lat="44.90550637041945" lon="11.974279742676778"><ele>-5.999999999999999</ele><time>2026-04-04T15:15:10.999Z</time></trkpt><trkpt lat="44.90552331679464" lon="11.97437100109352"><ele>-6.0</ele><time>2026-04-04T15:15:11.999Z</time></trkpt><trkpt lat="44.905541412274765" lon="11.97446302605454"><ele>-6.0</ele><time>2026-04-04T15:15:12.999Z</time></trkpt><trkpt lat="44.905558276504244" lon="11.974558500254057"><ele>-6.0</ele><time>2026-04-04T15:15:13.999Z</time></trkpt><trkpt lat="44.9055752221955" lon="11.974653590517399"><ele>-6.0</ele><time>2026-04-04T15:15:14.999Z</time></trkpt><trkpt lat="44.905594291799" lon="11.974748321237508"><ele>-5.999999999999999</ele><time>2026-04-04T15:15:15.999Z</time></trkpt><trkpt lat="44.9056110392414" lon="11.974845242664188"><ele>-6.0</ele><time>2026-04-04T15:15:16.999Z</time></trkpt><trkpt lat="44.90562824709255" lon="11.974946680694455"><ele>-5.999999999999999</ele><time>2026-04-04T15:15:17.999Z</time></trkpt><trkpt lat="44.905644402215394" lon="11.975044232053701"><ele>-6.0</ele><time>2026-04-04T15:15:18.999Z</time></trkpt><trkpt lat="44.905664462459555" lon="11.97514358790674"><ele>-6.0</ele><time>2026-04-04T15:15:19.999Z</time></trkpt><trkpt lat="44.905683949867836" lon="11.975238638725058"><ele>-6.0</ele><time>2026-04-04T15:15:20.999Z</time></trkpt><trkpt lat="44.90570343194109" lon="11.975339590372496"><ele>-6.0</ele><time>2026-04-04T15:15:21.999Z</time></trkpt><trkpt lat="44.905720079872566" lon="11.975442797232535"><ele>-5.999999999999999</ele><time>2026-04-04T15:15:22.999Z</time></trkpt><trkpt lat="44.90573289874893" lon="11.975547761177584"><ele>-6.0</ele><time>2026-04-04T15:15:23.999Z</time></trkpt><trkpt lat="44.905750233852174" lon="11.975649670657422"><ele>-5.999999999999999</ele><time>2026-04-04T15:15:24.999Z</time></trkpt><trkpt lat="44.905768695554144" lon="11.975749349454562"><ele>-6.0</ele><time>2026-04-04T15:15:25.999Z</time></trkpt><trkpt lat="44.9057868581809" lon="11.975851186978625"><ele>-6.0</ele><time>2026-04-04T15:15:26.999Z</time></trkpt><trkpt lat="44.90580330445926" lon="11.975951325289413"><ele>-6.0</ele><time>2026-04-04T15:15:27.999Z</time></trkpt><trkpt lat="44.90582765804688" lon="11.976050284485128"><ele>-6.0</ele><time>2026-04-04T15:15:28.999Z</time></trkpt><trkpt lat="44.90585404545599" lon="11.97615111672662"><ele>-5.999999999999999</ele><time>2026-04-04T15:15:29.999Z</time></trkpt><trkpt lat="44.90587500240244" lon="11.976245265626808"><ele>-6.0</ele><time>2026-04-04T15:15:30.999Z</time></trkpt><trkpt lat="44.905881159096616" lon="11.976347162112242"><ele>-5.833333333333333</ele><time>2026-04-04T15:15:31.999Z</time></trkpt><trkpt lat="44.905900709760715" lon="11.97643220873919"><ele>-5.666666666666667</ele><time>2026-04-04T15:15:32.999Z</time></trkpt><trkpt lat="44.905920904094884" lon="11.976520055290381"><ele>-5.5</ele><time>2026-04-04T15:15:33.999Z</time></trkpt><trkpt lat="44.9059422568349" lon="11.976664927170948"><ele>-5.333333333333334</ele><time>2026-04-04T15:15:35.999Z</time></trkpt><trkpt lat="44.90585382149733" lon="11.976677283537322"><ele>-5.166666666666667</ele><time>2026-04-04T15:15:37.999Z</time></trkpt><trkpt lat="44.90577268883224" lon="11.976681594215693"><ele>-5.0</ele><time>2026-04-04T15:15:39.999Z</time></trkpt><trkpt lat="44.9057788559204" lon="11.97687965073678"><ele>-4.8</ele><time>2026-04-04T15:15:41.999Z</time></trkpt><trkpt lat="44.90581288267133" lon="11.9769885847368"><ele>-4.6</ele><time>2026-04-04T15:15:43.999Z</time></trkpt><trkpt lat="44.90584053726423" lon="11.977130815413714"><ele>-4.4</ele><time>2026-04-04T15:15:45.999Z</time></trkpt><trkpt lat="44.90585492155875" lon="11.977274432419831"><ele>-4.2</ele><time>2026-04-04T15:15:47.999Z</time></trkpt><trkpt lat="44.90587683946355" lon="11.97741200996636"><ele>-4.0</ele><time>2026-04-04T15:15:49.999Z</time></trkpt><trkpt lat="44.90590274274171" lon="11.977551485246357"><ele>-4.5</ele><time>2026-04-04T15:15:51.999Z</time></trkpt><trkpt lat="44.90592980662641" lon="11.977703612004312"><ele>-5.0</ele><time>2026-04-04T15:15:53.999Z</time></trkpt><trkpt lat="44.90595838043902" lon="11.977855063795806"><ele>-5.5</ele><time>2026-04-04T15:15:55.999Z</time></trkpt><trkpt lat="44.90598356360597" lon="11.978009056983485"><ele>-6.0</ele><time>2026-04-04T15:15:58Z</time></trkpt><trkpt lat="44.90601554393592" lon="11.978175615416605"><ele>-6.0</ele><time>2026-04-04T15:16:00Z</time></trkpt><trkpt lat="44.90604618332868" lon="11.978352699286523"><ele>-6.0</ele><time>2026-04-04T15:16:02Z</time></trkpt><trkpt lat="44.90606279720298" lon="11.978446678732105"><ele>-6.0</ele><time>2026-04-04T15:16:03Z</time></trkpt><trkpt lat="44.90607964016048" lon="11.978542425980734"><ele>-6.0</ele><time>2026-04-04T15:16:04Z</time></trkpt><trkpt lat="44.90609827056042" lon="11.97864362750244"><ele>-6.0</ele><time>2026-04-04T15:16:05Z</time></trkpt><trkpt lat="44.906116458468034" lon="11.97874405281844"><ele>-6.0</ele><time>2026-04-04T15:16:06Z</time></trkpt><trkpt lat="44.90613471491221" lon="11.978846966764253"><ele>-6.0</ele><time>2026-04-04T15:16:07Z</time></trkpt><trkpt lat="44.90615177802703" lon="11.978950864232855"><ele>-6.0</ele><time>2026-04-04T15:16:08Z</time></trkpt><trkpt lat="44.90617137757289" lon="11.979055315370774"><ele>-6.0</ele><time>2026-04-04T15:16:09Z</time></trkpt><trkpt lat="44.90618952832031" lon="11.979158847890751"><ele>-6.0</ele><time>2026-04-04T15:16:10Z</time></trkpt><trkpt lat="44.90620642030097" lon="11.979262537840366"><ele>-6.0</ele><time>2026-04-04T15:16:11Z</time></trkpt><trkpt lat="44.906226279652664" lon="11.979368845164892"><ele>-6.0</ele><time>2026-04-04T15:16:12Z</time></trkpt><trkpt lat="44.90624487016133" lon="11.979476801441864"><ele>-5.833333333333333</ele><time>2026-04-04T15:16:13Z</time></trkpt><trkpt lat="44.90626300973088" lon="11.979581632079434"><ele>-5.666666666666667</ele><time>2026-04-04T15:16:14Z</time></trkpt><trkpt lat="44.906279986106966" lon="11.979688768857008"><ele>-5.5</ele><time>2026-04-04T15:16:15Z</time></trkpt><trkpt lat="44.90629922241736" lon="11.97979355312236"><ele>-5.333333333333334</ele><time>2026-04-04T15:16:16Z</time></trkpt><trkpt lat="44.906316590038486" lon="11.979898713894501"><ele>-5.166666666666667</ele><time>2026-04-04T15:16:17Z</time></trkpt><trkpt lat="44.90633525658973" lon="11.980002450079883"><ele>-5.0</ele><time>2026-04-04T15:16:18Z</time></trkpt><trkpt lat="44.90635437875277" lon="11.98010679746817"><ele>-5.0</ele><time>2026-04-04T15:16:19Z</time></trkpt><trkpt lat="44.90637229033048" lon="11.980207663390328"><ele>-5.0</ele><time>2026-04-04T15:16:20Z</time></trkpt><trkpt lat="44.9063898628997" lon="11.980310667610233"><ele>-5.0</ele><time>2026-04-04T15:16:21Z</time></trkpt><trkpt lat="44.90640774362267" lon="11.980412255679093"><ele>-5.0</ele><time>2026-04-04T15:16:22Z</time></trkpt><trkpt lat="44.90642609588377" lon="11.980514436140512"><ele>-5.0</ele><time>2026-04-04T15:16:23Z</time></trkpt><trkpt lat="44.90644385216329" lon="11.980612156174612"><ele>-5.0</ele><time>2026-04-04T15:16:24Z</time></trkpt><trkpt lat="44.90646203731307" lon="11.980713913485078"><ele>-5.0</ele><time>2026-04-04T15:16:25Z</time></trkpt><trkpt lat="44.906479540357" lon="11.980816065669954"><ele>-5.0</ele><time>2026-04-04T15:16:26Z</time></trkpt><trkpt lat="44.90649778299117" lon="11.980917744405753"><ele>-5.0</ele><time>2026-04-04T15:16:27Z</time></trkpt><trkpt lat="44.90651429617708" lon="11.981018557599205"><ele>-5.0</ele><time>2026-04-04T15:16:28Z</time></trkpt><trkpt lat="44.906532089276304" lon="11.981124876623083"><ele>-5.0</ele><time>2026-04-04T15:16:29Z</time></trkpt><trkpt lat="44.90655127305875" lon="11.981226785342104"><ele>-5.0</ele><time>2026-04-04T15:16:30Z</time></trkpt><trkpt lat="44.906573248570254" lon="11.981332426086123"><ele>-5.0</ele><time>2026-04-04T15:16:31Z</time></trkpt><trkpt lat="44.90659338771374" lon="11.981435683810481"><ele>-5.0</ele><time>2026-04-04T15:16:32Z</time></trkpt><trkpt lat="44.90660930626389" lon="11.981538279765399"><ele>-5.0</ele><time>2026-04-04T15:16:33Z</time></trkpt><trkpt lat="44.90662850724251" lon="11.981647032029413"><ele>-5.0</ele><time>2026-04-04T15:16:34Z</time></trkpt><trkpt lat="44.906644221500926" lon="11.981753792586083"><ele>-5.0</ele><time>2026-04-04T15:16:35Z</time></trkpt><trkpt lat="44.90666662491219" lon="11.981858707047271"><ele>-5.0</ele><time>2026-04-04T15:16:36Z</time></trkpt><trkpt lat="44.90668393909037" lon="11.981958884647176"><ele>-5.0</ele><time>2026-04-04T15:16:37Z</time></trkpt><trkpt lat="44.90670190368757" lon="11.982063222761445"><ele>-5.0</ele><time>2026-04-04T15:16:38Z</time></trkpt><trkpt lat="44.90671918995085" lon="11.982165543929915"><ele>-5.0</ele><time>2026-04-04T15:16:39Z</time></trkpt><trkpt lat="44.90673747695764" lon="11.982263322971791"><ele>-5.0</ele><time>2026-04-04T15:16:40Z</time></trkpt><trkpt lat="44.90675723494309" lon="11.982365703354304"><ele>-5.0</ele><time>2026-04-04T15:16:41Z</time></trkpt><trkpt lat="44.90677831503798" lon="11.982469774271172"><ele>-5.0</ele><time>2026-04-04T15:16:42Z</time></trkpt><trkpt lat="44.906797469494826" lon="11.982568792941718"><ele>-5.0</ele><time>2026-04-04T15:16:43Z</time></trkpt><trkpt lat="44.906817858695845" lon="11.982663889079419"><ele>-5.0</ele><time>2026-04-04T15:16:44Z</time></trkpt><trkpt lat="44.906831576181325" lon="11.982755747143303"><ele>-5.0</ele><time>2026-04-04T15:16:45Z</time></trkpt><trkpt lat="44.906845376934086" lon="11.982848609262666"><ele>-5.0</ele><time>2026-04-04T15:16:46Z</time></trkpt><trkpt lat="44.90685839581013" lon="11.9829383356721"><ele>-5.0</ele><time>2026-04-04T15:16:47Z</time></trkpt><trkpt lat="44.9068935671635" lon="11.983106393678382"><ele>-5.0</ele><time>2026-04-04T15:16:49Z</time></trkpt><trkpt lat="44.90692166053202" lon="11.983272824490559"><ele>-5.0</ele><time>2026-04-04T15:16:51Z</time></trkpt><trkpt lat="44.9069367204965" lon="11.983362037344909"><ele>-5.0</ele><time>2026-04-04T15:16:52Z</time></trkpt><trkpt lat="44.906955932271984" lon="11.983449198409092"><ele>-5.142857142857142</ele><time>2026-04-04T15:16:53Z</time></trkpt><trkpt lat="44.906970153456435" lon="11.98354409865631"><ele>-5.285714285714286</ele><time>2026-04-04T15:16:54Z</time></trkpt><trkpt lat="44.90698557398904" lon="11.983638473077674"><ele>-5.428571428571429</ele><time>2026-04-04T15:16:55Z</time></trkpt><trkpt lat="44.90700343963463" lon="11.983733462023807"><ele>-5.571428571428571</ele><time>2026-04-04T15:16:56Z</time></trkpt><trkpt lat="44.90702216915426" lon="11.983825069202641"><ele>-5.714285714285714</ele><time>2026-04-04T15:16:57Z</time></trkpt><trkpt lat="44.90703496660679" lon="11.983925431975836"><ele>-5.857142857142857</ele><time>2026-04-04T15:16:58Z</time></trkpt><trkpt lat="44.907051578513745" lon="11.98402423772113"><ele>-6.0</ele><time>2026-04-04T15:16:59Z</time></trkpt><trkpt lat="44.90706992932658" lon="11.984120814650842"><ele>-5.857142857142857</ele><time>2026-04-04T15:17:00Z</time></trkpt><trkpt lat="44.90708341324974" lon="11.984218260727989"><ele>-5.714285714285714</ele><time>2026-04-04T15:17:01Z</time></trkpt><trkpt lat="44.90710291489286" lon="11.984314075073977"><ele>-5.571428571428571</ele><time>2026-04-04T15:17:02Z</time></trkpt><trkpt lat="44.90712542132617" lon="11.984415357106947"><ele>-5.428571428571429</ele><time>2026-04-04T15:17:03Z</time></trkpt><trkpt lat="44.90713742471453" lon="11.984514623360239"><ele>-5.285714285714286</ele><time>2026-04-04T15:17:04Z</time></trkpt><trkpt lat="44.90715200511403" lon="11.984614846174207"><ele>-5.142857142857142</ele><time>2026-04-04T15:17:05Z</time></trkpt><trkpt lat="44.90716873469065" lon="11.984709258579539"><ele>-5.0</ele><time>2026-04-04T15:17:06Z</time></trkpt><trkpt lat="44.90718446303249" lon="11.984799533178654"><ele>-5.0</ele><time>2026-04-04T15:17:07Z</time></trkpt><trkpt lat="44.90720604834202" lon="11.984889859904738"><ele>-5.0</ele><time>2026-04-04T15:17:08Z</time></trkpt><trkpt lat="44.90722513350073" lon="11.98497860677746"><ele>-5.0</ele><time>2026-04-04T15:17:09Z</time></trkpt><trkpt lat="44.90724243524511" lon="11.985073159071437"><ele>-5.0</ele><time>2026-04-04T15:17:10Z</time></trkpt><trkpt lat="44.90725582232731" lon="11.985168183537457"><ele>-5.0</ele><time>2026-04-04T15:17:11Z</time></trkpt><trkpt lat="44.907272509245516" lon="11.985264534413304"><ele>-5.0</ele><time>2026-04-04T15:17:12Z</time></trkpt><trkpt lat="44.90728618088732" lon="11.985356204189701"><ele>-5.0</ele><time>2026-04-04T15:17:13Z</time></trkpt><trkpt lat="44.90729511212377" lon="11.985453682166254"><ele>-5.0</ele><time>2026-04-04T15:17:14Z</time></trkpt><trkpt lat="44.90731072258217" lon="11.985551193586494"><ele>-5.0</ele><time>2026-04-04T15:17:15Z</time></trkpt><trkpt lat="44.90733508733451" lon="11.985640272925119"><ele>-5.0</ele><time>2026-04-04T15:17:16Z</time></trkpt><trkpt lat="44.90734103999591" lon="11.985735657179658"><ele>-5.0</ele><time>2026-04-04T15:17:17Z</time></trkpt><trkpt lat="44.90735743325623" lon="11.985830783597132"><ele>-5.0</ele><time>2026-04-04T15:17:18Z</time></trkpt><trkpt lat="44.9073731908784" lon="11.985922221514056"><ele>-5.0</ele><time>2026-04-04T15:17:19Z</time></trkpt><trkpt lat="44.90740474173345" lon="11.986008342874923"><ele>-5.0</ele><time>2026-04-04T15:17:20Z</time></trkpt><trkpt lat="44.90741856183222" lon="11.986102955176658"><ele>-5.166666666666667</ele><time>2026-04-04T15:17:21Z</time></trkpt><trkpt lat="44.907433639189" lon="11.986195387181981"><ele>-5.333333333333334</ele><time>2026-04-04T15:17:22Z</time></trkpt><trkpt lat="44.9074477883107" lon="11.986288755815446"><ele>-5.5</ele><time>2026-04-04T15:17:23Z</time></trkpt><trkpt lat="44.90746337894412" lon="11.986384021775441"><ele>-5.666666666666667</ele><time>2026-04-04T15:17:24Z</time></trkpt><trkpt lat="44.90748178708249" lon="11.986480453545353"><ele>-5.833333333333333</ele><time>2026-04-04T15:17:25Z</time></trkpt><trkpt lat="44.90749347640268" lon="11.98656866877841"><ele>-6.0</ele><time>2026-04-04T15:17:25.999Z</time></trkpt><trkpt lat="44.907525821300446" lon="11.986734087736659"><ele>-6.199999999999999</ele><time>2026-04-04T15:17:27.999Z</time></trkpt><trkpt lat="44.90754482499638" lon="11.986894759428518"><ele>-6.3999999999999995</ele><time>2026-04-04T15:17:29.999Z</time></trkpt><trkpt lat="44.90757091362703" lon="11.987049336771145"><ele>-6.6</ele><time>2026-04-04T15:17:31.999Z</time></trkpt><trkpt lat="44.90759974245189" lon="11.987218318241613"><ele>-6.8</ele><time>2026-04-04T15:17:33.999Z</time></trkpt><trkpt lat="44.907617527060616" lon="11.987306699885428"><ele>-7.0</ele><time>2026-04-04T15:17:34.999Z</time></trkpt><trkpt lat="44.90763307382549" lon="11.987395345299474"><ele>-6.714285714285714</ele><time>2026-04-04T15:17:35.999Z</time></trkpt><trkpt lat="44.90764927954297" lon="11.987489668420526"><ele>-6.428571428571429</ele><time>2026-04-04T15:17:36.999Z</time></trkpt><trkpt lat="44.90766469008654" lon="11.98758242492774"><ele>-6.142857142857142</ele><time>2026-04-04T15:17:37.999Z</time></trkpt><trkpt lat="44.90768206633035" lon="11.98767433192716"><ele>-5.857142857142858</ele><time>2026-04-04T15:17:38.999Z</time></trkpt><trkpt lat="44.9076992841445" lon="11.987771181705044"><ele>-5.571428571428571</ele><time>2026-04-04T15:17:39.999Z</time></trkpt><trkpt lat="44.907717131026416" lon="11.987870557645147"><ele>-5.285714285714286</ele><time>2026-04-04T15:17:40.999Z</time></trkpt><trkpt lat="44.9077344528688" lon="11.987969150627547"><ele>-5.0</ele><time>2026-04-04T15:17:41.999Z</time></trkpt><trkpt lat="44.907753448642836" lon="11.988067868371656"><ele>-5.0</ele><time>2026-04-04T15:17:42.999Z</time></trkpt><trkpt lat="44.907770742944045" lon="11.988165252406926"><ele>-5.0</ele><time>2026-04-04T15:17:43.999Z</time></trkpt><trkpt lat="44.90778879335457" lon="11.98825890531472"><ele>-5.0</ele><time>2026-04-04T15:17:44.999Z</time></trkpt><trkpt lat="44.90781046603743" lon="11.988352945672828"><ele>-5.0</ele><time>2026-04-04T15:17:45.999Z</time></trkpt><trkpt lat="44.907829737752714" lon="11.988449556178946"><ele>-5.0</ele><time>2026-04-04T15:17:46.999Z</time></trkpt><trkpt lat="44.907841597004015" lon="11.988551317525266"><ele>-5.0</ele><time>2026-04-04T15:17:47.999Z</time></trkpt><trkpt lat="44.907856836607465" lon="11.988652004914362"><ele>-5.0</ele><time>2026-04-04T15:17:48.999Z</time></trkpt><trkpt lat="44.907873341690085" lon="11.988757397600516"><ele>-5.0</ele><time>2026-04-04T15:17:49.999Z</time></trkpt><trkpt lat="44.90788625598407" lon="11.988854993075643"><ele>-5.0</ele><time>2026-04-04T15:17:50.999Z</time></trkpt><trkpt lat="44.90790530848037" lon="11.988955716799287"><ele>-5.0</ele><time>2026-04-04T15:17:51.999Z</time></trkpt><trkpt lat="44.90792443217141" lon="11.989053182606643"><ele>-5.0</ele><time>2026-04-04T15:17:52.999Z</time></trkpt><trkpt lat="44.90794298665496" lon="11.989150918433259"><ele>-5.0</ele><time>2026-04-04T15:17:53.999Z</time></trkpt><trkpt lat="44.90795815618517" lon="11.989253450410498"><ele>-5.0</ele><time>2026-04-04T15:17:54.999Z</time></trkpt><trkpt lat="44.907973286345495" lon="11.989354913625865"><ele>-5.0</ele><time>2026-04-04T15:17:55.999Z</time></trkpt><trkpt lat="44.907992819900684" lon="11.989454841366392"><ele>-4.857142857142857</ele><time>2026-04-04T15:17:56.999Z</time></trkpt><trkpt lat="44.90801504007055" lon="11.98955781560895"><ele>-4.714285714285714</ele><time>2026-04-04T15:17:57.999Z</time></trkpt><trkpt lat="44.908038748700356" lon="11.989649704375122"><ele>-4.571428571428571</ele><time>2026-04-04T15:17:58.999Z</time></trkpt><trkpt lat="44.90804305423349" lon="11.989751150803238"><ele>-4.428571428571429</ele><time>2026-04-04T15:17:59.999Z</time></trkpt><trkpt lat="44.908066836729255" lon="11.989840927236038"><ele>-4.285714285714286</ele><time>2026-04-04T15:18:00.999Z</time></trkpt><trkpt lat="44.90807677906921" lon="11.98993084547115"><ele>-4.142857142857142</ele><time>2026-04-04T15:18:01.999Z</time></trkpt><trkpt lat="44.908086618675966" lon="11.990019867344031"><ele>-4.0</ele><time>2026-04-04T15:18:03Z</time></trkpt><trkpt lat="44.90811804376896" lon="11.99018165639201"><ele>-4.0</ele><time>2026-04-04T15:18:05Z</time></trkpt><trkpt lat="44.90814443175043" lon="11.990336037223157"><ele>-4.0</ele><time>2026-04-04T15:18:07Z</time></trkpt><trkpt lat="44.90816980742442" lon="11.990481290684112"><ele>-4.0</ele><time>2026-04-04T15:18:09Z</time></trkpt><trkpt lat="44.90819439002474" lon="11.990627307613769"><ele>-4.0</ele><time>2026-04-04T15:18:11Z</time></trkpt><trkpt lat="44.90821615609211" lon="11.990769708227937"><ele>-4.0</ele><time>2026-04-04T15:18:13Z</time></trkpt><trkpt lat="44.90823568670585" lon="11.990895689072778"><ele>-3.9999999999999996</ele><time>2026-04-04T15:18:15Z</time></trkpt><trkpt lat="44.90825797800203" lon="11.991004733940729"><ele>-4.0</ele><time>2026-04-04T15:18:17Z</time></trkpt><trkpt lat="44.908337360096645" lon="11.991058035776977"><ele>-4.0</ele><time>2026-04-04T15:18:20Z</time></trkpt><trkpt lat="44.90840454325741" lon="11.99104477393626"><ele>-4.0</ele><time>2026-04-04T15:18:22Z</time></trkpt><trkpt lat="44.90849346285102" lon="11.991051804967269"><ele>-3.9999999999999996</ele><time>2026-04-04T15:18:24Z</time></trkpt><trkpt lat="44.90859654344656" lon="11.991054470384249"><ele>-4.0</ele><time>2026-04-04T15:18:26Z</time></trkpt><trkpt lat="44.9087075409381" lon="11.991048719787738"><ele>-4.0</ele><time>2026-04-04T15:18:28Z</time></trkpt><trkpt lat="44.90883307263826" lon="11.991063774075045"><ele>-4.0</ele><time>2026-04-04T15:18:30Z</time></trkpt><trkpt lat="44.908959100445216" lon="11.991071266273053"><ele>-4.0</ele><time>2026-04-04T15:18:32Z</time></trkpt><trkpt lat="44.9090263012975" lon="11.991071350543328"><ele>-4.0</ele><time>2026-04-04T15:18:33Z</time></trkpt><trkpt lat="44.9090914095542" lon="11.991072527726383"><ele>-4.0</ele><time>2026-04-04T15:18:34Z</time></trkpt><trkpt lat="44.90916064995855" lon="11.991074577817965"><ele>-4.0</ele><time>2026-04-04T15:18:35Z</time></trkpt><trkpt lat="44.9092318637074" lon="11.991086279478605"><ele>-3.9999999999999996</ele><time>2026-04-04T15:18:36Z</time></trkpt><trkpt lat="44.909300240838334" lon="11.991085944566505"><ele>-4.0</ele><time>2026-04-04T15:18:37Z</time></trkpt><trkpt lat="44.909372471622895" lon="11.991083877423975"><ele>-4.0</ele><time>2026-04-04T15:18:38Z</time></trkpt><trkpt lat="44.909442750424624" lon="11.991095397981736"><ele>-3.9999999999999996</ele><time>2026-04-04T15:18:39Z</time></trkpt><trkpt lat="44.90951403984807" lon="11.991100827134586"><ele>-4.0</ele><time>2026-04-04T15:18:40Z</time></trkpt><trkpt lat="44.90958986756392" lon="11.991100248166967"><ele>-4.0</ele><time>2026-04-04T15:18:41Z</time></trkpt><trkpt lat="44.90966551945371" lon="11.991101033361096"><ele>-4.333333333333333</ele><time>2026-04-04T15:18:42Z</time></trkpt><trkpt lat="44.90974317070795" lon="11.991109859897154"><ele>-4.666666666666666</ele><time>2026-04-04T15:18:43Z</time></trkpt><trkpt lat="44.90982032523925" lon="11.991120200714812"><ele>-5.0</ele><time>2026-04-04T15:18:44Z</time></trkpt><trkpt lat="44.90989568137794" lon="11.991121935679024"><ele>-5.333333333333333</ele><time>2026-04-04T15:18:45Z</time></trkpt><trkpt lat="44.90997282862952" lon="11.991123463418829"><ele>-5.666666666666667</ele><time>2026-04-04T15:18:46Z</time></trkpt><trkpt lat="44.91004703504769" lon="11.99113011556647"><ele>-6.0</ele><time>2026-04-04T15:18:47Z</time></trkpt><trkpt lat="44.91012181315434" lon="11.991133151185776"><ele>-6.333333333333333</ele><time>2026-04-04T15:18:48Z</time></trkpt><trkpt lat="44.91019887529294" lon="11.991139923101157"><ele>-6.666666666666666</ele><time>2026-04-04T15:18:49Z</time></trkpt><trkpt lat="44.91027456775177" lon="11.991146686183631"><ele>-7.0</ele><time>2026-04-04T15:18:50Z</time></trkpt><trkpt lat="44.91035101047516" lon="11.991152581176772"><ele>-7.333333333333333</ele><time>2026-04-04T15:18:51Z</time></trkpt><trkpt lat="44.91042949799945" lon="11.99115115841225"><ele>-7.666666666666666</ele><time>2026-04-04T15:18:52Z</time></trkpt><trkpt lat="44.910505590140104" lon="11.991154176233392"><ele>-8.0</ele><time>2026-04-04T15:18:53Z</time></trkpt><trkpt lat="44.91058313827832" lon="11.991167030220724"><ele>-7.999999999999999</ele><time>2026-04-04T15:18:54Z</time></trkpt><trkpt lat="44.91065966248175" lon="11.991171800832825"><ele>-8.0</ele><time>2026-04-04T15:18:55Z</time></trkpt><trkpt lat="44.91073449777368" lon="11.99117176275936"><ele>-8.0</ele><time>2026-04-04T15:18:56Z</time></trkpt><trkpt lat="44.910811243725014" lon="11.991176830918416"><ele>-8.0</ele><time>2026-04-04T15:18:57Z</time></trkpt><trkpt lat="44.910883212612134" lon="11.991180597192358"><ele>-7.999999999999999</ele><time>2026-04-04T15:18:58Z</time></trkpt><trkpt lat="44.91095931005129" lon="11.99118408171144"><ele>-8.0</ele><time>2026-04-04T15:18:59Z</time></trkpt><trkpt lat="44.91103574674755" lon="11.991189265731915"><ele>-7.833333333333333</ele><time>2026-04-04T15:19:00Z</time></trkpt><trkpt lat="44.91111408431576" lon="11.991194561504376"><ele>-7.666666666666666</ele><time>2026-04-04T15:19:01Z</time></trkpt><trkpt lat="44.91118922869025" lon="11.991197200286496"><ele>-7.5</ele><time>2026-04-04T15:19:02Z</time></trkpt><trkpt lat="44.911265795986125" lon="11.99120452606234"><ele>-7.333333333333334</ele><time>2026-04-04T15:19:03Z</time></trkpt><trkpt lat="44.9113416869573" lon="11.991209303691559"><ele>-7.166666666666667</ele><time>2026-04-04T15:19:04Z</time></trkpt><trkpt lat="44.91141517453709" lon="11.991212919203699"><ele>-7.0</ele><time>2026-04-04T15:19:05Z</time></trkpt><trkpt lat="44.911493285554656" lon="11.991219607865453"><ele>-7.000000000000001</ele><time>2026-04-04T15:19:06Z</time></trkpt><trkpt lat="44.91157019654794" lon="11.991226738095268"><ele>-7.0</ele><time>2026-04-04T15:19:07Z</time></trkpt><trkpt lat="44.91164529979685" lon="11.991228367261332"><ele>-7.0</ele><time>2026-04-04T15:19:08Z</time></trkpt><trkpt lat="44.91172305109433" lon="11.991235417755934"><ele>-7.0</ele><time>2026-04-04T15:19:09Z</time></trkpt><trkpt lat="44.91179935640947" lon="11.991239691726717"><ele>-7.000000000000001</ele><time>2026-04-04T15:19:10Z</time></trkpt><trkpt lat="44.91187472742467" lon="11.99124337978615"><ele>-7.0</ele><time>2026-04-04T15:19:11Z</time></trkpt><trkpt lat="44.91195127277993" lon="11.991245202487516"><ele>-6.833333333333334</ele><time>2026-04-04T15:19:12Z</time></trkpt><trkpt lat="44.91202442135022" lon="11.991253273076229"><ele>-6.666666666666667</ele><time>2026-04-04T15:19:13Z</time></trkpt><trkpt lat="44.91210108032929" lon="11.991255446880134"><ele>-6.5</ele><time>2026-04-04T15:19:14Z</time></trkpt><trkpt lat="44.91218109620046" lon="11.99126097292741"><ele>-6.333333333333334</ele><time>2026-04-04T15:19:15Z</time></trkpt><trkpt lat="44.91225785561505" lon="11.991265587372983"><ele>-6.166666666666667</ele><time>2026-04-04T15:19:16Z</time></trkpt><trkpt lat="44.91233396064476" lon="11.991274156836228"><ele>-6.0</ele><time>2026-04-04T15:19:17Z</time></trkpt><trkpt lat="44.91240941935568" lon="11.991280308440462"><ele>-6.0</ele><time>2026-04-04T15:19:18Z</time></trkpt><trkpt lat="44.91248457549027" lon="11.991281082997483"><ele>-6.0</ele><time>2026-04-04T15:19:19Z</time></trkpt><trkpt lat="44.91256192582901" lon="11.991285519088677"><ele>-6.0</ele><time>2026-04-04T15:19:20Z</time></trkpt><trkpt lat="44.91263882823583" lon="11.991289144745487"><ele>-6.0</ele><time>2026-04-04T15:19:21Z</time></trkpt><trkpt lat="44.91271440789219" lon="11.9912952450622"><ele>-6.0</ele><time>2026-04-04T15:19:22Z</time></trkpt><trkpt lat="44.91279297172483" lon="11.99130113569206"><ele>-6.0</ele><time>2026-04-04T15:19:23Z</time></trkpt><trkpt lat="44.912869909657886" lon="11.991305282037965"><ele>-5.833333333333333</ele><time>2026-04-04T15:19:24Z</time></trkpt><trkpt lat="44.91294684196566" lon="11.991307718622018"><ele>-5.666666666666667</ele><time>2026-04-04T15:19:25Z</time></trkpt><trkpt lat="44.91302159053162" lon="11.991310269806194"><ele>-5.5</ele><time>2026-04-04T15:19:25.999Z</time></trkpt><trkpt lat="44.91310139296008" lon="11.991316024442032"><ele>-5.333333333333334</ele><time>2026-04-04T15:19:26.999Z</time></trkpt><trkpt lat="44.913176767260744" lon="11.99131977257408"><ele>-5.166666666666667</ele><time>2026-04-04T15:19:27.999Z</time></trkpt><trkpt lat="44.91324852189414" lon="11.991323165855281"><ele>-5.0</ele><time>2026-04-04T15:19:28.999Z</time></trkpt><trkpt lat="44.913322343874505" lon="11.991326096478897"><ele>-5.0</ele><time>2026-04-04T15:19:29.999Z</time></trkpt><trkpt lat="44.913394378143856" lon="11.991327503233606"><ele>-5.0</ele><time>2026-04-04T15:19:30.999Z</time></trkpt><trkpt lat="44.913473020087416" lon="11.99132674570089"><ele>-5.0</ele><time>2026-04-04T15:19:31.999Z</time></trkpt><trkpt lat="44.91355273186393" lon="11.991320804916969"><ele>-5.0</ele><time>2026-04-04T15:19:32.999Z</time></trkpt><trkpt lat="44.91363190966279" lon="11.991324120488805"><ele>-5.0</ele><time>2026-04-04T15:19:33.999Z</time></trkpt><trkpt lat="44.91370471626064" lon="11.991320902986516"><ele>-5.0</ele><time>2026-04-04T15:19:34.999Z</time></trkpt><trkpt lat="44.913776337267336" lon="11.99131980279979"><ele>-5.0</ele><time>2026-04-04T15:19:35.999Z</time></trkpt><trkpt lat="44.913848242899256" lon="11.991316952077971"><ele>-5.0</ele><time>2026-04-04T15:19:36.999Z</time></trkpt><trkpt lat="44.91392287935717" lon="11.991321979631651"><ele>-5.0</ele><time>2026-04-04T15:19:37.999Z</time></trkpt><trkpt lat="44.913993186625724" lon="11.991321937008793"><ele>-5.0</ele><time>2026-04-04T15:19:38.999Z</time></trkpt><trkpt lat="44.91407198889302" lon="11.991319900048786"><ele>-5.0</ele><time>2026-04-04T15:19:39.999Z</time></trkpt><trkpt lat="44.91414771834163" lon="11.991318587941825"><ele>-5.0</ele><time>2026-04-04T15:19:40.999Z</time></trkpt><trkpt lat="44.9142246926596" lon="11.99131442050749"><ele>-5.0</ele><time>2026-04-04T15:19:41.999Z</time></trkpt><trkpt lat="44.91429919601347" lon="11.991315193955243"><ele>-4.833333333333334</ele><time>2026-04-04T15:19:42.999Z</time></trkpt><trkpt lat="44.914374710672945" lon="11.991313865035403"><ele>-4.666666666666667</ele><time>2026-04-04T15:19:43.999Z</time></trkpt><trkpt lat="44.91445385192455" lon="11.991310993823445"><ele>-4.5</ele><time>2026-04-04T15:19:44.999Z</time></trkpt><trkpt lat="44.914524771543505" lon="11.991310570756504"><ele>-4.333333333333333</ele><time>2026-04-04T15:19:45.999Z</time></trkpt><trkpt lat="44.91460222852751" lon="11.99130900850871"><ele>-4.166666666666666</ele><time>2026-04-04T15:19:46.999Z</time></trkpt><trkpt lat="44.91467798978412" lon="11.99131177819657"><ele>-4.0</ele><time>2026-04-04T15:19:47.999Z</time></trkpt><trkpt lat="44.91475536740006" lon="11.9913130333861"><ele>-4.0</ele><time>2026-04-04T15:19:48.999Z</time></trkpt><trkpt lat="44.914836903182504" lon="11.99130964121038"><ele>-3.9999999999999996</ele><time>2026-04-04T15:19:49.999Z</time></trkpt><trkpt lat="44.91491113558372" lon="11.99130860075827"><ele>-4.0</ele><time>2026-04-04T15:19:50.999Z</time></trkpt><trkpt lat="44.91498675448308" lon="11.99130695676523"><ele>-4.0</ele><time>2026-04-04T15:19:51.999Z</time></trkpt><trkpt lat="44.91505929790338" lon="11.991303717418669"><ele>-3.9999999999999996</ele><time>2026-04-04T15:19:52.999Z</time></trkpt><trkpt lat="44.91512917770569" lon="11.9913053251463"><ele>-4.0</ele><time>2026-04-04T15:19:53.999Z</time></trkpt><trkpt lat="44.91520165741235" lon="11.991311632038126"><ele>-4.0</ele><time>2026-04-04T15:19:54.999Z</time></trkpt><trkpt lat="44.915265763613" lon="11.991311495515973"><ele>-4.142857142857142</ele><time>2026-04-04T15:19:55.999Z</time></trkpt><trkpt lat="44.91533375986524" lon="11.991313774264261"><ele>-4.285714285714286</ele><time>2026-04-04T15:19:56.999Z</time></trkpt><trkpt lat="44.915401706918814" lon="11.991306070703187"><ele>-4.428571428571429</ele><time>2026-04-04T15:19:57.999Z</time></trkpt><trkpt lat="44.91546649107417" lon="11.991298941426766"><ele>-4.571428571428571</ele><time>2026-04-04T15:19:58.999Z</time></trkpt><trkpt lat="44.91553718295683" lon="11.991302680692547"><ele>-4.714285714285714</ele><time>2026-04-04T15:19:59.999Z</time></trkpt><trkpt lat="44.915607927377174" lon="11.991300307728459"><ele>-4.857142857142857</ele><time>2026-04-04T15:20:00.999Z</time></trkpt><trkpt lat="44.91568054409834" lon="11.991295111746087"><ele>-5.0</ele><time>2026-04-04T15:20:01.999Z</time></trkpt><trkpt lat="44.915755742495456" lon="11.99130047988469"><ele>-5.0</ele><time>2026-04-04T15:20:02.999Z</time></trkpt><trkpt lat="44.91582660954253" lon="11.991300163605413"><ele>-5.0</ele><time>2026-04-04T15:20:03.999Z</time></trkpt><trkpt lat="44.91590179468894" lon="11.991300271360284"><ele>-5.0</ele><time>2026-04-04T15:20:04.999Z</time></trkpt><trkpt lat="44.91597717465907" lon="11.991306072994425"><ele>-5.0</ele><time>2026-04-04T15:20:05.999Z</time></trkpt><trkpt lat="44.91604830641987" lon="11.991308343271186"><ele>-5.0</ele><time>2026-04-04T15:20:06.999Z</time></trkpt><trkpt lat="44.91612040558218" lon="11.99131274732435"><ele>-5.0</ele><time>2026-04-04T15:20:07.999Z</time></trkpt><trkpt lat="44.91619450352401" lon="11.991309500979465"><ele>-5.0</ele><time>2026-04-04T15:20:09Z</time></trkpt><trkpt lat="44.916269234459506" lon="11.991300510832632"><ele>-5.166666666666667</ele><time>2026-04-04T15:20:10Z</time></trkpt><trkpt lat="44.91634398130441" lon="11.991286393219227"><ele>-5.333333333333334</ele><time>2026-04-04T15:20:11Z</time></trkpt><trkpt lat="44.916419053184704" lon="11.991279141684606"><ele>-5.5</ele><time>2026-04-04T15:20:12Z</time></trkpt><trkpt lat="44.91649384020819" lon="11.991282172902517"><ele>-5.666666666666667</ele><time>2026-04-04T15:20:13Z</time></trkpt><trkpt lat="44.916570248053084" lon="11.991295135582112"><ele>-5.833333333333333</ele><time>2026-04-04T15:20:14Z</time></trkpt><trkpt lat="44.91664518729494" lon="11.991298891917328"><ele>-6.0</ele><time>2026-04-04T15:20:15Z</time></trkpt><trkpt lat="44.91672248877652" lon="11.991293009956385"><ele>-6.166666666666667</ele><time>2026-04-04T15:20:16Z</time></trkpt><trkpt lat="44.916801688955175" lon="11.99129398037609"><ele>-6.333333333333334</ele><time>2026-04-04T15:20:17Z</time></trkpt><trkpt lat="44.91687828395703" lon="11.99129216822001"><ele>-6.5</ele><time>2026-04-04T15:20:18Z</time></trkpt><trkpt lat="44.91695522105091" lon="11.99128847627265"><ele>-6.666666666666667</ele><time>2026-04-04T15:20:19Z</time></trkpt><trkpt lat="44.91703502019664" lon="11.99128549769336"><ele>-6.833333333333334</ele><time>2026-04-04T15:20:20Z</time></trkpt><trkpt lat="44.917111486092026" lon="11.991281980754119"><ele>-7.0</ele><time>2026-04-04T15:20:21Z</time></trkpt><trkpt lat="44.917187824067575" lon="11.99128037940125"><ele>-7.0</ele><time>2026-04-04T15:20:22Z</time></trkpt><trkpt lat="44.917263928134105" lon="11.99128126414711"><ele>-7.0</ele><time>2026-04-04T15:20:23Z</time></trkpt><trkpt lat="44.91734116331436" lon="11.991280614993112"><ele>-7.0</ele><time>2026-04-04T15:20:24Z</time></trkpt><trkpt lat="44.917413059952445" lon="11.991277107285285"><ele>-7.0</ele><time>2026-04-04T15:20:25Z</time></trkpt><trkpt lat="44.91748277643126" lon="11.99127132546466"><ele>-7.0</ele><time>2026-04-04T15:20:26Z</time></trkpt><trkpt lat="44.917547715141694" lon="11.991273609092962"><ele>-7.0</ele><time>2026-04-04T15:20:27Z</time></trkpt><trkpt lat="44.917615837626144" lon="11.99127396807925"><ele>-7.0</ele><time>2026-04-04T15:20:28Z</time></trkpt><trkpt lat="44.917679475086516" lon="11.991268050661226"><ele>-7.166666666666667</ele><time>2026-04-04T15:20:29Z</time></trkpt><trkpt lat="44.917743464514146" lon="11.99126451803581"><ele>-7.333333333333334</ele><time>2026-04-04T15:20:30Z</time></trkpt><trkpt lat="44.91780621930501" lon="11.991284166471512"><ele>-7.5</ele><time>2026-04-04T15:20:31Z</time></trkpt><trkpt lat="44.91792688748415" lon="11.991282179799496"><ele>-7.666666666666666</ele><time>2026-04-04T15:20:33Z</time></trkpt><trkpt lat="44.91799270682739" lon="11.99128127609669"><ele>-7.833333333333333</ele><time>2026-04-04T15:20:34Z</time></trkpt><trkpt lat="44.91806108425456" lon="11.991280367984961"><ele>-8.0</ele><time>2026-04-04T15:20:35Z</time></trkpt><trkpt lat="44.91818485986689" lon="11.991260012645341"><ele>-7.999999999999999</ele><time>2026-04-04T15:20:37Z</time></trkpt><trkpt lat="44.91824976432475" lon="11.991262191302548"><ele>-8.0</ele><time>2026-04-04T15:20:38Z</time></trkpt><trkpt lat="44.91837512711012" lon="11.991265162053649"><ele>-8.0</ele><time>2026-04-04T15:20:40Z</time></trkpt><trkpt lat="44.91843806686655" lon="11.99126272727679"><ele>-8.0</ele><time>2026-04-04T15:20:41Z</time></trkpt><trkpt lat="44.91856571179324" lon="11.991264724728394"><ele>-7.999999999999999</ele><time>2026-04-04T15:20:43Z</time></trkpt><trkpt lat="44.91863237275323" lon="11.991265782432876"><ele>-8.0</ele><time>2026-04-04T15:20:44Z</time></trkpt><trkpt lat="44.918701026065975" lon="11.991266513249842"><ele>-7.7142857142857135</ele><time>2026-04-04T15:20:45Z</time></trkpt><trkpt lat="44.918770207549535" lon="11.991258680932567"><ele>-7.428571428571428</ele><time>2026-04-04T15:20:46Z</time></trkpt><trkpt lat="44.918841439165284" lon="11.991251995864562"><ele>-7.142857142857142</ele><time>2026-04-04T15:20:47Z</time></trkpt><trkpt lat="44.91891144878587" lon="11.991253242244381"><ele>-6.857142857142857</ele><time>2026-04-04T15:20:48Z</time></trkpt><trkpt lat="44.918982596516415" lon="11.991249031829108"><ele>-6.571428571428571</ele><time>2026-04-04T15:20:49Z</time></trkpt><trkpt lat="44.91905650319575" lon="11.99125274553205"><ele>-6.285714285714285</ele><time>2026-04-04T15:20:50Z</time></trkpt><trkpt lat="44.91913127270455" lon="11.991255464090425"><ele>-6.0</ele><time>2026-04-04T15:20:51Z</time></trkpt><trkpt lat="44.91920541464792" lon="11.991247933653273"><ele>-6.166666666666667</ele><time>2026-04-04T15:20:52Z</time></trkpt><trkpt lat="44.919280581133215" lon="11.991247580617326"><ele>-6.333333333333334</ele><time>2026-04-04T15:20:53Z</time></trkpt><trkpt lat="44.91935466525396" lon="11.991246200440884"><ele>-6.5</ele><time>2026-04-04T15:20:54Z</time></trkpt><trkpt lat="44.91943019174185" lon="11.991244774570477"><ele>-6.666666666666667</ele><time>2026-04-04T15:20:55Z</time></trkpt><trkpt lat="44.91950686754983" lon="11.99124455889714"><ele>-6.833333333333334</ele><time>2026-04-04T15:20:56Z</time></trkpt><trkpt lat="44.91958299811232" lon="11.991236257998647"><ele>-7.0</ele><time>2026-04-04T15:20:57Z</time></trkpt><trkpt lat="44.9196613677744" lon="11.99123879339438"><ele>-7.000000000000001</ele><time>2026-04-04T15:20:58Z</time></trkpt><trkpt lat="44.91973640062298" lon="11.991239398390361"><ele>-7.0</ele><time>2026-04-04T15:20:59Z</time></trkpt><trkpt lat="44.91981207410357" lon="11.99123788847794"><ele>-7.0</ele><time>2026-04-04T15:21:00Z</time></trkpt><trkpt lat="44.91988210640471" lon="11.991236918207672"><ele>-7.0</ele><time>2026-04-04T15:21:01Z</time></trkpt><trkpt lat="44.91996189458905" lon="11.991232114456997"><ele>-7.000000000000001</ele><time>2026-04-04T15:21:02Z</time></trkpt><trkpt lat="44.92004069748401" lon="11.991234473541008"><ele>-7.0</ele><time>2026-04-04T15:21:03Z</time></trkpt><trkpt lat="44.920116796172" lon="11.991234651521442"><ele>-6.857142857142857</ele><time>2026-04-04T15:21:04Z</time></trkpt><trkpt lat="44.92019361889724" lon="11.991234390588795"><ele>-6.714285714285714</ele><time>2026-04-04T15:21:05Z</time></trkpt><trkpt lat="44.92027145490982" lon="11.991234939129422"><ele>-6.571428571428571</ele><time>2026-04-04T15:21:06Z</time></trkpt><trkpt lat="44.92035001055787" lon="11.99123236379775"><ele>-6.428571428571429</ele><time>2026-04-04T15:21:07Z</time></trkpt><trkpt lat="44.92042081745358" lon="11.991225882663999"><ele>-6.285714285714286</ele><time>2026-04-04T15:21:08Z</time></trkpt><trkpt lat="44.920493887082735" lon="11.991220852252676"><ele>-6.142857142857142</ele><time>2026-04-04T15:21:09Z</time></trkpt><trkpt lat="44.92056580367872" lon="11.991226076745892"><ele>-6.0</ele><time>2026-04-04T15:21:10Z</time></trkpt><trkpt lat="44.920643015514756" lon="11.991222344210536"><ele>-6.0</ele><time>2026-04-04T15:21:11Z</time></trkpt><trkpt lat="44.920717003923286" lon="11.991221264332072"><ele>-6.0</ele><time>2026-04-04T15:21:12Z</time></trkpt><trkpt lat="44.92079211253818" lon="11.991226002952043"><ele>-6.0</ele><time>2026-04-04T15:21:13Z</time></trkpt><trkpt lat="44.92086356122985" lon="11.991226283474496"><ele>-6.0</ele><time>2026-04-04T15:21:14Z</time></trkpt><trkpt lat="44.92093134070688" lon="11.991228490075251"><ele>-6.0</ele><time>2026-04-04T15:21:15Z</time></trkpt><trkpt lat="44.92103283385092" lon="11.99123068052875"><ele>-6.0</ele><time>2026-04-04T15:21:17Z</time></trkpt><trkpt lat="44.921105718718664" lon="11.991268058473556"><ele>-6.0</ele><time>2026-04-04T15:21:20Z</time></trkpt><trkpt lat="44.92117076884443" lon="11.991224825604222"><ele>-6.0</ele><time>2026-04-04T15:22:54Z</time></trkpt><trkpt lat="44.92124979172604" lon="11.991234225180737"><ele>-6.0</ele><time>2026-04-04T15:22:56Z</time></trkpt><trkpt lat="44.92135063361792" lon="11.991230528842651"><ele>-6.0</ele><time>2026-04-04T15:22:58Z</time></trkpt><trkpt lat="44.921463946105185" lon="11.99123026531801"><ele>-6.0</ele><time>2026-04-04T15:23:00Z</time></trkpt><trkpt lat="44.92158699883926" lon="11.991236252980908"><ele>-5.999999999999999</ele><time>2026-04-04T15:23:02Z</time></trkpt><trkpt lat="44.92165128709347" lon="11.991234199394894"><ele>-6.0</ele><time>2026-04-04T15:23:03Z</time></trkpt><trkpt lat="44.92171698409994" lon="11.991230285605306"><ele>-6.0</ele><time>2026-04-04T15:23:04Z</time></trkpt><trkpt lat="44.9217827356812" lon="11.991228986344764"><ele>-6.0</ele><time>2026-04-04T15:23:05Z</time></trkpt><trkpt lat="44.92185570657158" lon="11.991227687834765"><ele>-6.0</ele><time>2026-04-04T15:23:06Z</time></trkpt><trkpt lat="44.92192671419983" lon="11.991227993849407"><ele>-5.999999999999999</ele><time>2026-04-04T15:23:07Z</time></trkpt><trkpt lat="44.922000294317954" lon="11.99122834897986"><ele>-6.0</ele><time>2026-04-04T15:23:08Z</time></trkpt><trkpt lat="44.92207677124701" lon="11.991228414880919"><ele>-6.0</ele><time>2026-04-04T15:23:09Z</time></trkpt><trkpt lat="44.922151553128266" lon="11.991227385101563"><ele>-6.0</ele><time>2026-04-04T15:23:10Z</time></trkpt><trkpt lat="44.922224982415884" lon="11.991218522168237"><ele>-6.0</ele><time>2026-04-04T15:23:11Z</time></trkpt><trkpt lat="44.922302385516815" lon="11.99121379607557"><ele>-6.0</ele><time>2026-04-04T15:23:12Z</time></trkpt><trkpt lat="44.92237974860369" lon="11.991213440847146"><ele>-6.0</ele><time>2026-04-04T15:23:13Z</time></trkpt><trkpt lat="44.922456183174994" lon="11.99121372166373"><ele>-6.0</ele><time>2026-04-04T15:23:14Z</time></trkpt><trkpt lat="44.92253286013983" lon="11.991215014752903"><ele>-6.166666666666667</ele><time>2026-04-04T15:23:15Z</time></trkpt><trkpt lat="44.92260579598404" lon="11.99120851953226"><ele>-6.333333333333334</ele><time>2026-04-04T15:23:16Z</time></trkpt><trkpt lat="44.922679928317855" lon="11.991208906826056"><ele>-6.5</ele><time>2026-04-04T15:23:17Z</time></trkpt><trkpt lat="44.922754128642644" lon="11.991206949327191"><ele>-6.666666666666667</ele><time>2026-04-04T15:23:18Z</time></trkpt><trkpt lat="44.92283074933386" lon="11.991205702678373"><ele>-6.833333333333334</ele><time>2026-04-04T15:23:19Z</time></trkpt><trkpt lat="44.9229076219132" lon="11.991207839542106"><ele>-7.0</ele><time>2026-04-04T15:23:20Z</time></trkpt><trkpt lat="44.9229849782848" lon="11.99120680712227"><ele>-7.000000000000001</ele><time>2026-04-04T15:23:21Z</time></trkpt><trkpt lat="44.923062218926546" lon="11.991202827933314"><ele>-7.0</ele><time>2026-04-04T15:23:22Z</time></trkpt><trkpt lat="44.923138924816" lon="11.991204881256227"><ele>-7.0</ele><time>2026-04-04T15:23:23Z</time></trkpt><trkpt lat="44.92321695848888" lon="11.991210443997316"><ele>-7.0</ele><time>2026-04-04T15:23:24Z</time></trkpt><trkpt lat="44.92329775167326" lon="11.99121022580558"><ele>-7.000000000000001</ele><time>2026-04-04T15:23:25Z</time></trkpt><trkpt lat="44.92337491529572" lon="11.991208451840544"><ele>-7.0</ele><time>2026-04-04T15:23:26Z</time></trkpt><trkpt lat="44.923452831112805" lon="11.991213241112177"><ele>-7.000000000000001</ele><time>2026-04-04T15:23:26.999Z</time></trkpt><trkpt lat="44.92352846734566" lon="11.991211272724797"><ele>-7.0</ele><time>2026-04-04T15:23:27.999Z</time></trkpt><trkpt lat="44.92360420491452" lon="11.991196798252325"><ele>-7.0</ele><time>2026-04-04T15:23:28.999Z</time></trkpt><trkpt lat="44.923682802044524" lon="11.991193907079635"><ele>-7.0</ele><time>2026-04-04T15:23:29.999Z</time></trkpt><trkpt lat="44.92375848543762" lon="11.991204627901173"><ele>-7.000000000000001</ele><time>2026-04-04T15:23:30.999Z</time></trkpt><trkpt lat="44.92383327879018" lon="11.991208737638148"><ele>-7.0</ele><time>2026-04-04T15:23:31.999Z</time></trkpt><trkpt lat="44.92390749498843" lon="11.991213285206218"><ele>-7.000000000000001</ele><time>2026-04-04T15:23:32.999Z</time></trkpt><trkpt lat="44.923979276976986" lon="11.991200752411666"><ele>-7.0</ele><time>2026-04-04T15:23:33.999Z</time></trkpt><trkpt lat="44.92405271331604" lon="11.991200860820491"><ele>-7.0</ele><time>2026-04-04T15:23:34.999Z</time></trkpt><trkpt lat="44.92412465154868" lon="11.991212744647056"><ele>-7.0</ele><time>2026-04-04T15:23:35.999Z</time></trkpt><trkpt lat="44.92419357954791" lon="11.99121320379665"><ele>-7.000000000000001</ele><time>2026-04-04T15:23:36.999Z</time></trkpt><trkpt lat="44.924258276443055" lon="11.9912112850128"><ele>-7.0</ele><time>2026-04-04T15:23:37.999Z</time></trkpt><trkpt lat="44.92437223100736" lon="11.991192407759439"><ele>-7.0</ele><time>2026-04-04T15:23:39.999Z</time></trkpt><trkpt lat="44.92446979030072" lon="11.991106033666568"><ele>-6.999999999999999</ele><time>2026-04-04T15:23:41.999Z</time></trkpt><trkpt lat="44.92449522575244" lon="11.991024030976956"><ele>-6.999999999999999</ele><time>2026-04-04T15:23:42.999Z</time></trkpt><trkpt lat="44.92447570032164" lon="11.990914785794022"><ele>-7.0</ele><time>2026-04-04T15:23:43.999Z</time></trkpt><trkpt lat="44.92447431298855" lon="11.9907419493621"><ele>-7.0</ele><time>2026-04-04T15:23:45.999Z</time></trkpt><trkpt lat="44.92446939406828" lon="11.990560638797296"><ele>-7.0</ele><time>2026-04-04T15:23:47.999Z</time></trkpt><trkpt lat="44.92445375948124" lon="11.990471174981318"><ele>-7.0</ele><time>2026-04-04T15:23:48.999Z</time></trkpt><trkpt lat="44.92445453711497" lon="11.990374142644429"><ele>-7.0</ele><time>2026-04-04T15:23:49.999Z</time></trkpt><trkpt lat="44.924451090206716" lon="11.990275101491877"><ele>-7.0</ele><time>2026-04-04T15:23:50.999Z</time></trkpt><trkpt lat="44.92445152567446" lon="11.990173162668704"><ele>-7.0</ele><time>2026-04-04T15:23:51.999Z</time></trkpt><trkpt lat="44.924447841008714" lon="11.990075387634988"><ele>-7.0</ele><time>2026-04-04T15:23:52.999Z</time></trkpt><trkpt lat="44.924446449574" lon="11.989973289674461"><ele>-7.0</ele><time>2026-04-04T15:23:53.999Z</time></trkpt><trkpt lat="44.92444140007657" lon="11.98986758313318"><ele>-7.000000000000001</ele><time>2026-04-04T15:23:54.999Z</time></trkpt><trkpt lat="44.924439372769925" lon="11.989761944861176"><ele>-7.0</ele><time>2026-04-04T15:23:55.999Z</time></trkpt><trkpt lat="44.92444012890163" lon="11.989657769729858"><ele>-7.0</ele><time>2026-04-04T15:23:56.999Z</time></trkpt><trkpt lat="44.924437010805335" lon="11.9895494919357"><ele>-7.0</ele><time>2026-04-04T15:23:57.999Z</time></trkpt><trkpt lat="44.924435156925846" lon="11.989439749486575"><ele>-7.000000000000001</ele><time>2026-04-04T15:23:58.999Z</time></trkpt><trkpt lat="44.92443385527852" lon="11.989336600020016"><ele>-7.0</ele><time>2026-04-04T15:23:59.999Z</time></trkpt><trkpt lat="44.924433031062094" lon="11.989228846135692"><ele>-6.833333333333334</ele><time>2026-04-04T15:24:00.999Z</time></trkpt><trkpt lat="44.924430144124806" lon="11.989118879663337"><ele>-6.666666666666667</ele><time>2026-04-04T15:24:01.999Z</time></trkpt><trkpt lat="44.924430377903704" lon="11.989011837118287"><ele>-6.5</ele><time>2026-04-04T15:24:02.999Z</time></trkpt><trkpt lat="44.924428616739355" lon="11.988905686384731"><ele>-6.333333333333334</ele><time>2026-04-04T15:24:03.999Z</time></trkpt><trkpt lat="44.924423805890065" lon="11.988798355935259"><ele>-6.166666666666667</ele><time>2026-04-04T15:24:04.999Z</time></trkpt><trkpt lat="44.92442042089735" lon="11.988696702950639"><ele>-6.0</ele><time>2026-04-04T15:24:05.999Z</time></trkpt><trkpt lat="44.92441439744759" lon="11.988549661386946"><ele>-6.0</ele><time>2026-04-04T15:24:07.999Z</time></trkpt><trkpt lat="44.9243198990576" lon="11.98847847854392"><ele>-6.0</ele><time>2026-04-04T15:24:10.999Z</time></trkpt><trkpt lat="44.92423948406718" lon="11.988471910422394"><ele>-6.0</ele><time>2026-04-04T15:24:12.999Z</time></trkpt><trkpt lat="44.924221633728095" lon="11.988263537879634"><ele>-6.0</ele><time>2026-04-04T15:24:23Z</time></trkpt><trkpt lat="44.92420006626036" lon="11.988150764811028"><ele>-6.0</ele><time>2026-04-04T15:24:27Z</time></trkpt></trkseg></trk></gpx>